<?xml version='1.0' encoding='UTF-8'?><gpx version="1.1" creator="JPX - https://github.com/jenetics/jpx" xmlns="http://www.topografix.com/GPX/1/1"><trk><trkseg><trkpt lat="41.5419431" lon="12.950264"><ele>19.0</ele><time>2026-04-25T10:06:10.283Z</time></trkpt><trkpt lat="41.5420075" lon="12.9502791"><ele>19.0</ele><time>2026-04-25T10:06:11.271Z</time></trkpt><trkpt lat="41.5420868" lon="12.9503111"><ele>19.0</ele><time>2026-04-25T10:06:12.282Z</time></trkpt><trkpt lat="41.5421593" lon="12.9503508"><ele>19.0</ele><time>2026-04-25T10:06:13.279Z</time></trkpt><trkpt lat="41.5422369" lon="12.950396"><ele>19.0</ele><time>2026-04-25T10:06:14.277Z</time></trkpt><trkpt lat="41.5423089" lon="12.9504401"><ele>19.0</ele><time>2026-04-25T10:06:15.283Z</time></trkpt><trkpt lat="41.542376" lon="12.9504852"><ele>19.285714285714285</ele><time>2026-04-25T10:06:16.286Z</time></trkpt><trkpt lat="41.5424424" lon="12.9505365"><ele>19.571428571428573</ele><time>2026-04-25T10:06:17.279Z</time></trkpt><trkpt lat="41.5425035" lon="12.950593"><ele>19.857142857142858</ele><time>2026-04-25T10:06:18.288Z</time></trkpt><trkpt lat="41.5425633" lon="12.9506479"><ele>20.142857142857142</ele><time>2026-04-25T10:06:19.287Z</time></trkpt><trkpt lat="41.542625" lon="12.9506929"><ele>20.42857142857143</ele><time>2026-04-25T10:06:20.293Z</time></trkpt><trkpt lat="41.5426886" lon="12.9507319"><ele>20.714285714285715</ele><time>2026-04-25T10:06:21.272Z</time></trkpt><trkpt lat="41.5427553" lon="12.9507789"><ele>21.0</ele><time>2026-04-25T10:06:22.276Z</time></trkpt><trkpt lat="41.542823" lon="12.9508189"><ele>21.0</ele><time>2026-04-25T10:06:23.277Z</time></trkpt><trkpt lat="41.5428962" lon="12.9508578"><ele>21.0</ele><time>2026-04-25T10:06:24.274Z</time></trkpt><trkpt lat="41.5429803" lon="12.9509106"><ele>21.0</ele><time>2026-04-25T10:06:25.278Z</time></trkpt><trkpt lat="41.5430803" lon="12.9509708"><ele>21.0</ele><time>2026-04-25T10:06:26.282Z</time></trkpt><trkpt lat="41.5432064" lon="12.9510444"><ele>21.0</ele><time>2026-04-25T10:06:27.283Z</time></trkpt><trkpt lat="41.5433482" lon="12.9511307"><ele>21.0</ele><time>2026-04-25T10:06:28.287Z</time></trkpt><trkpt lat="41.5435201" lon="12.9512342"><ele>21.0</ele><time>2026-04-25T10:06:29.277Z</time></trkpt><trkpt lat="41.5437112" lon="12.9513473"><ele>21.0</ele><time>2026-04-25T10:06:30.281Z</time></trkpt><trkpt lat="41.5439114" lon="12.951468"><ele>20.0</ele><time>2026-04-25T10:06:31.279Z</time></trkpt><trkpt lat="41.5441205" lon="12.9515926"><ele>19.0</ele><time>2026-04-25T10:06:32.286Z</time></trkpt><trkpt lat="41.5443349" lon="12.9517214"><ele>18.5</ele><time>2026-04-25T10:06:33.279Z</time></trkpt><trkpt lat="41.5445586" lon="12.9518573"><ele>18.0</ele><time>2026-04-25T10:06:34.282Z</time></trkpt><trkpt lat="41.5447818" lon="12.9519928"><ele>18.0</ele><time>2026-04-25T10:06:35.278Z</time></trkpt><trkpt lat="41.5450071" lon="12.9521283"><ele>18.0</ele><time>2026-04-25T10:06:36.277Z</time></trkpt><trkpt lat="41.5452195" lon="12.9522563"><ele>18.0</ele><time>2026-04-25T10:06:37.277Z</time></trkpt><trkpt lat="41.5454185" lon="12.9523738"><ele>18.0</ele><time>2026-04-25T10:06:38.277Z</time></trkpt><trkpt lat="41.5456045" lon="12.9524872"><ele>18.0</ele><time>2026-04-25T10:06:39.278Z</time></trkpt><trkpt lat="41.5457926" lon="12.9525986"><ele>18.333333333333332</ele><time>2026-04-25T10:06:40.278Z</time></trkpt><trkpt lat="41.5459817" lon="12.9527147"><ele>18.666666666666664</ele><time>2026-04-25T10:06:41.274Z</time></trkpt><trkpt lat="41.5461719" lon="12.9528317"><ele>19.0</ele><time>2026-04-25T10:06:42.278Z</time></trkpt><trkpt lat="41.5463628" lon="12.9529455"><ele>19.0</ele><time>2026-04-25T10:06:43.287Z</time></trkpt><trkpt lat="41.5465532" lon="12.9530575"><ele>19.0</ele><time>2026-04-25T10:06:44.277Z</time></trkpt><trkpt lat="41.5467357" lon="12.9531702"><ele>19.0</ele><time>2026-04-25T10:06:45.276Z</time></trkpt><trkpt lat="41.546922" lon="12.9532852"><ele>19.0</ele><time>2026-04-25T10:06:46.274Z</time></trkpt><trkpt lat="41.5471061" lon="12.9533927"><ele>19.0</ele><time>2026-04-25T10:06:47.285Z</time></trkpt><trkpt lat="41.5472881" lon="12.9535028"><ele>19.0</ele><time>2026-04-25T10:06:48.276Z</time></trkpt><trkpt lat="41.5474664" lon="12.953619"><ele>19.0</ele><time>2026-04-25T10:06:49.278Z</time></trkpt><trkpt lat="41.5476451" lon="12.9537284"><ele>19.0</ele><time>2026-04-25T10:06:50.277Z</time></trkpt><trkpt lat="41.5478235" lon="12.9538393"><ele>19.0</ele><time>2026-04-25T10:06:51.277Z</time></trkpt><trkpt lat="41.5479984" lon="12.9539486"><ele>19.333333333333332</ele><time>2026-04-25T10:06:52.277Z</time></trkpt><trkpt lat="41.5481733" lon="12.9540531"><ele>19.666666666666668</ele><time>2026-04-25T10:06:53.284Z</time></trkpt><trkpt lat="41.5483406" lon="12.9541569"><ele>20.0</ele><time>2026-04-25T10:06:54.273Z</time></trkpt><trkpt lat="41.5485113" lon="12.9542601"><ele>19.666666666666668</ele><time>2026-04-25T10:06:55.287Z</time></trkpt><trkpt lat="41.5486956" lon="12.95437"><ele>19.333333333333332</ele><time>2026-04-25T10:06:56.286Z</time></trkpt><trkpt lat="41.5488883" lon="12.9544839"><ele>19.0</ele><time>2026-04-25T10:06:57.274Z</time></trkpt><trkpt lat="41.5491054" lon="12.9545996"><ele>19.0</ele><time>2026-04-25T10:06:58.286Z</time></trkpt><trkpt lat="41.5493393" lon="12.9547349"><ele>19.0</ele><time>2026-04-25T10:06:59.275Z</time></trkpt><trkpt lat="41.5495846" lon="12.9548849"><ele>18.5</ele><time>2026-04-25T10:07:00.285Z</time></trkpt><trkpt lat="41.5498274" lon="12.9550385"><ele>18.0</ele><time>2026-04-25T10:07:01.274Z</time></trkpt><trkpt lat="41.5500497" lon="12.9551818"><ele>18.0</ele><time>2026-04-25T10:07:02.277Z</time></trkpt><trkpt lat="41.5502527" lon="12.9553073"><ele>18.0</ele><time>2026-04-25T10:07:03.282Z</time></trkpt><trkpt lat="41.5504436" lon="12.9554277"><ele>18.0</ele><time>2026-04-25T10:07:04.288Z</time></trkpt><trkpt lat="41.5506188" lon="12.9555412"><ele>18.333333333333332</ele><time>2026-04-25T10:07:05.278Z</time></trkpt><trkpt lat="41.5507821" lon="12.9556449"><ele>18.666666666666664</ele><time>2026-04-25T10:07:06.289Z</time></trkpt><trkpt lat="41.5509346" lon="12.9557344"><ele>19.0</ele><time>2026-04-25T10:07:07.286Z</time></trkpt><trkpt lat="41.551075" lon="12.9558244"><ele>19.0</ele><time>2026-04-25T10:07:08.28Z</time></trkpt><trkpt lat="41.551199" lon="12.9559023"><ele>19.0</ele><time>2026-04-25T10:07:09.279Z</time></trkpt><trkpt lat="41.551312" lon="12.9559723"><ele>19.0</ele><time>2026-04-25T10:07:10.288Z</time></trkpt><trkpt lat="41.5514279" lon="12.9560404"><ele>19.0</ele><time>2026-04-25T10:07:11.284Z</time></trkpt><trkpt lat="41.5515632" lon="12.9561207"><ele>19.333333333333332</ele><time>2026-04-25T10:07:12.278Z</time></trkpt><trkpt lat="41.5517259" lon="12.9562154"><ele>19.666666666666668</ele><time>2026-04-25T10:07:13.287Z</time></trkpt><trkpt lat="41.5519139" lon="12.9563187"><ele>20.0</ele><time>2026-04-25T10:07:14.281Z</time></trkpt><trkpt lat="41.552092" lon="12.9564288"><ele>20.25</ele><time>2026-04-25T10:07:15.28Z</time></trkpt><trkpt lat="41.5522535" lon="12.9565268"><ele>20.5</ele><time>2026-04-25T10:07:16.278Z</time></trkpt><trkpt lat="41.552384" lon="12.9566063"><ele>20.75</ele><time>2026-04-25T10:07:17.286Z</time></trkpt><trkpt lat="41.5524958" lon="12.9566723"><ele>21.0</ele><time>2026-04-25T10:07:18.284Z</time></trkpt><trkpt lat="41.552593" lon="12.9567282"><ele>21.0</ele><time>2026-04-25T10:07:19.28Z</time></trkpt><trkpt lat="41.5526927" lon="12.9567833"><ele>21.0</ele><time>2026-04-25T10:07:20.279Z</time></trkpt><trkpt lat="41.5527933" lon="12.9568403"><ele>21.0</ele><time>2026-04-25T10:07:21.283Z</time></trkpt><trkpt lat="41.5529029" lon="12.9569053"><ele>21.0</ele><time>2026-04-25T10:07:22.276Z</time></trkpt><trkpt lat="41.553017" lon="12.9569702"><ele>20.75</ele><time>2026-04-25T10:07:23.278Z</time></trkpt><trkpt lat="41.5531349" lon="12.9570355"><ele>20.5</ele><time>2026-04-25T10:07:24.279Z</time></trkpt><trkpt lat="41.553249" lon="12.9571057"><ele>20.25</ele><time>2026-04-25T10:07:25.288Z</time></trkpt><trkpt lat="41.553361" lon="12.9571875"><ele>20.0</ele><time>2026-04-25T10:07:26.277Z</time></trkpt><trkpt lat="41.5534817" lon="12.9572645"><ele>20.0</ele><time>2026-04-25T10:07:27.28Z</time></trkpt><trkpt lat="41.5536002" lon="12.9573243"><ele>20.0</ele><time>2026-04-25T10:07:28.279Z</time></trkpt><trkpt lat="41.5537357" lon="12.9573885"><ele>20.0</ele><time>2026-04-25T10:07:29.279Z</time></trkpt><trkpt lat="41.5538888" lon="12.9574769"><ele>20.0</ele><time>2026-04-25T10:07:30.287Z</time></trkpt><trkpt lat="41.5540652" lon="12.9575993"><ele>21.5</ele><time>2026-04-25T10:07:31.279Z</time></trkpt><trkpt lat="41.5542777" lon="12.9577367"><ele>23.0</ele><time>2026-04-25T10:07:32.285Z</time></trkpt><trkpt lat="41.5545272" lon="12.9578935"><ele>23.0</ele><time>2026-04-25T10:07:33.279Z</time></trkpt><trkpt lat="41.5548113" lon="12.9580682"><ele>23.0</ele><time>2026-04-25T10:07:34.283Z</time></trkpt><trkpt lat="41.555114" lon="12.9582542"><ele>22.5</ele><time>2026-04-25T10:07:35.274Z</time></trkpt><trkpt lat="41.5554091" lon="12.9584345"><ele>22.0</ele><time>2026-04-25T10:07:36.28Z</time></trkpt><trkpt lat="41.5556892" lon="12.9586033"><ele>22.0</ele><time>2026-04-25T10:07:37.291Z</time></trkpt><trkpt lat="41.5559485" lon="12.9587556"><ele>22.0</ele><time>2026-04-25T10:07:38.281Z</time></trkpt><trkpt lat="41.556192" lon="12.958895"><ele>24.0</ele><time>2026-04-25T10:07:39.284Z</time></trkpt><trkpt lat="41.5564305" lon="12.9590276"><ele>26.0</ele><time>2026-04-25T10:07:40.279Z</time></trkpt><trkpt lat="41.5566628" lon="12.9591669"><ele>25.0</ele><time>2026-04-25T10:07:41.287Z</time></trkpt><trkpt lat="41.5568975" lon="12.959314"><ele>24.0</ele><time>2026-04-25T10:07:42.278Z</time></trkpt><trkpt lat="41.5571192" lon="12.9594592"><ele>24.0</ele><time>2026-04-25T10:07:43.284Z</time></trkpt><trkpt lat="41.5573221" lon="12.9595875"><ele>24.0</ele><time>2026-04-25T10:07:44.283Z</time></trkpt><trkpt lat="41.5575119" lon="12.9597046"><ele>24.0</ele><time>2026-04-25T10:07:45.288Z</time></trkpt><trkpt lat="41.5576857" lon="12.9598142"><ele>24.0</ele><time>2026-04-25T10:07:46.287Z</time></trkpt><trkpt lat="41.5578416" lon="12.9599176"><ele>24.0</ele><time>2026-04-25T10:07:47.287Z</time></trkpt><trkpt lat="41.557978" lon="12.9600164"><ele>24.0</ele><time>2026-04-25T10:07:48.285Z</time></trkpt><trkpt lat="41.5580984" lon="12.9601225"><ele>24.25</ele><time>2026-04-25T10:07:49.287Z</time></trkpt><trkpt lat="41.5582012" lon="12.9602252"><ele>24.5</ele><time>2026-04-25T10:07:50.275Z</time></trkpt><trkpt lat="41.5582916" lon="12.9603322"><ele>24.75</ele><time>2026-04-25T10:07:51.279Z</time></trkpt><trkpt lat="41.5583755" lon="12.9604553"><ele>25.0</ele><time>2026-04-25T10:07:52.279Z</time></trkpt><trkpt lat="41.5584759" lon="12.9606082"><ele>25.0</ele><time>2026-04-25T10:07:53.279Z</time></trkpt><trkpt lat="41.5585936" lon="12.9607948"><ele>25.0</ele><time>2026-04-25T10:07:54.276Z</time></trkpt><trkpt lat="41.558728" lon="12.9610217"><ele>25.0</ele><time>2026-04-25T10:07:55.282Z</time></trkpt><trkpt lat="41.5588783" lon="12.9612776"><ele>26.5</ele><time>2026-04-25T10:07:56.286Z</time></trkpt><trkpt lat="41.5590407" lon="12.9615538"><ele>28.0</ele><time>2026-04-25T10:07:57.278Z</time></trkpt><trkpt lat="41.5592085" lon="12.9618427"><ele>28.5</ele><time>2026-04-25T10:07:58.279Z</time></trkpt><trkpt lat="41.5593807" lon="12.9621379"><ele>29.0</ele><time>2026-04-25T10:07:59.285Z</time></trkpt><trkpt lat="41.5595394" lon="12.9624154"><ele>31.0</ele><time>2026-04-25T10:08:00.29Z</time></trkpt><trkpt lat="41.5596896" lon="12.9626748"><ele>33.0</ele><time>2026-04-25T10:08:01.278Z</time></trkpt><trkpt lat="41.5598382" lon="12.962927"><ele>33.0</ele><time>2026-04-25T10:08:02.29Z</time></trkpt><trkpt lat="41.5599825" lon="12.963173"><ele>33.0</ele><time>2026-04-25T10:08:03.281Z</time></trkpt><trkpt lat="41.5601187" lon="12.9634107"><ele>33.0</ele><time>2026-04-25T10:08:04.28Z</time></trkpt><trkpt lat="41.5602539" lon="12.9636404"><ele>33.0</ele><time>2026-04-25T10:08:05.287Z</time></trkpt><trkpt lat="41.5603793" lon="12.9638532"><ele>33.0</ele><time>2026-04-25T10:08:06.276Z</time></trkpt><trkpt lat="41.5604946" lon="12.9640473"><ele>34.0</ele><time>2026-04-25T10:08:07.281Z</time></trkpt><trkpt lat="41.5606062" lon="12.9642352"><ele>35.0</ele><time>2026-04-25T10:08:08.277Z</time></trkpt><trkpt lat="41.5607069" lon="12.964413"><ele>36.0</ele><time>2026-04-25T10:08:09.285Z</time></trkpt><trkpt lat="41.5608043" lon="12.9645881"><ele>36.0</ele><time>2026-04-25T10:08:10.278Z</time></trkpt><trkpt lat="41.5608995" lon="12.9647525"><ele>36.0</ele><time>2026-04-25T10:08:11.281Z</time></trkpt><trkpt lat="41.5609937" lon="12.9649151"><ele>36.0</ele><time>2026-04-25T10:08:12.287Z</time></trkpt><trkpt lat="41.5610893" lon="12.9650785"><ele>36.0</ele><time>2026-04-25T10:08:13.276Z</time></trkpt><trkpt lat="41.5611837" lon="12.9652437"><ele>36.0</ele><time>2026-04-25T10:08:14.282Z</time></trkpt><trkpt lat="41.5612779" lon="12.9654096"><ele>36.0</ele><time>2026-04-25T10:08:15.274Z</time></trkpt><trkpt lat="41.5613717" lon="12.9655664"><ele>36.666666666666664</ele><time>2026-04-25T10:08:16.275Z</time></trkpt><trkpt lat="41.5614686" lon="12.9657399"><ele>37.33333333333333</ele><time>2026-04-25T10:08:17.28Z</time></trkpt><trkpt lat="41.5615599" lon="12.9659028"><ele>38.0</ele><time>2026-04-25T10:08:18.277Z</time></trkpt><trkpt lat="41.5616471" lon="12.9660586"><ele>38.666666666666664</ele><time>2026-04-25T10:08:19.28Z</time></trkpt><trkpt lat="41.5617431" lon="12.9662197"><ele>39.333333333333336</ele><time>2026-04-25T10:08:20.28Z</time></trkpt><trkpt lat="41.561836" lon="12.9663867"><ele>40.0</ele><time>2026-04-25T10:08:21.298Z</time></trkpt><trkpt lat="41.5619245" lon="12.9665396"><ele>40.66666666666667</ele><time>2026-04-25T10:08:22.289Z</time></trkpt><trkpt lat="41.5620172" lon="12.9667026"><ele>41.333333333333336</ele><time>2026-04-25T10:08:23.288Z</time></trkpt><trkpt lat="41.5621285" lon="12.9669026"><ele>42.0</ele><time>2026-04-25T10:08:24.274Z</time></trkpt><trkpt lat="41.5622418" lon="12.9671103"><ele>42.333333333333336</ele><time>2026-04-25T10:08:25.286Z</time></trkpt><trkpt lat="41.5623371" lon="12.9672964"><ele>42.66666666666667</ele><time>2026-04-25T10:08:26.288Z</time></trkpt><trkpt lat="41.562428" lon="12.9674691"><ele>43.0</ele><time>2026-04-25T10:08:27.287Z</time></trkpt><trkpt lat="41.5625138" lon="12.9676272"><ele>43.599999999999994</ele><time>2026-04-25T10:08:28.287Z</time></trkpt><trkpt lat="41.5625879" lon="12.9677719"><ele>44.199999999999996</ele><time>2026-04-25T10:08:29.287Z</time></trkpt><trkpt lat="41.5626492" lon="12.967902"><ele>44.8</ele><time>2026-04-25T10:08:30.287Z</time></trkpt><trkpt lat="41.5627045" lon="12.9680151"><ele>45.4</ele><time>2026-04-25T10:08:31.289Z</time></trkpt><trkpt lat="41.5627541" lon="12.9681158"><ele>46.0</ele><time>2026-04-25T10:08:32.282Z</time></trkpt><trkpt lat="41.5628238" lon="12.9682336"><ele>46.5</ele><time>2026-04-25T10:08:33.287Z</time></trkpt><trkpt lat="41.5629116" lon="12.9683902"><ele>47.0</ele><time>2026-04-25T10:08:34.286Z</time></trkpt><trkpt lat="41.5629947" lon="12.9685604"><ele>47.5</ele><time>2026-04-25T10:08:35.287Z</time></trkpt><trkpt lat="41.5630665" lon="12.9687059"><ele>48.0</ele><time>2026-04-25T10:08:36.287Z</time></trkpt><trkpt lat="41.5631315" lon="12.968836"><ele>48.0</ele><time>2026-04-25T10:08:37.29Z</time></trkpt><trkpt lat="41.5631879" lon="12.9689526"><ele>48.0</ele><time>2026-04-25T10:08:38.288Z</time></trkpt><trkpt lat="41.563242" lon="12.9690602"><ele>48.0</ele><time>2026-04-25T10:08:39.283Z</time></trkpt><trkpt lat="41.5633088" lon="12.9691871"><ele>48.0</ele><time>2026-04-25T10:08:40.281Z</time></trkpt><trkpt lat="41.5633776" lon="12.9693289"><ele>48.0</ele><time>2026-04-25T10:08:41.287Z</time></trkpt><trkpt lat="41.5634488" lon="12.9694658"><ele>48.25</ele><time>2026-04-25T10:08:42.279Z</time></trkpt><trkpt lat="41.5635203" lon="12.9695992"><ele>48.5</ele><time>2026-04-25T10:08:43.278Z</time></trkpt><trkpt lat="41.5635899" lon="12.9697337"><ele>48.75</ele><time>2026-04-25T10:08:44.285Z</time></trkpt><trkpt lat="41.5636596" lon="12.9698665"><ele>49.0</ele><time>2026-04-25T10:08:45.284Z</time></trkpt><trkpt lat="41.5637331" lon="12.9699935"><ele>49.6</ele><time>2026-04-25T10:08:46.271Z</time></trkpt><trkpt lat="41.5637984" lon="12.9701105"><ele>50.2</ele><time>2026-04-25T10:08:47.277Z</time></trkpt><trkpt lat="41.5638495" lon="12.9702223"><ele>50.800000000000004</ele><time>2026-04-25T10:08:48.286Z</time></trkpt><trkpt lat="41.5638901" lon="12.9703389"><ele>51.400000000000006</ele><time>2026-04-25T10:08:49.275Z</time></trkpt><trkpt lat="41.5639077" lon="12.970467"><ele>52.0</ele><time>2026-04-25T10:08:50.288Z</time></trkpt><trkpt lat="41.5638946" lon="12.9705964"><ele>52.0</ele><time>2026-04-25T10:08:51.278Z</time></trkpt><trkpt lat="41.5638582" lon="12.9707196"><ele>52.0</ele><time>2026-04-25T10:08:52.287Z</time></trkpt><trkpt lat="41.563803" lon="12.97083"><ele>52.0</ele><time>2026-04-25T10:08:53.288Z</time></trkpt><trkpt lat="41.5637439" lon="12.9709294"><ele>52.0</ele><time>2026-04-25T10:08:54.277Z</time></trkpt><trkpt lat="41.5636831" lon="12.9710338"><ele>52.0</ele><time>2026-04-25T10:08:55.285Z</time></trkpt><trkpt lat="41.563633" lon="12.9711262"><ele>51.83333333333333</ele><time>2026-04-25T10:08:56.288Z</time></trkpt><trkpt lat="41.5636051" lon="12.9712171"><ele>51.666666666666664</ele><time>2026-04-25T10:08:57.277Z</time></trkpt><trkpt lat="41.5635997" lon="12.9713104"><ele>51.5</ele><time>2026-04-25T10:08:58.279Z</time></trkpt><trkpt lat="41.5636169" lon="12.9713966"><ele>51.33333333333333</ele><time>2026-04-25T10:08:59.279Z</time></trkpt><trkpt lat="41.5636528" lon="12.9714712"><ele>51.166666666666664</ele><time>2026-04-25T10:09:00.276Z</time></trkpt><trkpt lat="41.5636975" lon="12.9715328"><ele>51.0</ele><time>2026-04-25T10:09:01.28Z</time></trkpt><trkpt lat="41.5638179" lon="12.9715717"><ele>51.599999999999994</ele><time>2026-04-25T10:09:03.277Z</time></trkpt><trkpt lat="41.5638821" lon="12.9715384"><ele>52.2</ele><time>2026-04-25T10:09:04.277Z</time></trkpt><trkpt lat="41.5639428" lon="12.9714729"><ele>52.800000000000004</ele><time>2026-04-25T10:09:05.288Z</time></trkpt><trkpt lat="41.5640046" lon="12.971396"><ele>53.400000000000006</ele><time>2026-04-25T10:09:06.286Z</time></trkpt><trkpt lat="41.5640872" lon="12.9712937"><ele>54.0</ele><time>2026-04-25T10:09:07.286Z</time></trkpt><trkpt lat="41.5641708" lon="12.9711956"><ele>54.0</ele><time>2026-04-25T10:09:08.285Z</time></trkpt><trkpt lat="41.5642573" lon="12.9711044"><ele>54.0</ele><time>2026-04-25T10:09:09.288Z</time></trkpt><trkpt lat="41.5643449" lon="12.9710022"><ele>54.0</ele><time>2026-04-25T10:09:10.276Z</time></trkpt><trkpt lat="41.5644343" lon="12.9708995"><ele>54.0</ele><time>2026-04-25T10:09:11.284Z</time></trkpt><trkpt lat="41.5645271" lon="12.9707918"><ele>54.0</ele><time>2026-04-25T10:09:12.28Z</time></trkpt><trkpt lat="41.5646294" lon="12.9706892"><ele>54.0</ele><time>2026-04-25T10:09:13.278Z</time></trkpt><trkpt lat="41.5647395" lon="12.9706028"><ele>54.0</ele><time>2026-04-25T10:09:14.28Z</time></trkpt><trkpt lat="41.5648479" lon="12.970519"><ele>54.0</ele><time>2026-04-25T10:09:15.286Z</time></trkpt><trkpt lat="41.5649497" lon="12.9704285"><ele>54.0</ele><time>2026-04-25T10:09:16.276Z</time></trkpt><trkpt lat="41.5650462" lon="12.9703297"><ele>54.0</ele><time>2026-04-25T10:09:17.278Z</time></trkpt><trkpt lat="41.5651393" lon="12.9702313"><ele>54.0</ele><time>2026-04-25T10:09:18.279Z</time></trkpt><trkpt lat="41.5652324" lon="12.9701389"><ele>54.0</ele><time>2026-04-25T10:09:19.286Z</time></trkpt><trkpt lat="41.565316" lon="12.9700409"><ele>54.0</ele><time>2026-04-25T10:09:20.277Z</time></trkpt><trkpt lat="41.5653878" lon="12.9699454"><ele>54.0</ele><time>2026-04-25T10:09:21.373Z</time></trkpt><trkpt lat="41.5654579" lon="12.9698737"><ele>54.0</ele><time>2026-04-25T10:09:22.285Z</time></trkpt><trkpt lat="41.5655269" lon="12.9698347"><ele>54.0</ele><time>2026-04-25T10:09:23.287Z</time></trkpt><trkpt lat="41.5655994" lon="12.9698332"><ele>54.0</ele><time>2026-04-25T10:09:24.285Z</time></trkpt><trkpt lat="41.5656704" lon="12.969873"><ele>54.0</ele><time>2026-04-25T10:09:25.28Z</time></trkpt><trkpt lat="41.5657503" lon="12.9699483"><ele>54.66666666666667</ele><time>2026-04-25T10:09:26.272Z</time></trkpt><trkpt lat="41.5658502" lon="12.9700705"><ele>55.333333333333336</ele><time>2026-04-25T10:09:27.281Z</time></trkpt><trkpt lat="41.565968" lon="12.9702448"><ele>56.0</ele><time>2026-04-25T10:09:28.291Z</time></trkpt><trkpt lat="41.5661168" lon="12.9704704"><ele>57.0</ele><time>2026-04-25T10:09:29.278Z</time></trkpt><trkpt lat="41.5662902" lon="12.97074"><ele>58.0</ele><time>2026-04-25T10:09:30.279Z</time></trkpt><trkpt lat="41.5664623" lon="12.9710236"><ele>59.5</ele><time>2026-04-25T10:09:31.274Z</time></trkpt><trkpt lat="41.5666412" lon="12.9713123"><ele>61.0</ele><time>2026-04-25T10:09:32.288Z</time></trkpt><trkpt lat="41.5668187" lon="12.9715949"><ele>62.5</ele><time>2026-04-25T10:09:33.28Z</time></trkpt><trkpt lat="41.5670022" lon="12.9718792"><ele>64.0</ele><time>2026-04-25T10:09:34.279Z</time></trkpt><trkpt lat="41.5671634" lon="12.9721325"><ele>66.5</ele><time>2026-04-25T10:09:35.287Z</time></trkpt><trkpt lat="41.567325" lon="12.9723952"><ele>69.0</ele><time>2026-04-25T10:09:36.277Z</time></trkpt><trkpt lat="41.5674775" lon="12.9726554"><ele>70.0</ele><time>2026-04-25T10:09:37.283Z</time></trkpt><trkpt lat="41.5676202" lon="12.972915"><ele>71.0</ele><time>2026-04-25T10:09:38.274Z</time></trkpt><trkpt lat="41.567751" lon="12.973175"><ele>76.5</ele><time>2026-04-25T10:09:39.287Z</time></trkpt><trkpt lat="41.5678718" lon="12.9734382"><ele>82.0</ele><time>2026-04-25T10:09:40.273Z</time></trkpt><trkpt lat="41.5679739" lon="12.9736969"><ele>82.0</ele><time>2026-04-25T10:09:41.274Z</time></trkpt><trkpt lat="41.5680514" lon="12.9739438"><ele>82.0</ele><time>2026-04-25T10:09:42.281Z</time></trkpt><trkpt lat="41.5681074" lon="12.9741908"><ele>82.0</ele><time>2026-04-25T10:09:43.275Z</time></trkpt><trkpt lat="41.5681442" lon="12.9744315"><ele>81.75</ele><time>2026-04-25T10:09:44.277Z</time></trkpt><trkpt lat="41.5681705" lon="12.9746419"><ele>81.5</ele><time>2026-04-25T10:09:45.278Z</time></trkpt><trkpt lat="41.5681943" lon="12.9748348"><ele>81.25</ele><time>2026-04-25T10:09:46.27Z</time></trkpt><trkpt lat="41.5682361" lon="12.9750099"><ele>81.0</ele><time>2026-04-25T10:09:47.278Z</time></trkpt><trkpt lat="41.5682987" lon="12.9751624"><ele>79.5</ele><time>2026-04-25T10:09:48.28Z</time></trkpt><trkpt lat="41.5683894" lon="12.9752926"><ele>78.0</ele><time>2026-04-25T10:09:49.286Z</time></trkpt><trkpt lat="41.5684967" lon="12.9754014"><ele>76.5</ele><time>2026-04-25T10:09:50.281Z</time></trkpt><trkpt lat="41.5686012" lon="12.9755104"><ele>75.0</ele><time>2026-04-25T10:09:51.288Z</time></trkpt><trkpt lat="41.5687197" lon="12.9756358"><ele>78.5</ele><time>2026-04-25T10:09:52.289Z</time></trkpt><trkpt lat="41.5688315" lon="12.9757784"><ele>82.0</ele><time>2026-04-25T10:09:53.287Z</time></trkpt><trkpt lat="41.5689286" lon="12.9759238"><ele>85.5</ele><time>2026-04-25T10:09:54.279Z</time></trkpt><trkpt lat="41.5690194" lon="12.9760625"><ele>89.0</ele><time>2026-04-25T10:09:55.287Z</time></trkpt><trkpt lat="41.5691041" lon="12.9761984"><ele>89.0</ele><time>2026-04-25T10:09:56.288Z</time></trkpt><trkpt lat="41.569198" lon="12.9763236"><ele>89.0</ele><time>2026-04-25T10:09:57.288Z</time></trkpt><trkpt lat="41.5692922" lon="12.9764409"><ele>89.0</ele><time>2026-04-25T10:09:58.277Z</time></trkpt><trkpt lat="41.5693944" lon="12.976556"><ele>89.0</ele><time>2026-04-25T10:09:59.278Z</time></trkpt><trkpt lat="41.5694891" lon="12.9766693"><ele>91.4</ele><time>2026-04-25T10:10:00.277Z</time></trkpt><trkpt lat="41.5695641" lon="12.9767871"><ele>93.80000000000001</ele><time>2026-04-25T10:10:01.279Z</time></trkpt><trkpt lat="41.5696199" lon="12.9769051"><ele>96.19999999999999</ele><time>2026-04-25T10:10:02.287Z</time></trkpt><trkpt lat="41.569668" lon="12.9770272"><ele>98.6</ele><time>2026-04-25T10:10:03.279Z</time></trkpt><trkpt lat="41.5697049" lon="12.9771419"><ele>101.0</ele><time>2026-04-25T10:10:04.275Z</time></trkpt><trkpt lat="41.5697395" lon="12.9772539"><ele>101.0</ele><time>2026-04-25T10:10:05.287Z</time></trkpt><trkpt lat="41.5697705" lon="12.9773604"><ele>101.0</ele><time>2026-04-25T10:10:06.287Z</time></trkpt><trkpt lat="41.5697918" lon="12.9774445"><ele>101.0</ele><time>2026-04-25T10:10:07.277Z</time></trkpt><trkpt lat="41.5698421" lon="12.9776036"><ele>101.0</ele><time>2026-04-25T10:10:09.288Z</time></trkpt><trkpt lat="41.5698865" lon="12.9777002"><ele>101.0</ele><time>2026-04-25T10:10:10.281Z</time></trkpt><trkpt lat="41.5699262" lon="12.977801"><ele>101.4</ele><time>2026-04-25T10:10:11.278Z</time></trkpt><trkpt lat="41.5699545" lon="12.9779132"><ele>101.8</ele><time>2026-04-25T10:10:12.28Z</time></trkpt><trkpt lat="41.5699695" lon="12.9780241"><ele>102.2</ele><time>2026-04-25T10:10:13.279Z</time></trkpt><trkpt lat="41.5699496" lon="12.97815"><ele>102.60000000000001</ele><time>2026-04-25T10:10:14.282Z</time></trkpt><trkpt lat="41.569901" lon="12.9782861"><ele>103.0</ele><time>2026-04-25T10:10:15.279Z</time></trkpt><trkpt lat="41.5698484" lon="12.9784218"><ele>103.0</ele><time>2026-04-25T10:10:16.281Z</time></trkpt><trkpt lat="41.5697846" lon="12.978564"><ele>103.0</ele><time>2026-04-25T10:10:17.287Z</time></trkpt><trkpt lat="41.5696997" lon="12.9786705"><ele>103.0</ele><time>2026-04-25T10:10:18.286Z</time></trkpt><trkpt lat="41.5695973" lon="12.9787444"><ele>103.0</ele><time>2026-04-25T10:10:19.285Z</time></trkpt><trkpt lat="41.5694811" lon="12.978771"><ele>103.25</ele><time>2026-04-25T10:10:20.279Z</time></trkpt><trkpt lat="41.569361" lon="12.9787539"><ele>103.5</ele><time>2026-04-25T10:10:21.285Z</time></trkpt><trkpt lat="41.5692466" lon="12.9787323"><ele>103.75</ele><time>2026-04-25T10:10:22.285Z</time></trkpt><trkpt lat="41.5691323" lon="12.9787394"><ele>104.0</ele><time>2026-04-25T10:10:23.284Z</time></trkpt><trkpt lat="41.569024" lon="12.9787708"><ele>104.0</ele><time>2026-04-25T10:10:24.285Z</time></trkpt><trkpt lat="41.5689204" lon="12.9788511"><ele>104.0</ele><time>2026-04-25T10:10:25.286Z</time></trkpt><trkpt lat="41.5688218" lon="12.9789471"><ele>104.0</ele><time>2026-04-25T10:10:26.286Z</time></trkpt><trkpt lat="41.5687354" lon="12.9790459"><ele>104.0</ele><time>2026-04-25T10:10:27.286Z</time></trkpt><trkpt lat="41.568672" lon="12.9791458"><ele>104.6</ele><time>2026-04-25T10:10:28.286Z</time></trkpt><trkpt lat="41.5686331" lon="12.9792707"><ele>105.2</ele><time>2026-04-25T10:10:29.278Z</time></trkpt><trkpt lat="41.5686299" lon="12.9794183"><ele>105.79999999999998</ele><time>2026-04-25T10:10:30.279Z</time></trkpt><trkpt lat="41.5686461" lon="12.9795679"><ele>106.39999999999999</ele><time>2026-04-25T10:10:31.278Z</time></trkpt><trkpt lat="41.5686509" lon="12.9796996"><ele>107.0</ele><time>2026-04-25T10:10:32.286Z</time></trkpt><trkpt lat="41.5686382" lon="12.9798072"><ele>106.99999999999999</ele><time>2026-04-25T10:10:33.279Z</time></trkpt><trkpt lat="41.5686257" lon="12.9799092"><ele>107.0</ele><time>2026-04-25T10:10:34.286Z</time></trkpt><trkpt lat="41.5686157" lon="12.9799996"><ele>107.0</ele><time>2026-04-25T10:10:35.279Z</time></trkpt><trkpt lat="41.5686315" lon="12.9800924"><ele>107.0</ele><time>2026-04-25T10:10:36.28Z</time></trkpt><trkpt lat="41.568671" lon="12.9801897"><ele>106.99999999999999</ele><time>2026-04-25T10:10:37.278Z</time></trkpt><trkpt lat="41.5687327" lon="12.9802805"><ele>107.0</ele><time>2026-04-25T10:10:38.277Z</time></trkpt><trkpt lat="41.5688063" lon="12.9803611"><ele>108.8</ele><time>2026-04-25T10:10:39.287Z</time></trkpt><trkpt lat="41.5689074" lon="12.9804356"><ele>110.6</ele><time>2026-04-25T10:10:40.277Z</time></trkpt><trkpt lat="41.5689911" lon="12.9805048"><ele>112.39999999999999</ele><time>2026-04-25T10:10:41.28Z</time></trkpt><trkpt lat="41.5690836" lon="12.9805829"><ele>114.19999999999999</ele><time>2026-04-25T10:10:42.292Z</time></trkpt><trkpt lat="41.569173" lon="12.9806574"><ele>116.0</ele><time>2026-04-25T10:10:43.288Z</time></trkpt><trkpt lat="41.5692706" lon="12.9807496"><ele>116.75</ele><time>2026-04-25T10:10:44.286Z</time></trkpt><trkpt lat="41.5693649" lon="12.9808529"><ele>117.5</ele><time>2026-04-25T10:10:45.291Z</time></trkpt><trkpt lat="41.5694584" lon="12.9809824"><ele>118.25</ele><time>2026-04-25T10:10:46.286Z</time></trkpt><trkpt lat="41.5695566" lon="12.9811227"><ele>119.0</ele><time>2026-04-25T10:10:47.287Z</time></trkpt><trkpt lat="41.5696581" lon="12.981266"><ele>119.0</ele><time>2026-04-25T10:10:48.287Z</time></trkpt><trkpt lat="41.5697596" lon="12.9814114"><ele>119.0</ele><time>2026-04-25T10:10:49.281Z</time></trkpt><trkpt lat="41.569863" lon="12.9815579"><ele>119.0</ele><time>2026-04-25T10:10:50.284Z</time></trkpt><trkpt lat="41.5699625" lon="12.9816955"><ele>119.0</ele><time>2026-04-25T10:10:51.277Z</time></trkpt><trkpt lat="41.5700731" lon="12.9818146"><ele>120.75</ele><time>2026-04-25T10:10:52.281Z</time></trkpt><trkpt lat="41.5701809" lon="12.9819391"><ele>122.5</ele><time>2026-04-25T10:10:53.287Z</time></trkpt><trkpt lat="41.5702915" lon="12.9820492"><ele>124.25</ele><time>2026-04-25T10:10:54.277Z</time></trkpt><trkpt lat="41.5704018" lon="12.9821512"><ele>126.0</ele><time>2026-04-25T10:10:55.276Z</time></trkpt><trkpt lat="41.5705152" lon="12.9822419"><ele>126.0</ele><time>2026-04-25T10:10:56.28Z</time></trkpt><trkpt lat="41.5706274" lon="12.9823203"><ele>126.0</ele><time>2026-04-25T10:10:57.273Z</time></trkpt><trkpt lat="41.5707429" lon="12.9823821"><ele>126.0</ele><time>2026-04-25T10:10:58.277Z</time></trkpt><trkpt lat="41.5708597" lon="12.9824362"><ele>126.0</ele><time>2026-04-25T10:10:59.279Z</time></trkpt><trkpt lat="41.5709772" lon="12.9824865"><ele>126.75</ele><time>2026-04-25T10:11:00.283Z</time></trkpt><trkpt lat="41.571095" lon="12.9825386"><ele>127.5</ele><time>2026-04-25T10:11:01.278Z</time></trkpt><trkpt lat="41.5712086" lon="12.9826072"><ele>128.25</ele><time>2026-04-25T10:11:02.28Z</time></trkpt><trkpt lat="41.5713146" lon="12.982696"><ele>129.0</ele><time>2026-04-25T10:11:03.285Z</time></trkpt><trkpt lat="41.5714114" lon="12.982809"><ele>129.0</ele><time>2026-04-25T10:11:04.277Z</time></trkpt><trkpt lat="41.5715031" lon="12.9829471"><ele>129.0</ele><time>2026-04-25T10:11:05.28Z</time></trkpt><trkpt lat="41.5716028" lon="12.9831293"><ele>129.0</ele><time>2026-04-25T10:11:06.273Z</time></trkpt><trkpt lat="41.5717285" lon="12.9833568"><ele>138.0</ele><time>2026-04-25T10:11:07.277Z</time></trkpt><trkpt lat="41.5718695" lon="12.9836079"><ele>147.0</ele><time>2026-04-25T10:11:08.273Z</time></trkpt><trkpt lat="41.572003" lon="12.9838572"><ele>144.66666666666666</ele><time>2026-04-25T10:11:09.279Z</time></trkpt><trkpt lat="41.5721129" lon="12.9840792"><ele>142.33333333333331</ele><time>2026-04-25T10:11:10.275Z</time></trkpt><trkpt lat="41.5722089" lon="12.9842856"><ele>140.0</ele><time>2026-04-25T10:11:11.284Z</time></trkpt><trkpt lat="41.5723163" lon="12.9844676"><ele>140.0</ele><time>2026-04-25T10:11:12.281Z</time></trkpt><trkpt lat="41.5724346" lon="12.9846403"><ele>140.0</ele><time>2026-04-25T10:11:13.277Z</time></trkpt><trkpt lat="41.5725547" lon="12.9847906"><ele>140.0</ele><time>2026-04-25T10:11:14.279Z</time></trkpt><trkpt lat="41.5726728" lon="12.984914"><ele>139.75</ele><time>2026-04-25T10:11:15.279Z</time></trkpt><trkpt lat="41.5727902" lon="12.9850366"><ele>139.5</ele><time>2026-04-25T10:11:16.276Z</time></trkpt><trkpt lat="41.5728893" lon="12.9851247"><ele>139.25</ele><time>2026-04-25T10:11:17.28Z</time></trkpt><trkpt lat="41.5730011" lon="12.9852415"><ele>139.0</ele><time>2026-04-25T10:11:18.278Z</time></trkpt><trkpt lat="41.5731174" lon="12.9853628"><ele>139.0</ele><time>2026-04-25T10:11:19.278Z</time></trkpt><trkpt lat="41.5732261" lon="12.9854942"><ele>139.0</ele><time>2026-04-25T10:11:20.291Z</time></trkpt><trkpt lat="41.5733273" lon="12.9856312"><ele>139.0</ele><time>2026-04-25T10:11:21.277Z</time></trkpt><trkpt lat="41.5734298" lon="12.9857753"><ele>139.0</ele><time>2026-04-25T10:11:22.286Z</time></trkpt><trkpt lat="41.573527" lon="12.9859151"><ele>138.5</ele><time>2026-04-25T10:11:23.282Z</time></trkpt><trkpt lat="41.5736283" lon="12.9860611"><ele>138.0</ele><time>2026-04-25T10:11:24.286Z</time></trkpt><trkpt lat="41.5737232" lon="12.986205"><ele>137.5</ele><time>2026-04-25T10:11:25.285Z</time></trkpt><trkpt lat="41.5738131" lon="12.9863509"><ele>137.0</ele><time>2026-04-25T10:11:26.284Z</time></trkpt><trkpt lat="41.5738994" lon="12.9864956"><ele>137.0</ele><time>2026-04-25T10:11:27.278Z</time></trkpt><trkpt lat="41.5739806" lon="12.986636"><ele>137.0</ele><time>2026-04-25T10:11:28.278Z</time></trkpt><trkpt lat="41.5740573" lon="12.9867694"><ele>137.0</ele><time>2026-04-25T10:11:29.277Z</time></trkpt><trkpt lat="41.5741465" lon="12.986891"><ele>137.0</ele><time>2026-04-25T10:11:30.284Z</time></trkpt><trkpt lat="41.5742567" lon="12.9870139"><ele>137.0</ele><time>2026-04-25T10:11:31.278Z</time></trkpt><trkpt lat="41.5743735" lon="12.9871124"><ele>137.0</ele><time>2026-04-25T10:11:32.278Z</time></trkpt><trkpt lat="41.5744838" lon="12.9872156"><ele>137.0</ele><time>2026-04-25T10:11:33.288Z</time></trkpt><trkpt lat="41.5745845" lon="12.9873116"><ele>137.0</ele><time>2026-04-25T10:11:34.277Z</time></trkpt><trkpt lat="41.5746855" lon="12.9874233"><ele>138.5</ele><time>2026-04-25T10:11:35.27Z</time></trkpt><trkpt lat="41.574775" lon="12.9875291"><ele>140.0</ele><time>2026-04-25T10:11:36.279Z</time></trkpt><trkpt lat="41.5748647" lon="12.9876387"><ele>141.5</ele><time>2026-04-25T10:11:37.281Z</time></trkpt><trkpt lat="41.5749558" lon="12.9877523"><ele>143.0</ele><time>2026-04-25T10:11:38.277Z</time></trkpt><trkpt lat="41.5750396" lon="12.9878704"><ele>143.0</ele><time>2026-04-25T10:11:39.278Z</time></trkpt><trkpt lat="41.5751148" lon="12.9880008"><ele>143.0</ele><time>2026-04-25T10:11:40.279Z</time></trkpt><trkpt lat="41.5751732" lon="12.9881624"><ele>143.0</ele><time>2026-04-25T10:11:41.278Z</time></trkpt><trkpt lat="41.5752238" lon="12.9883478"><ele>143.0</ele><time>2026-04-25T10:11:42.279Z</time></trkpt><trkpt lat="41.5752597" lon="12.988533"><ele>143.25</ele><time>2026-04-25T10:11:43.277Z</time></trkpt><trkpt lat="41.5752848" lon="12.9887152"><ele>143.5</ele><time>2026-04-25T10:11:44.279Z</time></trkpt><trkpt lat="41.5753096" lon="12.9888893"><ele>143.75</ele><time>2026-04-25T10:11:45.277Z</time></trkpt><trkpt lat="41.5753352" lon="12.9890623"><ele>144.0</ele><time>2026-04-25T10:11:46.277Z</time></trkpt><trkpt lat="41.5753555" lon="12.9892291"><ele>144.0</ele><time>2026-04-25T10:11:47.28Z</time></trkpt><trkpt lat="41.5753703" lon="12.9893918"><ele>144.0</ele><time>2026-04-25T10:11:48.279Z</time></trkpt><trkpt lat="41.5753852" lon="12.9895513"><ele>144.0</ele><time>2026-04-25T10:11:49.279Z</time></trkpt><trkpt lat="41.5753995" lon="12.9897032"><ele>144.0</ele><time>2026-04-25T10:11:50.279Z</time></trkpt><trkpt lat="41.5754343" lon="12.989859"><ele>144.5</ele><time>2026-04-25T10:11:51.374Z</time></trkpt><trkpt lat="41.5754791" lon="12.9900099"><ele>145.0</ele><time>2026-04-25T10:11:52.277Z</time></trkpt><trkpt lat="41.575543" lon="12.9901532"><ele>145.5</ele><time>2026-04-25T10:11:53.281Z</time></trkpt><trkpt lat="41.5756017" lon="12.9902986"><ele>146.0</ele><time>2026-04-25T10:11:54.28Z</time></trkpt><trkpt lat="41.5756482" lon="12.9904578"><ele>146.0</ele><time>2026-04-25T10:11:55.297Z</time></trkpt><trkpt lat="41.5756832" lon="12.9906208"><ele>146.0</ele><time>2026-04-25T10:11:56.276Z</time></trkpt><trkpt lat="41.5757045" lon="12.9908084"><ele>146.0</ele><time>2026-04-25T10:11:57.279Z</time></trkpt><trkpt lat="41.5757077" lon="12.9910365"><ele>146.0</ele><time>2026-04-25T10:11:58.28Z</time></trkpt><trkpt lat="41.5757069" lon="12.9913216"><ele>149.0</ele><time>2026-04-25T10:11:59.28Z</time></trkpt><trkpt lat="41.5757035" lon="12.9915951"><ele>152.0</ele><time>2026-04-25T10:12:00.278Z</time></trkpt><trkpt lat="41.5757026" lon="12.9918365"><ele>155.0</ele><time>2026-04-25T10:12:01.276Z</time></trkpt><trkpt lat="41.5757057" lon="12.9920676"><ele>156.75</ele><time>2026-04-25T10:12:02.277Z</time></trkpt><trkpt lat="41.5757116" lon="12.9922857"><ele>158.5</ele><time>2026-04-25T10:12:03.274Z</time></trkpt><trkpt lat="41.5757166" lon="12.9924787"><ele>160.25</ele><time>2026-04-25T10:12:04.278Z</time></trkpt><trkpt lat="41.5757208" lon="12.9926572"><ele>162.0</ele><time>2026-04-25T10:12:05.281Z</time></trkpt><trkpt lat="41.5757142" lon="12.9928351"><ele>164.33333333333334</ele><time>2026-04-25T10:12:06.281Z</time></trkpt><trkpt lat="41.5756856" lon="12.9930173"><ele>166.66666666666669</ele><time>2026-04-25T10:12:07.283Z</time></trkpt><trkpt lat="41.5756329" lon="12.9932223"><ele>169.0</ele><time>2026-04-25T10:12:08.279Z</time></trkpt><trkpt lat="41.5755571" lon="12.9934467"><ele>167.0</ele><time>2026-04-25T10:12:09.28Z</time></trkpt><trkpt lat="41.5754563" lon="12.9936995"><ele>165.0</ele><time>2026-04-25T10:12:10.277Z</time></trkpt><trkpt lat="41.5753549" lon="12.9939279"><ele>163.0</ele><time>2026-04-25T10:12:11.278Z</time></trkpt><trkpt lat="41.575267" lon="12.994131"><ele>165.5</ele><time>2026-04-25T10:12:12.282Z</time></trkpt><trkpt lat="41.5751845" lon="12.9943081"><ele>168.0</ele><time>2026-04-25T10:12:13.279Z</time></trkpt><trkpt lat="41.5751136" lon="12.9944737"><ele>170.5</ele><time>2026-04-25T10:12:14.287Z</time></trkpt><trkpt lat="41.5750467" lon="12.9946234"><ele>173.0</ele><time>2026-04-25T10:12:15.289Z</time></trkpt><trkpt lat="41.5749843" lon="12.9947633"><ele>173.0</ele><time>2026-04-25T10:12:16.288Z</time></trkpt><trkpt lat="41.5749215" lon="12.9949182"><ele>173.0</ele><time>2026-04-25T10:12:17.288Z</time></trkpt><trkpt lat="41.5748603" lon="12.9950496"><ele>173.0</ele><time>2026-04-25T10:12:18.288Z</time></trkpt><trkpt lat="41.5747941" lon="12.9951861"><ele>173.0</ele><time>2026-04-25T10:12:19.288Z</time></trkpt><trkpt lat="41.5747046" lon="12.9953151"><ele>173.75</ele><time>2026-04-25T10:12:20.287Z</time></trkpt><trkpt lat="41.5746107" lon="12.9954338"><ele>174.5</ele><time>2026-04-25T10:12:21.29Z</time></trkpt><trkpt lat="41.5745131" lon="12.9955532"><ele>175.25</ele><time>2026-04-25T10:12:22.278Z</time></trkpt><trkpt lat="41.5744143" lon="12.9956574"><ele>176.0</ele><time>2026-04-25T10:12:23.276Z</time></trkpt><trkpt lat="41.5743172" lon="12.9957503"><ele>179.25</ele><time>2026-04-25T10:12:24.28Z</time></trkpt><trkpt lat="41.574212" lon="12.9958388"><ele>182.5</ele><time>2026-04-25T10:12:25.279Z</time></trkpt><trkpt lat="41.5741108" lon="12.9959279"><ele>185.75</ele><time>2026-04-25T10:12:26.279Z</time></trkpt><trkpt lat="41.5740115" lon="12.9960282"><ele>189.0</ele><time>2026-04-25T10:12:27.28Z</time></trkpt><trkpt lat="41.5739135" lon="12.9961581"><ele>189.0</ele><time>2026-04-25T10:12:28.277Z</time></trkpt><trkpt lat="41.573833" lon="12.996285"><ele>189.0</ele><time>2026-04-25T10:12:29.28Z</time></trkpt><trkpt lat="41.5737484" lon="12.9964193"><ele>189.0</ele><time>2026-04-25T10:12:30.278Z</time></trkpt><trkpt lat="41.5736727" lon="12.9965563"><ele>189.0</ele><time>2026-04-25T10:12:31.281Z</time></trkpt><trkpt lat="41.5736004" lon="12.9966953"><ele>189.75</ele><time>2026-04-25T10:12:32.28Z</time></trkpt><trkpt lat="41.5735264" lon="12.9968352"><ele>190.5</ele><time>2026-04-25T10:12:33.279Z</time></trkpt><trkpt lat="41.5734544" lon="12.9969898"><ele>191.25</ele><time>2026-04-25T10:12:34.278Z</time></trkpt><trkpt lat="41.5733764" lon="12.9971279"><ele>192.0</ele><time>2026-04-25T10:12:35.28Z</time></trkpt><trkpt lat="41.5733049" lon="12.997265"><ele>192.0</ele><time>2026-04-25T10:12:36.28Z</time></trkpt><trkpt lat="41.5732409" lon="12.9974007"><ele>192.0</ele><time>2026-04-25T10:12:37.286Z</time></trkpt><trkpt lat="41.5731923" lon="12.9975629"><ele>192.0</ele><time>2026-04-25T10:12:38.287Z</time></trkpt><trkpt lat="41.5731597" lon="12.9977268"><ele>192.0</ele><time>2026-04-25T10:12:39.287Z</time></trkpt><trkpt lat="41.5731245" lon="12.9979026"><ele>195.25</ele><time>2026-04-25T10:12:40.288Z</time></trkpt><trkpt lat="41.5730756" lon="12.9980736"><ele>198.5</ele><time>2026-04-25T10:12:41.287Z</time></trkpt><trkpt lat="41.5730306" lon="12.9982404"><ele>201.75</ele><time>2026-04-25T10:12:42.287Z</time></trkpt><trkpt lat="41.5729864" lon="12.9984008"><ele>205.0</ele><time>2026-04-25T10:12:43.288Z</time></trkpt><trkpt lat="41.5729268" lon="12.9985563"><ele>205.75</ele><time>2026-04-25T10:12:44.289Z</time></trkpt><trkpt lat="41.5728303" lon="12.9986913"><ele>206.5</ele><time>2026-04-25T10:12:45.288Z</time></trkpt><trkpt lat="41.5727305" lon="12.9988179"><ele>207.25</ele><time>2026-04-25T10:12:46.287Z</time></trkpt><trkpt lat="41.5726191" lon="12.9989273"><ele>208.0</ele><time>2026-04-25T10:12:47.288Z</time></trkpt><trkpt lat="41.5725152" lon="12.9990214"><ele>208.0</ele><time>2026-04-25T10:12:48.287Z</time></trkpt><trkpt lat="41.5724162" lon="12.9991248"><ele>208.0</ele><time>2026-04-25T10:12:49.287Z</time></trkpt><trkpt lat="41.5723251" lon="12.9992389"><ele>208.0</ele><time>2026-04-25T10:12:50.278Z</time></trkpt><trkpt lat="41.5722503" lon="12.9993714"><ele>208.0</ele><time>2026-04-25T10:12:51.278Z</time></trkpt><trkpt lat="41.5721931" lon="12.9995127"><ele>212.5</ele><time>2026-04-25T10:12:52.278Z</time></trkpt><trkpt lat="41.5721526" lon="12.9996778"><ele>217.0</ele><time>2026-04-25T10:12:53.277Z</time></trkpt><trkpt lat="41.5721207" lon="12.9998345"><ele>221.5</ele><time>2026-04-25T10:12:54.28Z</time></trkpt><trkpt lat="41.5720894" lon="12.9999916"><ele>226.0</ele><time>2026-04-25T10:12:55.275Z</time></trkpt><trkpt lat="41.5720551" lon="13.0001509"><ele>226.0</ele><time>2026-04-25T10:12:56.275Z</time></trkpt><trkpt lat="41.5720236" lon="13.0003047"><ele>226.0</ele><time>2026-04-25T10:12:57.271Z</time></trkpt><trkpt lat="41.5719836" lon="13.000464"><ele>226.0</ele><time>2026-04-25T10:12:58.275Z</time></trkpt><trkpt lat="41.5719327" lon="13.0006345"><ele>226.0</ele><time>2026-04-25T10:12:59.273Z</time></trkpt><trkpt lat="41.5718733" lon="13.000806"><ele>223.5</ele><time>2026-04-25T10:13:00.273Z</time></trkpt><trkpt lat="41.5718086" lon="13.0009754"><ele>221.0</ele><time>2026-04-25T10:13:01.275Z</time></trkpt><trkpt lat="41.5717448" lon="13.0011415"><ele>218.5</ele><time>2026-04-25T10:13:02.27Z</time></trkpt><trkpt lat="41.5716771" lon="13.0013049"><ele>216.0</ele><time>2026-04-25T10:13:03.273Z</time></trkpt><trkpt lat="41.5716084" lon="13.001462"><ele>216.0</ele><time>2026-04-25T10:13:04.271Z</time></trkpt><trkpt lat="41.571536" lon="13.0016144"><ele>216.0</ele><time>2026-04-25T10:13:05.271Z</time></trkpt><trkpt lat="41.5714523" lon="13.0017424"><ele>216.0</ele><time>2026-04-25T10:13:06.276Z</time></trkpt><trkpt lat="41.5713652" lon="13.0018665"><ele>216.0</ele><time>2026-04-25T10:13:07.28Z</time></trkpt><trkpt lat="41.5712711" lon="13.0019912"><ele>218.5</ele><time>2026-04-25T10:13:08.277Z</time></trkpt><trkpt lat="41.5711802" lon="13.0021083"><ele>221.0</ele><time>2026-04-25T10:13:09.278Z</time></trkpt><trkpt lat="41.5710808" lon="13.0022258"><ele>223.5</ele><time>2026-04-25T10:13:10.28Z</time></trkpt><trkpt lat="41.5709832" lon="13.0023313"><ele>226.0</ele><time>2026-04-25T10:13:11.278Z</time></trkpt><trkpt lat="41.5709026" lon="13.0024441"><ele>227.25</ele><time>2026-04-25T10:13:12.28Z</time></trkpt><trkpt lat="41.5708132" lon="13.002575"><ele>228.5</ele><time>2026-04-25T10:13:13.281Z</time></trkpt><trkpt lat="41.5707305" lon="13.0026991"><ele>229.75</ele><time>2026-04-25T10:13:14.279Z</time></trkpt><trkpt lat="41.5706572" lon="13.0028424"><ele>231.0</ele><time>2026-04-25T10:13:15.282Z</time></trkpt><trkpt lat="41.5706033" lon="13.0030101"><ele>231.0</ele><time>2026-04-25T10:13:16.287Z</time></trkpt><trkpt lat="41.5705683" lon="13.0031829"><ele>231.0</ele><time>2026-04-25T10:13:17.287Z</time></trkpt><trkpt lat="41.5705488" lon="13.0033564"><ele>231.0</ele><time>2026-04-25T10:13:18.288Z</time></trkpt><trkpt lat="41.5705515" lon="13.0035372"><ele>231.0</ele><time>2026-04-25T10:13:19.287Z</time></trkpt><trkpt lat="41.5705852" lon="13.0037417"><ele>234.33333333333331</ele><time>2026-04-25T10:13:20.288Z</time></trkpt><trkpt lat="41.5706118" lon="13.0039537"><ele>237.66666666666666</ele><time>2026-04-25T10:13:21.408Z</time></trkpt><trkpt lat="41.5706086" lon="13.0043127"><ele>241.0</ele><time>2026-04-25T10:13:23.282Z</time></trkpt><trkpt lat="41.5706098" lon="13.0044885"><ele>242.25</ele><time>2026-04-25T10:13:24.286Z</time></trkpt><trkpt lat="41.5706075" lon="13.0046581"><ele>243.5</ele><time>2026-04-25T10:13:25.276Z</time></trkpt><trkpt lat="41.5706051" lon="13.004831"><ele>244.75</ele><time>2026-04-25T10:13:26.279Z</time></trkpt><trkpt lat="41.570596" lon="13.0050072"><ele>246.0</ele><time>2026-04-25T10:13:27.28Z</time></trkpt><trkpt lat="41.5705713" lon="13.0051839"><ele>245.5</ele><time>2026-04-25T10:13:28.28Z</time></trkpt><trkpt lat="41.5705272" lon="13.0053596"><ele>245.0</ele><time>2026-04-25T10:13:29.279Z</time></trkpt><trkpt lat="41.5704699" lon="13.0055229"><ele>244.5</ele><time>2026-04-25T10:13:30.279Z</time></trkpt><trkpt lat="41.5704124" lon="13.0056805"><ele>244.0</ele><time>2026-04-25T10:13:31.277Z</time></trkpt><trkpt lat="41.5703551" lon="13.0058385"><ele>244.0</ele><time>2026-04-25T10:13:32.279Z</time></trkpt><trkpt lat="41.5702938" lon="13.0059953"><ele>244.0</ele><time>2026-04-25T10:13:33.279Z</time></trkpt><trkpt lat="41.5702304" lon="13.0061512"><ele>244.0</ele><time>2026-04-25T10:13:34.283Z</time></trkpt><trkpt lat="41.5701661" lon="13.0063079"><ele>244.0</ele><time>2026-04-25T10:13:35.28Z</time></trkpt><trkpt lat="41.5701053" lon="13.0064679"><ele>244.0</ele><time>2026-04-25T10:13:36.28Z</time></trkpt><trkpt lat="41.5700566" lon="13.0066335"><ele>244.0</ele><time>2026-04-25T10:13:37.281Z</time></trkpt><trkpt lat="41.5700212" lon="13.0068017"><ele>244.0</ele><time>2026-04-25T10:13:38.28Z</time></trkpt><trkpt lat="41.5699875" lon="13.006962"><ele>244.0</ele><time>2026-04-25T10:13:39.279Z</time></trkpt><trkpt lat="41.5699562" lon="13.0071194"><ele>245.75</ele><time>2026-04-25T10:13:40.277Z</time></trkpt><trkpt lat="41.5699209" lon="13.0072671"><ele>247.5</ele><time>2026-04-25T10:13:41.282Z</time></trkpt><trkpt lat="41.569872" lon="13.007408"><ele>249.25</ele><time>2026-04-25T10:13:42.279Z</time></trkpt><trkpt lat="41.5698096" lon="13.0075389"><ele>251.0</ele><time>2026-04-25T10:13:43.279Z</time></trkpt><trkpt lat="41.5697408" lon="13.0076555"><ele>252.66666666666669</ele><time>2026-04-25T10:13:44.276Z</time></trkpt><trkpt lat="41.569674" lon="13.007768"><ele>254.33333333333334</ele><time>2026-04-25T10:13:45.282Z</time></trkpt><trkpt lat="41.5696147" lon="13.0078755"><ele>256.0</ele><time>2026-04-25T10:13:46.278Z</time></trkpt><trkpt lat="41.5695673" lon="13.0079642"><ele>257.6666666666667</ele><time>2026-04-25T10:13:47.277Z</time></trkpt><trkpt lat="41.5695346" lon="13.0080459"><ele>259.3333333333333</ele><time>2026-04-25T10:13:48.277Z</time></trkpt><trkpt lat="41.5695229" lon="13.0081335"><ele>261.0</ele><time>2026-04-25T10:13:49.28Z</time></trkpt><trkpt lat="41.569545" lon="13.0082165"><ele>261.0</ele><time>2026-04-25T10:13:50.277Z</time></trkpt><trkpt lat="41.5696062" lon="13.0082712"><ele>261.0</ele><time>2026-04-25T10:13:51.281Z</time></trkpt><trkpt lat="41.5697028" lon="13.0082741"><ele>261.0</ele><time>2026-04-25T10:13:52.279Z</time></trkpt><trkpt lat="41.569808" lon="13.0082254"><ele>261.0</ele><time>2026-04-25T10:13:53.281Z</time></trkpt><trkpt lat="41.5698974" lon="13.0081427"><ele>261.0</ele><time>2026-04-25T10:13:54.279Z</time></trkpt><trkpt lat="41.5699652" lon="13.0080542"><ele>261.0</ele><time>2026-04-25T10:13:55.278Z</time></trkpt><trkpt lat="41.5700202" lon="13.0079658"><ele>261.0</ele><time>2026-04-25T10:13:56.278Z</time></trkpt><trkpt lat="41.5700711" lon="13.0078739"><ele>261.0</ele><time>2026-04-25T10:13:57.277Z</time></trkpt><trkpt lat="41.5701134" lon="13.0077984"><ele>261.0</ele><time>2026-04-25T10:13:58.279Z</time></trkpt><trkpt lat="41.5701901" lon="13.0077067"><ele>261.0</ele><time>2026-04-25T10:14:00.278Z</time></trkpt><trkpt lat="41.5702812" lon="13.0077349"><ele>261.0</ele><time>2026-04-25T10:14:02.279Z</time></trkpt><trkpt lat="41.5702872" lon="13.0078611"><ele>261.0</ele><time>2026-04-25T10:14:04.286Z</time></trkpt><trkpt lat="41.5702502" lon="13.0079392"><ele>261.0</ele><time>2026-04-25T10:14:05.28Z</time></trkpt><trkpt lat="41.5701778" lon="13.0080451"><ele>261.0</ele><time>2026-04-25T10:14:06.281Z</time></trkpt><trkpt lat="41.5700735" lon="13.0081968"><ele>261.0</ele><time>2026-04-25T10:14:07.278Z</time></trkpt><trkpt lat="41.5699464" lon="13.0084088"><ele>267.5</ele><time>2026-04-25T10:14:08.294Z</time></trkpt><trkpt lat="41.5698042" lon="13.0086705"><ele>274.0</ele><time>2026-04-25T10:14:09.279Z</time></trkpt><trkpt lat="41.5696493" lon="13.0089759"><ele>275.3333333333333</ele><time>2026-04-25T10:14:10.29Z</time></trkpt><trkpt lat="41.5695121" lon="13.009248"><ele>276.6666666666667</ele><time>2026-04-25T10:14:11.28Z</time></trkpt><trkpt lat="41.5694061" lon="13.009421"><ele>278.0</ele><time>2026-04-25T10:14:12.28Z</time></trkpt><trkpt lat="41.5693042" lon="13.0095329"><ele>278.0</ele><time>2026-04-25T10:14:13.286Z</time></trkpt><trkpt lat="41.5691947" lon="13.0096037"><ele>278.0</ele><time>2026-04-25T10:14:14.286Z</time></trkpt><trkpt lat="41.5690695" lon="13.0096602"><ele>278.0</ele><time>2026-04-25T10:14:15.281Z</time></trkpt><trkpt lat="41.5689433" lon="13.0097423"><ele>278.0</ele><time>2026-04-25T10:14:16.281Z</time></trkpt><trkpt lat="41.5688324" lon="13.0098728"><ele>281.33333333333337</ele><time>2026-04-25T10:14:17.291Z</time></trkpt><trkpt lat="41.5687265" lon="13.0100376"><ele>284.6666666666667</ele><time>2026-04-25T10:14:18.281Z</time></trkpt><trkpt lat="41.5686035" lon="13.0102059"><ele>288.0</ele><time>2026-04-25T10:14:19.281Z</time></trkpt><trkpt lat="41.5684665" lon="13.0103552"><ele>288.0</ele><time>2026-04-25T10:14:20.28Z</time></trkpt><trkpt lat="41.5683131" lon="13.0104752"><ele>288.0</ele><time>2026-04-25T10:14:21.283Z</time></trkpt><trkpt lat="41.5681454" lon="13.0105556"><ele>288.0</ele><time>2026-04-25T10:14:22.282Z</time></trkpt><trkpt lat="41.5680014" lon="13.0106755"><ele>293.6666666666667</ele><time>2026-04-25T10:14:23.282Z</time></trkpt><trkpt lat="41.5678511" lon="13.010834"><ele>299.33333333333337</ele><time>2026-04-25T10:14:24.279Z</time></trkpt><trkpt lat="41.5677045" lon="13.0110066"><ele>305.0</ele><time>2026-04-25T10:14:25.282Z</time></trkpt><trkpt lat="41.5675474" lon="13.0112061"><ele>305.0</ele><time>2026-04-25T10:14:26.29Z</time></trkpt><trkpt lat="41.5673977" lon="13.0113939"><ele>305.0</ele><time>2026-04-25T10:14:27.281Z</time></trkpt><trkpt lat="41.5672746" lon="13.0115759"><ele>305.0</ele><time>2026-04-25T10:14:28.28Z</time></trkpt><trkpt lat="41.5671537" lon="13.0117747"><ele>304.6666666666667</ele><time>2026-04-25T10:14:29.282Z</time></trkpt><trkpt lat="41.5670531" lon="13.0119661"><ele>304.3333333333333</ele><time>2026-04-25T10:14:30.289Z</time></trkpt><trkpt lat="41.5669652" lon="13.0121332"><ele>304.0</ele><time>2026-04-25T10:14:31.278Z</time></trkpt><trkpt lat="41.5668625" lon="13.0122914"><ele>305.5</ele><time>2026-04-25T10:14:32.28Z</time></trkpt><trkpt lat="41.5667395" lon="13.0124452"><ele>307.0</ele><time>2026-04-25T10:14:33.292Z</time></trkpt><trkpt lat="41.566631" lon="13.0125546"><ele>308.5</ele><time>2026-04-25T10:14:34.281Z</time></trkpt><trkpt lat="41.5665348" lon="13.0126336"><ele>310.0</ele><time>2026-04-25T10:14:35.289Z</time></trkpt><trkpt lat="41.5664395" lon="13.0126959"><ele>310.0</ele><time>2026-04-25T10:14:36.28Z</time></trkpt><trkpt lat="41.5663667" lon="13.0127509"><ele>310.0</ele><time>2026-04-25T10:14:37.289Z</time></trkpt><trkpt lat="41.5663134" lon="13.0128064"><ele>310.0</ele><time>2026-04-25T10:14:38.28Z</time></trkpt><trkpt lat="41.5663082" lon="13.0129532"><ele>310.0</ele><time>2026-04-25T10:14:40.29Z</time></trkpt><trkpt lat="41.566358" lon="13.013007"><ele>310.0</ele><time>2026-04-25T10:14:41.282Z</time></trkpt><trkpt lat="41.5664251" lon="13.0130114"><ele>310.0</ele><time>2026-04-25T10:14:42.292Z</time></trkpt><trkpt lat="41.5664904" lon="13.0130151"><ele>310.0</ele><time>2026-04-25T10:14:43.28Z</time></trkpt><trkpt lat="41.5665678" lon="13.0128709"><ele>310.0</ele><time>2026-04-25T10:14:44.28Z</time></trkpt><trkpt lat="41.566649" lon="13.0127925"><ele>310.0</ele><time>2026-04-25T10:14:45.291Z</time></trkpt><trkpt lat="41.5667224" lon="13.0127165"><ele>310.0</ele><time>2026-04-25T10:14:46.278Z</time></trkpt><trkpt lat="41.5667772" lon="13.0126512"><ele>310.0</ele><time>2026-04-25T10:14:47.283Z</time></trkpt><trkpt lat="41.5668334" lon="13.012599"><ele>310.0</ele><time>2026-04-25T10:14:48.279Z</time></trkpt><trkpt lat="41.5669268" lon="13.0126104"><ele>310.0</ele><time>2026-04-25T10:14:50.279Z</time></trkpt><trkpt lat="41.566948" lon="13.0127007"><ele>310.0</ele><time>2026-04-25T10:14:52.281Z</time></trkpt><trkpt lat="41.5668603" lon="13.0128058"><ele>310.0</ele><time>2026-04-25T10:14:54.286Z</time></trkpt><trkpt lat="41.5667749" lon="13.0128685"><ele>310.0</ele><time>2026-04-25T10:14:55.28Z</time></trkpt><trkpt lat="41.5666756" lon="13.0129761"><ele>310.0</ele><time>2026-04-25T10:14:56.278Z</time></trkpt><trkpt lat="41.5665592" lon="13.013121"><ele>310.0</ele><time>2026-04-25T10:14:57.289Z</time></trkpt><trkpt lat="41.566424" lon="13.0133147"><ele>310.0</ele><time>2026-04-25T10:14:58.28Z</time></trkpt><trkpt lat="41.5662736" lon="13.0135368"><ele>316.5</ele><time>2026-04-25T10:14:59.278Z</time></trkpt><trkpt lat="41.5661121" lon="13.0137689"><ele>323.0</ele><time>2026-04-25T10:15:00.278Z</time></trkpt><trkpt lat="41.5659555" lon="13.0139748"><ele>323.0</ele><time>2026-04-25T10:15:01.291Z</time></trkpt><trkpt lat="41.5658005" lon="13.0141299"><ele>323.0</ele><time>2026-04-25T10:15:02.279Z</time></trkpt><trkpt lat="41.5656675" lon="13.0142778"><ele>323.0</ele><time>2026-04-25T10:15:03.28Z</time></trkpt><trkpt lat="41.5655501" lon="13.0144438"><ele>324.0</ele><time>2026-04-25T10:15:04.29Z</time></trkpt><trkpt lat="41.5654403" lon="13.0146467"><ele>325.0</ele><time>2026-04-25T10:15:05.28Z</time></trkpt><trkpt lat="41.5653316" lon="13.0148607"><ele>326.0</ele><time>2026-04-25T10:15:06.278Z</time></trkpt><trkpt lat="41.5652371" lon="13.0150572"><ele>330.0</ele><time>2026-04-25T10:15:07.291Z</time></trkpt><trkpt lat="41.5651591" lon="13.0152505"><ele>334.0</ele><time>2026-04-25T10:15:08.289Z</time></trkpt><trkpt lat="41.5650888" lon="13.0154192"><ele>338.0</ele><time>2026-04-25T10:15:09.281Z</time></trkpt><trkpt lat="41.5650061" lon="13.0155575"><ele>342.0</ele><time>2026-04-25T10:15:10.283Z</time></trkpt><trkpt lat="41.5649104" lon="13.0156932"><ele>344.6666666666667</ele><time>2026-04-25T10:15:11.285Z</time></trkpt><trkpt lat="41.5648013" lon="13.0158247"><ele>347.33333333333337</ele><time>2026-04-25T10:15:12.278Z</time></trkpt><trkpt lat="41.5646701" lon="13.0159252"><ele>350.0</ele><time>2026-04-25T10:15:13.289Z</time></trkpt><trkpt lat="41.56454" lon="13.0160336"><ele>349.25</ele><time>2026-04-25T10:15:14.28Z</time></trkpt><trkpt lat="41.564411" lon="13.0160938"><ele>348.5</ele><time>2026-04-25T10:15:15.289Z</time></trkpt><trkpt lat="41.5642959" lon="13.0161816"><ele>347.75</ele><time>2026-04-25T10:15:16.282Z</time></trkpt><trkpt lat="41.5641953" lon="13.0162816"><ele>347.0</ele><time>2026-04-25T10:15:17.29Z</time></trkpt><trkpt lat="41.5640897" lon="13.0164154"><ele>347.0</ele><time>2026-04-25T10:15:18.286Z</time></trkpt><trkpt lat="41.5639876" lon="13.0165706"><ele>347.0</ele><time>2026-04-25T10:15:19.287Z</time></trkpt><trkpt lat="41.5638916" lon="13.0167508"><ele>347.0</ele><time>2026-04-25T10:15:20.29Z</time></trkpt><trkpt lat="41.5637979" lon="13.0169583"><ele>351.33333333333337</ele><time>2026-04-25T10:15:21.29Z</time></trkpt><trkpt lat="41.5636856" lon="13.0171913"><ele>355.6666666666667</ele><time>2026-04-25T10:15:22.289Z</time></trkpt><trkpt lat="41.5635537" lon="13.017454"><ele>360.0</ele><time>2026-04-25T10:15:23.286Z</time></trkpt><trkpt lat="41.5634198" lon="13.0177272"><ele>360.0</ele><time>2026-04-25T10:15:24.291Z</time></trkpt><trkpt lat="41.5632854" lon="13.018018"><ele>360.0</ele><time>2026-04-25T10:15:25.289Z</time></trkpt><trkpt lat="41.5631579" lon="13.0183102"><ele>362.3333333333333</ele><time>2026-04-25T10:15:26.279Z</time></trkpt><trkpt lat="41.5630408" lon="13.0185737"><ele>364.66666666666663</ele><time>2026-04-25T10:15:27.28Z</time></trkpt><trkpt lat="41.5629239" lon="13.0188215"><ele>367.0</ele><time>2026-04-25T10:15:28.278Z</time></trkpt><trkpt lat="41.5627965" lon="13.0190719"><ele>367.0</ele><time>2026-04-25T10:15:29.279Z</time></trkpt><trkpt lat="41.5626606" lon="13.0193184"><ele>367.0</ele><time>2026-04-25T10:15:30.289Z</time></trkpt><trkpt lat="41.5625231" lon="13.0195573"><ele>367.0</ele><time>2026-04-25T10:15:31.28Z</time></trkpt><trkpt lat="41.5624027" lon="13.019776"><ele>367.0</ele><time>2026-04-25T10:15:32.28Z</time></trkpt><trkpt lat="41.5622995" lon="13.0199755"><ele>367.0</ele><time>2026-04-25T10:15:33.287Z</time></trkpt><trkpt lat="41.562227" lon="13.0201808"><ele>371.0</ele><time>2026-04-25T10:15:34.278Z</time></trkpt><trkpt lat="41.5621692" lon="13.0204091"><ele>375.0</ele><time>2026-04-25T10:15:35.28Z</time></trkpt><trkpt lat="41.5621352" lon="13.0206596"><ele>379.0</ele><time>2026-04-25T10:15:36.284Z</time></trkpt><trkpt lat="41.562098" lon="13.0208971"><ele>384.0</ele><time>2026-04-25T10:15:37.281Z</time></trkpt><trkpt lat="41.5620416" lon="13.0211353"><ele>389.0</ele><time>2026-04-25T10:15:38.283Z</time></trkpt><trkpt lat="41.5619509" lon="13.0213649"><ele>394.0</ele><time>2026-04-25T10:15:39.29Z</time></trkpt><trkpt lat="41.5618522" lon="13.0215857"><ele>393.6666666666667</ele><time>2026-04-25T10:15:40.28Z</time></trkpt><trkpt lat="41.5617462" lon="13.0218267"><ele>393.33333333333337</ele><time>2026-04-25T10:15:41.278Z</time></trkpt><trkpt lat="41.5616387" lon="13.0220978"><ele>393.0</ele><time>2026-04-25T10:15:42.287Z</time></trkpt><trkpt lat="41.5615329" lon="13.0223838"><ele>395.0</ele><time>2026-04-25T10:15:43.286Z</time></trkpt><trkpt lat="41.5614179" lon="13.0226624"><ele>397.0</ele><time>2026-04-25T10:15:44.28Z</time></trkpt><trkpt lat="41.5613045" lon="13.0229243"><ele>396.6666666666667</ele><time>2026-04-25T10:15:45.29Z</time></trkpt><trkpt lat="41.5611963" lon="13.0231766"><ele>396.33333333333337</ele><time>2026-04-25T10:15:46.278Z</time></trkpt><trkpt lat="41.5610855" lon="13.0234234"><ele>396.0</ele><time>2026-04-25T10:15:47.288Z</time></trkpt><trkpt lat="41.5609812" lon="13.0236696"><ele>396.0</ele><time>2026-04-25T10:15:48.281Z</time></trkpt><trkpt lat="41.5608742" lon="13.0239074"><ele>396.0</ele><time>2026-04-25T10:15:49.277Z</time></trkpt><trkpt lat="41.5607671" lon="13.0241292"><ele>396.0</ele><time>2026-04-25T10:15:50.286Z</time></trkpt><trkpt lat="41.5606658" lon="13.0243315"><ele>399.66666666666663</ele><time>2026-04-25T10:15:51.28Z</time></trkpt><trkpt lat="41.5605604" lon="13.0245471"><ele>403.3333333333333</ele><time>2026-04-25T10:15:52.29Z</time></trkpt><trkpt lat="41.5604403" lon="13.0247284"><ele>407.0</ele><time>2026-04-25T10:15:53.288Z</time></trkpt><trkpt lat="41.5603151" lon="13.0249011"><ele>409.0</ele><time>2026-04-25T10:15:54.291Z</time></trkpt><trkpt lat="41.5601908" lon="13.0250518"><ele>411.0</ele><time>2026-04-25T10:15:55.289Z</time></trkpt><trkpt lat="41.5600694" lon="13.0251874"><ele>413.0</ele><time>2026-04-25T10:15:56.287Z</time></trkpt><trkpt lat="41.5599465" lon="13.0253122"><ele>413.0</ele><time>2026-04-25T10:15:57.291Z</time></trkpt><trkpt lat="41.5598193" lon="13.0254215"><ele>413.0</ele><time>2026-04-25T10:15:58.279Z</time></trkpt><trkpt lat="41.5596787" lon="13.0255174"><ele>413.0</ele><time>2026-04-25T10:15:59.29Z</time></trkpt><trkpt lat="41.5595405" lon="13.0256093"><ele>414.66666666666663</ele><time>2026-04-25T10:16:00.281Z</time></trkpt><trkpt lat="41.5594083" lon="13.0257138"><ele>416.33333333333337</ele><time>2026-04-25T10:16:01.29Z</time></trkpt><trkpt lat="41.5592812" lon="13.0258242"><ele>418.0</ele><time>2026-04-25T10:16:02.281Z</time></trkpt><trkpt lat="41.5591547" lon="13.0259313"><ele>418.0</ele><time>2026-04-25T10:16:03.289Z</time></trkpt><trkpt lat="41.5590254" lon="13.0260339"><ele>418.0</ele><time>2026-04-25T10:16:04.282Z</time></trkpt><trkpt lat="41.5588932" lon="13.0261291"><ele>418.0</ele><time>2026-04-25T10:16:05.286Z</time></trkpt><trkpt lat="41.5587585" lon="13.02622"><ele>421.33333333333337</ele><time>2026-04-25T10:16:06.281Z</time></trkpt><trkpt lat="41.5586279" lon="13.0263106"><ele>424.66666666666663</ele><time>2026-04-25T10:16:07.279Z</time></trkpt><trkpt lat="41.5584936" lon="13.0264073"><ele>428.0</ele><time>2026-04-25T10:16:08.293Z</time></trkpt><trkpt lat="41.5583529" lon="13.0265218"><ele>426.66666666666663</ele><time>2026-04-25T10:16:09.289Z</time></trkpt><trkpt lat="41.5582133" lon="13.0266576"><ele>425.33333333333337</ele><time>2026-04-25T10:16:10.279Z</time></trkpt><trkpt lat="41.5580813" lon="13.0268047"><ele>424.0</ele><time>2026-04-25T10:16:11.287Z</time></trkpt><trkpt lat="41.5579629" lon="13.026949"><ele>430.6666666666667</ele><time>2026-04-25T10:16:12.285Z</time></trkpt><trkpt lat="41.55786" lon="13.0270987"><ele>437.33333333333337</ele><time>2026-04-25T10:16:13.288Z</time></trkpt><trkpt lat="41.5577744" lon="13.027263"><ele>444.0</ele><time>2026-04-25T10:16:14.282Z</time></trkpt><trkpt lat="41.5577006" lon="13.0274444"><ele>441.33333333333337</ele><time>2026-04-25T10:16:15.286Z</time></trkpt><trkpt lat="41.5576367" lon="13.0276391"><ele>438.6666666666667</ele><time>2026-04-25T10:16:16.29Z</time></trkpt><trkpt lat="41.5575765" lon="13.0278253"><ele>436.0</ele><time>2026-04-25T10:16:17.281Z</time></trkpt><trkpt lat="41.5575132" lon="13.0279946"><ele>436.0</ele><time>2026-04-25T10:16:18.289Z</time></trkpt><trkpt lat="41.5574578" lon="13.0281378"><ele>436.0</ele><time>2026-04-25T10:16:19.281Z</time></trkpt><trkpt lat="41.5573984" lon="13.0282717"><ele>436.0</ele><time>2026-04-25T10:16:20.29Z</time></trkpt><trkpt lat="41.5573078" lon="13.0283933"><ele>436.0</ele><time>2026-04-25T10:16:21.279Z</time></trkpt><trkpt lat="41.557193" lon="13.0285038"><ele>436.0</ele><time>2026-04-25T10:16:22.28Z</time></trkpt><trkpt lat="41.5570731" lon="13.0285877"><ele>436.0</ele><time>2026-04-25T10:16:23.28Z</time></trkpt><trkpt lat="41.5569555" lon="13.0286501"><ele>436.0</ele><time>2026-04-25T10:16:24.287Z</time></trkpt><trkpt lat="41.5568542" lon="13.0287134"><ele>436.0</ele><time>2026-04-25T10:16:25.28Z</time></trkpt><trkpt lat="41.5567606" lon="13.0288024"><ele>438.25</ele><time>2026-04-25T10:16:26.289Z</time></trkpt><trkpt lat="41.5566852" lon="13.0289186"><ele>440.5</ele><time>2026-04-25T10:16:27.281Z</time></trkpt><trkpt lat="41.5566283" lon="13.0290525"><ele>442.75</ele><time>2026-04-25T10:16:28.29Z</time></trkpt><trkpt lat="41.5565931" lon="13.0291976"><ele>445.0</ele><time>2026-04-25T10:16:29.28Z</time></trkpt><trkpt lat="41.5565681" lon="13.0293502"><ele>445.0</ele><time>2026-04-25T10:16:30.284Z</time></trkpt><trkpt lat="41.5565427" lon="13.029511"><ele>445.0</ele><time>2026-04-25T10:16:31.281Z</time></trkpt><trkpt lat="41.5565081" lon="13.0296758"><ele>445.0</ele><time>2026-04-25T10:16:32.281Z</time></trkpt><trkpt lat="41.5564611" lon="13.0298438"><ele>445.0</ele><time>2026-04-25T10:16:33.291Z</time></trkpt><trkpt lat="41.5563954" lon="13.0300062"><ele>446.0</ele><time>2026-04-25T10:16:34.283Z</time></trkpt><trkpt lat="41.5563145" lon="13.0301553"><ele>447.0</ele><time>2026-04-25T10:16:35.292Z</time></trkpt><trkpt lat="41.5562276" lon="13.0302939"><ele>448.0</ele><time>2026-04-25T10:16:36.281Z</time></trkpt><trkpt lat="41.5561278" lon="13.0304424"><ele>449.0</ele><time>2026-04-25T10:16:37.279Z</time></trkpt><trkpt lat="41.5560177" lon="13.030632"><ele>453.66666666666663</ele><time>2026-04-25T10:16:38.282Z</time></trkpt><trkpt lat="41.555898" lon="13.0308803"><ele>458.33333333333337</ele><time>2026-04-25T10:16:39.284Z</time></trkpt><trkpt lat="41.5557702" lon="13.0311314"><ele>463.0</ele><time>2026-04-25T10:16:40.289Z</time></trkpt><trkpt lat="41.5556391" lon="13.0313573"><ele>463.0</ele><time>2026-04-25T10:16:41.29Z</time></trkpt><trkpt lat="41.5555041" lon="13.0315792"><ele>463.0</ele><time>2026-04-25T10:16:42.279Z</time></trkpt><trkpt lat="41.5553964" lon="13.0318097"><ele>463.0</ele><time>2026-04-25T10:16:43.281Z</time></trkpt><trkpt lat="41.5553086" lon="13.0320268"><ele>465.6666666666667</ele><time>2026-04-25T10:16:44.288Z</time></trkpt><trkpt lat="41.555219" lon="13.0322346"><ele>468.33333333333337</ele><time>2026-04-25T10:16:45.282Z</time></trkpt><trkpt lat="41.5550938" lon="13.0324319"><ele>471.0</ele><time>2026-04-25T10:16:46.285Z</time></trkpt><trkpt lat="41.5549513" lon="13.0326164"><ele>471.0</ele><time>2026-04-25T10:16:47.287Z</time></trkpt><trkpt lat="41.5548207" lon="13.0327721"><ele>471.0</ele><time>2026-04-25T10:16:48.28Z</time></trkpt><trkpt lat="41.5547003" lon="13.032895"><ele>471.0</ele><time>2026-04-25T10:16:49.279Z</time></trkpt><trkpt lat="41.554572" lon="13.0329985"><ele>472.0</ele><time>2026-04-25T10:16:50.281Z</time></trkpt><trkpt lat="41.5544563" lon="13.0330666"><ele>473.0</ele><time>2026-04-25T10:16:51.279Z</time></trkpt><trkpt lat="41.5543411" lon="13.0331295"><ele>474.0</ele><time>2026-04-25T10:16:52.279Z</time></trkpt><trkpt lat="41.5542168" lon="13.0332147"><ele>475.0</ele><time>2026-04-25T10:16:53.29Z</time></trkpt><trkpt lat="41.5540897" lon="13.0333241"><ele>475.0</ele><time>2026-04-25T10:16:54.282Z</time></trkpt><trkpt lat="41.5539619" lon="13.0334491"><ele>475.0</ele><time>2026-04-25T10:16:55.283Z</time></trkpt><trkpt lat="41.5538332" lon="13.0335909"><ele>475.0</ele><time>2026-04-25T10:16:56.279Z</time></trkpt><trkpt lat="41.5537013" lon="13.0337396"><ele>479.6666666666667</ele><time>2026-04-25T10:16:57.282Z</time></trkpt><trkpt lat="41.5535724" lon="13.033881"><ele>484.33333333333337</ele><time>2026-04-25T10:16:58.281Z</time></trkpt><trkpt lat="41.5534493" lon="13.0340084"><ele>489.0</ele><time>2026-04-25T10:16:59.277Z</time></trkpt><trkpt lat="41.5533291" lon="13.034119"><ele>486.33333333333337</ele><time>2026-04-25T10:17:00.281Z</time></trkpt><trkpt lat="41.5532024" lon="13.0341869"><ele>483.6666666666667</ele><time>2026-04-25T10:17:01.281Z</time></trkpt><trkpt lat="41.5530616" lon="13.034229"><ele>481.0</ele><time>2026-04-25T10:17:02.278Z</time></trkpt><trkpt lat="41.5528933" lon="13.0342591"><ele>482.6666666666667</ele><time>2026-04-25T10:17:03.288Z</time></trkpt><trkpt lat="41.5527007" lon="13.0342784"><ele>484.33333333333337</ele><time>2026-04-25T10:17:04.29Z</time></trkpt><trkpt lat="41.5524938" lon="13.0342947"><ele>486.0</ele><time>2026-04-25T10:17:05.284Z</time></trkpt><trkpt lat="41.552285" lon="13.0343226"><ele>486.0</ele><time>2026-04-25T10:17:06.288Z</time></trkpt><trkpt lat="41.5520793" lon="13.0343646"><ele>486.0</ele><time>2026-04-25T10:17:07.281Z</time></trkpt><trkpt lat="41.5518954" lon="13.034414"><ele>486.0</ele><time>2026-04-25T10:17:08.279Z</time></trkpt><trkpt lat="41.5517303" lon="13.0344768"><ele>490.33333333333337</ele><time>2026-04-25T10:17:09.288Z</time></trkpt><trkpt lat="41.551569" lon="13.0345733"><ele>494.6666666666667</ele><time>2026-04-25T10:17:10.281Z</time></trkpt><trkpt lat="41.551405" lon="13.0347142"><ele>499.0</ele><time>2026-04-25T10:17:11.287Z</time></trkpt><trkpt lat="41.5512419" lon="13.0348608"><ele>502.0</ele><time>2026-04-25T10:17:12.282Z</time></trkpt><trkpt lat="41.5510756" lon="13.0350099"><ele>505.0</ele><time>2026-04-25T10:17:13.292Z</time></trkpt><trkpt lat="41.5509148" lon="13.0351582"><ele>508.0</ele><time>2026-04-25T10:17:14.282Z</time></trkpt><trkpt lat="41.5507657" lon="13.0352903"><ele>508.0</ele><time>2026-04-25T10:17:15.282Z</time></trkpt><trkpt lat="41.5506258" lon="13.0354111"><ele>508.0</ele><time>2026-04-25T10:17:16.291Z</time></trkpt><trkpt lat="41.5505162" lon="13.0355191"><ele>508.0</ele><time>2026-04-25T10:17:17.282Z</time></trkpt><trkpt lat="41.550416" lon="13.0356259"><ele>508.0</ele><time>2026-04-25T10:17:18.28Z</time></trkpt><trkpt lat="41.5503222" lon="13.0357665"><ele>507.75</ele><time>2026-04-25T10:17:19.281Z</time></trkpt><trkpt lat="41.5502285" lon="13.035931"><ele>507.5</ele><time>2026-04-25T10:17:20.292Z</time></trkpt><trkpt lat="41.5501419" lon="13.0360786"><ele>507.25</ele><time>2026-04-25T10:17:21.292Z</time></trkpt><trkpt lat="41.5500458" lon="13.0362204"><ele>507.0</ele><time>2026-04-25T10:17:22.281Z</time></trkpt><trkpt lat="41.5499305" lon="13.0363494"><ele>507.0</ele><time>2026-04-25T10:17:23.29Z</time></trkpt><trkpt lat="41.5497838" lon="13.0364588"><ele>507.0</ele><time>2026-04-25T10:17:24.278Z</time></trkpt><trkpt lat="41.5496368" lon="13.0365609"><ele>507.0</ele><time>2026-04-25T10:17:25.282Z</time></trkpt><trkpt lat="41.5495008" lon="13.036653"><ele>504.25</ele><time>2026-04-25T10:17:26.288Z</time></trkpt><trkpt lat="41.5493678" lon="13.0367403"><ele>501.5</ele><time>2026-04-25T10:17:27.28Z</time></trkpt><trkpt lat="41.549246" lon="13.0368258"><ele>498.75</ele><time>2026-04-25T10:17:28.278Z</time></trkpt><trkpt lat="41.549132" lon="13.0369076"><ele>496.0</ele><time>2026-04-25T10:17:29.28Z</time></trkpt><trkpt lat="41.5490309" lon="13.0369819"><ele>496.0</ele><time>2026-04-25T10:17:30.29Z</time></trkpt><trkpt lat="41.5489495" lon="13.0370872"><ele>496.0</ele><time>2026-04-25T10:17:31.29Z</time></trkpt><trkpt lat="41.54889" lon="13.0372227"><ele>496.0</ele><time>2026-04-25T10:17:32.283Z</time></trkpt><trkpt lat="41.5488486" lon="13.0373912"><ele>496.0</ele><time>2026-04-25T10:17:33.286Z</time></trkpt><trkpt lat="41.5488115" lon="13.0375537"><ele>494.0</ele><time>2026-04-25T10:17:34.281Z</time></trkpt><trkpt lat="41.5487464" lon="13.0377132"><ele>492.0</ele><time>2026-04-25T10:17:35.283Z</time></trkpt><trkpt lat="41.5486462" lon="13.0378671"><ele>490.0</ele><time>2026-04-25T10:17:36.278Z</time></trkpt><trkpt lat="41.5485045" lon="13.0380033"><ele>490.33333333333337</ele><time>2026-04-25T10:17:37.281Z</time></trkpt><trkpt lat="41.5483352" lon="13.0381439"><ele>490.66666666666663</ele><time>2026-04-25T10:17:38.29Z</time></trkpt><trkpt lat="41.5481395" lon="13.0383131"><ele>491.0</ele><time>2026-04-25T10:17:39.281Z</time></trkpt><trkpt lat="41.5479276" lon="13.0384886"><ele>489.0</ele><time>2026-04-25T10:17:40.29Z</time></trkpt><trkpt lat="41.547709" lon="13.0386657"><ele>487.0</ele><time>2026-04-25T10:17:41.292Z</time></trkpt><trkpt lat="41.547503" lon="13.0388319"><ele>487.0</ele><time>2026-04-25T10:17:42.283Z</time></trkpt><trkpt lat="41.5473138" lon="13.0389947"><ele>487.0</ele><time>2026-04-25T10:17:43.283Z</time></trkpt><trkpt lat="41.5471333" lon="13.0391547"><ele>487.0</ele><time>2026-04-25T10:17:44.285Z</time></trkpt><trkpt lat="41.5469655" lon="13.0393199"><ele>487.6666666666667</ele><time>2026-04-25T10:17:45.279Z</time></trkpt><trkpt lat="41.5468086" lon="13.0394754"><ele>488.33333333333337</ele><time>2026-04-25T10:17:46.29Z</time></trkpt><trkpt lat="41.5466527" lon="13.0396419"><ele>489.0</ele><time>2026-04-25T10:17:47.29Z</time></trkpt><trkpt lat="41.5464736" lon="13.0398297"><ele>490.0</ele><time>2026-04-25T10:17:48.292Z</time></trkpt><trkpt lat="41.5462783" lon="13.040033"><ele>491.0</ele><time>2026-04-25T10:17:49.283Z</time></trkpt><trkpt lat="41.5460675" lon="13.0402475"><ele>491.0</ele><time>2026-04-25T10:17:50.278Z</time></trkpt><trkpt lat="41.5458588" lon="13.0404577"><ele>491.0</ele><time>2026-04-25T10:17:51.29Z</time></trkpt><trkpt lat="41.5456709" lon="13.0406472"><ele>491.66666666666663</ele><time>2026-04-25T10:17:52.28Z</time></trkpt><trkpt lat="41.5454941" lon="13.0408225"><ele>492.33333333333337</ele><time>2026-04-25T10:17:53.289Z</time></trkpt><trkpt lat="41.545328" lon="13.0409887"><ele>493.0</ele><time>2026-04-25T10:17:54.279Z</time></trkpt><trkpt lat="41.545182" lon="13.0411375"><ele>493.0</ele><time>2026-04-25T10:17:55.289Z</time></trkpt><trkpt lat="41.545057" lon="13.0412711"><ele>493.0</ele><time>2026-04-25T10:17:56.28Z</time></trkpt><trkpt lat="41.5449422" lon="13.0414088"><ele>493.0</ele><time>2026-04-25T10:17:57.29Z</time></trkpt><trkpt lat="41.5448332" lon="13.0415617"><ele>495.6666666666667</ele><time>2026-04-25T10:17:58.282Z</time></trkpt><trkpt lat="41.5447331" lon="13.0417416"><ele>498.33333333333337</ele><time>2026-04-25T10:17:59.29Z</time></trkpt><trkpt lat="41.5446361" lon="13.0419508"><ele>501.0</ele><time>2026-04-25T10:18:00.289Z</time></trkpt><trkpt lat="41.5445289" lon="13.0421773"><ele>496.66666666666663</ele><time>2026-04-25T10:18:01.279Z</time></trkpt><trkpt lat="41.5444164" lon="13.0424154"><ele>492.3333333333333</ele><time>2026-04-25T10:18:02.279Z</time></trkpt><trkpt lat="41.5443121" lon="13.0426593"><ele>488.0</ele><time>2026-04-25T10:18:03.291Z</time></trkpt><trkpt lat="41.5442044" lon="13.0428895"><ele>488.0</ele><time>2026-04-25T10:18:04.278Z</time></trkpt><trkpt lat="41.5441101" lon="13.0431146"><ele>488.0</ele><time>2026-04-25T10:18:05.287Z</time></trkpt><trkpt lat="41.5440355" lon="13.0433498"><ele>488.0</ele><time>2026-04-25T10:18:06.281Z</time></trkpt><trkpt lat="41.543977" lon="13.0435711"><ele>488.66666666666663</ele><time>2026-04-25T10:18:07.281Z</time></trkpt><trkpt lat="41.5439132" lon="13.0437743"><ele>489.33333333333337</ele><time>2026-04-25T10:18:08.281Z</time></trkpt><trkpt lat="41.5438275" lon="13.0439932"><ele>490.0</ele><time>2026-04-25T10:18:09.279Z</time></trkpt><trkpt lat="41.5437171" lon="13.0442198"><ele>485.0</ele><time>2026-04-25T10:18:10.283Z</time></trkpt><trkpt lat="41.5436025" lon="13.0444634"><ele>480.0</ele><time>2026-04-25T10:18:11.289Z</time></trkpt><trkpt lat="41.5434751" lon="13.0447263"><ele>479.5</ele><time>2026-04-25T10:18:12.279Z</time></trkpt><trkpt lat="41.5433394" lon="13.0450117"><ele>479.0</ele><time>2026-04-25T10:18:13.281Z</time></trkpt><trkpt lat="41.5431969" lon="13.0453007"><ele>479.0</ele><time>2026-04-25T10:18:14.276Z</time></trkpt><trkpt lat="41.5430598" lon="13.0455663"><ele>479.0</ele><time>2026-04-25T10:18:15.281Z</time></trkpt><trkpt lat="41.5429333" lon="13.0458276"><ele>472.5</ele><time>2026-04-25T10:18:16.273Z</time></trkpt><trkpt lat="41.5428046" lon="13.0460831"><ele>466.0</ele><time>2026-04-25T10:18:17.275Z</time></trkpt><trkpt lat="41.5426819" lon="13.0463366"><ele>466.0</ele><time>2026-04-25T10:18:18.277Z</time></trkpt><trkpt lat="41.5425636" lon="13.046565"><ele>466.0</ele><time>2026-04-25T10:18:19.275Z</time></trkpt><trkpt lat="41.5424474" lon="13.0467682"><ele>466.0</ele><time>2026-04-25T10:18:20.276Z</time></trkpt><trkpt lat="41.5423237" lon="13.0469474"><ele>465.33333333333337</ele><time>2026-04-25T10:18:21.278Z</time></trkpt><trkpt lat="41.5421879" lon="13.0471012"><ele>464.66666666666663</ele><time>2026-04-25T10:18:22.28Z</time></trkpt><trkpt lat="41.5420405" lon="13.0472462"><ele>464.0</ele><time>2026-04-25T10:18:23.285Z</time></trkpt><trkpt lat="41.5418896" lon="13.0473869"><ele>461.3333333333333</ele><time>2026-04-25T10:18:24.279Z</time></trkpt><trkpt lat="41.5417319" lon="13.0475202"><ele>458.66666666666663</ele><time>2026-04-25T10:18:25.274Z</time></trkpt><trkpt lat="41.5415639" lon="13.0476406"><ele>456.0</ele><time>2026-04-25T10:18:26.282Z</time></trkpt><trkpt lat="41.5413786" lon="13.0477412"><ele>452.0</ele><time>2026-04-25T10:18:27.282Z</time></trkpt><trkpt lat="41.5412071" lon="13.0478487"><ele>448.0</ele><time>2026-04-25T10:18:28.275Z</time></trkpt><trkpt lat="41.5410511" lon="13.047959"><ele>444.0</ele><time>2026-04-25T10:18:29.275Z</time></trkpt><trkpt lat="41.5409029" lon="13.0480701"><ele>444.0</ele><time>2026-04-25T10:18:30.28Z</time></trkpt><trkpt lat="41.5407569" lon="13.0482006"><ele>444.0</ele><time>2026-04-25T10:18:31.277Z</time></trkpt><trkpt lat="41.5406268" lon="13.0483478"><ele>444.0</ele><time>2026-04-25T10:18:32.277Z</time></trkpt><trkpt lat="41.5405168" lon="13.0485107"><ele>445.33333333333337</ele><time>2026-04-25T10:18:33.278Z</time></trkpt><trkpt lat="41.540413" lon="13.0486659"><ele>446.6666666666667</ele><time>2026-04-25T10:18:34.287Z</time></trkpt><trkpt lat="41.5402958" lon="13.0487907"><ele>448.0</ele><time>2026-04-25T10:18:35.288Z</time></trkpt><trkpt lat="41.5401583" lon="13.0489062"><ele>444.33333333333337</ele><time>2026-04-25T10:18:36.28Z</time></trkpt><trkpt lat="41.5399873" lon="13.0489682"><ele>440.66666666666663</ele><time>2026-04-25T10:18:37.275Z</time></trkpt><trkpt lat="41.5398037" lon="13.049027"><ele>437.0</ele><time>2026-04-25T10:18:38.277Z</time></trkpt><trkpt lat="41.5396113" lon="13.0490961"><ele>436.3333333333333</ele><time>2026-04-25T10:18:39.28Z</time></trkpt><trkpt lat="41.5394185" lon="13.0491811"><ele>435.66666666666663</ele><time>2026-04-25T10:18:40.281Z</time></trkpt><trkpt lat="41.5392252" lon="13.0492578"><ele>435.0</ele><time>2026-04-25T10:18:41.287Z</time></trkpt><trkpt lat="41.5390367" lon="13.049317"><ele>435.0</ele><time>2026-04-25T10:18:42.28Z</time></trkpt><trkpt lat="41.5388513" lon="13.0493636"><ele>435.0</ele><time>2026-04-25T10:18:43.287Z</time></trkpt><trkpt lat="41.53867" lon="13.049395"><ele>435.0</ele><time>2026-04-25T10:18:44.286Z</time></trkpt><trkpt lat="41.5384917" lon="13.0493951"><ele>432.66666666666663</ele><time>2026-04-25T10:18:45.286Z</time></trkpt><trkpt lat="41.5383189" lon="13.0493956"><ele>430.3333333333333</ele><time>2026-04-25T10:18:46.285Z</time></trkpt><trkpt lat="41.5381465" lon="13.0494092"><ele>428.0</ele><time>2026-04-25T10:18:47.287Z</time></trkpt><trkpt lat="41.5379681" lon="13.04943"><ele>425.66666666666663</ele><time>2026-04-25T10:18:48.284Z</time></trkpt><trkpt lat="41.5377925" lon="13.0494532"><ele>423.33333333333337</ele><time>2026-04-25T10:18:49.293Z</time></trkpt><trkpt lat="41.5376151" lon="13.0494855"><ele>421.0</ele><time>2026-04-25T10:18:50.271Z</time></trkpt><trkpt lat="41.5374443" lon="13.0495262"><ele>421.0</ele><time>2026-04-25T10:18:51.393Z</time></trkpt><trkpt lat="41.5370966" lon="13.0496162"><ele>421.0</ele><time>2026-04-25T10:18:53.28Z</time></trkpt><trkpt lat="41.5369293" lon="13.0496673"><ele>420.0</ele><time>2026-04-25T10:18:54.275Z</time></trkpt><trkpt lat="41.5367567" lon="13.0497159"><ele>419.0</ele><time>2026-04-25T10:18:55.281Z</time></trkpt><trkpt lat="41.536589" lon="13.0497684"><ele>418.0</ele><time>2026-04-25T10:18:56.278Z</time></trkpt><trkpt lat="41.5364256" lon="13.0498147"><ele>418.0</ele><time>2026-04-25T10:18:57.279Z</time></trkpt><trkpt lat="41.5362722" lon="13.0498589"><ele>418.0</ele><time>2026-04-25T10:18:58.281Z</time></trkpt><trkpt lat="41.5361225" lon="13.0499097"><ele>418.0</ele><time>2026-04-25T10:18:59.287Z</time></trkpt><trkpt lat="41.535982" lon="13.0499464"><ele>416.5</ele><time>2026-04-25T10:19:00.285Z</time></trkpt><trkpt lat="41.5358413" lon="13.049955"><ele>415.0</ele><time>2026-04-25T10:19:01.287Z</time></trkpt><trkpt lat="41.5356949" lon="13.0499332"><ele>413.5</ele><time>2026-04-25T10:19:02.278Z</time></trkpt><trkpt lat="41.535554" lon="13.0498951"><ele>412.0</ele><time>2026-04-25T10:19:03.279Z</time></trkpt><trkpt lat="41.5354182" lon="13.0498569"><ele>409.6</ele><time>2026-04-25T10:19:04.286Z</time></trkpt><trkpt lat="41.5353002" lon="13.0498322"><ele>407.20000000000005</ele><time>2026-04-25T10:19:05.28Z</time></trkpt><trkpt lat="41.5351951" lon="13.0498284"><ele>404.8</ele><time>2026-04-25T10:19:06.28Z</time></trkpt><trkpt lat="41.535095" lon="13.0498626"><ele>402.4</ele><time>2026-04-25T10:19:07.279Z</time></trkpt><trkpt lat="41.5350149" lon="13.0499308"><ele>400.0</ele><time>2026-04-25T10:19:08.275Z</time></trkpt><trkpt lat="41.5349639" lon="13.0500081"><ele>400.00000000000006</ele><time>2026-04-25T10:19:09.287Z</time></trkpt><trkpt lat="41.5349355" lon="13.0501031"><ele>400.0</ele><time>2026-04-25T10:19:10.274Z</time></trkpt><trkpt lat="41.5349338" lon="13.0502116"><ele>400.0</ele><time>2026-04-25T10:19:11.282Z</time></trkpt><trkpt lat="41.534964" lon="13.0503263"><ele>400.0</ele><time>2026-04-25T10:19:12.285Z</time></trkpt><trkpt lat="41.5350205" lon="13.0504299"><ele>400.00000000000006</ele><time>2026-04-25T10:19:13.283Z</time></trkpt><trkpt lat="41.5350991" lon="13.0505056"><ele>400.0</ele><time>2026-04-25T10:19:14.279Z</time></trkpt><trkpt lat="41.5352013" lon="13.0505506"><ele>400.0</ele><time>2026-04-25T10:19:15.278Z</time></trkpt><trkpt lat="41.5353179" lon="13.0505645"><ele>400.0</ele><time>2026-04-25T10:19:16.286Z</time></trkpt><trkpt lat="41.5354629" lon="13.0505651"><ele>400.0</ele><time>2026-04-25T10:19:17.28Z</time></trkpt><trkpt lat="41.535618" lon="13.0505669"><ele>400.0</ele><time>2026-04-25T10:19:18.275Z</time></trkpt><trkpt lat="41.5357704" lon="13.0505669"><ele>402.5</ele><time>2026-04-25T10:19:19.278Z</time></trkpt><trkpt lat="41.5359096" lon="13.0505645"><ele>405.0</ele><time>2026-04-25T10:19:20.285Z</time></trkpt><trkpt lat="41.5360384" lon="13.0505604"><ele>407.5</ele><time>2026-04-25T10:19:21.278Z</time></trkpt><trkpt lat="41.5361566" lon="13.0505615"><ele>410.0</ele><time>2026-04-25T10:19:22.277Z</time></trkpt><trkpt lat="41.5362634" lon="13.050553"><ele>410.8</ele><time>2026-04-25T10:19:23.275Z</time></trkpt><trkpt lat="41.5363658" lon="13.0505514"><ele>411.6</ele><time>2026-04-25T10:19:24.286Z</time></trkpt><trkpt lat="41.5364643" lon="13.0505607"><ele>412.4</ele><time>2026-04-25T10:19:25.289Z</time></trkpt><trkpt lat="41.536557" lon="13.0506031"><ele>413.2</ele><time>2026-04-25T10:19:26.274Z</time></trkpt><trkpt lat="41.5366344" lon="13.0506665"><ele>414.0</ele><time>2026-04-25T10:19:27.28Z</time></trkpt><trkpt lat="41.5366929" lon="13.0507655"><ele>411.2</ele><time>2026-04-25T10:19:28.279Z</time></trkpt><trkpt lat="41.5367178" lon="13.0508722"><ele>408.4</ele><time>2026-04-25T10:19:29.28Z</time></trkpt><trkpt lat="41.5367081" lon="13.0509995"><ele>405.6</ele><time>2026-04-25T10:19:30.279Z</time></trkpt><trkpt lat="41.5366618" lon="13.0511132"><ele>402.8</ele><time>2026-04-25T10:19:31.281Z</time></trkpt><trkpt lat="41.5366091" lon="13.0512242"><ele>400.0</ele><time>2026-04-25T10:19:32.278Z</time></trkpt><trkpt lat="41.536495" lon="13.051244"><ele>400.0</ele><time>2026-04-25T10:19:33.28Z</time></trkpt><trkpt lat="41.5363987" lon="13.0512383"><ele>400.0</ele><time>2026-04-25T10:19:34.273Z</time></trkpt><trkpt lat="41.536281" lon="13.051206"><ele>400.0</ele><time>2026-04-25T10:19:35.274Z</time></trkpt><trkpt lat="41.536154" lon="13.0511606"><ele>400.0</ele><time>2026-04-25T10:19:36.276Z</time></trkpt><trkpt lat="41.5360237" lon="13.0511101"><ele>399.75</ele><time>2026-04-25T10:19:37.274Z</time></trkpt><trkpt lat="41.5359013" lon="13.0510671"><ele>399.5</ele><time>2026-04-25T10:19:38.28Z</time></trkpt><trkpt lat="41.5357817" lon="13.051041"><ele>399.25</ele><time>2026-04-25T10:19:39.281Z</time></trkpt><trkpt lat="41.5356612" lon="13.0510495"><ele>399.0</ele><time>2026-04-25T10:19:40.274Z</time></trkpt><trkpt lat="41.535555" lon="13.0510836"><ele>399.0</ele><time>2026-04-25T10:19:41.276Z</time></trkpt><trkpt lat="41.5354629" lon="13.0511604"><ele>399.0</ele><time>2026-04-25T10:19:42.28Z</time></trkpt><trkpt lat="41.5353828" lon="13.0512735"><ele>399.0</ele><time>2026-04-25T10:19:43.278Z</time></trkpt><trkpt lat="41.5353239" lon="13.0514324"><ele>399.0</ele><time>2026-04-25T10:19:44.277Z</time></trkpt><trkpt lat="41.5352846" lon="13.0516175"><ele>395.25</ele><time>2026-04-25T10:19:45.275Z</time></trkpt><trkpt lat="41.5352464" lon="13.0518052"><ele>391.5</ele><time>2026-04-25T10:19:46.28Z</time></trkpt><trkpt lat="41.5352074" lon="13.0519865"><ele>387.75</ele><time>2026-04-25T10:19:47.281Z</time></trkpt><trkpt lat="41.5351628" lon="13.0521612"><ele>384.0</ele><time>2026-04-25T10:19:48.281Z</time></trkpt><trkpt lat="41.5350975" lon="13.0523241"><ele>384.33333333333337</ele><time>2026-04-25T10:19:49.274Z</time></trkpt><trkpt lat="41.5350029" lon="13.0525006"><ele>384.6666666666667</ele><time>2026-04-25T10:19:50.273Z</time></trkpt><trkpt lat="41.5348874" lon="13.0526812"><ele>385.0</ele><time>2026-04-25T10:19:51.275Z</time></trkpt><trkpt lat="41.5347517" lon="13.0528634"><ele>385.0</ele><time>2026-04-25T10:19:52.275Z</time></trkpt><trkpt lat="41.534599" lon="13.0530249"><ele>385.0</ele><time>2026-04-25T10:19:53.274Z</time></trkpt><trkpt lat="41.5344525" lon="13.0531557"><ele>385.0</ele><time>2026-04-25T10:19:54.279Z</time></trkpt><trkpt lat="41.5343142" lon="13.0532676"><ele>384.6666666666667</ele><time>2026-04-25T10:19:55.274Z</time></trkpt><trkpt lat="41.5341723" lon="13.0533617"><ele>384.33333333333337</ele><time>2026-04-25T10:19:56.284Z</time></trkpt><trkpt lat="41.5340234" lon="13.0534317"><ele>384.0</ele><time>2026-04-25T10:19:57.28Z</time></trkpt><trkpt lat="41.5338525" lon="13.0534955"><ele>381.0</ele><time>2026-04-25T10:19:58.278Z</time></trkpt><trkpt lat="41.5336614" lon="13.0535587"><ele>378.0</ele><time>2026-04-25T10:19:59.275Z</time></trkpt><trkpt lat="41.5334469" lon="13.0536331"><ele>375.0</ele><time>2026-04-25T10:20:00.287Z</time></trkpt><trkpt lat="41.5332093" lon="13.0536999"><ele>375.0</ele><time>2026-04-25T10:20:01.278Z</time></trkpt><trkpt lat="41.5329655" lon="13.0537542"><ele>375.0</ele><time>2026-04-25T10:20:02.284Z</time></trkpt><trkpt lat="41.5327386" lon="13.0538099"><ele>373.6666666666667</ele><time>2026-04-25T10:20:03.275Z</time></trkpt><trkpt lat="41.5325223" lon="13.0538566"><ele>372.33333333333337</ele><time>2026-04-25T10:20:04.278Z</time></trkpt><trkpt lat="41.5323222" lon="13.053892"><ele>371.0</ele><time>2026-04-25T10:20:05.287Z</time></trkpt><trkpt lat="41.5321281" lon="13.0539253"><ele>369.0</ele><time>2026-04-25T10:20:06.279Z</time></trkpt><trkpt lat="41.5319404" lon="13.0539676"><ele>367.0</ele><time>2026-04-25T10:20:07.278Z</time></trkpt><trkpt lat="41.5317478" lon="13.0540206"><ele>365.0</ele><time>2026-04-25T10:20:08.279Z</time></trkpt><trkpt lat="41.5315482" lon="13.0540904"><ele>364.33333333333337</ele><time>2026-04-25T10:20:09.279Z</time></trkpt><trkpt lat="41.5313419" lon="13.0541698"><ele>363.6666666666667</ele><time>2026-04-25T10:20:10.279Z</time></trkpt><trkpt lat="41.5311312" lon="13.0542485"><ele>363.0</ele><time>2026-04-25T10:20:11.288Z</time></trkpt><trkpt lat="41.5309218" lon="13.0543272"><ele>363.0</ele><time>2026-04-25T10:20:12.278Z</time></trkpt><trkpt lat="41.5307136" lon="13.0544036"><ele>363.0</ele><time>2026-04-25T10:20:13.285Z</time></trkpt><trkpt lat="41.5305041" lon="13.0544787"><ele>363.0</ele><time>2026-04-25T10:20:14.289Z</time></trkpt><trkpt lat="41.5302987" lon="13.0545471"><ele>360.6666666666667</ele><time>2026-04-25T10:20:15.28Z</time></trkpt><trkpt lat="41.530105" lon="13.0546095"><ele>358.33333333333337</ele><time>2026-04-25T10:20:16.284Z</time></trkpt><trkpt lat="41.5299166" lon="13.0546759"><ele>356.0</ele><time>2026-04-25T10:20:17.287Z</time></trkpt><trkpt lat="41.5297332" lon="13.0547581"><ele>356.33333333333337</ele><time>2026-04-25T10:20:18.288Z</time></trkpt><trkpt lat="41.5295575" lon="13.0548401"><ele>356.6666666666667</ele><time>2026-04-25T10:20:19.287Z</time></trkpt><trkpt lat="41.5293928" lon="13.0549231"><ele>357.0</ele><time>2026-04-25T10:20:20.289Z</time></trkpt><trkpt lat="41.5292403" lon="13.0550226"><ele>357.0</ele><time>2026-04-25T10:20:21.288Z</time></trkpt><trkpt lat="41.5290744" lon="13.0551671"><ele>357.0</ele><time>2026-04-25T10:20:22.286Z</time></trkpt><trkpt lat="41.5289184" lon="13.055326"><ele>357.0</ele><time>2026-04-25T10:20:23.287Z</time></trkpt><trkpt lat="41.5287834" lon="13.0554881"><ele>355.3333333333333</ele><time>2026-04-25T10:20:24.284Z</time></trkpt><trkpt lat="41.5286643" lon="13.0556612"><ele>353.66666666666663</ele><time>2026-04-25T10:20:25.287Z</time></trkpt><trkpt lat="41.5285635" lon="13.0558193"><ele>352.0</ele><time>2026-04-25T10:20:26.287Z</time></trkpt><trkpt lat="41.5284719" lon="13.0559834"><ele>352.0</ele><time>2026-04-25T10:20:27.286Z</time></trkpt><trkpt lat="41.5283687" lon="13.0561666"><ele>352.0</ele><time>2026-04-25T10:20:28.288Z</time></trkpt><trkpt lat="41.5282543" lon="13.0563799"><ele>352.0</ele><time>2026-04-25T10:20:29.287Z</time></trkpt><trkpt lat="41.5281378" lon="13.0566177"><ele>351.3333333333333</ele><time>2026-04-25T10:20:30.289Z</time></trkpt><trkpt lat="41.5280257" lon="13.0568604"><ele>350.6666666666667</ele><time>2026-04-25T10:20:31.288Z</time></trkpt><trkpt lat="41.5279146" lon="13.0571002"><ele>350.0</ele><time>2026-04-25T10:20:32.288Z</time></trkpt><trkpt lat="41.5277925" lon="13.0573245"><ele>348.6666666666667</ele><time>2026-04-25T10:20:33.29Z</time></trkpt><trkpt lat="41.5276623" lon="13.0575482"><ele>347.3333333333333</ele><time>2026-04-25T10:20:34.296Z</time></trkpt><trkpt lat="41.527519" lon="13.0577645"><ele>346.0</ele><time>2026-04-25T10:20:35.287Z</time></trkpt><trkpt lat="41.5273691" lon="13.0579732"><ele>346.0</ele><time>2026-04-25T10:20:36.285Z</time></trkpt><trkpt lat="41.5272256" lon="13.0581778"><ele>346.0</ele><time>2026-04-25T10:20:37.279Z</time></trkpt><trkpt lat="41.5270874" lon="13.058363"><ele>346.0</ele><time>2026-04-25T10:20:38.278Z</time></trkpt><trkpt lat="41.5269586" lon="13.0585386"><ele>345.0</ele><time>2026-04-25T10:20:39.285Z</time></trkpt><trkpt lat="41.5268405" lon="13.0586875"><ele>344.0</ele><time>2026-04-25T10:20:40.277Z</time></trkpt><trkpt lat="41.5267237" lon="13.0588249"><ele>343.0</ele><time>2026-04-25T10:20:41.287Z</time></trkpt><trkpt lat="41.5266085" lon="13.0589354"><ele>343.0</ele><time>2026-04-25T10:20:42.279Z</time></trkpt><trkpt lat="41.5264791" lon="13.0590284"><ele>343.0</ele><time>2026-04-25T10:20:43.278Z</time></trkpt><trkpt lat="41.5263497" lon="13.0591018"><ele>343.0</ele><time>2026-04-25T10:20:44.28Z</time></trkpt><trkpt lat="41.5262292" lon="13.0591673"><ele>343.0</ele><time>2026-04-25T10:20:45.279Z</time></trkpt><trkpt lat="41.5261162" lon="13.0592349"><ele>341.4</ele><time>2026-04-25T10:20:46.279Z</time></trkpt><trkpt lat="41.5260119" lon="13.0593059"><ele>339.79999999999995</ele><time>2026-04-25T10:20:47.284Z</time></trkpt><trkpt lat="41.5259199" lon="13.0593703"><ele>338.2</ele><time>2026-04-25T10:20:48.284Z</time></trkpt><trkpt lat="41.5258453" lon="13.0594516"><ele>336.6</ele><time>2026-04-25T10:20:49.278Z</time></trkpt><trkpt lat="41.525789" lon="13.0595345"><ele>335.0</ele><time>2026-04-25T10:20:50.285Z</time></trkpt><trkpt lat="41.5257643" lon="13.059639"><ele>335.0</ele><time>2026-04-25T10:20:51.277Z</time></trkpt><trkpt lat="41.5257684" lon="13.0597699"><ele>335.0</ele><time>2026-04-25T10:20:52.276Z</time></trkpt><trkpt lat="41.5257942" lon="13.059916"><ele>335.0</ele><time>2026-04-25T10:20:53.279Z</time></trkpt><trkpt lat="41.5258366" lon="13.0600569"><ele>335.0</ele><time>2026-04-25T10:20:54.276Z</time></trkpt><trkpt lat="41.525899" lon="13.0601689"><ele>335.0</ele><time>2026-04-25T10:20:55.281Z</time></trkpt><trkpt lat="41.5259665" lon="13.0602742"><ele>334.8</ele><time>2026-04-25T10:20:56.281Z</time></trkpt><trkpt lat="41.5260337" lon="13.0603744"><ele>334.6</ele><time>2026-04-25T10:20:57.285Z</time></trkpt><trkpt lat="41.5260872" lon="13.0604675"><ele>334.4</ele><time>2026-04-25T10:20:58.282Z</time></trkpt><trkpt lat="41.5261169" lon="13.0605787"><ele>334.2</ele><time>2026-04-25T10:20:59.279Z</time></trkpt><trkpt lat="41.5261026" lon="13.0607058"><ele>334.0</ele><time>2026-04-25T10:21:00.278Z</time></trkpt><trkpt lat="41.5260437" lon="13.0608397"><ele>332.66666666666663</ele><time>2026-04-25T10:21:01.289Z</time></trkpt><trkpt lat="41.5259667" lon="13.0609955"><ele>331.3333333333333</ele><time>2026-04-25T10:21:02.28Z</time></trkpt><trkpt lat="41.5258781" lon="13.0611826"><ele>330.0</ele><time>2026-04-25T10:21:03.288Z</time></trkpt><trkpt lat="41.5257845" lon="13.0613794"><ele>330.0</ele><time>2026-04-25T10:21:04.28Z</time></trkpt><trkpt lat="41.5256953" lon="13.0615732"><ele>330.0</ele><time>2026-04-25T10:21:05.287Z</time></trkpt><trkpt lat="41.5256145" lon="13.0617449"><ele>330.0</ele><time>2026-04-25T10:21:06.28Z</time></trkpt><trkpt lat="41.5255385" lon="13.0618965"><ele>329.4</ele><time>2026-04-25T10:21:07.279Z</time></trkpt><trkpt lat="41.5254647" lon="13.0620206"><ele>328.8</ele><time>2026-04-25T10:21:08.289Z</time></trkpt><trkpt lat="41.5253814" lon="13.0621172"><ele>328.20000000000005</ele><time>2026-04-25T10:21:09.281Z</time></trkpt><trkpt lat="41.525295" lon="13.0621833"><ele>327.6</ele><time>2026-04-25T10:21:10.285Z</time></trkpt><trkpt lat="41.5252088" lon="13.0622087"><ele>327.0</ele><time>2026-04-25T10:21:11.278Z</time></trkpt><trkpt lat="41.5251262" lon="13.0622219"><ele>326.0</ele><time>2026-04-25T10:21:12.283Z</time></trkpt><trkpt lat="41.5250442" lon="13.0622182"><ele>325.0</ele><time>2026-04-25T10:21:13.277Z</time></trkpt><trkpt lat="41.5249567" lon="13.0622086"><ele>324.0</ele><time>2026-04-25T10:21:14.281Z</time></trkpt><trkpt lat="41.524864" lon="13.0621939"><ele>323.0</ele><time>2026-04-25T10:21:15.288Z</time></trkpt><trkpt lat="41.5247624" lon="13.062181"><ele>322.0</ele><time>2026-04-25T10:21:16.288Z</time></trkpt><trkpt lat="41.5246528" lon="13.0621775"><ele>320.0</ele><time>2026-04-25T10:21:17.29Z</time></trkpt><trkpt lat="41.5245278" lon="13.0621782"><ele>318.0</ele><time>2026-04-25T10:21:18.282Z</time></trkpt><trkpt lat="41.5244071" lon="13.0621856"><ele>316.0</ele><time>2026-04-25T10:21:19.279Z</time></trkpt><trkpt lat="41.5242816" lon="13.0622022"><ele>314.0</ele><time>2026-04-25T10:21:20.292Z</time></trkpt><trkpt lat="41.5241504" lon="13.0622325"><ele>314.0</ele><time>2026-04-25T10:21:21.28Z</time></trkpt><trkpt lat="41.5240183" lon="13.0622607"><ele>314.0</ele><time>2026-04-25T10:21:22.289Z</time></trkpt><trkpt lat="41.5238837" lon="13.0622988"><ele>314.0</ele><time>2026-04-25T10:21:23.281Z</time></trkpt><trkpt lat="41.5237396" lon="13.0623463"><ele>314.0</ele><time>2026-04-25T10:21:24.288Z</time></trkpt><trkpt lat="41.5235946" lon="13.0623966"><ele>314.25</ele><time>2026-04-25T10:21:25.292Z</time></trkpt><trkpt lat="41.5234575" lon="13.0624481"><ele>314.5</ele><time>2026-04-25T10:21:26.287Z</time></trkpt><trkpt lat="41.5233221" lon="13.0625002"><ele>314.75</ele><time>2026-04-25T10:21:27.292Z</time></trkpt><trkpt lat="41.5232011" lon="13.0625487"><ele>315.0</ele><time>2026-04-25T10:21:28.282Z</time></trkpt><trkpt lat="41.5230858" lon="13.0625882"><ele>315.0</ele><time>2026-04-25T10:21:29.293Z</time></trkpt><trkpt lat="41.5229741" lon="13.0626352"><ele>315.0</ele><time>2026-04-25T10:21:30.28Z</time></trkpt><trkpt lat="41.5228684" lon="13.0626672"><ele>315.0</ele><time>2026-04-25T10:21:31.284Z</time></trkpt><trkpt lat="41.5227618" lon="13.0626975"><ele>315.0</ele><time>2026-04-25T10:21:32.288Z</time></trkpt><trkpt lat="41.5226404" lon="13.0627238"><ele>314.25</ele><time>2026-04-25T10:21:33.281Z</time></trkpt><trkpt lat="41.5225152" lon="13.0627343"><ele>313.5</ele><time>2026-04-25T10:21:34.282Z</time></trkpt><trkpt lat="41.5223873" lon="13.0627248"><ele>312.75</ele><time>2026-04-25T10:21:35.281Z</time></trkpt><trkpt lat="41.5222599" lon="13.0627118"><ele>312.0</ele><time>2026-04-25T10:21:36.294Z</time></trkpt><trkpt lat="41.5221193" lon="13.0626972"><ele>312.0</ele><time>2026-04-25T10:21:37.29Z</time></trkpt><trkpt lat="41.5219676" lon="13.0627126"><ele>312.0</ele><time>2026-04-25T10:21:38.28Z</time></trkpt><trkpt lat="41.5218166" lon="13.0627336"><ele>312.0</ele><time>2026-04-25T10:21:39.289Z</time></trkpt><trkpt lat="41.5216655" lon="13.0627422"><ele>312.0</ele><time>2026-04-25T10:21:40.283Z</time></trkpt><trkpt lat="41.5215133" lon="13.0627628"><ele>312.0</ele><time>2026-04-25T10:21:41.288Z</time></trkpt><trkpt lat="41.5213527" lon="13.0627773"><ele>312.0</ele><time>2026-04-25T10:21:42.275Z</time></trkpt><trkpt lat="41.5211794" lon="13.062784"><ele>309.5</ele><time>2026-04-25T10:21:43.401Z</time></trkpt><trkpt lat="41.5208326" lon="13.0628283"><ele>307.0</ele><time>2026-04-25T10:21:45.294Z</time></trkpt><trkpt lat="41.5206681" lon="13.0628502"><ele>307.0</ele><time>2026-04-25T10:21:46.279Z</time></trkpt><trkpt lat="41.5205104" lon="13.0628772"><ele>307.0</ele><time>2026-04-25T10:21:47.288Z</time></trkpt><trkpt lat="41.5203585" lon="13.0629001"><ele>307.0</ele><time>2026-04-25T10:21:48.277Z</time></trkpt><trkpt lat="41.5202133" lon="13.0629291"><ele>305.5</ele><time>2026-04-25T10:21:49.286Z</time></trkpt><trkpt lat="41.5200643" lon="13.0629588"><ele>304.0</ele><time>2026-04-25T10:21:50.274Z</time></trkpt><trkpt lat="41.5199233" lon="13.0629657"><ele>302.5</ele><time>2026-04-25T10:21:51.277Z</time></trkpt><trkpt lat="41.5197885" lon="13.0629655"><ele>301.0</ele><time>2026-04-25T10:21:52.278Z</time></trkpt><trkpt lat="41.5196504" lon="13.0629608"><ele>299.75</ele><time>2026-04-25T10:21:53.276Z</time></trkpt><trkpt lat="41.5195184" lon="13.0629402"><ele>298.5</ele><time>2026-04-25T10:21:54.284Z</time></trkpt><trkpt lat="41.5193945" lon="13.0629153"><ele>297.25</ele><time>2026-04-25T10:21:55.278Z</time></trkpt><trkpt lat="41.5192701" lon="13.0628841"><ele>296.0</ele><time>2026-04-25T10:21:56.28Z</time></trkpt><trkpt lat="41.5191492" lon="13.0628403"><ele>296.0</ele><time>2026-04-25T10:21:57.276Z</time></trkpt><trkpt lat="41.5190276" lon="13.0627777"><ele>296.0</ele><time>2026-04-25T10:21:58.28Z</time></trkpt><trkpt lat="41.518907" lon="13.0627052"><ele>296.0</ele><time>2026-04-25T10:21:59.277Z</time></trkpt><trkpt lat="41.5187834" lon="13.0626476"><ele>296.0</ele><time>2026-04-25T10:22:00.285Z</time></trkpt><trkpt lat="41.5186596" lon="13.0626062"><ele>295.2</ele><time>2026-04-25T10:22:01.283Z</time></trkpt><trkpt lat="41.5185376" lon="13.0625785"><ele>294.40000000000003</ele><time>2026-04-25T10:22:02.271Z</time></trkpt><trkpt lat="41.5184245" lon="13.0625661"><ele>293.6</ele><time>2026-04-25T10:22:03.277Z</time></trkpt><trkpt lat="41.5183218" lon="13.0625635"><ele>292.8</ele><time>2026-04-25T10:22:04.283Z</time></trkpt><trkpt lat="41.5182234" lon="13.0625669"><ele>292.0</ele><time>2026-04-25T10:22:05.279Z</time></trkpt><trkpt lat="41.5181247" lon="13.0625711"><ele>292.0</ele><time>2026-04-25T10:22:06.278Z</time></trkpt><trkpt lat="41.5180318" lon="13.0625712"><ele>292.0</ele><time>2026-04-25T10:22:07.275Z</time></trkpt><trkpt lat="41.517927" lon="13.0625803"><ele>292.0</ele><time>2026-04-25T10:22:08.275Z</time></trkpt><trkpt lat="41.5178236" lon="13.0625644"><ele>292.0</ele><time>2026-04-25T10:22:09.28Z</time></trkpt><trkpt lat="41.5177237" lon="13.0625279"><ele>292.0</ele><time>2026-04-25T10:22:10.275Z</time></trkpt><trkpt lat="41.5176255" lon="13.0624796"><ele>292.0</ele><time>2026-04-25T10:22:11.273Z</time></trkpt><trkpt lat="41.5175335" lon="13.0624134"><ele>292.0</ele><time>2026-04-25T10:22:12.281Z</time></trkpt><trkpt lat="41.5174375" lon="13.0623474"><ele>292.0</ele><time>2026-04-25T10:22:13.277Z</time></trkpt><trkpt lat="41.5173391" lon="13.0622846"><ele>292.0</ele><time>2026-04-25T10:22:14.278Z</time></trkpt><trkpt lat="41.5172332" lon="13.0622283"><ele>292.0</ele><time>2026-04-25T10:22:15.277Z</time></trkpt><trkpt lat="41.5171264" lon="13.0621785"><ele>291.4</ele><time>2026-04-25T10:22:16.28Z</time></trkpt><trkpt lat="41.5170197" lon="13.062132"><ele>290.79999999999995</ele><time>2026-04-25T10:22:17.278Z</time></trkpt><trkpt lat="41.5169184" lon="13.0621025"><ele>290.2</ele><time>2026-04-25T10:22:18.277Z</time></trkpt><trkpt lat="41.5168208" lon="13.0621022"><ele>289.59999999999997</ele><time>2026-04-25T10:22:19.279Z</time></trkpt><trkpt lat="41.5167226" lon="13.0621375"><ele>289.0</ele><time>2026-04-25T10:22:20.276Z</time></trkpt><trkpt lat="41.5166114" lon="13.0622048"><ele>289.0</ele><time>2026-04-25T10:22:21.279Z</time></trkpt><trkpt lat="41.5164956" lon="13.0622697"><ele>289.0</ele><time>2026-04-25T10:22:22.282Z</time></trkpt><trkpt lat="41.516383" lon="13.0623234"><ele>289.0</ele><time>2026-04-25T10:22:23.284Z</time></trkpt><trkpt lat="41.5162724" lon="13.0623715"><ele>289.0</ele><time>2026-04-25T10:22:24.29Z</time></trkpt><trkpt lat="41.5161602" lon="13.0624123"><ele>287.0</ele><time>2026-04-25T10:22:25.287Z</time></trkpt><trkpt lat="41.516056" lon="13.0624479"><ele>285.0</ele><time>2026-04-25T10:22:26.278Z</time></trkpt><trkpt lat="41.5159557" lon="13.0624837"><ele>283.0</ele><time>2026-04-25T10:22:27.273Z</time></trkpt><trkpt lat="41.5158549" lon="13.0625253"><ele>281.0</ele><time>2026-04-25T10:22:28.277Z</time></trkpt><trkpt lat="41.5157585" lon="13.0625689"><ele>279.0</ele><time>2026-04-25T10:22:29.279Z</time></trkpt><trkpt lat="41.51566" lon="13.0626209"><ele>279.0</ele><time>2026-04-25T10:22:30.275Z</time></trkpt><trkpt lat="41.5155582" lon="13.0626745"><ele>279.0</ele><time>2026-04-25T10:22:31.274Z</time></trkpt><trkpt lat="41.5154592" lon="13.0627301"><ele>279.0</ele><time>2026-04-25T10:22:32.275Z</time></trkpt><trkpt lat="41.5153654" lon="13.0627909"><ele>279.0</ele><time>2026-04-25T10:22:33.276Z</time></trkpt><trkpt lat="41.5152726" lon="13.0628154"><ele>279.0</ele><time>2026-04-25T10:22:34.278Z</time></trkpt><trkpt lat="41.5151874" lon="13.0628101"><ele>277.8333333333333</ele><time>2026-04-25T10:22:35.287Z</time></trkpt><trkpt lat="41.5151087" lon="13.0627936"><ele>276.6666666666667</ele><time>2026-04-25T10:22:36.287Z</time></trkpt><trkpt lat="41.5150312" lon="13.0627599"><ele>275.5</ele><time>2026-04-25T10:22:37.285Z</time></trkpt><trkpt lat="41.5149538" lon="13.0627335"><ele>274.33333333333337</ele><time>2026-04-25T10:22:38.278Z</time></trkpt><trkpt lat="41.5148722" lon="13.062735"><ele>273.1666666666667</ele><time>2026-04-25T10:22:39.277Z</time></trkpt><trkpt lat="41.5147903" lon="13.062768"><ele>272.0</ele><time>2026-04-25T10:22:40.277Z</time></trkpt><trkpt lat="41.5147083" lon="13.0628208"><ele>272.0</ele><time>2026-04-25T10:22:41.279Z</time></trkpt><trkpt lat="41.5146263" lon="13.0628822"><ele>272.0</ele><time>2026-04-25T10:22:42.282Z</time></trkpt><trkpt lat="41.5145455" lon="13.062941"><ele>272.0</ele><time>2026-04-25T10:22:43.279Z</time></trkpt><trkpt lat="41.5144701" lon="13.063001"><ele>272.0</ele><time>2026-04-25T10:22:44.278Z</time></trkpt><trkpt lat="41.5143899" lon="13.0630646"><ele>272.0</ele><time>2026-04-25T10:22:45.281Z</time></trkpt><trkpt lat="41.5143033" lon="13.0631311"><ele>271.6</ele><time>2026-04-25T10:22:46.279Z</time></trkpt><trkpt lat="41.5142103" lon="13.0631901"><ele>271.2</ele><time>2026-04-25T10:22:47.281Z</time></trkpt><trkpt lat="41.5141088" lon="13.0632373"><ele>270.8</ele><time>2026-04-25T10:22:48.28Z</time></trkpt><trkpt lat="41.514" lon="13.0632817"><ele>270.4</ele><time>2026-04-25T10:22:49.281Z</time></trkpt><trkpt lat="41.513887" lon="13.0633277"><ele>270.0</ele><time>2026-04-25T10:22:50.278Z</time></trkpt><trkpt lat="41.5137705" lon="13.0633746"><ele>269.25</ele><time>2026-04-25T10:22:51.281Z</time></trkpt><trkpt lat="41.5136501" lon="13.0634176"><ele>268.5</ele><time>2026-04-25T10:22:52.279Z</time></trkpt><trkpt lat="41.5135246" lon="13.0634624"><ele>267.75</ele><time>2026-04-25T10:22:53.287Z</time></trkpt><trkpt lat="41.5134066" lon="13.063508"><ele>267.0</ele><time>2026-04-25T10:22:54.279Z</time></trkpt><trkpt lat="41.5132873" lon="13.0635518"><ele>267.0</ele><time>2026-04-25T10:22:55.29Z</time></trkpt><trkpt lat="41.5131709" lon="13.0635875"><ele>267.0</ele><time>2026-04-25T10:22:56.28Z</time></trkpt><trkpt lat="41.5130535" lon="13.0636341"><ele>267.0</ele><time>2026-04-25T10:22:57.29Z</time></trkpt><trkpt lat="41.5129343" lon="13.0636837"><ele>267.0</ele><time>2026-04-25T10:22:58.286Z</time></trkpt><trkpt lat="41.5128197" lon="13.0637402"><ele>264.75</ele><time>2026-04-25T10:22:59.291Z</time></trkpt><trkpt lat="41.5126968" lon="13.0638025"><ele>262.5</ele><time>2026-04-25T10:23:00.279Z</time></trkpt><trkpt lat="41.5125722" lon="13.0638591"><ele>260.25</ele><time>2026-04-25T10:23:01.282Z</time></trkpt><trkpt lat="41.5124415" lon="13.0639"><ele>258.0</ele><time>2026-04-25T10:23:02.277Z</time></trkpt><trkpt lat="41.5123066" lon="13.0639358"><ele>258.0</ele><time>2026-04-25T10:23:03.284Z</time></trkpt><trkpt lat="41.5121723" lon="13.0639723"><ele>258.0</ele><time>2026-04-25T10:23:04.281Z</time></trkpt><trkpt lat="41.5120372" lon="13.0640051"><ele>258.0</ele><time>2026-04-25T10:23:05.279Z</time></trkpt><trkpt lat="41.5119062" lon="13.0640288"><ele>258.0</ele><time>2026-04-25T10:23:06.281Z</time></trkpt><trkpt lat="41.5117722" lon="13.0640521"><ele>256.25</ele><time>2026-04-25T10:23:07.281Z</time></trkpt><trkpt lat="41.5116406" lon="13.0640648"><ele>254.5</ele><time>2026-04-25T10:23:08.281Z</time></trkpt><trkpt lat="41.5115151" lon="13.0640709"><ele>252.75</ele><time>2026-04-25T10:23:09.285Z</time></trkpt><trkpt lat="41.5113917" lon="13.0640705"><ele>251.0</ele><time>2026-04-25T10:23:10.28Z</time></trkpt><trkpt lat="41.5112658" lon="13.0640745"><ele>249.75</ele><time>2026-04-25T10:23:11.279Z</time></trkpt><trkpt lat="41.511142" lon="13.0640767"><ele>248.5</ele><time>2026-04-25T10:23:12.274Z</time></trkpt><trkpt lat="41.5110192" lon="13.0640763"><ele>247.25</ele><time>2026-04-25T10:23:13.282Z</time></trkpt><trkpt lat="41.5109019" lon="13.0640664"><ele>246.0</ele><time>2026-04-25T10:23:14.281Z</time></trkpt><trkpt lat="41.510786" lon="13.0640507"><ele>246.0</ele><time>2026-04-25T10:23:15.283Z</time></trkpt><trkpt lat="41.5106737" lon="13.0640373"><ele>246.0</ele><time>2026-04-25T10:23:16.288Z</time></trkpt><trkpt lat="41.5105563" lon="13.0640204"><ele>246.0</ele><time>2026-04-25T10:23:17.283Z</time></trkpt><trkpt lat="41.5104404" lon="13.0640065"><ele>246.0</ele><time>2026-04-25T10:23:18.281Z</time></trkpt><trkpt lat="41.5103253" lon="13.0639932"><ele>244.25</ele><time>2026-04-25T10:23:19.281Z</time></trkpt><trkpt lat="41.5102128" lon="13.0639815"><ele>242.5</ele><time>2026-04-25T10:23:20.278Z</time></trkpt><trkpt lat="41.510097" lon="13.0639692"><ele>240.75</ele><time>2026-04-25T10:23:21.285Z</time></trkpt><trkpt lat="41.5099811" lon="13.0639571"><ele>239.0</ele><time>2026-04-25T10:23:22.29Z</time></trkpt><trkpt lat="41.5098653" lon="13.0639193"><ele>239.0</ele><time>2026-04-25T10:23:23.292Z</time></trkpt><trkpt lat="41.5097522" lon="13.0638668"><ele>239.0</ele><time>2026-04-25T10:23:24.282Z</time></trkpt><trkpt lat="41.5096409" lon="13.0638033"><ele>239.0</ele><time>2026-04-25T10:23:25.29Z</time></trkpt><trkpt lat="41.5095273" lon="13.0637326"><ele>239.0</ele><time>2026-04-25T10:23:26.279Z</time></trkpt><trkpt lat="41.5094123" lon="13.0636565"><ele>237.75</ele><time>2026-04-25T10:23:27.29Z</time></trkpt><trkpt lat="41.5092908" lon="13.0635788"><ele>236.5</ele><time>2026-04-25T10:23:28.278Z</time></trkpt><trkpt lat="41.5091648" lon="13.063503"><ele>235.25</ele><time>2026-04-25T10:23:29.281Z</time></trkpt><trkpt lat="41.5090322" lon="13.063431"><ele>234.0</ele><time>2026-04-25T10:23:30.278Z</time></trkpt><trkpt lat="41.5088905" lon="13.0633588"><ele>234.0</ele><time>2026-04-25T10:23:31.289Z</time></trkpt><trkpt lat="41.5087464" lon="13.0632857"><ele>234.0</ele><time>2026-04-25T10:23:32.274Z</time></trkpt><trkpt lat="41.5086016" lon="13.063213"><ele>234.0</ele><time>2026-04-25T10:23:33.289Z</time></trkpt><trkpt lat="41.5084552" lon="13.0631418"><ele>233.33333333333331</ele><time>2026-04-25T10:23:34.29Z</time></trkpt><trkpt lat="41.5083043" lon="13.0630853"><ele>232.66666666666666</ele><time>2026-04-25T10:23:35.284Z</time></trkpt><trkpt lat="41.5081521" lon="13.0630494"><ele>232.0</ele><time>2026-04-25T10:23:36.28Z</time></trkpt><trkpt lat="41.5079957" lon="13.0630345"><ele>230.25</ele><time>2026-04-25T10:23:37.279Z</time></trkpt><trkpt lat="41.5078419" lon="13.0630362"><ele>228.5</ele><time>2026-04-25T10:23:38.289Z</time></trkpt><trkpt lat="41.5076922" lon="13.063048"><ele>226.75</ele><time>2026-04-25T10:23:39.287Z</time></trkpt><trkpt lat="41.5075558" lon="13.0630644"><ele>225.0</ele><time>2026-04-25T10:23:40.29Z</time></trkpt><trkpt lat="41.5074307" lon="13.0630652"><ele>225.0</ele><time>2026-04-25T10:23:41.291Z</time></trkpt><trkpt lat="41.5073303" lon="13.0630607"><ele>225.0</ele><time>2026-04-25T10:23:42.275Z</time></trkpt><trkpt lat="41.507248" lon="13.0630723"><ele>225.0</ele><time>2026-04-25T10:23:43.282Z</time></trkpt><trkpt lat="41.5071733" lon="13.0631029"><ele>225.0</ele><time>2026-04-25T10:23:44.29Z</time></trkpt><trkpt lat="41.5071132" lon="13.0631558"><ele>225.0</ele><time>2026-04-25T10:23:45.287Z</time></trkpt><trkpt lat="41.5070672" lon="13.0632192"><ele>225.0</ele><time>2026-04-25T10:23:46.288Z</time></trkpt><trkpt lat="41.5070419" lon="13.0633026"><ele>224.0</ele><time>2026-04-25T10:23:47.279Z</time></trkpt><trkpt lat="41.5070276" lon="13.0633904"><ele>223.0</ele><time>2026-04-25T10:23:48.28Z</time></trkpt><trkpt lat="41.5070151" lon="13.0634948"><ele>222.0</ele><time>2026-04-25T10:23:49.279Z</time></trkpt><trkpt lat="41.5070034" lon="13.063606"><ele>221.0</ele><time>2026-04-25T10:23:50.278Z</time></trkpt><trkpt lat="41.5069881" lon="13.0637127"><ele>220.0</ele><time>2026-04-25T10:23:51.278Z</time></trkpt><trkpt lat="41.506974" lon="13.0638212"><ele>219.0</ele><time>2026-04-25T10:23:52.288Z</time></trkpt><trkpt lat="41.5069573" lon="13.0639214"><ele>219.0</ele><time>2026-04-25T10:23:53.282Z</time></trkpt><trkpt lat="41.5069395" lon="13.0640099"><ele>218.99999999999997</ele><time>2026-04-25T10:23:54.287Z</time></trkpt><trkpt lat="41.5069116" lon="13.0640865"><ele>218.99999999999997</ele><time>2026-04-25T10:23:55.279Z</time></trkpt><trkpt lat="41.5068182" lon="13.0641918"><ele>219.0</ele><time>2026-04-25T10:23:57.281Z</time></trkpt><trkpt lat="41.5067094" lon="13.0642069"><ele>219.0</ele><time>2026-04-25T10:23:59.279Z</time></trkpt><trkpt lat="41.5066209" lon="13.0641765"><ele>219.0</ele><time>2026-04-25T10:24:01.282Z</time></trkpt><trkpt lat="41.5065439" lon="13.0641382"><ele>218.99999999999997</ele><time>2026-04-25T10:24:03.283Z</time></trkpt><trkpt lat="41.5064637" lon="13.0640996"><ele>218.99999999999997</ele><time>2026-04-25T10:24:05.285Z</time></trkpt><trkpt lat="41.5063559" lon="13.0640351"><ele>219.0</ele><time>2026-04-25T10:24:07.278Z</time></trkpt><trkpt lat="41.5062643" lon="13.0639776"><ele>219.0</ele><time>2026-04-25T10:24:09.275Z</time></trkpt><trkpt lat="41.5061836" lon="13.0639334"><ele>219.0</ele><time>2026-04-25T10:24:11.287Z</time></trkpt><trkpt lat="41.5060988" lon="13.0638852"><ele>218.99999999999997</ele><time>2026-04-25T10:24:13.287Z</time></trkpt><trkpt lat="41.5060127" lon="13.0638554"><ele>218.99999999999997</ele><time>2026-04-25T10:24:15.289Z</time></trkpt><trkpt lat="41.5059362" lon="13.0639162"><ele>219.0</ele><time>2026-04-25T10:24:17.289Z</time></trkpt><trkpt lat="41.5059062" lon="13.0640728"><ele>219.0</ele><time>2026-04-25T10:24:19.281Z</time></trkpt><trkpt lat="41.5059032" lon="13.0641837"><ele>219.33333333333331</ele><time>2026-04-25T10:24:20.278Z</time></trkpt><trkpt lat="41.5059036" lon="13.0643158"><ele>219.66666666666666</ele><time>2026-04-25T10:24:21.39Z</time></trkpt><trkpt lat="41.5059194" lon="13.0646369"><ele>220.0</ele><time>2026-04-25T10:24:23.289Z</time></trkpt><trkpt lat="41.5059468" lon="13.0648227"><ele>219.66666666666666</ele><time>2026-04-25T10:24:24.289Z</time></trkpt><trkpt lat="41.505975" lon="13.0650426"><ele>219.33333333333331</ele><time>2026-04-25T10:24:25.289Z</time></trkpt><trkpt lat="41.5059955" lon="13.0652366"><ele>219.0</ele><time>2026-04-25T10:24:26.286Z</time></trkpt><trkpt lat="41.5060189" lon="13.0654269"><ele>219.0</ele><time>2026-04-25T10:24:27.288Z</time></trkpt><trkpt lat="41.5060377" lon="13.0656349"><ele>219.0</ele><time>2026-04-25T10:24:28.29Z</time></trkpt><trkpt lat="41.5060582" lon="13.0658357"><ele>219.0</ele><time>2026-04-25T10:24:29.287Z</time></trkpt><trkpt lat="41.5060808" lon="13.0660384"><ele>219.0</ele><time>2026-04-25T10:24:30.275Z</time></trkpt><trkpt lat="41.5061008" lon="13.0662564"><ele>219.0</ele><time>2026-04-25T10:24:31.28Z</time></trkpt><trkpt lat="41.5061128" lon="13.0664238"><ele>219.0</ele><time>2026-04-25T10:24:32.281Z</time></trkpt><trkpt lat="41.5061272" lon="13.0665578"><ele>219.0</ele><time>2026-04-25T10:24:33.289Z</time></trkpt><trkpt lat="41.506141" lon="13.066685"><ele>219.0</ele><time>2026-04-25T10:24:34.283Z</time></trkpt><trkpt lat="41.5061603" lon="13.0668414"><ele>219.0</ele><time>2026-04-25T10:24:35.288Z</time></trkpt><trkpt lat="41.5061886" lon="13.0670362"><ele>219.0</ele><time>2026-04-25T10:24:36.288Z</time></trkpt><trkpt lat="41.5062184" lon="13.0672744"><ele>219.0</ele><time>2026-04-25T10:24:37.276Z</time></trkpt><trkpt lat="41.5062565" lon="13.0675242"><ele>221.33333333333331</ele><time>2026-04-25T10:24:38.281Z</time></trkpt><trkpt lat="41.5062984" lon="13.0677573"><ele>223.66666666666666</ele><time>2026-04-25T10:24:39.275Z</time></trkpt><trkpt lat="41.5063374" lon="13.0679794"><ele>226.0</ele><time>2026-04-25T10:24:40.277Z</time></trkpt><trkpt lat="41.506376" lon="13.0681803"><ele>226.5</ele><time>2026-04-25T10:24:41.28Z</time></trkpt><trkpt lat="41.506404" lon="13.068359"><ele>227.0</ele><time>2026-04-25T10:24:42.277Z</time></trkpt><trkpt lat="41.5064157" lon="13.0685058"><ele>227.5</ele><time>2026-04-25T10:24:43.288Z</time></trkpt><trkpt lat="41.5064042" lon="13.0686435"><ele>228.0</ele><time>2026-04-25T10:24:44.278Z</time></trkpt><trkpt lat="41.5063552" lon="13.0687964"><ele>228.0</ele><time>2026-04-25T10:24:45.287Z</time></trkpt><trkpt lat="41.5062949" lon="13.0689339"><ele>228.0</ele><time>2026-04-25T10:24:46.281Z</time></trkpt><trkpt lat="41.5062353" lon="13.0690586"><ele>228.0</ele><time>2026-04-25T10:24:47.278Z</time></trkpt><trkpt lat="41.5061747" lon="13.0691621"><ele>228.0</ele><time>2026-04-25T10:24:48.276Z</time></trkpt><trkpt lat="41.5061145" lon="13.069236"><ele>228.0</ele><time>2026-04-25T10:24:49.279Z</time></trkpt><trkpt lat="41.5060547" lon="13.0693037"><ele>226.25</ele><time>2026-04-25T10:24:50.28Z</time></trkpt><trkpt lat="41.5059929" lon="13.0693933"><ele>224.5</ele><time>2026-04-25T10:24:51.288Z</time></trkpt><trkpt lat="41.5059285" lon="13.0695171"><ele>222.75</ele><time>2026-04-25T10:24:52.282Z</time></trkpt><trkpt lat="41.50585" lon="13.0696528"><ele>221.0</ele><time>2026-04-25T10:24:53.278Z</time></trkpt><trkpt lat="41.505748" lon="13.0697964"><ele>221.0</ele><time>2026-04-25T10:24:54.279Z</time></trkpt><trkpt lat="41.5056275" lon="13.0699409"><ele>221.0</ele><time>2026-04-25T10:24:55.29Z</time></trkpt><trkpt lat="41.5054989" lon="13.0700913"><ele>221.0</ele><time>2026-04-25T10:24:56.287Z</time></trkpt><trkpt lat="41.5053824" lon="13.070237"><ele>221.25</ele><time>2026-04-25T10:24:57.277Z</time></trkpt><trkpt lat="41.5052736" lon="13.070367"><ele>221.5</ele><time>2026-04-25T10:24:58.28Z</time></trkpt><trkpt lat="41.5051769" lon="13.0704867"><ele>221.75</ele><time>2026-04-25T10:24:59.28Z</time></trkpt><trkpt lat="41.5050887" lon="13.0705895"><ele>222.0</ele><time>2026-04-25T10:25:00.287Z</time></trkpt><trkpt lat="41.5050155" lon="13.0706904"><ele>222.2</ele><time>2026-04-25T10:25:01.281Z</time></trkpt><trkpt lat="41.5049644" lon="13.0707952"><ele>222.39999999999998</ele><time>2026-04-25T10:25:02.282Z</time></trkpt><trkpt lat="41.5049335" lon="13.0708976"><ele>222.60000000000002</ele><time>2026-04-25T10:25:03.279Z</time></trkpt><trkpt lat="41.5049298" lon="13.0710149"><ele>222.8</ele><time>2026-04-25T10:25:04.281Z</time></trkpt><trkpt lat="41.5049593" lon="13.0711349"><ele>223.0</ele><time>2026-04-25T10:25:05.28Z</time></trkpt><trkpt lat="41.5050076" lon="13.0712704"><ele>223.0</ele><time>2026-04-25T10:25:06.279Z</time></trkpt><trkpt lat="41.5050712" lon="13.071436"><ele>223.0</ele><time>2026-04-25T10:25:07.274Z</time></trkpt><trkpt lat="41.5051457" lon="13.071628"><ele>223.0</ele><time>2026-04-25T10:25:08.279Z</time></trkpt><trkpt lat="41.5052367" lon="13.0718473"><ele>223.0</ele><time>2026-04-25T10:25:09.282Z</time></trkpt><trkpt lat="41.5053433" lon="13.0720724"><ele>223.0</ele><time>2026-04-25T10:25:10.277Z</time></trkpt><trkpt lat="41.5054665" lon="13.0722908"><ele>223.0</ele><time>2026-04-25T10:25:11.278Z</time></trkpt><trkpt lat="41.5056043" lon="13.072498"><ele>224.33333333333331</ele><time>2026-04-25T10:25:12.278Z</time></trkpt><trkpt lat="41.505741" lon="13.072681"><ele>225.66666666666669</ele><time>2026-04-25T10:25:13.279Z</time></trkpt><trkpt lat="41.5058727" lon="13.0728361"><ele>227.0</ele><time>2026-04-25T10:25:14.281Z</time></trkpt><trkpt lat="41.5060057" lon="13.0729775"><ele>227.0</ele><time>2026-04-25T10:25:15.282Z</time></trkpt><trkpt lat="41.5061354" lon="13.0731152"><ele>227.0</ele><time>2026-04-25T10:25:16.277Z</time></trkpt><trkpt lat="41.5062572" lon="13.0732451"><ele>227.0</ele><time>2026-04-25T10:25:17.289Z</time></trkpt><trkpt lat="41.5063719" lon="13.0733638"><ele>226.33333333333334</ele><time>2026-04-25T10:25:18.279Z</time></trkpt><trkpt lat="41.5064801" lon="13.073499"><ele>225.66666666666669</ele><time>2026-04-25T10:25:19.281Z</time></trkpt><trkpt lat="41.5065808" lon="13.0736627"><ele>225.0</ele><time>2026-04-25T10:25:20.277Z</time></trkpt><trkpt lat="41.5066677" lon="13.0738429"><ele>225.0</ele><time>2026-04-25T10:25:21.276Z</time></trkpt><trkpt lat="41.5067409" lon="13.0740526"><ele>225.0</ele><time>2026-04-25T10:25:22.281Z</time></trkpt><trkpt lat="41.5068017" lon="13.0742867"><ele>225.0</ele><time>2026-04-25T10:25:23.288Z</time></trkpt><trkpt lat="41.5068526" lon="13.0745233"><ele>225.33333333333331</ele><time>2026-04-25T10:25:24.292Z</time></trkpt><trkpt lat="41.5068944" lon="13.0747572"><ele>225.66666666666666</ele><time>2026-04-25T10:25:25.286Z</time></trkpt><trkpt lat="41.5069364" lon="13.0749894"><ele>226.0</ele><time>2026-04-25T10:25:26.277Z</time></trkpt><trkpt lat="41.5069745" lon="13.0752163"><ele>227.0</ele><time>2026-04-25T10:25:27.28Z</time></trkpt><trkpt lat="41.5070096" lon="13.0754313"><ele>228.0</ele><time>2026-04-25T10:25:28.279Z</time></trkpt><trkpt lat="41.5070416" lon="13.0756326"><ele>229.0</ele><time>2026-04-25T10:25:29.282Z</time></trkpt><trkpt lat="41.5070734" lon="13.0758334"><ele>230.75</ele><time>2026-04-25T10:25:30.283Z</time></trkpt><trkpt lat="41.5071055" lon="13.0760277"><ele>232.5</ele><time>2026-04-25T10:25:31.282Z</time></trkpt><trkpt lat="41.5071387" lon="13.076223"><ele>234.25</ele><time>2026-04-25T10:25:32.288Z</time></trkpt><trkpt lat="41.5071825" lon="13.0764082"><ele>236.0</ele><time>2026-04-25T10:25:33.281Z</time></trkpt><trkpt lat="41.5072336" lon="13.0765867"><ele>237.25</ele><time>2026-04-25T10:25:34.285Z</time></trkpt><trkpt lat="41.5072904" lon="13.0767613"><ele>238.5</ele><time>2026-04-25T10:25:35.276Z</time></trkpt><trkpt lat="41.5073486" lon="13.0769317"><ele>239.75</ele><time>2026-04-25T10:25:36.281Z</time></trkpt><trkpt lat="41.5074075" lon="13.0771054"><ele>241.0</ele><time>2026-04-25T10:25:37.282Z</time></trkpt><trkpt lat="41.5074631" lon="13.0772697"><ele>241.0</ele><time>2026-04-25T10:25:38.284Z</time></trkpt><trkpt lat="41.5075144" lon="13.0774276"><ele>241.0</ele><time>2026-04-25T10:25:39.289Z</time></trkpt><trkpt lat="41.5075695" lon="13.0775906"><ele>241.0</ele><time>2026-04-25T10:25:40.275Z</time></trkpt><trkpt lat="41.5076253" lon="13.0777641"><ele>241.0</ele><time>2026-04-25T10:25:41.28Z</time></trkpt><trkpt lat="41.5076688" lon="13.077949"><ele>241.75</ele><time>2026-04-25T10:25:42.28Z</time></trkpt><trkpt lat="41.5077121" lon="13.0781357"><ele>242.5</ele><time>2026-04-25T10:25:43.288Z</time></trkpt><trkpt lat="41.5077494" lon="13.0783274"><ele>243.25</ele><time>2026-04-25T10:25:44.284Z</time></trkpt><trkpt lat="41.5077754" lon="13.0784887"><ele>244.0</ele><time>2026-04-25T10:25:45.282Z</time></trkpt><trkpt lat="41.5077942" lon="13.0786469"><ele>244.75</ele><time>2026-04-25T10:25:46.288Z</time></trkpt><trkpt lat="41.507801" lon="13.078796"><ele>245.5</ele><time>2026-04-25T10:25:47.281Z</time></trkpt><trkpt lat="41.5078027" lon="13.0789513"><ele>246.25</ele><time>2026-04-25T10:25:48.277Z</time></trkpt><trkpt lat="41.5077805" lon="13.0791025"><ele>247.0</ele><time>2026-04-25T10:25:49.29Z</time></trkpt><trkpt lat="41.5077436" lon="13.0792532"><ele>247.5</ele><time>2026-04-25T10:25:50.291Z</time></trkpt><trkpt lat="41.507714" lon="13.0794164"><ele>248.0</ele><time>2026-04-25T10:25:51.279Z</time></trkpt><trkpt lat="41.5077032" lon="13.0795986"><ele>248.5</ele><time>2026-04-25T10:25:52.286Z</time></trkpt><trkpt lat="41.5077024" lon="13.0797877"><ele>249.0</ele><time>2026-04-25T10:25:53.287Z</time></trkpt><trkpt lat="41.5077181" lon="13.0800002"><ele>249.66666666666669</ele><time>2026-04-25T10:25:54.28Z</time></trkpt><trkpt lat="41.5077362" lon="13.0802114"><ele>250.33333333333334</ele><time>2026-04-25T10:25:55.278Z</time></trkpt><trkpt lat="41.5077569" lon="13.0804644"><ele>251.0</ele><time>2026-04-25T10:25:56.279Z</time></trkpt><trkpt lat="41.5077772" lon="13.0807657"><ele>252.0</ele><time>2026-04-25T10:25:57.389Z</time></trkpt><trkpt lat="41.5078135" lon="13.0813985"><ele>253.0</ele><time>2026-04-25T10:25:59.277Z</time></trkpt><trkpt lat="41.5078354" lon="13.0816988"><ele>254.0</ele><time>2026-04-25T10:26:00.274Z</time></trkpt><trkpt lat="41.5078511" lon="13.0819873"><ele>255.0</ele><time>2026-04-25T10:26:01.278Z</time></trkpt><trkpt lat="41.5078635" lon="13.0822457"><ele>256.3333333333333</ele><time>2026-04-25T10:26:02.28Z</time></trkpt><trkpt lat="41.5078721" lon="13.0824951"><ele>257.66666666666663</ele><time>2026-04-25T10:26:03.273Z</time></trkpt><trkpt lat="41.5078723" lon="13.0827345"><ele>259.0</ele><time>2026-04-25T10:26:04.279Z</time></trkpt><trkpt lat="41.5078762" lon="13.0829789"><ele>259.0</ele><time>2026-04-25T10:26:05.28Z</time></trkpt><trkpt lat="41.507831" lon="13.0832007"><ele>259.0</ele><time>2026-04-25T10:26:06.284Z</time></trkpt><trkpt lat="41.5077969" lon="13.083421"><ele>259.0</ele><time>2026-04-25T10:26:07.282Z</time></trkpt><trkpt lat="41.507777" lon="13.0836385"><ele>259.66666666666663</ele><time>2026-04-25T10:26:08.281Z</time></trkpt><trkpt lat="41.5077769" lon="13.0838616"><ele>260.3333333333333</ele><time>2026-04-25T10:26:09.278Z</time></trkpt><trkpt lat="41.5078112" lon="13.0841107"><ele>261.0</ele><time>2026-04-25T10:26:10.283Z</time></trkpt><trkpt lat="41.5078314" lon="13.0843618"><ele>262.0</ele><time>2026-04-25T10:26:11.291Z</time></trkpt><trkpt lat="41.5078558" lon="13.084605"><ele>263.0</ele><time>2026-04-25T10:26:12.277Z</time></trkpt><trkpt lat="41.5078784" lon="13.0848274"><ele>264.0</ele><time>2026-04-25T10:26:13.282Z</time></trkpt><trkpt lat="41.507907" lon="13.0850475"><ele>265.6666666666667</ele><time>2026-04-25T10:26:14.282Z</time></trkpt><trkpt lat="41.5079549" lon="13.0852369"><ele>267.33333333333337</ele><time>2026-04-25T10:26:15.287Z</time></trkpt><trkpt lat="41.508018" lon="13.0854377"><ele>269.0</ele><time>2026-04-25T10:26:16.28Z</time></trkpt><trkpt lat="41.5081107" lon="13.0856214"><ele>269.6666666666667</ele><time>2026-04-25T10:26:17.281Z</time></trkpt><trkpt lat="41.50821" lon="13.0858176"><ele>270.3333333333333</ele><time>2026-04-25T10:26:18.28Z</time></trkpt><trkpt lat="41.5083068" lon="13.0860349"><ele>271.0</ele><time>2026-04-25T10:26:19.279Z</time></trkpt><trkpt lat="41.5084047" lon="13.0862814"><ele>271.0</ele><time>2026-04-25T10:26:20.29Z</time></trkpt><trkpt lat="41.5085027" lon="13.0865493"><ele>271.0</ele><time>2026-04-25T10:26:21.288Z</time></trkpt><trkpt lat="41.5085873" lon="13.0868102"><ele>271.0</ele><time>2026-04-25T10:26:22.29Z</time></trkpt><trkpt lat="41.5086577" lon="13.0870523"><ele>272.0</ele><time>2026-04-25T10:26:23.286Z</time></trkpt><trkpt lat="41.5087099" lon="13.0872683"><ele>273.0</ele><time>2026-04-25T10:26:24.285Z</time></trkpt><trkpt lat="41.5087587" lon="13.0874649"><ele>274.0</ele><time>2026-04-25T10:26:25.294Z</time></trkpt><trkpt lat="41.5088087" lon="13.0876488"><ele>275.5</ele><time>2026-04-25T10:26:26.291Z</time></trkpt><trkpt lat="41.5088633" lon="13.0878073"><ele>277.0</ele><time>2026-04-25T10:26:27.289Z</time></trkpt><trkpt lat="41.5089259" lon="13.0879459"><ele>278.5</ele><time>2026-04-25T10:26:28.281Z</time></trkpt><trkpt lat="41.5090077" lon="13.0880714"><ele>280.0</ele><time>2026-04-25T10:26:29.282Z</time></trkpt><trkpt lat="41.5091103" lon="13.0881873"><ele>280.25</ele><time>2026-04-25T10:26:30.279Z</time></trkpt><trkpt lat="41.5092156" lon="13.0882921"><ele>280.5</ele><time>2026-04-25T10:26:31.279Z</time></trkpt><trkpt lat="41.5093178" lon="13.0883888"><ele>280.75</ele><time>2026-04-25T10:26:32.282Z</time></trkpt><trkpt lat="41.5094232" lon="13.0884901"><ele>281.0</ele><time>2026-04-25T10:26:33.276Z</time></trkpt><trkpt lat="41.5095372" lon="13.0885859"><ele>281.5</ele><time>2026-04-25T10:26:34.274Z</time></trkpt><trkpt lat="41.5096532" lon="13.0886825"><ele>282.0</ele><time>2026-04-25T10:26:35.282Z</time></trkpt><trkpt lat="41.5097775" lon="13.0887768"><ele>282.5</ele><time>2026-04-25T10:26:36.283Z</time></trkpt><trkpt lat="41.5099015" lon="13.088864"><ele>283.0</ele><time>2026-04-25T10:26:37.282Z</time></trkpt><trkpt lat="41.5100265" lon="13.0889466"><ele>283.0</ele><time>2026-04-25T10:26:38.275Z</time></trkpt><trkpt lat="41.5101526" lon="13.0890348"><ele>283.0</ele><time>2026-04-25T10:26:39.284Z</time></trkpt><trkpt lat="41.5102845" lon="13.0891158"><ele>283.0</ele><time>2026-04-25T10:26:40.277Z</time></trkpt><trkpt lat="41.5104261" lon="13.0892064"><ele>283.0</ele><time>2026-04-25T10:26:41.292Z</time></trkpt><trkpt lat="41.5105707" lon="13.0892982"><ele>285.0</ele><time>2026-04-25T10:26:42.281Z</time></trkpt><trkpt lat="41.5107155" lon="13.0894007"><ele>287.0</ele><time>2026-04-25T10:26:43.282Z</time></trkpt><trkpt lat="41.5108632" lon="13.0895096"><ele>289.0</ele><time>2026-04-25T10:26:44.279Z</time></trkpt><trkpt lat="41.5110067" lon="13.0896427"><ele>289.0</ele><time>2026-04-25T10:26:45.29Z</time></trkpt><trkpt lat="41.5111426" lon="13.0897801"><ele>289.0</ele><time>2026-04-25T10:26:46.279Z</time></trkpt><trkpt lat="41.5112738" lon="13.0899248"><ele>289.0</ele><time>2026-04-25T10:26:47.282Z</time></trkpt><trkpt lat="41.5114002" lon="13.0900638"><ele>290.66666666666663</ele><time>2026-04-25T10:26:48.289Z</time></trkpt><trkpt lat="41.5115185" lon="13.0902032"><ele>292.3333333333333</ele><time>2026-04-25T10:26:49.283Z</time></trkpt><trkpt lat="41.5116358" lon="13.0903348"><ele>294.0</ele><time>2026-04-25T10:26:50.287Z</time></trkpt><trkpt lat="41.5117716" lon="13.0904593"><ele>294.0</ele><time>2026-04-25T10:26:51.289Z</time></trkpt><trkpt lat="41.5119194" lon="13.0905768"><ele>294.0</ele><time>2026-04-25T10:26:52.287Z</time></trkpt><trkpt lat="41.5120679" lon="13.0906779"><ele>294.0</ele><time>2026-04-25T10:26:53.291Z</time></trkpt><trkpt lat="41.5122027" lon="13.0907631"><ele>295.0</ele><time>2026-04-25T10:26:54.28Z</time></trkpt><trkpt lat="41.5123356" lon="13.0908521"><ele>296.0</ele><time>2026-04-25T10:26:55.29Z</time></trkpt><trkpt lat="41.5124728" lon="13.0909387"><ele>297.0</ele><time>2026-04-25T10:26:56.279Z</time></trkpt><trkpt lat="41.5126085" lon="13.0910187"><ele>298.0</ele><time>2026-04-25T10:26:57.293Z</time></trkpt><trkpt lat="41.5127361" lon="13.0911001"><ele>298.0</ele><time>2026-04-25T10:26:58.283Z</time></trkpt><trkpt lat="41.5128649" lon="13.0911835"><ele>298.0</ele><time>2026-04-25T10:26:59.278Z</time></trkpt><trkpt lat="41.5129894" lon="13.0912813"><ele>298.0</ele><time>2026-04-25T10:27:00.274Z</time></trkpt><trkpt lat="41.5131009" lon="13.091397"><ele>298.0</ele><time>2026-04-25T10:27:01.288Z</time></trkpt><trkpt lat="41.5132219" lon="13.0915437"><ele>300.0</ele><time>2026-04-25T10:27:02.289Z</time></trkpt><trkpt lat="41.5133557" lon="13.0917103"><ele>302.0</ele><time>2026-04-25T10:27:03.288Z</time></trkpt><trkpt lat="41.513472" lon="13.0918682"><ele>304.0</ele><time>2026-04-25T10:27:04.284Z</time></trkpt><trkpt lat="41.5135748" lon="13.0920159"><ele>304.0</ele><time>2026-04-25T10:27:05.295Z</time></trkpt><trkpt lat="41.5136732" lon="13.0921611"><ele>304.0</ele><time>2026-04-25T10:27:06.282Z</time></trkpt><trkpt lat="41.5137692" lon="13.092302"><ele>304.0</ele><time>2026-04-25T10:27:07.282Z</time></trkpt><trkpt lat="41.51387" lon="13.0924466"><ele>304.0</ele><time>2026-04-25T10:27:08.289Z</time></trkpt><trkpt lat="41.5139783" lon="13.0925939"><ele>304.5</ele><time>2026-04-25T10:27:09.281Z</time></trkpt><trkpt lat="41.5140806" lon="13.0927378"><ele>305.0</ele><time>2026-04-25T10:27:10.28Z</time></trkpt><trkpt lat="41.5141707" lon="13.0928735"><ele>305.5</ele><time>2026-04-25T10:27:11.279Z</time></trkpt><trkpt lat="41.5142587" lon="13.0930087"><ele>306.0</ele><time>2026-04-25T10:27:12.281Z</time></trkpt><trkpt lat="41.5143432" lon="13.0931411"><ele>306.5</ele><time>2026-04-25T10:27:13.281Z</time></trkpt><trkpt lat="41.5144236" lon="13.0932655"><ele>307.0</ele><time>2026-04-25T10:27:14.29Z</time></trkpt><trkpt lat="41.5145055" lon="13.0933925"><ele>307.5</ele><time>2026-04-25T10:27:15.281Z</time></trkpt><trkpt lat="41.5145868" lon="13.0935207"><ele>308.0</ele><time>2026-04-25T10:27:16.289Z</time></trkpt><trkpt lat="41.5146652" lon="13.0936591"><ele>308.0</ele><time>2026-04-25T10:27:17.291Z</time></trkpt><trkpt lat="41.5147347" lon="13.0938005"><ele>308.0</ele><time>2026-04-25T10:27:18.282Z</time></trkpt><trkpt lat="41.5147999" lon="13.0939448"><ele>308.0</ele><time>2026-04-25T10:27:19.278Z</time></trkpt><trkpt lat="41.5148692" lon="13.0940978"><ele>308.0</ele><time>2026-04-25T10:27:20.289Z</time></trkpt><trkpt lat="41.5149415" lon="13.0942514"><ele>310.75</ele><time>2026-04-25T10:27:21.28Z</time></trkpt><trkpt lat="41.515003" lon="13.0944033"><ele>313.5</ele><time>2026-04-25T10:27:22.278Z</time></trkpt><trkpt lat="41.5150513" lon="13.0945495"><ele>316.25</ele><time>2026-04-25T10:27:23.282Z</time></trkpt><trkpt lat="41.5150929" lon="13.0946836"><ele>319.0</ele><time>2026-04-25T10:27:24.285Z</time></trkpt><trkpt lat="41.51513" lon="13.0948241"><ele>322.0</ele><time>2026-04-25T10:27:25.277Z</time></trkpt><trkpt lat="41.5151754" lon="13.0949787"><ele>325.0</ele><time>2026-04-25T10:27:26.278Z</time></trkpt><trkpt lat="41.5152219" lon="13.0951484"><ele>328.0</ele><time>2026-04-25T10:27:27.288Z</time></trkpt><trkpt lat="41.5152729" lon="13.095333"><ele>331.0</ele><time>2026-04-25T10:27:28.28Z</time></trkpt><trkpt lat="41.5153295" lon="13.0955226"><ele>331.0</ele><time>2026-04-25T10:27:29.29Z</time></trkpt><trkpt lat="41.5153903" lon="13.0957127"><ele>331.0</ele><time>2026-04-25T10:27:30.289Z</time></trkpt><trkpt lat="41.5154535" lon="13.0959198"><ele>331.0</ele><time>2026-04-25T10:27:31.288Z</time></trkpt><trkpt lat="41.5155045" lon="13.0961345"><ele>329.5</ele><time>2026-04-25T10:27:32.289Z</time></trkpt><trkpt lat="41.5155391" lon="13.0963262"><ele>328.0</ele><time>2026-04-25T10:27:33.288Z</time></trkpt><trkpt lat="41.5155661" lon="13.0965113"><ele>326.5</ele><time>2026-04-25T10:27:34.288Z</time></trkpt><trkpt lat="41.5155853" lon="13.0966965"><ele>325.0</ele><time>2026-04-25T10:27:35.279Z</time></trkpt><trkpt lat="41.5155966" lon="13.0968816"><ele>325.0</ele><time>2026-04-25T10:27:36.279Z</time></trkpt><trkpt lat="41.5156022" lon="13.0970674"><ele>325.0</ele><time>2026-04-25T10:27:37.283Z</time></trkpt><trkpt lat="41.5156127" lon="13.0972573"><ele>325.0</ele><time>2026-04-25T10:27:38.289Z</time></trkpt><trkpt lat="41.5156356" lon="13.0974448"><ele>325.0</ele><time>2026-04-25T10:27:39.288Z</time></trkpt><trkpt lat="41.5156629" lon="13.0976289"><ele>325.25</ele><time>2026-04-25T10:27:40.289Z</time></trkpt><trkpt lat="41.5156914" lon="13.0978088"><ele>325.5</ele><time>2026-04-25T10:27:41.283Z</time></trkpt><trkpt lat="41.5157201" lon="13.0979876"><ele>325.75</ele><time>2026-04-25T10:27:42.282Z</time></trkpt><trkpt lat="41.5157473" lon="13.0981686"><ele>326.0</ele><time>2026-04-25T10:27:43.282Z</time></trkpt><trkpt lat="41.5157743" lon="13.09835"><ele>326.25</ele><time>2026-04-25T10:27:44.278Z</time></trkpt><trkpt lat="41.5157969" lon="13.098534"><ele>326.5</ele><time>2026-04-25T10:27:45.291Z</time></trkpt><trkpt lat="41.5158168" lon="13.098723"><ele>326.75</ele><time>2026-04-25T10:27:46.293Z</time></trkpt><trkpt lat="41.5158271" lon="13.0989256"><ele>327.0</ele><time>2026-04-25T10:27:47.291Z</time></trkpt><trkpt lat="41.5158321" lon="13.0991356"><ele>327.3333333333333</ele><time>2026-04-25T10:27:48.291Z</time></trkpt><trkpt lat="41.5158359" lon="13.099341"><ele>327.66666666666663</ele><time>2026-04-25T10:27:49.293Z</time></trkpt><trkpt lat="41.5158386" lon="13.0995455"><ele>328.0</ele><time>2026-04-25T10:27:50.294Z</time></trkpt><trkpt lat="41.5158367" lon="13.0997493"><ele>328.0</ele><time>2026-04-25T10:27:51.291Z</time></trkpt><trkpt lat="41.5158342" lon="13.0999541"><ele>328.0</ele><time>2026-04-25T10:27:52.282Z</time></trkpt><trkpt lat="41.5158313" lon="13.1001605"><ele>328.0</ele><time>2026-04-25T10:27:53.294Z</time></trkpt><trkpt lat="41.5158245" lon="13.1003591"><ele>328.0</ele><time>2026-04-25T10:27:54.29Z</time></trkpt><trkpt lat="41.5158133" lon="13.1005682"><ele>328.0</ele><time>2026-04-25T10:27:55.291Z</time></trkpt><trkpt lat="41.5157954" lon="13.1007728"><ele>328.0</ele><time>2026-04-25T10:27:56.283Z</time></trkpt><trkpt lat="41.5157605" lon="13.1009553"><ele>327.75</ele><time>2026-04-25T10:27:57.29Z</time></trkpt><trkpt lat="41.5157335" lon="13.1011308"><ele>327.5</ele><time>2026-04-25T10:27:58.278Z</time></trkpt><trkpt lat="41.5157079" lon="13.1013022"><ele>327.25</ele><time>2026-04-25T10:27:59.279Z</time></trkpt><trkpt lat="41.5156868" lon="13.1014719"><ele>327.0</ele><time>2026-04-25T10:28:00.279Z</time></trkpt><trkpt lat="41.5156654" lon="13.1016394"><ele>326.5</ele><time>2026-04-25T10:28:01.284Z</time></trkpt><trkpt lat="41.5156551" lon="13.1018081"><ele>326.0</ele><time>2026-04-25T10:28:02.288Z</time></trkpt><trkpt lat="41.5156469" lon="13.1019858"><ele>325.5</ele><time>2026-04-25T10:28:03.29Z</time></trkpt><trkpt lat="41.5156384" lon="13.1021643"><ele>325.0</ele><time>2026-04-25T10:28:04.281Z</time></trkpt><trkpt lat="41.5156358" lon="13.1023355"><ele>324.75</ele><time>2026-04-25T10:28:05.28Z</time></trkpt><trkpt lat="41.5156387" lon="13.1025068"><ele>324.5</ele><time>2026-04-25T10:28:06.287Z</time></trkpt><trkpt lat="41.5156472" lon="13.1026746"><ele>324.25</ele><time>2026-04-25T10:28:07.279Z</time></trkpt><trkpt lat="41.515666" lon="13.1028318"><ele>324.0</ele><time>2026-04-25T10:28:08.283Z</time></trkpt><trkpt lat="41.5156993" lon="13.1029816"><ele>324.0</ele><time>2026-04-25T10:28:09.287Z</time></trkpt><trkpt lat="41.5157566" lon="13.1031322"><ele>324.0</ele><time>2026-04-25T10:28:10.284Z</time></trkpt><trkpt lat="41.5158388" lon="13.1032873"><ele>324.0</ele><time>2026-04-25T10:28:11.284Z</time></trkpt><trkpt lat="41.5159306" lon="13.1034287"><ele>324.0</ele><time>2026-04-25T10:28:12.281Z</time></trkpt><trkpt lat="41.5160261" lon="13.103554"><ele>323.5</ele><time>2026-04-25T10:28:13.279Z</time></trkpt><trkpt lat="41.5161398" lon="13.1036603"><ele>323.0</ele><time>2026-04-25T10:28:14.287Z</time></trkpt><trkpt lat="41.5162645" lon="13.1037428"><ele>322.5</ele><time>2026-04-25T10:28:15.279Z</time></trkpt><trkpt lat="41.5163813" lon="13.1038086"><ele>322.0</ele><time>2026-04-25T10:28:16.291Z</time></trkpt><trkpt lat="41.516479" lon="13.1038789"><ele>322.0</ele><time>2026-04-25T10:28:17.289Z</time></trkpt><trkpt lat="41.5165695" lon="13.1039605"><ele>322.0</ele><time>2026-04-25T10:28:18.284Z</time></trkpt><trkpt lat="41.5166216" lon="13.1040349"><ele>322.0</ele><time>2026-04-25T10:28:19.281Z</time></trkpt><trkpt lat="41.5166655" lon="13.1041159"><ele>322.0</ele><time>2026-04-25T10:28:20.282Z</time></trkpt><trkpt lat="41.5167037" lon="13.104191"><ele>322.0</ele><time>2026-04-25T10:28:21.278Z</time></trkpt><trkpt lat="41.516736" lon="13.1042773"><ele>322.0</ele><time>2026-04-25T10:28:22.288Z</time></trkpt><trkpt lat="41.5167722" lon="13.1043747"><ele>320.8</ele><time>2026-04-25T10:28:23.279Z</time></trkpt><trkpt lat="41.5168135" lon="13.1044719"><ele>319.6</ele><time>2026-04-25T10:28:24.283Z</time></trkpt><trkpt lat="41.5168548" lon="13.1045729"><ele>318.40000000000003</ele><time>2026-04-25T10:28:25.279Z</time></trkpt><trkpt lat="41.5168868" lon="13.1046965"><ele>317.20000000000005</ele><time>2026-04-25T10:28:26.29Z</time></trkpt><trkpt lat="41.5169106" lon="13.1048302"><ele>316.0</ele><time>2026-04-25T10:28:27.282Z</time></trkpt><trkpt lat="41.5169365" lon="13.1049805"><ele>315.0</ele><time>2026-04-25T10:28:28.29Z</time></trkpt><trkpt lat="41.5169695" lon="13.1051513"><ele>314.0</ele><time>2026-04-25T10:28:29.287Z</time></trkpt><trkpt lat="41.5170025" lon="13.1053298"><ele>313.0</ele><time>2026-04-25T10:28:30.289Z</time></trkpt><trkpt lat="41.5170359" lon="13.1055145"><ele>312.0</ele><time>2026-04-25T10:28:31.287Z</time></trkpt><trkpt lat="41.5170515" lon="13.1056972"><ele>311.75</ele><time>2026-04-25T10:28:32.286Z</time></trkpt><trkpt lat="41.5170682" lon="13.1058817"><ele>311.5</ele><time>2026-04-25T10:28:33.287Z</time></trkpt><trkpt lat="41.5170824" lon="13.1060687"><ele>311.25</ele><time>2026-04-25T10:28:34.29Z</time></trkpt><trkpt lat="41.5170767" lon="13.1062583"><ele>311.0</ele><time>2026-04-25T10:28:35.29Z</time></trkpt><trkpt lat="41.5170747" lon="13.1064686"><ele>309.5</ele><time>2026-04-25T10:28:36.29Z</time></trkpt><trkpt lat="41.5170679" lon="13.106683"><ele>308.0</ele><time>2026-04-25T10:28:37.408Z</time></trkpt><trkpt lat="41.5170461" lon="13.1070987"><ele>308.0</ele><time>2026-04-25T10:28:39.283Z</time></trkpt><trkpt lat="41.5170345" lon="13.1073101"><ele>308.0</ele><time>2026-04-25T10:28:40.289Z</time></trkpt><trkpt lat="41.517025" lon="13.1074998"><ele>308.0</ele><time>2026-04-25T10:28:41.289Z</time></trkpt><trkpt lat="41.5170138" lon="13.1077075"><ele>307.0</ele><time>2026-04-25T10:28:42.282Z</time></trkpt><trkpt lat="41.5170042" lon="13.107928"><ele>306.0</ele><time>2026-04-25T10:28:43.281Z</time></trkpt><trkpt lat="41.5169889" lon="13.1081391"><ele>305.0</ele><time>2026-04-25T10:28:44.28Z</time></trkpt><trkpt lat="41.5169719" lon="13.1083357"><ele>304.6666666666667</ele><time>2026-04-25T10:28:45.285Z</time></trkpt><trkpt lat="41.5169509" lon="13.10853"><ele>304.3333333333333</ele><time>2026-04-25T10:28:46.281Z</time></trkpt><trkpt lat="41.5169348" lon="13.1087348"><ele>304.0</ele><time>2026-04-25T10:28:47.283Z</time></trkpt><trkpt lat="41.5169185" lon="13.1089423"><ele>304.0</ele><time>2026-04-25T10:28:48.29Z</time></trkpt><trkpt lat="41.5169024" lon="13.10916"><ele>304.0</ele><time>2026-04-25T10:28:49.279Z</time></trkpt><trkpt lat="41.5168893" lon="13.1093693"><ele>304.0</ele><time>2026-04-25T10:28:50.28Z</time></trkpt><trkpt lat="41.5168755" lon="13.1095675"><ele>304.0</ele><time>2026-04-25T10:28:51.277Z</time></trkpt><trkpt lat="41.5168628" lon="13.109766"><ele>304.0</ele><time>2026-04-25T10:28:52.279Z</time></trkpt><trkpt lat="41.516848" lon="13.1099709"><ele>304.0</ele><time>2026-04-25T10:28:53.281Z</time></trkpt><trkpt lat="41.5168325" lon="13.110178"><ele>303.66666666666663</ele><time>2026-04-25T10:28:54.277Z</time></trkpt><trkpt lat="41.5168145" lon="13.110379"><ele>303.3333333333333</ele><time>2026-04-25T10:28:55.278Z</time></trkpt><trkpt lat="41.5167981" lon="13.110582"><ele>303.0</ele><time>2026-04-25T10:28:56.277Z</time></trkpt><trkpt lat="41.5167831" lon="13.1107799"><ele>303.0</ele><time>2026-04-25T10:28:57.276Z</time></trkpt><trkpt lat="41.5167759" lon="13.1109819"><ele>303.0</ele><time>2026-04-25T10:28:58.278Z</time></trkpt><trkpt lat="41.5167741" lon="13.1111789"><ele>303.0</ele><time>2026-04-25T10:28:59.279Z</time></trkpt><trkpt lat="41.5167827" lon="13.1113643"><ele>303.0</ele><time>2026-04-25T10:29:00.276Z</time></trkpt><trkpt lat="41.5167935" lon="13.1115344"><ele>302.5</ele><time>2026-04-25T10:29:01.276Z</time></trkpt><trkpt lat="41.5168064" lon="13.1116988"><ele>302.0</ele><time>2026-04-25T10:29:02.278Z</time></trkpt><trkpt lat="41.5168066" lon="13.1118553"><ele>301.5</ele><time>2026-04-25T10:29:03.279Z</time></trkpt><trkpt lat="41.5167692" lon="13.111997"><ele>301.0</ele><time>2026-04-25T10:29:04.28Z</time></trkpt><trkpt lat="41.5167243" lon="13.1121442"><ele>301.0</ele><time>2026-04-25T10:29:05.282Z</time></trkpt><trkpt lat="41.5166555" lon="13.1122907"><ele>301.0</ele><time>2026-04-25T10:29:06.281Z</time></trkpt><trkpt lat="41.5165815" lon="13.1124291"><ele>301.0</ele><time>2026-04-25T10:29:07.279Z</time></trkpt><trkpt lat="41.5165103" lon="13.1125768"><ele>301.0</ele><time>2026-04-25T10:29:08.28Z</time></trkpt><trkpt lat="41.5164496" lon="13.1127611"><ele>299.3333333333333</ele><time>2026-04-25T10:29:09.283Z</time></trkpt><trkpt lat="41.5163983" lon="13.1129529"><ele>297.6666666666667</ele><time>2026-04-25T10:29:10.283Z</time></trkpt><trkpt lat="41.516351" lon="13.1131551"><ele>296.0</ele><time>2026-04-25T10:29:11.279Z</time></trkpt><trkpt lat="41.5163067" lon="13.1133784"><ele>295.0</ele><time>2026-04-25T10:29:12.288Z</time></trkpt><trkpt lat="41.5162717" lon="13.1136172"><ele>294.0</ele><time>2026-04-25T10:29:13.29Z</time></trkpt><trkpt lat="41.5162523" lon="13.1138629"><ele>293.0</ele><time>2026-04-25T10:29:14.289Z</time></trkpt><trkpt lat="41.5162419" lon="13.1141228"><ele>291.33333333333337</ele><time>2026-04-25T10:29:15.294Z</time></trkpt><trkpt lat="41.5162405" lon="13.1143835"><ele>289.6666666666667</ele><time>2026-04-25T10:29:16.278Z</time></trkpt><trkpt lat="41.5162319" lon="13.1146349"><ele>288.0</ele><time>2026-04-25T10:29:17.29Z</time></trkpt><trkpt lat="41.5162264" lon="13.1148801"><ele>285.6666666666667</ele><time>2026-04-25T10:29:18.283Z</time></trkpt><trkpt lat="41.5162274" lon="13.1151149"><ele>283.33333333333337</ele><time>2026-04-25T10:29:19.283Z</time></trkpt><trkpt lat="41.5162171" lon="13.1153248"><ele>281.0</ele><time>2026-04-25T10:29:20.285Z</time></trkpt><trkpt lat="41.5162143" lon="13.1155423"><ele>282.0</ele><time>2026-04-25T10:29:21.282Z</time></trkpt><trkpt lat="41.5162105" lon="13.1157519"><ele>283.0</ele><time>2026-04-25T10:29:22.29Z</time></trkpt><trkpt lat="41.516205" lon="13.1159569"><ele>284.0</ele><time>2026-04-25T10:29:23.282Z</time></trkpt><trkpt lat="41.5162041" lon="13.1161581"><ele>284.0</ele><time>2026-04-25T10:29:24.29Z</time></trkpt><trkpt lat="41.5161972" lon="13.1163596"><ele>284.0</ele><time>2026-04-25T10:29:25.292Z</time></trkpt><trkpt lat="41.5161955" lon="13.1165596"><ele>284.0</ele><time>2026-04-25T10:29:26.288Z</time></trkpt><trkpt lat="41.5161861" lon="13.1167709"><ele>284.33333333333337</ele><time>2026-04-25T10:29:27.288Z</time></trkpt><trkpt lat="41.5161852" lon="13.116982"><ele>284.6666666666667</ele><time>2026-04-25T10:29:28.28Z</time></trkpt><trkpt lat="41.5161891" lon="13.117191"><ele>285.0</ele><time>2026-04-25T10:29:29.292Z</time></trkpt><trkpt lat="41.5161997" lon="13.1173834"><ele>285.25</ele><time>2026-04-25T10:29:30.294Z</time></trkpt><trkpt lat="41.5162171" lon="13.1175688"><ele>285.5</ele><time>2026-04-25T10:29:31.292Z</time></trkpt><trkpt lat="41.516229" lon="13.117755"><ele>285.75</ele><time>2026-04-25T10:29:32.291Z</time></trkpt><trkpt lat="41.5162439" lon="13.1179391"><ele>286.0</ele><time>2026-04-25T10:29:33.295Z</time></trkpt><trkpt lat="41.5162609" lon="13.1181262"><ele>284.0</ele><time>2026-04-25T10:29:34.292Z</time></trkpt><trkpt lat="41.5162757" lon="13.1183253"><ele>282.0</ele><time>2026-04-25T10:29:35.289Z</time></trkpt><trkpt lat="41.5162884" lon="13.1185228"><ele>280.0</ele><time>2026-04-25T10:29:36.287Z</time></trkpt><trkpt lat="41.5162957" lon="13.1187232"><ele>278.0</ele><time>2026-04-25T10:29:37.293Z</time></trkpt><trkpt lat="41.5162842" lon="13.1189317"><ele>275.6666666666667</ele><time>2026-04-25T10:29:38.277Z</time></trkpt><trkpt lat="41.5162615" lon="13.1191444"><ele>273.3333333333333</ele><time>2026-04-25T10:29:39.278Z</time></trkpt><trkpt lat="41.5162304" lon="13.1193542"><ele>271.0</ele><time>2026-04-25T10:29:40.278Z</time></trkpt><trkpt lat="41.5162003" lon="13.1195564"><ele>270.5</ele><time>2026-04-25T10:29:41.276Z</time></trkpt><trkpt lat="41.516168" lon="13.1197525"><ele>270.0</ele><time>2026-04-25T10:29:42.282Z</time></trkpt><trkpt lat="41.5161279" lon="13.1199444"><ele>269.5</ele><time>2026-04-25T10:29:43.28Z</time></trkpt><trkpt lat="41.5160898" lon="13.1201287"><ele>269.0</ele><time>2026-04-25T10:29:44.281Z</time></trkpt><trkpt lat="41.5160462" lon="13.1203078"><ele>267.0</ele><time>2026-04-25T10:29:45.282Z</time></trkpt><trkpt lat="41.5160048" lon="13.120485"><ele>265.0</ele><time>2026-04-25T10:29:46.29Z</time></trkpt><trkpt lat="41.5159606" lon="13.1206554"><ele>263.0</ele><time>2026-04-25T10:29:47.28Z</time></trkpt><trkpt lat="41.5159196" lon="13.1208192"><ele>261.0</ele><time>2026-04-25T10:29:48.281Z</time></trkpt><trkpt lat="41.5158775" lon="13.1209863"><ele>260.0</ele><time>2026-04-25T10:29:49.283Z</time></trkpt><trkpt lat="41.5158425" lon="13.1211636"><ele>259.0</ele><time>2026-04-25T10:29:50.283Z</time></trkpt><trkpt lat="41.5158223" lon="13.1213506"><ele>258.0</ele><time>2026-04-25T10:29:51.285Z</time></trkpt><trkpt lat="41.5158111" lon="13.121542"><ele>257.0</ele><time>2026-04-25T10:29:52.293Z</time></trkpt><trkpt lat="41.5158115" lon="13.1217432"><ele>255.66666666666669</ele><time>2026-04-25T10:29:53.293Z</time></trkpt><trkpt lat="41.5158117" lon="13.1219406"><ele>254.33333333333331</ele><time>2026-04-25T10:29:54.292Z</time></trkpt><trkpt lat="41.5158014" lon="13.1221391"><ele>253.0</ele><time>2026-04-25T10:29:55.285Z</time></trkpt><trkpt lat="41.5157919" lon="13.1223469"><ele>252.0</ele><time>2026-04-25T10:29:56.284Z</time></trkpt><trkpt lat="41.5157852" lon="13.1225584"><ele>251.0</ele><time>2026-04-25T10:29:57.283Z</time></trkpt><trkpt lat="41.5157778" lon="13.1227702"><ele>250.0</ele><time>2026-04-25T10:29:58.283Z</time></trkpt><trkpt lat="41.515779" lon="13.1229854"><ele>250.0</ele><time>2026-04-25T10:29:59.282Z</time></trkpt><trkpt lat="41.5157792" lon="13.1231977"><ele>250.0</ele><time>2026-04-25T10:30:00.282Z</time></trkpt><trkpt lat="41.5157801" lon="13.1234118"><ele>250.0</ele><time>2026-04-25T10:30:01.28Z</time></trkpt><trkpt lat="41.5157896" lon="13.123629"><ele>249.66666666666666</ele><time>2026-04-25T10:30:02.292Z</time></trkpt><trkpt lat="41.515805" lon="13.1238467"><ele>249.33333333333331</ele><time>2026-04-25T10:30:03.28Z</time></trkpt><trkpt lat="41.5158224" lon="13.1240621"><ele>249.0</ele><time>2026-04-25T10:30:04.293Z</time></trkpt><trkpt lat="41.5158453" lon="13.1242807"><ele>247.33333333333331</ele><time>2026-04-25T10:30:05.284Z</time></trkpt><trkpt lat="41.5158691" lon="13.1244914"><ele>245.66666666666666</ele><time>2026-04-25T10:30:06.284Z</time></trkpt><trkpt lat="41.5158964" lon="13.1246996"><ele>244.0</ele><time>2026-04-25T10:30:07.281Z</time></trkpt><trkpt lat="41.5159317" lon="13.1249053"><ele>241.66666666666666</ele><time>2026-04-25T10:30:08.284Z</time></trkpt><trkpt lat="41.5159817" lon="13.1251114"><ele>239.33333333333331</ele><time>2026-04-25T10:30:09.293Z</time></trkpt><trkpt lat="41.516038" lon="13.1253105"><ele>237.0</ele><time>2026-04-25T10:30:10.28Z</time></trkpt><trkpt lat="41.5160968" lon="13.1255039"><ele>237.0</ele><time>2026-04-25T10:30:11.281Z</time></trkpt><trkpt lat="41.5161645" lon="13.1256943"><ele>237.0</ele><time>2026-04-25T10:30:12.287Z</time></trkpt><trkpt lat="41.5162407" lon="13.1258803"><ele>237.0</ele><time>2026-04-25T10:30:13.411Z</time></trkpt><trkpt lat="41.5163695" lon="13.1262657"><ele>237.66666666666669</ele><time>2026-04-25T10:30:15.292Z</time></trkpt><trkpt lat="41.5164131" lon="13.126486"><ele>238.33333333333334</ele><time>2026-04-25T10:30:16.283Z</time></trkpt><trkpt lat="41.5164508" lon="13.1267096"><ele>239.0</ele><time>2026-04-25T10:30:17.288Z</time></trkpt><trkpt lat="41.5165052" lon="13.1269282"><ele>237.0</ele><time>2026-04-25T10:30:18.281Z</time></trkpt><trkpt lat="41.5165627" lon="13.1271385"><ele>235.0</ele><time>2026-04-25T10:30:19.288Z</time></trkpt><trkpt lat="41.5166206" lon="13.1273518"><ele>233.0</ele><time>2026-04-25T10:30:20.29Z</time></trkpt><trkpt lat="41.516702" lon="13.1275903"><ele>231.33333333333334</ele><time>2026-04-25T10:30:21.29Z</time></trkpt><trkpt lat="41.51679" lon="13.1278442"><ele>229.66666666666669</ele><time>2026-04-25T10:30:22.287Z</time></trkpt><trkpt lat="41.5168817" lon="13.128095"><ele>228.0</ele><time>2026-04-25T10:30:23.286Z</time></trkpt><trkpt lat="41.5169732" lon="13.1283586"><ele>227.33333333333331</ele><time>2026-04-25T10:30:24.285Z</time></trkpt><trkpt lat="41.5170647" lon="13.1286273"><ele>226.66666666666666</ele><time>2026-04-25T10:30:25.282Z</time></trkpt><trkpt lat="41.5171488" lon="13.1288962"><ele>226.0</ele><time>2026-04-25T10:30:26.293Z</time></trkpt><trkpt lat="41.5172342" lon="13.1291661"><ele>226.0</ele><time>2026-04-25T10:30:27.289Z</time></trkpt><trkpt lat="41.5173178" lon="13.12943"><ele>226.0</ele><time>2026-04-25T10:30:28.29Z</time></trkpt><trkpt lat="41.5173983" lon="13.1296879"><ele>226.0</ele><time>2026-04-25T10:30:29.285Z</time></trkpt><trkpt lat="41.5174779" lon="13.1299322"><ele>226.33333333333331</ele><time>2026-04-25T10:30:30.282Z</time></trkpt><trkpt lat="41.5175494" lon="13.130154"><ele>226.66666666666669</ele><time>2026-04-25T10:30:31.284Z</time></trkpt><trkpt lat="41.5176155" lon="13.1303565"><ele>227.0</ele><time>2026-04-25T10:30:32.288Z</time></trkpt><trkpt lat="41.5176706" lon="13.1305309"><ele>227.0</ele><time>2026-04-25T10:30:33.29Z</time></trkpt><trkpt lat="41.5177274" lon="13.130696"><ele>227.0</ele><time>2026-04-25T10:30:34.291Z</time></trkpt><trkpt lat="41.5177839" lon="13.1308625"><ele>227.0</ele><time>2026-04-25T10:30:35.275Z</time></trkpt><trkpt lat="41.5178465" lon="13.13104"><ele>227.0</ele><time>2026-04-25T10:30:36.278Z</time></trkpt><trkpt lat="41.5179213" lon="13.1312332"><ele>228.0</ele><time>2026-04-25T10:30:37.29Z</time></trkpt><trkpt lat="41.5179902" lon="13.1314154"><ele>229.0</ele><time>2026-04-25T10:30:38.281Z</time></trkpt><trkpt lat="41.518054" lon="13.1315889"><ele>230.0</ele><time>2026-04-25T10:30:39.283Z</time></trkpt><trkpt lat="41.5181177" lon="13.1317931"><ele>230.0</ele><time>2026-04-25T10:30:40.284Z</time></trkpt><trkpt lat="41.518185" lon="13.1320185"><ele>230.0</ele><time>2026-04-25T10:30:41.284Z</time></trkpt><trkpt lat="41.5182654" lon="13.132257"><ele>230.0</ele><time>2026-04-25T10:30:42.281Z</time></trkpt><trkpt lat="41.51834" lon="13.1324995"><ele>230.33333333333334</ele><time>2026-04-25T10:30:43.287Z</time></trkpt><trkpt lat="41.5184171" lon="13.1327318"><ele>230.66666666666669</ele><time>2026-04-25T10:30:44.281Z</time></trkpt><trkpt lat="41.5184873" lon="13.1329553"><ele>231.0</ele><time>2026-04-25T10:30:45.29Z</time></trkpt><trkpt lat="41.5185563" lon="13.1331659"><ele>230.66666666666669</ele><time>2026-04-25T10:30:46.282Z</time></trkpt><trkpt lat="41.5186239" lon="13.1333837"><ele>230.33333333333334</ele><time>2026-04-25T10:30:47.28Z</time></trkpt><trkpt lat="41.5186826" lon="13.1335938"><ele>230.0</ele><time>2026-04-25T10:30:48.285Z</time></trkpt><trkpt lat="41.5187354" lon="13.1338152"><ele>230.0</ele><time>2026-04-25T10:30:49.289Z</time></trkpt><trkpt lat="41.518778" lon="13.134023"><ele>230.0</ele><time>2026-04-25T10:30:50.281Z</time></trkpt><trkpt lat="41.518829" lon="13.1342237"><ele>230.0</ele><time>2026-04-25T10:30:51.288Z</time></trkpt><trkpt lat="41.5189117" lon="13.1344367"><ele>230.0</ele><time>2026-04-25T10:30:52.282Z</time></trkpt><trkpt lat="41.5190137" lon="13.1346523"><ele>230.0</ele><time>2026-04-25T10:30:53.29Z</time></trkpt><trkpt lat="41.5191181" lon="13.1348611"><ele>230.0</ele><time>2026-04-25T10:30:54.28Z</time></trkpt><trkpt lat="41.5192081" lon="13.1350623"><ele>228.0</ele><time>2026-04-25T10:30:55.28Z</time></trkpt><trkpt lat="41.5192978" lon="13.1352535"><ele>226.0</ele><time>2026-04-25T10:30:56.292Z</time></trkpt><trkpt lat="41.5193867" lon="13.1354279"><ele>224.0</ele><time>2026-04-25T10:30:57.292Z</time></trkpt><trkpt lat="41.5194692" lon="13.135599"><ele>223.25</ele><time>2026-04-25T10:30:58.293Z</time></trkpt><trkpt lat="41.5195496" lon="13.1357612"><ele>222.5</ele><time>2026-04-25T10:30:59.291Z</time></trkpt><trkpt lat="41.51962" lon="13.1359067"><ele>221.75</ele><time>2026-04-25T10:31:00.291Z</time></trkpt><trkpt lat="41.5196844" lon="13.1360165"><ele>221.0</ele><time>2026-04-25T10:31:01.282Z</time></trkpt><trkpt lat="41.5197526" lon="13.1361077"><ele>220.0</ele><time>2026-04-25T10:31:02.282Z</time></trkpt><trkpt lat="41.5198307" lon="13.1361607"><ele>219.00000000000003</ele><time>2026-04-25T10:31:03.288Z</time></trkpt><trkpt lat="41.5199318" lon="13.1361588"><ele>218.00000000000003</ele><time>2026-04-25T10:31:04.28Z</time></trkpt><trkpt lat="41.520037" lon="13.1361253"><ele>217.0</ele><time>2026-04-25T10:31:05.293Z</time></trkpt><trkpt lat="41.5201336" lon="13.1360743"><ele>216.0</ele><time>2026-04-25T10:31:06.282Z</time></trkpt><trkpt lat="41.5202389" lon="13.1360441"><ele>216.0</ele><time>2026-04-25T10:31:07.283Z</time></trkpt><trkpt lat="41.5203397" lon="13.136051"><ele>216.00000000000003</ele><time>2026-04-25T10:31:08.284Z</time></trkpt><trkpt lat="41.520432" lon="13.1361036"><ele>216.00000000000003</ele><time>2026-04-25T10:31:09.292Z</time></trkpt><trkpt lat="41.5205146" lon="13.1361873"><ele>216.0</ele><time>2026-04-25T10:31:10.28Z</time></trkpt><trkpt lat="41.520587" lon="13.1363293"><ele>216.0</ele><time>2026-04-25T10:31:11.29Z</time></trkpt><trkpt lat="41.5206652" lon="13.1365072"><ele>215.33333333333331</ele><time>2026-04-25T10:31:12.298Z</time></trkpt><trkpt lat="41.5207616" lon="13.1367153"><ele>214.66666666666666</ele><time>2026-04-25T10:31:13.28Z</time></trkpt><trkpt lat="41.5208615" lon="13.1369476"><ele>214.0</ele><time>2026-04-25T10:31:14.289Z</time></trkpt><trkpt lat="41.5209501" lon="13.1371468"><ele>214.0</ele><time>2026-04-25T10:31:15.282Z</time></trkpt><trkpt lat="41.5210325" lon="13.1373273"><ele>214.0</ele><time>2026-04-25T10:31:16.293Z</time></trkpt><trkpt lat="41.5211066" lon="13.1374945"><ele>214.0</ele><time>2026-04-25T10:31:17.293Z</time></trkpt><trkpt lat="41.5211836" lon="13.1376667"><ele>215.33333333333331</ele><time>2026-04-25T10:31:18.29Z</time></trkpt><trkpt lat="41.5212597" lon="13.1378381"><ele>216.66666666666669</ele><time>2026-04-25T10:31:19.291Z</time></trkpt><trkpt lat="41.5213353" lon="13.138011"><ele>218.0</ele><time>2026-04-25T10:31:20.281Z</time></trkpt><trkpt lat="41.5214124" lon="13.1381868"><ele>216.0</ele><time>2026-04-25T10:31:21.28Z</time></trkpt><trkpt lat="41.5214864" lon="13.1383635"><ele>214.0</ele><time>2026-04-25T10:31:22.291Z</time></trkpt><trkpt lat="41.5215622" lon="13.1385311"><ele>212.0</ele><time>2026-04-25T10:31:23.293Z</time></trkpt><trkpt lat="41.5216263" lon="13.1386822"><ele>210.0</ele><time>2026-04-25T10:31:24.291Z</time></trkpt><trkpt lat="41.5216986" lon="13.1388093"><ele>210.0</ele><time>2026-04-25T10:31:25.281Z</time></trkpt><trkpt lat="41.5217816" lon="13.1389291"><ele>210.0</ele><time>2026-04-25T10:31:26.283Z</time></trkpt><trkpt lat="41.521872" lon="13.1390133"><ele>210.0</ele><time>2026-04-25T10:31:27.282Z</time></trkpt><trkpt lat="41.5219834" lon="13.1390649"><ele>210.0</ele><time>2026-04-25T10:31:28.283Z</time></trkpt><trkpt lat="41.5221228" lon="13.1390822"><ele>207.25</ele><time>2026-04-25T10:31:29.291Z</time></trkpt><trkpt lat="41.5222591" lon="13.1390613"><ele>204.5</ele><time>2026-04-25T10:31:30.282Z</time></trkpt><trkpt lat="41.5223873" lon="13.1390585"><ele>201.75</ele><time>2026-04-25T10:31:31.293Z</time></trkpt><trkpt lat="41.5225078" lon="13.1390847"><ele>199.0</ele><time>2026-04-25T10:31:32.287Z</time></trkpt><trkpt lat="41.5226168" lon="13.1391568"><ele>199.0</ele><time>2026-04-25T10:31:33.291Z</time></trkpt><trkpt lat="41.5227081" lon="13.1392603"><ele>199.0</ele><time>2026-04-25T10:31:34.29Z</time></trkpt><trkpt lat="41.5227769" lon="13.1393998"><ele>199.0</ele><time>2026-04-25T10:31:35.291Z</time></trkpt><trkpt lat="41.522813" lon="13.1395783"><ele>199.0</ele><time>2026-04-25T10:31:36.279Z</time></trkpt><trkpt lat="41.5228122" lon="13.1397787"><ele>198.33333333333331</ele><time>2026-04-25T10:31:37.281Z</time></trkpt><trkpt lat="41.5227927" lon="13.1400031"><ele>197.66666666666669</ele><time>2026-04-25T10:31:38.278Z</time></trkpt><trkpt lat="41.522776" lon="13.1402528"><ele>197.0</ele><time>2026-04-25T10:31:39.282Z</time></trkpt><trkpt lat="41.5227616" lon="13.1405217"><ele>195.66666666666669</ele><time>2026-04-25T10:31:40.292Z</time></trkpt><trkpt lat="41.5227453" lon="13.1407942"><ele>194.33333333333331</ele><time>2026-04-25T10:31:41.287Z</time></trkpt><trkpt lat="41.522735" lon="13.1410644"><ele>193.0</ele><time>2026-04-25T10:31:42.279Z</time></trkpt><trkpt lat="41.5227255" lon="13.1413231"><ele>194.0</ele><time>2026-04-25T10:31:43.283Z</time></trkpt><trkpt lat="41.5227167" lon="13.1415669"><ele>195.0</ele><time>2026-04-25T10:31:44.283Z</time></trkpt><trkpt lat="41.5227038" lon="13.1417976"><ele>196.0</ele><time>2026-04-25T10:31:45.282Z</time></trkpt><trkpt lat="41.5226955" lon="13.1420094"><ele>196.0</ele><time>2026-04-25T10:31:46.294Z</time></trkpt><trkpt lat="41.5226901" lon="13.1421988"><ele>196.0</ele><time>2026-04-25T10:31:47.284Z</time></trkpt><trkpt lat="41.5226913" lon="13.1423667"><ele>196.0</ele><time>2026-04-25T10:31:48.293Z</time></trkpt><trkpt lat="41.5227074" lon="13.1425176"><ele>196.0</ele><time>2026-04-25T10:31:49.28Z</time></trkpt><trkpt lat="41.5227405" lon="13.1426648"><ele>197.5</ele><time>2026-04-25T10:31:50.285Z</time></trkpt><trkpt lat="41.5227945" lon="13.1427956"><ele>199.0</ele><time>2026-04-25T10:31:51.283Z</time></trkpt><trkpt lat="41.5228831" lon="13.1429198"><ele>200.5</ele><time>2026-04-25T10:31:52.291Z</time></trkpt><trkpt lat="41.5229994" lon="13.1430208"><ele>202.0</ele><time>2026-04-25T10:31:53.293Z</time></trkpt><trkpt lat="41.5231422" lon="13.1431125"><ele>202.66666666666666</ele><time>2026-04-25T10:31:54.291Z</time></trkpt><trkpt lat="41.5232908" lon="13.1432112"><ele>203.33333333333331</ele><time>2026-04-25T10:31:55.28Z</time></trkpt><trkpt lat="41.5234336" lon="13.1433233"><ele>204.0</ele><time>2026-04-25T10:31:56.273Z</time></trkpt><trkpt lat="41.5235558" lon="13.1434402"><ele>204.0</ele><time>2026-04-25T10:31:57.282Z</time></trkpt><trkpt lat="41.5236559" lon="13.1435527"><ele>204.0</ele><time>2026-04-25T10:31:58.283Z</time></trkpt><trkpt lat="41.5237428" lon="13.1436514"><ele>204.0</ele><time>2026-04-25T10:31:59.279Z</time></trkpt><trkpt lat="41.523799" lon="13.1437573"><ele>204.0</ele><time>2026-04-25T10:32:00.28Z</time></trkpt><trkpt lat="41.5238328" lon="13.1438703"><ele>204.0</ele><time>2026-04-25T10:32:01.278Z</time></trkpt><trkpt lat="41.5238604" lon="13.1440101"><ele>203.5</ele><time>2026-04-25T10:32:02.279Z</time></trkpt><trkpt lat="41.5238834" lon="13.1441616"><ele>203.0</ele><time>2026-04-25T10:32:03.279Z</time></trkpt><trkpt lat="41.5239147" lon="13.1443483"><ele>202.5</ele><time>2026-04-25T10:32:04.282Z</time></trkpt><trkpt lat="41.5239462" lon="13.144546"><ele>202.0</ele><time>2026-04-25T10:32:05.281Z</time></trkpt><trkpt lat="41.5239799" lon="13.1447741"><ele>199.66666666666666</ele><time>2026-04-25T10:32:06.281Z</time></trkpt><trkpt lat="41.5240114" lon="13.1450025"><ele>197.33333333333331</ele><time>2026-04-25T10:32:07.279Z</time></trkpt><trkpt lat="41.5240324" lon="13.1452175"><ele>195.0</ele><time>2026-04-25T10:32:08.278Z</time></trkpt><trkpt lat="41.5240421" lon="13.1454201"><ele>195.0</ele><time>2026-04-25T10:32:09.278Z</time></trkpt><trkpt lat="41.5240407" lon="13.1456343"><ele>195.0</ele><time>2026-04-25T10:32:10.278Z</time></trkpt><trkpt lat="41.5240275" lon="13.1458446"><ele>195.0</ele><time>2026-04-25T10:32:11.275Z</time></trkpt><trkpt lat="41.5240092" lon="13.1460505"><ele>196.5</ele><time>2026-04-25T10:32:12.279Z</time></trkpt><trkpt lat="41.5239915" lon="13.1462322"><ele>198.0</ele><time>2026-04-25T10:32:13.279Z</time></trkpt><trkpt lat="41.5239811" lon="13.1463998"><ele>199.5</ele><time>2026-04-25T10:32:14.279Z</time></trkpt><trkpt lat="41.5239894" lon="13.1465837"><ele>201.0</ele><time>2026-04-25T10:32:15.275Z</time></trkpt><trkpt lat="41.5240198" lon="13.1467796"><ele>201.0</ele><time>2026-04-25T10:32:16.28Z</time></trkpt><trkpt lat="41.5240777" lon="13.1469959"><ele>201.0</ele><time>2026-04-25T10:32:17.278Z</time></trkpt><trkpt lat="41.5241459" lon="13.1472262"><ele>201.0</ele><time>2026-04-25T10:32:18.279Z</time></trkpt><trkpt lat="41.5242134" lon="13.1474911"><ele>197.0</ele><time>2026-04-25T10:32:19.363Z</time></trkpt><trkpt lat="41.5242775" lon="13.1478045"><ele>193.0</ele><time>2026-04-25T10:32:20.28Z</time></trkpt><trkpt lat="41.5243365" lon="13.1481071"><ele>191.0</ele><time>2026-04-25T10:32:21.281Z</time></trkpt><trkpt lat="41.5243914" lon="13.1483865"><ele>189.0</ele><time>2026-04-25T10:32:22.279Z</time></trkpt><trkpt lat="41.5244483" lon="13.1486381"><ele>187.0</ele><time>2026-04-25T10:32:23.275Z</time></trkpt><trkpt lat="41.5245015" lon="13.1488684"><ele>186.0</ele><time>2026-04-25T10:32:24.276Z</time></trkpt><trkpt lat="41.5245355" lon="13.1490818"><ele>185.0</ele><time>2026-04-25T10:32:25.276Z</time></trkpt><trkpt lat="41.5245543" lon="13.1492858"><ele>184.0</ele><time>2026-04-25T10:32:26.276Z</time></trkpt><trkpt lat="41.5245583" lon="13.1494744"><ele>184.0</ele><time>2026-04-25T10:32:27.277Z</time></trkpt><trkpt lat="41.5245491" lon="13.1496839"><ele>184.0</ele><time>2026-04-25T10:32:28.278Z</time></trkpt><trkpt lat="41.5245235" lon="13.1499091"><ele>184.0</ele><time>2026-04-25T10:32:29.277Z</time></trkpt><trkpt lat="41.5244989" lon="13.1501338"><ele>183.66666666666669</ele><time>2026-04-25T10:32:30.275Z</time></trkpt><trkpt lat="41.5244715" lon="13.1503609"><ele>183.33333333333334</ele><time>2026-04-25T10:32:31.278Z</time></trkpt><trkpt lat="41.52443" lon="13.1505894"><ele>183.0</ele><time>2026-04-25T10:32:32.281Z</time></trkpt><trkpt lat="41.5243699" lon="13.1508292"><ele>185.0</ele><time>2026-04-25T10:32:33.278Z</time></trkpt><trkpt lat="41.5243021" lon="13.1510671"><ele>187.0</ele><time>2026-04-25T10:32:34.279Z</time></trkpt><trkpt lat="41.5242303" lon="13.1513005"><ele>189.0</ele><time>2026-04-25T10:32:35.281Z</time></trkpt><trkpt lat="41.5241521" lon="13.1515309"><ele>192.0</ele><time>2026-04-25T10:32:36.278Z</time></trkpt><trkpt lat="41.5240615" lon="13.1517615"><ele>195.0</ele><time>2026-04-25T10:32:37.278Z</time></trkpt><trkpt lat="41.5239606" lon="13.151993"><ele>198.0</ele><time>2026-04-25T10:32:38.272Z</time></trkpt><trkpt lat="41.523851" lon="13.1522272"><ele>193.66666666666666</ele><time>2026-04-25T10:32:39.28Z</time></trkpt><trkpt lat="41.5237413" lon="13.1524546"><ele>189.33333333333331</ele><time>2026-04-25T10:32:40.278Z</time></trkpt><trkpt lat="41.5236411" lon="13.1526552"><ele>185.0</ele><time>2026-04-25T10:32:41.277Z</time></trkpt><trkpt lat="41.5235431" lon="13.1528439"><ele>185.0</ele><time>2026-04-25T10:32:42.282Z</time></trkpt><trkpt lat="41.5234462" lon="13.1530199"><ele>185.0</ele><time>2026-04-25T10:32:43.275Z</time></trkpt><trkpt lat="41.5233572" lon="13.1531735"><ele>185.0</ele><time>2026-04-25T10:32:44.282Z</time></trkpt><trkpt lat="41.5232758" lon="13.1533074"><ele>185.0</ele><time>2026-04-25T10:32:45.276Z</time></trkpt><trkpt lat="41.5232065" lon="13.1534448"><ele>188.25</ele><time>2026-04-25T10:32:46.279Z</time></trkpt><trkpt lat="41.523149" lon="13.1535983"><ele>191.5</ele><time>2026-04-25T10:32:47.275Z</time></trkpt><trkpt lat="41.5231017" lon="13.1537546"><ele>194.75</ele><time>2026-04-25T10:32:48.274Z</time></trkpt><trkpt lat="41.5230766" lon="13.1539279"><ele>198.0</ele><time>2026-04-25T10:32:49.279Z</time></trkpt><trkpt lat="41.5230727" lon="13.1541235"><ele>202.33333333333331</ele><time>2026-04-25T10:32:50.278Z</time></trkpt><trkpt lat="41.5230689" lon="13.1543353"><ele>206.66666666666666</ele><time>2026-04-25T10:32:51.277Z</time></trkpt><trkpt lat="41.523053" lon="13.1545474"><ele>211.0</ele><time>2026-04-25T10:32:52.284Z</time></trkpt><trkpt lat="41.5230314" lon="13.15476"><ele>212.66666666666666</ele><time>2026-04-25T10:32:53.278Z</time></trkpt><trkpt lat="41.5229861" lon="13.1549644"><ele>214.33333333333331</ele><time>2026-04-25T10:32:54.275Z</time></trkpt><trkpt lat="41.5229323" lon="13.1551607"><ele>216.0</ele><time>2026-04-25T10:32:55.281Z</time></trkpt><trkpt lat="41.5228859" lon="13.1553558"><ele>206.33333333333334</ele><time>2026-04-25T10:32:56.28Z</time></trkpt><trkpt lat="41.5228429" lon="13.1555521"><ele>196.66666666666669</ele><time>2026-04-25T10:32:57.288Z</time></trkpt><trkpt lat="41.52281" lon="13.155742"><ele>187.0</ele><time>2026-04-25T10:32:58.28Z</time></trkpt><trkpt lat="41.5227904" lon="13.1559481"><ele>187.0</ele><time>2026-04-25T10:32:59.29Z</time></trkpt><trkpt lat="41.5227825" lon="13.1561565"><ele>187.0</ele><time>2026-04-25T10:33:00.28Z</time></trkpt><trkpt lat="41.5227744" lon="13.1563423"><ele>187.0</ele><time>2026-04-25T10:33:01.291Z</time></trkpt><trkpt lat="41.5227684" lon="13.156537"><ele>187.0</ele><time>2026-04-25T10:33:02.275Z</time></trkpt><trkpt lat="41.5227682" lon="13.1567317"><ele>187.25</ele><time>2026-04-25T10:33:03.28Z</time></trkpt><trkpt lat="41.5227767" lon="13.1569208"><ele>187.5</ele><time>2026-04-25T10:33:04.285Z</time></trkpt><trkpt lat="41.5227904" lon="13.1570967"><ele>187.75</ele><time>2026-04-25T10:33:05.291Z</time></trkpt><trkpt lat="41.5228067" lon="13.157254"><ele>188.0</ele><time>2026-04-25T10:33:06.281Z</time></trkpt><trkpt lat="41.5228139" lon="13.157388"><ele>187.16666666666666</ele><time>2026-04-25T10:33:07.282Z</time></trkpt><trkpt lat="41.5228135" lon="13.1574929"><ele>186.33333333333331</ele><time>2026-04-25T10:33:08.281Z</time></trkpt><trkpt lat="41.5227957" lon="13.1576492"><ele>185.5</ele><time>2026-04-25T10:33:10.277Z</time></trkpt><trkpt lat="41.5227732" lon="13.1577447"><ele>184.66666666666666</ele><time>2026-04-25T10:33:11.288Z</time></trkpt><trkpt lat="41.5227458" lon="13.1578586"><ele>183.83333333333334</ele><time>2026-04-25T10:33:12.29Z</time></trkpt><trkpt lat="41.5227317" lon="13.157974"><ele>183.0</ele><time>2026-04-25T10:33:13.281Z</time></trkpt><trkpt lat="41.5227416" lon="13.1580851"><ele>181.25</ele><time>2026-04-25T10:33:14.282Z</time></trkpt><trkpt lat="41.5227691" lon="13.1582168"><ele>179.5</ele><time>2026-04-25T10:33:15.288Z</time></trkpt><trkpt lat="41.5228015" lon="13.1583804"><ele>177.75</ele><time>2026-04-25T10:33:16.281Z</time></trkpt><trkpt lat="41.5228396" lon="13.1585573"><ele>176.0</ele><time>2026-04-25T10:33:17.289Z</time></trkpt><trkpt lat="41.5228724" lon="13.1587126"><ele>176.0</ele><time>2026-04-25T10:33:18.281Z</time></trkpt><trkpt lat="41.5228931" lon="13.1588586"><ele>176.0</ele><time>2026-04-25T10:33:19.287Z</time></trkpt><trkpt lat="41.5228905" lon="13.1590061"><ele>176.0</ele><time>2026-04-25T10:33:20.281Z</time></trkpt><trkpt lat="41.5228557" lon="13.1591498"><ele>176.0</ele><time>2026-04-25T10:33:21.281Z</time></trkpt><trkpt lat="41.5227944" lon="13.1593038"><ele>174.75</ele><time>2026-04-25T10:33:22.285Z</time></trkpt><trkpt lat="41.5227328" lon="13.1594791"><ele>173.5</ele><time>2026-04-25T10:33:23.279Z</time></trkpt><trkpt lat="41.5226938" lon="13.1596474"><ele>172.25</ele><time>2026-04-25T10:33:24.288Z</time></trkpt><trkpt lat="41.522673" lon="13.1598176"><ele>171.0</ele><time>2026-04-25T10:33:25.279Z</time></trkpt><trkpt lat="41.5226592" lon="13.1599865"><ele>171.0</ele><time>2026-04-25T10:33:26.285Z</time></trkpt><trkpt lat="41.5226637" lon="13.1601393"><ele>171.0</ele><time>2026-04-25T10:33:27.276Z</time></trkpt><trkpt lat="41.5226941" lon="13.1602954"><ele>171.0</ele><time>2026-04-25T10:33:28.289Z</time></trkpt><trkpt lat="41.5227508" lon="13.1604634"><ele>171.0</ele><time>2026-04-25T10:33:29.288Z</time></trkpt><trkpt lat="41.522832" lon="13.1606351"><ele>175.33333333333334</ele><time>2026-04-25T10:33:30.281Z</time></trkpt><trkpt lat="41.5229335" lon="13.1608"><ele>179.66666666666669</ele><time>2026-04-25T10:33:31.289Z</time></trkpt><trkpt lat="41.5230439" lon="13.1609588"><ele>184.0</ele><time>2026-04-25T10:33:32.28Z</time></trkpt><trkpt lat="41.5231633" lon="13.1611134"><ele>184.0</ele><time>2026-04-25T10:33:33.29Z</time></trkpt><trkpt lat="41.5232983" lon="13.1612592"><ele>184.0</ele><time>2026-04-25T10:33:34.281Z</time></trkpt><trkpt lat="41.5234497" lon="13.1613974"><ele>184.0</ele><time>2026-04-25T10:33:35.277Z</time></trkpt><trkpt lat="41.5236024" lon="13.1615292"><ele>181.5</ele><time>2026-04-25T10:33:36.28Z</time></trkpt><trkpt lat="41.5237424" lon="13.1616539"><ele>179.0</ele><time>2026-04-25T10:33:37.28Z</time></trkpt><trkpt lat="41.5238617" lon="13.1617634"><ele>176.5</ele><time>2026-04-25T10:33:38.282Z</time></trkpt><trkpt lat="41.5239755" lon="13.1618627"><ele>174.0</ele><time>2026-04-25T10:33:39.29Z</time></trkpt><trkpt lat="41.5240767" lon="13.1619554"><ele>174.0</ele><time>2026-04-25T10:33:40.281Z</time></trkpt><trkpt lat="41.5241681" lon="13.1620527"><ele>174.0</ele><time>2026-04-25T10:33:41.288Z</time></trkpt><trkpt lat="41.5242515" lon="13.1621387"><ele>174.0</ele><time>2026-04-25T10:33:42.279Z</time></trkpt><trkpt lat="41.524339" lon="13.1622205"><ele>174.0</ele><time>2026-04-25T10:33:43.276Z</time></trkpt><trkpt lat="41.5244351" lon="13.1622871"><ele>174.0</ele><time>2026-04-25T10:33:44.28Z</time></trkpt><trkpt lat="41.5245451" lon="13.1623285"><ele>174.2</ele><time>2026-04-25T10:33:45.29Z</time></trkpt><trkpt lat="41.5246546" lon="13.1623457"><ele>174.39999999999998</ele><time>2026-04-25T10:33:46.282Z</time></trkpt><trkpt lat="41.5247541" lon="13.1623444"><ele>174.6</ele><time>2026-04-25T10:33:47.293Z</time></trkpt><trkpt lat="41.5248382" lon="13.1623311"><ele>174.8</ele><time>2026-04-25T10:33:48.283Z</time></trkpt><trkpt lat="41.5249115" lon="13.1623352"><ele>175.0</ele><time>2026-04-25T10:33:49.282Z</time></trkpt><trkpt lat="41.5250055" lon="13.1624066"><ele>172.2</ele><time>2026-04-25T10:33:51.281Z</time></trkpt><trkpt lat="41.525055" lon="13.1625531"><ele>169.4</ele><time>2026-04-25T10:33:53.282Z</time></trkpt><trkpt lat="41.5251074" lon="13.1626527"><ele>166.60000000000002</ele><time>2026-04-25T10:33:55.279Z</time></trkpt><trkpt lat="41.525176" lon="13.1627749"><ele>163.8</ele><time>2026-04-25T10:33:57.382Z</time></trkpt><trkpt lat="41.5252185" lon="13.1629017"><ele>161.0</ele><time>2026-04-25T10:33:58.282Z</time></trkpt><trkpt lat="41.525251" lon="13.1630383"><ele>161.0</ele><time>2026-04-25T10:33:59.279Z</time></trkpt><trkpt lat="41.5252696" lon="13.1631601"><ele>161.0</ele><time>2026-04-25T10:34:00.282Z</time></trkpt><trkpt lat="41.5252741" lon="13.1632887"><ele>161.0</ele><time>2026-04-25T10:34:01.285Z</time></trkpt><trkpt lat="41.525252" lon="13.1634258"><ele>161.0</ele><time>2026-04-25T10:34:02.289Z</time></trkpt><trkpt lat="41.5251974" lon="13.1635814"><ele>161.0</ele><time>2026-04-25T10:34:03.282Z</time></trkpt><trkpt lat="41.5251153" lon="13.1637508"><ele>158.33333333333331</ele><time>2026-04-25T10:34:04.29Z</time></trkpt><trkpt lat="41.525021" lon="13.1639471"><ele>155.66666666666666</ele><time>2026-04-25T10:34:05.279Z</time></trkpt><trkpt lat="41.524903" lon="13.1641773"><ele>153.0</ele><time>2026-04-25T10:34:06.286Z</time></trkpt><trkpt lat="41.5247765" lon="13.1644264"><ele>153.0</ele><time>2026-04-25T10:34:07.27Z</time></trkpt><trkpt lat="41.5246415" lon="13.1646968"><ele>153.0</ele><time>2026-04-25T10:34:08.283Z</time></trkpt><trkpt lat="41.5245124" lon="13.1649637"><ele>152.33333333333334</ele><time>2026-04-25T10:34:09.281Z</time></trkpt><trkpt lat="41.5243922" lon="13.1652033"><ele>151.66666666666669</ele><time>2026-04-25T10:34:10.287Z</time></trkpt><trkpt lat="41.5242684" lon="13.1654504"><ele>151.0</ele><time>2026-04-25T10:34:11.282Z</time></trkpt><trkpt lat="41.5241603" lon="13.1656696"><ele>152.0</ele><time>2026-04-25T10:34:12.28Z</time></trkpt><trkpt lat="41.524055" lon="13.1658738"><ele>153.0</ele><time>2026-04-25T10:34:13.279Z</time></trkpt><trkpt lat="41.5239636" lon="13.1660632"><ele>154.0</ele><time>2026-04-25T10:34:14.288Z</time></trkpt><trkpt lat="41.5238785" lon="13.1662332"><ele>154.0</ele><time>2026-04-25T10:34:15.28Z</time></trkpt><trkpt lat="41.5238001" lon="13.1663905"><ele>154.0</ele><time>2026-04-25T10:34:16.288Z</time></trkpt><trkpt lat="41.5237275" lon="13.1665333"><ele>154.0</ele><time>2026-04-25T10:34:17.281Z</time></trkpt><trkpt lat="41.5236645" lon="13.1666699"><ele>154.0</ele><time>2026-04-25T10:34:18.291Z</time></trkpt><trkpt lat="41.5236137" lon="13.166799"><ele>152.5</ele><time>2026-04-25T10:34:19.283Z</time></trkpt><trkpt lat="41.5235833" lon="13.1669552"><ele>151.0</ele><time>2026-04-25T10:34:20.288Z</time></trkpt><trkpt lat="41.5235841" lon="13.1671338"><ele>149.5</ele><time>2026-04-25T10:34:21.278Z</time></trkpt><trkpt lat="41.5236048" lon="13.1673258"><ele>148.0</ele><time>2026-04-25T10:34:22.285Z</time></trkpt><trkpt lat="41.5236283" lon="13.1675533"><ele>148.0</ele><time>2026-04-25T10:34:23.279Z</time></trkpt><trkpt lat="41.5236596" lon="13.1678156"><ele>148.0</ele><time>2026-04-25T10:34:24.289Z</time></trkpt><trkpt lat="41.5236941" lon="13.1680803"><ele>148.0</ele><time>2026-04-25T10:34:25.281Z</time></trkpt><trkpt lat="41.523717" lon="13.1682764"><ele>147.8</ele><time>2026-04-25T10:34:26.28Z</time></trkpt><trkpt lat="41.5237418" lon="13.168436"><ele>147.60000000000002</ele><time>2026-04-25T10:34:27.28Z</time></trkpt><trkpt lat="41.5237435" lon="13.168577"><ele>147.39999999999998</ele><time>2026-04-25T10:34:28.285Z</time></trkpt><trkpt lat="41.5237211" lon="13.1687082"><ele>147.2</ele><time>2026-04-25T10:34:29.289Z</time></trkpt><trkpt lat="41.5236641" lon="13.1688253"><ele>147.0</ele><time>2026-04-25T10:34:30.282Z</time></trkpt><trkpt lat="41.5235672" lon="13.168918"><ele>147.0</ele><time>2026-04-25T10:34:31.289Z</time></trkpt><trkpt lat="41.5234467" lon="13.1689857"><ele>147.0</ele><time>2026-04-25T10:34:32.279Z</time></trkpt><trkpt lat="41.5233046" lon="13.1690648"><ele>147.0</ele><time>2026-04-25T10:34:33.278Z</time></trkpt><trkpt lat="41.5231541" lon="13.1691568"><ele>148.33333333333334</ele><time>2026-04-25T10:34:34.279Z</time></trkpt><trkpt lat="41.523002" lon="13.1692464"><ele>149.66666666666669</ele><time>2026-04-25T10:34:35.281Z</time></trkpt><trkpt lat="41.5228432" lon="13.1693471"><ele>151.0</ele><time>2026-04-25T10:34:36.281Z</time></trkpt><trkpt lat="41.5226895" lon="13.1694465"><ele>148.33333333333334</ele><time>2026-04-25T10:34:37.283Z</time></trkpt><trkpt lat="41.5225331" lon="13.1695592"><ele>145.66666666666666</ele><time>2026-04-25T10:34:38.284Z</time></trkpt><trkpt lat="41.5223838" lon="13.1696733"><ele>143.0</ele><time>2026-04-25T10:34:39.276Z</time></trkpt><trkpt lat="41.5222386" lon="13.1697935"><ele>142.0</ele><time>2026-04-25T10:34:40.286Z</time></trkpt><trkpt lat="41.522096" lon="13.1699216"><ele>141.0</ele><time>2026-04-25T10:34:41.28Z</time></trkpt><trkpt lat="41.5219527" lon="13.1700609"><ele>140.0</ele><time>2026-04-25T10:34:42.284Z</time></trkpt><trkpt lat="41.5218043" lon="13.1701978"><ele>138.66666666666666</ele><time>2026-04-25T10:34:43.284Z</time></trkpt><trkpt lat="41.5216565" lon="13.1703417"><ele>137.33333333333334</ele><time>2026-04-25T10:34:44.282Z</time></trkpt><trkpt lat="41.521505" lon="13.1704864"><ele>136.0</ele><time>2026-04-25T10:34:45.289Z</time></trkpt><trkpt lat="41.5213603" lon="13.1706261"><ele>133.33333333333334</ele><time>2026-04-25T10:34:46.278Z</time></trkpt><trkpt lat="41.5212296" lon="13.170756"><ele>130.66666666666666</ele><time>2026-04-25T10:34:47.288Z</time></trkpt><trkpt lat="41.5211064" lon="13.170882"><ele>128.0</ele><time>2026-04-25T10:34:48.284Z</time></trkpt><trkpt lat="41.5209976" lon="13.1709939"><ele>128.0</ele><time>2026-04-25T10:34:49.288Z</time></trkpt><trkpt lat="41.5209024" lon="13.1711068"><ele>128.0</ele><time>2026-04-25T10:34:50.287Z</time></trkpt><trkpt lat="41.5208112" lon="13.1712294"><ele>128.0</ele><time>2026-04-25T10:34:51.279Z</time></trkpt><trkpt lat="41.5207298" lon="13.1713647"><ele>128.0</ele><time>2026-04-25T10:34:52.29Z</time></trkpt><trkpt lat="41.5206578" lon="13.171509"><ele>127.25</ele><time>2026-04-25T10:34:53.287Z</time></trkpt><trkpt lat="41.5205882" lon="13.1716585"><ele>126.5</ele><time>2026-04-25T10:34:54.28Z</time></trkpt><trkpt lat="41.5205197" lon="13.1718015"><ele>125.75</ele><time>2026-04-25T10:34:55.281Z</time></trkpt><trkpt lat="41.5204584" lon="13.1719447"><ele>125.0</ele><time>2026-04-25T10:34:56.281Z</time></trkpt><trkpt lat="41.5203967" lon="13.1720664"><ele>124.49999999999999</ele><time>2026-04-25T10:34:57.281Z</time></trkpt><trkpt lat="41.5203381" lon="13.1721699"><ele>124.0</ele><time>2026-04-25T10:34:58.282Z</time></trkpt><trkpt lat="41.5202903" lon="13.1722557"><ele>123.5</ele><time>2026-04-25T10:34:59.281Z</time></trkpt><trkpt lat="41.5202256" lon="13.1723705"><ele>123.0</ele><time>2026-04-25T10:35:01.277Z</time></trkpt><trkpt lat="41.5201839" lon="13.1724366"><ele>122.49999999999999</ele><time>2026-04-25T10:36:03.282Z</time></trkpt><trkpt lat="41.52016" lon="13.1725304"><ele>122.0</ele><time>2026-04-25T10:36:08.282Z</time></trkpt><trkpt lat="41.5201822" lon="13.172611"><ele>121.6</ele><time>2026-04-25T10:36:11.282Z</time></trkpt><trkpt lat="41.5202908" lon="13.1726608"><ele>121.19999999999999</ele><time>2026-04-25T10:36:13.281Z</time></trkpt><trkpt lat="41.5203573" lon="13.1726853"><ele>120.8</ele><time>2026-04-25T10:36:14.282Z</time></trkpt><trkpt lat="41.5204557" lon="13.1727254"><ele>120.4</ele><time>2026-04-25T10:36:15.282Z</time></trkpt><trkpt lat="41.5205763" lon="13.1727755"><ele>120.0</ele><time>2026-04-25T10:36:16.281Z</time></trkpt><trkpt lat="41.5207057" lon="13.1728389"><ele>120.0</ele><time>2026-04-25T10:36:17.282Z</time></trkpt><trkpt lat="41.5208311" lon="13.1729151"><ele>120.0</ele><time>2026-04-25T10:36:18.282Z</time></trkpt><trkpt lat="41.5209429" lon="13.1730087"><ele>120.0</ele><time>2026-04-25T10:36:19.28Z</time></trkpt><trkpt lat="41.521036" lon="13.1731242"><ele>120.0</ele><time>2026-04-25T10:36:20.279Z</time></trkpt><trkpt lat="41.5211204" lon="13.1732522"><ele>119.66666666666666</ele><time>2026-04-25T10:36:21.281Z</time></trkpt><trkpt lat="41.5212151" lon="13.1733716"><ele>119.33333333333333</ele><time>2026-04-25T10:36:22.28Z</time></trkpt><trkpt lat="41.5213415" lon="13.173475"><ele>119.0</ele><time>2026-04-25T10:36:23.279Z</time></trkpt><trkpt lat="41.5214981" lon="13.1735682"><ele>119.0</ele><time>2026-04-25T10:36:24.288Z</time></trkpt><trkpt lat="41.5216997" lon="13.1736648"><ele>119.0</ele><time>2026-04-25T10:36:25.281Z</time></trkpt><trkpt lat="41.5218904" lon="13.1737512"><ele>119.0</ele><time>2026-04-25T10:36:26.279Z</time></trkpt><trkpt lat="41.5220943" lon="13.1738432"><ele>119.66666666666666</ele><time>2026-04-25T10:36:27.282Z</time></trkpt><trkpt lat="41.5222962" lon="13.1739362"><ele>120.33333333333334</ele><time>2026-04-25T10:36:28.281Z</time></trkpt><trkpt lat="41.5225014" lon="13.1740227"><ele>121.0</ele><time>2026-04-25T10:36:29.279Z</time></trkpt><trkpt lat="41.5227051" lon="13.1741126"><ele>124.5</ele><time>2026-04-25T10:36:30.281Z</time></trkpt><trkpt lat="41.5229174" lon="13.1741996"><ele>128.0</ele><time>2026-04-25T10:36:31.284Z</time></trkpt><trkpt lat="41.5231538" lon="13.1743077"><ele>128.0</ele><time>2026-04-25T10:36:32.276Z</time></trkpt><trkpt lat="41.523375" lon="13.1744085"><ele>128.0</ele><time>2026-04-25T10:36:33.279Z</time></trkpt><trkpt lat="41.5235738" lon="13.1745013"><ele>128.0</ele><time>2026-04-25T10:36:34.277Z</time></trkpt><trkpt lat="41.523764" lon="13.1745879"><ele>130.0</ele><time>2026-04-25T10:36:35.275Z</time></trkpt><trkpt lat="41.5239456" lon="13.1746741"><ele>132.0</ele><time>2026-04-25T10:36:36.277Z</time></trkpt><trkpt lat="41.5241241" lon="13.1747712"><ele>134.0</ele><time>2026-04-25T10:36:37.284Z</time></trkpt><trkpt lat="41.5243045" lon="13.1748836"><ele>135.66666666666666</ele><time>2026-04-25T10:36:38.28Z</time></trkpt><trkpt lat="41.5244746" lon="13.1750136"><ele>137.33333333333334</ele><time>2026-04-25T10:36:39.278Z</time></trkpt><trkpt lat="41.5246406" lon="13.1751471"><ele>139.0</ele><time>2026-04-25T10:36:40.278Z</time></trkpt><trkpt lat="41.5248049" lon="13.1752748"><ele>139.0</ele><time>2026-04-25T10:36:41.279Z</time></trkpt><trkpt lat="41.5249591" lon="13.1753979"><ele>139.0</ele><time>2026-04-25T10:36:42.282Z</time></trkpt><trkpt lat="41.525142" lon="13.1755069"><ele>139.0</ele><time>2026-04-25T10:36:43.273Z</time></trkpt><trkpt lat="41.5253321" lon="13.1756034"><ele>143.0</ele><time>2026-04-25T10:36:44.277Z</time></trkpt><trkpt lat="41.5255076" lon="13.1756909"><ele>147.0</ele><time>2026-04-25T10:36:45.278Z</time></trkpt><trkpt lat="41.5256832" lon="13.1757961"><ele>151.0</ele><time>2026-04-25T10:36:46.276Z</time></trkpt><trkpt lat="41.5258589" lon="13.1759268"><ele>151.0</ele><time>2026-04-25T10:36:47.276Z</time></trkpt><trkpt lat="41.5260444" lon="13.176081"><ele>151.0</ele><time>2026-04-25T10:36:48.28Z</time></trkpt><trkpt lat="41.5262365" lon="13.1762586"><ele>150.5</ele><time>2026-04-25T10:36:49.275Z</time></trkpt><trkpt lat="41.5264291" lon="13.1764586"><ele>150.0</ele><time>2026-04-25T10:36:50.278Z</time></trkpt><trkpt lat="41.5266033" lon="13.1766375"><ele>152.33333333333334</ele><time>2026-04-25T10:36:51.277Z</time></trkpt><trkpt lat="41.5267539" lon="13.1768017"><ele>154.66666666666669</ele><time>2026-04-25T10:36:52.294Z</time></trkpt><trkpt lat="41.5268883" lon="13.176953"><ele>157.0</ele><time>2026-04-25T10:36:53.28Z</time></trkpt><trkpt lat="41.5270075" lon="13.1770737"><ele>157.25</ele><time>2026-04-25T10:36:54.278Z</time></trkpt><trkpt lat="41.5271056" lon="13.1771798"><ele>157.5</ele><time>2026-04-25T10:36:55.283Z</time></trkpt><trkpt lat="41.5272044" lon="13.1772622"><ele>157.75</ele><time>2026-04-25T10:36:56.286Z</time></trkpt><trkpt lat="41.5273149" lon="13.1773201"><ele>158.0</ele><time>2026-04-25T10:36:57.28Z</time></trkpt><trkpt lat="41.5274278" lon="13.1773254"><ele>158.0</ele><time>2026-04-25T10:36:58.291Z</time></trkpt><trkpt lat="41.5275424" lon="13.1772841"><ele>158.0</ele><time>2026-04-25T10:36:59.279Z</time></trkpt><trkpt lat="41.5276373" lon="13.1771961"><ele>158.0</ele><time>2026-04-25T10:37:00.284Z</time></trkpt><trkpt lat="41.5277106" lon="13.1771115"><ele>158.0</ele><time>2026-04-25T10:37:01.278Z</time></trkpt><trkpt lat="41.5277813" lon="13.1770738"><ele>158.0</ele><time>2026-04-25T10:37:02.281Z</time></trkpt><trkpt lat="41.5278562" lon="13.1770849"><ele>159.8</ele><time>2026-04-25T10:37:03.29Z</time></trkpt><trkpt lat="41.5279162" lon="13.1771437"><ele>161.60000000000002</ele><time>2026-04-25T10:37:04.284Z</time></trkpt><trkpt lat="41.5279638" lon="13.1772523"><ele>163.39999999999998</ele><time>2026-04-25T10:37:05.289Z</time></trkpt><trkpt lat="41.5279948" lon="13.1774072"><ele>165.2</ele><time>2026-04-25T10:37:06.289Z</time></trkpt><trkpt lat="41.5280233" lon="13.1775894"><ele>167.0</ele><time>2026-04-25T10:37:07.282Z</time></trkpt><trkpt lat="41.5280583" lon="13.177757"><ele>169.0</ele><time>2026-04-25T10:37:08.287Z</time></trkpt><trkpt lat="41.5281198" lon="13.1779278"><ele>171.0</ele><time>2026-04-25T10:37:09.28Z</time></trkpt><trkpt lat="41.5282133" lon="13.1781025"><ele>173.0</ele><time>2026-04-25T10:37:10.283Z</time></trkpt><trkpt lat="41.5283149" lon="13.1782917"><ele>174.75</ele><time>2026-04-25T10:37:11.282Z</time></trkpt><trkpt lat="41.5284106" lon="13.1784794"><ele>176.5</ele><time>2026-04-25T10:37:12.288Z</time></trkpt><trkpt lat="41.5284909" lon="13.1786399"><ele>178.25</ele><time>2026-04-25T10:37:13.283Z</time></trkpt><trkpt lat="41.5285607" lon="13.1787721"><ele>180.0</ele><time>2026-04-25T10:37:14.281Z</time></trkpt><trkpt lat="41.5286164" lon="13.1788853"><ele>180.0</ele><time>2026-04-25T10:37:15.288Z</time></trkpt><trkpt lat="41.5286658" lon="13.1789884"><ele>180.0</ele><time>2026-04-25T10:37:16.286Z</time></trkpt><trkpt lat="41.5287181" lon="13.1790661"><ele>180.0</ele><time>2026-04-25T10:37:17.286Z</time></trkpt><trkpt lat="41.5288225" lon="13.1790701"><ele>180.0</ele><time>2026-04-25T10:37:19.292Z</time></trkpt><trkpt lat="41.5288519" lon="13.178994"><ele>180.0</ele><time>2026-04-25T10:37:20.282Z</time></trkpt><trkpt lat="41.5288483" lon="13.1788797"><ele>180.0</ele><time>2026-04-25T10:37:21.281Z</time></trkpt><trkpt lat="41.5288305" lon="13.1787733"><ele>182.8</ele><time>2026-04-25T10:37:22.278Z</time></trkpt><trkpt lat="41.5287775" lon="13.1786559"><ele>185.6</ele><time>2026-04-25T10:37:23.279Z</time></trkpt><trkpt lat="41.528775" lon="13.1785242"><ele>188.39999999999998</ele><time>2026-04-25T10:37:24.289Z</time></trkpt><trkpt lat="41.5288101" lon="13.1784057"><ele>191.2</ele><time>2026-04-25T10:37:25.284Z</time></trkpt><trkpt lat="41.5288771" lon="13.1783353"><ele>194.0</ele><time>2026-04-25T10:37:26.281Z</time></trkpt><trkpt lat="41.5289836" lon="13.1783532"><ele>194.0</ele><time>2026-04-25T10:37:28.279Z</time></trkpt><trkpt lat="41.5290308" lon="13.1785298"><ele>194.0</ele><time>2026-04-25T10:37:30.289Z</time></trkpt><trkpt lat="41.529054" lon="13.1786565"><ele>194.0</ele><time>2026-04-25T10:37:31.288Z</time></trkpt><trkpt lat="41.529104" lon="13.1787977"><ele>194.0</ele><time>2026-04-25T10:37:32.288Z</time></trkpt><trkpt lat="41.5291809" lon="13.1789415"><ele>194.5</ele><time>2026-04-25T10:37:33.287Z</time></trkpt><trkpt lat="41.5292743" lon="13.1790833"><ele>195.0</ele><time>2026-04-25T10:37:34.278Z</time></trkpt><trkpt lat="41.529357" lon="13.1792101"><ele>195.5</ele><time>2026-04-25T10:37:35.28Z</time></trkpt><trkpt lat="41.529427" lon="13.1792993"><ele>196.0</ele><time>2026-04-25T10:37:36.289Z</time></trkpt><trkpt lat="41.5295056" lon="13.1793545"><ele>198.0</ele><time>2026-04-25T10:37:37.282Z</time></trkpt><trkpt lat="41.5295949" lon="13.1793724"><ele>200.0</ele><time>2026-04-25T10:37:38.282Z</time></trkpt><trkpt lat="41.5296954" lon="13.1793438"><ele>202.0</ele><time>2026-04-25T10:37:39.289Z</time></trkpt><trkpt lat="41.5298077" lon="13.1793064"><ele>204.0</ele><time>2026-04-25T10:37:40.281Z</time></trkpt><trkpt lat="41.529949" lon="13.1792841"><ele>204.0</ele><time>2026-04-25T10:37:41.286Z</time></trkpt><trkpt lat="41.5301004" lon="13.1792841"><ele>204.0</ele><time>2026-04-25T10:37:42.282Z</time></trkpt><trkpt lat="41.5302712" lon="13.1793081"><ele>204.0</ele><time>2026-04-25T10:37:43.289Z</time></trkpt><trkpt lat="41.5304638" lon="13.1793489"><ele>204.66666666666669</ele><time>2026-04-25T10:37:44.294Z</time></trkpt><trkpt lat="41.5306686" lon="13.1793931"><ele>205.33333333333334</ele><time>2026-04-25T10:37:45.282Z</time></trkpt><trkpt lat="41.5308808" lon="13.1794391"><ele>206.0</ele><time>2026-04-25T10:37:46.279Z</time></trkpt><trkpt lat="41.5310997" lon="13.1794878"><ele>206.33333333333334</ele><time>2026-04-25T10:37:47.276Z</time></trkpt><trkpt lat="41.5312978" lon="13.1795271"><ele>206.66666666666669</ele><time>2026-04-25T10:37:48.276Z</time></trkpt><trkpt lat="41.5314762" lon="13.1795594"><ele>207.0</ele><time>2026-04-25T10:37:49.276Z</time></trkpt><trkpt lat="41.5316455" lon="13.1795968"><ele>207.0</ele><time>2026-04-25T10:37:50.281Z</time></trkpt><trkpt lat="41.5318059" lon="13.1796288"><ele>207.0</ele><time>2026-04-25T10:37:51.28Z</time></trkpt><trkpt lat="41.5319543" lon="13.1796612"><ele>207.0</ele><time>2026-04-25T10:37:52.28Z</time></trkpt><trkpt lat="41.5321006" lon="13.1796892"><ele>206.25</ele><time>2026-04-25T10:37:53.28Z</time></trkpt><trkpt lat="41.5322124" lon="13.1797072"><ele>205.5</ele><time>2026-04-25T10:37:54.275Z</time></trkpt><trkpt lat="41.5323275" lon="13.1797182"><ele>204.75</ele><time>2026-04-25T10:37:55.277Z</time></trkpt><trkpt lat="41.5324421" lon="13.1797321"><ele>204.0</ele><time>2026-04-25T10:37:56.279Z</time></trkpt><trkpt lat="41.5325499" lon="13.179764"><ele>204.0</ele><time>2026-04-25T10:37:57.275Z</time></trkpt><trkpt lat="41.5326763" lon="13.1798194"><ele>204.0</ele><time>2026-04-25T10:37:58.278Z</time></trkpt><trkpt lat="41.5328028" lon="13.1798768"><ele>204.0</ele><time>2026-04-25T10:37:59.282Z</time></trkpt><trkpt lat="41.5329407" lon="13.179929"><ele>204.0</ele><time>2026-04-25T10:38:00.275Z</time></trkpt><trkpt lat="41.5330957" lon="13.1799448"><ele>208.0</ele><time>2026-04-25T10:38:01.278Z</time></trkpt><trkpt lat="41.5332452" lon="13.1799517"><ele>212.0</ele><time>2026-04-25T10:38:02.274Z</time></trkpt><trkpt lat="41.5333981" lon="13.1799526"><ele>216.0</ele><time>2026-04-25T10:38:03.278Z</time></trkpt><trkpt lat="41.5335444" lon="13.1799639"><ele>220.0</ele><time>2026-04-25T10:38:04.277Z</time></trkpt><trkpt lat="41.5336941" lon="13.1799899"><ele>219.5</ele><time>2026-04-25T10:38:05.276Z</time></trkpt><trkpt lat="41.5338394" lon="13.1800233"><ele>219.0</ele><time>2026-04-25T10:38:06.282Z</time></trkpt><trkpt lat="41.5339825" lon="13.180067"><ele>218.5</ele><time>2026-04-25T10:38:07.276Z</time></trkpt><trkpt lat="41.53412" lon="13.1801169"><ele>218.0</ele><time>2026-04-25T10:38:08.277Z</time></trkpt><trkpt lat="41.5342538" lon="13.1801675"><ele>218.0</ele><time>2026-04-25T10:38:09.28Z</time></trkpt><trkpt lat="41.5343854" lon="13.1802145"><ele>218.0</ele><time>2026-04-25T10:38:10.278Z</time></trkpt><trkpt lat="41.5345152" lon="13.1802618"><ele>218.0</ele><time>2026-04-25T10:38:11.281Z</time></trkpt><trkpt lat="41.534642" lon="13.1803077"><ele>218.0</ele><time>2026-04-25T10:38:12.278Z</time></trkpt><trkpt lat="41.5347653" lon="13.1803514"><ele>217.75</ele><time>2026-04-25T10:38:13.279Z</time></trkpt><trkpt lat="41.5348802" lon="13.1803935"><ele>217.5</ele><time>2026-04-25T10:38:14.277Z</time></trkpt><trkpt lat="41.535002" lon="13.1804269"><ele>217.25</ele><time>2026-04-25T10:38:15.275Z</time></trkpt><trkpt lat="41.5351263" lon="13.1804451"><ele>217.0</ele><time>2026-04-25T10:38:16.279Z</time></trkpt><trkpt lat="41.5352597" lon="13.1804232"><ele>218.0</ele><time>2026-04-25T10:38:17.277Z</time></trkpt><trkpt lat="41.5354258" lon="13.1803757"><ele>219.0</ele><time>2026-04-25T10:38:18.284Z</time></trkpt><trkpt lat="41.5356271" lon="13.1803252"><ele>220.0</ele><time>2026-04-25T10:38:19.277Z</time></trkpt><trkpt lat="41.5358507" lon="13.180282"><ele>220.0</ele><time>2026-04-25T10:38:20.276Z</time></trkpt><trkpt lat="41.5360533" lon="13.1802554"><ele>220.0</ele><time>2026-04-25T10:38:21.278Z</time></trkpt><trkpt lat="41.5362499" lon="13.1802383"><ele>220.0</ele><time>2026-04-25T10:38:22.281Z</time></trkpt><trkpt lat="41.5364444" lon="13.1802257"><ele>221.66666666666666</ele><time>2026-04-25T10:38:23.282Z</time></trkpt><trkpt lat="41.5366221" lon="13.1802074"><ele>223.33333333333331</ele><time>2026-04-25T10:38:24.277Z</time></trkpt><trkpt lat="41.5367909" lon="13.1801727"><ele>225.0</ele><time>2026-04-25T10:38:25.279Z</time></trkpt><trkpt lat="41.5369587" lon="13.1801196"><ele>226.66666666666669</ele><time>2026-04-25T10:38:26.282Z</time></trkpt><trkpt lat="41.5371259" lon="13.1800306"><ele>228.33333333333334</ele><time>2026-04-25T10:38:27.283Z</time></trkpt><trkpt lat="41.5372844" lon="13.1798974"><ele>230.0</ele><time>2026-04-25T10:38:28.28Z</time></trkpt><trkpt lat="41.5374482" lon="13.1797362"><ele>231.66666666666669</ele><time>2026-04-25T10:38:29.279Z</time></trkpt><trkpt lat="41.5376096" lon="13.1795736"><ele>233.33333333333331</ele><time>2026-04-25T10:38:30.28Z</time></trkpt><trkpt lat="41.5377532" lon="13.1794222"><ele>235.0</ele><time>2026-04-25T10:38:31.273Z</time></trkpt><trkpt lat="41.5378879" lon="13.1792988"><ele>236.25</ele><time>2026-04-25T10:38:32.276Z</time></trkpt><trkpt lat="41.5380081" lon="13.1792199"><ele>237.5</ele><time>2026-04-25T10:38:33.276Z</time></trkpt><trkpt lat="41.5381416" lon="13.1791725"><ele>238.75</ele><time>2026-04-25T10:38:34.281Z</time></trkpt><trkpt lat="41.5382984" lon="13.1791467"><ele>240.0</ele><time>2026-04-25T10:38:35.28Z</time></trkpt><trkpt lat="41.5384651" lon="13.179138"><ele>240.0</ele><time>2026-04-25T10:38:36.281Z</time></trkpt><trkpt lat="41.5386069" lon="13.1791283"><ele>240.0</ele><time>2026-04-25T10:38:37.283Z</time></trkpt><trkpt lat="41.5387454" lon="13.1791237"><ele>240.0</ele><time>2026-04-25T10:38:38.28Z</time></trkpt><trkpt lat="41.5388735" lon="13.1791085"><ele>240.0</ele><time>2026-04-25T10:38:39.281Z</time></trkpt><trkpt lat="41.5390034" lon="13.1790678"><ele>240.25</ele><time>2026-04-25T10:38:40.28Z</time></trkpt><trkpt lat="41.5391199" lon="13.1789961"><ele>240.5</ele><time>2026-04-25T10:38:41.279Z</time></trkpt><trkpt lat="41.5392301" lon="13.1788834"><ele>240.75</ele><time>2026-04-25T10:38:42.278Z</time></trkpt><trkpt lat="41.53933" lon="13.1787306"><ele>241.0</ele><time>2026-04-25T10:38:43.282Z</time></trkpt><trkpt lat="41.5394247" lon="13.1785759"><ele>241.0</ele><time>2026-04-25T10:38:44.28Z</time></trkpt><trkpt lat="41.5394996" lon="13.178417"><ele>241.0</ele><time>2026-04-25T10:38:45.281Z</time></trkpt><trkpt lat="41.5395544" lon="13.1782269"><ele>241.0</ele><time>2026-04-25T10:38:46.283Z</time></trkpt><trkpt lat="41.5395838" lon="13.1780075"><ele>244.33333333333331</ele><time>2026-04-25T10:38:47.28Z</time></trkpt><trkpt lat="41.5396038" lon="13.1777834"><ele>247.66666666666669</ele><time>2026-04-25T10:38:48.277Z</time></trkpt><trkpt lat="41.5396246" lon="13.1775873"><ele>251.0</ele><time>2026-04-25T10:38:49.277Z</time></trkpt><trkpt lat="41.5396497" lon="13.1774122"><ele>252.60000000000002</ele><time>2026-04-25T10:38:50.28Z</time></trkpt><trkpt lat="41.5396825" lon="13.1772669"><ele>254.20000000000002</ele><time>2026-04-25T10:38:51.281Z</time></trkpt><trkpt lat="41.5397375" lon="13.1771601"><ele>255.79999999999998</ele><time>2026-04-25T10:38:52.281Z</time></trkpt><trkpt lat="41.5398211" lon="13.1770992"><ele>257.4</ele><time>2026-04-25T10:38:53.278Z</time></trkpt><trkpt lat="41.5399305" lon="13.1770769"><ele>259.0</ele><time>2026-04-25T10:38:54.276Z</time></trkpt><trkpt lat="41.5400536" lon="13.1770958"><ele>259.0</ele><time>2026-04-25T10:38:55.274Z</time></trkpt><trkpt lat="41.5401739" lon="13.1770841"><ele>259.0</ele><time>2026-04-25T10:38:56.275Z</time></trkpt><trkpt lat="41.5402997" lon="13.1770419"><ele>259.0</ele><time>2026-04-25T10:38:57.281Z</time></trkpt><trkpt lat="41.5404114" lon="13.1769548"><ele>259.0</ele><time>2026-04-25T10:38:58.278Z</time></trkpt><trkpt lat="41.5405142" lon="13.176817"><ele>259.66666666666663</ele><time>2026-04-25T10:38:59.278Z</time></trkpt><trkpt lat="41.5406191" lon="13.1766589"><ele>260.3333333333333</ele><time>2026-04-25T10:39:00.278Z</time></trkpt><trkpt lat="41.5407431" lon="13.1765181"><ele>261.0</ele><time>2026-04-25T10:39:01.282Z</time></trkpt><trkpt lat="41.5408895" lon="13.1763797"><ele>261.3333333333333</ele><time>2026-04-25T10:39:02.283Z</time></trkpt><trkpt lat="41.5410193" lon="13.1762293"><ele>261.66666666666663</ele><time>2026-04-25T10:39:03.279Z</time></trkpt><trkpt lat="41.5411321" lon="13.1760685"><ele>262.0</ele><time>2026-04-25T10:39:04.284Z</time></trkpt><trkpt lat="41.5412217" lon="13.175918"><ele>264.0</ele><time>2026-04-25T10:39:05.283Z</time></trkpt><trkpt lat="41.5412905" lon="13.1757494"><ele>266.0</ele><time>2026-04-25T10:39:06.282Z</time></trkpt><trkpt lat="41.5413306" lon="13.1755656"><ele>268.0</ele><time>2026-04-25T10:39:07.283Z</time></trkpt><trkpt lat="41.5413462" lon="13.1753569"><ele>270.0</ele><time>2026-04-25T10:39:08.28Z</time></trkpt><trkpt lat="41.5413337" lon="13.1751511"><ele>270.0</ele><time>2026-04-25T10:39:09.282Z</time></trkpt><trkpt lat="41.5413047" lon="13.1749665"><ele>270.0</ele><time>2026-04-25T10:39:10.28Z</time></trkpt><trkpt lat="41.5412948" lon="13.1748065"><ele>270.0</ele><time>2026-04-25T10:39:11.278Z</time></trkpt><trkpt lat="41.541312" lon="13.174646"><ele>270.0</ele><time>2026-04-25T10:39:12.29Z</time></trkpt><trkpt lat="41.5413599" lon="13.1744931"><ele>270.0</ele><time>2026-04-25T10:39:13.281Z</time></trkpt><trkpt lat="41.5414276" lon="13.1743503"><ele>270.0</ele><time>2026-04-25T10:39:14.286Z</time></trkpt><trkpt lat="41.5415348" lon="13.1741915"><ele>270.0</ele><time>2026-04-25T10:39:15.283Z</time></trkpt><trkpt lat="41.5416543" lon="13.1740133"><ele>270.6666666666667</ele><time>2026-04-25T10:39:16.292Z</time></trkpt><trkpt lat="41.5417935" lon="13.1738136"><ele>271.33333333333337</ele><time>2026-04-25T10:39:17.287Z</time></trkpt><trkpt lat="41.5419429" lon="13.173588"><ele>272.0</ele><time>2026-04-25T10:39:18.281Z</time></trkpt><trkpt lat="41.5420873" lon="13.1733807"><ele>272.0</ele><time>2026-04-25T10:39:19.279Z</time></trkpt><trkpt lat="41.5422158" lon="13.1731919"><ele>272.0</ele><time>2026-04-25T10:39:20.281Z</time></trkpt><trkpt lat="41.5423395" lon="13.1730259"><ele>272.0</ele><time>2026-04-25T10:39:21.279Z</time></trkpt><trkpt lat="41.5424657" lon="13.172892"><ele>271.25</ele><time>2026-04-25T10:39:22.281Z</time></trkpt><trkpt lat="41.5425975" lon="13.1728001"><ele>270.5</ele><time>2026-04-25T10:39:23.283Z</time></trkpt><trkpt lat="41.5427263" lon="13.1727369"><ele>269.75</ele><time>2026-04-25T10:39:24.282Z</time></trkpt><trkpt lat="41.5428674" lon="13.1726994"><ele>269.0</ele><time>2026-04-25T10:39:25.279Z</time></trkpt><trkpt lat="41.543012" lon="13.1726934"><ele>269.0</ele><time>2026-04-25T10:39:26.283Z</time></trkpt><trkpt lat="41.5431603" lon="13.172722"><ele>269.0</ele><time>2026-04-25T10:39:27.28Z</time></trkpt><trkpt lat="41.5433004" lon="13.1727887"><ele>269.0</ele><time>2026-04-25T10:39:28.282Z</time></trkpt><trkpt lat="41.5434423" lon="13.1728875"><ele>269.0</ele><time>2026-04-25T10:39:29.276Z</time></trkpt><trkpt lat="41.5435859" lon="13.1730122"><ele>269.0</ele><time>2026-04-25T10:39:30.273Z</time></trkpt><trkpt lat="41.5437347" lon="13.1731444"><ele>269.0</ele><time>2026-04-25T10:39:31.284Z</time></trkpt><trkpt lat="41.5438783" lon="13.1732733"><ele>271.0</ele><time>2026-04-25T10:39:32.28Z</time></trkpt><trkpt lat="41.5440084" lon="13.1733922"><ele>273.0</ele><time>2026-04-25T10:39:33.281Z</time></trkpt><trkpt lat="41.5441193" lon="13.1734914"><ele>275.0</ele><time>2026-04-25T10:39:34.283Z</time></trkpt><trkpt lat="41.5442134" lon="13.1735682"><ele>277.0</ele><time>2026-04-25T10:39:35.281Z</time></trkpt><trkpt lat="41.5442975" lon="13.1736221"><ele>277.0</ele><time>2026-04-25T10:39:36.278Z</time></trkpt><trkpt lat="41.5443709" lon="13.173633"><ele>277.0</ele><time>2026-04-25T10:39:37.278Z</time></trkpt><trkpt lat="41.5444388" lon="13.1736024"><ele>277.0</ele><time>2026-04-25T10:39:38.28Z</time></trkpt><trkpt lat="41.5445094" lon="13.1735253"><ele>277.0</ele><time>2026-04-25T10:39:39.282Z</time></trkpt><trkpt lat="41.544581" lon="13.173418"><ele>277.0</ele><time>2026-04-25T10:39:40.279Z</time></trkpt><trkpt lat="41.5446188" lon="13.1733404"><ele>277.0</ele><time>2026-04-25T10:39:41.278Z</time></trkpt><trkpt lat="41.5446306" lon="13.1732505"><ele>276.2</ele><time>2026-04-25T10:39:42.28Z</time></trkpt><trkpt lat="41.5445985" lon="13.1731511"><ele>275.4</ele><time>2026-04-25T10:39:43.28Z</time></trkpt><trkpt lat="41.5445316" lon="13.1730721"><ele>274.6</ele><time>2026-04-25T10:39:44.277Z</time></trkpt><trkpt lat="41.5444517" lon="13.1729873"><ele>273.8</ele><time>2026-04-25T10:39:45.281Z</time></trkpt><trkpt lat="41.5443896" lon="13.1728793"><ele>273.0</ele><time>2026-04-25T10:39:46.282Z</time></trkpt><trkpt lat="41.5443461" lon="13.1727323"><ele>273.0</ele><time>2026-04-25T10:39:47.291Z</time></trkpt><trkpt lat="41.5443291" lon="13.1725653"><ele>273.0</ele><time>2026-04-25T10:39:48.287Z</time></trkpt><trkpt lat="41.5443368" lon="13.1724007"><ele>273.0</ele><time>2026-04-25T10:39:49.291Z</time></trkpt><trkpt lat="41.5443662" lon="13.1722521"><ele>273.0</ele><time>2026-04-25T10:39:50.289Z</time></trkpt><trkpt lat="41.544428" lon="13.1721353"><ele>273.0</ele><time>2026-04-25T10:39:51.289Z</time></trkpt><trkpt lat="41.5445103" lon="13.1720516"><ele>273.0</ele><time>2026-04-25T10:39:52.289Z</time></trkpt><trkpt lat="41.5446188" lon="13.1719852"><ele>273.0</ele><time>2026-04-25T10:39:53.29Z</time></trkpt><trkpt lat="41.5447562" lon="13.1719454"><ele>273.0</ele><time>2026-04-25T10:39:54.277Z</time></trkpt><trkpt lat="41.5449167" lon="13.1719126"><ele>274.6666666666667</ele><time>2026-04-25T10:39:55.275Z</time></trkpt><trkpt lat="41.5450726" lon="13.1718747"><ele>276.33333333333337</ele><time>2026-04-25T10:39:56.278Z</time></trkpt><trkpt lat="41.5452678" lon="13.1718445"><ele>278.0</ele><time>2026-04-25T10:39:57.278Z</time></trkpt><trkpt lat="41.5454756" lon="13.1718156"><ele>279.0</ele><time>2026-04-25T10:39:58.28Z</time></trkpt><trkpt lat="41.5456813" lon="13.1717803"><ele>280.0</ele><time>2026-04-25T10:39:59.279Z</time></trkpt><trkpt lat="41.5458894" lon="13.1717402"><ele>281.0</ele><time>2026-04-25T10:40:00.278Z</time></trkpt><trkpt lat="41.5461153" lon="13.1716966"><ele>282.0</ele><time>2026-04-25T10:40:01.28Z</time></trkpt><trkpt lat="41.5463405" lon="13.1716654"><ele>283.0</ele><time>2026-04-25T10:40:02.283Z</time></trkpt><trkpt lat="41.5465429" lon="13.171638"><ele>284.0</ele><time>2026-04-25T10:40:03.276Z</time></trkpt><trkpt lat="41.5467319" lon="13.1716177"><ele>284.0</ele><time>2026-04-25T10:40:04.281Z</time></trkpt><trkpt lat="41.5469191" lon="13.1716077"><ele>284.0</ele><time>2026-04-25T10:40:05.279Z</time></trkpt><trkpt lat="41.5471021" lon="13.1716077"><ele>284.0</ele><time>2026-04-25T10:40:06.279Z</time></trkpt><trkpt lat="41.5472776" lon="13.1716155"><ele>285.6666666666667</ele><time>2026-04-25T10:40:07.284Z</time></trkpt><trkpt lat="41.5474556" lon="13.171622"><ele>287.3333333333333</ele><time>2026-04-25T10:40:08.278Z</time></trkpt><trkpt lat="41.5476383" lon="13.1716275"><ele>289.0</ele><time>2026-04-25T10:40:09.279Z</time></trkpt><trkpt lat="41.5478165" lon="13.1716356"><ele>290.25</ele><time>2026-04-25T10:40:10.273Z</time></trkpt><trkpt lat="41.5479801" lon="13.171644"><ele>291.5</ele><time>2026-04-25T10:40:11.282Z</time></trkpt><trkpt lat="41.5481232" lon="13.1716443"><ele>292.75</ele><time>2026-04-25T10:40:12.278Z</time></trkpt><trkpt lat="41.5482527" lon="13.171621"><ele>294.0</ele><time>2026-04-25T10:40:13.284Z</time></trkpt><trkpt lat="41.5483734" lon="13.1715629"><ele>294.6666666666667</ele><time>2026-04-25T10:40:14.281Z</time></trkpt><trkpt lat="41.5484896" lon="13.1714627"><ele>295.33333333333337</ele><time>2026-04-25T10:40:15.281Z</time></trkpt><trkpt lat="41.5485993" lon="13.1713209"><ele>296.0</ele><time>2026-04-25T10:40:16.28Z</time></trkpt><trkpt lat="41.5487127" lon="13.1711553"><ele>296.0</ele><time>2026-04-25T10:40:17.28Z</time></trkpt><trkpt lat="41.5488346" lon="13.1709884"><ele>296.0</ele><time>2026-04-25T10:40:18.28Z</time></trkpt><trkpt lat="41.5489612" lon="13.1708253"><ele>296.0</ele><time>2026-04-25T10:40:19.282Z</time></trkpt><trkpt lat="41.5490748" lon="13.1706652"><ele>295.25</ele><time>2026-04-25T10:40:20.279Z</time></trkpt><trkpt lat="41.5491781" lon="13.1705272"><ele>294.5</ele><time>2026-04-25T10:40:21.282Z</time></trkpt><trkpt lat="41.5492753" lon="13.1704263"><ele>293.75</ele><time>2026-04-25T10:40:22.28Z</time></trkpt><trkpt lat="41.5493746" lon="13.1703563"><ele>293.0</ele><time>2026-04-25T10:40:23.281Z</time></trkpt><trkpt lat="41.5494822" lon="13.1703172"><ele>292.5</ele><time>2026-04-25T10:40:24.279Z</time></trkpt><trkpt lat="41.5496019" lon="13.1703175"><ele>292.0</ele><time>2026-04-25T10:40:25.282Z</time></trkpt><trkpt lat="41.5497425" lon="13.1703503"><ele>291.5</ele><time>2026-04-25T10:40:26.29Z</time></trkpt><trkpt lat="41.5499063" lon="13.1704044"><ele>291.0</ele><time>2026-04-25T10:40:27.289Z</time></trkpt><trkpt lat="41.550084" lon="13.1704901"><ele>291.0</ele><time>2026-04-25T10:40:28.288Z</time></trkpt><trkpt lat="41.5502594" lon="13.1705915"><ele>291.0</ele><time>2026-04-25T10:40:29.287Z</time></trkpt><trkpt lat="41.5504428" lon="13.1707431"><ele>291.0</ele><time>2026-04-25T10:40:30.282Z</time></trkpt><trkpt lat="41.5506097" lon="13.1708938"><ele>292.6666666666667</ele><time>2026-04-25T10:40:31.281Z</time></trkpt><trkpt lat="41.5507729" lon="13.1710419"><ele>294.33333333333337</ele><time>2026-04-25T10:40:32.287Z</time></trkpt><trkpt lat="41.5508839" lon="13.1711993"><ele>296.0</ele><time>2026-04-25T10:40:33.29Z</time></trkpt><trkpt lat="41.5510018" lon="13.171377"><ele>297.0</ele><time>2026-04-25T10:40:34.29Z</time></trkpt><trkpt lat="41.5510963" lon="13.1715587"><ele>298.0</ele><time>2026-04-25T10:40:35.287Z</time></trkpt><trkpt lat="41.5511948" lon="13.1717158"><ele>299.0</ele><time>2026-04-25T10:40:36.29Z</time></trkpt><trkpt lat="41.5513206" lon="13.1718616"><ele>299.0</ele><time>2026-04-25T10:40:37.294Z</time></trkpt><trkpt lat="41.5514783" lon="13.1720017"><ele>299.0</ele><time>2026-04-25T10:40:38.29Z</time></trkpt><trkpt lat="41.55166" lon="13.1721621"><ele>299.0</ele><time>2026-04-25T10:40:39.287Z</time></trkpt><trkpt lat="41.5518442" lon="13.1723389"><ele>301.0</ele><time>2026-04-25T10:40:40.289Z</time></trkpt><trkpt lat="41.5520227" lon="13.1725052"><ele>303.0</ele><time>2026-04-25T10:40:41.289Z</time></trkpt><trkpt lat="41.5521846" lon="13.1726571"><ele>305.0</ele><time>2026-04-25T10:40:42.289Z</time></trkpt><trkpt lat="41.5523342" lon="13.1727883"><ele>305.0</ele><time>2026-04-25T10:40:43.288Z</time></trkpt><trkpt lat="41.5524626" lon="13.1729067"><ele>305.0</ele><time>2026-04-25T10:40:44.29Z</time></trkpt><trkpt lat="41.5525764" lon="13.1730161"><ele>305.0</ele><time>2026-04-25T10:40:45.29Z</time></trkpt><trkpt lat="41.5526752" lon="13.1731247"><ele>305.0</ele><time>2026-04-25T10:40:46.292Z</time></trkpt><trkpt lat="41.5527647" lon="13.1732676"><ele>306.0</ele><time>2026-04-25T10:40:47.294Z</time></trkpt><trkpt lat="41.5528408" lon="13.1734421"><ele>307.0</ele><time>2026-04-25T10:40:48.292Z</time></trkpt><trkpt lat="41.5529118" lon="13.1735978"><ele>308.0</ele><time>2026-04-25T10:40:49.291Z</time></trkpt><trkpt lat="41.5529866" lon="13.1737158"><ele>309.0</ele><time>2026-04-25T10:40:50.29Z</time></trkpt><trkpt lat="41.5530842" lon="13.1738115"><ele>309.0</ele><time>2026-04-25T10:40:51.287Z</time></trkpt><trkpt lat="41.5531876" lon="13.1739075"><ele>309.0</ele><time>2026-04-25T10:40:52.282Z</time></trkpt><trkpt lat="41.5533091" lon="13.1739407"><ele>309.0</ele><time>2026-04-25T10:40:53.283Z</time></trkpt><trkpt lat="41.5534206" lon="13.1739412"><ele>309.0</ele><time>2026-04-25T10:40:54.283Z</time></trkpt><trkpt lat="41.5535335" lon="13.1738919"><ele>309.0</ele><time>2026-04-25T10:40:55.279Z</time></trkpt><trkpt lat="41.553647" lon="13.1737808"><ele>309.0</ele><time>2026-04-25T10:40:56.283Z</time></trkpt><trkpt lat="41.5537485" lon="13.1736219"><ele>309.0</ele><time>2026-04-25T10:40:57.284Z</time></trkpt><trkpt lat="41.5538476" lon="13.1734385"><ele>313.6666666666667</ele><time>2026-04-25T10:40:58.282Z</time></trkpt><trkpt lat="41.553943" lon="13.1732352"><ele>318.33333333333337</ele><time>2026-04-25T10:40:59.285Z</time></trkpt><trkpt lat="41.5540295" lon="13.1729636"><ele>323.0</ele><time>2026-04-25T10:41:00.276Z</time></trkpt><trkpt lat="41.5541309" lon="13.1726605"><ele>320.5</ele><time>2026-04-25T10:41:01.274Z</time></trkpt><trkpt lat="41.5542498" lon="13.1723434"><ele>318.0</ele><time>2026-04-25T10:41:02.28Z</time></trkpt><trkpt lat="41.5543696" lon="13.1720594"><ele>318.0</ele><time>2026-04-25T10:41:03.284Z</time></trkpt><trkpt lat="41.5544682" lon="13.171827"><ele>318.0</ele><time>2026-04-25T10:41:04.28Z</time></trkpt><trkpt lat="41.5545443" lon="13.171633"><ele>318.0</ele><time>2026-04-25T10:41:05.282Z</time></trkpt><trkpt lat="41.5545965" lon="13.1714677"><ele>319.0</ele><time>2026-04-25T10:41:06.281Z</time></trkpt><trkpt lat="41.5546207" lon="13.1712982"><ele>320.0</ele><time>2026-04-25T10:41:07.282Z</time></trkpt><trkpt lat="41.5546194" lon="13.1711122"><ele>321.0</ele><time>2026-04-25T10:41:08.282Z</time></trkpt><trkpt lat="41.5545688" lon="13.1709159"><ele>322.0</ele><time>2026-04-25T10:41:09.283Z</time></trkpt><trkpt lat="41.5545058" lon="13.1707406"><ele>323.0</ele><time>2026-04-25T10:41:10.284Z</time></trkpt><trkpt lat="41.5544602" lon="13.1705794"><ele>324.0</ele><time>2026-04-25T10:41:11.286Z</time></trkpt><trkpt lat="41.554443" lon="13.1704186"><ele>325.0</ele><time>2026-04-25T10:41:12.282Z</time></trkpt><trkpt lat="41.5544592" lon="13.1702413"><ele>326.0</ele><time>2026-04-25T10:41:13.281Z</time></trkpt><trkpt lat="41.5545225" lon="13.1700607"><ele>329.33333333333337</ele><time>2026-04-25T10:41:14.286Z</time></trkpt><trkpt lat="41.5546286" lon="13.1698913"><ele>332.6666666666667</ele><time>2026-04-25T10:41:15.284Z</time></trkpt><trkpt lat="41.55476" lon="13.169729"><ele>336.0</ele><time>2026-04-25T10:41:16.283Z</time></trkpt><trkpt lat="41.5549035" lon="13.1695534"><ele>336.0</ele><time>2026-04-25T10:41:17.281Z</time></trkpt><trkpt lat="41.5550483" lon="13.1693729"><ele>336.0</ele><time>2026-04-25T10:41:18.288Z</time></trkpt><trkpt lat="41.5551797" lon="13.1692114"><ele>336.0</ele><time>2026-04-25T10:41:19.291Z</time></trkpt><trkpt lat="41.5552991" lon="13.1690782"><ele>335.0</ele><time>2026-04-25T10:41:20.289Z</time></trkpt><trkpt lat="41.5554133" lon="13.1689729"><ele>334.0</ele><time>2026-04-25T10:41:21.29Z</time></trkpt><trkpt lat="41.5555211" lon="13.1688987"><ele>333.0</ele><time>2026-04-25T10:41:22.287Z</time></trkpt><trkpt lat="41.555635" lon="13.1688581"><ele>332.0</ele><time>2026-04-25T10:41:23.289Z</time></trkpt><trkpt lat="41.5557694" lon="13.1688473"><ele>332.0</ele><time>2026-04-25T10:41:24.281Z</time></trkpt><trkpt lat="41.5559311" lon="13.1688634"><ele>332.0</ele><time>2026-04-25T10:41:25.292Z</time></trkpt><trkpt lat="41.5561076" lon="13.1688967"><ele>332.0</ele><time>2026-04-25T10:41:26.287Z</time></trkpt><trkpt lat="41.5562902" lon="13.168927"><ele>333.6666666666667</ele><time>2026-04-25T10:41:27.29Z</time></trkpt><trkpt lat="41.5564639" lon="13.1689561"><ele>335.3333333333333</ele><time>2026-04-25T10:41:28.276Z</time></trkpt><trkpt lat="41.5566194" lon="13.1689806"><ele>337.0</ele><time>2026-04-25T10:41:29.275Z</time></trkpt><trkpt lat="41.5567717" lon="13.1689977"><ele>337.0</ele><time>2026-04-25T10:41:30.29Z</time></trkpt><trkpt lat="41.5569245" lon="13.1689892"><ele>337.0</ele><time>2026-04-25T10:41:31.292Z</time></trkpt><trkpt lat="41.5570733" lon="13.1689559"><ele>337.0</ele><time>2026-04-25T10:41:32.29Z</time></trkpt><trkpt lat="41.557199" lon="13.1689027"><ele>337.0</ele><time>2026-04-25T10:41:33.29Z</time></trkpt><trkpt lat="41.5573141" lon="13.1688271"><ele>340.0</ele><time>2026-04-25T10:41:34.288Z</time></trkpt><trkpt lat="41.5574242" lon="13.1687081"><ele>343.0</ele><time>2026-04-25T10:41:35.291Z</time></trkpt><trkpt lat="41.5575336" lon="13.1685493"><ele>346.0</ele><time>2026-04-25T10:41:36.291Z</time></trkpt><trkpt lat="41.5576318" lon="13.1684104"><ele>349.0</ele><time>2026-04-25T10:41:37.291Z</time></trkpt><trkpt lat="41.5577217" lon="13.1682807"><ele>347.5</ele><time>2026-04-25T10:41:38.289Z</time></trkpt><trkpt lat="41.5578019" lon="13.1681886"><ele>346.0</ele><time>2026-04-25T10:41:39.291Z</time></trkpt><trkpt lat="41.5578911" lon="13.168125"><ele>344.5</ele><time>2026-04-25T10:41:40.291Z</time></trkpt><trkpt lat="41.5580049" lon="13.1680823"><ele>343.0</ele><time>2026-04-25T10:41:41.291Z</time></trkpt><trkpt lat="41.5581377" lon="13.1680795"><ele>343.0</ele><time>2026-04-25T10:41:42.29Z</time></trkpt><trkpt lat="41.5582692" lon="13.1681045"><ele>343.0</ele><time>2026-04-25T10:41:43.291Z</time></trkpt><trkpt lat="41.5583986" lon="13.1681756"><ele>343.0</ele><time>2026-04-25T10:41:44.292Z</time></trkpt><trkpt lat="41.5585157" lon="13.1682815"><ele>343.0</ele><time>2026-04-25T10:41:45.29Z</time></trkpt><trkpt lat="41.5586369" lon="13.1683944"><ele>346.25</ele><time>2026-04-25T10:41:46.288Z</time></trkpt><trkpt lat="41.5587424" lon="13.1685103"><ele>349.5</ele><time>2026-04-25T10:41:47.291Z</time></trkpt><trkpt lat="41.5588554" lon="13.1685924"><ele>352.75</ele><time>2026-04-25T10:41:48.29Z</time></trkpt><trkpt lat="41.5589648" lon="13.1686488"><ele>356.0</ele><time>2026-04-25T10:41:49.291Z</time></trkpt><trkpt lat="41.5590815" lon="13.1686615"><ele>356.0</ele><time>2026-04-25T10:41:50.463Z</time></trkpt><trkpt lat="41.5592722" lon="13.1685571"><ele>356.0</ele><time>2026-04-25T10:41:52.293Z</time></trkpt><trkpt lat="41.5593486" lon="13.1684242"><ele>356.0</ele><time>2026-04-25T10:41:53.292Z</time></trkpt><trkpt lat="41.5594188" lon="13.1682678"><ele>356.0</ele><time>2026-04-25T10:41:54.289Z</time></trkpt><trkpt lat="41.5594914" lon="13.1681211"><ele>356.0</ele><time>2026-04-25T10:41:55.29Z</time></trkpt><trkpt lat="41.5595369" lon="13.1679724"><ele>356.0</ele><time>2026-04-25T10:41:56.292Z</time></trkpt><trkpt lat="41.5595537" lon="13.1678061"><ele>356.0</ele><time>2026-04-25T10:41:57.292Z</time></trkpt><trkpt lat="41.559536" lon="13.1676236"><ele>356.0</ele><time>2026-04-25T10:41:58.287Z</time></trkpt><trkpt lat="41.559492" lon="13.1674433"><ele>356.0</ele><time>2026-04-25T10:41:59.291Z</time></trkpt><trkpt lat="41.5594568" lon="13.167283"><ele>356.0</ele><time>2026-04-25T10:42:00.285Z</time></trkpt><trkpt lat="41.5594286" lon="13.1671138"><ele>356.0</ele><time>2026-04-25T10:42:01.292Z</time></trkpt><trkpt lat="41.5594166" lon="13.1669407"><ele>357.33333333333337</ele><time>2026-04-25T10:42:02.293Z</time></trkpt><trkpt lat="41.5594084" lon="13.1667701"><ele>358.6666666666667</ele><time>2026-04-25T10:42:03.292Z</time></trkpt><trkpt lat="41.5594053" lon="13.1665758"><ele>360.0</ele><time>2026-04-25T10:42:04.288Z</time></trkpt><trkpt lat="41.5594105" lon="13.1663046"><ele>370.5</ele><time>2026-04-25T10:42:05.293Z</time></trkpt><trkpt lat="41.5595345" lon="13.1659795"><ele>381.0</ele><time>2026-04-25T10:42:06.293Z</time></trkpt><trkpt lat="41.5596077" lon="13.1656427"><ele>381.0</ele><time>2026-04-25T10:42:07.28Z</time></trkpt><trkpt lat="41.559656" lon="13.1653531"><ele>381.0</ele><time>2026-04-25T10:42:08.282Z</time></trkpt><trkpt lat="41.5597093" lon="13.1651013"><ele>381.0</ele><time>2026-04-25T10:42:09.29Z</time></trkpt><trkpt lat="41.559758" lon="13.1648777"><ele>381.0</ele><time>2026-04-25T10:42:10.284Z</time></trkpt><trkpt lat="41.5598013" lon="13.1646675"><ele>381.0</ele><time>2026-04-25T10:42:11.285Z</time></trkpt><trkpt lat="41.5598493" lon="13.16449"><ele>381.0</ele><time>2026-04-25T10:42:12.282Z</time></trkpt><trkpt lat="41.5599201" lon="13.1643369"><ele>381.0</ele><time>2026-04-25T10:42:13.279Z</time></trkpt><trkpt lat="41.5600172" lon="13.1641917"><ele>381.0</ele><time>2026-04-25T10:42:14.282Z</time></trkpt><trkpt lat="41.5601452" lon="13.164051"><ele>381.0</ele><time>2026-04-25T10:42:15.281Z</time></trkpt><trkpt lat="41.5602874" lon="13.1639178"><ele>381.0</ele><time>2026-04-25T10:42:16.28Z</time></trkpt><trkpt lat="41.5604303" lon="13.1637943"><ele>382.0</ele><time>2026-04-25T10:42:17.282Z</time></trkpt><trkpt lat="41.5605658" lon="13.1636993"><ele>383.0</ele><time>2026-04-25T10:42:18.282Z</time></trkpt><trkpt lat="41.5606917" lon="13.1636315"><ele>384.0</ele><time>2026-04-25T10:42:19.286Z</time></trkpt><trkpt lat="41.5608118" lon="13.1635846"><ele>385.0</ele><time>2026-04-25T10:42:20.288Z</time></trkpt><trkpt lat="41.560913" lon="13.1635252"><ele>385.0</ele><time>2026-04-25T10:42:21.284Z</time></trkpt><trkpt lat="41.5609994" lon="13.1634414"><ele>385.0</ele><time>2026-04-25T10:42:22.28Z</time></trkpt><trkpt lat="41.5610658" lon="13.1633198"><ele>385.0</ele><time>2026-04-25T10:42:23.279Z</time></trkpt><trkpt lat="41.5611011" lon="13.1631484"><ele>385.0</ele><time>2026-04-25T10:42:24.279Z</time></trkpt><trkpt lat="41.5611205" lon="13.1629507"><ele>383.6666666666667</ele><time>2026-04-25T10:42:25.277Z</time></trkpt><trkpt lat="41.5611429" lon="13.1627256"><ele>382.33333333333337</ele><time>2026-04-25T10:42:26.28Z</time></trkpt><trkpt lat="41.5611519" lon="13.162469"><ele>381.0</ele><time>2026-04-25T10:42:27.28Z</time></trkpt><trkpt lat="41.561154" lon="13.1622014"><ele>380.3333333333333</ele><time>2026-04-25T10:42:28.278Z</time></trkpt><trkpt lat="41.5611629" lon="13.1619186"><ele>379.66666666666663</ele><time>2026-04-25T10:42:29.278Z</time></trkpt><trkpt lat="41.5611917" lon="13.1616038"><ele>379.0</ele><time>2026-04-25T10:42:30.279Z</time></trkpt><trkpt lat="41.5612288" lon="13.1612728"><ele>396.0</ele><time>2026-04-25T10:42:31.282Z</time></trkpt><trkpt lat="41.5612739" lon="13.1609492"><ele>413.0</ele><time>2026-04-25T10:42:32.29Z</time></trkpt><trkpt lat="41.5613163" lon="13.1606345"><ele>413.0</ele><time>2026-04-25T10:42:33.288Z</time></trkpt><trkpt lat="41.5613594" lon="13.1603309"><ele>413.0</ele><time>2026-04-25T10:42:34.276Z</time></trkpt><trkpt lat="41.5614056" lon="13.1600544"><ele>413.0</ele><time>2026-04-25T10:42:35.279Z</time></trkpt><trkpt lat="41.5614602" lon="13.1597838"><ele>410.0</ele><time>2026-04-25T10:42:36.278Z</time></trkpt><trkpt lat="41.5615204" lon="13.1595272"><ele>407.0</ele><time>2026-04-25T10:42:37.28Z</time></trkpt><trkpt lat="41.5615981" lon="13.1592599"><ele>404.0</ele><time>2026-04-25T10:42:38.282Z</time></trkpt><trkpt lat="41.5616867" lon="13.1589899"><ele>401.0</ele><time>2026-04-25T10:42:39.277Z</time></trkpt><trkpt lat="41.5617801" lon="13.1587405"><ele>398.0</ele><time>2026-04-25T10:42:40.279Z</time></trkpt><trkpt lat="41.5618604" lon="13.1585178"><ele>395.0</ele><time>2026-04-25T10:42:41.276Z</time></trkpt><trkpt lat="41.5619447" lon="13.1583048"><ele>403.66666666666663</ele><time>2026-04-25T10:42:42.283Z</time></trkpt><trkpt lat="41.5620424" lon="13.1580914"><ele>412.33333333333337</ele><time>2026-04-25T10:42:43.281Z</time></trkpt><trkpt lat="41.5621622" lon="13.1578668"><ele>421.0</ele><time>2026-04-25T10:42:44.282Z</time></trkpt><trkpt lat="41.5622924" lon="13.1576399"><ele>421.0</ele><time>2026-04-25T10:42:45.281Z</time></trkpt><trkpt lat="41.5624123" lon="13.1574303"><ele>421.0</ele><time>2026-04-25T10:42:46.28Z</time></trkpt><trkpt lat="41.5625348" lon="13.1572366"><ele>421.0</ele><time>2026-04-25T10:42:47.28Z</time></trkpt><trkpt lat="41.5626643" lon="13.1570511"><ele>425.0</ele><time>2026-04-25T10:42:48.283Z</time></trkpt><trkpt lat="41.5628025" lon="13.156881"><ele>429.0</ele><time>2026-04-25T10:42:49.281Z</time></trkpt><trkpt lat="41.5629476" lon="13.156718"><ele>433.0</ele><time>2026-04-25T10:42:50.277Z</time></trkpt><trkpt lat="41.5631164" lon="13.1565592"><ele>423.33333333333337</ele><time>2026-04-25T10:42:51.282Z</time></trkpt><trkpt lat="41.5633011" lon="13.1564027"><ele>413.66666666666663</ele><time>2026-04-25T10:42:52.281Z</time></trkpt><trkpt lat="41.5634836" lon="13.1562561"><ele>404.0</ele><time>2026-04-25T10:42:53.277Z</time></trkpt><trkpt lat="41.5636635" lon="13.1561216"><ele>407.66666666666663</ele><time>2026-04-25T10:42:54.28Z</time></trkpt><trkpt lat="41.5638365" lon="13.1559906"><ele>411.33333333333337</ele><time>2026-04-25T10:42:55.28Z</time></trkpt><trkpt lat="41.5640066" lon="13.1558442"><ele>415.0</ele><time>2026-04-25T10:42:56.279Z</time></trkpt><trkpt lat="41.5641656" lon="13.1556783"><ele>415.0</ele><time>2026-04-25T10:42:57.272Z</time></trkpt><trkpt lat="41.56431" lon="13.1555068"><ele>415.0</ele><time>2026-04-25T10:42:58.28Z</time></trkpt><trkpt lat="41.564447" lon="13.155351"><ele>415.0</ele><time>2026-04-25T10:42:59.282Z</time></trkpt><trkpt lat="41.5645663" lon="13.1552269"><ele>420.6666666666667</ele><time>2026-04-25T10:43:00.285Z</time></trkpt><trkpt lat="41.5646871" lon="13.1551144"><ele>426.33333333333337</ele><time>2026-04-25T10:43:01.279Z</time></trkpt><trkpt lat="41.5648179" lon="13.1550209"><ele>432.0</ele><time>2026-04-25T10:43:02.281Z</time></trkpt><trkpt lat="41.5649763" lon="13.1549524"><ele>432.0</ele><time>2026-04-25T10:43:03.28Z</time></trkpt><trkpt lat="41.5651533" lon="13.1548995"><ele>432.0</ele><time>2026-04-25T10:43:04.28Z</time></trkpt><trkpt lat="41.5653684" lon="13.1548516"><ele>432.0</ele><time>2026-04-25T10:43:05.281Z</time></trkpt><trkpt lat="41.5656163" lon="13.1548124"><ele>429.5</ele><time>2026-04-25T10:43:06.281Z</time></trkpt><trkpt lat="41.5659067" lon="13.1547507"><ele>427.0</ele><time>2026-04-25T10:43:07.28Z</time></trkpt><trkpt lat="41.5662076" lon="13.1546827"><ele>432.5</ele><time>2026-04-25T10:43:08.282Z</time></trkpt><trkpt lat="41.5664688" lon="13.1546202"><ele>438.0</ele><time>2026-04-25T10:43:09.278Z</time></trkpt><trkpt lat="41.5666962" lon="13.1545613"><ele>438.0</ele><time>2026-04-25T10:43:10.279Z</time></trkpt><trkpt lat="41.5669101" lon="13.1544945"><ele>438.0</ele><time>2026-04-25T10:43:11.279Z</time></trkpt><trkpt lat="41.5671319" lon="13.1543901"><ele>444.0</ele><time>2026-04-25T10:43:12.28Z</time></trkpt><trkpt lat="41.5673575" lon="13.1542599"><ele>450.0</ele><time>2026-04-25T10:43:13.279Z</time></trkpt><trkpt lat="41.5675785" lon="13.1541091"><ele>451.0</ele><time>2026-04-25T10:43:14.282Z</time></trkpt><trkpt lat="41.567774" lon="13.1539793"><ele>452.0</ele><time>2026-04-25T10:43:15.282Z</time></trkpt><trkpt lat="41.5679561" lon="13.1538594"><ele>453.0</ele><time>2026-04-25T10:43:16.28Z</time></trkpt><trkpt lat="41.5681144" lon="13.1537671"><ele>453.0</ele><time>2026-04-25T10:43:17.281Z</time></trkpt><trkpt lat="41.5682538" lon="13.1536989"><ele>453.0</ele><time>2026-04-25T10:43:18.282Z</time></trkpt><trkpt lat="41.5684266" lon="13.1536559"><ele>453.0</ele><time>2026-04-25T10:43:19.279Z</time></trkpt><trkpt lat="41.5686298" lon="13.153639"><ele>455.66666666666663</ele><time>2026-04-25T10:43:20.281Z</time></trkpt><trkpt lat="41.5688594" lon="13.153631"><ele>458.3333333333333</ele><time>2026-04-25T10:43:21.284Z</time></trkpt><trkpt lat="41.5690711" lon="13.1536314"><ele>461.0</ele><time>2026-04-25T10:43:22.274Z</time></trkpt><trkpt lat="41.56926" lon="13.1536364"><ele>461.0</ele><time>2026-04-25T10:43:23.276Z</time></trkpt><trkpt lat="41.5694377" lon="13.1536369"><ele>461.0</ele><time>2026-04-25T10:43:24.283Z</time></trkpt><trkpt lat="41.569614" lon="13.1536276"><ele>461.0</ele><time>2026-04-25T10:43:25.28Z</time></trkpt><trkpt lat="41.5698005" lon="13.153596"><ele>464.0</ele><time>2026-04-25T10:43:26.28Z</time></trkpt><trkpt lat="41.56999" lon="13.1535538"><ele>467.0</ele><time>2026-04-25T10:43:27.28Z</time></trkpt><trkpt lat="41.5701896" lon="13.1535009"><ele>470.0</ele><time>2026-04-25T10:43:28.287Z</time></trkpt><trkpt lat="41.5703763" lon="13.1534549"><ele>470.3333333333333</ele><time>2026-04-25T10:43:29.281Z</time></trkpt><trkpt lat="41.5705424" lon="13.1534141"><ele>470.66666666666663</ele><time>2026-04-25T10:43:30.279Z</time></trkpt><trkpt lat="41.570699" lon="13.1533706"><ele>471.0</ele><time>2026-04-25T10:43:31.281Z</time></trkpt><trkpt lat="41.5708374" lon="13.1533375"><ele>471.0</ele><time>2026-04-25T10:43:32.28Z</time></trkpt><trkpt lat="41.5709763" lon="13.1532961"><ele>471.0</ele><time>2026-04-25T10:43:33.28Z</time></trkpt><trkpt lat="41.5710899" lon="13.1532561"><ele>471.0</ele><time>2026-04-25T10:43:34.274Z</time></trkpt><trkpt lat="41.5711994" lon="13.153225"><ele>471.0</ele><time>2026-04-25T10:43:35.274Z</time></trkpt><trkpt lat="41.5713064" lon="13.1531827"><ele>474.75</ele><time>2026-04-25T10:43:36.29Z</time></trkpt><trkpt lat="41.5713912" lon="13.1531049"><ele>478.5</ele><time>2026-04-25T10:43:37.289Z</time></trkpt><trkpt lat="41.5714595" lon="13.1529957"><ele>482.25</ele><time>2026-04-25T10:43:38.288Z</time></trkpt><trkpt lat="41.5714958" lon="13.1528466"><ele>486.0</ele><time>2026-04-25T10:43:39.289Z</time></trkpt><trkpt lat="41.5715007" lon="13.1526763"><ele>486.0</ele><time>2026-04-25T10:43:40.289Z</time></trkpt><trkpt lat="41.5714837" lon="13.1524839"><ele>486.0</ele><time>2026-04-25T10:43:41.287Z</time></trkpt><trkpt lat="41.5714666" lon="13.1522686"><ele>486.0</ele><time>2026-04-25T10:43:42.29Z</time></trkpt><trkpt lat="41.5714557" lon="13.1520307"><ele>488.0</ele><time>2026-04-25T10:43:43.29Z</time></trkpt><trkpt lat="41.5714465" lon="13.1517833"><ele>490.0</ele><time>2026-04-25T10:43:44.289Z</time></trkpt><trkpt lat="41.5714407" lon="13.151526"><ele>492.0</ele><time>2026-04-25T10:43:45.287Z</time></trkpt><trkpt lat="41.5714431" lon="13.1512653"><ele>492.33333333333337</ele><time>2026-04-25T10:43:46.291Z</time></trkpt><trkpt lat="41.5714496" lon="13.1510115"><ele>492.6666666666667</ele><time>2026-04-25T10:43:47.288Z</time></trkpt><trkpt lat="41.5714555" lon="13.1507917"><ele>493.0</ele><time>2026-04-25T10:43:48.29Z</time></trkpt><trkpt lat="41.5714686" lon="13.1505798"><ele>491.33333333333337</ele><time>2026-04-25T10:43:49.287Z</time></trkpt><trkpt lat="41.5715098" lon="13.1503554"><ele>489.66666666666663</ele><time>2026-04-25T10:43:50.288Z</time></trkpt><trkpt lat="41.5715751" lon="13.1501152"><ele>488.0</ele><time>2026-04-25T10:43:51.279Z</time></trkpt><trkpt lat="41.5716504" lon="13.1498597"><ele>487.0</ele><time>2026-04-25T10:43:52.282Z</time></trkpt><trkpt lat="41.571728" lon="13.1495976"><ele>486.0</ele><time>2026-04-25T10:43:53.279Z</time></trkpt><trkpt lat="41.571802" lon="13.1493479"><ele>485.0</ele><time>2026-04-25T10:43:54.28Z</time></trkpt><trkpt lat="41.5718686" lon="13.14911"><ele>484.66666666666663</ele><time>2026-04-25T10:43:55.28Z</time></trkpt><trkpt lat="41.5719314" lon="13.148863"><ele>484.33333333333337</ele><time>2026-04-25T10:43:56.29Z</time></trkpt><trkpt lat="41.5719775" lon="13.1486078"><ele>484.0</ele><time>2026-04-25T10:43:57.282Z</time></trkpt><trkpt lat="41.5720065" lon="13.1483271"><ele>492.0</ele><time>2026-04-25T10:43:58.282Z</time></trkpt><trkpt lat="41.5720328" lon="13.1480073"><ele>500.0</ele><time>2026-04-25T10:43:59.281Z</time></trkpt><trkpt lat="41.5720512" lon="13.1476924"><ele>500.0</ele><time>2026-04-25T10:44:00.282Z</time></trkpt><trkpt lat="41.5720737" lon="13.1474045"><ele>500.0</ele><time>2026-04-25T10:44:01.281Z</time></trkpt><trkpt lat="41.5720888" lon="13.1471438"><ele>500.0</ele><time>2026-04-25T10:44:02.28Z</time></trkpt><trkpt lat="41.5721048" lon="13.146912"><ele>500.3333333333333</ele><time>2026-04-25T10:44:03.279Z</time></trkpt><trkpt lat="41.5721261" lon="13.1467103"><ele>500.66666666666663</ele><time>2026-04-25T10:44:04.281Z</time></trkpt><trkpt lat="41.5721673" lon="13.1465249"><ele>501.0</ele><time>2026-04-25T10:44:05.279Z</time></trkpt><trkpt lat="41.5722385" lon="13.1463352"><ele>500.0</ele><time>2026-04-25T10:44:06.282Z</time></trkpt><trkpt lat="41.5723408" lon="13.1461411"><ele>499.0</ele><time>2026-04-25T10:44:07.279Z</time></trkpt><trkpt lat="41.5724746" lon="13.1459383"><ele>498.0</ele><time>2026-04-25T10:44:08.281Z</time></trkpt><trkpt lat="41.5726095" lon="13.1457437"><ele>496.33333333333337</ele><time>2026-04-25T10:44:09.28Z</time></trkpt><trkpt lat="41.5727277" lon="13.1455717"><ele>494.6666666666667</ele><time>2026-04-25T10:44:10.281Z</time></trkpt><trkpt lat="41.5728379" lon="13.1454194"><ele>493.0</ele><time>2026-04-25T10:44:11.282Z</time></trkpt><trkpt lat="41.5729651" lon="13.1452903"><ele>496.33333333333337</ele><time>2026-04-25T10:44:12.28Z</time></trkpt><trkpt lat="41.5731242" lon="13.1452"><ele>499.66666666666663</ele><time>2026-04-25T10:44:13.281Z</time></trkpt><trkpt lat="41.5733145" lon="13.1451261"><ele>503.0</ele><time>2026-04-25T10:44:14.28Z</time></trkpt><trkpt lat="41.5735114" lon="13.1450733"><ele>505.3333333333333</ele><time>2026-04-25T10:44:15.28Z</time></trkpt><trkpt lat="41.5737183" lon="13.1450307"><ele>507.66666666666663</ele><time>2026-04-25T10:44:16.283Z</time></trkpt><trkpt lat="41.573909" lon="13.1450069"><ele>510.0</ele><time>2026-04-25T10:44:17.28Z</time></trkpt><trkpt lat="41.5740721" lon="13.1450135"><ele>510.0</ele><time>2026-04-25T10:44:18.285Z</time></trkpt><trkpt lat="41.5742228" lon="13.1450274"><ele>510.0</ele><time>2026-04-25T10:44:19.279Z</time></trkpt><trkpt lat="41.5743773" lon="13.1450179"><ele>510.0</ele><time>2026-04-25T10:44:20.281Z</time></trkpt><trkpt lat="41.5745292" lon="13.1449915"><ele>511.0</ele><time>2026-04-25T10:44:21.28Z</time></trkpt><trkpt lat="41.5746711" lon="13.1449403"><ele>512.0</ele><time>2026-04-25T10:44:22.28Z</time></trkpt><trkpt lat="41.5747898" lon="13.1448809"><ele>513.0</ele><time>2026-04-25T10:44:23.28Z</time></trkpt><trkpt lat="41.574907" lon="13.1447963"><ele>514.0</ele><time>2026-04-25T10:44:24.281Z</time></trkpt><trkpt lat="41.5750168" lon="13.1446673"><ele>514.0</ele><time>2026-04-25T10:44:25.279Z</time></trkpt><trkpt lat="41.575115" lon="13.1444919"><ele>514.0</ele><time>2026-04-25T10:44:26.277Z</time></trkpt><trkpt lat="41.5752003" lon="13.1442891"><ele>514.0</ele><time>2026-04-25T10:44:27.273Z</time></trkpt><trkpt lat="41.5752574" lon="13.1440904"><ele>514.0</ele><time>2026-04-25T10:44:28.279Z</time></trkpt><trkpt lat="41.5752874" lon="13.1438929"><ele>514.0</ele><time>2026-04-25T10:44:29.281Z</time></trkpt><trkpt lat="41.5752855" lon="13.1436881"><ele>514.0</ele><time>2026-04-25T10:44:30.283Z</time></trkpt><trkpt lat="41.5752525" lon="13.1434614"><ele>514.0</ele><time>2026-04-25T10:44:31.278Z</time></trkpt><trkpt lat="41.5751971" lon="13.1432267"><ele>514.0</ele><time>2026-04-25T10:44:32.283Z</time></trkpt><trkpt lat="41.5751387" lon="13.1429667"><ele>514.0</ele><time>2026-04-25T10:44:33.289Z</time></trkpt><trkpt lat="41.5750855" lon="13.1427021"><ele>516.0</ele><time>2026-04-25T10:44:34.29Z</time></trkpt><trkpt lat="41.575038" lon="13.1424719"><ele>518.0</ele><time>2026-04-25T10:44:35.29Z</time></trkpt><trkpt lat="41.5749907" lon="13.142267"><ele>520.0</ele><time>2026-04-25T10:44:36.288Z</time></trkpt><trkpt lat="41.5749365" lon="13.1420846"><ele>520.75</ele><time>2026-04-25T10:44:37.291Z</time></trkpt><trkpt lat="41.5748735" lon="13.1419274"><ele>521.5</ele><time>2026-04-25T10:44:38.29Z</time></trkpt><trkpt lat="41.5747895" lon="13.1417919"><ele>522.25</ele><time>2026-04-25T10:44:39.29Z</time></trkpt><trkpt lat="41.5746677" lon="13.141681"><ele>523.0</ele><time>2026-04-25T10:44:40.29Z</time></trkpt><trkpt lat="41.5745179" lon="13.1415834"><ele>530.0</ele><time>2026-04-25T10:44:41.29Z</time></trkpt><trkpt lat="41.5743639" lon="13.1414894"><ele>537.0</ele><time>2026-04-25T10:44:42.289Z</time></trkpt><trkpt lat="41.5742202" lon="13.1414053"><ele>544.0</ele><time>2026-04-25T10:44:43.288Z</time></trkpt><trkpt lat="41.5740951" lon="13.1413209"><ele>544.0</ele><time>2026-04-25T10:44:44.289Z</time></trkpt><trkpt lat="41.5739743" lon="13.1412314"><ele>544.0</ele><time>2026-04-25T10:44:45.288Z</time></trkpt><trkpt lat="41.5739001" lon="13.1410711"><ele>544.0</ele><time>2026-04-25T10:44:46.289Z</time></trkpt><trkpt lat="41.573819" lon="13.1409153"><ele>544.0</ele><time>2026-04-25T10:44:47.29Z</time></trkpt><trkpt lat="41.5737532" lon="13.1407287"><ele>537.6666666666667</ele><time>2026-04-25T10:44:48.281Z</time></trkpt><trkpt lat="41.5736852" lon="13.1405248"><ele>531.3333333333334</ele><time>2026-04-25T10:44:49.277Z</time></trkpt><trkpt lat="41.5736232" lon="13.1403038"><ele>525.0</ele><time>2026-04-25T10:44:50.279Z</time></trkpt><trkpt lat="41.5735646" lon="13.1400669"><ele>529.6666666666666</ele><time>2026-04-25T10:44:51.278Z</time></trkpt><trkpt lat="41.5735028" lon="13.139834"><ele>534.3333333333333</ele><time>2026-04-25T10:44:52.282Z</time></trkpt><trkpt lat="41.5734341" lon="13.1396012"><ele>539.0</ele><time>2026-04-25T10:44:53.281Z</time></trkpt><trkpt lat="41.5733565" lon="13.1393732"><ele>539.0</ele><time>2026-04-25T10:44:54.275Z</time></trkpt><trkpt lat="41.5732821" lon="13.139144"><ele>539.0</ele><time>2026-04-25T10:44:55.28Z</time></trkpt><trkpt lat="41.5732147" lon="13.1389115"><ele>539.0</ele><time>2026-04-25T10:44:56.276Z</time></trkpt><trkpt lat="41.5731605" lon="13.1386996"><ele>543.6666666666666</ele><time>2026-04-25T10:44:57.276Z</time></trkpt><trkpt lat="41.5731283" lon="13.138504"><ele>548.3333333333334</ele><time>2026-04-25T10:44:58.28Z</time></trkpt><trkpt lat="41.5731148" lon="13.1382857"><ele>553.0</ele><time>2026-04-25T10:44:59.281Z</time></trkpt><trkpt lat="41.5731125" lon="13.138049"><ele>556.3333333333334</ele><time>2026-04-25T10:45:00.279Z</time></trkpt><trkpt lat="41.573103" lon="13.1378041"><ele>559.6666666666666</ele><time>2026-04-25T10:45:01.279Z</time></trkpt><trkpt lat="41.573078" lon="13.1375611"><ele>563.0</ele><time>2026-04-25T10:45:02.283Z</time></trkpt><trkpt lat="41.5730584" lon="13.1373456"><ele>565.75</ele><time>2026-04-25T10:45:03.28Z</time></trkpt><trkpt lat="41.5730445" lon="13.1371346"><ele>568.5</ele><time>2026-04-25T10:45:04.281Z</time></trkpt><trkpt lat="41.5730422" lon="13.1369365"><ele>571.25</ele><time>2026-04-25T10:45:05.278Z</time></trkpt><trkpt lat="41.5730456" lon="13.1367636"><ele>574.0</ele><time>2026-04-25T10:45:06.279Z</time></trkpt><trkpt lat="41.5730587" lon="13.1365925"><ele>574.0</ele><time>2026-04-25T10:45:07.283Z</time></trkpt><trkpt lat="41.5730722" lon="13.136438"><ele>574.0</ele><time>2026-04-25T10:45:08.279Z</time></trkpt><trkpt lat="41.5730844" lon="13.1362926"><ele>574.0</ele><time>2026-04-25T10:45:09.279Z</time></trkpt><trkpt lat="41.5730953" lon="13.136172"><ele>574.0</ele><time>2026-04-25T10:45:10.281Z</time></trkpt><trkpt lat="41.5730933" lon="13.1360681"><ele>574.0</ele><time>2026-04-25T10:45:11.278Z</time></trkpt><trkpt lat="41.5730866" lon="13.135973"><ele>574.0</ele><time>2026-04-25T10:45:12.282Z</time></trkpt><trkpt lat="41.5730121" lon="13.1359123"><ele>574.0</ele><time>2026-04-25T10:45:13.281Z</time></trkpt><trkpt lat="41.5729272" lon="13.135871"><ele>574.0</ele><time>2026-04-25T10:45:14.281Z</time></trkpt><trkpt lat="41.5728165" lon="13.1358581"><ele>574.0</ele><time>2026-04-25T10:45:15.28Z</time></trkpt><trkpt lat="41.5726871" lon="13.1358725"><ele>574.0</ele><time>2026-04-25T10:45:16.282Z</time></trkpt><trkpt lat="41.57255" lon="13.1359183"><ele>567.3333333333334</ele><time>2026-04-25T10:45:17.283Z</time></trkpt><trkpt lat="41.5723959" lon="13.1359981"><ele>560.6666666666666</ele><time>2026-04-25T10:45:18.281Z</time></trkpt><trkpt lat="41.5722285" lon="13.1360876"><ele>554.0</ele><time>2026-04-25T10:45:19.281Z</time></trkpt><trkpt lat="41.572064" lon="13.1361785"><ele>559.0</ele><time>2026-04-25T10:45:20.282Z</time></trkpt><trkpt lat="41.5719077" lon="13.1362667"><ele>564.0</ele><time>2026-04-25T10:45:21.28Z</time></trkpt><trkpt lat="41.5717631" lon="13.1363634"><ele>569.0</ele><time>2026-04-25T10:45:22.284Z</time></trkpt><trkpt lat="41.5716192" lon="13.1364563"><ele>569.0</ele><time>2026-04-25T10:45:23.281Z</time></trkpt><trkpt lat="41.5715095" lon="13.1365408"><ele>569.0</ele><time>2026-04-25T10:45:24.288Z</time></trkpt><trkpt lat="41.5714118" lon="13.1366219"><ele>569.0</ele><time>2026-04-25T10:45:25.281Z</time></trkpt><trkpt lat="41.5713298" lon="13.1366872"><ele>569.0</ele><time>2026-04-25T10:45:26.275Z</time></trkpt><trkpt lat="41.5712505" lon="13.1367299"><ele>569.0</ele><time>2026-04-25T10:45:27.277Z</time></trkpt><trkpt lat="41.5711731" lon="13.1367322"><ele>569.0</ele><time>2026-04-25T10:45:28.274Z</time></trkpt><trkpt lat="41.5711009" lon="13.1366741"><ele>569.0</ele><time>2026-04-25T10:45:29.276Z</time></trkpt><trkpt lat="41.5710362" lon="13.136614"><ele>569.0</ele><time>2026-04-25T10:45:30.275Z</time></trkpt><trkpt lat="41.571073" lon="13.1364803"><ele>569.0</ele><time>2026-04-25T10:45:31.275Z</time></trkpt><trkpt lat="41.571109" lon="13.1364087"><ele>569.0</ele><time>2026-04-25T10:45:32.283Z</time></trkpt><trkpt lat="41.5711822" lon="13.1363634"><ele>569.0</ele><time>2026-04-25T10:45:33.282Z</time></trkpt><trkpt lat="41.5712932" lon="13.1363229"><ele>569.0</ele><time>2026-04-25T10:45:34.273Z</time></trkpt><trkpt lat="41.5714215" lon="13.1362606"><ele>569.0</ele><time>2026-04-25T10:45:35.274Z</time></trkpt><trkpt lat="41.5715662" lon="13.1361771"><ele>569.0</ele><time>2026-04-25T10:45:36.275Z</time></trkpt><trkpt lat="41.5717077" lon="13.1360764"><ele>569.0</ele><time>2026-04-25T10:45:37.274Z</time></trkpt><trkpt lat="41.5718319" lon="13.135958"><ele>569.0</ele><time>2026-04-25T10:45:38.277Z</time></trkpt><trkpt lat="41.5719418" lon="13.1358221"><ele>569.0</ele><time>2026-04-25T10:45:39.277Z</time></trkpt><trkpt lat="41.5720284" lon="13.1356729"><ele>569.0</ele><time>2026-04-25T10:45:40.276Z</time></trkpt><trkpt lat="41.572109" lon="13.1355043"><ele>570.0</ele><time>2026-04-25T10:45:41.275Z</time></trkpt><trkpt lat="41.5721593" lon="13.1353248"><ele>571.0</ele><time>2026-04-25T10:45:42.275Z</time></trkpt><trkpt lat="41.5721973" lon="13.1351125"><ele>572.0</ele><time>2026-04-25T10:45:43.274Z</time></trkpt><trkpt lat="41.5722222" lon="13.1348816"><ele>572.0</ele><time>2026-04-25T10:45:44.282Z</time></trkpt><trkpt lat="41.5722476" lon="13.1346231"><ele>572.0</ele><time>2026-04-25T10:45:45.282Z</time></trkpt><trkpt lat="41.5722795" lon="13.1343839"><ele>572.0</ele><time>2026-04-25T10:45:46.283Z</time></trkpt><trkpt lat="41.5723089" lon="13.1342051"><ele>575.75</ele><time>2026-04-25T10:45:47.281Z</time></trkpt><trkpt lat="41.5723471" lon="13.1340488"><ele>579.5</ele><time>2026-04-25T10:45:48.282Z</time></trkpt><trkpt lat="41.5724039" lon="13.1338935"><ele>583.25</ele><time>2026-04-25T10:45:49.288Z</time></trkpt><trkpt lat="41.5725049" lon="13.1337498"><ele>587.0</ele><time>2026-04-25T10:45:50.289Z</time></trkpt><trkpt lat="41.5725942" lon="13.1335974"><ele>587.0</ele><time>2026-04-25T10:45:51.282Z</time></trkpt><trkpt lat="41.5726938" lon="13.133453"><ele>587.0</ele><time>2026-04-25T10:45:52.285Z</time></trkpt><trkpt lat="41.5728415" lon="13.1332918"><ele>587.0</ele><time>2026-04-25T10:45:53.29Z</time></trkpt><trkpt lat="41.5730233" lon="13.1331179"><ele>590.3333333333333</ele><time>2026-04-25T10:45:54.274Z</time></trkpt><trkpt lat="41.5732448" lon="13.1329691"><ele>593.6666666666666</ele><time>2026-04-25T10:45:55.276Z</time></trkpt><trkpt lat="41.5734078" lon="13.1328227"><ele>597.0</ele><time>2026-04-25T10:45:56.287Z</time></trkpt><trkpt lat="41.573556" lon="13.1326809"><ele>597.3333333333334</ele><time>2026-04-25T10:45:57.29Z</time></trkpt><trkpt lat="41.5736973" lon="13.1325519"><ele>597.6666666666667</ele><time>2026-04-25T10:45:58.289Z</time></trkpt><trkpt lat="41.5738191" lon="13.1324303"><ele>598.0</ele><time>2026-04-25T10:45:59.286Z</time></trkpt><trkpt lat="41.5739296" lon="13.1323383"><ele>598.5</ele><time>2026-04-25T10:46:00.29Z</time></trkpt><trkpt lat="41.5740241" lon="13.1322614"><ele>599.0</ele><time>2026-04-25T10:46:01.29Z</time></trkpt><trkpt lat="41.5740959" lon="13.1321925"><ele>599.5</ele><time>2026-04-25T10:46:02.289Z</time></trkpt><trkpt lat="41.5741447" lon="13.1321196"><ele>600.0</ele><time>2026-04-25T10:46:03.29Z</time></trkpt><trkpt lat="41.574175" lon="13.1320157"><ele>600.5</ele><time>2026-04-25T10:46:04.29Z</time></trkpt><trkpt lat="41.5741668" lon="13.1319157"><ele>601.0</ele><time>2026-04-25T10:46:05.289Z</time></trkpt><trkpt lat="41.5741217" lon="13.1318411"><ele>601.0</ele><time>2026-04-25T10:46:06.29Z</time></trkpt><trkpt lat="41.5740494" lon="13.1318048"><ele>601.0</ele><time>2026-04-25T10:46:07.289Z</time></trkpt><trkpt lat="41.5739613" lon="13.131819"><ele>601.0</ele><time>2026-04-25T10:46:08.29Z</time></trkpt><trkpt lat="41.5738777" lon="13.1318789"><ele>601.0</ele><time>2026-04-25T10:46:09.289Z</time></trkpt><trkpt lat="41.57378" lon="13.1319537"><ele>601.0</ele><time>2026-04-25T10:46:10.291Z</time></trkpt><trkpt lat="41.5736589" lon="13.13203"><ele>604.75</ele><time>2026-04-25T10:46:11.288Z</time></trkpt><trkpt lat="41.5735427" lon="13.1321061"><ele>608.5</ele><time>2026-04-25T10:46:12.289Z</time></trkpt><trkpt lat="41.5734285" lon="13.1321786"><ele>612.25</ele><time>2026-04-25T10:46:13.289Z</time></trkpt><trkpt lat="41.5733018" lon="13.1322373"><ele>616.0</ele><time>2026-04-25T10:46:14.294Z</time></trkpt><trkpt lat="41.5731542" lon="13.1322718"><ele>616.0</ele><time>2026-04-25T10:46:15.291Z</time></trkpt><trkpt lat="41.5729968" lon="13.1322846"><ele>616.0</ele><time>2026-04-25T10:46:16.292Z</time></trkpt><trkpt lat="41.5728241" lon="13.132271"><ele>616.0</ele><time>2026-04-25T10:46:17.291Z</time></trkpt><trkpt lat="41.5726465" lon="13.1322593"><ele>619.0</ele><time>2026-04-25T10:46:18.289Z</time></trkpt><trkpt lat="41.5724789" lon="13.1322724"><ele>622.0</ele><time>2026-04-25T10:46:19.287Z</time></trkpt><trkpt lat="41.5723127" lon="13.1323021"><ele>625.0</ele><time>2026-04-25T10:46:20.289Z</time></trkpt><trkpt lat="41.5721404" lon="13.1323581"><ele>622.6666666666667</ele><time>2026-04-25T10:46:21.284Z</time></trkpt><trkpt lat="41.5719663" lon="13.1324241"><ele>620.3333333333334</ele><time>2026-04-25T10:46:22.291Z</time></trkpt><trkpt lat="41.5718064" lon="13.132495"><ele>618.0</ele><time>2026-04-25T10:46:23.291Z</time></trkpt><trkpt lat="41.5716571" lon="13.1325509"><ele>618.0</ele><time>2026-04-25T10:46:24.293Z</time></trkpt><trkpt lat="41.5715229" lon="13.1326188"><ele>618.0</ele><time>2026-04-25T10:46:25.289Z</time></trkpt><trkpt lat="41.5713989" lon="13.1326865"><ele>618.0</ele><time>2026-04-25T10:46:26.289Z</time></trkpt><trkpt lat="41.5713041" lon="13.1327546"><ele>618.0</ele><time>2026-04-25T10:46:27.289Z</time></trkpt><trkpt lat="41.571228" lon="13.1328516"><ele>620.5</ele><time>2026-04-25T10:46:28.291Z</time></trkpt><trkpt lat="41.5711573" lon="13.1329867"><ele>623.0</ele><time>2026-04-25T10:46:29.292Z</time></trkpt><trkpt lat="41.5711163" lon="13.133161"><ele>625.5</ele><time>2026-04-25T10:46:30.294Z</time></trkpt><trkpt lat="41.5710625" lon="13.1333118"><ele>628.0</ele><time>2026-04-25T10:46:31.293Z</time></trkpt><trkpt lat="41.5710183" lon="13.1334927"><ele>628.0</ele><time>2026-04-25T10:46:32.291Z</time></trkpt><trkpt lat="41.5709833" lon="13.1336388"><ele>628.0</ele><time>2026-04-25T10:46:33.288Z</time></trkpt><trkpt lat="41.570945" lon="13.1337651"><ele>628.0</ele><time>2026-04-25T10:46:34.292Z</time></trkpt><trkpt lat="41.5709158" lon="13.1338824"><ele>628.0</ele><time>2026-04-25T10:46:35.287Z</time></trkpt><trkpt lat="41.570858" lon="13.1339271"><ele>628.0</ele><time>2026-04-25T10:46:36.289Z</time></trkpt><trkpt lat="41.5707903" lon="13.1339346"><ele>628.0</ele><time>2026-04-25T10:46:37.29Z</time></trkpt><trkpt lat="41.5707304" lon="13.1339014"><ele>628.0</ele><time>2026-04-25T10:46:38.289Z</time></trkpt><trkpt lat="41.5707179" lon="13.1338141"><ele>628.0</ele><time>2026-04-25T10:46:39.289Z</time></trkpt><trkpt lat="41.5707435" lon="13.1337045"><ele>628.0</ele><time>2026-04-25T10:46:40.291Z</time></trkpt><trkpt lat="41.5707723" lon="13.1335767"><ele>628.0</ele><time>2026-04-25T10:46:41.289Z</time></trkpt><trkpt lat="41.5708335" lon="13.1334306"><ele>628.0</ele><time>2026-04-25T10:46:42.294Z</time></trkpt><trkpt lat="41.5708858" lon="13.1332827"><ele>631.0</ele><time>2026-04-25T10:46:43.292Z</time></trkpt><trkpt lat="41.5709204" lon="13.1331117"><ele>634.0</ele><time>2026-04-25T10:46:44.292Z</time></trkpt><trkpt lat="41.5709447" lon="13.1329519"><ele>637.0</ele><time>2026-04-25T10:46:45.29Z</time></trkpt><trkpt lat="41.5709462" lon="13.1327836"><ele>640.0</ele><time>2026-04-25T10:46:46.288Z</time></trkpt><trkpt lat="41.5709333" lon="13.1326304"><ele>640.0</ele><time>2026-04-25T10:46:47.282Z</time></trkpt><trkpt lat="41.5709588" lon="13.1325017"><ele>640.0</ele><time>2026-04-25T10:46:48.279Z</time></trkpt><trkpt lat="41.5710122" lon="13.1323752"><ele>640.0</ele><time>2026-04-25T10:46:49.275Z</time></trkpt><trkpt lat="41.571085" lon="13.1322635"><ele>640.0</ele><time>2026-04-25T10:46:50.281Z</time></trkpt><trkpt lat="41.5712139" lon="13.1321877"><ele>639.0</ele><time>2026-04-25T10:46:51.281Z</time></trkpt><trkpt lat="41.5712934" lon="13.1320872"><ele>638.0</ele><time>2026-04-25T10:46:52.281Z</time></trkpt><trkpt lat="41.5713767" lon="13.1319594"><ele>637.0</ele><time>2026-04-25T10:46:53.281Z</time></trkpt><trkpt lat="41.5714616" lon="13.1318252"><ele>636.0</ele><time>2026-04-25T10:46:54.279Z</time></trkpt><trkpt lat="41.5715364" lon="13.1316456"><ele>642.25</ele><time>2026-04-25T10:46:55.284Z</time></trkpt><trkpt lat="41.5716279" lon="13.1314929"><ele>648.5</ele><time>2026-04-25T10:46:56.281Z</time></trkpt><trkpt lat="41.5717237" lon="13.1313832"><ele>654.75</ele><time>2026-04-25T10:46:57.287Z</time></trkpt><trkpt lat="41.5718355" lon="13.1312782"><ele>661.0</ele><time>2026-04-25T10:46:58.289Z</time></trkpt><trkpt lat="41.571969" lon="13.1311906"><ele>657.3333333333334</ele><time>2026-04-25T10:46:59.294Z</time></trkpt><trkpt lat="41.5721239" lon="13.1311109"><ele>653.6666666666666</ele><time>2026-04-25T10:47:00.292Z</time></trkpt><trkpt lat="41.572283" lon="13.1310326"><ele>650.0</ele><time>2026-04-25T10:47:01.291Z</time></trkpt><trkpt lat="41.5724288" lon="13.1309593"><ele>650.0</ele><time>2026-04-25T10:47:02.286Z</time></trkpt><trkpt lat="41.5725552" lon="13.1309018"><ele>650.0</ele><time>2026-04-25T10:47:03.29Z</time></trkpt><trkpt lat="41.5726657" lon="13.1308393"><ele>650.0</ele><time>2026-04-25T10:47:04.284Z</time></trkpt><trkpt lat="41.5727739" lon="13.1307518"><ele>650.0</ele><time>2026-04-25T10:47:05.281Z</time></trkpt><trkpt lat="41.5728679" lon="13.1306206"><ele>651.0</ele><time>2026-04-25T10:47:06.281Z</time></trkpt><trkpt lat="41.5729604" lon="13.1304737"><ele>652.0</ele><time>2026-04-25T10:47:07.281Z</time></trkpt><trkpt lat="41.5730697" lon="13.1303227"><ele>653.0</ele><time>2026-04-25T10:47:08.281Z</time></trkpt><trkpt lat="41.5731742" lon="13.1301574"><ele>653.0</ele><time>2026-04-25T10:47:09.281Z</time></trkpt><trkpt lat="41.5732706" lon="13.1299941"><ele>653.0</ele><time>2026-04-25T10:47:10.281Z</time></trkpt><trkpt lat="41.573362" lon="13.1298528"><ele>653.0</ele><time>2026-04-25T10:47:11.282Z</time></trkpt><trkpt lat="41.5734606" lon="13.1297306"><ele>653.0</ele><time>2026-04-25T10:47:12.281Z</time></trkpt><trkpt lat="41.5735823" lon="13.1296094"><ele>657.0</ele><time>2026-04-25T10:47:13.283Z</time></trkpt><trkpt lat="41.573727" lon="13.1294891"><ele>661.0</ele><time>2026-04-25T10:47:14.283Z</time></trkpt><trkpt lat="41.5738873" lon="13.1293623"><ele>665.0</ele><time>2026-04-25T10:47:15.29Z</time></trkpt><trkpt lat="41.5740392" lon="13.129258"><ele>665.0</ele><time>2026-04-25T10:47:16.29Z</time></trkpt><trkpt lat="41.5741815" lon="13.1291769"><ele>665.0</ele><time>2026-04-25T10:47:17.29Z</time></trkpt><trkpt lat="41.5743239" lon="13.1291099"><ele>665.0</ele><time>2026-04-25T10:47:18.286Z</time></trkpt><trkpt lat="41.5744764" lon="13.1290772"><ele>672.6666666666666</ele><time>2026-04-25T10:47:19.29Z</time></trkpt><trkpt lat="41.5746227" lon="13.1290492"><ele>680.3333333333334</ele><time>2026-04-25T10:47:20.289Z</time></trkpt><trkpt lat="41.5747794" lon="13.1289991"><ele>688.0</ele><time>2026-04-25T10:47:21.29Z</time></trkpt><trkpt lat="41.5749359" lon="13.1289286"><ele>688.0</ele><time>2026-04-25T10:47:22.286Z</time></trkpt><trkpt lat="41.575092" lon="13.1288453"><ele>688.0</ele><time>2026-04-25T10:47:23.29Z</time></trkpt><trkpt lat="41.5752394" lon="13.1287548"><ele>688.0</ele><time>2026-04-25T10:47:24.276Z</time></trkpt><trkpt lat="41.5753834" lon="13.1286581"><ele>683.0</ele><time>2026-04-25T10:47:25.278Z</time></trkpt><trkpt lat="41.5755199" lon="13.1285426"><ele>678.0</ele><time>2026-04-25T10:47:26.288Z</time></trkpt><trkpt lat="41.5756463" lon="13.1284178"><ele>673.0</ele><time>2026-04-25T10:47:27.29Z</time></trkpt><trkpt lat="41.5757729" lon="13.128278"><ele>680.0</ele><time>2026-04-25T10:47:28.289Z</time></trkpt><trkpt lat="41.5758982" lon="13.128121"><ele>687.0</ele><time>2026-04-25T10:47:29.287Z</time></trkpt><trkpt lat="41.576025" lon="13.127939"><ele>694.0</ele><time>2026-04-25T10:47:30.29Z</time></trkpt><trkpt lat="41.5761554" lon="13.1277945"><ele>695.3333333333334</ele><time>2026-04-25T10:47:31.29Z</time></trkpt><trkpt lat="41.576277" lon="13.1276557"><ele>696.6666666666666</ele><time>2026-04-25T10:47:32.289Z</time></trkpt><trkpt lat="41.5763913" lon="13.1275168"><ele>698.0</ele><time>2026-04-25T10:47:33.29Z</time></trkpt><trkpt lat="41.5764865" lon="13.1273765"><ele>698.0</ele><time>2026-04-25T10:47:34.29Z</time></trkpt><trkpt lat="41.5765763" lon="13.1272393"><ele>698.0</ele><time>2026-04-25T10:47:35.289Z</time></trkpt><trkpt lat="41.57667" lon="13.1271312"><ele>698.0</ele><time>2026-04-25T10:47:36.288Z</time></trkpt><trkpt lat="41.5767764" lon="13.1270608"><ele>698.0</ele><time>2026-04-25T10:47:37.288Z</time></trkpt><trkpt lat="41.5769131" lon="13.1270322"><ele>696.75</ele><time>2026-04-25T10:47:38.289Z</time></trkpt><trkpt lat="41.5770566" lon="13.1270249"><ele>695.5</ele><time>2026-04-25T10:47:39.289Z</time></trkpt><trkpt lat="41.5771947" lon="13.1269867"><ele>694.25</ele><time>2026-04-25T10:47:40.289Z</time></trkpt><trkpt lat="41.5773314" lon="13.1269042"><ele>693.0</ele><time>2026-04-25T10:47:41.29Z</time></trkpt><trkpt lat="41.5774603" lon="13.126803"><ele>693.0</ele><time>2026-04-25T10:47:42.291Z</time></trkpt><trkpt lat="41.5775814" lon="13.1267291"><ele>693.0</ele><time>2026-04-25T10:47:43.287Z</time></trkpt><trkpt lat="41.5777088" lon="13.1267081"><ele>693.0</ele><time>2026-04-25T10:47:44.292Z</time></trkpt><trkpt lat="41.5778333" lon="13.126698"><ele>693.0</ele><time>2026-04-25T10:47:45.295Z</time></trkpt><trkpt lat="41.5779506" lon="13.1266436"><ele>694.75</ele><time>2026-04-25T10:47:46.291Z</time></trkpt><trkpt lat="41.5780743" lon="13.1265362"><ele>696.5</ele><time>2026-04-25T10:47:47.291Z</time></trkpt><trkpt lat="41.5781915" lon="13.1264202"><ele>698.25</ele><time>2026-04-25T10:47:48.292Z</time></trkpt><trkpt lat="41.5783029" lon="13.1263347"><ele>700.0</ele><time>2026-04-25T10:47:49.289Z</time></trkpt><trkpt lat="41.5784288" lon="13.1262881"><ele>700.0</ele><time>2026-04-25T10:47:50.289Z</time></trkpt><trkpt lat="41.5785719" lon="13.1262821"><ele>700.0</ele><time>2026-04-25T10:47:51.277Z</time></trkpt><trkpt lat="41.5787132" lon="13.1262973"><ele>700.0</ele><time>2026-04-25T10:47:52.288Z</time></trkpt><trkpt lat="41.5788443" lon="13.1262936"><ele>700.0</ele><time>2026-04-25T10:47:53.289Z</time></trkpt><trkpt lat="41.5789722" lon="13.1262564"><ele>699.3333333333334</ele><time>2026-04-25T10:47:54.29Z</time></trkpt><trkpt lat="41.5791065" lon="13.1261865"><ele>698.6666666666666</ele><time>2026-04-25T10:47:55.29Z</time></trkpt><trkpt lat="41.5792649" lon="13.1260742"><ele>698.0</ele><time>2026-04-25T10:47:56.289Z</time></trkpt><trkpt lat="41.5794467" lon="13.1259328"><ele>697.0</ele><time>2026-04-25T10:47:57.29Z</time></trkpt><trkpt lat="41.5796424" lon="13.1257809"><ele>696.0</ele><time>2026-04-25T10:47:58.292Z</time></trkpt><trkpt lat="41.5798421" lon="13.1256203"><ele>698.5</ele><time>2026-04-25T10:47:59.29Z</time></trkpt><trkpt lat="41.5800452" lon="13.1254406"><ele>701.0</ele><time>2026-04-25T10:48:00.295Z</time></trkpt><trkpt lat="41.5802286" lon="13.1252708"><ele>700.6666666666666</ele><time>2026-04-25T10:48:01.29Z</time></trkpt><trkpt lat="41.5803885" lon="13.1251204"><ele>700.3333333333334</ele><time>2026-04-25T10:48:02.289Z</time></trkpt><trkpt lat="41.5805283" lon="13.1249739"><ele>700.0</ele><time>2026-04-25T10:48:03.287Z</time></trkpt><trkpt lat="41.5806539" lon="13.1248205"><ele>700.6666666666667</ele><time>2026-04-25T10:48:04.289Z</time></trkpt><trkpt lat="41.5807741" lon="13.1246315"><ele>701.3333333333334</ele><time>2026-04-25T10:48:05.289Z</time></trkpt><trkpt lat="41.5809" lon="13.1244069"><ele>702.0</ele><time>2026-04-25T10:48:06.285Z</time></trkpt><trkpt lat="41.5810284" lon="13.1241707"><ele>702.0</ele><time>2026-04-25T10:48:07.284Z</time></trkpt><trkpt lat="41.5811488" lon="13.1239515"><ele>702.0</ele><time>2026-04-25T10:48:08.29Z</time></trkpt><trkpt lat="41.5812712" lon="13.1237669"><ele>702.0</ele><time>2026-04-25T10:48:09.288Z</time></trkpt><trkpt lat="41.5814046" lon="13.1236166"><ele>702.0</ele><time>2026-04-25T10:48:10.276Z</time></trkpt><trkpt lat="41.5815632" lon="13.1234803"><ele>702.0</ele><time>2026-04-25T10:48:11.279Z</time></trkpt><trkpt lat="41.5817446" lon="13.1233433"><ele>702.0</ele><time>2026-04-25T10:48:12.277Z</time></trkpt><trkpt lat="41.5819331" lon="13.1232252"><ele>701.3333333333334</ele><time>2026-04-25T10:48:13.278Z</time></trkpt><trkpt lat="41.5821058" lon="13.1231521"><ele>700.6666666666667</ele><time>2026-04-25T10:48:14.279Z</time></trkpt><trkpt lat="41.5822502" lon="13.1231074"><ele>700.0</ele><time>2026-04-25T10:48:15.277Z</time></trkpt><trkpt lat="41.5823819" lon="13.1230423"><ele>700.0</ele><time>2026-04-25T10:48:16.279Z</time></trkpt><trkpt lat="41.5825125" lon="13.1229152"><ele>700.0</ele><time>2026-04-25T10:48:17.276Z</time></trkpt><trkpt lat="41.5826427" lon="13.1227423"><ele>700.0</ele><time>2026-04-25T10:48:18.278Z</time></trkpt><trkpt lat="41.5827638" lon="13.1225408"><ele>698.0</ele><time>2026-04-25T10:48:19.278Z</time></trkpt><trkpt lat="41.5828798" lon="13.1223409"><ele>696.0</ele><time>2026-04-25T10:48:20.28Z</time></trkpt><trkpt lat="41.5829975" lon="13.1221605"><ele>694.0</ele><time>2026-04-25T10:48:21.278Z</time></trkpt><trkpt lat="41.5831283" lon="13.1219896"><ele>694.0</ele><time>2026-04-25T10:48:22.278Z</time></trkpt><trkpt lat="41.5832696" lon="13.1218362"><ele>694.0</ele><time>2026-04-25T10:48:23.278Z</time></trkpt><trkpt lat="41.5834137" lon="13.1216927"><ele>694.0</ele><time>2026-04-25T10:48:24.28Z</time></trkpt><trkpt lat="41.5835508" lon="13.12156"><ele>693.5</ele><time>2026-04-25T10:48:25.281Z</time></trkpt><trkpt lat="41.5836772" lon="13.1214438"><ele>693.0</ele><time>2026-04-25T10:48:26.281Z</time></trkpt><trkpt lat="41.5837865" lon="13.1213485"><ele>692.5</ele><time>2026-04-25T10:48:27.28Z</time></trkpt><trkpt lat="41.5838734" lon="13.1212687"><ele>692.0</ele><time>2026-04-25T10:48:28.279Z</time></trkpt><trkpt lat="41.583952" lon="13.1211918"><ele>692.0</ele><time>2026-04-25T10:48:29.282Z</time></trkpt><trkpt lat="41.5840239" lon="13.1211171"><ele>692.0</ele><time>2026-04-25T10:48:30.281Z</time></trkpt><trkpt lat="41.5840823" lon="13.1210398"><ele>692.0</ele><time>2026-04-25T10:48:31.278Z</time></trkpt><trkpt lat="41.5841192" lon="13.1209477"><ele>692.0</ele><time>2026-04-25T10:48:32.277Z</time></trkpt><trkpt lat="41.5841299" lon="13.1208291"><ele>692.0</ele><time>2026-04-25T10:48:33.274Z</time></trkpt><trkpt lat="41.5841162" lon="13.1206967"><ele>692.0</ele><time>2026-04-25T10:48:34.274Z</time></trkpt><trkpt lat="41.584111" lon="13.1205745"><ele>692.8</ele><time>2026-04-25T10:48:35.277Z</time></trkpt><trkpt lat="41.5841386" lon="13.1204719"><ele>693.6</ele><time>2026-04-25T10:48:36.277Z</time></trkpt><trkpt lat="41.5841945" lon="13.1203907"><ele>694.4</ele><time>2026-04-25T10:48:37.276Z</time></trkpt><trkpt lat="41.5842764" lon="13.1203309"><ele>695.1999999999999</ele><time>2026-04-25T10:48:38.278Z</time></trkpt><trkpt lat="41.5843813" lon="13.1202752"><ele>696.0</ele><time>2026-04-25T10:48:39.274Z</time></trkpt><trkpt lat="41.58448" lon="13.1202028"><ele>695.5</ele><time>2026-04-25T10:48:40.275Z</time></trkpt><trkpt lat="41.5845772" lon="13.1200893"><ele>695.0</ele><time>2026-04-25T10:48:41.274Z</time></trkpt><trkpt lat="41.5846847" lon="13.1199441"><ele>694.5</ele><time>2026-04-25T10:48:42.275Z</time></trkpt><trkpt lat="41.5847836" lon="13.1197967"><ele>694.0</ele><time>2026-04-25T10:48:43.275Z</time></trkpt><trkpt lat="41.584868" lon="13.119647"><ele>694.0</ele><time>2026-04-25T10:48:44.28Z</time></trkpt><trkpt lat="41.584936" lon="13.1195107"><ele>694.0</ele><time>2026-04-25T10:48:45.277Z</time></trkpt><trkpt lat="41.5849938" lon="13.1193916"><ele>694.0</ele><time>2026-04-25T10:48:46.277Z</time></trkpt><trkpt lat="41.5850648" lon="13.1192915"><ele>694.0</ele><time>2026-04-25T10:48:47.275Z</time></trkpt><trkpt lat="41.5851624" lon="13.1192142"><ele>694.0</ele><time>2026-04-25T10:48:48.278Z</time></trkpt><trkpt lat="41.5852672" lon="13.1191573"><ele>690.5</ele><time>2026-04-25T10:48:49.277Z</time></trkpt><trkpt lat="41.5853586" lon="13.1190892"><ele>687.0</ele><time>2026-04-25T10:48:50.277Z</time></trkpt><trkpt lat="41.5854363" lon="13.1189826"><ele>683.5</ele><time>2026-04-25T10:48:51.276Z</time></trkpt><trkpt lat="41.5854957" lon="13.1188444"><ele>680.0</ele><time>2026-04-25T10:48:52.276Z</time></trkpt><trkpt lat="41.5855275" lon="13.1186817"><ele>679.8</ele><time>2026-04-25T10:48:53.277Z</time></trkpt><trkpt lat="41.585541" lon="13.1185165"><ele>679.6</ele><time>2026-04-25T10:48:54.277Z</time></trkpt><trkpt lat="41.5855646" lon="13.1183806"><ele>679.4000000000001</ele><time>2026-04-25T10:48:55.277Z</time></trkpt><trkpt lat="41.5856225" lon="13.1182825"><ele>679.2</ele><time>2026-04-25T10:48:56.277Z</time></trkpt><trkpt lat="41.5857133" lon="13.1182131"><ele>679.0</ele><time>2026-04-25T10:48:57.279Z</time></trkpt><trkpt lat="41.5858245" lon="13.118157"><ele>677.25</ele><time>2026-04-25T10:48:58.276Z</time></trkpt><trkpt lat="41.5859371" lon="13.1180806"><ele>675.5</ele><time>2026-04-25T10:48:59.277Z</time></trkpt><trkpt lat="41.5860401" lon="13.1179561"><ele>673.75</ele><time>2026-04-25T10:49:00.278Z</time></trkpt><trkpt lat="41.5861397" lon="13.117792"><ele>672.0</ele><time>2026-04-25T10:49:01.275Z</time></trkpt><trkpt lat="41.5862416" lon="13.1176279"><ele>672.0</ele><time>2026-04-25T10:49:02.279Z</time></trkpt><trkpt lat="41.586354" lon="13.1174939"><ele>672.0</ele><time>2026-04-25T10:49:03.276Z</time></trkpt><trkpt lat="41.5864724" lon="13.1174032"><ele>672.0</ele><time>2026-04-25T10:49:04.277Z</time></trkpt><trkpt lat="41.5865807" lon="13.1173377"><ele>672.0</ele><time>2026-04-25T10:49:05.277Z</time></trkpt><trkpt lat="41.5866711" lon="13.1172543"><ele>674.75</ele><time>2026-04-25T10:49:06.278Z</time></trkpt><trkpt lat="41.5867425" lon="13.117128"><ele>677.5</ele><time>2026-04-25T10:49:07.282Z</time></trkpt><trkpt lat="41.5868009" lon="13.1169608"><ele>680.25</ele><time>2026-04-25T10:49:08.278Z</time></trkpt><trkpt lat="41.5868411" lon="13.1167607"><ele>683.0</ele><time>2026-04-25T10:49:09.279Z</time></trkpt><trkpt lat="41.5868558" lon="13.1165524"><ele>684.5</ele><time>2026-04-25T10:49:10.376Z</time></trkpt><trkpt lat="41.5868418" lon="13.1163665"><ele>686.0</ele><time>2026-04-25T10:49:11.28Z</time></trkpt><trkpt lat="41.5868177" lon="13.1161929"><ele>687.5</ele><time>2026-04-25T10:49:12.275Z</time></trkpt><trkpt lat="41.5868165" lon="13.1160446"><ele>689.0</ele><time>2026-04-25T10:49:13.274Z</time></trkpt><trkpt lat="41.5868484" lon="13.1158901"><ele>692.25</ele><time>2026-04-25T10:49:14.289Z</time></trkpt><trkpt lat="41.5869131" lon="13.1157209"><ele>695.5</ele><time>2026-04-25T10:49:15.274Z</time></trkpt><trkpt lat="41.5869736" lon="13.115544"><ele>698.75</ele><time>2026-04-25T10:49:16.275Z</time></trkpt><trkpt lat="41.5870212" lon="13.1153852"><ele>702.0</ele><time>2026-04-25T10:49:17.276Z</time></trkpt><trkpt lat="41.587082" lon="13.1152622"><ele>698.2</ele><time>2026-04-25T10:49:18.275Z</time></trkpt><trkpt lat="41.5871633" lon="13.1151659"><ele>694.4000000000001</ele><time>2026-04-25T10:49:19.279Z</time></trkpt><trkpt lat="41.5872473" lon="13.1150809"><ele>690.5999999999999</ele><time>2026-04-25T10:49:20.276Z</time></trkpt><trkpt lat="41.5873198" lon="13.1149772"><ele>686.8</ele><time>2026-04-25T10:49:21.278Z</time></trkpt><trkpt lat="41.5873679" lon="13.1148513"><ele>683.0</ele><time>2026-04-25T10:49:22.277Z</time></trkpt><trkpt lat="41.5873935" lon="13.1147081"><ele>683.0</ele><time>2026-04-25T10:49:23.275Z</time></trkpt><trkpt lat="41.5873998" lon="13.1145594"><ele>683.0</ele><time>2026-04-25T10:49:24.276Z</time></trkpt><trkpt lat="41.587412" lon="13.1144237"><ele>683.0</ele><time>2026-04-25T10:49:25.278Z</time></trkpt><trkpt lat="41.5874508" lon="13.1142914"><ele>683.0</ele><time>2026-04-25T10:49:26.277Z</time></trkpt><trkpt lat="41.5875162" lon="13.1141497"><ele>683.0</ele><time>2026-04-25T10:49:27.278Z</time></trkpt><trkpt lat="41.5876072" lon="13.1140194"><ele>679.0</ele><time>2026-04-25T10:49:28.275Z</time></trkpt><trkpt lat="41.5877097" lon="13.1139004"><ele>675.0</ele><time>2026-04-25T10:49:29.28Z</time></trkpt><trkpt lat="41.5877974" lon="13.1137637"><ele>671.0</ele><time>2026-04-25T10:49:30.289Z</time></trkpt><trkpt lat="41.5878662" lon="13.1136079"><ele>667.0</ele><time>2026-04-25T10:49:31.285Z</time></trkpt><trkpt lat="41.5879421" lon="13.1134769"><ele>667.0</ele><time>2026-04-25T10:49:32.279Z</time></trkpt><trkpt lat="41.5880348" lon="13.1133804"><ele>667.0</ele><time>2026-04-25T10:49:33.279Z</time></trkpt><trkpt lat="41.5881287" lon="13.1133062"><ele>667.0</ele><time>2026-04-25T10:49:34.278Z</time></trkpt><trkpt lat="41.5882059" lon="13.1132273"><ele>667.0</ele><time>2026-04-25T10:49:35.279Z</time></trkpt><trkpt lat="41.5882587" lon="13.1131176"><ele>667.0</ele><time>2026-04-25T10:49:36.279Z</time></trkpt><trkpt lat="41.5882944" lon="13.1129775"><ele>671.4000000000001</ele><time>2026-04-25T10:49:37.28Z</time></trkpt><trkpt lat="41.5883276" lon="13.1128398"><ele>675.8000000000001</ele><time>2026-04-25T10:49:38.278Z</time></trkpt><trkpt lat="41.5883789" lon="13.1127308"><ele>680.2</ele><time>2026-04-25T10:49:39.275Z</time></trkpt><trkpt lat="41.5884567" lon="13.1126481"><ele>684.6</ele><time>2026-04-25T10:49:40.278Z</time></trkpt><trkpt lat="41.5885576" lon="13.1125958"><ele>689.0</ele><time>2026-04-25T10:49:41.283Z</time></trkpt><trkpt lat="41.588668" lon="13.112566"><ele>687.25</ele><time>2026-04-25T10:49:42.276Z</time></trkpt><trkpt lat="41.5887789" lon="13.1125311"><ele>685.5</ele><time>2026-04-25T10:49:43.288Z</time></trkpt><trkpt lat="41.5888854" lon="13.1124535"><ele>683.75</ele><time>2026-04-25T10:49:44.287Z</time></trkpt><trkpt lat="41.5889847" lon="13.1123287"><ele>682.0</ele><time>2026-04-25T10:49:45.278Z</time></trkpt><trkpt lat="41.589074" lon="13.1121848"><ele>682.0</ele><time>2026-04-25T10:49:46.278Z</time></trkpt><trkpt lat="41.5891564" lon="13.1120552"><ele>682.0</ele><time>2026-04-25T10:49:47.277Z</time></trkpt><trkpt lat="41.5892419" lon="13.1119557"><ele>682.0</ele><time>2026-04-25T10:49:48.279Z</time></trkpt><trkpt lat="41.5893235" lon="13.1118679"><ele>682.0</ele><time>2026-04-25T10:49:49.276Z</time></trkpt><trkpt lat="41.5893939" lon="13.1117556"><ele>682.0</ele><time>2026-04-25T10:49:50.28Z</time></trkpt><trkpt lat="41.5894552" lon="13.1115954"><ele>682.0</ele><time>2026-04-25T10:49:51.277Z</time></trkpt><trkpt lat="41.5895155" lon="13.1114178"><ele>682.0</ele><time>2026-04-25T10:49:52.288Z</time></trkpt><trkpt lat="41.5895531" lon="13.1111638"><ele>671.0</ele><time>2026-04-25T10:49:53.282Z</time></trkpt><trkpt lat="41.5895955" lon="13.1109193"><ele>660.0</ele><time>2026-04-25T10:49:54.281Z</time></trkpt><trkpt lat="41.589637" lon="13.1107004"><ele>649.0</ele><time>2026-04-25T10:49:55.29Z</time></trkpt><trkpt lat="41.5896763" lon="13.1104935"><ele>649.0</ele><time>2026-04-25T10:49:56.287Z</time></trkpt><trkpt lat="41.589706" lon="13.1102864"><ele>649.0</ele><time>2026-04-25T10:49:57.279Z</time></trkpt><trkpt lat="41.5897193" lon="13.1100725"><ele>649.0</ele><time>2026-04-25T10:49:58.278Z</time></trkpt><trkpt lat="41.5897079" lon="13.1098386"><ele>647.3333333333334</ele><time>2026-04-25T10:49:59.276Z</time></trkpt><trkpt lat="41.5896802" lon="13.1095817"><ele>645.6666666666666</ele><time>2026-04-25T10:50:00.279Z</time></trkpt><trkpt lat="41.5896413" lon="13.1093081"><ele>644.0</ele><time>2026-04-25T10:50:01.275Z</time></trkpt><trkpt lat="41.589591" lon="13.1090167"><ele>641.3333333333333</ele><time>2026-04-25T10:50:02.28Z</time></trkpt><trkpt lat="41.589538" lon="13.108739"><ele>638.6666666666666</ele><time>2026-04-25T10:50:03.278Z</time></trkpt><trkpt lat="41.5894912" lon="13.108489"><ele>636.0</ele><time>2026-04-25T10:50:04.277Z</time></trkpt><trkpt lat="41.5894514" lon="13.1082589"><ele>648.0</ele><time>2026-04-25T10:50:05.278Z</time></trkpt><trkpt lat="41.5894113" lon="13.1080479"><ele>660.0</ele><time>2026-04-25T10:50:06.277Z</time></trkpt><trkpt lat="41.5893699" lon="13.1078542"><ele>672.0</ele><time>2026-04-25T10:50:07.279Z</time></trkpt><trkpt lat="41.5893271" lon="13.107673"><ele>672.0</ele><time>2026-04-25T10:50:08.277Z</time></trkpt><trkpt lat="41.5892905" lon="13.1074971"><ele>672.0</ele><time>2026-04-25T10:50:09.288Z</time></trkpt><trkpt lat="41.5892677" lon="13.1073197"><ele>672.0</ele><time>2026-04-25T10:50:10.278Z</time></trkpt><trkpt lat="41.5892536" lon="13.107144"><ele>672.0</ele><time>2026-04-25T10:50:11.278Z</time></trkpt><trkpt lat="41.5892469" lon="13.1069851"><ele>673.0</ele><time>2026-04-25T10:50:12.278Z</time></trkpt><trkpt lat="41.5892446" lon="13.106841"><ele>674.0</ele><time>2026-04-25T10:50:13.281Z</time></trkpt><trkpt lat="41.5892405" lon="13.1067096"><ele>675.0</ele><time>2026-04-25T10:50:14.277Z</time></trkpt><trkpt lat="41.5892532" lon="13.1066009"><ele>676.0</ele><time>2026-04-25T10:50:15.28Z</time></trkpt><trkpt lat="41.5893033" lon="13.1065158"><ele>677.0</ele><time>2026-04-25T10:50:16.281Z</time></trkpt><trkpt lat="41.5893779" lon="13.106466"><ele>677.0</ele><time>2026-04-25T10:50:17.278Z</time></trkpt><trkpt lat="41.5894673" lon="13.1064637"><ele>677.0</ele><time>2026-04-25T10:50:18.277Z</time></trkpt><trkpt lat="41.5895683" lon="13.1065103"><ele>677.0</ele><time>2026-04-25T10:50:19.28Z</time></trkpt><trkpt lat="41.5896833" lon="13.1065945"><ele>677.0</ele><time>2026-04-25T10:50:20.279Z</time></trkpt><trkpt lat="41.5898264" lon="13.1066972"><ele>674.6666666666666</ele><time>2026-04-25T10:50:21.284Z</time></trkpt><trkpt lat="41.59" lon="13.106804"><ele>672.3333333333334</ele><time>2026-04-25T10:50:22.281Z</time></trkpt><trkpt lat="41.5901806" lon="13.106909"><ele>670.0</ele><time>2026-04-25T10:50:23.281Z</time></trkpt><trkpt lat="41.5903524" lon="13.107007"><ele>670.0</ele><time>2026-04-25T10:50:24.283Z</time></trkpt><trkpt lat="41.5905137" lon="13.1070839"><ele>670.0</ele><time>2026-04-25T10:50:25.291Z</time></trkpt><trkpt lat="41.5906615" lon="13.1071412"><ele>670.0</ele><time>2026-04-25T10:50:26.28Z</time></trkpt><trkpt lat="41.5908183" lon="13.1071963"><ele>670.0</ele><time>2026-04-25T10:50:27.279Z</time></trkpt><trkpt lat="41.5909932" lon="13.1072447"><ele>670.0</ele><time>2026-04-25T10:50:28.28Z</time></trkpt><trkpt lat="41.5911692" lon="13.1072735"><ele>670.0</ele><time>2026-04-25T10:50:29.286Z</time></trkpt><trkpt lat="41.5913284" lon="13.1072856"><ele>668.5</ele><time>2026-04-25T10:50:30.281Z</time></trkpt><trkpt lat="41.5914634" lon="13.107286"><ele>667.0</ele><time>2026-04-25T10:50:31.289Z</time></trkpt><trkpt lat="41.5915785" lon="13.1072669"><ele>665.5</ele><time>2026-04-25T10:50:32.279Z</time></trkpt><trkpt lat="41.5916912" lon="13.107205"><ele>664.0</ele><time>2026-04-25T10:50:33.277Z</time></trkpt><trkpt lat="41.5918053" lon="13.1070901"><ele>664.0</ele><time>2026-04-25T10:50:34.286Z</time></trkpt><trkpt lat="41.5919215" lon="13.1069341"><ele>664.0</ele><time>2026-04-25T10:50:35.279Z</time></trkpt><trkpt lat="41.5920491" lon="13.1067736"><ele>664.0</ele><time>2026-04-25T10:50:36.278Z</time></trkpt><trkpt lat="41.5921897" lon="13.1066323"><ele>660.6666666666667</ele><time>2026-04-25T10:50:37.279Z</time></trkpt><trkpt lat="41.5923305" lon="13.1065078"><ele>657.3333333333334</ele><time>2026-04-25T10:50:38.278Z</time></trkpt><trkpt lat="41.5924569" lon="13.1063866"><ele>654.0</ele><time>2026-04-25T10:50:39.277Z</time></trkpt><trkpt lat="41.5925715" lon="13.1062531"><ele>654.0</ele><time>2026-04-25T10:50:40.277Z</time></trkpt><trkpt lat="41.5926763" lon="13.1060846"><ele>654.0</ele><time>2026-04-25T10:50:41.28Z</time></trkpt><trkpt lat="41.5927672" lon="13.1058721"><ele>654.0</ele><time>2026-04-25T10:50:42.281Z</time></trkpt><trkpt lat="41.5928584" lon="13.1056404"><ele>646.3333333333334</ele><time>2026-04-25T10:50:43.278Z</time></trkpt><trkpt lat="41.5929764" lon="13.105408"><ele>638.6666666666667</ele><time>2026-04-25T10:50:44.288Z</time></trkpt><trkpt lat="41.5931141" lon="13.1051762"><ele>631.0</ele><time>2026-04-25T10:50:45.278Z</time></trkpt><trkpt lat="41.5932562" lon="13.1049544"><ele>638.0</ele><time>2026-04-25T10:50:46.281Z</time></trkpt><trkpt lat="41.5933836" lon="13.1047572"><ele>645.0</ele><time>2026-04-25T10:50:47.279Z</time></trkpt><trkpt lat="41.5934995" lon="13.1045739"><ele>652.0</ele><time>2026-04-25T10:50:48.279Z</time></trkpt><trkpt lat="41.5936067" lon="13.104402"><ele>649.75</ele><time>2026-04-25T10:50:49.29Z</time></trkpt><trkpt lat="41.5937072" lon="13.104253"><ele>647.5</ele><time>2026-04-25T10:50:50.28Z</time></trkpt><trkpt lat="41.5938149" lon="13.1041413"><ele>645.25</ele><time>2026-04-25T10:50:51.29Z</time></trkpt><trkpt lat="41.593935" lon="13.1040528"><ele>643.0</ele><time>2026-04-25T10:50:52.282Z</time></trkpt><trkpt lat="41.5940588" lon="13.1039757"><ele>643.0</ele><time>2026-04-25T10:50:53.282Z</time></trkpt><trkpt lat="41.5941766" lon="13.1038675"><ele>643.0</ele><time>2026-04-25T10:50:54.282Z</time></trkpt><trkpt lat="41.5942901" lon="13.10375"><ele>643.0</ele><time>2026-04-25T10:50:55.289Z</time></trkpt><trkpt lat="41.5943782" lon="13.1036234"><ele>643.0</ele><time>2026-04-25T10:50:56.281Z</time></trkpt><trkpt lat="41.5944513" lon="13.1034673"><ele>641.0</ele><time>2026-04-25T10:50:57.384Z</time></trkpt><trkpt lat="41.5945918" lon="13.103178"><ele>639.0</ele><time>2026-04-25T10:50:59.288Z</time></trkpt><trkpt lat="41.5947027" lon="13.1030443"><ele>637.0</ele><time>2026-04-25T10:51:00.276Z</time></trkpt><trkpt lat="41.5948182" lon="13.1029298"><ele>637.0</ele><time>2026-04-25T10:51:01.285Z</time></trkpt><trkpt lat="41.5949462" lon="13.1028211"><ele>637.0</ele><time>2026-04-25T10:51:02.279Z</time></trkpt><trkpt lat="41.5950884" lon="13.1027516"><ele>637.0</ele><time>2026-04-25T10:51:03.278Z</time></trkpt><trkpt lat="41.5952318" lon="13.1027115"><ele>632.75</ele><time>2026-04-25T10:51:04.287Z</time></trkpt><trkpt lat="41.5953684" lon="13.1026673"><ele>628.5</ele><time>2026-04-25T10:51:05.28Z</time></trkpt><trkpt lat="41.5954988" lon="13.1026004"><ele>624.25</ele><time>2026-04-25T10:51:06.289Z</time></trkpt><trkpt lat="41.5956251" lon="13.1025357"><ele>620.0</ele><time>2026-04-25T10:51:07.283Z</time></trkpt><trkpt lat="41.5957425" lon="13.1024995"><ele>620.0</ele><time>2026-04-25T10:51:08.28Z</time></trkpt><trkpt lat="41.5958481" lon="13.1024729"><ele>620.0</ele><time>2026-04-25T10:51:09.279Z</time></trkpt><trkpt lat="41.5959521" lon="13.1024006"><ele>620.0</ele><time>2026-04-25T10:51:10.277Z</time></trkpt><trkpt lat="41.5960393" lon="13.102297"><ele>620.0</ele><time>2026-04-25T10:51:11.284Z</time></trkpt><trkpt lat="41.5961091" lon="13.1021598"><ele>619.0</ele><time>2026-04-25T10:51:12.282Z</time></trkpt><trkpt lat="41.5961618" lon="13.1020128"><ele>618.0</ele><time>2026-04-25T10:51:13.29Z</time></trkpt><trkpt lat="41.5962322" lon="13.1018934"><ele>617.0</ele><time>2026-04-25T10:51:14.28Z</time></trkpt><trkpt lat="41.5963283" lon="13.1018108"><ele>616.0</ele><time>2026-04-25T10:51:15.289Z</time></trkpt><trkpt lat="41.5964397" lon="13.1017552"><ele>616.0</ele><time>2026-04-25T10:51:16.28Z</time></trkpt><trkpt lat="41.5965519" lon="13.1016766"><ele>616.0</ele><time>2026-04-25T10:51:17.286Z</time></trkpt><trkpt lat="41.5966539" lon="13.1015577"><ele>616.0</ele><time>2026-04-25T10:51:18.278Z</time></trkpt><trkpt lat="41.5967333" lon="13.1014061"><ele>616.0</ele><time>2026-04-25T10:51:19.28Z</time></trkpt><trkpt lat="41.5968111" lon="13.101264"><ele>613.6666666666667</ele><time>2026-04-25T10:51:20.277Z</time></trkpt><trkpt lat="41.5969084" lon="13.1011569"><ele>611.3333333333334</ele><time>2026-04-25T10:51:21.281Z</time></trkpt><trkpt lat="41.5970434" lon="13.1010346"><ele>609.0</ele><time>2026-04-25T10:51:22.279Z</time></trkpt><trkpt lat="41.5971943" lon="13.1009073"><ele>609.0</ele><time>2026-04-25T10:51:23.28Z</time></trkpt><trkpt lat="41.597334" lon="13.1007874"><ele>609.0</ele><time>2026-04-25T10:51:24.281Z</time></trkpt><trkpt lat="41.5974671" lon="13.1006809"><ele>609.0</ele><time>2026-04-25T10:51:25.282Z</time></trkpt><trkpt lat="41.5975927" lon="13.1006"><ele>606.0</ele><time>2026-04-25T10:51:26.282Z</time></trkpt><trkpt lat="41.597717" lon="13.1004926"><ele>603.0</ele><time>2026-04-25T10:51:27.282Z</time></trkpt><trkpt lat="41.5978257" lon="13.1003455"><ele>600.0</ele><time>2026-04-25T10:51:28.282Z</time></trkpt><trkpt lat="41.5979098" lon="13.1001738"><ele>600.0</ele><time>2026-04-25T10:51:29.279Z</time></trkpt><trkpt lat="41.5979803" lon="13.1000115"><ele>600.0</ele><time>2026-04-25T10:51:30.288Z</time></trkpt><trkpt lat="41.5980738" lon="13.099852"><ele>600.0</ele><time>2026-04-25T10:51:31.287Z</time></trkpt><trkpt lat="41.5981969" lon="13.0997118"><ele>602.0</ele><time>2026-04-25T10:51:32.288Z</time></trkpt><trkpt lat="41.5983433" lon="13.0995928"><ele>604.0</ele><time>2026-04-25T10:51:33.279Z</time></trkpt><trkpt lat="41.5985176" lon="13.0994735"><ele>606.0</ele><time>2026-04-25T10:51:34.278Z</time></trkpt><trkpt lat="41.5986842" lon="13.0993739"><ele>606.0</ele><time>2026-04-25T10:51:35.282Z</time></trkpt><trkpt lat="41.5988432" lon="13.099291"><ele>606.0</ele><time>2026-04-25T10:51:36.289Z</time></trkpt><trkpt lat="41.5989991" lon="13.0992126"><ele>606.0</ele><time>2026-04-25T10:51:37.28Z</time></trkpt><trkpt lat="41.5991539" lon="13.0991269"><ele>605.6666666666666</ele><time>2026-04-25T10:51:38.279Z</time></trkpt><trkpt lat="41.5992867" lon="13.0990066"><ele>605.3333333333333</ele><time>2026-04-25T10:51:39.28Z</time></trkpt><trkpt lat="41.5994327" lon="13.0988496"><ele>605.0</ele><time>2026-04-25T10:51:40.288Z</time></trkpt><trkpt lat="41.5995826" lon="13.0986766"><ele>605.0</ele><time>2026-04-25T10:51:41.285Z</time></trkpt><trkpt lat="41.5997332" lon="13.0985215"><ele>605.0</ele><time>2026-04-25T10:51:42.284Z</time></trkpt><trkpt lat="41.5998709" lon="13.0983784"><ele>605.0</ele><time>2026-04-25T10:51:43.288Z</time></trkpt><trkpt lat="41.5999964" lon="13.0982306"><ele>604.0</ele><time>2026-04-25T10:51:44.282Z</time></trkpt><trkpt lat="41.6001121" lon="13.0980977"><ele>603.0</ele><time>2026-04-25T10:51:45.281Z</time></trkpt><trkpt lat="41.6002299" lon="13.0979895"><ele>602.0</ele><time>2026-04-25T10:51:46.279Z</time></trkpt><trkpt lat="41.6003453" lon="13.0979168"><ele>601.0</ele><time>2026-04-25T10:51:47.287Z</time></trkpt><trkpt lat="41.6004516" lon="13.097831"><ele>601.0</ele><time>2026-04-25T10:51:48.277Z</time></trkpt><trkpt lat="41.6005361" lon="13.0977108"><ele>601.0</ele><time>2026-04-25T10:51:49.282Z</time></trkpt><trkpt lat="41.6006024" lon="13.0975889"><ele>601.0</ele><time>2026-04-25T10:51:50.279Z</time></trkpt><trkpt lat="41.6006715" lon="13.0974778"><ele>601.0</ele><time>2026-04-25T10:51:51.28Z</time></trkpt><trkpt lat="41.6007686" lon="13.0973856"><ele>598.75</ele><time>2026-04-25T10:51:52.279Z</time></trkpt><trkpt lat="41.6008891" lon="13.0973085"><ele>596.5</ele><time>2026-04-25T10:51:53.28Z</time></trkpt><trkpt lat="41.6010121" lon="13.0972364"><ele>594.25</ele><time>2026-04-25T10:51:54.279Z</time></trkpt><trkpt lat="41.6011255" lon="13.0971432"><ele>592.0</ele><time>2026-04-25T10:51:55.28Z</time></trkpt><trkpt lat="41.6012402" lon="13.0970233"><ele>592.0</ele><time>2026-04-25T10:51:56.278Z</time></trkpt><trkpt lat="41.6013421" lon="13.0968624"><ele>592.0</ele><time>2026-04-25T10:51:57.288Z</time></trkpt><trkpt lat="41.6014325" lon="13.0966824"><ele>592.0</ele><time>2026-04-25T10:51:58.279Z</time></trkpt><trkpt lat="41.601521" lon="13.0964896"><ele>595.6666666666667</ele><time>2026-04-25T10:51:59.28Z</time></trkpt><trkpt lat="41.6015968" lon="13.0962823"><ele>599.3333333333334</ele><time>2026-04-25T10:52:00.279Z</time></trkpt><trkpt lat="41.6016527" lon="13.0960772"><ele>603.0</ele><time>2026-04-25T10:52:01.283Z</time></trkpt><trkpt lat="41.6016873" lon="13.0958672"><ele>605.0</ele><time>2026-04-25T10:52:02.296Z</time></trkpt><trkpt lat="41.6017126" lon="13.0956555"><ele>607.0</ele><time>2026-04-25T10:52:03.28Z</time></trkpt><trkpt lat="41.6017406" lon="13.0954581"><ele>609.0</ele><time>2026-04-25T10:52:04.289Z</time></trkpt><trkpt lat="41.6017672" lon="13.0952882"><ele>611.0</ele><time>2026-04-25T10:52:05.279Z</time></trkpt><trkpt lat="41.6018114" lon="13.0951379"><ele>611.0</ele><time>2026-04-25T10:52:06.281Z</time></trkpt><trkpt lat="41.6018737" lon="13.0950148"><ele>611.0</ele><time>2026-04-25T10:52:07.28Z</time></trkpt><trkpt lat="41.6019607" lon="13.0949018"><ele>611.0</ele><time>2026-04-25T10:52:08.289Z</time></trkpt><trkpt lat="41.6020383" lon="13.0947518"><ele>611.0</ele><time>2026-04-25T10:52:09.278Z</time></trkpt><trkpt lat="41.6020972" lon="13.0945775"><ele>612.5</ele><time>2026-04-25T10:52:10.28Z</time></trkpt><trkpt lat="41.6021492" lon="13.0943938"><ele>614.0</ele><time>2026-04-25T10:52:11.281Z</time></trkpt><trkpt lat="41.6022063" lon="13.0942374"><ele>615.5</ele><time>2026-04-25T10:52:12.286Z</time></trkpt><trkpt lat="41.6022715" lon="13.0941076"><ele>617.0</ele><time>2026-04-25T10:52:13.288Z</time></trkpt><trkpt lat="41.6023441" lon="13.0940182"><ele>617.0</ele><time>2026-04-25T10:52:14.281Z</time></trkpt><trkpt lat="41.6024282" lon="13.0939639"><ele>617.0</ele><time>2026-04-25T10:52:15.282Z</time></trkpt><trkpt lat="41.6025214" lon="13.0939282"><ele>617.0</ele><time>2026-04-25T10:52:16.281Z</time></trkpt><trkpt lat="41.6026124" lon="13.0939037"><ele>617.0</ele><time>2026-04-25T10:52:17.281Z</time></trkpt><trkpt lat="41.6027001" lon="13.0938761"><ele>617.0</ele><time>2026-04-25T10:52:18.278Z</time></trkpt><trkpt lat="41.6027774" lon="13.0938444"><ele>610.3333333333333</ele><time>2026-04-25T10:52:19.282Z</time></trkpt><trkpt lat="41.6028533" lon="13.0937963"><ele>603.6666666666666</ele><time>2026-04-25T10:52:20.28Z</time></trkpt><trkpt lat="41.6029265" lon="13.0937385"><ele>597.0</ele><time>2026-04-25T10:52:21.278Z</time></trkpt><trkpt lat="41.6029917" lon="13.0936735"><ele>590.3333333333334</ele><time>2026-04-25T10:52:22.281Z</time></trkpt><trkpt lat="41.6030536" lon="13.0936025"><ele>583.6666666666667</ele><time>2026-04-25T10:52:23.279Z</time></trkpt><trkpt lat="41.6031039" lon="13.0935228"><ele>577.0</ele><time>2026-04-25T10:52:24.287Z</time></trkpt><trkpt lat="41.6031454" lon="13.09344"><ele>577.0</ele><time>2026-04-25T10:52:25.288Z</time></trkpt><trkpt lat="41.603173" lon="13.0933536"><ele>577.0</ele><time>2026-04-25T10:52:26.287Z</time></trkpt><trkpt lat="41.6032012" lon="13.0932489"><ele>577.0</ele><time>2026-04-25T10:52:27.282Z</time></trkpt><trkpt lat="41.6032321" lon="13.0931487"><ele>577.0</ele><time>2026-04-25T10:52:28.279Z</time></trkpt><trkpt lat="41.6032558" lon="13.0930483"><ele>577.0</ele><time>2026-04-25T10:52:29.278Z</time></trkpt><trkpt lat="41.6032732" lon="13.0929548"><ele>577.0</ele><time>2026-04-25T10:52:30.279Z</time></trkpt><trkpt lat="41.6032862" lon="13.0928566"><ele>579.3333333333334</ele><time>2026-04-25T10:52:31.28Z</time></trkpt><trkpt lat="41.6032955" lon="13.0927535"><ele>581.6666666666667</ele><time>2026-04-25T10:52:32.278Z</time></trkpt><trkpt lat="41.6033094" lon="13.0926436"><ele>584.0</ele><time>2026-04-25T10:52:33.288Z</time></trkpt><trkpt lat="41.6033307" lon="13.0925328"><ele>586.3333333333334</ele><time>2026-04-25T10:52:34.278Z</time></trkpt><trkpt lat="41.6033567" lon="13.0924238"><ele>588.6666666666666</ele><time>2026-04-25T10:52:35.28Z</time></trkpt><trkpt lat="41.6033813" lon="13.0923087"><ele>591.0</ele><time>2026-04-25T10:52:36.277Z</time></trkpt><trkpt lat="41.603404" lon="13.0921889"><ele>593.8</ele><time>2026-04-25T10:52:37.282Z</time></trkpt><trkpt lat="41.603421" lon="13.0920621"><ele>596.6</ele><time>2026-04-25T10:52:38.28Z</time></trkpt><trkpt lat="41.6034444" lon="13.0919386"><ele>599.4</ele><time>2026-04-25T10:52:39.29Z</time></trkpt><trkpt lat="41.6034696" lon="13.0918105"><ele>602.2</ele><time>2026-04-25T10:52:40.277Z</time></trkpt><trkpt lat="41.6034946" lon="13.0916794"><ele>605.0</ele><time>2026-04-25T10:52:41.281Z</time></trkpt><trkpt lat="41.6035225" lon="13.0915443"><ele>606.6</ele><time>2026-04-25T10:52:42.28Z</time></trkpt><trkpt lat="41.6035491" lon="13.0914048"><ele>608.2</ele><time>2026-04-25T10:52:43.287Z</time></trkpt><trkpt lat="41.6035784" lon="13.0912715"><ele>609.8</ele><time>2026-04-25T10:52:44.283Z</time></trkpt><trkpt lat="41.603607" lon="13.0911377"><ele>611.4</ele><time>2026-04-25T10:52:45.286Z</time></trkpt><trkpt lat="41.603638" lon="13.0909992"><ele>613.0</ele><time>2026-04-25T10:52:46.279Z</time></trkpt><trkpt lat="41.6036645" lon="13.0908568"><ele>604.4</ele><time>2026-04-25T10:52:47.279Z</time></trkpt><trkpt lat="41.6036863" lon="13.0907144"><ele>595.8</ele><time>2026-04-25T10:52:48.278Z</time></trkpt><trkpt lat="41.6037042" lon="13.0905671"><ele>587.2</ele><time>2026-04-25T10:52:49.283Z</time></trkpt><trkpt lat="41.6037202" lon="13.0904219"><ele>578.6</ele><time>2026-04-25T10:52:50.28Z</time></trkpt><trkpt lat="41.6037329" lon="13.090279"><ele>570.0</ele><time>2026-04-25T10:52:51.281Z</time></trkpt><trkpt lat="41.6037507" lon="13.0901321"><ele>570.0</ele><time>2026-04-25T10:52:52.289Z</time></trkpt><trkpt lat="41.6037714" lon="13.0899905"><ele>570.0</ele><time>2026-04-25T10:52:53.281Z</time></trkpt><trkpt lat="41.6037936" lon="13.0898605"><ele>570.0</ele><time>2026-04-25T10:52:54.28Z</time></trkpt><trkpt lat="41.6038261" lon="13.0897351"><ele>570.0</ele><time>2026-04-25T10:52:55.288Z</time></trkpt><trkpt lat="41.6038594" lon="13.0896198"><ele>570.0</ele><time>2026-04-25T10:52:56.277Z</time></trkpt><trkpt lat="41.6038921" lon="13.0895229"><ele>572.5714285714286</ele><time>2026-04-25T10:52:57.287Z</time></trkpt><trkpt lat="41.6039214" lon="13.0894418"><ele>575.1428571428571</ele><time>2026-04-25T10:52:58.285Z</time></trkpt><trkpt lat="41.6039554" lon="13.0893658"><ele>577.7142857142858</ele><time>2026-04-25T10:52:59.287Z</time></trkpt><trkpt lat="41.6039936" lon="13.0892802"><ele>580.2857142857142</ele><time>2026-04-25T10:53:00.282Z</time></trkpt><trkpt lat="41.6040259" lon="13.089193"><ele>582.8571428571429</ele><time>2026-04-25T10:53:01.286Z</time></trkpt><trkpt lat="41.6040569" lon="13.0891132"><ele>585.4285714285714</ele><time>2026-04-25T10:53:02.278Z</time></trkpt><trkpt lat="41.6040905" lon="13.0890291"><ele>588.0</ele><time>2026-04-25T10:53:03.285Z</time></trkpt><trkpt lat="41.6041217" lon="13.0889468"><ele>589.4</ele><time>2026-04-25T10:53:04.278Z</time></trkpt><trkpt lat="41.6041449" lon="13.0888606"><ele>590.8</ele><time>2026-04-25T10:53:05.274Z</time></trkpt><trkpt lat="41.6041374" lon="13.0887214"><ele>592.2</ele><time>2026-04-25T10:53:07.275Z</time></trkpt><trkpt lat="41.6040589" lon="13.08862"><ele>593.6</ele><time>2026-04-25T10:53:09.287Z</time></trkpt><trkpt lat="41.60396" lon="13.0885465"><ele>595.0</ele><time>2026-04-25T10:53:11.281Z</time></trkpt><trkpt lat="41.6038564" lon="13.088463"><ele>595.0</ele><time>2026-04-25T10:53:13.281Z</time></trkpt><trkpt lat="41.6037376" lon="13.0884408"><ele>595.0</ele><time>2026-04-25T10:53:15.277Z</time></trkpt><trkpt lat="41.6036084" lon="13.0884973"><ele>595.0</ele><time>2026-04-25T10:53:17.281Z</time></trkpt><trkpt lat="41.6035423" lon="13.088538"><ele>595.0</ele><time>2026-04-25T10:53:18.278Z</time></trkpt><trkpt lat="41.6034767" lon="13.0885875"><ele>595.0</ele><time>2026-04-25T10:53:19.28Z</time></trkpt><trkpt lat="41.603408" lon="13.0886368"><ele>593.0</ele><time>2026-04-25T10:53:20.275Z</time></trkpt><trkpt lat="41.6033254" lon="13.088684"><ele>591.0</ele><time>2026-04-25T10:53:21.279Z</time></trkpt><trkpt lat="41.6032482" lon="13.0887301"><ele>589.0</ele><time>2026-04-25T10:53:22.277Z</time></trkpt><trkpt lat="41.6031697" lon="13.0887663"><ele>587.0</ele><time>2026-04-25T10:53:23.278Z</time></trkpt><trkpt lat="41.6031003" lon="13.088794"><ele>585.0</ele><time>2026-04-25T10:53:24.283Z</time></trkpt><trkpt lat="41.6030357" lon="13.0888111"><ele>583.0</ele><time>2026-04-25T10:53:25.281Z</time></trkpt><trkpt lat="41.602967" lon="13.0888383"><ele>583.0</ele><time>2026-04-25T10:53:26.281Z</time></trkpt><trkpt lat="41.6028987" lon="13.0888605"><ele>583.0</ele><time>2026-04-25T10:53:27.275Z</time></trkpt><trkpt lat="41.6028371" lon="13.0888782"><ele>583.0</ele><time>2026-04-25T10:53:28.277Z</time></trkpt><trkpt lat="41.6027131" lon="13.0889107"><ele>583.0</ele><time>2026-04-25T10:53:30.276Z</time></trkpt><trkpt lat="41.6026428" lon="13.0889191"><ele>583.0</ele><time>2026-04-25T10:53:31.275Z</time></trkpt><trkpt lat="41.6025639" lon="13.0889198"><ele>583.0</ele><time>2026-04-25T10:53:32.273Z</time></trkpt><trkpt lat="41.6024735" lon="13.0889197"><ele>582.0</ele><time>2026-04-25T10:53:33.281Z</time></trkpt><trkpt lat="41.6023773" lon="13.0889097"><ele>581.0</ele><time>2026-04-25T10:53:34.279Z</time></trkpt><trkpt lat="41.6022639" lon="13.0888972"><ele>580.0</ele><time>2026-04-25T10:53:35.278Z</time></trkpt><trkpt lat="41.6021569" lon="13.0888869"><ele>579.0</ele><time>2026-04-25T10:53:36.28Z</time></trkpt><trkpt lat="41.6020428" lon="13.0888724"><ele>578.0</ele><time>2026-04-25T10:53:37.288Z</time></trkpt><trkpt lat="41.6019289" lon="13.0888542"><ele>578.0</ele><time>2026-04-25T10:53:38.28Z</time></trkpt><trkpt lat="41.6018196" lon="13.0888432"><ele>578.0</ele><time>2026-04-25T10:53:39.288Z</time></trkpt><trkpt lat="41.6017109" lon="13.0888311"><ele>578.0</ele><time>2026-04-25T10:53:40.288Z</time></trkpt><trkpt lat="41.6016111" lon="13.0888174"><ele>578.0</ele><time>2026-04-25T10:53:41.282Z</time></trkpt><trkpt lat="41.6015089" lon="13.0888054"><ele>578.0</ele><time>2026-04-25T10:53:42.282Z</time></trkpt><trkpt lat="41.6014132" lon="13.088788"><ele>578.0</ele><time>2026-04-25T10:53:43.277Z</time></trkpt><trkpt lat="41.601322" lon="13.0887791"><ele>578.0</ele><time>2026-04-25T10:53:44.287Z</time></trkpt><trkpt lat="41.6012387" lon="13.0887666"><ele>578.0</ele><time>2026-04-25T10:53:45.281Z</time></trkpt><trkpt lat="41.601167" lon="13.0887237"><ele>578.0</ele><time>2026-04-25T10:53:46.286Z</time></trkpt><trkpt lat="41.6011031" lon="13.0886544"><ele>578.0</ele><time>2026-04-25T10:53:47.277Z</time></trkpt><trkpt lat="41.601054" lon="13.0885632"><ele>578.0</ele><time>2026-04-25T10:53:48.278Z</time></trkpt><trkpt lat="41.6010238" lon="13.0884486"><ele>576.5</ele><time>2026-04-25T10:53:49.384Z</time></trkpt><trkpt lat="41.6010544" lon="13.0882199"><ele>575.0</ele><time>2026-04-25T10:53:51.287Z</time></trkpt><trkpt lat="41.6011165" lon="13.0881136"><ele>573.5</ele><time>2026-04-25T10:53:52.28Z</time></trkpt><trkpt lat="41.601201" lon="13.0880189"><ele>572.0</ele><time>2026-04-25T10:53:53.291Z</time></trkpt><trkpt lat="41.6012816" lon="13.0879383"><ele>572.0</ele><time>2026-04-25T10:53:54.279Z</time></trkpt><trkpt lat="41.6013648" lon="13.0878581"><ele>572.0</ele><time>2026-04-25T10:53:55.281Z</time></trkpt><trkpt lat="41.6014518" lon="13.0877803"><ele>572.0</ele><time>2026-04-25T10:53:56.283Z</time></trkpt><trkpt lat="41.601535" lon="13.0876793"><ele>572.0</ele><time>2026-04-25T10:53:57.287Z</time></trkpt><trkpt lat="41.6016108" lon="13.0875785"><ele>572.0</ele><time>2026-04-25T10:53:58.28Z</time></trkpt><trkpt lat="41.6016792" lon="13.0874871"><ele>571.2</ele><time>2026-04-25T10:53:59.286Z</time></trkpt><trkpt lat="41.6017476" lon="13.0873804"><ele>570.4000000000001</ele><time>2026-04-25T10:54:00.28Z</time></trkpt><trkpt lat="41.6018077" lon="13.087273"><ele>569.5999999999999</ele><time>2026-04-25T10:54:01.288Z</time></trkpt><trkpt lat="41.6018719" lon="13.0871716"><ele>568.8</ele><time>2026-04-25T10:54:02.28Z</time></trkpt><trkpt lat="41.6019501" lon="13.0870855"><ele>568.0</ele><time>2026-04-25T10:54:03.28Z</time></trkpt><trkpt lat="41.6020402" lon="13.0870116"><ele>568.0</ele><time>2026-04-25T10:54:04.282Z</time></trkpt><trkpt lat="41.6021452" lon="13.0869542"><ele>568.0</ele><time>2026-04-25T10:54:05.279Z</time></trkpt><trkpt lat="41.6022554" lon="13.0869031"><ele>568.0</ele><time>2026-04-25T10:54:06.281Z</time></trkpt><trkpt lat="41.6023611" lon="13.086851"><ele>568.0</ele><time>2026-04-25T10:54:07.288Z</time></trkpt><trkpt lat="41.6024746" lon="13.0867934"><ele>568.0</ele><time>2026-04-25T10:54:08.282Z</time></trkpt><trkpt lat="41.6025852" lon="13.0867353"><ele>568.0</ele><time>2026-04-25T10:54:09.279Z</time></trkpt><trkpt lat="41.6026952" lon="13.0866693"><ele>568.0</ele><time>2026-04-25T10:54:10.291Z</time></trkpt><trkpt lat="41.6028086" lon="13.0866014"><ele>568.0</ele><time>2026-04-25T10:54:11.292Z</time></trkpt><trkpt lat="41.6029188" lon="13.0865339"><ele>567.25</ele><time>2026-04-25T10:54:12.282Z</time></trkpt><trkpt lat="41.6030291" lon="13.0864635"><ele>566.5</ele><time>2026-04-25T10:54:13.291Z</time></trkpt><trkpt lat="41.6031388" lon="13.0863921"><ele>565.75</ele><time>2026-04-25T10:54:14.281Z</time></trkpt><trkpt lat="41.603252" lon="13.086325"><ele>565.0</ele><time>2026-04-25T10:54:15.283Z</time></trkpt><trkpt lat="41.6033511" lon="13.0862573"><ele>565.0</ele><time>2026-04-25T10:54:16.281Z</time></trkpt><trkpt lat="41.6034465" lon="13.0861913"><ele>565.0</ele><time>2026-04-25T10:54:17.282Z</time></trkpt><trkpt lat="41.6035456" lon="13.0861096"><ele>565.0</ele><time>2026-04-25T10:54:18.281Z</time></trkpt><trkpt lat="41.6036392" lon="13.0860192"><ele>565.0</ele><time>2026-04-25T10:54:19.283Z</time></trkpt><trkpt lat="41.6037251" lon="13.0859109"><ele>563.0</ele><time>2026-04-25T10:54:20.287Z</time></trkpt><trkpt lat="41.6037994" lon="13.0857889"><ele>561.0</ele><time>2026-04-25T10:54:21.28Z</time></trkpt><trkpt lat="41.6038718" lon="13.0856619"><ele>559.0</ele><time>2026-04-25T10:54:22.284Z</time></trkpt><trkpt lat="41.6039565" lon="13.0855465"><ele>557.0</ele><time>2026-04-25T10:54:23.28Z</time></trkpt><trkpt lat="41.6040466" lon="13.0854325"><ele>557.0</ele><time>2026-04-25T10:54:24.281Z</time></trkpt><trkpt lat="41.6041393" lon="13.0853253"><ele>557.0</ele><time>2026-04-25T10:54:25.28Z</time></trkpt><trkpt lat="41.6042354" lon="13.0852245"><ele>557.0</ele><time>2026-04-25T10:54:26.281Z</time></trkpt><trkpt lat="41.6043313" lon="13.085128"><ele>557.0</ele><time>2026-04-25T10:54:27.278Z</time></trkpt><trkpt lat="41.6044244" lon="13.0850265"><ele>555.25</ele><time>2026-04-25T10:54:28.282Z</time></trkpt><trkpt lat="41.60452" lon="13.084936"><ele>553.5</ele><time>2026-04-25T10:54:29.277Z</time></trkpt><trkpt lat="41.6046153" lon="13.0848433"><ele>551.75</ele><time>2026-04-25T10:54:30.28Z</time></trkpt><trkpt lat="41.6047083" lon="13.0847468"><ele>550.0</ele><time>2026-04-25T10:54:31.29Z</time></trkpt><trkpt lat="41.6047958" lon="13.0846436"><ele>550.0</ele><time>2026-04-25T10:54:32.28Z</time></trkpt><trkpt lat="41.6048781" lon="13.0845261"><ele>550.0</ele><time>2026-04-25T10:54:33.289Z</time></trkpt><trkpt lat="41.6049536" lon="13.0844034"><ele>550.0</ele><time>2026-04-25T10:54:34.288Z</time></trkpt><trkpt lat="41.6050198" lon="13.0842772"><ele>550.0</ele><time>2026-04-25T10:54:35.281Z</time></trkpt><trkpt lat="41.60507" lon="13.084133"><ele>550.25</ele><time>2026-04-25T10:54:36.283Z</time></trkpt><trkpt lat="41.6051175" lon="13.0839827"><ele>550.5</ele><time>2026-04-25T10:54:37.278Z</time></trkpt><trkpt lat="41.6051661" lon="13.0838303"><ele>550.75</ele><time>2026-04-25T10:54:38.285Z</time></trkpt><trkpt lat="41.605215" lon="13.083682"><ele>551.0</ele><time>2026-04-25T10:54:39.275Z</time></trkpt><trkpt lat="41.6052709" lon="13.0835428"><ele>551.0</ele><time>2026-04-25T10:54:40.279Z</time></trkpt><trkpt lat="41.6053277" lon="13.0834207"><ele>551.0</ele><time>2026-04-25T10:54:41.284Z</time></trkpt><trkpt lat="41.6053738" lon="13.0833019"><ele>551.0</ele><time>2026-04-25T10:54:42.283Z</time></trkpt><trkpt lat="41.6053973" lon="13.0831763"><ele>551.0</ele><time>2026-04-25T10:54:43.291Z</time></trkpt><trkpt lat="41.6053942" lon="13.0830398"><ele>551.0</ele><time>2026-04-25T10:54:44.29Z</time></trkpt><trkpt lat="41.6053747" lon="13.0829005"><ele>551.0</ele><time>2026-04-25T10:54:45.288Z</time></trkpt><trkpt lat="41.6053459" lon="13.0827592"><ele>551.0</ele><time>2026-04-25T10:54:46.284Z</time></trkpt><trkpt lat="41.605316" lon="13.0826122"><ele>551.0</ele><time>2026-04-25T10:54:47.295Z</time></trkpt><trkpt lat="41.6052882" lon="13.0824674"><ele>551.0</ele><time>2026-04-25T10:54:48.29Z</time></trkpt><trkpt lat="41.605272" lon="13.0823103"><ele>551.0</ele><time>2026-04-25T10:54:49.281Z</time></trkpt><trkpt lat="41.6052784" lon="13.0821473"><ele>551.0</ele><time>2026-04-25T10:54:50.292Z</time></trkpt><trkpt lat="41.6053004" lon="13.0819893"><ele>551.0</ele><time>2026-04-25T10:54:51.281Z</time></trkpt><trkpt lat="41.6053427" lon="13.0818387"><ele>551.0</ele><time>2026-04-25T10:54:52.29Z</time></trkpt><trkpt lat="41.6054097" lon="13.0816886"><ele>548.25</ele><time>2026-04-25T10:54:53.28Z</time></trkpt><trkpt lat="41.6054913" lon="13.081537"><ele>545.5</ele><time>2026-04-25T10:54:54.281Z</time></trkpt><trkpt lat="41.6055664" lon="13.0813803"><ele>542.75</ele><time>2026-04-25T10:54:55.278Z</time></trkpt><trkpt lat="41.6056343" lon="13.0812172"><ele>540.0</ele><time>2026-04-25T10:54:56.282Z</time></trkpt><trkpt lat="41.6057006" lon="13.081053"><ele>540.0</ele><time>2026-04-25T10:54:57.287Z</time></trkpt><trkpt lat="41.605765" lon="13.0808941"><ele>540.0</ele><time>2026-04-25T10:54:58.276Z</time></trkpt><trkpt lat="41.6058275" lon="13.0807307"><ele>540.0</ele><time>2026-04-25T10:54:59.287Z</time></trkpt><trkpt lat="41.6058746" lon="13.0805611"><ele>540.0</ele><time>2026-04-25T10:55:00.283Z</time></trkpt><trkpt lat="41.6059089" lon="13.0803841"><ele>540.0</ele><time>2026-04-25T10:55:01.279Z</time></trkpt><trkpt lat="41.6059307" lon="13.0802059"><ele>540.0</ele><time>2026-04-25T10:55:02.281Z</time></trkpt><trkpt lat="41.6059547" lon="13.0800286"><ele>540.0</ele><time>2026-04-25T10:55:03.274Z</time></trkpt><trkpt lat="41.6059915" lon="13.0798635"><ele>540.0</ele><time>2026-04-25T10:55:04.282Z</time></trkpt><trkpt lat="41.6060476" lon="13.079703"><ele>540.0</ele><time>2026-04-25T10:55:05.281Z</time></trkpt><trkpt lat="41.6061109" lon="13.0795382"><ele>540.0</ele><time>2026-04-25T10:55:06.282Z</time></trkpt><trkpt lat="41.6061719" lon="13.0793701"><ele>540.0</ele><time>2026-04-25T10:55:07.283Z</time></trkpt><trkpt lat="41.6062346" lon="13.079207"><ele>540.0</ele><time>2026-04-25T10:55:08.286Z</time></trkpt><trkpt lat="41.6062945" lon="13.0790538"><ele>537.6</ele><time>2026-04-25T10:55:09.281Z</time></trkpt><trkpt lat="41.6063508" lon="13.0789077"><ele>535.2</ele><time>2026-04-25T10:55:10.284Z</time></trkpt><trkpt lat="41.6064043" lon="13.0787767"><ele>532.8</ele><time>2026-04-25T10:55:11.291Z</time></trkpt><trkpt lat="41.6064536" lon="13.0786539"><ele>530.4</ele><time>2026-04-25T10:55:12.288Z</time></trkpt><trkpt lat="41.6064987" lon="13.0785365"><ele>528.0</ele><time>2026-04-25T10:55:13.281Z</time></trkpt><trkpt lat="41.6065418" lon="13.0784288"><ele>528.0</ele><time>2026-04-25T10:55:14.282Z</time></trkpt><trkpt lat="41.6065858" lon="13.0783253"><ele>528.0</ele><time>2026-04-25T10:55:15.287Z</time></trkpt><trkpt lat="41.6066238" lon="13.0782268"><ele>528.0</ele><time>2026-04-25T10:55:16.29Z</time></trkpt><trkpt lat="41.6066532" lon="13.0781316"><ele>528.0</ele><time>2026-04-25T10:55:17.289Z</time></trkpt><trkpt lat="41.6066722" lon="13.078036"><ele>528.0</ele><time>2026-04-25T10:55:18.277Z</time></trkpt><trkpt lat="41.6066831" lon="13.0779293"><ele>528.0</ele><time>2026-04-25T10:55:19.28Z</time></trkpt><trkpt lat="41.6066838" lon="13.0778143"><ele>527.3333333333334</ele><time>2026-04-25T10:55:20.283Z</time></trkpt><trkpt lat="41.6066748" lon="13.0777036"><ele>526.6666666666666</ele><time>2026-04-25T10:55:21.281Z</time></trkpt><trkpt lat="41.6066541" lon="13.0775905"><ele>526.0</ele><time>2026-04-25T10:55:22.282Z</time></trkpt><trkpt lat="41.6066259" lon="13.077478"><ele>525.3333333333333</ele><time>2026-04-25T10:55:23.283Z</time></trkpt><trkpt lat="41.6065957" lon="13.0773663"><ele>524.6666666666666</ele><time>2026-04-25T10:55:24.281Z</time></trkpt><trkpt lat="41.6065645" lon="13.0772534"><ele>524.0</ele><time>2026-04-25T10:55:25.286Z</time></trkpt><trkpt lat="41.6065397" lon="13.0771382"><ele>522.6</ele><time>2026-04-25T10:55:26.277Z</time></trkpt><trkpt lat="41.6065223" lon="13.0770151"><ele>521.2</ele><time>2026-04-25T10:55:27.278Z</time></trkpt><trkpt lat="41.606521" lon="13.0768892"><ele>519.8000000000001</ele><time>2026-04-25T10:55:28.278Z</time></trkpt><trkpt lat="41.6065359" lon="13.0767628"><ele>518.4</ele><time>2026-04-25T10:55:29.282Z</time></trkpt><trkpt lat="41.6065732" lon="13.0766446"><ele>517.0</ele><time>2026-04-25T10:55:30.277Z</time></trkpt><trkpt lat="41.6066393" lon="13.0765448"><ele>512.75</ele><time>2026-04-25T10:55:31.283Z</time></trkpt><trkpt lat="41.6067336" lon="13.0764804"><ele>508.5</ele><time>2026-04-25T10:55:32.278Z</time></trkpt><trkpt lat="41.6068505" lon="13.0764393"><ele>504.25</ele><time>2026-04-25T10:55:33.281Z</time></trkpt><trkpt lat="41.6069813" lon="13.0764109"><ele>500.0</ele><time>2026-04-25T10:55:34.281Z</time></trkpt><trkpt lat="41.6071163" lon="13.0763792"><ele>499.75</ele><time>2026-04-25T10:55:35.28Z</time></trkpt><trkpt lat="41.6072511" lon="13.076338"><ele>499.5</ele><time>2026-04-25T10:55:36.282Z</time></trkpt><trkpt lat="41.6073879" lon="13.0762986"><ele>499.25</ele><time>2026-04-25T10:55:37.287Z</time></trkpt><trkpt lat="41.6075194" lon="13.0762621"><ele>499.0</ele><time>2026-04-25T10:55:38.279Z</time></trkpt><trkpt lat="41.6076441" lon="13.0762503"><ele>499.0</ele><time>2026-04-25T10:55:39.28Z</time></trkpt><trkpt lat="41.6077745" lon="13.0762826"><ele>499.0</ele><time>2026-04-25T10:55:40.279Z</time></trkpt><trkpt lat="41.6079093" lon="13.0763564"><ele>499.0</ele><time>2026-04-25T10:55:41.28Z</time></trkpt><trkpt lat="41.608036" lon="13.0764482"><ele>499.0</ele><time>2026-04-25T10:55:42.282Z</time></trkpt><trkpt lat="41.6081546" lon="13.0765484"><ele>500.25</ele><time>2026-04-25T10:55:43.29Z</time></trkpt><trkpt lat="41.6082654" lon="13.0766406"><ele>501.5</ele><time>2026-04-25T10:55:44.278Z</time></trkpt><trkpt lat="41.6083723" lon="13.0767235"><ele>502.75</ele><time>2026-04-25T10:55:45.288Z</time></trkpt><trkpt lat="41.6084713" lon="13.0767916"><ele>504.0</ele><time>2026-04-25T10:55:46.282Z</time></trkpt><trkpt lat="41.6085647" lon="13.0768276"><ele>501.2</ele><time>2026-04-25T10:55:47.287Z</time></trkpt><trkpt lat="41.6086609" lon="13.0768249"><ele>498.4</ele><time>2026-04-25T10:55:48.279Z</time></trkpt><trkpt lat="41.6087516" lon="13.0767776"><ele>495.6</ele><time>2026-04-25T10:55:49.282Z</time></trkpt><trkpt lat="41.6088242" lon="13.0766869"><ele>492.8</ele><time>2026-04-25T10:55:50.278Z</time></trkpt><trkpt lat="41.6088723" lon="13.076558"><ele>490.0</ele><time>2026-04-25T10:55:51.289Z</time></trkpt><trkpt lat="41.6088875" lon="13.0764072"><ele>489.75</ele><time>2026-04-25T10:55:52.28Z</time></trkpt><trkpt lat="41.6088743" lon="13.0762509"><ele>489.5</ele><time>2026-04-25T10:55:53.279Z</time></trkpt><trkpt lat="41.6088535" lon="13.0760943"><ele>489.25</ele><time>2026-04-25T10:55:54.281Z</time></trkpt><trkpt lat="41.6088403" lon="13.0759328"><ele>489.0</ele><time>2026-04-25T10:55:55.29Z</time></trkpt><trkpt lat="41.6088321" lon="13.0757689"><ele>488.25</ele><time>2026-04-25T10:55:56.277Z</time></trkpt><trkpt lat="41.608839" lon="13.0756145"><ele>487.5</ele><time>2026-04-25T10:55:57.279Z</time></trkpt><trkpt lat="41.6088675" lon="13.075457"><ele>486.75</ele><time>2026-04-25T10:55:58.274Z</time></trkpt><trkpt lat="41.6089183" lon="13.0752981"><ele>486.0</ele><time>2026-04-25T10:55:59.276Z</time></trkpt><trkpt lat="41.6089911" lon="13.0751483"><ele>486.0</ele><time>2026-04-25T10:56:00.28Z</time></trkpt><trkpt lat="41.6090734" lon="13.0750075"><ele>486.0</ele><time>2026-04-25T10:56:01.282Z</time></trkpt><trkpt lat="41.6091609" lon="13.0748742"><ele>486.0</ele><time>2026-04-25T10:56:02.281Z</time></trkpt><trkpt lat="41.6092478" lon="13.0747398"><ele>486.0</ele><time>2026-04-25T10:56:03.278Z</time></trkpt><trkpt lat="41.6093342" lon="13.0746128"><ele>484.5</ele><time>2026-04-25T10:56:04.279Z</time></trkpt><trkpt lat="41.6094251" lon="13.0744794"><ele>483.0</ele><time>2026-04-25T10:56:05.284Z</time></trkpt><trkpt lat="41.6095057" lon="13.0743436"><ele>481.5</ele><time>2026-04-25T10:56:06.282Z</time></trkpt><trkpt lat="41.6095783" lon="13.074219"><ele>480.0</ele><time>2026-04-25T10:56:07.28Z</time></trkpt><trkpt lat="41.6096533" lon="13.0740977"><ele>479.4</ele><time>2026-04-25T10:56:08.288Z</time></trkpt><trkpt lat="41.6097285" lon="13.0739794"><ele>478.8</ele><time>2026-04-25T10:56:09.281Z</time></trkpt><trkpt lat="41.6098035" lon="13.0738639"><ele>478.20000000000005</ele><time>2026-04-25T10:56:10.277Z</time></trkpt><trkpt lat="41.6098846" lon="13.0737702"><ele>477.6</ele><time>2026-04-25T10:56:11.28Z</time></trkpt><trkpt lat="41.6099639" lon="13.0737293"><ele>477.0</ele><time>2026-04-25T10:56:12.277Z</time></trkpt><trkpt lat="41.6100437" lon="13.0737307"><ele>477.0</ele><time>2026-04-25T10:56:13.28Z</time></trkpt><trkpt lat="41.610122" lon="13.0737753"><ele>477.00000000000006</ele><time>2026-04-25T10:56:14.282Z</time></trkpt><trkpt lat="41.6101815" lon="13.0738618"><ele>477.00000000000006</ele><time>2026-04-25T10:56:15.281Z</time></trkpt><trkpt lat="41.6102191" lon="13.0739749"><ele>477.0</ele><time>2026-04-25T10:56:16.282Z</time></trkpt><trkpt lat="41.6102318" lon="13.0741002"><ele>477.0</ele><time>2026-04-25T10:56:17.278Z</time></trkpt><trkpt lat="41.6102367" lon="13.0742341"><ele>477.6</ele><time>2026-04-25T10:56:18.282Z</time></trkpt><trkpt lat="41.6102449" lon="13.0743771"><ele>478.20000000000005</ele><time>2026-04-25T10:56:19.281Z</time></trkpt><trkpt lat="41.6102503" lon="13.0745205"><ele>478.8</ele><time>2026-04-25T10:56:20.277Z</time></trkpt><trkpt lat="41.6102493" lon="13.0746593"><ele>479.4</ele><time>2026-04-25T10:56:21.282Z</time></trkpt><trkpt lat="41.6102167" lon="13.0747876"><ele>480.0</ele><time>2026-04-25T10:56:22.278Z</time></trkpt><trkpt lat="41.6101658" lon="13.0749034"><ele>479.4</ele><time>2026-04-25T10:56:23.282Z</time></trkpt><trkpt lat="41.6101036" lon="13.0749999"><ele>478.8</ele><time>2026-04-25T10:56:24.281Z</time></trkpt><trkpt lat="41.6100397" lon="13.0750993"><ele>478.20000000000005</ele><time>2026-04-25T10:56:25.283Z</time></trkpt><trkpt lat="41.6099807" lon="13.075141"><ele>477.6</ele><time>2026-04-25T10:56:26.282Z</time></trkpt><trkpt lat="41.6099121" lon="13.0752675"><ele>477.0</ele><time>2026-04-25T10:56:28.279Z</time></trkpt><trkpt lat="41.6099627" lon="13.075393"><ele>477.0</ele><time>2026-04-25T10:56:30.277Z</time></trkpt><trkpt lat="41.6100869" lon="13.0753857"><ele>477.00000000000006</ele><time>2026-04-25T10:56:32.275Z</time></trkpt><trkpt lat="41.6101626" lon="13.075329"><ele>477.00000000000006</ele><time>2026-04-25T10:56:33.277Z</time></trkpt><trkpt lat="41.6102405" lon="13.0752489"><ele>477.0</ele><time>2026-04-25T10:56:34.29Z</time></trkpt><trkpt lat="41.6103126" lon="13.0751572"><ele>477.0</ele><time>2026-04-25T10:56:35.279Z</time></trkpt><trkpt lat="41.6103848" lon="13.075061"><ele>474.75</ele><time>2026-04-25T10:56:36.282Z</time></trkpt><trkpt lat="41.6104465" lon="13.0749472"><ele>472.5</ele><time>2026-04-25T10:56:37.279Z</time></trkpt><trkpt lat="41.6105219" lon="13.0748316"><ele>470.25</ele><time>2026-04-25T10:56:38.281Z</time></trkpt><trkpt lat="41.6106239" lon="13.0747287"><ele>468.0</ele><time>2026-04-25T10:56:39.279Z</time></trkpt><trkpt lat="41.6107448" lon="13.0746454"><ele>468.0</ele><time>2026-04-25T10:56:40.287Z</time></trkpt><trkpt lat="41.610872" lon="13.0745893"><ele>468.0</ele><time>2026-04-25T10:56:41.282Z</time></trkpt><trkpt lat="41.6110024" lon="13.0745473"><ele>468.0</ele><time>2026-04-25T10:56:42.289Z</time></trkpt><trkpt lat="41.6111275" lon="13.0744908"><ele>468.0</ele><time>2026-04-25T10:56:43.29Z</time></trkpt><trkpt lat="41.6112465" lon="13.0744058"><ele>465.5</ele><time>2026-04-25T10:56:44.289Z</time></trkpt><trkpt lat="41.6113546" lon="13.0742813"><ele>463.0</ele><time>2026-04-25T10:56:45.279Z</time></trkpt><trkpt lat="41.6114544" lon="13.0741559"><ele>460.5</ele><time>2026-04-25T10:56:46.278Z</time></trkpt><trkpt lat="41.6115466" lon="13.0740305"><ele>458.0</ele><time>2026-04-25T10:56:47.279Z</time></trkpt><trkpt lat="41.6116362" lon="13.073912"><ele>458.0</ele><time>2026-04-25T10:56:48.287Z</time></trkpt><trkpt lat="41.6117214" lon="13.0737807"><ele>458.0</ele><time>2026-04-25T10:56:49.283Z</time></trkpt><trkpt lat="41.6117999" lon="13.0736399"><ele>458.0</ele><time>2026-04-25T10:56:50.293Z</time></trkpt><trkpt lat="41.611868" lon="13.0734762"><ele>458.0</ele><time>2026-04-25T10:56:51.28Z</time></trkpt><trkpt lat="41.6119195" lon="13.0732897"><ele>457.0</ele><time>2026-04-25T10:56:52.284Z</time></trkpt><trkpt lat="41.6119515" lon="13.073094"><ele>456.0</ele><time>2026-04-25T10:56:53.289Z</time></trkpt><trkpt lat="41.6119776" lon="13.0729097"><ele>455.0</ele><time>2026-04-25T10:56:54.282Z</time></trkpt><trkpt lat="41.6119953" lon="13.072731"><ele>454.0</ele><time>2026-04-25T10:56:55.294Z</time></trkpt><trkpt lat="41.6119959" lon="13.0725678"><ele>451.4</ele><time>2026-04-25T10:56:56.279Z</time></trkpt><trkpt lat="41.6120142" lon="13.0724186"><ele>448.79999999999995</ele><time>2026-04-25T10:56:57.289Z</time></trkpt><trkpt lat="41.6120309" lon="13.0722748"><ele>446.20000000000005</ele><time>2026-04-25T10:56:58.289Z</time></trkpt><trkpt lat="41.6120502" lon="13.0721369"><ele>443.6</ele><time>2026-04-25T10:56:59.291Z</time></trkpt><trkpt lat="41.6120711" lon="13.0720062"><ele>441.0</ele><time>2026-04-25T10:57:00.29Z</time></trkpt><trkpt lat="41.6121013" lon="13.0718801"><ele>441.0</ele><time>2026-04-25T10:57:01.282Z</time></trkpt><trkpt lat="41.6121574" lon="13.0717562"><ele>441.0</ele><time>2026-04-25T10:57:02.277Z</time></trkpt><trkpt lat="41.6122402" lon="13.0716333"><ele>441.0</ele><time>2026-04-25T10:57:03.282Z</time></trkpt><trkpt lat="41.6123448" lon="13.0715216"><ele>441.0</ele><time>2026-04-25T10:57:04.279Z</time></trkpt><trkpt lat="41.6124723" lon="13.0714199"><ele>440.66666666666663</ele><time>2026-04-25T10:57:05.281Z</time></trkpt><trkpt lat="41.6126075" lon="13.071322"><ele>440.3333333333333</ele><time>2026-04-25T10:57:06.288Z</time></trkpt><trkpt lat="41.6127397" lon="13.0712151"><ele>440.0</ele><time>2026-04-25T10:57:07.282Z</time></trkpt><trkpt lat="41.6128764" lon="13.0711107"><ele>439.0</ele><time>2026-04-25T10:57:08.28Z</time></trkpt><trkpt lat="41.6130143" lon="13.0710125"><ele>438.0</ele><time>2026-04-25T10:57:09.293Z</time></trkpt><trkpt lat="41.6131486" lon="13.0709117"><ele>437.0</ele><time>2026-04-25T10:57:10.279Z</time></trkpt><trkpt lat="41.6132812" lon="13.0708122"><ele>436.75</ele><time>2026-04-25T10:57:11.283Z</time></trkpt><trkpt lat="41.6134089" lon="13.0707098"><ele>436.5</ele><time>2026-04-25T10:57:12.292Z</time></trkpt><trkpt lat="41.6135337" lon="13.0706163"><ele>436.25</ele><time>2026-04-25T10:57:13.282Z</time></trkpt><trkpt lat="41.613647" lon="13.0705084"><ele>436.0</ele><time>2026-04-25T10:57:14.295Z</time></trkpt><trkpt lat="41.6137492" lon="13.0703693"><ele>431.33333333333337</ele><time>2026-04-25T10:57:15.283Z</time></trkpt><trkpt lat="41.6138418" lon="13.0701992"><ele>426.66666666666663</ele><time>2026-04-25T10:57:16.297Z</time></trkpt><trkpt lat="41.61392" lon="13.0699879"><ele>422.0</ele><time>2026-04-25T10:57:17.285Z</time></trkpt><trkpt lat="41.6139901" lon="13.0697492"><ele>421.66666666666663</ele><time>2026-04-25T10:57:18.282Z</time></trkpt><trkpt lat="41.6140461" lon="13.0695111"><ele>421.33333333333337</ele><time>2026-04-25T10:57:19.281Z</time></trkpt><trkpt lat="41.6140871" lon="13.0692724"><ele>421.0</ele><time>2026-04-25T10:57:20.286Z</time></trkpt><trkpt lat="41.6141111" lon="13.0690452"><ele>422.25</ele><time>2026-04-25T10:57:21.293Z</time></trkpt><trkpt lat="41.6141195" lon="13.0688398"><ele>423.5</ele><time>2026-04-25T10:57:22.285Z</time></trkpt><trkpt lat="41.6141281" lon="13.0686686"><ele>424.75</ele><time>2026-04-25T10:57:23.29Z</time></trkpt><trkpt lat="41.6141489" lon="13.0685073"><ele>426.0</ele><time>2026-04-25T10:57:24.284Z</time></trkpt><trkpt lat="41.6142014" lon="13.068378"><ele>426.0</ele><time>2026-04-25T10:57:25.287Z</time></trkpt><trkpt lat="41.6142783" lon="13.06828"><ele>426.0</ele><time>2026-04-25T10:57:26.281Z</time></trkpt><trkpt lat="41.6143972" lon="13.0681975"><ele>426.0</ele><time>2026-04-25T10:57:27.281Z</time></trkpt><trkpt lat="41.6145423" lon="13.0681451"><ele>426.0</ele><time>2026-04-25T10:57:28.281Z</time></trkpt><trkpt lat="41.6146884" lon="13.0681117"><ele>424.75</ele><time>2026-04-25T10:57:29.28Z</time></trkpt><trkpt lat="41.6148258" lon="13.0680575"><ele>423.5</ele><time>2026-04-25T10:57:30.289Z</time></trkpt><trkpt lat="41.614966" lon="13.0679877"><ele>422.25</ele><time>2026-04-25T10:57:31.29Z</time></trkpt><trkpt lat="41.615099" lon="13.067882"><ele>421.0</ele><time>2026-04-25T10:57:32.278Z</time></trkpt><trkpt lat="41.6152256" lon="13.0677482"><ele>415.6666666666667</ele><time>2026-04-25T10:57:33.279Z</time></trkpt><trkpt lat="41.6153515" lon="13.0675987"><ele>410.33333333333337</ele><time>2026-04-25T10:57:34.283Z</time></trkpt><trkpt lat="41.6154615" lon="13.0674453"><ele>405.0</ele><time>2026-04-25T10:57:35.294Z</time></trkpt><trkpt lat="41.6155617" lon="13.0673045"><ele>405.0</ele><time>2026-04-25T10:57:36.283Z</time></trkpt><trkpt lat="41.6156454" lon="13.0671352"><ele>405.0</ele><time>2026-04-25T10:57:37.291Z</time></trkpt><trkpt lat="41.615718" lon="13.0669221"><ele>405.0</ele><time>2026-04-25T10:57:38.281Z</time></trkpt><trkpt lat="41.6157672" lon="13.0666756"><ele>405.33333333333337</ele><time>2026-04-25T10:57:39.292Z</time></trkpt><trkpt lat="41.6158029" lon="13.0664337"><ele>405.6666666666667</ele><time>2026-04-25T10:57:40.282Z</time></trkpt><trkpt lat="41.6158421" lon="13.0662098"><ele>406.0</ele><time>2026-04-25T10:57:41.28Z</time></trkpt><trkpt lat="41.6158811" lon="13.0659812"><ele>406.33333333333337</ele><time>2026-04-25T10:57:42.278Z</time></trkpt><trkpt lat="41.6159194" lon="13.0657709"><ele>406.66666666666663</ele><time>2026-04-25T10:57:43.284Z</time></trkpt><trkpt lat="41.6159609" lon="13.0655657"><ele>407.0</ele><time>2026-04-25T10:57:44.282Z</time></trkpt><trkpt lat="41.6160021" lon="13.0653686"><ele>407.0</ele><time>2026-04-25T10:57:45.279Z</time></trkpt><trkpt lat="41.6160485" lon="13.065165"><ele>407.0</ele><time>2026-04-25T10:57:46.279Z</time></trkpt><trkpt lat="41.6161054" lon="13.0649663"><ele>407.0</ele><time>2026-04-25T10:57:47.291Z</time></trkpt><trkpt lat="41.616177" lon="13.0647733"><ele>402.3333333333333</ele><time>2026-04-25T10:57:48.281Z</time></trkpt><trkpt lat="41.6162737" lon="13.0645919"><ele>397.66666666666663</ele><time>2026-04-25T10:57:49.283Z</time></trkpt><trkpt lat="41.616389" lon="13.064421"><ele>393.0</ele><time>2026-04-25T10:57:50.282Z</time></trkpt><trkpt lat="41.6165376" lon="13.0642381"><ele>398.0</ele><time>2026-04-25T10:57:51.283Z</time></trkpt><trkpt lat="41.6167201" lon="13.0640445"><ele>403.0</ele><time>2026-04-25T10:57:52.285Z</time></trkpt><trkpt lat="41.616926" lon="13.0638363"><ele>394.5</ele><time>2026-04-25T10:57:53.281Z</time></trkpt><trkpt lat="41.6171173" lon="13.0636484"><ele>386.0</ele><time>2026-04-25T10:57:54.281Z</time></trkpt><trkpt lat="41.6173093" lon="13.0634547"><ele>387.66666666666663</ele><time>2026-04-25T10:57:55.281Z</time></trkpt><trkpt lat="41.6174836" lon="13.063264"><ele>389.33333333333337</ele><time>2026-04-25T10:57:56.286Z</time></trkpt><trkpt lat="41.6176419" lon="13.0630814"><ele>391.0</ele><time>2026-04-25T10:57:57.281Z</time></trkpt><trkpt lat="41.6177852" lon="13.0628798"><ele>384.0</ele><time>2026-04-25T10:57:58.279Z</time></trkpt><trkpt lat="41.6179086" lon="13.0626871"><ele>377.0</ele><time>2026-04-25T10:57:59.284Z</time></trkpt><trkpt lat="41.6180281" lon="13.0624996"><ele>370.0</ele><time>2026-04-25T10:58:00.28Z</time></trkpt><trkpt lat="41.6181497" lon="13.0623343"><ele>368.66666666666663</ele><time>2026-04-25T10:58:01.287Z</time></trkpt><trkpt lat="41.6182648" lon="13.0622114"><ele>367.3333333333333</ele><time>2026-04-25T10:58:02.291Z</time></trkpt><trkpt lat="41.6184026" lon="13.0620971"><ele>366.0</ele><time>2026-04-25T10:58:03.28Z</time></trkpt><trkpt lat="41.6185406" lon="13.0620176"><ele>364.6666666666667</ele><time>2026-04-25T10:58:04.283Z</time></trkpt><trkpt lat="41.6187297" lon="13.0619613"><ele>363.33333333333337</ele><time>2026-04-25T10:58:05.28Z</time></trkpt><trkpt lat="41.6189117" lon="13.0619279"><ele>362.0</ele><time>2026-04-25T10:58:06.281Z</time></trkpt><trkpt lat="41.6190876" lon="13.0619115"><ele>362.0</ele><time>2026-04-25T10:58:07.284Z</time></trkpt><trkpt lat="41.6192509" lon="13.061901"><ele>362.0</ele><time>2026-04-25T10:58:08.283Z</time></trkpt><trkpt lat="41.6193959" lon="13.0618899"><ele>362.0</ele><time>2026-04-25T10:58:09.289Z</time></trkpt><trkpt lat="41.6195285" lon="13.0618681"><ele>362.0</ele><time>2026-04-25T10:58:10.281Z</time></trkpt><trkpt lat="41.6196531" lon="13.0618231"><ele>360.5</ele><time>2026-04-25T10:58:11.277Z</time></trkpt><trkpt lat="41.6197659" lon="13.0617452"><ele>359.0</ele><time>2026-04-25T10:58:12.281Z</time></trkpt><trkpt lat="41.6198588" lon="13.061639"><ele>357.5</ele><time>2026-04-25T10:58:13.28Z</time></trkpt><trkpt lat="41.6199344" lon="13.0615126"><ele>356.0</ele><time>2026-04-25T10:58:14.29Z</time></trkpt><trkpt lat="41.6199837" lon="13.0613568"><ele>356.0</ele><time>2026-04-25T10:58:15.278Z</time></trkpt><trkpt lat="41.6200028" lon="13.061185"><ele>356.0</ele><time>2026-04-25T10:58:16.289Z</time></trkpt><trkpt lat="41.6199938" lon="13.0610072"><ele>356.0</ele><time>2026-04-25T10:58:17.28Z</time></trkpt><trkpt lat="41.6199966" lon="13.060837"><ele>356.0</ele><time>2026-04-25T10:58:18.279Z</time></trkpt><trkpt lat="41.6200201" lon="13.0606413"><ele>356.5</ele><time>2026-04-25T10:58:19.287Z</time></trkpt><trkpt lat="41.6200711" lon="13.0604397"><ele>357.0</ele><time>2026-04-25T10:58:20.288Z</time></trkpt><trkpt lat="41.6201265" lon="13.0602713"><ele>357.5</ele><time>2026-04-25T10:58:21.29Z</time></trkpt><trkpt lat="41.6201846" lon="13.0601019"><ele>358.0</ele><time>2026-04-25T10:58:22.281Z</time></trkpt><trkpt lat="41.6202464" lon="13.0599268"><ele>357.0</ele><time>2026-04-25T10:58:23.282Z</time></trkpt><trkpt lat="41.6203295" lon="13.0597581"><ele>356.0</ele><time>2026-04-25T10:58:24.289Z</time></trkpt><trkpt lat="41.6204441" lon="13.0595869"><ele>355.0</ele><time>2026-04-25T10:58:25.285Z</time></trkpt><trkpt lat="41.6205739" lon="13.059421"><ele>355.0</ele><time>2026-04-25T10:58:26.281Z</time></trkpt><trkpt lat="41.6207349" lon="13.0592379"><ele>355.0</ele><time>2026-04-25T10:58:27.279Z</time></trkpt><trkpt lat="41.6209363" lon="13.0590135"><ele>354.5</ele><time>2026-04-25T10:58:28.279Z</time></trkpt><trkpt lat="41.6211349" lon="13.0587867"><ele>354.0</ele><time>2026-04-25T10:58:29.28Z</time></trkpt><trkpt lat="41.6213214" lon="13.0585831"><ele>354.0</ele><time>2026-04-25T10:58:30.281Z</time></trkpt><trkpt lat="41.6214975" lon="13.0583944"><ele>354.0</ele><time>2026-04-25T10:58:31.289Z</time></trkpt><trkpt lat="41.6216625" lon="13.0582401"><ele>354.0</ele><time>2026-04-25T10:58:32.289Z</time></trkpt><trkpt lat="41.6218153" lon="13.0581193"><ele>356.0</ele><time>2026-04-25T10:58:33.289Z</time></trkpt><trkpt lat="41.6219644" lon="13.0580409"><ele>358.0</ele><time>2026-04-25T10:58:34.281Z</time></trkpt><trkpt lat="41.6221457" lon="13.0580136"><ele>360.0</ele><time>2026-04-25T10:58:35.289Z</time></trkpt><trkpt lat="41.6223472" lon="13.0580071"><ele>360.0</ele><time>2026-04-25T10:58:36.28Z</time></trkpt><trkpt lat="41.6225731" lon="13.0580103"><ele>360.0</ele><time>2026-04-25T10:58:37.279Z</time></trkpt><trkpt lat="41.6227875" lon="13.0580149"><ele>360.0</ele><time>2026-04-25T10:58:38.281Z</time></trkpt><trkpt lat="41.6229882" lon="13.0580239"><ele>358.3333333333333</ele><time>2026-04-25T10:58:39.28Z</time></trkpt><trkpt lat="41.6231843" lon="13.058035"><ele>356.66666666666663</ele><time>2026-04-25T10:58:40.278Z</time></trkpt><trkpt lat="41.6233708" lon="13.0580349"><ele>355.0</ele><time>2026-04-25T10:58:41.288Z</time></trkpt><trkpt lat="41.6235404" lon="13.058026"><ele>354.75</ele><time>2026-04-25T10:58:42.278Z</time></trkpt><trkpt lat="41.6236886" lon="13.0580066"><ele>354.5</ele><time>2026-04-25T10:58:43.281Z</time></trkpt><trkpt lat="41.6238307" lon="13.057964"><ele>354.25</ele><time>2026-04-25T10:58:44.281Z</time></trkpt><trkpt lat="41.6239482" lon="13.0579245"><ele>354.0</ele><time>2026-04-25T10:58:45.289Z</time></trkpt><trkpt lat="41.6240382" lon="13.0578982"><ele>354.0</ele><time>2026-04-25T10:58:46.28Z</time></trkpt><trkpt lat="41.6241238" lon="13.0578591"><ele>354.0</ele><time>2026-04-25T10:58:47.291Z</time></trkpt><trkpt lat="41.624187" lon="13.0578194"><ele>354.0</ele><time>2026-04-25T10:58:48.281Z</time></trkpt><trkpt lat="41.6242659" lon="13.0577889"><ele>354.0</ele><time>2026-04-25T10:58:49.289Z</time></trkpt><trkpt lat="41.62438" lon="13.0577058"><ele>354.0</ele><time>2026-04-25T10:58:50.279Z</time></trkpt><trkpt lat="41.6245123" lon="13.0575885"><ele>354.5</ele><time>2026-04-25T10:58:51.289Z</time></trkpt><trkpt lat="41.624691" lon="13.0574488"><ele>355.0</ele><time>2026-04-25T10:58:52.281Z</time></trkpt><trkpt lat="41.6249066" lon="13.0572986"><ele>355.0</ele><time>2026-04-25T10:58:53.281Z</time></trkpt><trkpt lat="41.6251693" lon="13.0571334"><ele>355.0</ele><time>2026-04-25T10:58:54.282Z</time></trkpt><trkpt lat="41.6254618" lon="13.0569584"><ele>349.0</ele><time>2026-04-25T10:58:55.283Z</time></trkpt><trkpt lat="41.62573" lon="13.0568047"><ele>343.0</ele><time>2026-04-25T10:58:56.28Z</time></trkpt><trkpt lat="41.6259752" lon="13.0566519"><ele>344.0</ele><time>2026-04-25T10:58:57.29Z</time></trkpt><trkpt lat="41.6261992" lon="13.0565173"><ele>345.0</ele><time>2026-04-25T10:58:58.289Z</time></trkpt><trkpt lat="41.6263932" lon="13.0563938"><ele>345.0</ele><time>2026-04-25T10:58:59.276Z</time></trkpt><trkpt lat="41.6265538" lon="13.0562782"><ele>345.0</ele><time>2026-04-25T10:59:00.281Z</time></trkpt><trkpt lat="41.6266985" lon="13.056146"><ele>345.0</ele><time>2026-04-25T10:59:01.281Z</time></trkpt><trkpt lat="41.6268276" lon="13.0560021"><ele>345.0</ele><time>2026-04-25T10:59:02.276Z</time></trkpt><trkpt lat="41.6269482" lon="13.0558161"><ele>345.0</ele><time>2026-04-25T10:59:03.289Z</time></trkpt><trkpt lat="41.6270691" lon="13.055589"><ele>345.0</ele><time>2026-04-25T10:59:04.29Z</time></trkpt><trkpt lat="41.6271937" lon="13.0553119"><ele>345.0</ele><time>2026-04-25T10:59:05.282Z</time></trkpt><trkpt lat="41.6273189" lon="13.0549995"><ele>345.0</ele><time>2026-04-25T10:59:06.291Z</time></trkpt><trkpt lat="41.6274445" lon="13.0546884"><ele>345.0</ele><time>2026-04-25T10:59:07.279Z</time></trkpt><trkpt lat="41.6275816" lon="13.0543857"><ele>345.0</ele><time>2026-04-25T10:59:08.282Z</time></trkpt><trkpt lat="41.6277282" lon="13.054085"><ele>340.0</ele><time>2026-04-25T10:59:09.289Z</time></trkpt><trkpt lat="41.6278775" lon="13.0537803"><ele>335.0</ele><time>2026-04-25T10:59:10.278Z</time></trkpt><trkpt lat="41.628028" lon="13.0534774"><ele>336.0</ele><time>2026-04-25T10:59:11.282Z</time></trkpt><trkpt lat="41.6281679" lon="13.0531933"><ele>337.0</ele><time>2026-04-25T10:59:12.282Z</time></trkpt><trkpt lat="41.6282884" lon="13.0529371"><ele>337.0</ele><time>2026-04-25T10:59:13.289Z</time></trkpt><trkpt lat="41.6283948" lon="13.0526994"><ele>337.0</ele><time>2026-04-25T10:59:14.281Z</time></trkpt><trkpt lat="41.6284984" lon="13.0524882"><ele>337.0</ele><time>2026-04-25T10:59:15.289Z</time></trkpt><trkpt lat="41.6285894" lon="13.0522857"><ele>335.0</ele><time>2026-04-25T10:59:16.284Z</time></trkpt><trkpt lat="41.6286807" lon="13.0520798"><ele>333.0</ele><time>2026-04-25T10:59:17.292Z</time></trkpt><trkpt lat="41.6287618" lon="13.051864"><ele>331.0</ele><time>2026-04-25T10:59:18.281Z</time></trkpt><trkpt lat="41.6288293" lon="13.0516455"><ele>332.0</ele><time>2026-04-25T10:59:19.29Z</time></trkpt><trkpt lat="41.6288834" lon="13.0514323"><ele>333.0</ele><time>2026-04-25T10:59:20.289Z</time></trkpt><trkpt lat="41.6289235" lon="13.0511952"><ele>334.0</ele><time>2026-04-25T10:59:21.374Z</time></trkpt><trkpt lat="41.6289613" lon="13.0509383"><ele>334.66666666666663</ele><time>2026-04-25T10:59:22.28Z</time></trkpt><trkpt lat="41.6290111" lon="13.05067"><ele>335.3333333333333</ele><time>2026-04-25T10:59:23.289Z</time></trkpt><trkpt lat="41.6290785" lon="13.0503801"><ele>336.0</ele><time>2026-04-25T10:59:24.289Z</time></trkpt><trkpt lat="41.6291542" lon="13.0501254"><ele>338.0</ele><time>2026-04-25T10:59:25.289Z</time></trkpt><trkpt lat="41.6292271" lon="13.0498937"><ele>340.0</ele><time>2026-04-25T10:59:26.289Z</time></trkpt><trkpt lat="41.6293101" lon="13.049692"><ele>342.0</ele><time>2026-04-25T10:59:27.284Z</time></trkpt><trkpt lat="41.6294144" lon="13.0494954"><ele>340.6666666666667</ele><time>2026-04-25T10:59:28.289Z</time></trkpt><trkpt lat="41.6295466" lon="13.0493186"><ele>339.33333333333337</ele><time>2026-04-25T10:59:29.282Z</time></trkpt><trkpt lat="41.629695" lon="13.049156"><ele>338.0</ele><time>2026-04-25T10:59:30.283Z</time></trkpt><trkpt lat="41.6298743" lon="13.0490402"><ele>339.6666666666667</ele><time>2026-04-25T10:59:31.289Z</time></trkpt><trkpt lat="41.6300819" lon="13.0489729"><ele>341.3333333333333</ele><time>2026-04-25T10:59:32.292Z</time></trkpt><trkpt lat="41.6302698" lon="13.048893"><ele>343.0</ele><time>2026-04-25T10:59:33.283Z</time></trkpt><trkpt lat="41.6304484" lon="13.0487999"><ele>343.0</ele><time>2026-04-25T10:59:34.284Z</time></trkpt><trkpt lat="41.6306179" lon="13.0486882"><ele>343.0</ele><time>2026-04-25T10:59:35.29Z</time></trkpt><trkpt lat="41.6307941" lon="13.0485673"><ele>343.0</ele><time>2026-04-25T10:59:36.282Z</time></trkpt><trkpt lat="41.6309708" lon="13.0484364"><ele>343.0</ele><time>2026-04-25T10:59:37.289Z</time></trkpt><trkpt lat="41.6311394" lon="13.0483192"><ele>343.0</ele><time>2026-04-25T10:59:38.281Z</time></trkpt><trkpt lat="41.631294" lon="13.0482274"><ele>343.0</ele><time>2026-04-25T10:59:39.284Z</time></trkpt><trkpt lat="41.6314404" lon="13.0481403"><ele>341.0</ele><time>2026-04-25T10:59:40.289Z</time></trkpt><trkpt lat="41.6315878" lon="13.0480428"><ele>339.0</ele><time>2026-04-25T10:59:41.277Z</time></trkpt><trkpt lat="41.6317269" lon="13.0479011"><ele>337.0</ele><time>2026-04-25T10:59:42.29Z</time></trkpt><trkpt lat="41.6318506" lon="13.0477094"><ele>337.0</ele><time>2026-04-25T10:59:43.273Z</time></trkpt><trkpt lat="41.6319682" lon="13.0474746"><ele>337.0</ele><time>2026-04-25T10:59:44.284Z</time></trkpt><trkpt lat="41.6321102" lon="13.0472105"><ele>333.5</ele><time>2026-04-25T10:59:45.285Z</time></trkpt><trkpt lat="41.6322822" lon="13.0469091"><ele>330.0</ele><time>2026-04-25T10:59:46.291Z</time></trkpt><trkpt lat="41.6324719" lon="13.0466138"><ele>330.0</ele><time>2026-04-25T10:59:47.282Z</time></trkpt><trkpt lat="41.6326808" lon="13.0463308"><ele>330.0</ele><time>2026-04-25T10:59:48.285Z</time></trkpt><trkpt lat="41.6328818" lon="13.0460796"><ele>328.0</ele><time>2026-04-25T10:59:49.281Z</time></trkpt><trkpt lat="41.6330577" lon="13.0458572"><ele>326.0</ele><time>2026-04-25T10:59:50.283Z</time></trkpt><trkpt lat="41.6332157" lon="13.0456507"><ele>326.0</ele><time>2026-04-25T10:59:51.284Z</time></trkpt><trkpt lat="41.6333541" lon="13.0454688"><ele>326.0</ele><time>2026-04-25T10:59:52.289Z</time></trkpt><trkpt lat="41.6334713" lon="13.0453144"><ele>326.0</ele><time>2026-04-25T10:59:53.283Z</time></trkpt><trkpt lat="41.6335832" lon="13.0451746"><ele>327.0</ele><time>2026-04-25T10:59:54.282Z</time></trkpt><trkpt lat="41.6337178" lon="13.0450228"><ele>328.0</ele><time>2026-04-25T10:59:55.29Z</time></trkpt><trkpt lat="41.6338891" lon="13.0448495"><ele>329.0</ele><time>2026-04-25T10:59:56.279Z</time></trkpt><trkpt lat="41.634083" lon="13.0446567"><ele>329.0</ele><time>2026-04-25T10:59:57.289Z</time></trkpt><trkpt lat="41.6342854" lon="13.044437"><ele>329.0</ele><time>2026-04-25T10:59:58.283Z</time></trkpt><trkpt lat="41.6344866" lon="13.0441912"><ele>322.0</ele><time>2026-04-25T10:59:59.284Z</time></trkpt><trkpt lat="41.6346789" lon="13.0439483"><ele>315.0</ele><time>2026-04-25T11:00:00.289Z</time></trkpt><trkpt lat="41.6348692" lon="13.0437326"><ele>315.0</ele><time>2026-04-25T11:00:01.281Z</time></trkpt><trkpt lat="41.6350656" lon="13.0435262"><ele>315.0</ele><time>2026-04-25T11:00:02.288Z</time></trkpt><trkpt lat="41.6352567" lon="13.0433361"><ele>313.6666666666667</ele><time>2026-04-25T11:00:03.28Z</time></trkpt><trkpt lat="41.6354383" lon="13.0431698"><ele>312.33333333333337</ele><time>2026-04-25T11:00:04.284Z</time></trkpt><trkpt lat="41.6356225" lon="13.0430262"><ele>311.0</ele><time>2026-04-25T11:00:05.29Z</time></trkpt><trkpt lat="41.6358189" lon="13.0428975"><ele>311.0</ele><time>2026-04-25T11:00:06.286Z</time></trkpt><trkpt lat="41.6360307" lon="13.0427694"><ele>311.0</ele><time>2026-04-25T11:00:07.288Z</time></trkpt><trkpt lat="41.6362583" lon="13.0426603"><ele>309.0</ele><time>2026-04-25T11:00:08.282Z</time></trkpt><trkpt lat="41.6364864" lon="13.0425523"><ele>307.0</ele><time>2026-04-25T11:00:09.294Z</time></trkpt><trkpt lat="41.6367429" lon="13.0424568"><ele>299.5</ele><time>2026-04-25T11:00:10.288Z</time></trkpt><trkpt lat="41.6370229" lon="13.0423717"><ele>292.0</ele><time>2026-04-25T11:00:11.287Z</time></trkpt><trkpt lat="41.6372891" lon="13.0422902"><ele>292.0</ele><time>2026-04-25T11:00:12.289Z</time></trkpt><trkpt lat="41.6375341" lon="13.0421961"><ele>292.0</ele><time>2026-04-25T11:00:13.277Z</time></trkpt><trkpt lat="41.6377443" lon="13.0421225"><ele>291.66666666666663</ele><time>2026-04-25T11:00:14.281Z</time></trkpt><trkpt lat="41.6379408" lon="13.0420617"><ele>291.3333333333333</ele><time>2026-04-25T11:00:15.282Z</time></trkpt><trkpt lat="41.6381325" lon="13.0420326"><ele>291.0</ele><time>2026-04-25T11:00:16.291Z</time></trkpt><trkpt lat="41.6383456" lon="13.0420373"><ele>291.0</ele><time>2026-04-25T11:00:17.289Z</time></trkpt><trkpt lat="41.6385796" lon="13.0420875"><ele>291.0</ele><time>2026-04-25T11:00:18.288Z</time></trkpt><trkpt lat="41.6388186" lon="13.0421574"><ele>290.5</ele><time>2026-04-25T11:00:19.291Z</time></trkpt><trkpt lat="41.6390586" lon="13.0421859"><ele>290.0</ele><time>2026-04-25T11:00:20.286Z</time></trkpt><trkpt lat="41.6392879" lon="13.0421976"><ele>290.0</ele><time>2026-04-25T11:00:21.287Z</time></trkpt><trkpt lat="41.6394917" lon="13.0422059"><ele>290.0</ele><time>2026-04-25T11:00:22.282Z</time></trkpt><trkpt lat="41.639687" lon="13.042217"><ele>290.0</ele><time>2026-04-25T11:00:23.283Z</time></trkpt><trkpt lat="41.6398694" lon="13.0422215"><ele>290.0</ele><time>2026-04-25T11:00:24.279Z</time></trkpt><trkpt lat="41.6400572" lon="13.0421939"><ele>290.0</ele><time>2026-04-25T11:00:25.28Z</time></trkpt><trkpt lat="41.6402593" lon="13.0421301"><ele>290.0</ele><time>2026-04-25T11:00:26.281Z</time></trkpt><trkpt lat="41.6404679" lon="13.04204"><ele>289.5</ele><time>2026-04-25T11:00:27.282Z</time></trkpt><trkpt lat="41.6406875" lon="13.0419243"><ele>289.0</ele><time>2026-04-25T11:00:28.277Z</time></trkpt><trkpt lat="41.6409256" lon="13.0418032"><ele>290.5</ele><time>2026-04-25T11:00:29.279Z</time></trkpt><trkpt lat="41.6411704" lon="13.0416708"><ele>292.0</ele><time>2026-04-25T11:00:30.282Z</time></trkpt><trkpt lat="41.6414175" lon="13.0415407"><ele>301.5</ele><time>2026-04-25T11:00:31.287Z</time></trkpt><trkpt lat="41.6416634" lon="13.0414089"><ele>311.0</ele><time>2026-04-25T11:00:32.286Z</time></trkpt><trkpt lat="41.6418954" lon="13.0412979"><ele>306.0</ele><time>2026-04-25T11:00:33.282Z</time></trkpt><trkpt lat="41.6421276" lon="13.0411949"><ele>301.0</ele><time>2026-04-25T11:00:34.288Z</time></trkpt><trkpt lat="41.6423605" lon="13.0410934"><ele>301.0</ele><time>2026-04-25T11:00:35.287Z</time></trkpt><trkpt lat="41.6425504" lon="13.0410257"><ele>301.0</ele><time>2026-04-25T11:00:36.287Z</time></trkpt><trkpt lat="41.6427147" lon="13.0409782"><ele>301.0</ele><time>2026-04-25T11:00:37.288Z</time></trkpt><trkpt lat="41.6428691" lon="13.0409151"><ele>297.0</ele><time>2026-04-25T11:00:38.29Z</time></trkpt><trkpt lat="41.6430112" lon="13.0408317"><ele>293.0</ele><time>2026-04-25T11:00:39.287Z</time></trkpt><trkpt lat="41.6431444" lon="13.0407083"><ele>289.0</ele><time>2026-04-25T11:00:40.285Z</time></trkpt><trkpt lat="41.6432559" lon="13.0405594"><ele>288.75</ele><time>2026-04-25T11:00:41.288Z</time></trkpt><trkpt lat="41.6433457" lon="13.0404045"><ele>288.5</ele><time>2026-04-25T11:00:42.289Z</time></trkpt><trkpt lat="41.6434264" lon="13.0402688"><ele>288.25</ele><time>2026-04-25T11:00:43.283Z</time></trkpt><trkpt lat="41.6435127" lon="13.040178"><ele>288.0</ele><time>2026-04-25T11:00:44.285Z</time></trkpt><trkpt lat="41.6436185" lon="13.0401269"><ele>288.6666666666667</ele><time>2026-04-25T11:00:45.288Z</time></trkpt><trkpt lat="41.6437636" lon="13.0401183"><ele>289.33333333333337</ele><time>2026-04-25T11:00:46.282Z</time></trkpt><trkpt lat="41.6439431" lon="13.0401401"><ele>290.0</ele><time>2026-04-25T11:00:47.279Z</time></trkpt><trkpt lat="41.6441543" lon="13.0401512"><ele>290.0</ele><time>2026-04-25T11:00:48.278Z</time></trkpt><trkpt lat="41.6443923" lon="13.0401515"><ele>290.0</ele><time>2026-04-25T11:00:49.281Z</time></trkpt><trkpt lat="41.6446262" lon="13.0401602"><ele>293.5</ele><time>2026-04-25T11:00:50.289Z</time></trkpt><trkpt lat="41.6448604" lon="13.0401877"><ele>297.0</ele><time>2026-04-25T11:00:51.284Z</time></trkpt><trkpt lat="41.6450852" lon="13.0402423"><ele>297.0</ele><time>2026-04-25T11:00:52.284Z</time></trkpt><trkpt lat="41.6452851" lon="13.0402977"><ele>297.0</ele><time>2026-04-25T11:00:53.279Z</time></trkpt><trkpt lat="41.6454706" lon="13.040352"><ele>297.0</ele><time>2026-04-25T11:00:54.28Z</time></trkpt><trkpt lat="41.645644" lon="13.0403978"><ele>300.3333333333333</ele><time>2026-04-25T11:00:55.283Z</time></trkpt><trkpt lat="41.6457998" lon="13.0404191"><ele>303.66666666666663</ele><time>2026-04-25T11:00:56.28Z</time></trkpt><trkpt lat="41.6459513" lon="13.0404056"><ele>307.0</ele><time>2026-04-25T11:00:57.282Z</time></trkpt><trkpt lat="41.6461047" lon="13.040346"><ele>305.66666666666663</ele><time>2026-04-25T11:00:58.288Z</time></trkpt><trkpt lat="41.6462514" lon="13.0402442"><ele>304.3333333333333</ele><time>2026-04-25T11:00:59.282Z</time></trkpt><trkpt lat="41.6463921" lon="13.0401343"><ele>303.0</ele><time>2026-04-25T11:01:00.288Z</time></trkpt><trkpt lat="41.64653" lon="13.0400487"><ele>303.0</ele><time>2026-04-25T11:01:01.278Z</time></trkpt><trkpt lat="41.6466654" lon="13.0399812"><ele>303.0</ele><time>2026-04-25T11:01:02.285Z</time></trkpt><trkpt lat="41.6467754" lon="13.0399964"><ele>303.0</ele><time>2026-04-25T11:01:03.277Z</time></trkpt><trkpt lat="41.6468949" lon="13.040024"><ele>303.0</ele><time>2026-04-25T11:01:04.287Z</time></trkpt><trkpt lat="41.6470151" lon="13.0400908"><ele>304.25</ele><time>2026-04-25T11:01:05.286Z</time></trkpt><trkpt lat="41.6471292" lon="13.0401782"><ele>305.5</ele><time>2026-04-25T11:01:06.279Z</time></trkpt><trkpt lat="41.6472368" lon="13.0402654"><ele>306.75</ele><time>2026-04-25T11:01:07.29Z</time></trkpt><trkpt lat="41.6473279" lon="13.0403383"><ele>308.0</ele><time>2026-04-25T11:01:08.283Z</time></trkpt><trkpt lat="41.6474147" lon="13.0404099"><ele>308.0</ele><time>2026-04-25T11:01:09.289Z</time></trkpt><trkpt lat="41.6474934" lon="13.0404574"><ele>308.0</ele><time>2026-04-25T11:01:10.288Z</time></trkpt><trkpt lat="41.6475647" lon="13.0404841"><ele>308.0</ele><time>2026-04-25T11:01:11.285Z</time></trkpt><trkpt lat="41.6476436" lon="13.0404566"><ele>308.0</ele><time>2026-04-25T11:01:12.29Z</time></trkpt><trkpt lat="41.6477102" lon="13.0403955"><ele>308.0</ele><time>2026-04-25T11:01:13.28Z</time></trkpt><trkpt lat="41.6477681" lon="13.0402861"><ele>308.0</ele><time>2026-04-25T11:01:14.288Z</time></trkpt><trkpt lat="41.647834" lon="13.0401674"><ele>308.75</ele><time>2026-04-25T11:01:15.288Z</time></trkpt><trkpt lat="41.6478947" lon="13.0400324"><ele>309.5</ele><time>2026-04-25T11:01:16.288Z</time></trkpt><trkpt lat="41.6479694" lon="13.0399107"><ele>310.25</ele><time>2026-04-25T11:01:17.287Z</time></trkpt><trkpt lat="41.6480444" lon="13.0397965"><ele>311.0</ele><time>2026-04-25T11:01:18.28Z</time></trkpt><trkpt lat="41.6481122" lon="13.0396856"><ele>311.0</ele><time>2026-04-25T11:01:19.282Z</time></trkpt><trkpt lat="41.6481726" lon="13.0395788"><ele>311.0</ele><time>2026-04-25T11:01:20.279Z</time></trkpt><trkpt lat="41.6482314" lon="13.0394797"><ele>311.0</ele><time>2026-04-25T11:01:21.277Z</time></trkpt><trkpt lat="41.648287" lon="13.0393685"><ele>311.0</ele><time>2026-04-25T11:01:22.288Z</time></trkpt><trkpt lat="41.6483524" lon="13.0392683"><ele>311.0</ele><time>2026-04-25T11:01:23.288Z</time></trkpt><trkpt lat="41.6484188" lon="13.0391697"><ele>310.8</ele><time>2026-04-25T11:01:24.288Z</time></trkpt><trkpt lat="41.6485169" lon="13.0391131"><ele>310.6</ele><time>2026-04-25T11:01:25.288Z</time></trkpt><trkpt lat="41.6486134" lon="13.0390628"><ele>310.4</ele><time>2026-04-25T11:01:26.288Z</time></trkpt><trkpt lat="41.6487141" lon="13.0390222"><ele>310.2</ele><time>2026-04-25T11:01:27.287Z</time></trkpt><trkpt lat="41.6488163" lon="13.0389916"><ele>310.0</ele><time>2026-04-25T11:01:28.286Z</time></trkpt><trkpt lat="41.6489251" lon="13.0389605"><ele>310.0</ele><time>2026-04-25T11:01:29.288Z</time></trkpt><trkpt lat="41.6490319" lon="13.0389141"><ele>310.0</ele><time>2026-04-25T11:01:30.288Z</time></trkpt><trkpt lat="41.6491291" lon="13.03887"><ele>310.0</ele><time>2026-04-25T11:01:31.289Z</time></trkpt><trkpt lat="41.6492149" lon="13.038854"><ele>310.0</ele><time>2026-04-25T11:01:32.288Z</time></trkpt><trkpt lat="41.6492983" lon="13.0388676"><ele>310.0</ele><time>2026-04-25T11:01:33.282Z</time></trkpt><trkpt lat="41.6493604" lon="13.0389146"><ele>310.0</ele><time>2026-04-25T11:01:34.282Z</time></trkpt><trkpt lat="41.6494107" lon="13.0389774"><ele>310.0</ele><time>2026-04-25T11:01:35.28Z</time></trkpt><trkpt lat="41.6494632" lon="13.0390549"><ele>310.0</ele><time>2026-04-25T11:01:36.282Z</time></trkpt><trkpt lat="41.6495164" lon="13.0391415"><ele>310.0</ele><time>2026-04-25T11:01:37.283Z</time></trkpt><trkpt lat="41.6495754" lon="13.0392339"><ele>310.0</ele><time>2026-04-25T11:01:38.288Z</time></trkpt><trkpt lat="41.6496355" lon="13.0393272"><ele>310.0</ele><time>2026-04-25T11:01:39.281Z</time></trkpt><trkpt lat="41.6496924" lon="13.0394131"><ele>307.6</ele><time>2026-04-25T11:01:40.29Z</time></trkpt><trkpt lat="41.6497398" lon="13.0394957"><ele>305.2</ele><time>2026-04-25T11:01:41.282Z</time></trkpt><trkpt lat="41.6497725" lon="13.0395796"><ele>302.8</ele><time>2026-04-25T11:01:42.283Z</time></trkpt><trkpt lat="41.6498016" lon="13.0396551"><ele>300.4</ele><time>2026-04-25T11:01:43.282Z</time></trkpt><trkpt lat="41.6498948" lon="13.039742"><ele>298.0</ele><time>2026-04-25T11:01:45.287Z</time></trkpt><trkpt lat="41.6500181" lon="13.0397732"><ele>298.0</ele><time>2026-04-25T11:01:47.287Z</time></trkpt><trkpt lat="41.6500849" lon="13.0397638"><ele>298.0</ele><time>2026-04-25T11:01:48.29Z</time></trkpt><trkpt lat="41.6501614" lon="13.0397179"><ele>298.0</ele><time>2026-04-25T11:01:49.282Z</time></trkpt><trkpt lat="41.6502436" lon="13.0396934"><ele>298.0</ele><time>2026-04-25T11:01:50.282Z</time></trkpt><trkpt lat="41.6503295" lon="13.0396875"><ele>298.0</ele><time>2026-04-25T11:01:51.282Z</time></trkpt><trkpt lat="41.6504273" lon="13.0396815"><ele>298.0</ele><time>2026-04-25T11:01:52.287Z</time></trkpt><trkpt lat="41.650532" lon="13.0396769"><ele>296.0</ele><time>2026-04-25T11:01:53.279Z</time></trkpt><trkpt lat="41.6506383" lon="13.0396954"><ele>294.0</ele><time>2026-04-25T11:01:54.283Z</time></trkpt><trkpt lat="41.6507582" lon="13.0396906"><ele>292.0</ele><time>2026-04-25T11:01:55.29Z</time></trkpt><trkpt lat="41.6508722" lon="13.0397227"><ele>290.0</ele><time>2026-04-25T11:01:56.28Z</time></trkpt><trkpt lat="41.651" lon="13.0397736"><ele>289.0</ele><time>2026-04-25T11:01:57.283Z</time></trkpt><trkpt lat="41.6511252" lon="13.0397878"><ele>288.0</ele><time>2026-04-25T11:01:58.279Z</time></trkpt><trkpt lat="41.6512453" lon="13.0398163"><ele>287.0</ele><time>2026-04-25T11:01:59.28Z</time></trkpt><trkpt lat="41.6513637" lon="13.0398402"><ele>286.0</ele><time>2026-04-25T11:02:00.289Z</time></trkpt><trkpt lat="41.6514757" lon="13.0398728"><ele>286.0</ele><time>2026-04-25T11:02:01.279Z</time></trkpt><trkpt lat="41.6515625" lon="13.0398881"><ele>286.0</ele><time>2026-04-25T11:02:02.29Z</time></trkpt><trkpt lat="41.6516819" lon="13.0398764"><ele>286.0</ele><time>2026-04-25T11:02:04.279Z</time></trkpt><trkpt lat="41.6517357" lon="13.0397489"><ele>286.0</ele><time>2026-04-25T11:02:06.281Z</time></trkpt><trkpt lat="41.651647" lon="13.0396365"><ele>286.0</ele><time>2026-04-25T11:02:08.289Z</time></trkpt><trkpt lat="41.6515604" lon="13.0396127"><ele>286.0</ele><time>2026-04-25T11:02:09.28Z</time></trkpt><trkpt lat="41.6514772" lon="13.0395616"><ele>286.0</ele><time>2026-04-25T11:02:10.288Z</time></trkpt><trkpt lat="41.6513738" lon="13.0394898"><ele>286.0</ele><time>2026-04-25T11:02:11.281Z</time></trkpt><trkpt lat="41.6512739" lon="13.0394203"><ele>286.0</ele><time>2026-04-25T11:02:12.282Z</time></trkpt><trkpt lat="41.6511744" lon="13.0393435"><ele>286.0</ele><time>2026-04-25T11:02:13.281Z</time></trkpt><trkpt lat="41.6510855" lon="13.0392809"><ele>286.8</ele><time>2026-04-25T11:02:14.282Z</time></trkpt><trkpt lat="41.6510077" lon="13.0392147"><ele>287.6</ele><time>2026-04-25T11:02:15.281Z</time></trkpt><trkpt lat="41.650934" lon="13.0391455"><ele>288.4</ele><time>2026-04-25T11:02:16.288Z</time></trkpt><trkpt lat="41.6508791" lon="13.0390824"><ele>289.2</ele><time>2026-04-25T11:02:17.279Z</time></trkpt><trkpt lat="41.6509259" lon="13.0389063"><ele>290.0</ele><time>2026-04-25T11:02:18.287Z</time></trkpt><trkpt lat="41.6509574" lon="13.0388028"><ele>291.25</ele><time>2026-04-25T11:02:19.281Z</time></trkpt><trkpt lat="41.6510088" lon="13.0387101"><ele>292.5</ele><time>2026-04-25T11:02:20.284Z</time></trkpt><trkpt lat="41.6511019" lon="13.03869"><ele>293.75</ele><time>2026-04-25T11:02:21.375Z</time></trkpt><trkpt lat="41.6512649" lon="13.038766"><ele>295.0</ele><time>2026-04-25T11:02:22.281Z</time></trkpt><trkpt lat="41.6514027" lon="13.0388233"><ele>290.66666666666663</ele><time>2026-04-25T11:02:23.288Z</time></trkpt><trkpt lat="41.6515449" lon="13.0388808"><ele>286.3333333333333</ele><time>2026-04-25T11:02:24.29Z</time></trkpt><trkpt lat="41.651714" lon="13.0389857"><ele>282.0</ele><time>2026-04-25T11:02:25.279Z</time></trkpt><trkpt lat="41.6519282" lon="13.039071"><ele>279.0</ele><time>2026-04-25T11:02:26.287Z</time></trkpt><trkpt lat="41.6521273" lon="13.0391649"><ele>276.0</ele><time>2026-04-25T11:02:27.287Z</time></trkpt><trkpt lat="41.6523244" lon="13.0392578"><ele>273.0</ele><time>2026-04-25T11:02:28.288Z</time></trkpt><trkpt lat="41.6525247" lon="13.0393543"><ele>273.0</ele><time>2026-04-25T11:02:29.287Z</time></trkpt><trkpt lat="41.6527186" lon="13.0394452"><ele>273.0</ele><time>2026-04-25T11:02:30.281Z</time></trkpt><trkpt lat="41.652902" lon="13.0395333"><ele>273.0</ele><time>2026-04-25T11:02:31.277Z</time></trkpt><trkpt lat="41.6530713" lon="13.03961"><ele>270.6666666666667</ele><time>2026-04-25T11:02:32.281Z</time></trkpt><trkpt lat="41.6532267" lon="13.0396861"><ele>268.33333333333337</ele><time>2026-04-25T11:02:33.286Z</time></trkpt><trkpt lat="41.6533776" lon="13.0397586"><ele>266.0</ele><time>2026-04-25T11:02:34.28Z</time></trkpt><trkpt lat="41.6535268" lon="13.0398212"><ele>265.25</ele><time>2026-04-25T11:02:35.282Z</time></trkpt><trkpt lat="41.6536677" lon="13.0398971"><ele>264.5</ele><time>2026-04-25T11:02:36.282Z</time></trkpt><trkpt lat="41.6538045" lon="13.0399686"><ele>263.75</ele><time>2026-04-25T11:02:37.287Z</time></trkpt><trkpt lat="41.6539409" lon="13.0400293"><ele>263.0</ele><time>2026-04-25T11:02:38.283Z</time></trkpt><trkpt lat="41.6540715" lon="13.04011"><ele>262.0</ele><time>2026-04-25T11:02:39.288Z</time></trkpt><trkpt lat="41.6541871" lon="13.0402093"><ele>261.0</ele><time>2026-04-25T11:02:40.281Z</time></trkpt><trkpt lat="41.6542913" lon="13.0403277"><ele>260.0</ele><time>2026-04-25T11:02:41.288Z</time></trkpt><trkpt lat="41.6543817" lon="13.0404533"><ele>259.0</ele><time>2026-04-25T11:02:42.291Z</time></trkpt><trkpt lat="41.6544473" lon="13.040581"><ele>258.16666666666663</ele><time>2026-04-25T11:02:43.283Z</time></trkpt><trkpt lat="41.6544966" lon="13.0407006"><ele>257.3333333333333</ele><time>2026-04-25T11:02:44.283Z</time></trkpt><trkpt lat="41.6545352" lon="13.0408055"><ele>256.5</ele><time>2026-04-25T11:02:45.289Z</time></trkpt><trkpt lat="41.6545691" lon="13.0408796"><ele>255.66666666666669</ele><time>2026-04-25T11:02:46.279Z</time></trkpt><trkpt lat="41.6546118" lon="13.041004"><ele>254.83333333333334</ele><time>2026-04-25T11:02:48.29Z</time></trkpt><trkpt lat="41.6546421" lon="13.0410834"><ele>254.0</ele><time>2026-04-25T11:04:39.284Z</time></trkpt><trkpt lat="41.6547479" lon="13.0411086"><ele>254.0</ele><time>2026-04-25T11:04:42.287Z</time></trkpt><trkpt lat="41.6548086" lon="13.0410767"><ele>253.99999999999997</ele><time>2026-04-25T11:04:43.288Z</time></trkpt><trkpt lat="41.6548817" lon="13.0410196"><ele>253.99999999999997</ele><time>2026-04-25T11:04:44.279Z</time></trkpt><trkpt lat="41.6549654" lon="13.0409416"><ele>254.0</ele><time>2026-04-25T11:04:45.289Z</time></trkpt><trkpt lat="41.6550468" lon="13.0408675"><ele>254.0</ele><time>2026-04-25T11:04:46.281Z</time></trkpt><trkpt lat="41.6551357" lon="13.0407939"><ele>254.0</ele><time>2026-04-25T11:04:47.28Z</time></trkpt><trkpt lat="41.6552306" lon="13.0407322"><ele>254.0</ele><time>2026-04-25T11:04:48.281Z</time></trkpt><trkpt lat="41.6553284" lon="13.0406751"><ele>254.0</ele><time>2026-04-25T11:04:49.28Z</time></trkpt><trkpt lat="41.6554396" lon="13.0406325"><ele>254.0</ele><time>2026-04-25T11:04:50.279Z</time></trkpt><trkpt lat="41.6555609" lon="13.0406015"><ele>253.5</ele><time>2026-04-25T11:04:51.28Z</time></trkpt><trkpt lat="41.6556863" lon="13.0405834"><ele>253.0</ele><time>2026-04-25T11:04:52.28Z</time></trkpt><trkpt lat="41.6558112" lon="13.0405675"><ele>252.5</ele><time>2026-04-25T11:04:53.281Z</time></trkpt><trkpt lat="41.6559497" lon="13.0405553"><ele>252.0</ele><time>2026-04-25T11:04:54.284Z</time></trkpt><trkpt lat="41.6561" lon="13.0405458"><ele>252.33333333333331</ele><time>2026-04-25T11:04:55.288Z</time></trkpt><trkpt lat="41.6562644" lon="13.0405402"><ele>252.66666666666666</ele><time>2026-04-25T11:04:56.289Z</time></trkpt><trkpt lat="41.6564303" lon="13.0405337"><ele>253.0</ele><time>2026-04-25T11:04:57.29Z</time></trkpt><trkpt lat="41.6565988" lon="13.0405338"><ele>253.0</ele><time>2026-04-25T11:04:58.283Z</time></trkpt><trkpt lat="41.6567691" lon="13.040544"><ele>253.0</ele><time>2026-04-25T11:04:59.29Z</time></trkpt><trkpt lat="41.6569433" lon="13.0405751"><ele>253.0</ele><time>2026-04-25T11:05:00.289Z</time></trkpt><trkpt lat="41.6571131" lon="13.0406214"><ele>252.0</ele><time>2026-04-25T11:05:01.281Z</time></trkpt><trkpt lat="41.6572738" lon="13.0406736"><ele>251.0</ele><time>2026-04-25T11:05:02.283Z</time></trkpt><trkpt lat="41.6574325" lon="13.0407331"><ele>250.0</ele><time>2026-04-25T11:05:03.288Z</time></trkpt><trkpt lat="41.6575799" lon="13.0407888"><ele>249.33333333333331</ele><time>2026-04-25T11:05:04.285Z</time></trkpt><trkpt lat="41.65773" lon="13.0408324"><ele>248.66666666666669</ele><time>2026-04-25T11:05:05.283Z</time></trkpt><trkpt lat="41.6578817" lon="13.0408677"><ele>248.0</ele><time>2026-04-25T11:05:06.287Z</time></trkpt><trkpt lat="41.6580299" lon="13.0408807"><ele>248.0</ele><time>2026-04-25T11:05:07.288Z</time></trkpt><trkpt lat="41.65818" lon="13.0408688"><ele>248.0</ele><time>2026-04-25T11:05:08.284Z</time></trkpt><trkpt lat="41.6583076" lon="13.040845"><ele>248.0</ele><time>2026-04-25T11:05:09.291Z</time></trkpt><trkpt lat="41.6584284" lon="13.0408177"><ele>248.0</ele><time>2026-04-25T11:05:10.277Z</time></trkpt><trkpt lat="41.6585522" lon="13.0407872"><ele>249.66666666666669</ele><time>2026-04-25T11:05:11.285Z</time></trkpt><trkpt lat="41.6586887" lon="13.0407526"><ele>251.33333333333331</ele><time>2026-04-25T11:05:12.28Z</time></trkpt><trkpt lat="41.6588472" lon="13.0407438"><ele>253.0</ele><time>2026-04-25T11:05:13.288Z</time></trkpt><trkpt lat="41.6590252" lon="13.0407703"><ele>253.0</ele><time>2026-04-25T11:05:14.281Z</time></trkpt><trkpt lat="41.6592237" lon="13.040809"><ele>253.0</ele><time>2026-04-25T11:05:15.28Z</time></trkpt><trkpt lat="41.6594309" lon="13.040853"><ele>253.0</ele><time>2026-04-25T11:05:16.279Z</time></trkpt><trkpt lat="41.6596366" lon="13.0408977"><ele>253.0</ele><time>2026-04-25T11:05:17.279Z</time></trkpt><trkpt lat="41.6598425" lon="13.0409399"><ele>253.0</ele><time>2026-04-25T11:05:18.283Z</time></trkpt><trkpt lat="41.660045" lon="13.040985"><ele>253.0</ele><time>2026-04-25T11:05:19.284Z</time></trkpt><trkpt lat="41.6602445" lon="13.0410253"><ele>254.0</ele><time>2026-04-25T11:05:20.288Z</time></trkpt><trkpt lat="41.6604434" lon="13.041058"><ele>255.0</ele><time>2026-04-25T11:05:21.288Z</time></trkpt><trkpt lat="41.6606426" lon="13.0410984"><ele>256.0</ele><time>2026-04-25T11:05:22.29Z</time></trkpt><trkpt lat="41.6608508" lon="13.041127"><ele>256.0</ele><time>2026-04-25T11:05:23.288Z</time></trkpt><trkpt lat="41.661067" lon="13.0411471"><ele>256.0</ele><time>2026-04-25T11:05:24.28Z</time></trkpt><trkpt lat="41.6612868" lon="13.0411623"><ele>256.0</ele><time>2026-04-25T11:05:25.289Z</time></trkpt><trkpt lat="41.6614992" lon="13.0411809"><ele>259.0</ele><time>2026-04-25T11:05:26.284Z</time></trkpt><trkpt lat="41.6617012" lon="13.0411975"><ele>262.0</ele><time>2026-04-25T11:05:27.278Z</time></trkpt><trkpt lat="41.6618934" lon="13.0412192"><ele>265.0</ele><time>2026-04-25T11:05:28.28Z</time></trkpt><trkpt lat="41.6620758" lon="13.0412311"><ele>267.0</ele><time>2026-04-25T11:05:29.282Z</time></trkpt><trkpt lat="41.6622551" lon="13.041229"><ele>269.0</ele><time>2026-04-25T11:05:30.29Z</time></trkpt><trkpt lat="41.6624348" lon="13.0412162"><ele>271.0</ele><time>2026-04-25T11:05:31.282Z</time></trkpt><trkpt lat="41.6626139" lon="13.0412024"><ele>268.3333333333333</ele><time>2026-04-25T11:05:32.281Z</time></trkpt><trkpt lat="41.6627828" lon="13.0411891"><ele>265.6666666666667</ele><time>2026-04-25T11:05:33.283Z</time></trkpt><trkpt lat="41.662935" lon="13.0411953"><ele>263.0</ele><time>2026-04-25T11:05:34.277Z</time></trkpt><trkpt lat="41.6630874" lon="13.0412018"><ele>263.0</ele><time>2026-04-25T11:05:35.277Z</time></trkpt><trkpt lat="41.6632265" lon="13.0412017"><ele>263.0</ele><time>2026-04-25T11:05:36.28Z</time></trkpt><trkpt lat="41.6633781" lon="13.0411817"><ele>263.0</ele><time>2026-04-25T11:05:37.277Z</time></trkpt><trkpt lat="41.6635417" lon="13.0411403"><ele>261.33333333333337</ele><time>2026-04-25T11:05:38.278Z</time></trkpt><trkpt lat="41.6637143" lon="13.0410775"><ele>259.6666666666667</ele><time>2026-04-25T11:05:39.28Z</time></trkpt><trkpt lat="41.6639064" lon="13.040989"><ele>258.0</ele><time>2026-04-25T11:05:40.274Z</time></trkpt><trkpt lat="41.6641117" lon="13.0408933"><ele>258.0</ele><time>2026-04-25T11:05:41.289Z</time></trkpt><trkpt lat="41.6643264" lon="13.0408013"><ele>258.0</ele><time>2026-04-25T11:05:42.288Z</time></trkpt><trkpt lat="41.6645406" lon="13.0407001"><ele>258.6666666666667</ele><time>2026-04-25T11:05:43.289Z</time></trkpt><trkpt lat="41.6647478" lon="13.040601"><ele>259.33333333333337</ele><time>2026-04-25T11:05:44.281Z</time></trkpt><trkpt lat="41.6649468" lon="13.0405062"><ele>260.0</ele><time>2026-04-25T11:05:45.278Z</time></trkpt><trkpt lat="41.6651292" lon="13.0404222"><ele>259.0</ele><time>2026-04-25T11:05:46.275Z</time></trkpt><trkpt lat="41.6652974" lon="13.0403406"><ele>258.0</ele><time>2026-04-25T11:05:47.28Z</time></trkpt><trkpt lat="41.6654517" lon="13.0402427"><ele>257.0</ele><time>2026-04-25T11:05:48.282Z</time></trkpt><trkpt lat="41.665603" lon="13.0401321"><ele>257.0</ele><time>2026-04-25T11:05:49.28Z</time></trkpt><trkpt lat="41.6657561" lon="13.0399811"><ele>257.0</ele><time>2026-04-25T11:05:50.287Z</time></trkpt><trkpt lat="41.6659114" lon="13.0397988"><ele>257.0</ele><time>2026-04-25T11:05:51.279Z</time></trkpt><trkpt lat="41.6660712" lon="13.0395959"><ele>259.0</ele><time>2026-04-25T11:05:52.281Z</time></trkpt><trkpt lat="41.6662483" lon="13.0393676"><ele>261.0</ele><time>2026-04-25T11:05:53.283Z</time></trkpt><trkpt lat="41.6664387" lon="13.0391219"><ele>264.5</ele><time>2026-04-25T11:05:54.281Z</time></trkpt><trkpt lat="41.6666198" lon="13.0388799"><ele>268.0</ele><time>2026-04-25T11:05:55.28Z</time></trkpt><trkpt lat="41.6667949" lon="13.0386502"><ele>267.0</ele><time>2026-04-25T11:05:56.279Z</time></trkpt><trkpt lat="41.6669565" lon="13.0384416"><ele>266.0</ele><time>2026-04-25T11:05:57.28Z</time></trkpt><trkpt lat="41.6671026" lon="13.0382524"><ele>265.0</ele><time>2026-04-25T11:05:58.287Z</time></trkpt><trkpt lat="41.6672375" lon="13.0380827"><ele>267.66666666666663</ele><time>2026-04-25T11:05:59.277Z</time></trkpt><trkpt lat="41.6673763" lon="13.0379273"><ele>270.3333333333333</ele><time>2026-04-25T11:06:00.28Z</time></trkpt><trkpt lat="41.6675203" lon="13.0377907"><ele>273.0</ele><time>2026-04-25T11:06:01.286Z</time></trkpt><trkpt lat="41.6676778" lon="13.0376773"><ele>273.0</ele><time>2026-04-25T11:06:02.28Z</time></trkpt><trkpt lat="41.6678384" lon="13.0375762"><ele>273.0</ele><time>2026-04-25T11:06:03.282Z</time></trkpt><trkpt lat="41.6680072" lon="13.0375022"><ele>273.0</ele><time>2026-04-25T11:06:04.283Z</time></trkpt><trkpt lat="41.6681811" lon="13.0374574"><ele>276.6666666666667</ele><time>2026-04-25T11:06:05.281Z</time></trkpt><trkpt lat="41.668369" lon="13.0374318"><ele>280.33333333333337</ele><time>2026-04-25T11:06:06.282Z</time></trkpt><trkpt lat="41.6685647" lon="13.0374262"><ele>284.0</ele><time>2026-04-25T11:06:07.285Z</time></trkpt><trkpt lat="41.6687577" lon="13.0374315"><ele>286.6666666666667</ele><time>2026-04-25T11:06:08.282Z</time></trkpt><trkpt lat="41.6689309" lon="13.0374342"><ele>289.3333333333333</ele><time>2026-04-25T11:06:09.281Z</time></trkpt><trkpt lat="41.6690935" lon="13.0374334"><ele>292.0</ele><time>2026-04-25T11:06:10.282Z</time></trkpt><trkpt lat="41.6692534" lon="13.0374217"><ele>292.0</ele><time>2026-04-25T11:06:11.28Z</time></trkpt><trkpt lat="41.6694188" lon="13.0373846"><ele>292.0</ele><time>2026-04-25T11:06:12.283Z</time></trkpt><trkpt lat="41.6695913" lon="13.0373175"><ele>292.0</ele><time>2026-04-25T11:06:13.282Z</time></trkpt><trkpt lat="41.669748" lon="13.0372559"><ele>293.0</ele><time>2026-04-25T11:06:14.281Z</time></trkpt><trkpt lat="41.6698869" lon="13.0372116"><ele>294.0</ele><time>2026-04-25T11:06:15.281Z</time></trkpt><trkpt lat="41.6700031" lon="13.037184"><ele>295.0</ele><time>2026-04-25T11:06:16.28Z</time></trkpt><trkpt lat="41.6701143" lon="13.0371829"><ele>296.0</ele><time>2026-04-25T11:06:17.28Z</time></trkpt><trkpt lat="41.6702222" lon="13.0372165"><ele>296.0</ele><time>2026-04-25T11:06:18.283Z</time></trkpt><trkpt lat="41.6703132" lon="13.0372706"><ele>296.0</ele><time>2026-04-25T11:06:19.281Z</time></trkpt><trkpt lat="41.6703915" lon="13.0373569"><ele>296.0</ele><time>2026-04-25T11:06:20.278Z</time></trkpt><trkpt lat="41.6704566" lon="13.0374912"><ele>296.0</ele><time>2026-04-25T11:06:21.364Z</time></trkpt><trkpt lat="41.6705078" lon="13.0376506"><ele>296.0</ele><time>2026-04-25T11:06:22.276Z</time></trkpt><trkpt lat="41.6705444" lon="13.0378328"><ele>296.0</ele><time>2026-04-25T11:06:23.282Z</time></trkpt><trkpt lat="41.6705663" lon="13.0380251"><ele>296.0</ele><time>2026-04-25T11:06:24.281Z</time></trkpt><trkpt lat="41.6705878" lon="13.0382072"><ele>296.0</ele><time>2026-04-25T11:06:25.282Z</time></trkpt><trkpt lat="41.6705818" lon="13.0383903"><ele>297.25</ele><time>2026-04-25T11:06:26.283Z</time></trkpt><trkpt lat="41.6705537" lon="13.0385732"><ele>298.5</ele><time>2026-04-25T11:06:27.287Z</time></trkpt><trkpt lat="41.6704966" lon="13.0387487"><ele>299.75</ele><time>2026-04-25T11:06:28.289Z</time></trkpt><trkpt lat="41.6704199" lon="13.0389146"><ele>301.0</ele><time>2026-04-25T11:06:29.282Z</time></trkpt><trkpt lat="41.6703318" lon="13.0390742"><ele>298.8</ele><time>2026-04-25T11:06:30.279Z</time></trkpt><trkpt lat="41.6702545" lon="13.0392038"><ele>296.6</ele><time>2026-04-25T11:06:31.281Z</time></trkpt><trkpt lat="41.6701918" lon="13.0393245"><ele>294.4</ele><time>2026-04-25T11:06:32.281Z</time></trkpt><trkpt lat="41.6701597" lon="13.0394411"><ele>292.2</ele><time>2026-04-25T11:06:33.29Z</time></trkpt><trkpt lat="41.6701574" lon="13.0395787"><ele>290.0</ele><time>2026-04-25T11:06:34.278Z</time></trkpt><trkpt lat="41.6701901" lon="13.0397102"><ele>290.0</ele><time>2026-04-25T11:06:35.282Z</time></trkpt><trkpt lat="41.6702601" lon="13.0398302"><ele>290.0</ele><time>2026-04-25T11:06:36.279Z</time></trkpt><trkpt lat="41.6703508" lon="13.0399174"><ele>290.0</ele><time>2026-04-25T11:06:37.287Z</time></trkpt><trkpt lat="41.670467" lon="13.0399614"><ele>290.0</ele><time>2026-04-25T11:06:38.28Z</time></trkpt><trkpt lat="41.6705985" lon="13.0399551"><ele>295.33333333333337</ele><time>2026-04-25T11:06:39.288Z</time></trkpt><trkpt lat="41.6707364" lon="13.0399032"><ele>300.6666666666667</ele><time>2026-04-25T11:06:40.281Z</time></trkpt><trkpt lat="41.6708874" lon="13.0398065"><ele>306.0</ele><time>2026-04-25T11:06:41.276Z</time></trkpt><trkpt lat="41.6710434" lon="13.0396598"><ele>307.5</ele><time>2026-04-25T11:06:42.282Z</time></trkpt><trkpt lat="41.6712136" lon="13.0394816"><ele>309.0</ele><time>2026-04-25T11:06:43.281Z</time></trkpt><trkpt lat="41.6714046" lon="13.0392804"><ele>311.5</ele><time>2026-04-25T11:06:44.281Z</time></trkpt><trkpt lat="41.6715924" lon="13.0390702"><ele>314.0</ele><time>2026-04-25T11:06:45.281Z</time></trkpt><trkpt lat="41.6717941" lon="13.0388441"><ele>314.6666666666667</ele><time>2026-04-25T11:06:46.277Z</time></trkpt><trkpt lat="41.6719741" lon="13.0386524"><ele>315.3333333333333</ele><time>2026-04-25T11:06:47.283Z</time></trkpt><trkpt lat="41.6721366" lon="13.0384809"><ele>316.0</ele><time>2026-04-25T11:06:48.281Z</time></trkpt><trkpt lat="41.6722877" lon="13.0383345"><ele>318.0</ele><time>2026-04-25T11:06:49.289Z</time></trkpt><trkpt lat="41.6724439" lon="13.0382215"><ele>320.0</ele><time>2026-04-25T11:06:50.278Z</time></trkpt><trkpt lat="41.6726142" lon="13.0381242"><ele>322.0</ele><time>2026-04-25T11:06:51.288Z</time></trkpt><trkpt lat="41.6728058" lon="13.0380482"><ele>324.66666666666663</ele><time>2026-04-25T11:06:52.288Z</time></trkpt><trkpt lat="41.6730047" lon="13.0379871"><ele>327.3333333333333</ele><time>2026-04-25T11:06:53.29Z</time></trkpt><trkpt lat="41.6731948" lon="13.0379422"><ele>330.0</ele><time>2026-04-25T11:06:54.279Z</time></trkpt><trkpt lat="41.6733756" lon="13.0378999"><ele>330.0</ele><time>2026-04-25T11:06:55.28Z</time></trkpt><trkpt lat="41.6735483" lon="13.0378587"><ele>330.0</ele><time>2026-04-25T11:06:56.287Z</time></trkpt><trkpt lat="41.6737025" lon="13.0378276"><ele>330.0</ele><time>2026-04-25T11:06:57.281Z</time></trkpt><trkpt lat="41.6738387" lon="13.0377911"><ele>330.25</ele><time>2026-04-25T11:06:58.283Z</time></trkpt><trkpt lat="41.6739567" lon="13.037751"><ele>330.5</ele><time>2026-04-25T11:06:59.283Z</time></trkpt><trkpt lat="41.6740633" lon="13.0376871"><ele>330.75</ele><time>2026-04-25T11:07:00.281Z</time></trkpt><trkpt lat="41.6741629" lon="13.0375833"><ele>331.0</ele><time>2026-04-25T11:07:01.286Z</time></trkpt><trkpt lat="41.6742577" lon="13.0374472"><ele>333.3333333333333</ele><time>2026-04-25T11:07:02.281Z</time></trkpt><trkpt lat="41.6743368" lon="13.0372784"><ele>335.6666666666667</ele><time>2026-04-25T11:07:03.282Z</time></trkpt><trkpt lat="41.6744088" lon="13.0370931"><ele>338.0</ele><time>2026-04-25T11:07:04.279Z</time></trkpt><trkpt lat="41.674472" lon="13.0368912"><ele>337.6666666666667</ele><time>2026-04-25T11:07:05.286Z</time></trkpt><trkpt lat="41.674527" lon="13.0366811"><ele>337.3333333333333</ele><time>2026-04-25T11:07:06.283Z</time></trkpt><trkpt lat="41.674576" lon="13.0364815"><ele>337.0</ele><time>2026-04-25T11:07:07.281Z</time></trkpt><trkpt lat="41.6746141" lon="13.0363029"><ele>337.0</ele><time>2026-04-25T11:07:08.281Z</time></trkpt><trkpt lat="41.6746576" lon="13.036141"><ele>337.0</ele><time>2026-04-25T11:07:09.29Z</time></trkpt><trkpt lat="41.6747262" lon="13.0359793"><ele>337.0</ele><time>2026-04-25T11:07:10.286Z</time></trkpt><trkpt lat="41.6748114" lon="13.0358269"><ele>337.0</ele><time>2026-04-25T11:07:11.279Z</time></trkpt><trkpt lat="41.674907" lon="13.0356954"><ele>338.75</ele><time>2026-04-25T11:07:12.282Z</time></trkpt><trkpt lat="41.6750134" lon="13.0355807"><ele>340.5</ele><time>2026-04-25T11:07:13.283Z</time></trkpt><trkpt lat="41.6751392" lon="13.0354937"><ele>342.25</ele><time>2026-04-25T11:07:14.282Z</time></trkpt><trkpt lat="41.6752754" lon="13.0354443"><ele>344.0</ele><time>2026-04-25T11:07:15.282Z</time></trkpt><trkpt lat="41.6754041" lon="13.0354144"><ele>344.0</ele><time>2026-04-25T11:07:16.281Z</time></trkpt><trkpt lat="41.6755089" lon="13.0353702"><ele>344.0</ele><time>2026-04-25T11:07:17.283Z</time></trkpt><trkpt lat="41.6756034" lon="13.0353115"><ele>344.0</ele><time>2026-04-25T11:07:18.286Z</time></trkpt><trkpt lat="41.6756825" lon="13.0352235"><ele>344.0</ele><time>2026-04-25T11:07:19.281Z</time></trkpt><trkpt lat="41.6757511" lon="13.03513"><ele>344.0</ele><time>2026-04-25T11:07:20.291Z</time></trkpt><trkpt lat="41.675789" lon="13.0349611"><ele>348.5</ele><time>2026-04-25T11:07:21.289Z</time></trkpt><trkpt lat="41.6758266" lon="13.0348073"><ele>353.0</ele><time>2026-04-25T11:07:22.283Z</time></trkpt><trkpt lat="41.6758604" lon="13.0346349"><ele>357.5</ele><time>2026-04-25T11:07:23.281Z</time></trkpt><trkpt lat="41.675924" lon="13.0344812"><ele>362.0</ele><time>2026-04-25T11:07:24.289Z</time></trkpt><trkpt lat="41.675991" lon="13.0343133"><ele>362.0</ele><time>2026-04-25T11:07:25.281Z</time></trkpt><trkpt lat="41.6760825" lon="13.0341464"><ele>362.0</ele><time>2026-04-25T11:07:26.282Z</time></trkpt><trkpt lat="41.676157" lon="13.0340124"><ele>362.0</ele><time>2026-04-25T11:07:27.282Z</time></trkpt><trkpt lat="41.6762498" lon="13.033887"><ele>362.0</ele><time>2026-04-25T11:07:28.281Z</time></trkpt><trkpt lat="41.6763722" lon="13.0337708"><ele>362.0</ele><time>2026-04-25T11:07:29.289Z</time></trkpt><trkpt lat="41.6764978" lon="13.0336632"><ele>362.0</ele><time>2026-04-25T11:07:30.282Z</time></trkpt><trkpt lat="41.6766174" lon="13.0335558"><ele>362.0</ele><time>2026-04-25T11:07:31.289Z</time></trkpt><trkpt lat="41.6767227" lon="13.0334612"><ele>362.0</ele><time>2026-04-25T11:07:32.282Z</time></trkpt><trkpt lat="41.6768217" lon="13.033393"><ele>362.0</ele><time>2026-04-25T11:07:33.289Z</time></trkpt><trkpt lat="41.6769155" lon="13.0333594"><ele>362.0</ele><time>2026-04-25T11:07:34.28Z</time></trkpt><trkpt lat="41.6770049" lon="13.0333655"><ele>362.0</ele><time>2026-04-25T11:07:35.278Z</time></trkpt><trkpt lat="41.6770775" lon="13.0334145"><ele>362.0</ele><time>2026-04-25T11:07:36.282Z</time></trkpt><trkpt lat="41.6771346" lon="13.0334895"><ele>362.0</ele><time>2026-04-25T11:07:37.282Z</time></trkpt><trkpt lat="41.6771656" lon="13.033609"><ele>362.0</ele><time>2026-04-25T11:07:38.281Z</time></trkpt><trkpt lat="41.6771767" lon="13.0337334"><ele>361.0</ele><time>2026-04-25T11:07:39.278Z</time></trkpt><trkpt lat="41.6771597" lon="13.0338837"><ele>360.0</ele><time>2026-04-25T11:07:40.279Z</time></trkpt><trkpt lat="41.6771154" lon="13.0340321"><ele>359.0</ele><time>2026-04-25T11:07:41.279Z</time></trkpt><trkpt lat="41.677048" lon="13.0341656"><ele>358.0</ele><time>2026-04-25T11:07:42.279Z</time></trkpt><trkpt lat="41.6769871" lon="13.0343064"><ele>360.25</ele><time>2026-04-25T11:07:43.29Z</time></trkpt><trkpt lat="41.6769431" lon="13.0344646"><ele>362.5</ele><time>2026-04-25T11:07:44.28Z</time></trkpt><trkpt lat="41.6769129" lon="13.0346383"><ele>364.75</ele><time>2026-04-25T11:07:45.278Z</time></trkpt><trkpt lat="41.6769011" lon="13.0348345"><ele>367.0</ele><time>2026-04-25T11:07:46.29Z</time></trkpt><trkpt lat="41.6768948" lon="13.0350455"><ele>360.3333333333333</ele><time>2026-04-25T11:07:47.275Z</time></trkpt><trkpt lat="41.6768992" lon="13.0352779"><ele>353.6666666666667</ele><time>2026-04-25T11:07:48.29Z</time></trkpt><trkpt lat="41.6769061" lon="13.0355234"><ele>347.0</ele><time>2026-04-25T11:07:49.287Z</time></trkpt><trkpt lat="41.6769084" lon="13.035754"><ele>347.25</ele><time>2026-04-25T11:07:50.278Z</time></trkpt><trkpt lat="41.6769161" lon="13.0359696"><ele>347.5</ele><time>2026-04-25T11:07:51.28Z</time></trkpt><trkpt lat="41.6769299" lon="13.0361504"><ele>347.75</ele><time>2026-04-25T11:07:52.282Z</time></trkpt><trkpt lat="41.6769628" lon="13.0363372"><ele>348.0</ele><time>2026-04-25T11:07:53.289Z</time></trkpt><trkpt lat="41.6770155" lon="13.0365335"><ele>356.75</ele><time>2026-04-25T11:07:54.28Z</time></trkpt><trkpt lat="41.6770675" lon="13.0367161"><ele>365.5</ele><time>2026-04-25T11:07:55.281Z</time></trkpt><trkpt lat="41.6771021" lon="13.0368916"><ele>374.25</ele><time>2026-04-25T11:07:56.289Z</time></trkpt><trkpt lat="41.6771279" lon="13.0370697"><ele>383.0</ele><time>2026-04-25T11:07:57.29Z</time></trkpt><trkpt lat="41.6771402" lon="13.037233"><ele>383.0</ele><time>2026-04-25T11:07:58.279Z</time></trkpt><trkpt lat="41.67713" lon="13.0373956"><ele>383.0</ele><time>2026-04-25T11:07:59.279Z</time></trkpt><trkpt lat="41.6770965" lon="13.0375416"><ele>383.0</ele><time>2026-04-25T11:08:00.29Z</time></trkpt><trkpt lat="41.6770415" lon="13.03768"><ele>383.0</ele><time>2026-04-25T11:08:01.28Z</time></trkpt><trkpt lat="41.6769661" lon="13.0378126"><ele>376.0</ele><time>2026-04-25T11:08:02.29Z</time></trkpt><trkpt lat="41.6768706" lon="13.0379383"><ele>369.0</ele><time>2026-04-25T11:08:03.279Z</time></trkpt><trkpt lat="41.6767555" lon="13.038046"><ele>362.0</ele><time>2026-04-25T11:08:04.279Z</time></trkpt><trkpt lat="41.6766504" lon="13.0381586"><ele>355.0</ele><time>2026-04-25T11:08:05.281Z</time></trkpt><trkpt lat="41.676543" lon="13.0382803"><ele>363.0</ele><time>2026-04-25T11:08:06.279Z</time></trkpt><trkpt lat="41.676444" lon="13.0384194"><ele>371.0</ele><time>2026-04-25T11:08:07.28Z</time></trkpt><trkpt lat="41.6763523" lon="13.038581"><ele>379.0</ele><time>2026-04-25T11:08:08.291Z</time></trkpt><trkpt lat="41.6762702" lon="13.0387656"><ele>379.0</ele><time>2026-04-25T11:08:09.289Z</time></trkpt><trkpt lat="41.676191" lon="13.0389651"><ele>379.0</ele><time>2026-04-25T11:08:10.29Z</time></trkpt><trkpt lat="41.6761187" lon="13.0391646"><ele>379.0</ele><time>2026-04-25T11:08:11.282Z</time></trkpt><trkpt lat="41.6760504" lon="13.0393553"><ele>375.3333333333333</ele><time>2026-04-25T11:08:12.28Z</time></trkpt><trkpt lat="41.6759974" lon="13.0395492"><ele>371.6666666666667</ele><time>2026-04-25T11:08:13.276Z</time></trkpt><trkpt lat="41.6759656" lon="13.0397603"><ele>368.0</ele><time>2026-04-25T11:08:14.279Z</time></trkpt><trkpt lat="41.6759412" lon="13.0399489"><ele>370.59999999999997</ele><time>2026-04-25T11:08:15.277Z</time></trkpt><trkpt lat="41.6759194" lon="13.0401128"><ele>373.2</ele><time>2026-04-25T11:08:16.279Z</time></trkpt><trkpt lat="41.6759106" lon="13.0402578"><ele>375.8</ele><time>2026-04-25T11:08:17.275Z</time></trkpt><trkpt lat="41.6759227" lon="13.0403879"><ele>378.4</ele><time>2026-04-25T11:08:18.283Z</time></trkpt><trkpt lat="41.6759559" lon="13.0404972"><ele>381.0</ele><time>2026-04-25T11:08:19.28Z</time></trkpt><trkpt lat="41.6760091" lon="13.0405815"><ele>381.0</ele><time>2026-04-25T11:08:20.282Z</time></trkpt><trkpt lat="41.6760855" lon="13.0406286"><ele>381.0</ele><time>2026-04-25T11:08:21.28Z</time></trkpt><trkpt lat="41.6761816" lon="13.0406375"><ele>381.0</ele><time>2026-04-25T11:08:22.276Z</time></trkpt><trkpt lat="41.676295" lon="13.0406214"><ele>381.0</ele><time>2026-04-25T11:08:23.279Z</time></trkpt><trkpt lat="41.6764327" lon="13.0406081"><ele>381.0</ele><time>2026-04-25T11:08:24.28Z</time></trkpt><trkpt lat="41.6765963" lon="13.0405902"><ele>390.0</ele><time>2026-04-25T11:08:25.28Z</time></trkpt><trkpt lat="41.6767754" lon="13.0405623"><ele>399.0</ele><time>2026-04-25T11:08:26.28Z</time></trkpt><trkpt lat="41.6769403" lon="13.0405429"><ele>408.0</ele><time>2026-04-25T11:08:27.28Z</time></trkpt><trkpt lat="41.677088" lon="13.0405236"><ele>411.25</ele><time>2026-04-25T11:08:28.282Z</time></trkpt><trkpt lat="41.6772189" lon="13.0405062"><ele>414.5</ele><time>2026-04-25T11:08:29.29Z</time></trkpt><trkpt lat="41.6773335" lon="13.0405042"><ele>417.75</ele><time>2026-04-25T11:08:30.28Z</time></trkpt><trkpt lat="41.6774491" lon="13.0404897"><ele>421.0</ele><time>2026-04-25T11:08:31.278Z</time></trkpt><trkpt lat="41.6775681" lon="13.0404723"><ele>421.0</ele><time>2026-04-25T11:08:32.283Z</time></trkpt><trkpt lat="41.6776927" lon="13.0404678"><ele>421.0</ele><time>2026-04-25T11:08:33.28Z</time></trkpt><trkpt lat="41.677828" lon="13.0404678"><ele>421.0</ele><time>2026-04-25T11:08:34.283Z</time></trkpt><trkpt lat="41.6779724" lon="13.0404909"><ele>421.0</ele><time>2026-04-25T11:08:35.28Z</time></trkpt><trkpt lat="41.678123" lon="13.0405393"><ele>426.33333333333337</ele><time>2026-04-25T11:08:36.289Z</time></trkpt><trkpt lat="41.6782822" lon="13.0405925"><ele>431.66666666666663</ele><time>2026-04-25T11:08:37.277Z</time></trkpt><trkpt lat="41.6784583" lon="13.0406522"><ele>437.0</ele><time>2026-04-25T11:08:38.281Z</time></trkpt><trkpt lat="41.6786392" lon="13.0407209"><ele>432.66666666666663</ele><time>2026-04-25T11:08:39.293Z</time></trkpt><trkpt lat="41.678812" lon="13.0407802"><ele>428.33333333333337</ele><time>2026-04-25T11:08:40.281Z</time></trkpt><trkpt lat="41.6789818" lon="13.0408453"><ele>424.0</ele><time>2026-04-25T11:08:41.282Z</time></trkpt><trkpt lat="41.6791115" lon="13.0408957"><ele>424.0</ele><time>2026-04-25T11:08:42.291Z</time></trkpt><trkpt lat="41.6792395" lon="13.0409591"><ele>424.0</ele><time>2026-04-25T11:08:43.279Z</time></trkpt><trkpt lat="41.6793634" lon="13.041045"><ele>424.0</ele><time>2026-04-25T11:08:44.291Z</time></trkpt><trkpt lat="41.6794861" lon="13.041165"><ele>424.0</ele><time>2026-04-25T11:08:45.28Z</time></trkpt><trkpt lat="41.6796149" lon="13.041291"><ele>423.33333333333337</ele><time>2026-04-25T11:08:46.279Z</time></trkpt><trkpt lat="41.679748" lon="13.0414076"><ele>422.66666666666663</ele><time>2026-04-25T11:08:47.281Z</time></trkpt><trkpt lat="41.6798948" lon="13.0415296"><ele>422.0</ele><time>2026-04-25T11:08:48.28Z</time></trkpt><trkpt lat="41.6800456" lon="13.0416473"><ele>422.0</ele><time>2026-04-25T11:08:49.286Z</time></trkpt><trkpt lat="41.6801747" lon="13.0417483"><ele>422.0</ele><time>2026-04-25T11:08:50.281Z</time></trkpt><trkpt lat="41.6802919" lon="13.0418279"><ele>422.0</ele><time>2026-04-25T11:08:51.29Z</time></trkpt><trkpt lat="41.6803946" lon="13.0419126"><ele>422.0</ele><time>2026-04-25T11:08:52.291Z</time></trkpt><trkpt lat="41.6805059" lon="13.0419811"><ele>430.0</ele><time>2026-04-25T11:08:53.291Z</time></trkpt><trkpt lat="41.6806332" lon="13.0420349"><ele>438.0</ele><time>2026-04-25T11:08:54.283Z</time></trkpt><trkpt lat="41.6807577" lon="13.0420701"><ele>446.0</ele><time>2026-04-25T11:08:55.288Z</time></trkpt><trkpt lat="41.6808796" lon="13.0421224"><ele>454.0</ele><time>2026-04-25T11:08:56.288Z</time></trkpt><trkpt lat="41.6809934" lon="13.0421844"><ele>454.0</ele><time>2026-04-25T11:08:57.289Z</time></trkpt><trkpt lat="41.6810901" lon="13.0422572"><ele>454.0</ele><time>2026-04-25T11:08:58.273Z</time></trkpt><trkpt lat="41.6811761" lon="13.0423431"><ele>454.0</ele><time>2026-04-25T11:08:59.278Z</time></trkpt><trkpt lat="41.6812614" lon="13.0424101"><ele>454.0</ele><time>2026-04-25T11:09:00.276Z</time></trkpt><trkpt lat="41.6813447" lon="13.0424396"><ele>454.0</ele><time>2026-04-25T11:09:01.29Z</time></trkpt><trkpt lat="41.6814178" lon="13.042461"><ele>450.0</ele><time>2026-04-25T11:09:02.278Z</time></trkpt><trkpt lat="41.6814949" lon="13.0424999"><ele>446.0</ele><time>2026-04-25T11:09:03.283Z</time></trkpt><trkpt lat="41.6815863" lon="13.0425618"><ele>442.0</ele><time>2026-04-25T11:09:04.283Z</time></trkpt><trkpt lat="41.681704" lon="13.0426457"><ele>438.0</ele><time>2026-04-25T11:09:05.28Z</time></trkpt><trkpt lat="41.6818594" lon="13.0427514"><ele>448.33333333333337</ele><time>2026-04-25T11:09:06.279Z</time></trkpt><trkpt lat="41.6820007" lon="13.0428552"><ele>458.6666666666667</ele><time>2026-04-25T11:09:07.282Z</time></trkpt><trkpt lat="41.6821396" lon="13.0429521"><ele>469.0</ele><time>2026-04-25T11:09:08.29Z</time></trkpt><trkpt lat="41.6822726" lon="13.0430426"><ele>469.0</ele><time>2026-04-25T11:09:09.28Z</time></trkpt><trkpt lat="41.6823862" lon="13.0431457"><ele>469.0</ele><time>2026-04-25T11:09:10.282Z</time></trkpt><trkpt lat="41.6824941" lon="13.0432758"><ele>469.0</ele><time>2026-04-25T11:09:11.279Z</time></trkpt><trkpt lat="41.6825811" lon="13.0434202"><ele>469.0</ele><time>2026-04-25T11:09:12.29Z</time></trkpt><trkpt lat="41.682648" lon="13.0435809"><ele>462.5</ele><time>2026-04-25T11:09:13.29Z</time></trkpt><trkpt lat="41.6826984" lon="13.043774"><ele>456.0</ele><time>2026-04-25T11:09:14.288Z</time></trkpt><trkpt lat="41.6827352" lon="13.0439624"><ele>449.5</ele><time>2026-04-25T11:09:15.291Z</time></trkpt><trkpt lat="41.6827636" lon="13.044148"><ele>443.0</ele><time>2026-04-25T11:09:16.281Z</time></trkpt><trkpt lat="41.682796" lon="13.0443426"><ele>443.0</ele><time>2026-04-25T11:09:17.286Z</time></trkpt><trkpt lat="41.6828286" lon="13.0445378"><ele>443.0</ele><time>2026-04-25T11:09:18.282Z</time></trkpt><trkpt lat="41.6828613" lon="13.0447285"><ele>443.0</ele><time>2026-04-25T11:09:19.281Z</time></trkpt><trkpt lat="41.6829037" lon="13.0449011"><ele>443.0</ele><time>2026-04-25T11:09:20.279Z</time></trkpt><trkpt lat="41.6829528" lon="13.0450623"><ele>438.0</ele><time>2026-04-25T11:09:21.28Z</time></trkpt><trkpt lat="41.6830167" lon="13.0452052"><ele>433.0</ele><time>2026-04-25T11:09:22.277Z</time></trkpt><trkpt lat="41.6830831" lon="13.045311"><ele>428.0</ele><time>2026-04-25T11:09:23.28Z</time></trkpt><trkpt lat="41.683175" lon="13.0453929"><ele>423.0</ele><time>2026-04-25T11:09:24.28Z</time></trkpt><trkpt lat="41.6832909" lon="13.045435"><ele>423.0</ele><time>2026-04-25T11:09:25.289Z</time></trkpt><trkpt lat="41.6834233" lon="13.0454431"><ele>423.0</ele><time>2026-04-25T11:09:26.279Z</time></trkpt><trkpt lat="41.6835481" lon="13.0454179"><ele>423.0</ele><time>2026-04-25T11:09:27.28Z</time></trkpt><trkpt lat="41.6836674" lon="13.0453637"><ele>423.0</ele><time>2026-04-25T11:09:28.281Z</time></trkpt><trkpt lat="41.6837807" lon="13.0452677"><ele>425.25</ele><time>2026-04-25T11:09:29.278Z</time></trkpt><trkpt lat="41.6838947" lon="13.0451601"><ele>427.5</ele><time>2026-04-25T11:09:30.281Z</time></trkpt><trkpt lat="41.684004" lon="13.0450432"><ele>429.75</ele><time>2026-04-25T11:09:31.278Z</time></trkpt><trkpt lat="41.6841148" lon="13.0449176"><ele>432.0</ele><time>2026-04-25T11:09:32.283Z</time></trkpt><trkpt lat="41.6842213" lon="13.0447638"><ele>432.0</ele><time>2026-04-25T11:09:33.279Z</time></trkpt><trkpt lat="41.6843202" lon="13.0445898"><ele>432.0</ele><time>2026-04-25T11:09:34.279Z</time></trkpt><trkpt lat="41.6844125" lon="13.0444026"><ele>432.0</ele><time>2026-04-25T11:09:35.29Z</time></trkpt><trkpt lat="41.6845055" lon="13.0442179"><ele>427.0</ele><time>2026-04-25T11:09:36.277Z</time></trkpt><trkpt lat="41.6846001" lon="13.0440452"><ele>422.0</ele><time>2026-04-25T11:09:37.289Z</time></trkpt><trkpt lat="41.684683" lon="13.0438894"><ele>417.0</ele><time>2026-04-25T11:09:38.28Z</time></trkpt><trkpt lat="41.6847653" lon="13.0437361"><ele>412.0</ele><time>2026-04-25T11:09:39.288Z</time></trkpt><trkpt lat="41.6848557" lon="13.0435872"><ele>412.0</ele><time>2026-04-25T11:09:40.29Z</time></trkpt><trkpt lat="41.6849659" lon="13.0434329"><ele>412.0</ele><time>2026-04-25T11:09:41.284Z</time></trkpt><trkpt lat="41.6850836" lon="13.0432855"><ele>412.0</ele><time>2026-04-25T11:09:42.28Z</time></trkpt><trkpt lat="41.6852039" lon="13.0431326"><ele>412.0</ele><time>2026-04-25T11:09:43.281Z</time></trkpt><trkpt lat="41.6853168" lon="13.0430003"><ele>412.0</ele><time>2026-04-25T11:09:44.287Z</time></trkpt><trkpt lat="41.6854227" lon="13.042895"><ele>412.0</ele><time>2026-04-25T11:09:45.281Z</time></trkpt><trkpt lat="41.685539" lon="13.0428048"><ele>412.0</ele><time>2026-04-25T11:09:46.279Z</time></trkpt><trkpt lat="41.6856722" lon="13.0427312"><ele>412.0</ele><time>2026-04-25T11:09:47.28Z</time></trkpt><trkpt lat="41.6858323" lon="13.0426635"><ele>412.0</ele><time>2026-04-25T11:09:48.279Z</time></trkpt><trkpt lat="41.6859893" lon="13.0425959"><ele>412.0</ele><time>2026-04-25T11:09:49.288Z</time></trkpt><trkpt lat="41.6861396" lon="13.0425447"><ele>404.33333333333337</ele><time>2026-04-25T11:09:50.278Z</time></trkpt><trkpt lat="41.6862981" lon="13.0425086"><ele>396.66666666666663</ele><time>2026-04-25T11:09:51.288Z</time></trkpt><trkpt lat="41.6864617" lon="13.0424691"><ele>389.0</ele><time>2026-04-25T11:09:52.289Z</time></trkpt><trkpt lat="41.6866081" lon="13.0424367"><ele>388.75</ele><time>2026-04-25T11:09:53.289Z</time></trkpt><trkpt lat="41.6867485" lon="13.0424232"><ele>388.5</ele><time>2026-04-25T11:09:54.28Z</time></trkpt><trkpt lat="41.6868924" lon="13.0424354"><ele>388.25</ele><time>2026-04-25T11:09:55.29Z</time></trkpt><trkpt lat="41.6870324" lon="13.0424704"><ele>388.0</ele><time>2026-04-25T11:09:56.28Z</time></trkpt><trkpt lat="41.6871776" lon="13.0425075"><ele>388.0</ele><time>2026-04-25T11:09:57.28Z</time></trkpt><trkpt lat="41.687325" lon="13.0425564"><ele>388.0</ele><time>2026-04-25T11:09:58.281Z</time></trkpt><trkpt lat="41.6874732" lon="13.0425979"><ele>388.0</ele><time>2026-04-25T11:09:59.279Z</time></trkpt><trkpt lat="41.6876335" lon="13.0426295"><ele>382.6666666666667</ele><time>2026-04-25T11:10:00.288Z</time></trkpt><trkpt lat="41.6878015" lon="13.0426467"><ele>377.33333333333337</ele><time>2026-04-25T11:10:01.281Z</time></trkpt><trkpt lat="41.6879576" lon="13.042651"><ele>372.0</ele><time>2026-04-25T11:10:02.287Z</time></trkpt><trkpt lat="41.688108" lon="13.0426471"><ele>372.0</ele><time>2026-04-25T11:10:03.28Z</time></trkpt><trkpt lat="41.6882462" lon="13.0426201"><ele>372.0</ele><time>2026-04-25T11:10:04.281Z</time></trkpt><trkpt lat="41.6883815" lon="13.0425694"><ele>372.0</ele><time>2026-04-25T11:10:05.28Z</time></trkpt><trkpt lat="41.6885178" lon="13.0424824"><ele>372.0</ele><time>2026-04-25T11:10:06.279Z</time></trkpt><trkpt lat="41.688644" lon="13.0423847"><ele>380.33333333333337</ele><time>2026-04-25T11:10:07.387Z</time></trkpt><trkpt lat="41.6888806" lon="13.0422213"><ele>388.6666666666667</ele><time>2026-04-25T11:10:09.282Z</time></trkpt><trkpt lat="41.6890027" lon="13.0421703"><ele>397.0</ele><time>2026-04-25T11:10:10.28Z</time></trkpt><trkpt lat="41.6891313" lon="13.0421648"><ele>397.0</ele><time>2026-04-25T11:10:11.281Z</time></trkpt><trkpt lat="41.689251" lon="13.0421923"><ele>397.0</ele><time>2026-04-25T11:10:12.288Z</time></trkpt><trkpt lat="41.6893706" lon="13.0422132"><ele>397.0</ele><time>2026-04-25T11:10:13.287Z</time></trkpt><trkpt lat="41.6894931" lon="13.0422165"><ele>397.0</ele><time>2026-04-25T11:10:14.278Z</time></trkpt><trkpt lat="41.6896256" lon="13.0421932"><ele>391.0</ele><time>2026-04-25T11:10:15.288Z</time></trkpt><trkpt lat="41.6897523" lon="13.0421403"><ele>385.0</ele><time>2026-04-25T11:10:16.278Z</time></trkpt><trkpt lat="41.6898871" lon="13.0420743"><ele>379.0</ele><time>2026-04-25T11:10:17.29Z</time></trkpt><trkpt lat="41.6900319" lon="13.0420025"><ele>373.0</ele><time>2026-04-25T11:10:18.278Z</time></trkpt><trkpt lat="41.6901804" lon="13.0419344"><ele>366.3333333333333</ele><time>2026-04-25T11:10:19.281Z</time></trkpt><trkpt lat="41.6903388" lon="13.0418757"><ele>359.6666666666667</ele><time>2026-04-25T11:10:20.279Z</time></trkpt><trkpt lat="41.6904979" lon="13.0418285"><ele>353.0</ele><time>2026-04-25T11:10:21.277Z</time></trkpt><trkpt lat="41.6906543" lon="13.0417912"><ele>353.0</ele><time>2026-04-25T11:10:22.28Z</time></trkpt><trkpt lat="41.6908048" lon="13.0417444"><ele>353.0</ele><time>2026-04-25T11:10:23.276Z</time></trkpt><trkpt lat="41.6909436" lon="13.0416794"><ele>353.0</ele><time>2026-04-25T11:10:24.282Z</time></trkpt><trkpt lat="41.6910834" lon="13.0415821"><ele>351.6666666666667</ele><time>2026-04-25T11:10:25.277Z</time></trkpt><trkpt lat="41.6912216" lon="13.0414566"><ele>350.3333333333333</ele><time>2026-04-25T11:10:26.283Z</time></trkpt><trkpt lat="41.6913629" lon="13.0413066"><ele>349.0</ele><time>2026-04-25T11:10:27.284Z</time></trkpt><trkpt lat="41.6915081" lon="13.0411632"><ele>349.0</ele><time>2026-04-25T11:10:28.282Z</time></trkpt><trkpt lat="41.6916473" lon="13.0410142"><ele>349.0</ele><time>2026-04-25T11:10:29.281Z</time></trkpt><trkpt lat="41.6917859" lon="13.0408683"><ele>349.0</ele><time>2026-04-25T11:10:30.282Z</time></trkpt><trkpt lat="41.691916" lon="13.0407349"><ele>347.5</ele><time>2026-04-25T11:10:31.281Z</time></trkpt><trkpt lat="41.6920373" lon="13.0406061"><ele>346.0</ele><time>2026-04-25T11:10:32.28Z</time></trkpt><trkpt lat="41.692151" lon="13.0404807"><ele>344.5</ele><time>2026-04-25T11:10:33.283Z</time></trkpt><trkpt lat="41.6922603" lon="13.0403621"><ele>343.0</ele><time>2026-04-25T11:10:34.282Z</time></trkpt><trkpt lat="41.6923588" lon="13.0402465"><ele>343.0</ele><time>2026-04-25T11:10:35.28Z</time></trkpt><trkpt lat="41.6924543" lon="13.0401339"><ele>343.0</ele><time>2026-04-25T11:10:36.279Z</time></trkpt><trkpt lat="41.6925453" lon="13.0400326"><ele>343.0</ele><time>2026-04-25T11:10:37.285Z</time></trkpt><trkpt lat="41.6926279" lon="13.0399458"><ele>343.0</ele><time>2026-04-25T11:10:38.279Z</time></trkpt><trkpt lat="41.6926994" lon="13.0398941"><ele>343.0</ele><time>2026-04-25T11:10:39.287Z</time></trkpt><trkpt lat="41.692767" lon="13.0398812"><ele>343.0</ele><time>2026-04-25T11:10:40.279Z</time></trkpt><trkpt lat="41.6928314" lon="13.0398753"><ele>343.0</ele><time>2026-04-25T11:10:41.289Z</time></trkpt><trkpt lat="41.6928524" lon="13.0399859"><ele>343.0</ele><time>2026-04-25T11:10:42.278Z</time></trkpt><trkpt lat="41.6927941" lon="13.0401656"><ele>343.0</ele><time>2026-04-25T11:10:44.279Z</time></trkpt><trkpt lat="41.6926982" lon="13.0402502"><ele>343.0</ele><time>2026-04-25T11:10:45.286Z</time></trkpt><trkpt lat="41.6925913" lon="13.0403224"><ele>343.0</ele><time>2026-04-25T11:10:46.279Z</time></trkpt><trkpt lat="41.692497" lon="13.0404096"><ele>343.0</ele><time>2026-04-25T11:10:47.283Z</time></trkpt><trkpt lat="41.6923953" lon="13.0405165"><ele>343.0</ele><time>2026-04-25T11:10:48.276Z</time></trkpt><trkpt lat="41.6923143" lon="13.0406691"><ele>343.0</ele><time>2026-04-25T11:10:49.28Z</time></trkpt><trkpt lat="41.6922373" lon="13.0408457"><ele>335.0</ele><time>2026-04-25T11:10:50.279Z</time></trkpt><trkpt lat="41.692158" lon="13.0410321"><ele>327.0</ele><time>2026-04-25T11:10:51.279Z</time></trkpt><trkpt lat="41.692073" lon="13.0412257"><ele>319.0</ele><time>2026-04-25T11:10:52.279Z</time></trkpt><trkpt lat="41.6919632" lon="13.0414229"><ele>321.0</ele><time>2026-04-25T11:10:53.281Z</time></trkpt><trkpt lat="41.6918433" lon="13.0416128"><ele>323.0</ele><time>2026-04-25T11:10:54.281Z</time></trkpt><trkpt lat="41.6917226" lon="13.0417861"><ele>325.0</ele><time>2026-04-25T11:10:55.288Z</time></trkpt><trkpt lat="41.6916156" lon="13.0419614"><ele>325.0</ele><time>2026-04-25T11:10:56.289Z</time></trkpt><trkpt lat="41.6915289" lon="13.0421481"><ele>325.0</ele><time>2026-04-25T11:10:57.285Z</time></trkpt><trkpt lat="41.6914582" lon="13.042328"><ele>325.0</ele><time>2026-04-25T11:10:58.282Z</time></trkpt><trkpt lat="41.6913857" lon="13.0424952"><ele>325.3333333333333</ele><time>2026-04-25T11:10:59.28Z</time></trkpt><trkpt lat="41.6912906" lon="13.0426596"><ele>325.6666666666667</ele><time>2026-04-25T11:11:00.29Z</time></trkpt><trkpt lat="41.6911705" lon="13.0428189"><ele>326.0</ele><time>2026-04-25T11:11:01.282Z</time></trkpt><trkpt lat="41.6910307" lon="13.042989"><ele>326.0</ele><time>2026-04-25T11:11:02.282Z</time></trkpt><trkpt lat="41.690858" lon="13.0431735"><ele>326.0</ele><time>2026-04-25T11:11:03.281Z</time></trkpt><trkpt lat="41.6906826" lon="13.0433657"><ele>326.0</ele><time>2026-04-25T11:11:04.289Z</time></trkpt><trkpt lat="41.6905212" lon="13.0435404"><ele>322.6666666666667</ele><time>2026-04-25T11:11:05.281Z</time></trkpt><trkpt lat="41.6903594" lon="13.0437062"><ele>319.3333333333333</ele><time>2026-04-25T11:11:06.293Z</time></trkpt><trkpt lat="41.6902079" lon="13.0438634"><ele>316.0</ele><time>2026-04-25T11:11:07.29Z</time></trkpt><trkpt lat="41.6900429" lon="13.0439991"><ele>316.0</ele><time>2026-04-25T11:11:08.282Z</time></trkpt><trkpt lat="41.6898779" lon="13.044111"><ele>316.0</ele><time>2026-04-25T11:11:09.288Z</time></trkpt><trkpt lat="41.6897219" lon="13.0442069"><ele>316.0</ele><time>2026-04-25T11:11:10.284Z</time></trkpt><trkpt lat="41.6895761" lon="13.0443154"><ele>310.0</ele><time>2026-04-25T11:11:11.28Z</time></trkpt><trkpt lat="41.6894413" lon="13.044442"><ele>304.0</ele><time>2026-04-25T11:11:12.279Z</time></trkpt><trkpt lat="41.6893111" lon="13.0446008"><ele>298.0</ele><time>2026-04-25T11:11:13.28Z</time></trkpt><trkpt lat="41.6891871" lon="13.0447949"><ele>293.3333333333333</ele><time>2026-04-25T11:11:14.28Z</time></trkpt><trkpt lat="41.6890572" lon="13.0449906"><ele>288.6666666666667</ele><time>2026-04-25T11:11:15.279Z</time></trkpt><trkpt lat="41.688904" lon="13.0451884"><ele>284.0</ele><time>2026-04-25T11:11:16.282Z</time></trkpt><trkpt lat="41.6887233" lon="13.0453893"><ele>284.0</ele><time>2026-04-25T11:11:17.281Z</time></trkpt><trkpt lat="41.6885542" lon="13.0455548"><ele>284.0</ele><time>2026-04-25T11:11:18.294Z</time></trkpt><trkpt lat="41.6884116" lon="13.0456895"><ele>284.0</ele><time>2026-04-25T11:11:19.281Z</time></trkpt><trkpt lat="41.688302" lon="13.0457952"><ele>284.0</ele><time>2026-04-25T11:11:20.29Z</time></trkpt><trkpt lat="41.6882204" lon="13.04588"><ele>284.0</ele><time>2026-04-25T11:11:21.285Z</time></trkpt><trkpt lat="41.6881663" lon="13.0459708"><ele>284.0</ele><time>2026-04-25T11:11:22.289Z</time></trkpt><trkpt lat="41.6881496" lon="13.0460738"><ele>284.0</ele><time>2026-04-25T11:11:23.288Z</time></trkpt><trkpt lat="41.6881719" lon="13.046167"><ele>284.0</ele><time>2026-04-25T11:11:24.282Z</time></trkpt><trkpt lat="41.6882268" lon="13.0462345"><ele>284.0</ele><time>2026-04-25T11:11:25.285Z</time></trkpt><trkpt lat="41.688299" lon="13.0462542"><ele>284.0</ele><time>2026-04-25T11:11:26.278Z</time></trkpt><trkpt lat="41.6883828" lon="13.046219"><ele>284.0</ele><time>2026-04-25T11:11:27.28Z</time></trkpt><trkpt lat="41.6884604" lon="13.0461376"><ele>284.0</ele><time>2026-04-25T11:11:28.281Z</time></trkpt><trkpt lat="41.688553" lon="13.046059"><ele>284.0</ele><time>2026-04-25T11:11:29.28Z</time></trkpt><trkpt lat="41.6886676" lon="13.0459844"><ele>284.0</ele><time>2026-04-25T11:11:30.287Z</time></trkpt><trkpt lat="41.6888013" lon="13.0459294"><ele>281.5</ele><time>2026-04-25T11:11:31.28Z</time></trkpt><trkpt lat="41.6889289" lon="13.0458836"><ele>279.0</ele><time>2026-04-25T11:11:32.289Z</time></trkpt><trkpt lat="41.6890595" lon="13.045852"><ele>276.5</ele><time>2026-04-25T11:11:33.291Z</time></trkpt><trkpt lat="41.6891948" lon="13.0458558"><ele>274.0</ele><time>2026-04-25T11:11:34.283Z</time></trkpt><trkpt lat="41.6893384" lon="13.0458955"><ele>272.3333333333333</ele><time>2026-04-25T11:11:35.283Z</time></trkpt><trkpt lat="41.6894895" lon="13.0459489"><ele>270.6666666666667</ele><time>2026-04-25T11:11:36.28Z</time></trkpt><trkpt lat="41.6896342" lon="13.0460057"><ele>269.0</ele><time>2026-04-25T11:11:37.279Z</time></trkpt><trkpt lat="41.6897731" lon="13.0460792"><ele>269.0</ele><time>2026-04-25T11:11:38.288Z</time></trkpt><trkpt lat="41.6898941" lon="13.0461791"><ele>269.0</ele><time>2026-04-25T11:11:39.279Z</time></trkpt><trkpt lat="41.6900077" lon="13.0462998"><ele>269.0</ele><time>2026-04-25T11:11:40.29Z</time></trkpt><trkpt lat="41.6901295" lon="13.0464457"><ele>269.0</ele><time>2026-04-25T11:11:41.291Z</time></trkpt><trkpt lat="41.6902533" lon="13.0465853"><ele>269.0</ele><time>2026-04-25T11:11:42.282Z</time></trkpt><trkpt lat="41.6903777" lon="13.0467322"><ele>269.0</ele><time>2026-04-25T11:11:43.281Z</time></trkpt><trkpt lat="41.6905002" lon="13.0468875"><ele>265.33333333333337</ele><time>2026-04-25T11:11:44.281Z</time></trkpt><trkpt lat="41.6906206" lon="13.0470607"><ele>261.6666666666667</ele><time>2026-04-25T11:11:45.292Z</time></trkpt><trkpt lat="41.6907356" lon="13.0472688"><ele>258.0</ele><time>2026-04-25T11:11:46.282Z</time></trkpt><trkpt lat="41.6908482" lon="13.0475037"><ele>255.66666666666669</ele><time>2026-04-25T11:11:47.288Z</time></trkpt><trkpt lat="41.6909511" lon="13.0477224"><ele>253.33333333333334</ele><time>2026-04-25T11:11:48.283Z</time></trkpt><trkpt lat="41.6910486" lon="13.0479412"><ele>251.0</ele><time>2026-04-25T11:11:49.29Z</time></trkpt><trkpt lat="41.691143" lon="13.0481512"><ele>248.5</ele><time>2026-04-25T11:11:50.282Z</time></trkpt><trkpt lat="41.6912306" lon="13.0483452"><ele>246.0</ele><time>2026-04-25T11:11:51.381Z</time></trkpt><trkpt lat="41.6913916" lon="13.0486931"><ele>246.0</ele><time>2026-04-25T11:11:53.279Z</time></trkpt><trkpt lat="41.6914641" lon="13.0488508"><ele>246.0</ele><time>2026-04-25T11:11:54.293Z</time></trkpt><trkpt lat="41.6915311" lon="13.0489992"><ele>246.0</ele><time>2026-04-25T11:11:55.283Z</time></trkpt><trkpt lat="41.6915939" lon="13.0491381"><ele>246.0</ele><time>2026-04-25T11:11:56.282Z</time></trkpt><trkpt lat="41.6916525" lon="13.0492726"><ele>245.5</ele><time>2026-04-25T11:11:57.288Z</time></trkpt><trkpt lat="41.691705" lon="13.0494034"><ele>245.0</ele><time>2026-04-25T11:11:58.28Z</time></trkpt><trkpt lat="41.6917464" lon="13.0495253"><ele>244.5</ele><time>2026-04-25T11:11:59.29Z</time></trkpt><trkpt lat="41.6917675" lon="13.0496332"><ele>244.0</ele><time>2026-04-25T11:12:00.28Z</time></trkpt><trkpt lat="41.6917801" lon="13.0497325"><ele>243.5</ele><time>2026-04-25T11:12:01.289Z</time></trkpt><trkpt lat="41.6918004" lon="13.0498234"><ele>243.0</ele><time>2026-04-25T11:12:02.287Z</time></trkpt><trkpt lat="41.6918589" lon="13.0499484"><ele>242.66666666666666</ele><time>2026-04-25T11:12:04.277Z</time></trkpt><trkpt lat="41.691927" lon="13.0500432"><ele>242.33333333333331</ele><time>2026-04-25T11:12:06.281Z</time></trkpt><trkpt lat="41.6919864" lon="13.0501371"><ele>242.0</ele><time>2026-04-25T11:12:08.28Z</time></trkpt><trkpt lat="41.6920202" lon="13.0502296"><ele>241.66666666666666</ele><time>2026-04-25T11:12:10.28Z</time></trkpt><trkpt lat="41.6920686" lon="13.0502878"><ele>241.33333333333331</ele><time>2026-04-25T11:12:55.279Z</time></trkpt><trkpt lat="41.6921086" lon="13.0502091"><ele>241.0</ele><time>2026-04-25T11:12:57.282Z</time></trkpt><trkpt lat="41.6920765" lon="13.0500636"><ele>241.0</ele><time>2026-04-25T11:12:59.282Z</time></trkpt><trkpt lat="41.6920668" lon="13.0499755"><ele>241.00000000000003</ele><time>2026-04-25T11:13:00.287Z</time></trkpt><trkpt lat="41.6920697" lon="13.0498757"><ele>241.00000000000003</ele><time>2026-04-25T11:13:01.29Z</time></trkpt><trkpt lat="41.6920975" lon="13.0497623"><ele>241.0</ele><time>2026-04-25T11:13:02.284Z</time></trkpt><trkpt lat="41.6921634" lon="13.0496323"><ele>241.0</ele><time>2026-04-25T11:13:03.286Z</time></trkpt><trkpt lat="41.6922689" lon="13.0494777"><ele>241.0</ele><time>2026-04-25T11:13:04.279Z</time></trkpt><trkpt lat="41.6924082" lon="13.0492937"><ele>241.0</ele><time>2026-04-25T11:13:05.281Z</time></trkpt><trkpt lat="41.6925621" lon="13.0490935"><ele>241.0</ele><time>2026-04-25T11:13:06.281Z</time></trkpt><trkpt lat="41.6927105" lon="13.0488891"><ele>242.66666666666666</ele><time>2026-04-25T11:13:07.28Z</time></trkpt><trkpt lat="41.6928476" lon="13.0487159"><ele>244.33333333333331</ele><time>2026-04-25T11:13:08.28Z</time></trkpt><trkpt lat="41.6929707" lon="13.0485623"><ele>246.0</ele><time>2026-04-25T11:13:09.278Z</time></trkpt><trkpt lat="41.69309" lon="13.0484021"><ele>246.66666666666669</ele><time>2026-04-25T11:13:10.284Z</time></trkpt><trkpt lat="41.6932106" lon="13.0482166"><ele>247.33333333333334</ele><time>2026-04-25T11:13:11.277Z</time></trkpt><trkpt lat="41.693334" lon="13.0479942"><ele>248.0</ele><time>2026-04-25T11:13:12.278Z</time></trkpt><trkpt lat="41.6934549" lon="13.0477441"><ele>248.0</ele><time>2026-04-25T11:13:13.28Z</time></trkpt><trkpt lat="41.6935697" lon="13.0474839"><ele>248.0</ele><time>2026-04-25T11:13:14.289Z</time></trkpt><trkpt lat="41.6936807" lon="13.0472234"><ele>249.5</ele><time>2026-04-25T11:13:15.288Z</time></trkpt><trkpt lat="41.6938051" lon="13.0469635"><ele>251.0</ele><time>2026-04-25T11:13:16.278Z</time></trkpt><trkpt lat="41.6939399" lon="13.0466972"><ele>252.0</ele><time>2026-04-25T11:13:17.287Z</time></trkpt><trkpt lat="41.6940893" lon="13.0464318"><ele>253.0</ele><time>2026-04-25T11:13:18.28Z</time></trkpt><trkpt lat="41.6942508" lon="13.0461719"><ele>253.5</ele><time>2026-04-25T11:13:19.279Z</time></trkpt><trkpt lat="41.6944254" lon="13.0458825"><ele>254.0</ele><time>2026-04-25T11:13:20.274Z</time></trkpt><trkpt lat="41.6946149" lon="13.0455551"><ele>255.0</ele><time>2026-04-25T11:13:21.44Z</time></trkpt><trkpt lat="41.6949501" lon="13.0449672"><ele>256.0</ele><time>2026-04-25T11:13:23.29Z</time></trkpt><trkpt lat="41.6951048" lon="13.0447088"><ele>257.0</ele><time>2026-04-25T11:13:24.277Z</time></trkpt><trkpt lat="41.6952565" lon="13.0444786"><ele>257.6666666666667</ele><time>2026-04-25T11:13:25.28Z</time></trkpt><trkpt lat="41.6953997" lon="13.0442867"><ele>258.3333333333333</ele><time>2026-04-25T11:13:26.276Z</time></trkpt><trkpt lat="41.6955458" lon="13.0441278"><ele>259.0</ele><time>2026-04-25T11:13:27.279Z</time></trkpt><trkpt lat="41.6957038" lon="13.0439808"><ele>259.5</ele><time>2026-04-25T11:13:28.286Z</time></trkpt><trkpt lat="41.6958535" lon="13.0438697"><ele>260.0</ele><time>2026-04-25T11:13:29.288Z</time></trkpt><trkpt lat="41.6959591" lon="13.043805"><ele>260.5</ele><time>2026-04-25T11:13:30.278Z</time></trkpt><trkpt lat="41.6960589" lon="13.0437536"><ele>261.0</ele><time>2026-04-25T11:13:31.279Z</time></trkpt><trkpt lat="41.6961353" lon="13.0437153"><ele>261.0</ele><time>2026-04-25T11:13:32.28Z</time></trkpt><trkpt lat="41.6962053" lon="13.0436787"><ele>261.0</ele><time>2026-04-25T11:13:33.287Z</time></trkpt><trkpt lat="41.6962756" lon="13.043639"><ele>261.0</ele><time>2026-04-25T11:13:34.281Z</time></trkpt><trkpt lat="41.6963401" lon="13.0436036"><ele>261.0</ele><time>2026-04-25T11:13:35.287Z</time></trkpt><trkpt lat="41.6964066" lon="13.0435691"><ele>261.0</ele><time>2026-04-25T11:13:36.278Z</time></trkpt><trkpt lat="41.6964735" lon="13.0435408"><ele>261.0</ele><time>2026-04-25T11:13:37.281Z</time></trkpt><trkpt lat="41.6965413" lon="13.0435073"><ele>261.0</ele><time>2026-04-25T11:13:38.288Z</time></trkpt><trkpt lat="41.6966072" lon="13.0434748"><ele>261.0</ele><time>2026-04-25T11:13:39.277Z</time></trkpt><trkpt lat="41.6966777" lon="13.0434406"><ele>261.0</ele><time>2026-04-25T11:13:40.286Z</time></trkpt><trkpt lat="41.6967501" lon="13.04341"><ele>261.0</ele><time>2026-04-25T11:13:41.287Z</time></trkpt><trkpt lat="41.6968271" lon="13.0433767"><ele>261.0</ele><time>2026-04-25T11:13:42.278Z</time></trkpt><trkpt lat="41.6969056" lon="13.0433474"><ele>261.0</ele><time>2026-04-25T11:13:43.282Z</time></trkpt><trkpt lat="41.6969752" lon="13.0433173"><ele>261.0</ele><time>2026-04-25T11:13:44.279Z</time></trkpt><trkpt lat="41.6970713" lon="13.0432645"><ele>260.8333333333333</ele><time>2026-04-25T11:13:46.28Z</time></trkpt><trkpt lat="41.6971394" lon="13.0432389"><ele>260.6666666666667</ele><time>2026-04-25T11:13:49.283Z</time></trkpt><trkpt lat="41.6972012" lon="13.043207"><ele>260.5</ele><time>2026-04-25T11:14:38.284Z</time></trkpt><trkpt lat="41.6972998" lon="13.0431528"><ele>260.33333333333337</ele><time>2026-04-25T11:14:40.299Z</time></trkpt><trkpt lat="41.6974204" lon="13.0430895"><ele>260.1666666666667</ele><time>2026-04-25T11:14:42.279Z</time></trkpt><trkpt lat="41.6974884" lon="13.0430503"><ele>260.0</ele><time>2026-04-25T11:14:43.282Z</time></trkpt><trkpt lat="41.6975613" lon="13.0430066"><ele>260.0</ele><time>2026-04-25T11:14:44.285Z</time></trkpt><trkpt lat="41.6976407" lon="13.0429555"><ele>260.0</ele><time>2026-04-25T11:14:45.288Z</time></trkpt><trkpt lat="41.6977285" lon="13.0429011"><ele>260.0</ele><time>2026-04-25T11:14:46.283Z</time></trkpt><trkpt lat="41.6978284" lon="13.042845"><ele>260.0</ele><time>2026-04-25T11:14:47.281Z</time></trkpt><trkpt lat="41.6979307" lon="13.0427961"><ele>260.0</ele><time>2026-04-25T11:14:48.281Z</time></trkpt><trkpt lat="41.6980524" lon="13.042735"><ele>258.6666666666667</ele><time>2026-04-25T11:14:49.281Z</time></trkpt><trkpt lat="41.6982018" lon="13.0426967"><ele>257.3333333333333</ele><time>2026-04-25T11:14:50.275Z</time></trkpt><trkpt lat="41.6983838" lon="13.0426688"><ele>256.0</ele><time>2026-04-25T11:14:51.284Z</time></trkpt><trkpt lat="41.6986179" lon="13.0426002"><ele>253.5</ele><time>2026-04-25T11:14:52.284Z</time></trkpt><trkpt lat="41.6988583" lon="13.0424707"><ele>251.0</ele><time>2026-04-25T11:14:53.28Z</time></trkpt><trkpt lat="41.6991345" lon="13.0422634"><ele>251.0</ele><time>2026-04-25T11:14:54.28Z</time></trkpt><trkpt lat="41.6993779" lon="13.0421272"><ele>251.0</ele><time>2026-04-25T11:14:55.28Z</time></trkpt><trkpt lat="41.6995973" lon="13.0421486"><ele>248.0</ele><time>2026-04-25T11:14:56.282Z</time></trkpt><trkpt lat="41.6998232" lon="13.042041"><ele>245.0</ele><time>2026-04-25T11:14:57.378Z</time></trkpt><trkpt lat="41.7000261" lon="13.0419576"><ele>245.5</ele><time>2026-04-25T11:14:58.281Z</time></trkpt><trkpt lat="41.7002539" lon="13.0418084"><ele>246.0</ele><time>2026-04-25T11:14:59.28Z</time></trkpt><trkpt lat="41.7004164" lon="13.041591"><ele>244.0</ele><time>2026-04-25T11:15:00.285Z</time></trkpt><trkpt lat="41.7005912" lon="13.0414792"><ele>242.0</ele><time>2026-04-25T11:15:01.281Z</time></trkpt><trkpt lat="41.7007514" lon="13.0413714"><ele>240.0</ele><time>2026-04-25T11:15:02.278Z</time></trkpt><trkpt lat="41.7008949" lon="13.0412585"><ele>240.0</ele><time>2026-04-25T11:15:03.28Z</time></trkpt><trkpt lat="41.7010365" lon="13.0411269"><ele>240.0</ele><time>2026-04-25T11:15:04.275Z</time></trkpt><trkpt lat="41.7011781" lon="13.040959"><ele>240.0</ele><time>2026-04-25T11:15:05.28Z</time></trkpt><trkpt lat="41.701316" lon="13.040757"><ele>235.5</ele><time>2026-04-25T11:15:06.279Z</time></trkpt><trkpt lat="41.7014655" lon="13.040509"><ele>231.0</ele><time>2026-04-25T11:15:07.281Z</time></trkpt><trkpt lat="41.701613" lon="13.0402348"><ele>231.0</ele><time>2026-04-25T11:15:08.283Z</time></trkpt><trkpt lat="41.7017643" lon="13.0399702"><ele>231.0</ele><time>2026-04-25T11:15:09.278Z</time></trkpt><trkpt lat="41.7019131" lon="13.0397288"><ele>230.33333333333331</ele><time>2026-04-25T11:15:10.283Z</time></trkpt><trkpt lat="41.7020643" lon="13.0395142"><ele>229.66666666666666</ele><time>2026-04-25T11:15:11.278Z</time></trkpt><trkpt lat="41.7022196" lon="13.0393196"><ele>229.0</ele><time>2026-04-25T11:15:12.279Z</time></trkpt><trkpt lat="41.7023794" lon="13.0391352"><ele>229.66666666666666</ele><time>2026-04-25T11:15:13.279Z</time></trkpt><trkpt lat="41.7025422" lon="13.0389675"><ele>230.33333333333331</ele><time>2026-04-25T11:15:14.279Z</time></trkpt><trkpt lat="41.7027076" lon="13.0388227"><ele>231.0</ele><time>2026-04-25T11:15:15.28Z</time></trkpt><trkpt lat="41.7028779" lon="13.0386825"><ele>229.33333333333331</ele><time>2026-04-25T11:15:16.278Z</time></trkpt><trkpt lat="41.7030529" lon="13.0385562"><ele>227.66666666666666</ele><time>2026-04-25T11:15:17.282Z</time></trkpt><trkpt lat="41.7032292" lon="13.0384266"><ele>226.0</ele><time>2026-04-25T11:15:18.28Z</time></trkpt><trkpt lat="41.7034071" lon="13.0383025"><ele>225.66666666666666</ele><time>2026-04-25T11:15:19.284Z</time></trkpt><trkpt lat="41.7035824" lon="13.0381786"><ele>225.33333333333331</ele><time>2026-04-25T11:15:20.282Z</time></trkpt><trkpt lat="41.7037534" lon="13.0380535"><ele>225.0</ele><time>2026-04-25T11:15:21.278Z</time></trkpt><trkpt lat="41.7039232" lon="13.0379261"><ele>225.0</ele><time>2026-04-25T11:15:22.283Z</time></trkpt><trkpt lat="41.7040912" lon="13.0377974"><ele>225.0</ele><time>2026-04-25T11:15:23.277Z</time></trkpt><trkpt lat="41.7042535" lon="13.0376712"><ele>225.0</ele><time>2026-04-25T11:15:24.279Z</time></trkpt><trkpt lat="41.7044167" lon="13.0375411"><ele>224.33333333333331</ele><time>2026-04-25T11:15:25.279Z</time></trkpt><trkpt lat="41.7045781" lon="13.0374007"><ele>223.66666666666666</ele><time>2026-04-25T11:15:26.28Z</time></trkpt><trkpt lat="41.7047331" lon="13.0372554"><ele>223.0</ele><time>2026-04-25T11:15:27.282Z</time></trkpt><trkpt lat="41.7048839" lon="13.0370932"><ele>223.0</ele><time>2026-04-25T11:15:28.281Z</time></trkpt><trkpt lat="41.7050297" lon="13.0369289"><ele>223.0</ele><time>2026-04-25T11:15:29.282Z</time></trkpt><trkpt lat="41.7051735" lon="13.0367612"><ele>223.0</ele><time>2026-04-25T11:15:30.279Z</time></trkpt><trkpt lat="41.7053121" lon="13.0365958"><ele>222.66666666666666</ele><time>2026-04-25T11:15:31.281Z</time></trkpt><trkpt lat="41.7054495" lon="13.0364258"><ele>222.33333333333331</ele><time>2026-04-25T11:15:32.279Z</time></trkpt><trkpt lat="41.705588" lon="13.0362502"><ele>222.0</ele><time>2026-04-25T11:15:33.282Z</time></trkpt><trkpt lat="41.7057264" lon="13.0360847"><ele>222.0</ele><time>2026-04-25T11:15:34.279Z</time></trkpt><trkpt lat="41.7058703" lon="13.0359184"><ele>222.0</ele><time>2026-04-25T11:15:35.279Z</time></trkpt><trkpt lat="41.7060127" lon="13.0357453"><ele>222.0</ele><time>2026-04-25T11:15:36.279Z</time></trkpt><trkpt lat="41.7061545" lon="13.0355746"><ele>221.0</ele><time>2026-04-25T11:15:37.28Z</time></trkpt><trkpt lat="41.7063046" lon="13.0354109"><ele>220.0</ele><time>2026-04-25T11:15:38.28Z</time></trkpt><trkpt lat="41.7064576" lon="13.0352432"><ele>219.0</ele><time>2026-04-25T11:15:39.282Z</time></trkpt><trkpt lat="41.7066217" lon="13.0350817"><ele>219.33333333333331</ele><time>2026-04-25T11:15:40.279Z</time></trkpt><trkpt lat="41.7067844" lon="13.0349302"><ele>219.66666666666666</ele><time>2026-04-25T11:15:41.281Z</time></trkpt><trkpt lat="41.7069485" lon="13.0347717"><ele>220.0</ele><time>2026-04-25T11:15:42.28Z</time></trkpt><trkpt lat="41.7071121" lon="13.0346156"><ele>221.33333333333331</ele><time>2026-04-25T11:15:43.279Z</time></trkpt><trkpt lat="41.7072772" lon="13.0344585"><ele>222.66666666666669</ele><time>2026-04-25T11:15:44.279Z</time></trkpt><trkpt lat="41.7074426" lon="13.0343067"><ele>224.0</ele><time>2026-04-25T11:15:45.279Z</time></trkpt><trkpt lat="41.7076085" lon="13.0341526"><ele>224.33333333333334</ele><time>2026-04-25T11:15:46.282Z</time></trkpt><trkpt lat="41.7077653" lon="13.0339983"><ele>224.66666666666669</ele><time>2026-04-25T11:15:47.279Z</time></trkpt><trkpt lat="41.70791" lon="13.0338466"><ele>225.0</ele><time>2026-04-25T11:15:48.282Z</time></trkpt><trkpt lat="41.7080366" lon="13.0336818"><ele>225.0</ele><time>2026-04-25T11:15:49.279Z</time></trkpt><trkpt lat="41.7081518" lon="13.0335008"><ele>225.0</ele><time>2026-04-25T11:15:50.278Z</time></trkpt><trkpt lat="41.7082575" lon="13.0333031"><ele>225.0</ele><time>2026-04-25T11:15:51.279Z</time></trkpt><trkpt lat="41.7083607" lon="13.0330835"><ele>225.0</ele><time>2026-04-25T11:15:52.279Z</time></trkpt><trkpt lat="41.7084612" lon="13.0328441"><ele>225.0</ele><time>2026-04-25T11:15:53.277Z</time></trkpt><trkpt lat="41.708571" lon="13.0326052"><ele>225.0</ele><time>2026-04-25T11:15:54.279Z</time></trkpt><trkpt lat="41.7086974" lon="13.0323636"><ele>225.0</ele><time>2026-04-25T11:15:55.275Z</time></trkpt><trkpt lat="41.7088466" lon="13.0321233"><ele>225.0</ele><time>2026-04-25T11:15:56.282Z</time></trkpt><trkpt lat="41.7090007" lon="13.0318815"><ele>225.0</ele><time>2026-04-25T11:15:57.281Z</time></trkpt><trkpt lat="41.7091598" lon="13.0316558"><ele>225.0</ele><time>2026-04-25T11:15:58.277Z</time></trkpt><trkpt lat="41.7093204" lon="13.0314339"><ele>226.66666666666669</ele><time>2026-04-25T11:15:59.279Z</time></trkpt><trkpt lat="41.7094744" lon="13.0312211"><ele>228.33333333333334</ele><time>2026-04-25T11:16:00.28Z</time></trkpt><trkpt lat="41.7096255" lon="13.0310175"><ele>230.0</ele><time>2026-04-25T11:16:01.278Z</time></trkpt><trkpt lat="41.7097714" lon="13.0308166"><ele>230.66666666666669</ele><time>2026-04-25T11:16:02.288Z</time></trkpt><trkpt lat="41.7099164" lon="13.0306187"><ele>231.33333333333331</ele><time>2026-04-25T11:16:03.289Z</time></trkpt><trkpt lat="41.7100569" lon="13.0304204"><ele>232.0</ele><time>2026-04-25T11:16:04.282Z</time></trkpt><trkpt lat="41.7101904" lon="13.030225"><ele>231.0</ele><time>2026-04-25T11:16:05.279Z</time></trkpt><trkpt lat="41.710325" lon="13.0300243"><ele>230.0</ele><time>2026-04-25T11:16:06.278Z</time></trkpt><trkpt lat="41.7104492" lon="13.0298176"><ele>229.0</ele><time>2026-04-25T11:16:07.274Z</time></trkpt><trkpt lat="41.710573" lon="13.0296107"><ele>229.0</ele><time>2026-04-25T11:16:08.277Z</time></trkpt><trkpt lat="41.7106881" lon="13.0293987"><ele>229.0</ele><time>2026-04-25T11:16:09.28Z</time></trkpt><trkpt lat="41.7107997" lon="13.029191"><ele>229.0</ele><time>2026-04-25T11:16:10.279Z</time></trkpt><trkpt lat="41.7109002" lon="13.0289683"><ele>228.33333333333331</ele><time>2026-04-25T11:16:11.277Z</time></trkpt><trkpt lat="41.7109872" lon="13.0287276"><ele>227.66666666666669</ele><time>2026-04-25T11:16:12.277Z</time></trkpt><trkpt lat="41.7110651" lon="13.0284622"><ele>227.0</ele><time>2026-04-25T11:16:13.274Z</time></trkpt><trkpt lat="41.7111289" lon="13.028198"><ele>227.0</ele><time>2026-04-25T11:16:14.279Z</time></trkpt><trkpt lat="41.7111863" lon="13.0279514"><ele>227.0</ele><time>2026-04-25T11:16:15.279Z</time></trkpt><trkpt lat="41.711236" lon="13.0277289"><ele>227.0</ele><time>2026-04-25T11:16:16.279Z</time></trkpt><trkpt lat="41.7112827" lon="13.02751"><ele>228.66666666666669</ele><time>2026-04-25T11:16:17.281Z</time></trkpt><trkpt lat="41.7113269" lon="13.0273083"><ele>230.33333333333331</ele><time>2026-04-25T11:16:18.28Z</time></trkpt><trkpt lat="41.711365" lon="13.0271139"><ele>232.0</ele><time>2026-04-25T11:16:19.277Z</time></trkpt><trkpt lat="41.7114041" lon="13.0269179"><ele>232.0</ele><time>2026-04-25T11:16:20.281Z</time></trkpt><trkpt lat="41.7114467" lon="13.0267217"><ele>232.0</ele><time>2026-04-25T11:16:21.279Z</time></trkpt><trkpt lat="41.7114885" lon="13.0265268"><ele>232.0</ele><time>2026-04-25T11:16:22.277Z</time></trkpt><trkpt lat="41.7115315" lon="13.0263394"><ele>233.75</ele><time>2026-04-25T11:16:23.281Z</time></trkpt><trkpt lat="41.7115689" lon="13.026153"><ele>235.5</ele><time>2026-04-25T11:16:24.289Z</time></trkpt><trkpt lat="41.711611" lon="13.0259718"><ele>237.25</ele><time>2026-04-25T11:16:25.287Z</time></trkpt><trkpt lat="41.7116582" lon="13.0258001"><ele>239.0</ele><time>2026-04-25T11:16:26.285Z</time></trkpt><trkpt lat="41.7117049" lon="13.0256289"><ele>240.25</ele><time>2026-04-25T11:16:27.287Z</time></trkpt><trkpt lat="41.7117526" lon="13.0254554"><ele>241.5</ele><time>2026-04-25T11:16:28.28Z</time></trkpt><trkpt lat="41.7118041" lon="13.0252885"><ele>242.75</ele><time>2026-04-25T11:16:29.282Z</time></trkpt><trkpt lat="41.7118547" lon="13.0251242"><ele>244.0</ele><time>2026-04-25T11:16:30.275Z</time></trkpt><trkpt lat="41.7119047" lon="13.0249517"><ele>242.5</ele><time>2026-04-25T11:16:31.283Z</time></trkpt><trkpt lat="41.7119559" lon="13.0247742"><ele>241.0</ele><time>2026-04-25T11:16:32.28Z</time></trkpt><trkpt lat="41.7120084" lon="13.024596"><ele>239.5</ele><time>2026-04-25T11:16:33.28Z</time></trkpt><trkpt lat="41.7120652" lon="13.0244089"><ele>238.0</ele><time>2026-04-25T11:16:34.275Z</time></trkpt><trkpt lat="41.7121237" lon="13.0242252"><ele>238.0</ele><time>2026-04-25T11:16:35.279Z</time></trkpt><trkpt lat="41.7121837" lon="13.0240397"><ele>238.0</ele><time>2026-04-25T11:16:36.28Z</time></trkpt><trkpt lat="41.712238" lon="13.0238515"><ele>238.0</ele><time>2026-04-25T11:16:37.281Z</time></trkpt><trkpt lat="41.7122911" lon="13.0236568"><ele>238.0</ele><time>2026-04-25T11:16:38.278Z</time></trkpt><trkpt lat="41.7123503" lon="13.0234613"><ele>238.0</ele><time>2026-04-25T11:16:39.283Z</time></trkpt><trkpt lat="41.7124078" lon="13.0232728"><ele>238.0</ele><time>2026-04-25T11:16:40.28Z</time></trkpt><trkpt lat="41.712464" lon="13.0230884"><ele>238.0</ele><time>2026-04-25T11:16:41.283Z</time></trkpt><trkpt lat="41.7125195" lon="13.0229066"><ele>238.0</ele><time>2026-04-25T11:16:42.281Z</time></trkpt><trkpt lat="41.7125733" lon="13.0227269"><ele>238.0</ele><time>2026-04-25T11:16:43.281Z</time></trkpt><trkpt lat="41.7126313" lon="13.0225589"><ele>238.0</ele><time>2026-04-25T11:16:44.281Z</time></trkpt><trkpt lat="41.7126983" lon="13.0223826"><ele>236.0</ele><time>2026-04-25T11:16:45.279Z</time></trkpt><trkpt lat="41.712768" lon="13.0222161"><ele>234.0</ele><time>2026-04-25T11:16:46.279Z</time></trkpt><trkpt lat="41.7128514" lon="13.0220541"><ele>232.0</ele><time>2026-04-25T11:16:47.281Z</time></trkpt><trkpt lat="41.7129401" lon="13.0218996"><ele>230.0</ele><time>2026-04-25T11:16:48.28Z</time></trkpt><trkpt lat="41.71304" lon="13.0217468"><ele>231.33333333333334</ele><time>2026-04-25T11:16:49.282Z</time></trkpt><trkpt lat="41.7131433" lon="13.0216018"><ele>232.66666666666669</ele><time>2026-04-25T11:16:50.278Z</time></trkpt><trkpt lat="41.7132431" lon="13.0214444"><ele>234.0</ele><time>2026-04-25T11:16:51.28Z</time></trkpt><trkpt lat="41.7133449" lon="13.0212825"><ele>234.0</ele><time>2026-04-25T11:16:52.279Z</time></trkpt><trkpt lat="41.713444" lon="13.021113"><ele>234.0</ele><time>2026-04-25T11:16:53.279Z</time></trkpt><trkpt lat="41.7135361" lon="13.0209357"><ele>234.0</ele><time>2026-04-25T11:16:54.279Z</time></trkpt><trkpt lat="41.7136196" lon="13.0207524"><ele>232.0</ele><time>2026-04-25T11:16:55.28Z</time></trkpt><trkpt lat="41.7136935" lon="13.020554"><ele>230.0</ele><time>2026-04-25T11:16:56.279Z</time></trkpt><trkpt lat="41.7137517" lon="13.0203549"><ele>228.0</ele><time>2026-04-25T11:16:57.283Z</time></trkpt><trkpt lat="41.7137976" lon="13.0201556"><ele>227.5</ele><time>2026-04-25T11:16:58.283Z</time></trkpt><trkpt lat="41.7138287" lon="13.0199551"><ele>227.0</ele><time>2026-04-25T11:16:59.276Z</time></trkpt><trkpt lat="41.7138564" lon="13.0197636"><ele>226.5</ele><time>2026-04-25T11:17:00.281Z</time></trkpt><trkpt lat="41.7138878" lon="13.0195723"><ele>226.0</ele><time>2026-04-25T11:17:01.282Z</time></trkpt><trkpt lat="41.7139447" lon="13.0193898"><ele>226.0</ele><time>2026-04-25T11:17:02.283Z</time></trkpt><trkpt lat="41.7140061" lon="13.0192207"><ele>226.0</ele><time>2026-04-25T11:17:03.28Z</time></trkpt><trkpt lat="41.7140855" lon="13.0190593"><ele>226.0</ele><time>2026-04-25T11:17:04.283Z</time></trkpt><trkpt lat="41.7142106" lon="13.0189378"><ele>226.0</ele><time>2026-04-25T11:17:05.282Z</time></trkpt><trkpt lat="41.714338" lon="13.0188219"><ele>225.66666666666666</ele><time>2026-04-25T11:17:06.281Z</time></trkpt><trkpt lat="41.7144732" lon="13.0187162"><ele>225.33333333333331</ele><time>2026-04-25T11:17:07.281Z</time></trkpt><trkpt lat="41.7146113" lon="13.0186052"><ele>225.0</ele><time>2026-04-25T11:17:08.29Z</time></trkpt><trkpt lat="41.7147523" lon="13.0185042"><ele>225.0</ele><time>2026-04-25T11:17:09.286Z</time></trkpt><trkpt lat="41.7148944" lon="13.018407"><ele>225.0</ele><time>2026-04-25T11:17:10.277Z</time></trkpt><trkpt lat="41.7150384" lon="13.018315"><ele>225.0</ele><time>2026-04-25T11:17:11.29Z</time></trkpt><trkpt lat="41.715186" lon="13.0182351"><ele>224.66666666666669</ele><time>2026-04-25T11:17:12.282Z</time></trkpt><trkpt lat="41.7153354" lon="13.018163"><ele>224.33333333333334</ele><time>2026-04-25T11:17:13.288Z</time></trkpt><trkpt lat="41.7154828" lon="13.0180772"><ele>224.0</ele><time>2026-04-25T11:17:14.281Z</time></trkpt><trkpt lat="41.7156317" lon="13.0179982"><ele>224.0</ele><time>2026-04-25T11:17:15.282Z</time></trkpt><trkpt lat="41.7157767" lon="13.0179165"><ele>224.0</ele><time>2026-04-25T11:17:16.289Z</time></trkpt><trkpt lat="41.7159234" lon="13.0178331"><ele>224.0</ele><time>2026-04-25T11:17:17.282Z</time></trkpt><trkpt lat="41.7160734" lon="13.0177529"><ele>223.0</ele><time>2026-04-25T11:17:18.286Z</time></trkpt><trkpt lat="41.7162233" lon="13.0176801"><ele>222.0</ele><time>2026-04-25T11:17:19.29Z</time></trkpt><trkpt lat="41.7163564" lon="13.0176186"><ele>221.0</ele><time>2026-04-25T11:17:20.289Z</time></trkpt><trkpt lat="41.7164692" lon="13.0175738"><ele>220.0</ele><time>2026-04-25T11:17:21.289Z</time></trkpt><trkpt lat="41.7165706" lon="13.0175471"><ele>220.0</ele><time>2026-04-25T11:17:22.286Z</time></trkpt><trkpt lat="41.7166615" lon="13.0175169"><ele>220.0</ele><time>2026-04-25T11:17:23.288Z</time></trkpt><trkpt lat="41.7167515" lon="13.0174883"><ele>220.0</ele><time>2026-04-25T11:17:24.282Z</time></trkpt><trkpt lat="41.7168392" lon="13.0174622"><ele>220.0</ele><time>2026-04-25T11:17:25.288Z</time></trkpt><trkpt lat="41.7169285" lon="13.0174333"><ele>220.0</ele><time>2026-04-25T11:17:26.28Z</time></trkpt><trkpt lat="41.7170173" lon="13.0174015"><ele>220.8</ele><time>2026-04-25T11:17:27.281Z</time></trkpt><trkpt lat="41.717109" lon="13.0173724"><ele>221.6</ele><time>2026-04-25T11:17:28.283Z</time></trkpt><trkpt lat="41.7171977" lon="13.0173363"><ele>222.39999999999998</ele><time>2026-04-25T11:17:29.278Z</time></trkpt><trkpt lat="41.7172878" lon="13.0172998"><ele>223.2</ele><time>2026-04-25T11:17:30.289Z</time></trkpt><trkpt lat="41.7173804" lon="13.0172678"><ele>224.0</ele><time>2026-04-25T11:17:31.287Z</time></trkpt><trkpt lat="41.7174742" lon="13.0172312"><ele>224.0</ele><time>2026-04-25T11:17:32.282Z</time></trkpt><trkpt lat="41.7175699" lon="13.0171872"><ele>223.99999999999997</ele><time>2026-04-25T11:17:33.288Z</time></trkpt><trkpt lat="41.7176641" lon="13.0171437"><ele>223.99999999999997</ele><time>2026-04-25T11:17:34.283Z</time></trkpt><trkpt lat="41.7177601" lon="13.0170989"><ele>224.0</ele><time>2026-04-25T11:17:35.288Z</time></trkpt><trkpt lat="41.717854" lon="13.0170551"><ele>224.0</ele><time>2026-04-25T11:17:36.28Z</time></trkpt><trkpt lat="41.7179606" lon="13.017006"><ele>222.0</ele><time>2026-04-25T11:17:37.287Z</time></trkpt><trkpt lat="41.7180688" lon="13.0169567"><ele>220.0</ele><time>2026-04-25T11:17:38.28Z</time></trkpt><trkpt lat="41.7181832" lon="13.016904"><ele>218.0</ele><time>2026-04-25T11:17:39.281Z</time></trkpt><trkpt lat="41.7183019" lon="13.0168481"><ele>216.0</ele><time>2026-04-25T11:17:40.277Z</time></trkpt><trkpt lat="41.7184246" lon="13.0167898"><ele>216.0</ele><time>2026-04-25T11:17:41.282Z</time></trkpt><trkpt lat="41.7185527" lon="13.0167156"><ele>216.0</ele><time>2026-04-25T11:17:42.28Z</time></trkpt><trkpt lat="41.7186843" lon="13.0166273"><ele>216.0</ele><time>2026-04-25T11:17:43.28Z</time></trkpt><trkpt lat="41.7188218" lon="13.0165341"><ele>216.0</ele><time>2026-04-25T11:17:44.281Z</time></trkpt><trkpt lat="41.7189643" lon="13.0164407"><ele>217.0</ele><time>2026-04-25T11:17:45.289Z</time></trkpt><trkpt lat="41.7191124" lon="13.0163372"><ele>218.0</ele><time>2026-04-25T11:17:46.274Z</time></trkpt><trkpt lat="41.7192605" lon="13.0162246"><ele>219.0</ele><time>2026-04-25T11:17:47.284Z</time></trkpt><trkpt lat="41.7194097" lon="13.0161055"><ele>220.0</ele><time>2026-04-25T11:17:48.275Z</time></trkpt><trkpt lat="41.7195574" lon="13.0159837"><ele>221.0</ele><time>2026-04-25T11:17:49.28Z</time></trkpt><trkpt lat="41.7197025" lon="13.0158632"><ele>222.0</ele><time>2026-04-25T11:17:50.279Z</time></trkpt><trkpt lat="41.719846" lon="13.0157343"><ele>222.33333333333331</ele><time>2026-04-25T11:17:51.281Z</time></trkpt><trkpt lat="41.7199806" lon="13.0156042"><ele>222.66666666666666</ele><time>2026-04-25T11:17:52.279Z</time></trkpt><trkpt lat="41.7201162" lon="13.0154722"><ele>223.0</ele><time>2026-04-25T11:17:53.279Z</time></trkpt><trkpt lat="41.7202488" lon="13.0153362"><ele>223.0</ele><time>2026-04-25T11:17:54.28Z</time></trkpt><trkpt lat="41.7203753" lon="13.0151977"><ele>223.0</ele><time>2026-04-25T11:17:55.278Z</time></trkpt><trkpt lat="41.7204998" lon="13.0150593"><ele>223.0</ele><time>2026-04-25T11:17:56.278Z</time></trkpt><trkpt lat="41.720629" lon="13.0149216"><ele>223.66666666666666</ele><time>2026-04-25T11:17:57.281Z</time></trkpt><trkpt lat="41.7207507" lon="13.0147898"><ele>224.33333333333331</ele><time>2026-04-25T11:17:58.282Z</time></trkpt><trkpt lat="41.7208671" lon="13.0146607"><ele>225.0</ele><time>2026-04-25T11:17:59.291Z</time></trkpt><trkpt lat="41.7209813" lon="13.0145246"><ele>224.75</ele><time>2026-04-25T11:18:00.283Z</time></trkpt><trkpt lat="41.7210824" lon="13.0143743"><ele>224.5</ele><time>2026-04-25T11:18:01.287Z</time></trkpt><trkpt lat="41.7211698" lon="13.0142164"><ele>224.25</ele><time>2026-04-25T11:18:02.273Z</time></trkpt><trkpt lat="41.721242" lon="13.0140453"><ele>224.0</ele><time>2026-04-25T11:18:03.281Z</time></trkpt><trkpt lat="41.7212927" lon="13.0138699"><ele>224.0</ele><time>2026-04-25T11:18:04.283Z</time></trkpt><trkpt lat="41.7213362" lon="13.0137161"><ele>223.99999999999997</ele><time>2026-04-25T11:18:05.283Z</time></trkpt><trkpt lat="41.7213751" lon="13.0135869"><ele>223.99999999999997</ele><time>2026-04-25T11:18:06.284Z</time></trkpt><trkpt lat="41.7214135" lon="13.0134671"><ele>224.0</ele><time>2026-04-25T11:18:07.281Z</time></trkpt><trkpt lat="41.7214476" lon="13.0133584"><ele>224.0</ele><time>2026-04-25T11:18:08.277Z</time></trkpt><trkpt lat="41.7214807" lon="13.0132553"><ele>224.00000000000003</ele><time>2026-04-25T11:18:09.275Z</time></trkpt><trkpt lat="41.7215113" lon="13.0131532"><ele>224.0</ele><time>2026-04-25T11:18:10.285Z</time></trkpt><trkpt lat="41.7215456" lon="13.0130637"><ele>224.0</ele><time>2026-04-25T11:18:11.281Z</time></trkpt><trkpt lat="41.7215754" lon="13.0129728"><ele>224.0</ele><time>2026-04-25T11:18:12.279Z</time></trkpt><trkpt lat="41.7216043" lon="13.0128805"><ele>224.00000000000003</ele><time>2026-04-25T11:18:13.28Z</time></trkpt><trkpt lat="41.7216335" lon="13.0127832"><ele>224.0</ele><time>2026-04-25T11:18:14.279Z</time></trkpt><trkpt lat="41.7216596" lon="13.0126841"><ele>224.0</ele><time>2026-04-25T11:18:15.278Z</time></trkpt><trkpt lat="41.7216877" lon="13.0125963"><ele>224.0</ele><time>2026-04-25T11:18:16.279Z</time></trkpt><trkpt lat="41.7217171" lon="13.0125053"><ele>224.0</ele><time>2026-04-25T11:18:17.279Z</time></trkpt><trkpt lat="41.7217428" lon="13.0124155"><ele>224.0</ele><time>2026-04-25T11:18:18.278Z</time></trkpt><trkpt lat="41.7217675" lon="13.0123239"><ele>224.0</ele><time>2026-04-25T11:18:19.289Z</time></trkpt><trkpt lat="41.7217919" lon="13.0122379"><ele>224.0</ele><time>2026-04-25T11:18:20.289Z</time></trkpt><trkpt lat="41.7218143" lon="13.0121489"><ele>224.0</ele><time>2026-04-25T11:18:21.285Z</time></trkpt><trkpt lat="41.7218402" lon="13.0120562"><ele>223.85714285714286</ele><time>2026-04-25T11:18:22.275Z</time></trkpt><trkpt lat="41.7218674" lon="13.0119678"><ele>223.71428571428572</ele><time>2026-04-25T11:18:23.279Z</time></trkpt><trkpt lat="41.721895" lon="13.0118822"><ele>223.57142857142856</ele><time>2026-04-25T11:18:24.29Z</time></trkpt><trkpt lat="41.721916" lon="13.0118007"><ele>223.42857142857144</ele><time>2026-04-25T11:18:25.28Z</time></trkpt><trkpt lat="41.7219372" lon="13.0117133"><ele>223.28571428571428</ele><time>2026-04-25T11:18:26.285Z</time></trkpt><trkpt lat="41.7219617" lon="13.0116303"><ele>223.14285714285714</ele><time>2026-04-25T11:18:27.281Z</time></trkpt><trkpt lat="41.7219876" lon="13.0115436"><ele>223.0</ele><time>2026-04-25T11:18:28.282Z</time></trkpt><trkpt lat="41.7220136" lon="13.0114535"><ele>223.33333333333331</ele><time>2026-04-25T11:18:29.289Z</time></trkpt><trkpt lat="41.7220366" lon="13.0113581"><ele>223.66666666666666</ele><time>2026-04-25T11:18:30.288Z</time></trkpt><trkpt lat="41.7220644" lon="13.0112617"><ele>224.0</ele><time>2026-04-25T11:18:31.286Z</time></trkpt><trkpt lat="41.7220895" lon="13.0111665"><ele>224.33333333333331</ele><time>2026-04-25T11:18:32.284Z</time></trkpt><trkpt lat="41.7221149" lon="13.0110701"><ele>224.66666666666666</ele><time>2026-04-25T11:18:33.291Z</time></trkpt><trkpt lat="41.7221399" lon="13.0109758"><ele>225.0</ele><time>2026-04-25T11:18:34.28Z</time></trkpt><trkpt lat="41.7221674" lon="13.0108807"><ele>226.0</ele><time>2026-04-25T11:18:35.288Z</time></trkpt><trkpt lat="41.7221971" lon="13.0107756"><ele>227.0</ele><time>2026-04-25T11:18:36.287Z</time></trkpt><trkpt lat="41.7222275" lon="13.0106634"><ele>228.0</ele><time>2026-04-25T11:18:37.287Z</time></trkpt><trkpt lat="41.722258" lon="13.0105444"><ele>229.0</ele><time>2026-04-25T11:18:38.278Z</time></trkpt><trkpt lat="41.7222858" lon="13.0104198"><ele>230.0</ele><time>2026-04-25T11:18:39.275Z</time></trkpt><trkpt lat="41.722308" lon="13.0102913"><ele>230.0</ele><time>2026-04-25T11:18:40.279Z</time></trkpt><trkpt lat="41.7223286" lon="13.0101617"><ele>230.0</ele><time>2026-04-25T11:18:41.282Z</time></trkpt><trkpt lat="41.72235" lon="13.0100261"><ele>230.0</ele><time>2026-04-25T11:18:42.282Z</time></trkpt><trkpt lat="41.7223708" lon="13.0098961"><ele>230.0</ele><time>2026-04-25T11:18:43.283Z</time></trkpt><trkpt lat="41.7223887" lon="13.009762"><ele>230.0</ele><time>2026-04-25T11:18:44.28Z</time></trkpt><trkpt lat="41.7224066" lon="13.0096331"><ele>231.0</ele><time>2026-04-25T11:18:45.288Z</time></trkpt><trkpt lat="41.722426" lon="13.0095044"><ele>232.0</ele><time>2026-04-25T11:18:46.281Z</time></trkpt><trkpt lat="41.7224461" lon="13.0093802"><ele>233.0</ele><time>2026-04-25T11:18:47.284Z</time></trkpt><trkpt lat="41.7224661" lon="13.0092527"><ele>234.0</ele><time>2026-04-25T11:18:48.289Z</time></trkpt><trkpt lat="41.7224761" lon="13.0091241"><ele>235.0</ele><time>2026-04-25T11:18:49.282Z</time></trkpt><trkpt lat="41.7224917" lon="13.0089977"><ele>235.6</ele><time>2026-04-25T11:18:50.287Z</time></trkpt><trkpt lat="41.7225094" lon="13.0088766"><ele>236.2</ele><time>2026-04-25T11:18:51.397Z</time></trkpt><trkpt lat="41.7225376" lon="13.0086758"><ele>236.8</ele><time>2026-04-25T11:18:53.291Z</time></trkpt><trkpt lat="41.7225609" lon="13.0085156"><ele>237.4</ele><time>2026-04-25T11:18:55.28Z</time></trkpt><trkpt lat="41.7225759" lon="13.0084318"><ele>238.0</ele><time>2026-04-25T11:18:56.288Z</time></trkpt><trkpt lat="41.722588" lon="13.0083466"><ele>238.28571428571428</ele><time>2026-04-25T11:18:57.281Z</time></trkpt><trkpt lat="41.7225994" lon="13.0082589"><ele>238.57142857142856</ele><time>2026-04-25T11:18:58.282Z</time></trkpt><trkpt lat="41.7226087" lon="13.0081621"><ele>238.85714285714286</ele><time>2026-04-25T11:18:59.282Z</time></trkpt><trkpt lat="41.7226172" lon="13.0080679"><ele>239.14285714285714</ele><time>2026-04-25T11:19:00.28Z</time></trkpt><trkpt lat="41.7226246" lon="13.0079678"><ele>239.42857142857142</ele><time>2026-04-25T11:19:01.286Z</time></trkpt><trkpt lat="41.7226287" lon="13.0078599"><ele>239.71428571428572</ele><time>2026-04-25T11:19:02.284Z</time></trkpt><trkpt lat="41.7226356" lon="13.0077541"><ele>240.0</ele><time>2026-04-25T11:19:03.282Z</time></trkpt><trkpt lat="41.7226393" lon="13.0076434"><ele>240.0</ele><time>2026-04-25T11:19:04.278Z</time></trkpt><trkpt lat="41.7226463" lon="13.0075284"><ele>240.0</ele><time>2026-04-25T11:19:05.287Z</time></trkpt><trkpt lat="41.7226572" lon="13.0074155"><ele>240.0</ele><time>2026-04-25T11:19:06.278Z</time></trkpt><trkpt lat="41.7226681" lon="13.0073038"><ele>240.0</ele><time>2026-04-25T11:19:07.279Z</time></trkpt><trkpt lat="41.7226784" lon="13.0071948"><ele>240.0</ele><time>2026-04-25T11:19:08.28Z</time></trkpt><trkpt lat="41.7226912" lon="13.0070924"><ele>240.0</ele><time>2026-04-25T11:19:09.281Z</time></trkpt><trkpt lat="41.7227084" lon="13.0069905"><ele>239.5</ele><time>2026-04-25T11:19:10.286Z</time></trkpt><trkpt lat="41.7227292" lon="13.006896"><ele>239.0</ele><time>2026-04-25T11:19:11.283Z</time></trkpt><trkpt lat="41.722755" lon="13.0068075"><ele>238.5</ele><time>2026-04-25T11:19:12.279Z</time></trkpt><trkpt lat="41.7227847" lon="13.0067242"><ele>238.0</ele><time>2026-04-25T11:19:13.279Z</time></trkpt><trkpt lat="41.7228202" lon="13.0066516"><ele>237.5</ele><time>2026-04-25T11:19:14.287Z</time></trkpt><trkpt lat="41.7228688" lon="13.0065778"><ele>237.0</ele><time>2026-04-25T11:19:16.279Z</time></trkpt><trkpt lat="41.722972" lon="13.0066222"><ele>236.28571428571425</ele><time>2026-04-25T11:19:19.282Z</time></trkpt><trkpt lat="41.7230233" lon="13.006676"><ele>235.57142857142856</ele><time>2026-04-25T11:19:20.28Z</time></trkpt><trkpt lat="41.7230747" lon="13.0067398"><ele>234.85714285714286</ele><time>2026-04-25T11:19:21.282Z</time></trkpt><trkpt lat="41.7231219" lon="13.0068024"><ele>234.14285714285714</ele><time>2026-04-25T11:19:22.28Z</time></trkpt><trkpt lat="41.7231765" lon="13.0068611"><ele>233.42857142857144</ele><time>2026-04-25T11:19:23.289Z</time></trkpt><trkpt lat="41.7232322" lon="13.006914"><ele>232.71428571428575</ele><time>2026-04-25T11:19:24.277Z</time></trkpt><trkpt lat="41.7232904" lon="13.0069577"><ele>232.00000000000003</ele><time>2026-04-25T11:19:25.282Z</time></trkpt><trkpt lat="41.7233513" lon="13.0069996"><ele>232.00000000000003</ele><time>2026-04-25T11:19:26.279Z</time></trkpt><trkpt lat="41.7234134" lon="13.007038"><ele>232.0</ele><time>2026-04-25T11:19:27.281Z</time></trkpt><trkpt lat="41.723477" lon="13.0070921"><ele>232.00000000000003</ele><time>2026-04-25T11:19:28.277Z</time></trkpt><trkpt lat="41.7235329" lon="13.007163"><ele>232.00000000000003</ele><time>2026-04-25T11:19:29.279Z</time></trkpt><trkpt lat="41.7235739" lon="13.0072397"><ele>232.0</ele><time>2026-04-25T11:19:30.282Z</time></trkpt><trkpt lat="41.7236018" lon="13.0073201"><ele>232.00000000000003</ele><time>2026-04-25T11:19:31.281Z</time></trkpt><trkpt lat="41.7236241" lon="13.0074007"><ele>232.00000000000003</ele><time>2026-04-25T11:19:32.282Z</time></trkpt><trkpt lat="41.7236514" lon="13.0074928"><ele>230.25</ele><time>2026-04-25T11:19:33.279Z</time></trkpt><trkpt lat="41.7236964" lon="13.0076166"><ele>228.5</ele><time>2026-04-25T11:19:34.282Z</time></trkpt><trkpt lat="41.7237561" lon="13.0077572"><ele>226.75</ele><time>2026-04-25T11:19:35.281Z</time></trkpt><trkpt lat="41.7238263" lon="13.0078914"><ele>225.0</ele><time>2026-04-25T11:19:36.28Z</time></trkpt><trkpt lat="41.7238959" lon="13.0080106"><ele>225.0</ele><time>2026-04-25T11:19:37.282Z</time></trkpt><trkpt lat="41.723956" lon="13.0081233"><ele>225.0</ele><time>2026-04-25T11:19:38.28Z</time></trkpt><trkpt lat="41.7240082" lon="13.0082205"><ele>225.0</ele><time>2026-04-25T11:19:39.276Z</time></trkpt><trkpt lat="41.7240637" lon="13.0083122"><ele>225.0</ele><time>2026-04-25T11:19:40.275Z</time></trkpt><trkpt lat="41.7241204" lon="13.0084158"><ele>225.0</ele><time>2026-04-25T11:19:41.279Z</time></trkpt><trkpt lat="41.7241703" lon="13.0085356"><ele>225.4</ele><time>2026-04-25T11:19:42.281Z</time></trkpt><trkpt lat="41.7242202" lon="13.0086579"><ele>225.8</ele><time>2026-04-25T11:19:43.279Z</time></trkpt><trkpt lat="41.7242699" lon="13.0087818"><ele>226.2</ele><time>2026-04-25T11:19:44.279Z</time></trkpt><trkpt lat="41.7243275" lon="13.0089048"><ele>226.6</ele><time>2026-04-25T11:19:45.28Z</time></trkpt><trkpt lat="41.7243896" lon="13.0090214"><ele>227.0</ele><time>2026-04-25T11:19:46.281Z</time></trkpt><trkpt lat="41.724459" lon="13.0091313"><ele>226.2</ele><time>2026-04-25T11:19:47.281Z</time></trkpt><trkpt lat="41.724538" lon="13.0092289"><ele>225.39999999999998</ele><time>2026-04-25T11:19:48.281Z</time></trkpt><trkpt lat="41.7246209" lon="13.009309"><ele>224.60000000000002</ele><time>2026-04-25T11:19:49.285Z</time></trkpt><trkpt lat="41.724707" lon="13.0093791"><ele>223.8</ele><time>2026-04-25T11:19:50.281Z</time></trkpt><trkpt lat="41.7247893" lon="13.0094389"><ele>223.0</ele><time>2026-04-25T11:19:51.282Z</time></trkpt><trkpt lat="41.7248728" lon="13.0094913"><ele>223.0</ele><time>2026-04-25T11:19:52.283Z</time></trkpt><trkpt lat="41.724958" lon="13.0095429"><ele>223.0</ele><time>2026-04-25T11:19:53.281Z</time></trkpt><trkpt lat="41.7250467" lon="13.0095987"><ele>223.0</ele><time>2026-04-25T11:19:54.281Z</time></trkpt><trkpt lat="41.7251511" lon="13.0096321"><ele>223.0</ele><time>2026-04-25T11:19:55.281Z</time></trkpt><trkpt lat="41.7252553" lon="13.0096518"><ele>223.0</ele><time>2026-04-25T11:19:56.281Z</time></trkpt><trkpt lat="41.725338" lon="13.009662"><ele>223.0</ele><time>2026-04-25T11:19:57.279Z</time></trkpt><trkpt lat="41.7254169" lon="13.0096729"><ele>223.0</ele><time>2026-04-25T11:19:58.28Z</time></trkpt><trkpt lat="41.72551" lon="13.0096861"><ele>223.0</ele><time>2026-04-25T11:19:59.28Z</time></trkpt><trkpt lat="41.7256224" lon="13.0096962"><ele>223.0</ele><time>2026-04-25T11:20:00.275Z</time></trkpt><trkpt lat="41.7257443" lon="13.0097054"><ele>223.0</ele><time>2026-04-25T11:20:01.282Z</time></trkpt><trkpt lat="41.7258558" lon="13.0097196"><ele>223.0</ele><time>2026-04-25T11:20:02.288Z</time></trkpt><trkpt lat="41.7259565" lon="13.0097334"><ele>223.0</ele><time>2026-04-25T11:20:03.278Z</time></trkpt><trkpt lat="41.7260547" lon="13.0097422"><ele>223.0</ele><time>2026-04-25T11:20:04.287Z</time></trkpt><trkpt lat="41.7261444" lon="13.0097526"><ele>223.0</ele><time>2026-04-25T11:20:05.279Z</time></trkpt><trkpt lat="41.7262299" lon="13.0097607"><ele>223.0</ele><time>2026-04-25T11:20:06.283Z</time></trkpt><trkpt lat="41.726314" lon="13.0097778"><ele>223.2</ele><time>2026-04-25T11:20:07.278Z</time></trkpt><trkpt lat="41.7264063" lon="13.0097927"><ele>223.4</ele><time>2026-04-25T11:20:08.277Z</time></trkpt><trkpt lat="41.7265213" lon="13.0098078"><ele>223.59999999999997</ele><time>2026-04-25T11:20:09.279Z</time></trkpt><trkpt lat="41.7266357" lon="13.0098244"><ele>223.79999999999998</ele><time>2026-04-25T11:20:10.279Z</time></trkpt><trkpt lat="41.7267519" lon="13.0098359"><ele>224.0</ele><time>2026-04-25T11:20:11.277Z</time></trkpt><trkpt lat="41.726855" lon="13.0098544"><ele>225.33333333333334</ele><time>2026-04-25T11:20:12.28Z</time></trkpt><trkpt lat="41.7269473" lon="13.0098923"><ele>226.66666666666669</ele><time>2026-04-25T11:20:13.278Z</time></trkpt><trkpt lat="41.7270087" lon="13.0099523"><ele>228.0</ele><time>2026-04-25T11:20:14.281Z</time></trkpt><trkpt lat="41.7270497" lon="13.0100244"><ele>229.33333333333331</ele><time>2026-04-25T11:20:15.277Z</time></trkpt><trkpt lat="41.727073" lon="13.0101204"><ele>230.66666666666666</ele><time>2026-04-25T11:20:16.281Z</time></trkpt><trkpt lat="41.7270764" lon="13.0102472"><ele>232.0</ele><time>2026-04-25T11:20:17.277Z</time></trkpt><trkpt lat="41.727082" lon="13.0103925"><ele>232.0</ele><time>2026-04-25T11:20:18.282Z</time></trkpt><trkpt lat="41.7271069" lon="13.0105433"><ele>232.0</ele><time>2026-04-25T11:20:19.282Z</time></trkpt><trkpt lat="41.7271383" lon="13.0106929"><ele>232.0</ele><time>2026-04-25T11:20:20.279Z</time></trkpt><trkpt lat="41.7271793" lon="13.0108403"><ele>232.0</ele><time>2026-04-25T11:20:21.39Z</time></trkpt><trkpt lat="41.7272778" lon="13.0110603"><ele>231.39999999999998</ele><time>2026-04-25T11:20:23.284Z</time></trkpt><trkpt lat="41.7273308" lon="13.0111732"><ele>230.79999999999998</ele><time>2026-04-25T11:20:24.28Z</time></trkpt><trkpt lat="41.7273837" lon="13.0112918"><ele>230.2</ele><time>2026-04-25T11:20:25.28Z</time></trkpt><trkpt lat="41.7274374" lon="13.0114032"><ele>229.6</ele><time>2026-04-25T11:20:26.281Z</time></trkpt><trkpt lat="41.7274911" lon="13.0115244"><ele>229.0</ele><time>2026-04-25T11:20:27.281Z</time></trkpt><trkpt lat="41.7275502" lon="13.0116675"><ele>228.75</ele><time>2026-04-25T11:20:28.283Z</time></trkpt><trkpt lat="41.7276133" lon="13.0118217"><ele>228.5</ele><time>2026-04-25T11:20:29.281Z</time></trkpt><trkpt lat="41.7276711" lon="13.0119764"><ele>228.25</ele><time>2026-04-25T11:20:30.28Z</time></trkpt><trkpt lat="41.7277228" lon="13.0121181"><ele>228.0</ele><time>2026-04-25T11:20:31.281Z</time></trkpt><trkpt lat="41.7277623" lon="13.0122512"><ele>227.60000000000002</ele><time>2026-04-25T11:20:32.281Z</time></trkpt><trkpt lat="41.7277787" lon="13.0123948"><ele>227.20000000000002</ele><time>2026-04-25T11:20:33.278Z</time></trkpt><trkpt lat="41.7277754" lon="13.0125373"><ele>226.8</ele><time>2026-04-25T11:20:34.28Z</time></trkpt><trkpt lat="41.7277803" lon="13.0126638"><ele>226.4</ele><time>2026-04-25T11:20:35.278Z</time></trkpt><trkpt lat="41.7278092" lon="13.0127746"><ele>226.0</ele><time>2026-04-25T11:20:36.279Z</time></trkpt><trkpt lat="41.7278614" lon="13.0128685"><ele>225.5</ele><time>2026-04-25T11:20:37.283Z</time></trkpt><trkpt lat="41.7279321" lon="13.0129538"><ele>225.0</ele><time>2026-04-25T11:20:38.278Z</time></trkpt><trkpt lat="41.7280051" lon="13.0130602"><ele>224.5</ele><time>2026-04-25T11:20:39.288Z</time></trkpt><trkpt lat="41.7280687" lon="13.013211"><ele>224.0</ele><time>2026-04-25T11:20:40.281Z</time></trkpt><trkpt lat="41.7281377" lon="13.0133937"><ele>222.66666666666669</ele><time>2026-04-25T11:20:41.285Z</time></trkpt><trkpt lat="41.7282101" lon="13.0135747"><ele>221.33333333333331</ele><time>2026-04-25T11:20:42.275Z</time></trkpt><trkpt lat="41.7282836" lon="13.0137538"><ele>220.0</ele><time>2026-04-25T11:20:43.279Z</time></trkpt><trkpt lat="41.7283548" lon="13.0139322"><ele>220.0</ele><time>2026-04-25T11:20:44.283Z</time></trkpt><trkpt lat="41.7284182" lon="13.0140909"><ele>220.0</ele><time>2026-04-25T11:20:45.279Z</time></trkpt><trkpt lat="41.7284703" lon="13.0142367"><ele>220.0</ele><time>2026-04-25T11:20:46.284Z</time></trkpt><trkpt lat="41.7285265" lon="13.0143614"><ele>220.0</ele><time>2026-04-25T11:20:47.279Z</time></trkpt><trkpt lat="41.7286004" lon="13.0145141"><ele>220.0</ele><time>2026-04-25T11:20:48.28Z</time></trkpt><trkpt lat="41.7286723" lon="13.0146546"><ele>220.0</ele><time>2026-04-25T11:20:49.28Z</time></trkpt><trkpt lat="41.7287428" lon="13.0147818"><ele>220.0</ele><time>2026-04-25T11:20:50.281Z</time></trkpt><trkpt lat="41.7288087" lon="13.0148992"><ele>220.0</ele><time>2026-04-25T11:20:51.28Z</time></trkpt><trkpt lat="41.728864" lon="13.0150221"><ele>218.75</ele><time>2026-04-25T11:20:52.283Z</time></trkpt><trkpt lat="41.7289392" lon="13.0151357"><ele>217.5</ele><time>2026-04-25T11:20:53.278Z</time></trkpt><trkpt lat="41.7290192" lon="13.0152592"><ele>216.25</ele><time>2026-04-25T11:20:54.28Z</time></trkpt><trkpt lat="41.7291101" lon="13.0154073"><ele>215.0</ele><time>2026-04-25T11:20:55.282Z</time></trkpt><trkpt lat="41.7292114" lon="13.0155585"><ele>215.0</ele><time>2026-04-25T11:20:56.28Z</time></trkpt><trkpt lat="41.7292981" lon="13.0157108"><ele>215.0</ele><time>2026-04-25T11:20:57.281Z</time></trkpt><trkpt lat="41.7293801" lon="13.0158584"><ele>215.0</ele><time>2026-04-25T11:20:58.28Z</time></trkpt><trkpt lat="41.7294719" lon="13.0160006"><ele>215.0</ele><time>2026-04-25T11:20:59.281Z</time></trkpt><trkpt lat="41.729577" lon="13.0161467"><ele>213.0</ele><time>2026-04-25T11:21:00.28Z</time></trkpt><trkpt lat="41.7296908" lon="13.0162842"><ele>211.0</ele><time>2026-04-25T11:21:01.279Z</time></trkpt><trkpt lat="41.7298102" lon="13.0164267"><ele>209.0</ele><time>2026-04-25T11:21:02.281Z</time></trkpt><trkpt lat="41.729927" lon="13.0165562"><ele>208.75</ele><time>2026-04-25T11:21:03.285Z</time></trkpt><trkpt lat="41.7300395" lon="13.0166861"><ele>208.5</ele><time>2026-04-25T11:21:04.281Z</time></trkpt><trkpt lat="41.7301503" lon="13.0168223"><ele>208.25</ele><time>2026-04-25T11:21:05.279Z</time></trkpt><trkpt lat="41.730249" lon="13.0169524"><ele>208.0</ele><time>2026-04-25T11:21:06.283Z</time></trkpt><trkpt lat="41.7303411" lon="13.0170761"><ele>207.75</ele><time>2026-04-25T11:21:07.281Z</time></trkpt><trkpt lat="41.7304508" lon="13.017205"><ele>207.5</ele><time>2026-04-25T11:21:08.279Z</time></trkpt><trkpt lat="41.7305621" lon="13.0173359"><ele>207.25</ele><time>2026-04-25T11:21:09.282Z</time></trkpt><trkpt lat="41.7306686" lon="13.0174692"><ele>207.0</ele><time>2026-04-25T11:21:10.278Z</time></trkpt><trkpt lat="41.7307732" lon="13.0176007"><ele>207.0</ele><time>2026-04-25T11:21:11.279Z</time></trkpt><trkpt lat="41.7308727" lon="13.0177187"><ele>207.0</ele><time>2026-04-25T11:21:12.282Z</time></trkpt><trkpt lat="41.7309605" lon="13.0178257"><ele>207.0</ele><time>2026-04-25T11:21:13.278Z</time></trkpt><trkpt lat="41.731043" lon="13.0179291"><ele>207.0</ele><time>2026-04-25T11:21:14.277Z</time></trkpt><trkpt lat="41.7311197" lon="13.0180235"><ele>206.83333333333334</ele><time>2026-04-25T11:21:15.276Z</time></trkpt><trkpt lat="41.7311909" lon="13.0180811"><ele>206.66666666666669</ele><time>2026-04-25T11:21:16.277Z</time></trkpt><trkpt lat="41.7312569" lon="13.0180959"><ele>206.5</ele><time>2026-04-25T11:21:17.279Z</time></trkpt><trkpt lat="41.7313245" lon="13.0180828"><ele>206.33333333333334</ele><time>2026-04-25T11:21:18.279Z</time></trkpt><trkpt lat="41.7313961" lon="13.0180345"><ele>206.16666666666669</ele><time>2026-04-25T11:21:19.277Z</time></trkpt><trkpt lat="41.7314618" lon="13.0179537"><ele>206.0</ele><time>2026-04-25T11:21:20.279Z</time></trkpt><trkpt lat="41.7315197" lon="13.0178462"><ele>206.0</ele><time>2026-04-25T11:21:21.278Z</time></trkpt><trkpt lat="41.7315848" lon="13.0177138"><ele>206.0</ele><time>2026-04-25T11:21:22.285Z</time></trkpt><trkpt lat="41.7316707" lon="13.017571"><ele>206.0</ele><time>2026-04-25T11:21:23.278Z</time></trkpt><trkpt lat="41.7317698" lon="13.017425"><ele>206.0</ele><time>2026-04-25T11:21:24.277Z</time></trkpt><trkpt lat="41.7318693" lon="13.0172804"><ele>206.0</ele><time>2026-04-25T11:21:25.284Z</time></trkpt><trkpt lat="41.7319686" lon="13.0171422"><ele>206.0</ele><time>2026-04-25T11:21:26.275Z</time></trkpt><trkpt lat="41.7320629" lon="13.0169962"><ele>206.0</ele><time>2026-04-25T11:21:27.28Z</time></trkpt><trkpt lat="41.7321489" lon="13.0168472"><ele>206.0</ele><time>2026-04-25T11:21:28.274Z</time></trkpt><trkpt lat="41.7322301" lon="13.0166983"><ele>205.25</ele><time>2026-04-25T11:21:29.28Z</time></trkpt><trkpt lat="41.7323117" lon="13.0165466"><ele>204.5</ele><time>2026-04-25T11:21:30.279Z</time></trkpt><trkpt lat="41.7323946" lon="13.0163918"><ele>203.75</ele><time>2026-04-25T11:21:31.279Z</time></trkpt><trkpt lat="41.7324673" lon="13.0162401"><ele>203.0</ele><time>2026-04-25T11:21:32.281Z</time></trkpt><trkpt lat="41.732527" lon="13.0160989"><ele>203.0</ele><time>2026-04-25T11:21:33.282Z</time></trkpt><trkpt lat="41.7325768" lon="13.0159692"><ele>203.0</ele><time>2026-04-25T11:21:34.279Z</time></trkpt><trkpt lat="41.7326228" lon="13.0158351"><ele>203.0</ele><time>2026-04-25T11:21:35.279Z</time></trkpt><trkpt lat="41.7326728" lon="13.0157064"><ele>203.0</ele><time>2026-04-25T11:21:36.285Z</time></trkpt><trkpt lat="41.7327405" lon="13.0156059"><ele>203.0</ele><time>2026-04-25T11:21:37.285Z</time></trkpt><trkpt lat="41.7328149" lon="13.0155087"><ele>202.75</ele><time>2026-04-25T11:21:38.279Z</time></trkpt><trkpt lat="41.7328866" lon="13.0153886"><ele>202.5</ele><time>2026-04-25T11:21:39.279Z</time></trkpt><trkpt lat="41.7329567" lon="13.0152629"><ele>202.25</ele><time>2026-04-25T11:21:40.28Z</time></trkpt><trkpt lat="41.7330309" lon="13.0151225"><ele>202.0</ele><time>2026-04-25T11:21:41.276Z</time></trkpt><trkpt lat="41.7331073" lon="13.0149616"><ele>204.0</ele><time>2026-04-25T11:21:42.275Z</time></trkpt><trkpt lat="41.7331805" lon="13.0147894"><ele>206.0</ele><time>2026-04-25T11:21:43.281Z</time></trkpt><trkpt lat="41.7332501" lon="13.0146219"><ele>208.0</ele><time>2026-04-25T11:21:44.281Z</time></trkpt><trkpt lat="41.7333171" lon="13.01446"><ele>210.0</ele><time>2026-04-25T11:21:45.276Z</time></trkpt><trkpt lat="41.7333788" lon="13.0143131"><ele>210.0</ele><time>2026-04-25T11:21:46.288Z</time></trkpt><trkpt lat="41.7334395" lon="13.0141625"><ele>210.0</ele><time>2026-04-25T11:21:47.279Z</time></trkpt><trkpt lat="41.7335026" lon="13.0140014"><ele>210.0</ele><time>2026-04-25T11:21:48.28Z</time></trkpt><trkpt lat="41.7335735" lon="13.0138382"><ele>210.0</ele><time>2026-04-25T11:21:49.284Z</time></trkpt><trkpt lat="41.7336519" lon="13.0136741"><ele>210.25</ele><time>2026-04-25T11:21:50.28Z</time></trkpt><trkpt lat="41.7337446" lon="13.01352"><ele>210.5</ele><time>2026-04-25T11:21:51.288Z</time></trkpt><trkpt lat="41.7338553" lon="13.0133784"><ele>210.75</ele><time>2026-04-25T11:21:52.28Z</time></trkpt><trkpt lat="41.7339628" lon="13.0132453"><ele>211.0</ele><time>2026-04-25T11:21:53.285Z</time></trkpt><trkpt lat="41.7340598" lon="13.0131236"><ele>211.0</ele><time>2026-04-25T11:21:54.278Z</time></trkpt><trkpt lat="41.7341413" lon="13.0130023"><ele>211.0</ele><time>2026-04-25T11:21:55.28Z</time></trkpt><trkpt lat="41.7342089" lon="13.0128563"><ele>211.0</ele><time>2026-04-25T11:21:56.277Z</time></trkpt><trkpt lat="41.7342703" lon="13.0126852"><ele>211.0</ele><time>2026-04-25T11:21:57.353Z</time></trkpt><trkpt lat="41.7343079" lon="13.0125054"><ele>211.75</ele><time>2026-04-25T11:21:58.275Z</time></trkpt><trkpt lat="41.7343355" lon="13.0123058"><ele>212.5</ele><time>2026-04-25T11:21:59.277Z</time></trkpt><trkpt lat="41.7343648" lon="13.0121125"><ele>213.25</ele><time>2026-04-25T11:22:00.285Z</time></trkpt><trkpt lat="41.7344075" lon="13.0119196"><ele>214.0</ele><time>2026-04-25T11:22:01.277Z</time></trkpt><trkpt lat="41.734458" lon="13.0117267"><ele>212.25</ele><time>2026-04-25T11:22:02.278Z</time></trkpt><trkpt lat="41.7345047" lon="13.0115368"><ele>210.5</ele><time>2026-04-25T11:22:03.278Z</time></trkpt><trkpt lat="41.7345495" lon="13.011365"><ele>208.75</ele><time>2026-04-25T11:22:04.278Z</time></trkpt><trkpt lat="41.7345903" lon="13.0112093"><ele>207.0</ele><time>2026-04-25T11:22:05.286Z</time></trkpt><trkpt lat="41.7346287" lon="13.0110657"><ele>207.0</ele><time>2026-04-25T11:22:06.277Z</time></trkpt><trkpt lat="41.7346617" lon="13.0109284"><ele>207.0</ele><time>2026-04-25T11:22:07.277Z</time></trkpt><trkpt lat="41.7346925" lon="13.0108002"><ele>207.0</ele><time>2026-04-25T11:22:08.277Z</time></trkpt><trkpt lat="41.7347214" lon="13.0106858"><ele>207.0</ele><time>2026-04-25T11:22:09.277Z</time></trkpt><trkpt lat="41.73475" lon="13.0105836"><ele>207.0</ele><time>2026-04-25T11:22:10.279Z</time></trkpt><trkpt lat="41.7347767" lon="13.0104886"><ele>207.0</ele><time>2026-04-25T11:22:11.284Z</time></trkpt><trkpt lat="41.7347891" lon="13.0103927"><ele>207.0</ele><time>2026-04-25T11:22:12.285Z</time></trkpt><trkpt lat="41.7347777" lon="13.0102965"><ele>207.0</ele><time>2026-04-25T11:22:13.285Z</time></trkpt><trkpt lat="41.7347413" lon="13.0102017"><ele>207.0</ele><time>2026-04-25T11:22:14.284Z</time></trkpt><trkpt lat="41.7346803" lon="13.0101136"><ele>207.0</ele><time>2026-04-25T11:22:15.279Z</time></trkpt><trkpt lat="41.7346026" lon="13.0100352"><ele>207.0</ele><time>2026-04-25T11:22:16.279Z</time></trkpt><trkpt lat="41.7345377" lon="13.0099602"><ele>207.2</ele><time>2026-04-25T11:22:17.278Z</time></trkpt><trkpt lat="41.7344662" lon="13.009885"><ele>207.39999999999998</ele><time>2026-04-25T11:22:18.277Z</time></trkpt><trkpt lat="41.7343861" lon="13.0098041"><ele>207.60000000000002</ele><time>2026-04-25T11:22:19.28Z</time></trkpt><trkpt lat="41.7343001" lon="13.0097027"><ele>207.8</ele><time>2026-04-25T11:22:20.286Z</time></trkpt><trkpt lat="41.7342256" lon="13.0096117"><ele>208.0</ele><time>2026-04-25T11:22:21.285Z</time></trkpt><trkpt lat="41.7341564" lon="13.009533"><ele>208.60000000000002</ele><time>2026-04-25T11:22:22.282Z</time></trkpt><trkpt lat="41.7341046" lon="13.0094682"><ele>209.20000000000002</ele><time>2026-04-25T11:22:23.285Z</time></trkpt><trkpt lat="41.7340122" lon="13.0093655"><ele>209.8</ele><time>2026-04-25T11:22:25.286Z</time></trkpt><trkpt lat="41.7339553" lon="13.0093175"><ele>210.4</ele><time>2026-04-25T11:22:26.282Z</time></trkpt><trkpt lat="41.7338503" lon="13.0092211"><ele>211.0</ele><time>2026-04-25T11:22:28.286Z</time></trkpt><trkpt lat="41.7338018" lon="13.0091635"><ele>211.16666666666666</ele><time>2026-04-25T11:22:29.288Z</time></trkpt><trkpt lat="41.7337509" lon="13.0091065"><ele>211.33333333333331</ele><time>2026-04-25T11:22:30.28Z</time></trkpt><trkpt lat="41.7337028" lon="13.009044"><ele>211.5</ele><time>2026-04-25T11:22:31.286Z</time></trkpt><trkpt lat="41.7336321" lon="13.0089738"><ele>211.66666666666669</ele><time>2026-04-25T11:22:32.284Z</time></trkpt><trkpt lat="41.7335518" lon="13.0088849"><ele>211.83333333333334</ele><time>2026-04-25T11:22:33.288Z</time></trkpt><trkpt lat="41.7334818" lon="13.0087986"><ele>212.0</ele><time>2026-04-25T11:22:34.28Z</time></trkpt><trkpt lat="41.7334133" lon="13.0087181"><ele>212.0</ele><time>2026-04-25T11:22:35.291Z</time></trkpt><trkpt lat="41.7333545" lon="13.0086464"><ele>212.0</ele><time>2026-04-25T11:22:36.279Z</time></trkpt><trkpt lat="41.7333022" lon="13.0085859"><ele>212.0</ele><time>2026-04-25T11:22:37.287Z</time></trkpt><trkpt lat="41.7332665" lon="13.0085116"><ele>212.0</ele><time>2026-04-25T11:22:40.284Z</time></trkpt><trkpt lat="41.7333072" lon="13.0084087"><ele>212.0</ele><time>2026-04-25T11:22:42.293Z</time></trkpt><trkpt lat="41.7333504" lon="13.0083358"><ele>212.0</ele><time>2026-04-25T11:22:43.279Z</time></trkpt><trkpt lat="41.7333957" lon="13.0082676"><ele>212.0</ele><time>2026-04-25T11:22:44.287Z</time></trkpt><trkpt lat="41.7334509" lon="13.0081895"><ele>212.2</ele><time>2026-04-25T11:22:46.281Z</time></trkpt><trkpt lat="41.7335294" lon="13.0081677"><ele>212.39999999999998</ele><time>2026-04-25T11:23:00.28Z</time></trkpt><trkpt lat="41.7336385" lon="13.0082889"><ele>212.60000000000002</ele><time>2026-04-25T11:23:02.28Z</time></trkpt><trkpt lat="41.7337105" lon="13.0083717"><ele>212.8</ele><time>2026-04-25T11:23:03.284Z</time></trkpt><trkpt lat="41.7337919" lon="13.0084618"><ele>213.0</ele><time>2026-04-25T11:23:04.276Z</time></trkpt><trkpt lat="41.7338765" lon="13.008549"><ele>212.2</ele><time>2026-04-25T11:23:05.278Z</time></trkpt><trkpt lat="41.7339537" lon="13.0086372"><ele>211.4</ele><time>2026-04-25T11:23:06.278Z</time></trkpt><trkpt lat="41.7340271" lon="13.0087234"><ele>210.6</ele><time>2026-04-25T11:23:07.279Z</time></trkpt><trkpt lat="41.7340965" lon="13.0088094"><ele>209.79999999999998</ele><time>2026-04-25T11:23:08.279Z</time></trkpt><trkpt lat="41.7341558" lon="13.0088907"><ele>209.0</ele><time>2026-04-25T11:23:09.286Z</time></trkpt><trkpt lat="41.7342053" lon="13.0089704"><ele>209.00000000000003</ele><time>2026-04-25T11:23:10.277Z</time></trkpt><trkpt lat="41.7342633" lon="13.0090886"><ele>209.0</ele><time>2026-04-25T11:23:12.277Z</time></trkpt><trkpt lat="41.7343346" lon="13.0091342"><ele>209.0</ele><time>2026-04-25T11:23:14.28Z</time></trkpt><trkpt lat="41.7344032" lon="13.0091718"><ele>209.0</ele><time>2026-04-25T11:23:16.279Z</time></trkpt><trkpt lat="41.7344673" lon="13.009201"><ele>209.00000000000003</ele><time>2026-04-25T11:23:17.285Z</time></trkpt><trkpt lat="41.7345445" lon="13.0092636"><ele>209.0</ele><time>2026-04-25T11:23:18.288Z</time></trkpt><trkpt lat="41.7346176" lon="13.0093346"><ele>208.75</ele><time>2026-04-25T11:23:19.278Z</time></trkpt><trkpt lat="41.7347156" lon="13.0094275"><ele>208.5</ele><time>2026-04-25T11:23:20.273Z</time></trkpt><trkpt lat="41.734835" lon="13.0095174"><ele>208.25</ele><time>2026-04-25T11:23:21.288Z</time></trkpt><trkpt lat="41.734987" lon="13.0096213"><ele>208.0</ele><time>2026-04-25T11:23:22.278Z</time></trkpt><trkpt lat="41.7351341" lon="13.0097175"><ele>207.25</ele><time>2026-04-25T11:23:23.274Z</time></trkpt><trkpt lat="41.7352698" lon="13.0097984"><ele>206.5</ele><time>2026-04-25T11:23:24.294Z</time></trkpt><trkpt lat="41.7353848" lon="13.0098716"><ele>205.75</ele><time>2026-04-25T11:23:25.273Z</time></trkpt><trkpt lat="41.7354979" lon="13.0099372"><ele>205.0</ele><time>2026-04-25T11:23:26.291Z</time></trkpt><trkpt lat="41.7356165" lon="13.0099808"><ele>205.0</ele><time>2026-04-25T11:23:27.275Z</time></trkpt><trkpt lat="41.7357378" lon="13.0100055"><ele>205.0</ele><time>2026-04-25T11:23:28.284Z</time></trkpt><trkpt lat="41.7358596" lon="13.0100007"><ele>205.0</ele><time>2026-04-25T11:23:29.271Z</time></trkpt><trkpt lat="41.7359812" lon="13.0099755"><ele>205.0</ele><time>2026-04-25T11:23:30.288Z</time></trkpt><trkpt lat="41.7361062" lon="13.0099203"><ele>204.5</ele><time>2026-04-25T11:23:31.277Z</time></trkpt><trkpt lat="41.7362203" lon="13.0098355"><ele>204.0</ele><time>2026-04-25T11:23:32.277Z</time></trkpt><trkpt lat="41.7363302" lon="13.0097373"><ele>203.5</ele><time>2026-04-25T11:23:33.28Z</time></trkpt><trkpt lat="41.736438" lon="13.0096275"><ele>203.0</ele><time>2026-04-25T11:23:34.279Z</time></trkpt><trkpt lat="41.7365433" lon="13.009503"><ele>203.0</ele><time>2026-04-25T11:23:35.277Z</time></trkpt><trkpt lat="41.7366421" lon="13.0093848"><ele>203.0</ele><time>2026-04-25T11:23:36.274Z</time></trkpt><trkpt lat="41.736728" lon="13.0092784"><ele>203.0</ele><time>2026-04-25T11:23:37.276Z</time></trkpt><trkpt lat="41.7368073" lon="13.0091948"><ele>203.0</ele><time>2026-04-25T11:23:38.277Z</time></trkpt><trkpt lat="41.7368752" lon="13.0091504"><ele>203.0</ele><time>2026-04-25T11:23:39.273Z</time></trkpt><trkpt lat="41.736939" lon="13.0091438"><ele>203.2</ele><time>2026-04-25T11:23:40.295Z</time></trkpt><trkpt lat="41.737051" lon="13.0091778"><ele>203.4</ele><time>2026-04-25T11:23:42.275Z</time></trkpt><trkpt lat="41.737152" lon="13.0091259"><ele>203.6</ele><time>2026-04-25T11:23:44.275Z</time></trkpt><trkpt lat="41.7372036" lon="13.0089745"><ele>203.79999999999998</ele><time>2026-04-25T11:23:46.292Z</time></trkpt><trkpt lat="41.7372289" lon="13.0088815"><ele>204.0</ele><time>2026-04-25T11:23:47.281Z</time></trkpt><trkpt lat="41.7372794" lon="13.0087908"><ele>203.6</ele><time>2026-04-25T11:23:48.275Z</time></trkpt><trkpt lat="41.7373433" lon="13.0086905"><ele>203.2</ele><time>2026-04-25T11:23:49.28Z</time></trkpt><trkpt lat="41.7374121" lon="13.008607"><ele>202.79999999999998</ele><time>2026-04-25T11:23:50.282Z</time></trkpt><trkpt lat="41.7374797" lon="13.008525"><ele>202.39999999999998</ele><time>2026-04-25T11:23:51.285Z</time></trkpt><trkpt lat="41.7375312" lon="13.0084605"><ele>202.0</ele><time>2026-04-25T11:23:52.273Z</time></trkpt><trkpt lat="41.7376299" lon="13.0084155"><ele>202.39999999999998</ele><time>2026-04-25T11:23:54.272Z</time></trkpt><trkpt lat="41.7377328" lon="13.0084028"><ele>202.79999999999998</ele><time>2026-04-25T11:23:56.278Z</time></trkpt><trkpt lat="41.7378287" lon="13.0083274"><ele>203.2</ele><time>2026-04-25T11:23:58.279Z</time></trkpt><trkpt lat="41.7378692" lon="13.0081719"><ele>203.6</ele><time>2026-04-25T11:24:00.279Z</time></trkpt><trkpt lat="41.7378866" lon="13.0080792"><ele>204.0</ele><time>2026-04-25T11:24:01.289Z</time></trkpt><trkpt lat="41.7379478" lon="13.0079276"><ele>204.0</ele><time>2026-04-25T11:24:03.28Z</time></trkpt><trkpt lat="41.7380085" lon="13.0078506"><ele>204.0</ele><time>2026-04-25T11:24:04.274Z</time></trkpt><trkpt lat="41.7380957" lon="13.0077559"><ele>204.0</ele><time>2026-04-25T11:24:05.279Z</time></trkpt><trkpt lat="41.7381968" lon="13.007671"><ele>204.0</ele><time>2026-04-25T11:24:06.278Z</time></trkpt><trkpt lat="41.7382973" lon="13.0075902"><ele>204.0</ele><time>2026-04-25T11:24:07.282Z</time></trkpt><trkpt lat="41.7384038" lon="13.0075134"><ele>204.0</ele><time>2026-04-25T11:24:08.274Z</time></trkpt><trkpt lat="41.7385046" lon="13.0074433"><ele>204.0</ele><time>2026-04-25T11:24:09.275Z</time></trkpt><trkpt lat="41.7385995" lon="13.00738"><ele>204.0</ele><time>2026-04-25T11:24:10.279Z</time></trkpt><trkpt lat="41.7387041" lon="13.00732"><ele>204.0</ele><time>2026-04-25T11:24:11.279Z</time></trkpt><trkpt lat="41.7388066" lon="13.0072589"><ele>204.0</ele><time>2026-04-25T11:24:12.284Z</time></trkpt><trkpt lat="41.7389026" lon="13.0072014"><ele>204.2</ele><time>2026-04-25T11:24:13.286Z</time></trkpt><trkpt lat="41.738999" lon="13.0071442"><ele>204.39999999999998</ele><time>2026-04-25T11:24:14.279Z</time></trkpt><trkpt lat="41.7391001" lon="13.0070817"><ele>204.6</ele><time>2026-04-25T11:24:15.277Z</time></trkpt><trkpt lat="41.7391999" lon="13.007023"><ele>204.8</ele><time>2026-04-25T11:24:16.291Z</time></trkpt><trkpt lat="41.7392956" lon="13.0069644"><ele>205.0</ele><time>2026-04-25T11:24:17.278Z</time></trkpt><trkpt lat="41.7393799" lon="13.0069183"><ele>204.83333333333331</ele><time>2026-04-25T11:24:18.292Z</time></trkpt><trkpt lat="41.739468" lon="13.0068829"><ele>204.66666666666666</ele><time>2026-04-25T11:24:19.287Z</time></trkpt><trkpt lat="41.7395518" lon="13.0069027"><ele>204.5</ele><time>2026-04-25T11:24:20.276Z</time></trkpt><trkpt lat="41.739627" lon="13.0069208"><ele>204.33333333333331</ele><time>2026-04-25T11:24:21.286Z</time></trkpt><trkpt lat="41.7396958" lon="13.0069195"><ele>204.16666666666666</ele><time>2026-04-25T11:24:22.279Z</time></trkpt><trkpt lat="41.7398091" lon="13.0068513"><ele>204.0</ele><time>2026-04-25T11:24:24.277Z</time></trkpt><trkpt lat="41.7398513" lon="13.0067708"><ele>204.0</ele><time>2026-04-25T11:24:25.28Z</time></trkpt><trkpt lat="41.7398734" lon="13.0066735"><ele>204.0</ele><time>2026-04-25T11:24:26.278Z</time></trkpt><trkpt lat="41.7398565" lon="13.0065787"><ele>204.0</ele><time>2026-04-25T11:24:27.278Z</time></trkpt><trkpt lat="41.7398215" lon="13.0064703"><ele>204.0</ele><time>2026-04-25T11:24:28.282Z</time></trkpt><trkpt lat="41.7398063" lon="13.0063298"><ele>204.0</ele><time>2026-04-25T11:24:29.29Z</time></trkpt><trkpt lat="41.7398209" lon="13.0061702"><ele>204.25</ele><time>2026-04-25T11:24:30.283Z</time></trkpt><trkpt lat="41.7398521" lon="13.0059984"><ele>204.5</ele><time>2026-04-25T11:24:31.281Z</time></trkpt><trkpt lat="41.7399049" lon="13.0058285"><ele>204.75</ele><time>2026-04-25T11:24:32.277Z</time></trkpt><trkpt lat="41.7399825" lon="13.0056701"><ele>205.0</ele><time>2026-04-25T11:24:33.274Z</time></trkpt><trkpt lat="41.7400798" lon="13.0055357"><ele>205.0</ele><time>2026-04-25T11:24:34.28Z</time></trkpt><trkpt lat="41.7401918" lon="13.0054197"><ele>205.0</ele><time>2026-04-25T11:24:35.271Z</time></trkpt><trkpt lat="41.7403087" lon="13.005323"><ele>205.0</ele><time>2026-04-25T11:24:36.285Z</time></trkpt><trkpt lat="41.7404136" lon="13.0052476"><ele>205.0</ele><time>2026-04-25T11:24:37.274Z</time></trkpt><trkpt lat="41.7405094" lon="13.0051783"><ele>205.0</ele><time>2026-04-25T11:24:38.288Z</time></trkpt><trkpt lat="41.7406223" lon="13.0051247"><ele>205.0</ele><time>2026-04-25T11:24:39.277Z</time></trkpt><trkpt lat="41.7407601" lon="13.0050727"><ele>205.0</ele><time>2026-04-25T11:24:40.279Z</time></trkpt><trkpt lat="41.7409058" lon="13.0049969"><ele>205.0</ele><time>2026-04-25T11:24:41.29Z</time></trkpt><trkpt lat="41.7410651" lon="13.0049153"><ele>205.66666666666666</ele><time>2026-04-25T11:24:42.285Z</time></trkpt><trkpt lat="41.7412205" lon="13.0048376"><ele>206.33333333333331</ele><time>2026-04-25T11:24:43.271Z</time></trkpt><trkpt lat="41.741363" lon="13.0047694"><ele>207.0</ele><time>2026-04-25T11:24:44.279Z</time></trkpt><trkpt lat="41.7414906" lon="13.004703"><ele>207.0</ele><time>2026-04-25T11:24:45.285Z</time></trkpt><trkpt lat="41.7416101" lon="13.0046376"><ele>207.0</ele><time>2026-04-25T11:24:46.277Z</time></trkpt><trkpt lat="41.7417254" lon="13.004568"><ele>207.0</ele><time>2026-04-25T11:24:47.278Z</time></trkpt><trkpt lat="41.7418384" lon="13.0045098"><ele>207.0</ele><time>2026-04-25T11:24:48.282Z</time></trkpt><trkpt lat="41.7419527" lon="13.0044687"><ele>207.75</ele><time>2026-04-25T11:24:49.286Z</time></trkpt><trkpt lat="41.7420758" lon="13.0044293"><ele>208.5</ele><time>2026-04-25T11:24:50.274Z</time></trkpt><trkpt lat="41.7421948" lon="13.0043738"><ele>209.25</ele><time>2026-04-25T11:24:51.285Z</time></trkpt><trkpt lat="41.7423184" lon="13.0043156"><ele>210.0</ele><time>2026-04-25T11:24:52.274Z</time></trkpt><trkpt lat="41.7424384" lon="13.0042694"><ele>210.0</ele><time>2026-04-25T11:24:53.277Z</time></trkpt><trkpt lat="41.742567" lon="13.0042185"><ele>210.0</ele><time>2026-04-25T11:24:54.277Z</time></trkpt><trkpt lat="41.7426936" lon="13.0041517"><ele>210.0</ele><time>2026-04-25T11:24:55.281Z</time></trkpt><trkpt lat="41.7428154" lon="13.004079"><ele>210.0</ele><time>2026-04-25T11:24:56.281Z</time></trkpt><trkpt lat="41.7429392" lon="13.0039994"><ele>211.0</ele><time>2026-04-25T11:24:57.29Z</time></trkpt><trkpt lat="41.7430645" lon="13.003894"><ele>212.0</ele><time>2026-04-25T11:24:58.277Z</time></trkpt><trkpt lat="41.7431849" lon="13.0037595"><ele>213.0</ele><time>2026-04-25T11:24:59.283Z</time></trkpt><trkpt lat="41.7432855" lon="13.0036092"><ele>213.0</ele><time>2026-04-25T11:25:00.279Z</time></trkpt><trkpt lat="41.7433731" lon="13.0034438"><ele>213.0</ele><time>2026-04-25T11:25:01.281Z</time></trkpt><trkpt lat="41.743438" lon="13.0032801"><ele>213.0</ele><time>2026-04-25T11:25:02.278Z</time></trkpt><trkpt lat="41.7434954" lon="13.0031196"><ele>213.0</ele><time>2026-04-25T11:25:03.28Z</time></trkpt><trkpt lat="41.7435398" lon="13.0029928"><ele>212.8</ele><time>2026-04-25T11:25:04.272Z</time></trkpt><trkpt lat="41.7435768" lon="13.0028986"><ele>212.60000000000002</ele><time>2026-04-25T11:25:05.271Z</time></trkpt><trkpt lat="41.743614" lon="13.0027998"><ele>212.39999999999998</ele><time>2026-04-25T11:25:06.284Z</time></trkpt><trkpt lat="41.7436527" lon="13.0026861"><ele>212.2</ele><time>2026-04-25T11:25:07.279Z</time></trkpt><trkpt lat="41.7436961" lon="13.0025509"><ele>212.0</ele><time>2026-04-25T11:25:08.278Z</time></trkpt><trkpt lat="41.7437472" lon="13.002415"><ele>211.25</ele><time>2026-04-25T11:25:09.279Z</time></trkpt><trkpt lat="41.7437989" lon="13.0022803"><ele>210.5</ele><time>2026-04-25T11:25:10.288Z</time></trkpt><trkpt lat="41.743849" lon="13.002143"><ele>209.75</ele><time>2026-04-25T11:25:11.274Z</time></trkpt><trkpt lat="41.7438954" lon="13.0020008"><ele>209.0</ele><time>2026-04-25T11:25:12.292Z</time></trkpt><trkpt lat="41.7439404" lon="13.0018558"><ele>209.0</ele><time>2026-04-25T11:25:13.273Z</time></trkpt><trkpt lat="41.7439775" lon="13.0017035"><ele>209.0</ele><time>2026-04-25T11:25:14.272Z</time></trkpt><trkpt lat="41.7439986" lon="13.0015426"><ele>209.0</ele><time>2026-04-25T11:25:15.279Z</time></trkpt><trkpt lat="41.744011" lon="13.0013701"><ele>209.0</ele><time>2026-04-25T11:25:16.274Z</time></trkpt><trkpt lat="41.7440193" lon="13.0011845"><ele>208.75</ele><time>2026-04-25T11:25:17.279Z</time></trkpt><trkpt lat="41.7440198" lon="13.0009922"><ele>208.5</ele><time>2026-04-25T11:25:18.274Z</time></trkpt><trkpt lat="41.7440181" lon="13.0007965"><ele>208.25</ele><time>2026-04-25T11:25:19.28Z</time></trkpt><trkpt lat="41.7440151" lon="13.0006044"><ele>208.0</ele><time>2026-04-25T11:25:20.275Z</time></trkpt><trkpt lat="41.7440118" lon="13.0004098"><ele>208.0</ele><time>2026-04-25T11:25:21.287Z</time></trkpt><trkpt lat="41.7440111" lon="13.0002169"><ele>208.0</ele><time>2026-04-25T11:25:22.275Z</time></trkpt><trkpt lat="41.7440141" lon="13.0000212"><ele>208.0</ele><time>2026-04-25T11:25:23.275Z</time></trkpt><trkpt lat="41.744025" lon="12.9998205"><ele>208.0</ele><time>2026-04-25T11:25:24.287Z</time></trkpt><trkpt lat="41.7440508" lon="12.999615"><ele>208.0</ele><time>2026-04-25T11:25:25.279Z</time></trkpt><trkpt lat="41.7440949" lon="12.9994096"><ele>208.0</ele><time>2026-04-25T11:25:26.28Z</time></trkpt><trkpt lat="41.7441472" lon="12.9992128"><ele>208.0</ele><time>2026-04-25T11:25:27.278Z</time></trkpt><trkpt lat="41.7442035" lon="12.9990234"><ele>207.66666666666666</ele><time>2026-04-25T11:25:28.271Z</time></trkpt><trkpt lat="41.7442739" lon="12.9988381"><ele>207.33333333333331</ele><time>2026-04-25T11:25:29.28Z</time></trkpt><trkpt lat="41.7443659" lon="12.998669"><ele>207.0</ele><time>2026-04-25T11:25:30.277Z</time></trkpt><trkpt lat="41.7444705" lon="12.9985116"><ele>208.0</ele><time>2026-04-25T11:25:31.271Z</time></trkpt><trkpt lat="41.7445789" lon="12.9983515"><ele>209.0</ele><time>2026-04-25T11:25:32.279Z</time></trkpt><trkpt lat="41.7446871" lon="12.9981928"><ele>210.0</ele><time>2026-04-25T11:25:33.288Z</time></trkpt><trkpt lat="41.744796" lon="12.9980411"><ele>210.0</ele><time>2026-04-25T11:25:34.273Z</time></trkpt><trkpt lat="41.7449033" lon="12.9978927"><ele>210.0</ele><time>2026-04-25T11:25:35.271Z</time></trkpt><trkpt lat="41.7450095" lon="12.9977444"><ele>210.0</ele><time>2026-04-25T11:25:36.272Z</time></trkpt><trkpt lat="41.7451184" lon="12.9975931"><ele>214.66666666666669</ele><time>2026-04-25T11:25:37.28Z</time></trkpt><trkpt lat="41.7452276" lon="12.9974482"><ele>219.33333333333334</ele><time>2026-04-25T11:25:38.277Z</time></trkpt><trkpt lat="41.7453378" lon="12.9973087"><ele>224.0</ele><time>2026-04-25T11:25:39.274Z</time></trkpt><trkpt lat="41.7454511" lon="12.9971731"><ele>224.0</ele><time>2026-04-25T11:25:40.274Z</time></trkpt><trkpt lat="41.7455702" lon="12.997045"><ele>224.0</ele><time>2026-04-25T11:25:41.278Z</time></trkpt><trkpt lat="41.7456929" lon="12.9969159"><ele>224.0</ele><time>2026-04-25T11:25:42.283Z</time></trkpt><trkpt lat="41.7458191" lon="12.9967849"><ele>225.0</ele><time>2026-04-25T11:25:43.281Z</time></trkpt><trkpt lat="41.7459473" lon="12.9966496"><ele>226.0</ele><time>2026-04-25T11:25:44.283Z</time></trkpt><trkpt lat="41.7460797" lon="12.9965035"><ele>227.0</ele><time>2026-04-25T11:25:45.273Z</time></trkpt><trkpt lat="41.7462238" lon="12.9963414"><ele>227.0</ele><time>2026-04-25T11:25:46.273Z</time></trkpt><trkpt lat="41.7463937" lon="12.9961585"><ele>227.0</ele><time>2026-04-25T11:25:47.277Z</time></trkpt><trkpt lat="41.7465823" lon="12.9959624"><ele>226.0</ele><time>2026-04-25T11:25:48.278Z</time></trkpt><trkpt lat="41.7467663" lon="12.9957776"><ele>225.0</ele><time>2026-04-25T11:25:49.284Z</time></trkpt><trkpt lat="41.7469308" lon="12.9956081"><ele>224.0</ele><time>2026-04-25T11:25:50.283Z</time></trkpt><trkpt lat="41.7470682" lon="12.9954552"><ele>224.0</ele><time>2026-04-25T11:25:51.279Z</time></trkpt><trkpt lat="41.747187" lon="12.9952967"><ele>224.0</ele><time>2026-04-25T11:25:52.276Z</time></trkpt><trkpt lat="41.7472901" lon="12.9951129"><ele>224.0</ele><time>2026-04-25T11:25:53.284Z</time></trkpt><trkpt lat="41.7473746" lon="12.994898"><ele>220.33333333333334</ele><time>2026-04-25T11:25:54.277Z</time></trkpt><trkpt lat="41.7474332" lon="12.9946532"><ele>216.66666666666669</ele><time>2026-04-25T11:25:55.271Z</time></trkpt><trkpt lat="41.7474685" lon="12.9943947"><ele>213.0</ele><time>2026-04-25T11:25:56.286Z</time></trkpt><trkpt lat="41.7475013" lon="12.9941427"><ele>212.0</ele><time>2026-04-25T11:25:57.277Z</time></trkpt><trkpt lat="41.7475433" lon="12.9938967"><ele>211.0</ele><time>2026-04-25T11:25:58.269Z</time></trkpt><trkpt lat="41.7475914" lon="12.9936565"><ele>210.0</ele><time>2026-04-25T11:25:59.275Z</time></trkpt><trkpt lat="41.7476409" lon="12.9934267"><ele>209.66666666666669</ele><time>2026-04-25T11:26:00.276Z</time></trkpt><trkpt lat="41.747695" lon="12.9932033"><ele>209.33333333333334</ele><time>2026-04-25T11:26:01.281Z</time></trkpt><trkpt lat="41.7477464" lon="12.9929949"><ele>209.0</ele><time>2026-04-25T11:26:02.284Z</time></trkpt><trkpt lat="41.7477975" lon="12.9928089"><ele>208.75</ele><time>2026-04-25T11:26:03.273Z</time></trkpt><trkpt lat="41.7478532" lon="12.9926334"><ele>208.5</ele><time>2026-04-25T11:26:04.28Z</time></trkpt><trkpt lat="41.7479128" lon="12.9924684"><ele>208.25</ele><time>2026-04-25T11:26:05.284Z</time></trkpt><trkpt lat="41.7479786" lon="12.9923228"><ele>208.0</ele><time>2026-04-25T11:26:06.278Z</time></trkpt><trkpt lat="41.7480459" lon="12.9922009"><ele>207.99999999999997</ele><time>2026-04-25T11:26:07.277Z</time></trkpt><trkpt lat="41.7481204" lon="12.9921016"><ele>208.0</ele><time>2026-04-25T11:26:08.275Z</time></trkpt><trkpt lat="41.7481996" lon="12.9920277"><ele>208.0</ele><time>2026-04-25T11:26:09.279Z</time></trkpt><trkpt lat="41.7482637" lon="12.9919542"><ele>208.0</ele><time>2026-04-25T11:26:10.276Z</time></trkpt><trkpt lat="41.7483007" lon="12.9918689"><ele>207.99999999999997</ele><time>2026-04-25T11:26:11.278Z</time></trkpt><trkpt lat="41.7483164" lon="12.9917678"><ele>208.0</ele><time>2026-04-25T11:26:12.276Z</time></trkpt><trkpt lat="41.7483129" lon="12.9916581"><ele>207.8</ele><time>2026-04-25T11:26:13.276Z</time></trkpt><trkpt lat="41.7482972" lon="12.9915426"><ele>207.60000000000002</ele><time>2026-04-25T11:26:14.276Z</time></trkpt><trkpt lat="41.7482851" lon="12.9914297"><ele>207.39999999999998</ele><time>2026-04-25T11:26:15.28Z</time></trkpt><trkpt lat="41.748288" lon="12.9913151"><ele>207.2</ele><time>2026-04-25T11:26:16.277Z</time></trkpt><trkpt lat="41.7483028" lon="12.9911946"><ele>207.0</ele><time>2026-04-25T11:26:17.276Z</time></trkpt><trkpt lat="41.7483289" lon="12.9910591"><ele>207.0</ele><time>2026-04-25T11:26:18.273Z</time></trkpt><trkpt lat="41.7483641" lon="12.9908999"><ele>207.0</ele><time>2026-04-25T11:26:19.277Z</time></trkpt><trkpt lat="41.7483966" lon="12.990744"><ele>207.0</ele><time>2026-04-25T11:26:20.271Z</time></trkpt><trkpt lat="41.7484384" lon="12.9905852"><ele>207.0</ele><time>2026-04-25T11:26:21.275Z</time></trkpt><trkpt lat="41.7484859" lon="12.9904201"><ele>207.5</ele><time>2026-04-25T11:26:22.27Z</time></trkpt><trkpt lat="41.7485317" lon="12.9902632"><ele>208.0</ele><time>2026-04-25T11:26:23.276Z</time></trkpt><trkpt lat="41.7485743" lon="12.9901085"><ele>208.5</ele><time>2026-04-25T11:26:24.273Z</time></trkpt><trkpt lat="41.7486194" lon="12.9899482"><ele>209.0</ele><time>2026-04-25T11:26:25.268Z</time></trkpt><trkpt lat="41.7486615" lon="12.9897773"><ele>212.33333333333334</ele><time>2026-04-25T11:26:26.28Z</time></trkpt><trkpt lat="41.748779" lon="12.9895361"><ele>215.66666666666669</ele><time>2026-04-25T11:26:27.282Z</time></trkpt><trkpt lat="41.7488797" lon="12.9893529"><ele>219.0</ele><time>2026-04-25T11:26:28.28Z</time></trkpt><trkpt lat="41.7489763" lon="12.9892011"><ele>218.0</ele><time>2026-04-25T11:26:29.272Z</time></trkpt><trkpt lat="41.7490993" lon="12.989065"><ele>217.0</ele><time>2026-04-25T11:26:30.295Z</time></trkpt><trkpt lat="41.7492389" lon="12.9889514"><ele>216.0</ele><time>2026-04-25T11:26:31.275Z</time></trkpt><trkpt lat="41.7493895" lon="12.9888631"><ele>216.0</ele><time>2026-04-25T11:26:32.273Z</time></trkpt><trkpt lat="41.749548" lon="12.9888035"><ele>216.0</ele><time>2026-04-25T11:26:33.27Z</time></trkpt><trkpt lat="41.749713" lon="12.9887701"><ele>216.0</ele><time>2026-04-25T11:26:34.278Z</time></trkpt><trkpt lat="41.7498713" lon="12.9887495"><ele>216.0</ele><time>2026-04-25T11:26:35.275Z</time></trkpt><trkpt lat="41.7500236" lon="12.9887347"><ele>216.0</ele><time>2026-04-25T11:26:36.276Z</time></trkpt><trkpt lat="41.7501765" lon="12.988714"><ele>216.0</ele><time>2026-04-25T11:26:37.273Z</time></trkpt><trkpt lat="41.7503288" lon="12.9886884"><ele>218.0</ele><time>2026-04-25T11:26:38.277Z</time></trkpt><trkpt lat="41.7504704" lon="12.9886504"><ele>220.0</ele><time>2026-04-25T11:26:39.279Z</time></trkpt><trkpt lat="41.7506191" lon="12.9885687"><ele>222.0</ele><time>2026-04-25T11:26:40.275Z</time></trkpt><trkpt lat="41.7507626" lon="12.9884782"><ele>222.0</ele><time>2026-04-25T11:26:41.273Z</time></trkpt><trkpt lat="41.7509093" lon="12.9883563"><ele>222.0</ele><time>2026-04-25T11:26:42.279Z</time></trkpt><trkpt lat="41.7510636" lon="12.9882005"><ele>222.0</ele><time>2026-04-25T11:26:43.276Z</time></trkpt><trkpt lat="41.7512566" lon="12.9879871"><ele>220.33333333333331</ele><time>2026-04-25T11:26:44.277Z</time></trkpt><trkpt lat="41.7514346" lon="12.9878167"><ele>218.66666666666666</ele><time>2026-04-25T11:26:45.291Z</time></trkpt><trkpt lat="41.7515974" lon="12.9876643"><ele>217.0</ele><time>2026-04-25T11:26:46.272Z</time></trkpt><trkpt lat="41.7517506" lon="12.9875136"><ele>214.66666666666666</ele><time>2026-04-25T11:26:47.276Z</time></trkpt><trkpt lat="41.7519004" lon="12.987366"><ele>212.33333333333331</ele><time>2026-04-25T11:26:48.275Z</time></trkpt><trkpt lat="41.75204" lon="12.987227"><ele>210.0</ele><time>2026-04-25T11:26:49.278Z</time></trkpt><trkpt lat="41.7521764" lon="12.9870936"><ele>210.0</ele><time>2026-04-25T11:26:50.274Z</time></trkpt><trkpt lat="41.7523112" lon="12.9869623"><ele>210.0</ele><time>2026-04-25T11:26:51.392Z</time></trkpt><trkpt lat="41.7525623" lon="12.9867096"><ele>210.0</ele><time>2026-04-25T11:26:53.282Z</time></trkpt><trkpt lat="41.7526858" lon="12.9865949"><ele>210.0</ele><time>2026-04-25T11:26:54.271Z</time></trkpt><trkpt lat="41.7528096" lon="12.9864943"><ele>210.0</ele><time>2026-04-25T11:26:55.278Z</time></trkpt><trkpt lat="41.7529354" lon="12.9864139"><ele>210.0</ele><time>2026-04-25T11:26:56.279Z</time></trkpt><trkpt lat="41.7530548" lon="12.9863539"><ele>210.0</ele><time>2026-04-25T11:26:57.276Z</time></trkpt><trkpt lat="41.7531709" lon="12.9862921"><ele>210.0</ele><time>2026-04-25T11:26:58.275Z</time></trkpt><trkpt lat="41.7532805" lon="12.9862408"><ele>210.0</ele><time>2026-04-25T11:26:59.274Z</time></trkpt><trkpt lat="41.753388" lon="12.986192"><ele>210.0</ele><time>2026-04-25T11:27:00.285Z</time></trkpt><trkpt lat="41.7534916" lon="12.9861443"><ele>210.2</ele><time>2026-04-25T11:27:01.289Z</time></trkpt><trkpt lat="41.7535928" lon="12.9860834"><ele>210.4</ele><time>2026-04-25T11:27:02.278Z</time></trkpt><trkpt lat="41.7536848" lon="12.9860029"><ele>210.60000000000002</ele><time>2026-04-25T11:27:03.285Z</time></trkpt><trkpt lat="41.7537709" lon="12.985907"><ele>210.8</ele><time>2026-04-25T11:27:04.277Z</time></trkpt><trkpt lat="41.7538454" lon="12.9858011"><ele>211.0</ele><time>2026-04-25T11:27:05.284Z</time></trkpt><trkpt lat="41.7539057" lon="12.9856931"><ele>210.4</ele><time>2026-04-25T11:27:06.273Z</time></trkpt><trkpt lat="41.7539538" lon="12.9855877"><ele>209.8</ele><time>2026-04-25T11:27:07.277Z</time></trkpt><trkpt lat="41.753995" lon="12.9854877"><ele>209.20000000000002</ele><time>2026-04-25T11:27:08.272Z</time></trkpt><trkpt lat="41.7540204" lon="12.9853726"><ele>208.60000000000002</ele><time>2026-04-25T11:27:09.282Z</time></trkpt><trkpt lat="41.7540599" lon="12.9852303"><ele>208.0</ele><time>2026-04-25T11:27:10.277Z</time></trkpt><trkpt lat="41.7541199" lon="12.9851016"><ele>208.66666666666666</ele><time>2026-04-25T11:27:11.274Z</time></trkpt><trkpt lat="41.7542031" lon="12.9849705"><ele>209.33333333333331</ele><time>2026-04-25T11:27:12.279Z</time></trkpt><trkpt lat="41.7543141" lon="12.9848314"><ele>210.0</ele><time>2026-04-25T11:27:13.28Z</time></trkpt><trkpt lat="41.7544487" lon="12.9846911"><ele>210.0</ele><time>2026-04-25T11:27:14.277Z</time></trkpt><trkpt lat="41.7546043" lon="12.9845309"><ele>210.0</ele><time>2026-04-25T11:27:15.281Z</time></trkpt><trkpt lat="41.7547838" lon="12.9843331"><ele>210.0</ele><time>2026-04-25T11:27:16.279Z</time></trkpt><trkpt lat="41.7549546" lon="12.9841593"><ele>210.33333333333331</ele><time>2026-04-25T11:27:17.279Z</time></trkpt><trkpt lat="41.7551135" lon="12.9840022"><ele>210.66666666666666</ele><time>2026-04-25T11:27:18.274Z</time></trkpt><trkpt lat="41.7552555" lon="12.9838523"><ele>211.0</ele><time>2026-04-25T11:27:19.284Z</time></trkpt><trkpt lat="41.7553903" lon="12.9837112"><ele>211.0</ele><time>2026-04-25T11:27:20.289Z</time></trkpt><trkpt lat="41.7555197" lon="12.9835721"><ele>211.0</ele><time>2026-04-25T11:27:21.274Z</time></trkpt><trkpt lat="41.7556411" lon="12.9834449"><ele>211.0</ele><time>2026-04-25T11:27:22.288Z</time></trkpt><trkpt lat="41.7557539" lon="12.983309"><ele>211.0</ele><time>2026-04-25T11:27:23.28Z</time></trkpt><trkpt lat="41.7558619" lon="12.9831677"><ele>211.0</ele><time>2026-04-25T11:27:24.282Z</time></trkpt><trkpt lat="41.7559657" lon="12.9830111"><ele>211.0</ele><time>2026-04-25T11:27:25.29Z</time></trkpt><trkpt lat="41.7560651" lon="12.9828458"><ele>210.66666666666666</ele><time>2026-04-25T11:27:26.281Z</time></trkpt><trkpt lat="41.7561689" lon="12.9826776"><ele>210.33333333333331</ele><time>2026-04-25T11:27:27.278Z</time></trkpt><trkpt lat="41.7562755" lon="12.982506"><ele>210.0</ele><time>2026-04-25T11:27:28.281Z</time></trkpt><trkpt lat="41.7563861" lon="12.982323"><ele>210.0</ele><time>2026-04-25T11:27:29.287Z</time></trkpt><trkpt lat="41.756504" lon="12.9821078"><ele>210.0</ele><time>2026-04-25T11:27:30.281Z</time></trkpt><trkpt lat="41.7566479" lon="12.9818602"><ele>210.0</ele><time>2026-04-25T11:27:31.277Z</time></trkpt><trkpt lat="41.7567998" lon="12.9816146"><ele>210.66666666666669</ele><time>2026-04-25T11:27:32.277Z</time></trkpt><trkpt lat="41.7569433" lon="12.9813902"><ele>211.33333333333334</ele><time>2026-04-25T11:27:33.289Z</time></trkpt><trkpt lat="41.757091" lon="12.9811602"><ele>212.0</ele><time>2026-04-25T11:27:34.277Z</time></trkpt><trkpt lat="41.7572432" lon="12.9809264"><ele>213.0</ele><time>2026-04-25T11:27:35.286Z</time></trkpt><trkpt lat="41.7573854" lon="12.9807217"><ele>214.0</ele><time>2026-04-25T11:27:36.286Z</time></trkpt><trkpt lat="41.7575346" lon="12.9805291"><ele>215.0</ele><time>2026-04-25T11:27:37.292Z</time></trkpt><trkpt lat="41.7576856" lon="12.9803667"><ele>216.66666666666669</ele><time>2026-04-25T11:27:38.279Z</time></trkpt><trkpt lat="41.7578398" lon="12.9802215"><ele>218.33333333333331</ele><time>2026-04-25T11:27:39.281Z</time></trkpt><trkpt lat="41.7579948" lon="12.980101"><ele>220.0</ele><time>2026-04-25T11:27:40.294Z</time></trkpt><trkpt lat="41.7581471" lon="12.9799973"><ele>220.0</ele><time>2026-04-25T11:27:41.291Z</time></trkpt><trkpt lat="41.7582998" lon="12.9799104"><ele>220.0</ele><time>2026-04-25T11:27:42.285Z</time></trkpt><trkpt lat="41.7584394" lon="12.9798397"><ele>220.0</ele><time>2026-04-25T11:27:43.282Z</time></trkpt><trkpt lat="41.7585706" lon="12.9797605"><ele>220.0</ele><time>2026-04-25T11:27:44.282Z</time></trkpt><trkpt lat="41.7586865" lon="12.9796657"><ele>220.0</ele><time>2026-04-25T11:27:45.272Z</time></trkpt><trkpt lat="41.7587901" lon="12.9795665"><ele>220.0</ele><time>2026-04-25T11:27:46.274Z</time></trkpt><trkpt lat="41.7588897" lon="12.9794629"><ele>220.0</ele><time>2026-04-25T11:27:47.274Z</time></trkpt><trkpt lat="41.7589834" lon="12.9793634"><ele>220.0</ele><time>2026-04-25T11:27:48.276Z</time></trkpt><trkpt lat="41.7590699" lon="12.9792664"><ele>220.0</ele><time>2026-04-25T11:27:49.275Z</time></trkpt><trkpt lat="41.7591507" lon="12.979156"><ele>220.0</ele><time>2026-04-25T11:27:50.28Z</time></trkpt><trkpt lat="41.7592344" lon="12.9790392"><ele>220.0</ele><time>2026-04-25T11:27:51.28Z</time></trkpt><trkpt lat="41.7593345" lon="12.9788876"><ele>218.0</ele><time>2026-04-25T11:27:52.274Z</time></trkpt><trkpt lat="41.7594457" lon="12.9787315"><ele>216.0</ele><time>2026-04-25T11:27:53.278Z</time></trkpt><trkpt lat="41.7595569" lon="12.9785772"><ele>214.0</ele><time>2026-04-25T11:27:54.296Z</time></trkpt><trkpt lat="41.7596665" lon="12.9784232"><ele>214.0</ele><time>2026-04-25T11:27:55.275Z</time></trkpt><trkpt lat="41.7597746" lon="12.9782627"><ele>214.0</ele><time>2026-04-25T11:27:56.273Z</time></trkpt><trkpt lat="41.7598875" lon="12.9781019"><ele>214.0</ele><time>2026-04-25T11:27:57.282Z</time></trkpt><trkpt lat="41.7599968" lon="12.9779385"><ele>214.0</ele><time>2026-04-25T11:27:58.273Z</time></trkpt><trkpt lat="41.7601074" lon="12.9777712"><ele>214.0</ele><time>2026-04-25T11:27:59.278Z</time></trkpt><trkpt lat="41.760223" lon="12.9776111"><ele>214.0</ele><time>2026-04-25T11:28:00.285Z</time></trkpt><trkpt lat="41.7603415" lon="12.9774336"><ele>213.66666666666666</ele><time>2026-04-25T11:28:01.277Z</time></trkpt><trkpt lat="41.7604795" lon="12.9772348"><ele>213.33333333333331</ele><time>2026-04-25T11:28:02.277Z</time></trkpt><trkpt lat="41.7606296" lon="12.9770024"><ele>213.0</ele><time>2026-04-25T11:28:03.281Z</time></trkpt><trkpt lat="41.7607803" lon="12.9767558"><ele>214.0</ele><time>2026-04-25T11:28:04.276Z</time></trkpt><trkpt lat="41.7609284" lon="12.9765145"><ele>215.0</ele><time>2026-04-25T11:28:05.283Z</time></trkpt><trkpt lat="41.7610637" lon="12.9762898"><ele>216.0</ele><time>2026-04-25T11:28:06.279Z</time></trkpt><trkpt lat="41.7611871" lon="12.9760832"><ele>215.0</ele><time>2026-04-25T11:28:07.282Z</time></trkpt><trkpt lat="41.7612989" lon="12.9758857"><ele>214.0</ele><time>2026-04-25T11:28:08.284Z</time></trkpt><trkpt lat="41.7614006" lon="12.9757052"><ele>213.0</ele><time>2026-04-25T11:28:09.291Z</time></trkpt><trkpt lat="41.7614982" lon="12.9755308"><ele>213.0</ele><time>2026-04-25T11:28:10.276Z</time></trkpt><trkpt lat="41.7615857" lon="12.9753514"><ele>213.0</ele><time>2026-04-25T11:28:11.281Z</time></trkpt><trkpt lat="41.7616541" lon="12.9751716"><ele>213.0</ele><time>2026-04-25T11:28:12.287Z</time></trkpt><trkpt lat="41.7617088" lon="12.9749797"><ele>213.5</ele><time>2026-04-25T11:28:13.273Z</time></trkpt><trkpt lat="41.7617428" lon="12.9747955"><ele>214.0</ele><time>2026-04-25T11:28:14.291Z</time></trkpt><trkpt lat="41.761768" lon="12.9746245"><ele>214.5</ele><time>2026-04-25T11:28:15.275Z</time></trkpt><trkpt lat="41.7617941" lon="12.97448"><ele>215.0</ele><time>2026-04-25T11:28:16.274Z</time></trkpt><trkpt lat="41.761844" lon="12.9743422"><ele>215.6</ele><time>2026-04-25T11:28:17.277Z</time></trkpt><trkpt lat="41.7619165" lon="12.97423"><ele>216.2</ele><time>2026-04-25T11:28:18.278Z</time></trkpt><trkpt lat="41.7619753" lon="12.9741053"><ele>216.8</ele><time>2026-04-25T11:28:19.292Z</time></trkpt><trkpt lat="41.762009" lon="12.9739707"><ele>217.4</ele><time>2026-04-25T11:28:20.278Z</time></trkpt><trkpt lat="41.7620204" lon="12.9738425"><ele>218.0</ele><time>2026-04-25T11:28:21.281Z</time></trkpt><trkpt lat="41.7620466" lon="12.9737242"><ele>218.0</ele><time>2026-04-25T11:28:22.277Z</time></trkpt><trkpt lat="41.762092" lon="12.9735784"><ele>218.0</ele><time>2026-04-25T11:28:23.279Z</time></trkpt><trkpt lat="41.7621555" lon="12.9734341"><ele>218.0</ele><time>2026-04-25T11:28:24.276Z</time></trkpt><trkpt lat="41.7622215" lon="12.9732977"><ele>218.0</ele><time>2026-04-25T11:28:25.279Z</time></trkpt><trkpt lat="41.7622959" lon="12.9731509"><ele>217.75</ele><time>2026-04-25T11:28:26.278Z</time></trkpt><trkpt lat="41.7623852" lon="12.9730124"><ele>217.5</ele><time>2026-04-25T11:28:27.29Z</time></trkpt><trkpt lat="41.7624879" lon="12.9728873"><ele>217.25</ele><time>2026-04-25T11:28:28.273Z</time></trkpt><trkpt lat="41.7626009" lon="12.9727652"><ele>217.0</ele><time>2026-04-25T11:28:29.286Z</time></trkpt><trkpt lat="41.7627251" lon="12.9726331"><ele>217.0</ele><time>2026-04-25T11:28:30.281Z</time></trkpt><trkpt lat="41.7628625" lon="12.9724838"><ele>217.0</ele><time>2026-04-25T11:28:31.279Z</time></trkpt><trkpt lat="41.7630061" lon="12.9723226"><ele>217.0</ele><time>2026-04-25T11:28:32.278Z</time></trkpt><trkpt lat="41.7631425" lon="12.9721736"><ele>217.0</ele><time>2026-04-25T11:28:33.275Z</time></trkpt><trkpt lat="41.763274" lon="12.9720299"><ele>217.0</ele><time>2026-04-25T11:28:34.285Z</time></trkpt><trkpt lat="41.7634032" lon="12.971891"><ele>217.0</ele><time>2026-04-25T11:28:35.277Z</time></trkpt><trkpt lat="41.7635296" lon="12.9717552"><ele>216.66666666666666</ele><time>2026-04-25T11:28:36.275Z</time></trkpt><trkpt lat="41.7636568" lon="12.9716145"><ele>216.33333333333331</ele><time>2026-04-25T11:28:37.288Z</time></trkpt><trkpt lat="41.763784" lon="12.9714726"><ele>216.0</ele><time>2026-04-25T11:28:38.289Z</time></trkpt><trkpt lat="41.7639095" lon="12.9713288"><ele>216.0</ele><time>2026-04-25T11:28:39.295Z</time></trkpt><trkpt lat="41.7640351" lon="12.9711903"><ele>216.0</ele><time>2026-04-25T11:28:40.282Z</time></trkpt><trkpt lat="41.7641604" lon="12.9710533"><ele>216.0</ele><time>2026-04-25T11:28:41.292Z</time></trkpt><trkpt lat="41.7642823" lon="12.9709142"><ele>216.0</ele><time>2026-04-25T11:28:42.277Z</time></trkpt><trkpt lat="41.764408" lon="12.9707742"><ele>216.0</ele><time>2026-04-25T11:28:43.289Z</time></trkpt><trkpt lat="41.7645356" lon="12.9706329"><ele>216.0</ele><time>2026-04-25T11:28:44.288Z</time></trkpt><trkpt lat="41.7646669" lon="12.9704907"><ele>216.0</ele><time>2026-04-25T11:28:45.279Z</time></trkpt><trkpt lat="41.7648005" lon="12.9703473"><ele>216.0</ele><time>2026-04-25T11:28:46.282Z</time></trkpt><trkpt lat="41.7649322" lon="12.9702083"><ele>216.0</ele><time>2026-04-25T11:28:47.275Z</time></trkpt><trkpt lat="41.7650594" lon="12.9700605"><ele>216.33333333333331</ele><time>2026-04-25T11:28:48.278Z</time></trkpt><trkpt lat="41.7651776" lon="12.969926"><ele>216.66666666666666</ele><time>2026-04-25T11:28:49.281Z</time></trkpt><trkpt lat="41.7652917" lon="12.9698019"><ele>217.0</ele><time>2026-04-25T11:28:50.274Z</time></trkpt><trkpt lat="41.7654048" lon="12.9696725"><ele>217.0</ele><time>2026-04-25T11:28:51.277Z</time></trkpt><trkpt lat="41.7655184" lon="12.9695434"><ele>217.0</ele><time>2026-04-25T11:28:52.275Z</time></trkpt><trkpt lat="41.7656328" lon="12.9694164"><ele>217.0</ele><time>2026-04-25T11:28:53.273Z</time></trkpt><trkpt lat="41.7657547" lon="12.9692833"><ele>217.33333333333331</ele><time>2026-04-25T11:28:54.278Z</time></trkpt><trkpt lat="41.7658775" lon="12.9691491"><ele>217.66666666666669</ele><time>2026-04-25T11:28:55.274Z</time></trkpt><trkpt lat="41.766002" lon="12.9690156"><ele>218.0</ele><time>2026-04-25T11:28:56.289Z</time></trkpt><trkpt lat="41.7661257" lon="12.9688736"><ele>218.0</ele><time>2026-04-25T11:28:57.291Z</time></trkpt><trkpt lat="41.7662511" lon="12.9687303"><ele>218.0</ele><time>2026-04-25T11:28:58.28Z</time></trkpt><trkpt lat="41.7663773" lon="12.9685858"><ele>218.0</ele><time>2026-04-25T11:28:59.285Z</time></trkpt><trkpt lat="41.7665074" lon="12.9684439"><ele>217.66666666666669</ele><time>2026-04-25T11:29:00.284Z</time></trkpt><trkpt lat="41.7666339" lon="12.9683047"><ele>217.33333333333331</ele><time>2026-04-25T11:29:01.282Z</time></trkpt><trkpt lat="41.7667554" lon="12.9681643"><ele>217.0</ele><time>2026-04-25T11:29:02.278Z</time></trkpt><trkpt lat="41.7668619" lon="12.9680028"><ele>217.0</ele><time>2026-04-25T11:29:03.278Z</time></trkpt><trkpt lat="41.7669496" lon="12.9678175"><ele>217.0</ele><time>2026-04-25T11:29:04.284Z</time></trkpt><trkpt lat="41.7670233" lon="12.9676199"><ele>217.0</ele><time>2026-04-25T11:29:05.278Z</time></trkpt><trkpt lat="41.7670887" lon="12.9674092"><ele>218.0</ele><time>2026-04-25T11:29:06.268Z</time></trkpt><trkpt lat="41.7671578" lon="12.9671734"><ele>219.0</ele><time>2026-04-25T11:29:07.279Z</time></trkpt><trkpt lat="41.7672319" lon="12.9669174"><ele>220.0</ele><time>2026-04-25T11:29:08.279Z</time></trkpt><trkpt lat="41.7673075" lon="12.9666479"><ele>220.0</ele><time>2026-04-25T11:29:09.272Z</time></trkpt><trkpt lat="41.7673859" lon="12.9663704"><ele>220.0</ele><time>2026-04-25T11:29:10.279Z</time></trkpt><trkpt lat="41.7674646" lon="12.9660874"><ele>220.0</ele><time>2026-04-25T11:29:11.271Z</time></trkpt><trkpt lat="41.767549" lon="12.9657923"><ele>220.5</ele><time>2026-04-25T11:29:12.281Z</time></trkpt><trkpt lat="41.7676314" lon="12.9654949"><ele>221.0</ele><time>2026-04-25T11:29:13.274Z</time></trkpt><trkpt lat="41.7677176" lon="12.965183"><ele>221.0</ele><time>2026-04-25T11:29:14.275Z</time></trkpt><trkpt lat="41.7678176" lon="12.9648369"><ele>221.0</ele><time>2026-04-25T11:29:15.292Z</time></trkpt><trkpt lat="41.7679343" lon="12.9644483"><ele>220.5</ele><time>2026-04-25T11:29:16.275Z</time></trkpt><trkpt lat="41.7680641" lon="12.9640105"><ele>220.0</ele><time>2026-04-25T11:29:17.271Z</time></trkpt><trkpt lat="41.7682053" lon="12.9635332"><ele>221.0</ele><time>2026-04-25T11:29:18.28Z</time></trkpt><trkpt lat="41.7683335" lon="12.9630838"><ele>222.0</ele><time>2026-04-25T11:29:19.288Z</time></trkpt><trkpt lat="41.768444" lon="12.9627036"><ele>223.0</ele><time>2026-04-25T11:29:20.281Z</time></trkpt><trkpt lat="41.7685427" lon="12.9623532"><ele>224.0</ele><time>2026-04-25T11:29:21.286Z</time></trkpt><trkpt lat="41.7686388" lon="12.9620184"><ele>223.5</ele><time>2026-04-25T11:29:22.28Z</time></trkpt><trkpt lat="41.7687368" lon="12.9616869"><ele>223.0</ele><time>2026-04-25T11:29:23.282Z</time></trkpt><trkpt lat="41.7688322" lon="12.9613563"><ele>223.0</ele><time>2026-04-25T11:29:24.291Z</time></trkpt><trkpt lat="41.768917" lon="12.9610547"><ele>223.0</ele><time>2026-04-25T11:29:25.283Z</time></trkpt><trkpt lat="41.7689956" lon="12.9607825"><ele>223.66666666666666</ele><time>2026-04-25T11:29:26.28Z</time></trkpt><trkpt lat="41.7690684" lon="12.96053"><ele>224.33333333333331</ele><time>2026-04-25T11:29:27.284Z</time></trkpt><trkpt lat="41.7691375" lon="12.9603039"><ele>225.0</ele><time>2026-04-25T11:29:28.292Z</time></trkpt><trkpt lat="41.7692019" lon="12.9600925"><ele>224.0</ele><time>2026-04-25T11:29:29.273Z</time></trkpt><trkpt lat="41.769261" lon="12.9598822"><ele>223.0</ele><time>2026-04-25T11:29:30.282Z</time></trkpt><trkpt lat="41.769322" lon="12.9596836"><ele>222.0</ele><time>2026-04-25T11:29:31.273Z</time></trkpt><trkpt lat="41.7693833" lon="12.9594941"><ele>222.0</ele><time>2026-04-25T11:29:32.277Z</time></trkpt><trkpt lat="41.7694392" lon="12.9593099"><ele>222.0</ele><time>2026-04-25T11:29:33.277Z</time></trkpt><trkpt lat="41.7694935" lon="12.9591266"><ele>222.0</ele><time>2026-04-25T11:29:34.282Z</time></trkpt><trkpt lat="41.7695458" lon="12.9589539"><ele>222.0</ele><time>2026-04-25T11:29:35.273Z</time></trkpt><trkpt lat="41.769595" lon="12.9587881"><ele>222.25</ele><time>2026-04-25T11:29:36.283Z</time></trkpt><trkpt lat="41.7696436" lon="12.9586302"><ele>222.5</ele><time>2026-04-25T11:29:37.273Z</time></trkpt><trkpt lat="41.76969" lon="12.9584719"><ele>222.75</ele><time>2026-04-25T11:29:38.273Z</time></trkpt><trkpt lat="41.7697312" lon="12.9583037"><ele>223.0</ele><time>2026-04-25T11:29:39.275Z</time></trkpt><trkpt lat="41.7697619" lon="12.9581232"><ele>223.66666666666666</ele><time>2026-04-25T11:29:40.282Z</time></trkpt><trkpt lat="41.7697849" lon="12.9579299"><ele>224.33333333333331</ele><time>2026-04-25T11:29:41.288Z</time></trkpt><trkpt lat="41.7697955" lon="12.9577113"><ele>225.0</ele><time>2026-04-25T11:29:42.279Z</time></trkpt><trkpt lat="41.7698023" lon="12.9574931"><ele>225.75</ele><time>2026-04-25T11:29:43.28Z</time></trkpt><trkpt lat="41.7698073" lon="12.9572933"><ele>226.5</ele><time>2026-04-25T11:29:44.275Z</time></trkpt><trkpt lat="41.7698103" lon="12.957098"><ele>227.25</ele><time>2026-04-25T11:29:45.28Z</time></trkpt><trkpt lat="41.7698147" lon="12.9569045"><ele>228.0</ele><time>2026-04-25T11:29:46.292Z</time></trkpt><trkpt lat="41.7698197" lon="12.9567095"><ele>228.0</ele><time>2026-04-25T11:29:47.278Z</time></trkpt><trkpt lat="41.7698256" lon="12.9565138"><ele>228.0</ele><time>2026-04-25T11:29:48.28Z</time></trkpt><trkpt lat="41.7698317" lon="12.9563174"><ele>228.0</ele><time>2026-04-25T11:29:49.279Z</time></trkpt><trkpt lat="41.7698365" lon="12.956106"><ele>228.0</ele><time>2026-04-25T11:29:50.276Z</time></trkpt><trkpt lat="41.7698391" lon="12.9558933"><ele>228.0</ele><time>2026-04-25T11:29:51.271Z</time></trkpt><trkpt lat="41.7698456" lon="12.9556851"><ele>228.0</ele><time>2026-04-25T11:29:52.285Z</time></trkpt><trkpt lat="41.7698505" lon="12.95548"><ele>228.0</ele><time>2026-04-25T11:29:53.276Z</time></trkpt><trkpt lat="41.7698562" lon="12.9552766"><ele>228.0</ele><time>2026-04-25T11:29:54.284Z</time></trkpt><trkpt lat="41.7698657" lon="12.9550777"><ele>228.0</ele><time>2026-04-25T11:29:55.271Z</time></trkpt><trkpt lat="41.7698721" lon="12.9548721"><ele>227.66666666666669</ele><time>2026-04-25T11:29:56.282Z</time></trkpt><trkpt lat="41.7698791" lon="12.9546681"><ele>227.33333333333334</ele><time>2026-04-25T11:29:57.28Z</time></trkpt><trkpt lat="41.7698805" lon="12.9544411"><ele>227.0</ele><time>2026-04-25T11:29:58.274Z</time></trkpt><trkpt lat="41.7698801" lon="12.9541666"><ele>227.0</ele><time>2026-04-25T11:29:59.277Z</time></trkpt><trkpt lat="41.7698869" lon="12.9538553"><ele>227.0</ele><time>2026-04-25T11:30:00.274Z</time></trkpt><trkpt lat="41.7698985" lon="12.9535637"><ele>228.33333333333334</ele><time>2026-04-25T11:30:01.272Z</time></trkpt><trkpt lat="41.7699063" lon="12.9533146"><ele>229.66666666666669</ele><time>2026-04-25T11:30:02.28Z</time></trkpt><trkpt lat="41.7699121" lon="12.9530856"><ele>231.0</ele><time>2026-04-25T11:30:03.28Z</time></trkpt><trkpt lat="41.7699173" lon="12.9528454"><ele>231.0</ele><time>2026-04-25T11:30:04.271Z</time></trkpt><trkpt lat="41.7699163" lon="12.9525769"><ele>231.0</ele><time>2026-04-25T11:30:05.275Z</time></trkpt><trkpt lat="41.7699197" lon="12.9522709"><ele>231.0</ele><time>2026-04-25T11:30:06.28Z</time></trkpt><trkpt lat="41.7699451" lon="12.9519125"><ele>231.0</ele><time>2026-04-25T11:30:07.278Z</time></trkpt><trkpt lat="41.7699757" lon="12.951508"><ele>231.0</ele><time>2026-04-25T11:30:08.295Z</time></trkpt><trkpt lat="41.7700103" lon="12.9511213"><ele>230.0</ele><time>2026-04-25T11:30:09.281Z</time></trkpt><trkpt lat="41.7700437" lon="12.950773"><ele>229.0</ele><time>2026-04-25T11:30:10.276Z</time></trkpt><trkpt lat="41.7700809" lon="12.9504521"><ele>229.0</ele><time>2026-04-25T11:30:11.287Z</time></trkpt><trkpt lat="41.7701173" lon="12.9501455"><ele>229.0</ele><time>2026-04-25T11:30:12.291Z</time></trkpt><trkpt lat="41.7701607" lon="12.9498487"><ele>230.0</ele><time>2026-04-25T11:30:13.286Z</time></trkpt><trkpt lat="41.7702089" lon="12.9495586"><ele>231.0</ele><time>2026-04-25T11:30:14.294Z</time></trkpt><trkpt lat="41.770255" lon="12.9492737"><ele>232.0</ele><time>2026-04-25T11:30:15.28Z</time></trkpt><trkpt lat="41.7703018" lon="12.9489847"><ele>232.0</ele><time>2026-04-25T11:30:16.276Z</time></trkpt><trkpt lat="41.7703462" lon="12.9487028"><ele>232.0</ele><time>2026-04-25T11:30:17.273Z</time></trkpt><trkpt lat="41.7703881" lon="12.9484231"><ele>232.0</ele><time>2026-04-25T11:30:18.286Z</time></trkpt><trkpt lat="41.7704235" lon="12.9481503"><ele>232.66666666666666</ele><time>2026-04-25T11:30:19.28Z</time></trkpt><trkpt lat="41.7704513" lon="12.9479067"><ele>233.33333333333331</ele><time>2026-04-25T11:30:20.292Z</time></trkpt><trkpt lat="41.7704754" lon="12.9476799"><ele>234.0</ele><time>2026-04-25T11:30:21.283Z</time></trkpt><trkpt lat="41.7704859" lon="12.9474721"><ele>234.25</ele><time>2026-04-25T11:30:22.276Z</time></trkpt><trkpt lat="41.7704968" lon="12.9472745"><ele>234.5</ele><time>2026-04-25T11:30:23.295Z</time></trkpt><trkpt lat="41.7705088" lon="12.9470833"><ele>234.75</ele><time>2026-04-25T11:30:24.284Z</time></trkpt><trkpt lat="41.7705174" lon="12.9468905"><ele>235.0</ele><time>2026-04-25T11:30:25.284Z</time></trkpt><trkpt lat="41.770522" lon="12.9467041"><ele>235.0</ele><time>2026-04-25T11:30:26.285Z</time></trkpt><trkpt lat="41.7705313" lon="12.9465118"><ele>235.0</ele><time>2026-04-25T11:30:27.279Z</time></trkpt><trkpt lat="41.7705481" lon="12.946302"><ele>235.0</ele><time>2026-04-25T11:30:28.276Z</time></trkpt><trkpt lat="41.770571" lon="12.946063"><ele>234.66666666666666</ele><time>2026-04-25T11:30:29.292Z</time></trkpt><trkpt lat="41.7706032" lon="12.945773"><ele>234.33333333333331</ele><time>2026-04-25T11:30:30.277Z</time></trkpt><trkpt lat="41.7706401" lon="12.9454719"><ele>234.0</ele><time>2026-04-25T11:30:31.273Z</time></trkpt><trkpt lat="41.7706832" lon="12.9451649"><ele>233.5</ele><time>2026-04-25T11:30:32.273Z</time></trkpt><trkpt lat="41.7707239" lon="12.9448565"><ele>233.0</ele><time>2026-04-25T11:30:33.279Z</time></trkpt><trkpt lat="41.7707698" lon="12.944535"><ele>234.0</ele><time>2026-04-25T11:30:34.286Z</time></trkpt><trkpt lat="41.7708208" lon="12.9441474"><ele>235.0</ele><time>2026-04-25T11:30:35.28Z</time></trkpt><trkpt lat="41.7708817" lon="12.9437052"><ele>236.0</ele><time>2026-04-25T11:30:36.273Z</time></trkpt><trkpt lat="41.7709483" lon="12.9432548"><ele>237.0</ele><time>2026-04-25T11:30:37.277Z</time></trkpt><trkpt lat="41.7710116" lon="12.9428072"><ele>238.0</ele><time>2026-04-25T11:30:38.279Z</time></trkpt><trkpt lat="41.7710659" lon="12.9424004"><ele>239.0</ele><time>2026-04-25T11:30:39.285Z</time></trkpt><trkpt lat="41.7711151" lon="12.9420243"><ele>240.5</ele><time>2026-04-25T11:30:40.275Z</time></trkpt><trkpt lat="41.77116" lon="12.9416819"><ele>242.0</ele><time>2026-04-25T11:30:41.277Z</time></trkpt><trkpt lat="41.7712004" lon="12.9413706"><ele>242.0</ele><time>2026-04-25T11:30:42.294Z</time></trkpt><trkpt lat="41.7712372" lon="12.941087"><ele>242.0</ele><time>2026-04-25T11:30:43.286Z</time></trkpt><trkpt lat="41.7712709" lon="12.9408323"><ele>242.0</ele><time>2026-04-25T11:30:44.296Z</time></trkpt><trkpt lat="41.771301" lon="12.9405967"><ele>242.33333333333334</ele><time>2026-04-25T11:30:45.283Z</time></trkpt><trkpt lat="41.7713296" lon="12.9403818"><ele>242.66666666666669</ele><time>2026-04-25T11:30:46.28Z</time></trkpt><trkpt lat="41.7713566" lon="12.9401729"><ele>243.0</ele><time>2026-04-25T11:30:47.287Z</time></trkpt><trkpt lat="41.7713796" lon="12.93997"><ele>242.5</ele><time>2026-04-25T11:30:48.279Z</time></trkpt><trkpt lat="41.7714049" lon="12.939776"><ele>242.0</ele><time>2026-04-25T11:30:49.281Z</time></trkpt><trkpt lat="41.7714303" lon="12.9395967"><ele>241.5</ele><time>2026-04-25T11:30:50.286Z</time></trkpt><trkpt lat="41.7714559" lon="12.9394258"><ele>241.0</ele><time>2026-04-25T11:30:51.281Z</time></trkpt><trkpt lat="41.7714802" lon="12.9392481"><ele>240.75</ele><time>2026-04-25T11:30:52.282Z</time></trkpt><trkpt lat="41.771501" lon="12.9390759"><ele>240.5</ele><time>2026-04-25T11:30:53.279Z</time></trkpt><trkpt lat="41.7715216" lon="12.9389029"><ele>240.25</ele><time>2026-04-25T11:30:54.282Z</time></trkpt><trkpt lat="41.7715446" lon="12.9387357"><ele>240.0</ele><time>2026-04-25T11:30:55.285Z</time></trkpt><trkpt lat="41.7715681" lon="12.9385686"><ele>240.0</ele><time>2026-04-25T11:30:56.283Z</time></trkpt><trkpt lat="41.7715969" lon="12.9383971"><ele>240.0</ele><time>2026-04-25T11:30:57.286Z</time></trkpt><trkpt lat="41.7716343" lon="12.9382217"><ele>240.0</ele><time>2026-04-25T11:30:58.276Z</time></trkpt><trkpt lat="41.7716752" lon="12.9380387"><ele>240.0</ele><time>2026-04-25T11:30:59.275Z</time></trkpt><trkpt lat="41.7717198" lon="12.9378554"><ele>239.75</ele><time>2026-04-25T11:31:00.284Z</time></trkpt><trkpt lat="41.7717686" lon="12.9376721"><ele>239.5</ele><time>2026-04-25T11:31:01.281Z</time></trkpt><trkpt lat="41.7718193" lon="12.9374934"><ele>239.25</ele><time>2026-04-25T11:31:02.275Z</time></trkpt><trkpt lat="41.7718729" lon="12.9373326"><ele>239.0</ele><time>2026-04-25T11:31:03.272Z</time></trkpt><trkpt lat="41.7719253" lon="12.9371746"><ele>239.75</ele><time>2026-04-25T11:31:04.277Z</time></trkpt><trkpt lat="41.7719711" lon="12.9370089"><ele>240.5</ele><time>2026-04-25T11:31:05.274Z</time></trkpt><trkpt lat="41.7720201" lon="12.9368442"><ele>241.25</ele><time>2026-04-25T11:31:06.284Z</time></trkpt><trkpt lat="41.7720697" lon="12.9366793"><ele>242.0</ele><time>2026-04-25T11:31:07.281Z</time></trkpt><trkpt lat="41.7721223" lon="12.9365146"><ele>242.0</ele><time>2026-04-25T11:31:08.271Z</time></trkpt><trkpt lat="41.7721769" lon="12.9363457"><ele>242.0</ele><time>2026-04-25T11:31:09.277Z</time></trkpt><trkpt lat="41.7722295" lon="12.9361824"><ele>242.0</ele><time>2026-04-25T11:31:10.274Z</time></trkpt><trkpt lat="41.7722805" lon="12.9360119"><ele>242.0</ele><time>2026-04-25T11:31:11.282Z</time></trkpt><trkpt lat="41.7723377" lon="12.9358414"><ele>242.0</ele><time>2026-04-25T11:31:12.277Z</time></trkpt><trkpt lat="41.7723909" lon="12.9356687"><ele>242.0</ele><time>2026-04-25T11:31:13.281Z</time></trkpt><trkpt lat="41.7724417" lon="12.9354955"><ele>242.0</ele><time>2026-04-25T11:31:14.291Z</time></trkpt><trkpt lat="41.7724963" lon="12.9353205"><ele>242.0</ele><time>2026-04-25T11:31:15.274Z</time></trkpt><trkpt lat="41.7725541" lon="12.9351442"><ele>242.75</ele><time>2026-04-25T11:31:16.278Z</time></trkpt><trkpt lat="41.7726157" lon="12.9349667"><ele>243.5</ele><time>2026-04-25T11:31:17.275Z</time></trkpt><trkpt lat="41.772678" lon="12.9347926"><ele>244.25</ele><time>2026-04-25T11:31:18.281Z</time></trkpt><trkpt lat="41.7727457" lon="12.9346179"><ele>245.0</ele><time>2026-04-25T11:31:19.28Z</time></trkpt><trkpt lat="41.7728252" lon="12.9344503"><ele>245.0</ele><time>2026-04-25T11:31:20.285Z</time></trkpt><trkpt lat="41.7729126" lon="12.9342872"><ele>245.0</ele><time>2026-04-25T11:31:21.285Z</time></trkpt><trkpt lat="41.7729993" lon="12.9341288"><ele>245.0</ele><time>2026-04-25T11:31:22.276Z</time></trkpt><trkpt lat="41.7730808" lon="12.9339719"><ele>245.0</ele><time>2026-04-25T11:31:23.276Z</time></trkpt><trkpt lat="41.773161" lon="12.9338135"><ele>245.25</ele><time>2026-04-25T11:31:24.288Z</time></trkpt><trkpt lat="41.7732411" lon="12.933659"><ele>245.5</ele><time>2026-04-25T11:31:25.279Z</time></trkpt><trkpt lat="41.7733216" lon="12.9335049"><ele>245.75</ele><time>2026-04-25T11:31:26.282Z</time></trkpt><trkpt lat="41.7734052" lon="12.9333519"><ele>246.0</ele><time>2026-04-25T11:31:27.282Z</time></trkpt><trkpt lat="41.7734895" lon="12.9331959"><ele>247.0</ele><time>2026-04-25T11:31:28.275Z</time></trkpt><trkpt lat="41.7735745" lon="12.933043"><ele>248.0</ele><time>2026-04-25T11:31:29.286Z</time></trkpt><trkpt lat="41.7736572" lon="12.932893"><ele>249.0</ele><time>2026-04-25T11:31:30.284Z</time></trkpt><trkpt lat="41.7737396" lon="12.9327426"><ele>250.0</ele><time>2026-04-25T11:31:31.279Z</time></trkpt><trkpt lat="41.773823" lon="12.9325866"><ele>249.0</ele><time>2026-04-25T11:31:32.279Z</time></trkpt><trkpt lat="41.7739034" lon="12.9324288"><ele>248.0</ele><time>2026-04-25T11:31:33.274Z</time></trkpt><trkpt lat="41.7739869" lon="12.9322731"><ele>247.0</ele><time>2026-04-25T11:31:34.284Z</time></trkpt><trkpt lat="41.7740726" lon="12.9321203"><ele>246.0</ele><time>2026-04-25T11:31:35.284Z</time></trkpt><trkpt lat="41.7741579" lon="12.9319659"><ele>246.0</ele><time>2026-04-25T11:31:36.278Z</time></trkpt><trkpt lat="41.774242" lon="12.9318085"><ele>246.0</ele><time>2026-04-25T11:31:37.282Z</time></trkpt><trkpt lat="41.774321" lon="12.9316531"><ele>246.0</ele><time>2026-04-25T11:31:38.292Z</time></trkpt><trkpt lat="41.7744002" lon="12.9315072"><ele>246.0</ele><time>2026-04-25T11:31:39.286Z</time></trkpt><trkpt lat="41.7744765" lon="12.9313638"><ele>246.5</ele><time>2026-04-25T11:31:40.284Z</time></trkpt><trkpt lat="41.7745484" lon="12.9312256"><ele>247.0</ele><time>2026-04-25T11:31:41.277Z</time></trkpt><trkpt lat="41.7746182" lon="12.9310902"><ele>247.5</ele><time>2026-04-25T11:31:42.287Z</time></trkpt><trkpt lat="41.7746834" lon="12.9309577"><ele>248.0</ele><time>2026-04-25T11:31:43.279Z</time></trkpt><trkpt lat="41.7747487" lon="12.9308335"><ele>248.16666666666669</ele><time>2026-04-25T11:31:44.282Z</time></trkpt><trkpt lat="41.7748151" lon="12.9307152"><ele>248.33333333333334</ele><time>2026-04-25T11:31:45.275Z</time></trkpt><trkpt lat="41.7748843" lon="12.9306179"><ele>248.5</ele><time>2026-04-25T11:31:46.279Z</time></trkpt><trkpt lat="41.7749511" lon="12.9305451"><ele>248.66666666666669</ele><time>2026-04-25T11:31:47.278Z</time></trkpt><trkpt lat="41.7750181" lon="12.9305003"><ele>248.83333333333334</ele><time>2026-04-25T11:31:48.274Z</time></trkpt><trkpt lat="41.775084" lon="12.930472"><ele>249.0</ele><time>2026-04-25T11:31:49.284Z</time></trkpt><trkpt lat="41.7751601" lon="12.9304031"><ele>249.0</ele><time>2026-04-25T11:31:51.275Z</time></trkpt><trkpt lat="41.7751806" lon="12.9303202"><ele>249.0</ele><time>2026-04-25T11:31:53.28Z</time></trkpt><trkpt lat="41.7751575" lon="12.9302411"><ele>249.0</ele><time>2026-04-25T11:31:55.279Z</time></trkpt><trkpt lat="41.7751507" lon="12.9301517"><ele>249.0</ele><time>2026-04-25T11:31:57.29Z</time></trkpt><trkpt lat="41.77516" lon="12.9300579"><ele>249.0</ele><time>2026-04-25T11:31:59.293Z</time></trkpt><trkpt lat="41.775185" lon="12.9299804"><ele>249.0</ele><time>2026-04-25T11:32:00.284Z</time></trkpt><trkpt lat="41.7752469" lon="12.9298326"><ele>249.16666666666666</ele><time>2026-04-25T11:32:02.284Z</time></trkpt><trkpt lat="41.7752827" lon="12.9297483"><ele>249.33333333333331</ele><time>2026-04-25T11:32:03.284Z</time></trkpt><trkpt lat="41.7753158" lon="12.9296733"><ele>249.5</ele><time>2026-04-25T11:32:04.286Z</time></trkpt><trkpt lat="41.7753518" lon="12.9295952"><ele>249.66666666666666</ele><time>2026-04-25T11:32:05.296Z</time></trkpt><trkpt lat="41.7753835" lon="12.9295048"><ele>249.83333333333331</ele><time>2026-04-25T11:32:06.286Z</time></trkpt><trkpt lat="41.7754185" lon="12.9293963"><ele>250.0</ele><time>2026-04-25T11:32:07.287Z</time></trkpt><trkpt lat="41.7754476" lon="12.929284"><ele>250.0</ele><time>2026-04-25T11:32:08.284Z</time></trkpt><trkpt lat="41.7754755" lon="12.9291722"><ele>250.0</ele><time>2026-04-25T11:32:09.279Z</time></trkpt><trkpt lat="41.7755043" lon="12.9290585"><ele>250.0</ele><time>2026-04-25T11:32:10.277Z</time></trkpt><trkpt lat="41.7755329" lon="12.9289404"><ele>250.0</ele><time>2026-04-25T11:32:11.285Z</time></trkpt><trkpt lat="41.7755613" lon="12.9288015"><ele>250.0</ele><time>2026-04-25T11:32:12.274Z</time></trkpt><trkpt lat="41.7755877" lon="12.928654"><ele>250.0</ele><time>2026-04-25T11:32:13.296Z</time></trkpt><trkpt lat="41.7756124" lon="12.9284968"><ele>250.0</ele><time>2026-04-25T11:32:14.287Z</time></trkpt><trkpt lat="41.7756339" lon="12.9283399"><ele>250.0</ele><time>2026-04-25T11:32:15.275Z</time></trkpt><trkpt lat="41.7756464" lon="12.9281845"><ele>250.0</ele><time>2026-04-25T11:32:16.287Z</time></trkpt><trkpt lat="41.775648" lon="12.9280313"><ele>250.0</ele><time>2026-04-25T11:32:17.287Z</time></trkpt><trkpt lat="41.7756428" lon="12.9278811"><ele>250.0</ele><time>2026-04-25T11:32:18.291Z</time></trkpt><trkpt lat="41.7756366" lon="12.9277264"><ele>250.0</ele><time>2026-04-25T11:32:19.288Z</time></trkpt><trkpt lat="41.7756278" lon="12.9275821"><ele>250.0</ele><time>2026-04-25T11:32:20.28Z</time></trkpt><trkpt lat="41.775622" lon="12.9274356"><ele>250.0</ele><time>2026-04-25T11:32:21.285Z</time></trkpt><trkpt lat="41.7756164" lon="12.9272858"><ele>250.2</ele><time>2026-04-25T11:32:22.287Z</time></trkpt><trkpt lat="41.7756074" lon="12.9271418"><ele>250.4</ele><time>2026-04-25T11:32:23.284Z</time></trkpt><trkpt lat="41.7755967" lon="12.9270051"><ele>250.60000000000002</ele><time>2026-04-25T11:32:24.286Z</time></trkpt><trkpt lat="41.7755904" lon="12.9268793"><ele>250.8</ele><time>2026-04-25T11:32:25.279Z</time></trkpt><trkpt lat="41.7756014" lon="12.9267661"><ele>251.0</ele><time>2026-04-25T11:32:26.293Z</time></trkpt><trkpt lat="41.7756365" lon="12.9266775"><ele>251.8</ele><time>2026-04-25T11:32:27.277Z</time></trkpt><trkpt lat="41.7756805" lon="12.9266008"><ele>252.60000000000002</ele><time>2026-04-25T11:32:28.284Z</time></trkpt><trkpt lat="41.7757174" lon="12.9264398"><ele>253.4</ele><time>2026-04-25T11:32:30.278Z</time></trkpt><trkpt lat="41.7757019" lon="12.9262697"><ele>254.2</ele><time>2026-04-25T11:32:32.289Z</time></trkpt><trkpt lat="41.7756732" lon="12.9261763"><ele>255.0</ele><time>2026-04-25T11:32:33.293Z</time></trkpt><trkpt lat="41.7756341" lon="12.9260738"><ele>255.0</ele><time>2026-04-25T11:32:34.278Z</time></trkpt><trkpt lat="41.7755942" lon="12.9259458"><ele>255.0</ele><time>2026-04-25T11:32:35.291Z</time></trkpt><trkpt lat="41.775564" lon="12.9258213"><ele>255.0</ele><time>2026-04-25T11:32:36.278Z</time></trkpt><trkpt lat="41.7755365" lon="12.9257018"><ele>255.0</ele><time>2026-04-25T11:32:37.285Z</time></trkpt><trkpt lat="41.7755209" lon="12.9255815"><ele>255.0</ele><time>2026-04-25T11:32:38.278Z</time></trkpt><trkpt lat="41.7755053" lon="12.9254617"><ele>256.6</ele><time>2026-04-25T11:32:39.28Z</time></trkpt><trkpt lat="41.7754937" lon="12.925342"><ele>258.2</ele><time>2026-04-25T11:32:40.293Z</time></trkpt><trkpt lat="41.7754822" lon="12.9252184"><ele>259.8</ele><time>2026-04-25T11:32:41.283Z</time></trkpt><trkpt lat="41.775473" lon="12.925099"><ele>261.4</ele><time>2026-04-25T11:32:42.299Z</time></trkpt><trkpt lat="41.7754668" lon="12.9249836"><ele>263.0</ele><time>2026-04-25T11:32:43.272Z</time></trkpt><trkpt lat="41.7754612" lon="12.9248619"><ele>264.0</ele><time>2026-04-25T11:32:44.286Z</time></trkpt><trkpt lat="41.7754571" lon="12.92474"><ele>265.0</ele><time>2026-04-25T11:32:45.279Z</time></trkpt><trkpt lat="41.7754518" lon="12.924624"><ele>266.0</ele><time>2026-04-25T11:32:46.284Z</time></trkpt><trkpt lat="41.7754464" lon="12.9245036"><ele>267.0</ele><time>2026-04-25T11:32:47.285Z</time></trkpt><trkpt lat="41.7754404" lon="12.9243892"><ele>268.0</ele><time>2026-04-25T11:32:48.288Z</time></trkpt><trkpt lat="41.7754338" lon="12.9242777"><ele>269.0</ele><time>2026-04-25T11:32:49.286Z</time></trkpt><trkpt lat="41.775429" lon="12.9241649"><ele>269.33333333333337</ele><time>2026-04-25T11:32:50.293Z</time></trkpt><trkpt lat="41.7754251" lon="12.9240488"><ele>269.6666666666667</ele><time>2026-04-25T11:32:51.285Z</time></trkpt><trkpt lat="41.7754194" lon="12.9239354"><ele>270.0</ele><time>2026-04-25T11:32:52.281Z</time></trkpt><trkpt lat="41.775418" lon="12.9238178"><ele>270.3333333333333</ele><time>2026-04-25T11:32:53.282Z</time></trkpt><trkpt lat="41.7754129" lon="12.9236977"><ele>270.66666666666663</ele><time>2026-04-25T11:32:54.28Z</time></trkpt><trkpt lat="41.7754054" lon="12.9235784"><ele>271.0</ele><time>2026-04-25T11:32:55.277Z</time></trkpt><trkpt lat="41.7753979" lon="12.9234547"><ele>269.2</ele><time>2026-04-25T11:32:56.275Z</time></trkpt><trkpt lat="41.7753878" lon="12.9233278"><ele>267.40000000000003</ele><time>2026-04-25T11:32:57.289Z</time></trkpt><trkpt lat="41.7753748" lon="12.9232036"><ele>265.6</ele><time>2026-04-25T11:32:58.282Z</time></trkpt><trkpt lat="41.775352" lon="12.9230789"><ele>263.8</ele><time>2026-04-25T11:32:59.292Z</time></trkpt><trkpt lat="41.7753255" lon="12.9229431"><ele>262.0</ele><time>2026-04-25T11:33:00.289Z</time></trkpt><trkpt lat="41.7752902" lon="12.9228048"><ele>262.0</ele><time>2026-04-25T11:33:01.297Z</time></trkpt><trkpt lat="41.7752502" lon="12.9226673"><ele>262.0</ele><time>2026-04-25T11:33:02.277Z</time></trkpt><trkpt lat="41.7752083" lon="12.9225243"><ele>262.0</ele><time>2026-04-25T11:33:03.278Z</time></trkpt><trkpt lat="41.7751649" lon="12.9223864"><ele>262.0</ele><time>2026-04-25T11:33:04.292Z</time></trkpt><trkpt lat="41.7751209" lon="12.9222443"><ele>262.0</ele><time>2026-04-25T11:33:05.281Z</time></trkpt><trkpt lat="41.7750705" lon="12.9221085"><ele>262.0</ele><time>2026-04-25T11:33:06.279Z</time></trkpt><trkpt lat="41.7750237" lon="12.9219742"><ele>262.0</ele><time>2026-04-25T11:33:07.286Z</time></trkpt><trkpt lat="41.7749724" lon="12.921845"><ele>262.0</ele><time>2026-04-25T11:33:08.284Z</time></trkpt><trkpt lat="41.7749182" lon="12.9217158"><ele>262.0</ele><time>2026-04-25T11:33:09.291Z</time></trkpt><trkpt lat="41.7748675" lon="12.9215862"><ele>262.0</ele><time>2026-04-25T11:33:10.276Z</time></trkpt><trkpt lat="41.7748141" lon="12.9214556"><ele>262.0</ele><time>2026-04-25T11:33:11.291Z</time></trkpt><trkpt lat="41.7747618" lon="12.9213285"><ele>262.0</ele><time>2026-04-25T11:33:12.287Z</time></trkpt><trkpt lat="41.7747106" lon="12.9212211"><ele>262.0</ele><time>2026-04-25T11:33:13.29Z</time></trkpt><trkpt lat="41.7746605" lon="12.9211333"><ele>262.0</ele><time>2026-04-25T11:33:14.283Z</time></trkpt><trkpt lat="41.774608" lon="12.9210513"><ele>262.0</ele><time>2026-04-25T11:33:15.275Z</time></trkpt><trkpt lat="41.7745596" lon="12.9209686"><ele>262.0</ele><time>2026-04-25T11:33:16.282Z</time></trkpt><trkpt lat="41.7745162" lon="12.9208751"><ele>262.0</ele><time>2026-04-25T11:33:17.286Z</time></trkpt><trkpt lat="41.7744818" lon="12.9207726"><ele>262.0</ele><time>2026-04-25T11:33:18.276Z</time></trkpt><trkpt lat="41.7744618" lon="12.920665"><ele>262.0</ele><time>2026-04-25T11:33:19.28Z</time></trkpt><trkpt lat="41.7744453" lon="12.9205443"><ele>262.0</ele><time>2026-04-25T11:33:20.281Z</time></trkpt><trkpt lat="41.7744309" lon="12.9204257"><ele>264.5</ele><time>2026-04-25T11:33:21.277Z</time></trkpt><trkpt lat="41.7744235" lon="12.9203117"><ele>267.0</ele><time>2026-04-25T11:33:22.286Z</time></trkpt><trkpt lat="41.7744268" lon="12.9201886"><ele>269.5</ele><time>2026-04-25T11:33:23.286Z</time></trkpt><trkpt lat="41.7744313" lon="12.9200722"><ele>272.0</ele><time>2026-04-25T11:33:24.279Z</time></trkpt><trkpt lat="41.774438" lon="12.9199518"><ele>274.5</ele><time>2026-04-25T11:33:25.287Z</time></trkpt><trkpt lat="41.7744441" lon="12.9198322"><ele>277.0</ele><time>2026-04-25T11:33:26.281Z</time></trkpt><trkpt lat="41.7744527" lon="12.919719"><ele>277.6</ele><time>2026-04-25T11:33:27.274Z</time></trkpt><trkpt lat="41.774457" lon="12.9196267"><ele>278.2</ele><time>2026-04-25T11:33:28.301Z</time></trkpt><trkpt lat="41.7744644" lon="12.9194925"><ele>278.8</ele><time>2026-04-25T11:33:30.284Z</time></trkpt><trkpt lat="41.7744633" lon="12.919325"><ele>279.4</ele><time>2026-04-25T11:33:32.279Z</time></trkpt><trkpt lat="41.7744664" lon="12.9192292"><ele>280.0</ele><time>2026-04-25T11:33:33.28Z</time></trkpt><trkpt lat="41.7744364" lon="12.9190798"><ele>276.16666666666663</ele><time>2026-04-25T11:33:35.292Z</time></trkpt><trkpt lat="41.7743469" lon="12.9190001"><ele>272.3333333333333</ele><time>2026-04-25T11:33:37.28Z</time></trkpt><trkpt lat="41.7742767" lon="12.9189725"><ele>268.5</ele><time>2026-04-25T11:33:38.281Z</time></trkpt><trkpt lat="41.7741964" lon="12.9189702"><ele>264.6666666666667</ele><time>2026-04-25T11:33:39.278Z</time></trkpt><trkpt lat="41.7741202" lon="12.9189655"><ele>260.83333333333337</ele><time>2026-04-25T11:33:40.294Z</time></trkpt><trkpt lat="41.7740521" lon="12.9189621"><ele>257.0</ele><time>2026-04-25T11:33:41.289Z</time></trkpt><trkpt lat="41.7739674" lon="12.9189608"><ele>257.0</ele><time>2026-04-25T11:33:42.274Z</time></trkpt><trkpt lat="41.7738715" lon="12.9189513"><ele>257.0</ele><time>2026-04-25T11:33:43.276Z</time></trkpt><trkpt lat="41.7737464" lon="12.9189366"><ele>257.0</ele><time>2026-04-25T11:33:44.281Z</time></trkpt><trkpt lat="41.7736093" lon="12.9189162"><ele>257.0</ele><time>2026-04-25T11:33:45.274Z</time></trkpt><trkpt lat="41.7734824" lon="12.9188899"><ele>258.25</ele><time>2026-04-25T11:33:46.28Z</time></trkpt><trkpt lat="41.7733755" lon="12.9188796"><ele>259.5</ele><time>2026-04-25T11:33:47.28Z</time></trkpt><trkpt lat="41.7732684" lon="12.918899"><ele>260.75</ele><time>2026-04-25T11:33:48.273Z</time></trkpt><trkpt lat="41.7731623" lon="12.9189634"><ele>262.0</ele><time>2026-04-25T11:33:49.28Z</time></trkpt><trkpt lat="41.7730697" lon="12.9190754"><ele>262.0</ele><time>2026-04-25T11:33:50.277Z</time></trkpt><trkpt lat="41.7729944" lon="12.9192107"><ele>262.0</ele><time>2026-04-25T11:33:51.277Z</time></trkpt><trkpt lat="41.7729255" lon="12.919343"><ele>262.0</ele><time>2026-04-25T11:33:52.279Z</time></trkpt><trkpt lat="41.772844" lon="12.9194576"><ele>262.0</ele><time>2026-04-25T11:33:53.277Z</time></trkpt><trkpt lat="41.772753" lon="12.9195567"><ele>268.5</ele><time>2026-04-25T11:33:54.273Z</time></trkpt><trkpt lat="41.7726545" lon="12.9196642"><ele>275.0</ele><time>2026-04-25T11:33:55.28Z</time></trkpt><trkpt lat="41.7725404" lon="12.9197837"><ele>281.5</ele><time>2026-04-25T11:33:56.284Z</time></trkpt><trkpt lat="41.7724479" lon="12.9198721"><ele>288.0</ele><time>2026-04-25T11:33:57.284Z</time></trkpt><trkpt lat="41.7723571" lon="12.9199602"><ele>288.0</ele><time>2026-04-25T11:33:58.286Z</time></trkpt><trkpt lat="41.7722787" lon="12.9200391"><ele>288.0</ele><time>2026-04-25T11:33:59.285Z</time></trkpt><trkpt lat="41.772209" lon="12.920109"><ele>288.0</ele><time>2026-04-25T11:34:00.295Z</time></trkpt><trkpt lat="41.7721426" lon="12.9201696"><ele>288.0</ele><time>2026-04-25T11:34:01.285Z</time></trkpt><trkpt lat="41.7720805" lon="12.9202294"><ele>288.0</ele><time>2026-04-25T11:34:02.283Z</time></trkpt><trkpt lat="41.7720131" lon="12.9202976"><ele>288.0</ele><time>2026-04-25T11:34:03.289Z</time></trkpt><trkpt lat="41.7719476" lon="12.9203527"><ele>288.1666666666667</ele><time>2026-04-25T11:34:04.283Z</time></trkpt><trkpt lat="41.7718785" lon="12.9204041"><ele>288.3333333333333</ele><time>2026-04-25T11:34:05.286Z</time></trkpt><trkpt lat="41.7718023" lon="12.9204541"><ele>288.5</ele><time>2026-04-25T11:34:06.274Z</time></trkpt><trkpt lat="41.7717211" lon="12.9205007"><ele>288.66666666666663</ele><time>2026-04-25T11:34:07.271Z</time></trkpt><trkpt lat="41.7716379" lon="12.9205465"><ele>288.8333333333333</ele><time>2026-04-25T11:34:08.285Z</time></trkpt><trkpt lat="41.7715557" lon="12.920596"><ele>289.0</ele><time>2026-04-25T11:34:09.28Z</time></trkpt><trkpt lat="41.7714716" lon="12.9206426"><ele>289.0</ele><time>2026-04-25T11:34:10.277Z</time></trkpt><trkpt lat="41.7713851" lon="12.9206917"><ele>289.0</ele><time>2026-04-25T11:34:11.283Z</time></trkpt><trkpt lat="41.7712975" lon="12.9207374"><ele>289.0</ele><time>2026-04-25T11:34:12.276Z</time></trkpt><trkpt lat="41.7712068" lon="12.9207887"><ele>289.0</ele><time>2026-04-25T11:34:13.285Z</time></trkpt><trkpt lat="41.7711155" lon="12.9208376"><ele>289.0</ele><time>2026-04-25T11:34:14.278Z</time></trkpt><trkpt lat="41.7710225" lon="12.9208816"><ele>288.8</ele><time>2026-04-25T11:34:15.283Z</time></trkpt><trkpt lat="41.770926" lon="12.9209187"><ele>288.59999999999997</ele><time>2026-04-25T11:34:16.283Z</time></trkpt><trkpt lat="41.7708248" lon="12.920946"><ele>288.4</ele><time>2026-04-25T11:34:17.286Z</time></trkpt><trkpt lat="41.7707196" lon="12.9209661"><ele>288.2</ele><time>2026-04-25T11:34:18.28Z</time></trkpt><trkpt lat="41.7706182" lon="12.9209789"><ele>288.0</ele><time>2026-04-25T11:34:19.275Z</time></trkpt><trkpt lat="41.770519" lon="12.9209823"><ele>288.0</ele><time>2026-04-25T11:34:20.283Z</time></trkpt><trkpt lat="41.7704185" lon="12.920981"><ele>288.0</ele><time>2026-04-25T11:34:21.284Z</time></trkpt><trkpt lat="41.7703195" lon="12.9209758"><ele>288.0</ele><time>2026-04-25T11:34:22.284Z</time></trkpt><trkpt lat="41.7702177" lon="12.9209652"><ele>288.0</ele><time>2026-04-25T11:34:23.295Z</time></trkpt><trkpt lat="41.7701192" lon="12.9209531"><ele>288.0</ele><time>2026-04-25T11:34:24.279Z</time></trkpt><trkpt lat="41.7700192" lon="12.9209347"><ele>288.0</ele><time>2026-04-25T11:34:25.281Z</time></trkpt><trkpt lat="41.7699242" lon="12.9209068"><ele>288.0</ele><time>2026-04-25T11:34:26.284Z</time></trkpt><trkpt lat="41.7698396" lon="12.9208717"><ele>288.0</ele><time>2026-04-25T11:34:27.289Z</time></trkpt><trkpt lat="41.7697651" lon="12.9208332"><ele>288.0</ele><time>2026-04-25T11:34:28.286Z</time></trkpt><trkpt lat="41.7696982" lon="12.9208017"><ele>288.0</ele><time>2026-04-25T11:34:29.287Z</time></trkpt><trkpt lat="41.7696364" lon="12.9207853"><ele>288.0</ele><time>2026-04-25T11:34:30.287Z</time></trkpt><trkpt lat="41.7695238" lon="12.9207468"><ele>288.3333333333333</ele><time>2026-04-25T11:34:32.275Z</time></trkpt><trkpt lat="41.7694184" lon="12.9206817"><ele>288.6666666666667</ele><time>2026-04-25T11:34:34.273Z</time></trkpt><trkpt lat="41.7693622" lon="12.920639"><ele>289.0</ele><time>2026-04-25T11:34:35.279Z</time></trkpt><trkpt lat="41.7692983" lon="12.9206092"><ele>289.33333333333337</ele><time>2026-04-25T11:34:36.275Z</time></trkpt><trkpt lat="41.7692348" lon="12.9205953"><ele>289.6666666666667</ele><time>2026-04-25T11:34:37.279Z</time></trkpt><trkpt lat="41.7691263" lon="12.9205976"><ele>290.0</ele><time>2026-04-25T11:34:39.293Z</time></trkpt><trkpt lat="41.769049" lon="12.9206004"><ele>290.0</ele><time>2026-04-25T11:34:41.29Z</time></trkpt><trkpt lat="41.7689842" lon="12.9205915"><ele>290.0</ele><time>2026-04-25T11:34:46.281Z</time></trkpt><trkpt lat="41.7688644" lon="12.9205649"><ele>290.0</ele><time>2026-04-25T11:34:49.286Z</time></trkpt><trkpt lat="41.7687603" lon="12.9205297"><ele>290.0</ele><time>2026-04-25T11:34:51.281Z</time></trkpt><trkpt lat="41.7686827" lon="12.9205154"><ele>290.0</ele><time>2026-04-25T11:34:53.298Z</time></trkpt><trkpt lat="41.7685888" lon="12.9204816"><ele>289.33333333333337</ele><time>2026-04-25T11:34:55.284Z</time></trkpt><trkpt lat="41.7684795" lon="12.9204294"><ele>288.6666666666667</ele><time>2026-04-25T11:34:57.301Z</time></trkpt><trkpt lat="41.7683575" lon="12.9203872"><ele>288.0</ele><time>2026-04-25T11:34:59.293Z</time></trkpt><trkpt lat="41.7682938" lon="12.9203582"><ele>287.3333333333333</ele><time>2026-04-25T11:35:00.283Z</time></trkpt><trkpt lat="41.7682291" lon="12.9203228"><ele>286.66666666666663</ele><time>2026-04-25T11:35:01.292Z</time></trkpt><trkpt lat="41.7681664" lon="12.9202821"><ele>286.0</ele><time>2026-04-25T11:35:02.28Z</time></trkpt><trkpt lat="41.7681041" lon="12.9202397"><ele>286.0</ele><time>2026-04-25T11:35:03.281Z</time></trkpt><trkpt lat="41.7680427" lon="12.920195"><ele>286.0</ele><time>2026-04-25T11:35:04.278Z</time></trkpt><trkpt lat="41.7679806" lon="12.9201498"><ele>286.0</ele><time>2026-04-25T11:35:05.29Z</time></trkpt><trkpt lat="41.7679101" lon="12.9200991"><ele>286.0</ele><time>2026-04-25T11:35:06.284Z</time></trkpt><trkpt lat="41.7678392" lon="12.9200507"><ele>286.0</ele><time>2026-04-25T11:35:07.378Z</time></trkpt><trkpt lat="41.7677681" lon="12.9199992"><ele>286.0</ele><time>2026-04-25T11:35:08.28Z</time></trkpt><trkpt lat="41.7676963" lon="12.9199485"><ele>285.66666666666663</ele><time>2026-04-25T11:35:09.281Z</time></trkpt><trkpt lat="41.7676233" lon="12.9198987"><ele>285.3333333333333</ele><time>2026-04-25T11:35:10.281Z</time></trkpt><trkpt lat="41.7675525" lon="12.919851"><ele>285.0</ele><time>2026-04-25T11:35:11.282Z</time></trkpt><trkpt lat="41.767481" lon="12.9198015"><ele>284.6666666666667</ele><time>2026-04-25T11:35:12.299Z</time></trkpt><trkpt lat="41.76741" lon="12.9197531"><ele>284.33333333333337</ele><time>2026-04-25T11:35:13.279Z</time></trkpt><trkpt lat="41.7673316" lon="12.9197032"><ele>284.0</ele><time>2026-04-25T11:35:14.28Z</time></trkpt><trkpt lat="41.7672568" lon="12.9196528"><ele>284.0</ele><time>2026-04-25T11:35:15.288Z</time></trkpt><trkpt lat="41.7671914" lon="12.9196067"><ele>284.0</ele><time>2026-04-25T11:35:16.28Z</time></trkpt><trkpt lat="41.7671204" lon="12.919568"><ele>284.0</ele><time>2026-04-25T11:35:17.281Z</time></trkpt><trkpt lat="41.7670408" lon="12.919526"><ele>284.0</ele><time>2026-04-25T11:35:18.281Z</time></trkpt><trkpt lat="41.7669586" lon="12.9194742"><ele>284.0</ele><time>2026-04-25T11:35:19.281Z</time></trkpt><trkpt lat="41.7668851" lon="12.9194234"><ele>284.0</ele><time>2026-04-25T11:35:20.281Z</time></trkpt><trkpt lat="41.7668082" lon="12.9193574"><ele>284.4</ele><time>2026-04-25T11:35:21.283Z</time></trkpt><trkpt lat="41.766718" lon="12.9192978"><ele>284.79999999999995</ele><time>2026-04-25T11:35:22.286Z</time></trkpt><trkpt lat="41.7666224" lon="12.9192363"><ele>285.20000000000005</ele><time>2026-04-25T11:35:23.282Z</time></trkpt><trkpt lat="41.7665254" lon="12.9191709"><ele>285.6</ele><time>2026-04-25T11:35:24.285Z</time></trkpt><trkpt lat="41.7664217" lon="12.9191038"><ele>286.0</ele><time>2026-04-25T11:35:25.282Z</time></trkpt><trkpt lat="41.7663247" lon="12.9190335"><ele>286.0</ele><time>2026-04-25T11:35:26.288Z</time></trkpt><trkpt lat="41.7662248" lon="12.9189619"><ele>286.0</ele><time>2026-04-25T11:35:27.284Z</time></trkpt><trkpt lat="41.7661312" lon="12.9188938"><ele>286.0</ele><time>2026-04-25T11:35:28.292Z</time></trkpt><trkpt lat="41.7660433" lon="12.9188232"><ele>286.0</ele><time>2026-04-25T11:35:29.29Z</time></trkpt><trkpt lat="41.7659542" lon="12.9187525"><ele>286.0</ele><time>2026-04-25T11:35:30.295Z</time></trkpt><trkpt lat="41.7658703" lon="12.9186736"><ele>286.0</ele><time>2026-04-25T11:35:31.29Z</time></trkpt><trkpt lat="41.7657894" lon="12.9185838"><ele>286.0</ele><time>2026-04-25T11:35:32.276Z</time></trkpt><trkpt lat="41.7657044" lon="12.9184862"><ele>286.0</ele><time>2026-04-25T11:35:33.286Z</time></trkpt><trkpt lat="41.7656215" lon="12.9183965"><ele>286.0</ele><time>2026-04-25T11:35:34.283Z</time></trkpt><trkpt lat="41.7655429" lon="12.9183083"><ele>286.0</ele><time>2026-04-25T11:35:35.281Z</time></trkpt><trkpt lat="41.7654712" lon="12.9182284"><ele>286.0</ele><time>2026-04-25T11:35:36.285Z</time></trkpt><trkpt lat="41.7653894" lon="12.91814"><ele>286.0</ele><time>2026-04-25T11:35:37.282Z</time></trkpt><trkpt lat="41.7653079" lon="12.918046"><ele>286.0</ele><time>2026-04-25T11:35:38.29Z</time></trkpt><trkpt lat="41.7652282" lon="12.9179513"><ele>286.0</ele><time>2026-04-25T11:35:39.282Z</time></trkpt><trkpt lat="41.7651505" lon="12.9178546"><ele>286.0</ele><time>2026-04-25T11:35:40.288Z</time></trkpt><trkpt lat="41.7650684" lon="12.9177654"><ele>285.6</ele><time>2026-04-25T11:35:41.288Z</time></trkpt><trkpt lat="41.7649862" lon="12.9176722"><ele>285.20000000000005</ele><time>2026-04-25T11:35:42.279Z</time></trkpt><trkpt lat="41.7649029" lon="12.9175774"><ele>284.79999999999995</ele><time>2026-04-25T11:35:43.28Z</time></trkpt><trkpt lat="41.7648156" lon="12.9174817"><ele>284.4</ele><time>2026-04-25T11:35:44.275Z</time></trkpt><trkpt lat="41.7647239" lon="12.917381"><ele>284.0</ele><time>2026-04-25T11:35:45.278Z</time></trkpt><trkpt lat="41.764633" lon="12.9172763"><ele>283.25</ele><time>2026-04-25T11:35:46.281Z</time></trkpt><trkpt lat="41.7645426" lon="12.9171695"><ele>282.5</ele><time>2026-04-25T11:35:47.281Z</time></trkpt><trkpt lat="41.7644468" lon="12.9170596"><ele>281.75</ele><time>2026-04-25T11:35:48.279Z</time></trkpt><trkpt lat="41.7643365" lon="12.9169465"><ele>281.0</ele><time>2026-04-25T11:35:49.283Z</time></trkpt><trkpt lat="41.7642197" lon="12.9168241"><ele>281.0</ele><time>2026-04-25T11:35:50.279Z</time></trkpt><trkpt lat="41.7640915" lon="12.916692"><ele>281.0</ele><time>2026-04-25T11:35:51.285Z</time></trkpt><trkpt lat="41.7639546" lon="12.9165535"><ele>281.0</ele><time>2026-04-25T11:35:52.285Z</time></trkpt><trkpt lat="41.7638257" lon="12.9164148"><ele>281.0</ele><time>2026-04-25T11:35:53.281Z</time></trkpt><trkpt lat="41.7636978" lon="12.9162814"><ele>281.0</ele><time>2026-04-25T11:35:54.287Z</time></trkpt><trkpt lat="41.7635678" lon="12.9161442"><ele>281.0</ele><time>2026-04-25T11:35:55.281Z</time></trkpt><trkpt lat="41.7634412" lon="12.9160146"><ele>279.5</ele><time>2026-04-25T11:35:56.282Z</time></trkpt><trkpt lat="41.7633259" lon="12.9158938"><ele>278.0</ele><time>2026-04-25T11:35:57.279Z</time></trkpt><trkpt lat="41.7632146" lon="12.915782"><ele>276.5</ele><time>2026-04-25T11:35:58.279Z</time></trkpt><trkpt lat="41.7631083" lon="12.91568"><ele>275.0</ele><time>2026-04-25T11:35:59.285Z</time></trkpt><trkpt lat="41.7630092" lon="12.9155836"><ele>275.0</ele><time>2026-04-25T11:36:00.288Z</time></trkpt><trkpt lat="41.7629174" lon="12.9154918"><ele>275.0</ele><time>2026-04-25T11:36:01.281Z</time></trkpt><trkpt lat="41.7628263" lon="12.9154062"><ele>275.0</ele><time>2026-04-25T11:36:02.278Z</time></trkpt><trkpt lat="41.7627392" lon="12.9153215"><ele>275.0</ele><time>2026-04-25T11:36:03.274Z</time></trkpt><trkpt lat="41.7626566" lon="12.9152399"><ele>275.0</ele><time>2026-04-25T11:36:04.275Z</time></trkpt><trkpt lat="41.7625823" lon="12.9151661"><ele>274.83333333333337</ele><time>2026-04-25T11:36:05.275Z</time></trkpt><trkpt lat="41.7625278" lon="12.9151044"><ele>274.6666666666667</ele><time>2026-04-25T11:36:06.284Z</time></trkpt><trkpt lat="41.7624844" lon="12.9150061"><ele>274.5</ele><time>2026-04-25T11:36:08.278Z</time></trkpt><trkpt lat="41.7624938" lon="12.9148889"><ele>274.3333333333333</ele><time>2026-04-25T11:36:11.289Z</time></trkpt><trkpt lat="41.7624387" lon="12.914959"><ele>274.16666666666663</ele><time>2026-04-25T11:36:24.278Z</time></trkpt><trkpt lat="41.7623671" lon="12.9150012"><ele>274.0</ele><time>2026-04-25T11:36:31.278Z</time></trkpt><trkpt lat="41.7622298" lon="12.9148828"><ele>273.75</ele><time>2026-04-25T11:36:33.278Z</time></trkpt><trkpt lat="41.7621326" lon="12.914785"><ele>273.5</ele><time>2026-04-25T11:36:34.282Z</time></trkpt><trkpt lat="41.7620289" lon="12.9146893"><ele>273.25</ele><time>2026-04-25T11:36:35.278Z</time></trkpt><trkpt lat="41.761922" lon="12.9145907"><ele>273.0</ele><time>2026-04-25T11:36:36.28Z</time></trkpt><trkpt lat="41.761808" lon="12.9144887"><ele>272.75</ele><time>2026-04-25T11:36:37.279Z</time></trkpt><trkpt lat="41.7616985" lon="12.91439"><ele>272.5</ele><time>2026-04-25T11:36:38.282Z</time></trkpt><trkpt lat="41.7615959" lon="12.9143028"><ele>272.25</ele><time>2026-04-25T11:36:39.278Z</time></trkpt><trkpt lat="41.7614982" lon="12.9142313"><ele>272.0</ele><time>2026-04-25T11:36:40.27Z</time></trkpt><trkpt lat="41.7613945" lon="12.9141648"><ele>272.0</ele><time>2026-04-25T11:36:41.275Z</time></trkpt><trkpt lat="41.7612929" lon="12.9141085"><ele>272.0</ele><time>2026-04-25T11:36:42.278Z</time></trkpt><trkpt lat="41.7611861" lon="12.9140559"><ele>272.0</ele><time>2026-04-25T11:36:43.274Z</time></trkpt><trkpt lat="41.7610645" lon="12.9140031"><ele>272.0</ele><time>2026-04-25T11:36:44.278Z</time></trkpt><trkpt lat="41.7609384" lon="12.9139422"><ele>272.75</ele><time>2026-04-25T11:36:45.273Z</time></trkpt><trkpt lat="41.7608059" lon="12.9138797"><ele>273.5</ele><time>2026-04-25T11:36:46.276Z</time></trkpt><trkpt lat="41.760662" lon="12.9138194"><ele>274.25</ele><time>2026-04-25T11:36:47.274Z</time></trkpt><trkpt lat="41.7605155" lon="12.9137592"><ele>275.0</ele><time>2026-04-25T11:36:48.274Z</time></trkpt><trkpt lat="41.7603735" lon="12.913699"><ele>275.0</ele><time>2026-04-25T11:36:49.284Z</time></trkpt><trkpt lat="41.7602385" lon="12.9136387"><ele>275.0</ele><time>2026-04-25T11:36:50.281Z</time></trkpt><trkpt lat="41.760109" lon="12.9135791"><ele>275.0</ele><time>2026-04-25T11:36:51.278Z</time></trkpt><trkpt lat="41.7599861" lon="12.9135226"><ele>275.0</ele><time>2026-04-25T11:36:52.285Z</time></trkpt><trkpt lat="41.7598666" lon="12.9134672"><ele>276.5</ele><time>2026-04-25T11:36:53.272Z</time></trkpt><trkpt lat="41.7597499" lon="12.9134143"><ele>278.0</ele><time>2026-04-25T11:36:54.278Z</time></trkpt><trkpt lat="41.7596326" lon="12.9133562"><ele>279.5</ele><time>2026-04-25T11:36:55.275Z</time></trkpt><trkpt lat="41.7595185" lon="12.9133072"><ele>281.0</ele><time>2026-04-25T11:36:56.278Z</time></trkpt><trkpt lat="41.7594045" lon="12.9132551"><ele>281.0</ele><time>2026-04-25T11:36:57.276Z</time></trkpt><trkpt lat="41.7592832" lon="12.9132155"><ele>281.0</ele><time>2026-04-25T11:36:58.282Z</time></trkpt><trkpt lat="41.7591591" lon="12.9131768"><ele>281.0</ele><time>2026-04-25T11:36:59.278Z</time></trkpt><trkpt lat="41.7590319" lon="12.9131479"><ele>281.0</ele><time>2026-04-25T11:37:00.274Z</time></trkpt><trkpt lat="41.7589087" lon="12.9131296"><ele>281.0</ele><time>2026-04-25T11:37:01.278Z</time></trkpt><trkpt lat="41.7587908" lon="12.9131314"><ele>281.0</ele><time>2026-04-25T11:37:02.274Z</time></trkpt><trkpt lat="41.758665" lon="12.9131568"><ele>281.0</ele><time>2026-04-25T11:37:03.283Z</time></trkpt><trkpt lat="41.758539" lon="12.9131987"><ele>281.0</ele><time>2026-04-25T11:37:04.284Z</time></trkpt><trkpt lat="41.7584181" lon="12.9132608"><ele>280.75</ele><time>2026-04-25T11:37:05.272Z</time></trkpt><trkpt lat="41.7582867" lon="12.9133441"><ele>280.5</ele><time>2026-04-25T11:37:06.276Z</time></trkpt><trkpt lat="41.7581678" lon="12.9134345"><ele>280.25</ele><time>2026-04-25T11:37:07.276Z</time></trkpt><trkpt lat="41.7580463" lon="12.9135147"><ele>280.0</ele><time>2026-04-25T11:37:08.287Z</time></trkpt><trkpt lat="41.7578981" lon="12.9135997"><ele>280.0</ele><time>2026-04-25T11:37:09.277Z</time></trkpt><trkpt lat="41.7577122" lon="12.9136797"><ele>280.0</ele><time>2026-04-25T11:37:10.279Z</time></trkpt><trkpt lat="41.7575186" lon="12.9137514"><ele>280.0</ele><time>2026-04-25T11:37:11.276Z</time></trkpt><trkpt lat="41.7573355" lon="12.9138204"><ele>277.66666666666663</ele><time>2026-04-25T11:37:12.277Z</time></trkpt><trkpt lat="41.7571678" lon="12.913885"><ele>275.3333333333333</ele><time>2026-04-25T11:37:13.286Z</time></trkpt><trkpt lat="41.7570134" lon="12.9139425"><ele>273.0</ele><time>2026-04-25T11:37:14.275Z</time></trkpt><trkpt lat="41.7568712" lon="12.9139987"><ele>272.5</ele><time>2026-04-25T11:37:15.274Z</time></trkpt><trkpt lat="41.7567442" lon="12.9140276"><ele>272.0</ele><time>2026-04-25T11:37:16.276Z</time></trkpt><trkpt lat="41.75663" lon="12.9140252"><ele>271.5</ele><time>2026-04-25T11:37:17.277Z</time></trkpt><trkpt lat="41.7565198" lon="12.9139836"><ele>271.0</ele><time>2026-04-25T11:37:18.273Z</time></trkpt><trkpt lat="41.7564244" lon="12.9138989"><ele>271.0</ele><time>2026-04-25T11:37:19.275Z</time></trkpt><trkpt lat="41.756347" lon="12.9137547"><ele>271.0</ele><time>2026-04-25T11:37:20.275Z</time></trkpt><trkpt lat="41.7562834" lon="12.9135622"><ele>271.0</ele><time>2026-04-25T11:37:21.281Z</time></trkpt><trkpt lat="41.7562191" lon="12.9133266"><ele>271.66666666666663</ele><time>2026-04-25T11:37:22.275Z</time></trkpt><trkpt lat="41.7561551" lon="12.9131131"><ele>272.3333333333333</ele><time>2026-04-25T11:37:23.274Z</time></trkpt><trkpt lat="41.7560994" lon="12.9129158"><ele>273.0</ele><time>2026-04-25T11:37:24.272Z</time></trkpt><trkpt lat="41.7560512" lon="12.9127393"><ele>273.0</ele><time>2026-04-25T11:37:25.274Z</time></trkpt><trkpt lat="41.7559996" lon="12.9125786"><ele>273.0</ele><time>2026-04-25T11:37:26.276Z</time></trkpt><trkpt lat="41.7559333" lon="12.9124317"><ele>273.0</ele><time>2026-04-25T11:37:27.283Z</time></trkpt><trkpt lat="41.7558563" lon="12.9123039"><ele>273.0</ele><time>2026-04-25T11:37:28.278Z</time></trkpt><trkpt lat="41.7557765" lon="12.9122042"><ele>273.0</ele><time>2026-04-25T11:37:29.28Z</time></trkpt><trkpt lat="41.755685" lon="12.9121269"><ele>273.0</ele><time>2026-04-25T11:37:30.28Z</time></trkpt><trkpt lat="41.7555731" lon="12.9120802"><ele>273.0</ele><time>2026-04-25T11:37:31.278Z</time></trkpt><trkpt lat="41.7554534" lon="12.9120749"><ele>273.0</ele><time>2026-04-25T11:37:32.279Z</time></trkpt><trkpt lat="41.7553153" lon="12.9121125"><ele>272.3333333333333</ele><time>2026-04-25T11:37:33.28Z</time></trkpt><trkpt lat="41.755162" lon="12.9121814"><ele>271.66666666666663</ele><time>2026-04-25T11:37:34.278Z</time></trkpt><trkpt lat="41.7550078" lon="12.9122558"><ele>271.0</ele><time>2026-04-25T11:37:35.277Z</time></trkpt><trkpt lat="41.7548674" lon="12.9123286"><ele>271.0</ele><time>2026-04-25T11:37:36.276Z</time></trkpt><trkpt lat="41.7547336" lon="12.912426"><ele>271.0</ele><time>2026-04-25T11:37:37.273Z</time></trkpt><trkpt lat="41.7546179" lon="12.9125468"><ele>271.0</ele><time>2026-04-25T11:37:38.279Z</time></trkpt><trkpt lat="41.7545262" lon="12.9126749"><ele>271.0</ele><time>2026-04-25T11:37:39.272Z</time></trkpt><trkpt lat="41.7544557" lon="12.9128385"><ele>270.66666666666663</ele><time>2026-04-25T11:37:40.277Z</time></trkpt><trkpt lat="41.7544039" lon="12.9130397"><ele>270.3333333333333</ele><time>2026-04-25T11:37:41.273Z</time></trkpt><trkpt lat="41.7543671" lon="12.9132929"><ele>270.0</ele><time>2026-04-25T11:37:42.279Z</time></trkpt><trkpt lat="41.7543446" lon="12.91356"><ele>272.3333333333333</ele><time>2026-04-25T11:37:43.278Z</time></trkpt><trkpt lat="41.7543237" lon="12.9137994"><ele>274.66666666666663</ele><time>2026-04-25T11:37:44.277Z</time></trkpt><trkpt lat="41.7542935" lon="12.9140374"><ele>277.0</ele><time>2026-04-25T11:37:45.274Z</time></trkpt><trkpt lat="41.7542271" lon="12.9142599"><ele>278.0</ele><time>2026-04-25T11:37:46.279Z</time></trkpt><trkpt lat="41.7541346" lon="12.9144683"><ele>279.0</ele><time>2026-04-25T11:37:47.275Z</time></trkpt><trkpt lat="41.7540514" lon="12.9146536"><ele>280.0</ele><time>2026-04-25T11:37:48.279Z</time></trkpt><trkpt lat="41.7539631" lon="12.9148023"><ele>280.0</ele><time>2026-04-25T11:37:49.276Z</time></trkpt><trkpt lat="41.7538585" lon="12.9149167"><ele>280.0</ele><time>2026-04-25T11:37:50.28Z</time></trkpt><trkpt lat="41.7537417" lon="12.9149997"><ele>280.0</ele><time>2026-04-25T11:37:51.277Z</time></trkpt><trkpt lat="41.7536062" lon="12.9150483"><ele>280.0</ele><time>2026-04-25T11:37:52.276Z</time></trkpt><trkpt lat="41.7534656" lon="12.9150757"><ele>281.2</ele><time>2026-04-25T11:37:53.278Z</time></trkpt><trkpt lat="41.7533354" lon="12.9150956"><ele>282.4</ele><time>2026-04-25T11:37:54.278Z</time></trkpt><trkpt lat="41.7532186" lon="12.9151033"><ele>283.6</ele><time>2026-04-25T11:37:55.276Z</time></trkpt><trkpt lat="41.7531156" lon="12.9151117"><ele>284.8</ele><time>2026-04-25T11:37:56.275Z</time></trkpt><trkpt lat="41.7530229" lon="12.9151154"><ele>286.0</ele><time>2026-04-25T11:37:57.281Z</time></trkpt><trkpt lat="41.7529341" lon="12.9151194"><ele>286.0</ele><time>2026-04-25T11:37:58.274Z</time></trkpt><trkpt lat="41.752847" lon="12.9151235"><ele>286.0</ele><time>2026-04-25T11:37:59.28Z</time></trkpt><trkpt lat="41.7527579" lon="12.9151262"><ele>286.0</ele><time>2026-04-25T11:38:00.277Z</time></trkpt><trkpt lat="41.752668" lon="12.9151299"><ele>286.0</ele><time>2026-04-25T11:38:01.279Z</time></trkpt><trkpt lat="41.7525734" lon="12.9151353"><ele>286.0</ele><time>2026-04-25T11:38:02.276Z</time></trkpt><trkpt lat="41.7524739" lon="12.9151396"><ele>286.2</ele><time>2026-04-25T11:38:03.274Z</time></trkpt><trkpt lat="41.7523741" lon="12.9151441"><ele>286.40000000000003</ele><time>2026-04-25T11:38:04.282Z</time></trkpt><trkpt lat="41.7522729" lon="12.9151512"><ele>286.6</ele><time>2026-04-25T11:38:05.275Z</time></trkpt><trkpt lat="41.7521719" lon="12.9151542"><ele>286.8</ele><time>2026-04-25T11:38:06.274Z</time></trkpt><trkpt lat="41.7520683" lon="12.9151571"><ele>287.0</ele><time>2026-04-25T11:38:07.277Z</time></trkpt><trkpt lat="41.751964" lon="12.9151639"><ele>285.8</ele><time>2026-04-25T11:38:08.278Z</time></trkpt><trkpt lat="41.7518675" lon="12.9151649"><ele>284.6</ele><time>2026-04-25T11:38:09.28Z</time></trkpt><trkpt lat="41.7517718" lon="12.9151647"><ele>283.40000000000003</ele><time>2026-04-25T11:38:10.28Z</time></trkpt><trkpt lat="41.7516821" lon="12.9151618"><ele>282.2</ele><time>2026-04-25T11:38:11.285Z</time></trkpt><trkpt lat="41.7515918" lon="12.9151694"><ele>281.0</ele><time>2026-04-25T11:38:12.285Z</time></trkpt><trkpt lat="41.7515059" lon="12.9151713"><ele>281.0</ele><time>2026-04-25T11:38:13.283Z</time></trkpt><trkpt lat="41.7514212" lon="12.9151783"><ele>281.0</ele><time>2026-04-25T11:38:14.278Z</time></trkpt><trkpt lat="41.751343" lon="12.9151771"><ele>281.0</ele><time>2026-04-25T11:38:15.27Z</time></trkpt><trkpt lat="41.7512666" lon="12.9151802"><ele>281.0</ele><time>2026-04-25T11:38:16.279Z</time></trkpt><trkpt lat="41.7511882" lon="12.9151779"><ele>281.0</ele><time>2026-04-25T11:38:17.274Z</time></trkpt><trkpt lat="41.7511141" lon="12.9151789"><ele>281.0</ele><time>2026-04-25T11:38:18.276Z</time></trkpt><trkpt lat="41.7510436" lon="12.9151733"><ele>279.40000000000003</ele><time>2026-04-25T11:38:19.274Z</time></trkpt><trkpt lat="41.7509762" lon="12.9151596"><ele>277.8</ele><time>2026-04-25T11:38:20.281Z</time></trkpt><trkpt lat="41.7509121" lon="12.915138"><ele>276.20000000000005</ele><time>2026-04-25T11:38:21.283Z</time></trkpt><trkpt lat="41.7507902" lon="12.9151251"><ele>274.6</ele><time>2026-04-25T11:38:23.284Z</time></trkpt><trkpt lat="41.750667" lon="12.9151279"><ele>273.0</ele><time>2026-04-25T11:38:25.282Z</time></trkpt><trkpt lat="41.750578" lon="12.9151049"><ele>273.3333333333333</ele><time>2026-04-25T11:38:27.285Z</time></trkpt><trkpt lat="41.7505195" lon="12.9150397"><ele>273.6666666666667</ele><time>2026-04-25T11:38:30.285Z</time></trkpt><trkpt lat="41.750521" lon="12.9149258"><ele>274.0</ele><time>2026-04-25T11:38:33.279Z</time></trkpt><trkpt lat="41.750515" lon="12.9148357"><ele>274.33333333333337</ele><time>2026-04-25T11:38:35.281Z</time></trkpt><trkpt lat="41.7504821" lon="12.9147445"><ele>274.6666666666667</ele><time>2026-04-25T11:38:38.281Z</time></trkpt><trkpt lat="41.7504454" lon="12.9148388"><ele>275.0</ele><time>2026-04-25T11:38:41.277Z</time></trkpt><trkpt lat="41.750484" lon="12.9149401"><ele>275.0</ele><time>2026-04-25T11:38:43.281Z</time></trkpt><trkpt lat="41.750524" lon="12.9150371"><ele>275.0</ele><time>2026-04-25T11:38:45.276Z</time></trkpt><trkpt lat="41.7505148" lon="12.9151242"><ele>275.0</ele><time>2026-04-25T11:38:47.277Z</time></trkpt><trkpt lat="41.7504623" lon="12.9151768"><ele>275.0</ele><time>2026-04-25T11:38:51.277Z</time></trkpt><trkpt lat="41.7503612" lon="12.9151956"><ele>275.0</ele><time>2026-04-25T11:38:55.279Z</time></trkpt><trkpt lat="41.7502449" lon="12.915161"><ele>275.0</ele><time>2026-04-25T11:38:57.275Z</time></trkpt><trkpt lat="41.7501427" lon="12.9151357"><ele>274.33333333333337</ele><time>2026-04-25T11:38:59.278Z</time></trkpt><trkpt lat="41.7500482" lon="12.9151306"><ele>273.6666666666667</ele><time>2026-04-25T11:39:01.281Z</time></trkpt><trkpt lat="41.7499293" lon="12.9151869"><ele>273.0</ele><time>2026-04-25T11:39:03.278Z</time></trkpt><trkpt lat="41.7498659" lon="12.9152188"><ele>272.3333333333333</ele><time>2026-04-25T11:39:04.28Z</time></trkpt><trkpt lat="41.7497964" lon="12.9152405"><ele>271.66666666666663</ele><time>2026-04-25T11:39:05.278Z</time></trkpt><trkpt lat="41.7497198" lon="12.9152519"><ele>271.0</ele><time>2026-04-25T11:39:06.279Z</time></trkpt><trkpt lat="41.749643" lon="12.9152553"><ele>271.0</ele><time>2026-04-25T11:39:07.274Z</time></trkpt><trkpt lat="41.7495673" lon="12.9152617"><ele>271.0</ele><time>2026-04-25T11:39:08.281Z</time></trkpt><trkpt lat="41.749488" lon="12.9152677"><ele>271.0</ele><time>2026-04-25T11:39:09.275Z</time></trkpt><trkpt lat="41.7494067" lon="12.9152689"><ele>271.0</ele><time>2026-04-25T11:39:10.276Z</time></trkpt><trkpt lat="41.7493278" lon="12.9152677"><ele>271.0</ele><time>2026-04-25T11:39:11.276Z</time></trkpt><trkpt lat="41.7492499" lon="12.9152822"><ele>271.0</ele><time>2026-04-25T11:39:12.279Z</time></trkpt><trkpt lat="41.7491712" lon="12.9152896"><ele>271.0</ele><time>2026-04-25T11:39:13.279Z</time></trkpt><trkpt lat="41.7490896" lon="12.9152931"><ele>271.0</ele><time>2026-04-25T11:39:14.278Z</time></trkpt><trkpt lat="41.7490076" lon="12.9152911"><ele>271.0</ele><time>2026-04-25T11:39:15.281Z</time></trkpt><trkpt lat="41.7489274" lon="12.9152918"><ele>271.0</ele><time>2026-04-25T11:39:16.276Z</time></trkpt><trkpt lat="41.7488433" lon="12.9152938"><ele>271.0</ele><time>2026-04-25T11:39:17.28Z</time></trkpt><trkpt lat="41.7487605" lon="12.9152929"><ele>271.0</ele><time>2026-04-25T11:39:18.282Z</time></trkpt><trkpt lat="41.7486772" lon="12.915297"><ele>271.0</ele><time>2026-04-25T11:39:19.276Z</time></trkpt><trkpt lat="41.7485944" lon="12.9153012"><ele>271.0</ele><time>2026-04-25T11:39:20.28Z</time></trkpt><trkpt lat="41.7485109" lon="12.9153041"><ele>271.0</ele><time>2026-04-25T11:39:21.279Z</time></trkpt><trkpt lat="41.7484276" lon="12.9153078"><ele>271.0</ele><time>2026-04-25T11:39:22.278Z</time></trkpt><trkpt lat="41.7483474" lon="12.9153116"><ele>271.0</ele><time>2026-04-25T11:39:23.276Z</time></trkpt><trkpt lat="41.7482676" lon="12.9153175"><ele>271.0</ele><time>2026-04-25T11:39:24.275Z</time></trkpt><trkpt lat="41.7481872" lon="12.9153225"><ele>270.66666666666663</ele><time>2026-04-25T11:39:25.279Z</time></trkpt><trkpt lat="41.7481064" lon="12.9153278"><ele>270.3333333333333</ele><time>2026-04-25T11:39:26.281Z</time></trkpt><trkpt lat="41.7480247" lon="12.9153332"><ele>270.0</ele><time>2026-04-25T11:39:27.278Z</time></trkpt><trkpt lat="41.7479468" lon="12.9153388"><ele>269.6666666666667</ele><time>2026-04-25T11:39:28.279Z</time></trkpt><trkpt lat="41.7478671" lon="12.9153404"><ele>269.33333333333337</ele><time>2026-04-25T11:39:29.276Z</time></trkpt><trkpt lat="41.7477883" lon="12.9153432"><ele>269.0</ele><time>2026-04-25T11:39:30.285Z</time></trkpt><trkpt lat="41.747707" lon="12.9153439"><ele>269.0</ele><time>2026-04-25T11:39:31.275Z</time></trkpt><trkpt lat="41.7476281" lon="12.9153494"><ele>269.0</ele><time>2026-04-25T11:39:32.277Z</time></trkpt><trkpt lat="41.7475458" lon="12.9153541"><ele>269.0</ele><time>2026-04-25T11:39:33.285Z</time></trkpt><trkpt lat="41.7474667" lon="12.9153579"><ele>269.0</ele><time>2026-04-25T11:39:34.278Z</time></trkpt><trkpt lat="41.7473841" lon="12.9153615"><ele>269.0</ele><time>2026-04-25T11:39:35.288Z</time></trkpt><trkpt lat="41.7473046" lon="12.9153659"><ele>269.0</ele><time>2026-04-25T11:39:36.282Z</time></trkpt><trkpt lat="41.7472234" lon="12.9153645"><ele>269.0</ele><time>2026-04-25T11:39:37.279Z</time></trkpt><trkpt lat="41.7471386" lon="12.9153662"><ele>269.0</ele><time>2026-04-25T11:39:38.287Z</time></trkpt><trkpt lat="41.7470559" lon="12.9153671"><ele>269.0</ele><time>2026-04-25T11:39:39.286Z</time></trkpt><trkpt lat="41.7469717" lon="12.9153739"><ele>269.0</ele><time>2026-04-25T11:39:40.284Z</time></trkpt><trkpt lat="41.7468883" lon="12.9153822"><ele>269.0</ele><time>2026-04-25T11:39:41.278Z</time></trkpt><trkpt lat="41.7468057" lon="12.9153909"><ele>269.0</ele><time>2026-04-25T11:39:42.287Z</time></trkpt><trkpt lat="41.7467239" lon="12.9154006"><ele>269.33333333333337</ele><time>2026-04-25T11:39:43.28Z</time></trkpt><trkpt lat="41.7466437" lon="12.9154046"><ele>269.6666666666667</ele><time>2026-04-25T11:39:44.285Z</time></trkpt><trkpt lat="41.7465592" lon="12.9154123"><ele>270.0</ele><time>2026-04-25T11:39:45.279Z</time></trkpt><trkpt lat="41.7464744" lon="12.915419"><ele>270.3333333333333</ele><time>2026-04-25T11:39:46.282Z</time></trkpt><trkpt lat="41.7463867" lon="12.9154258"><ele>270.66666666666663</ele><time>2026-04-25T11:39:47.274Z</time></trkpt><trkpt lat="41.7463041" lon="12.9154281"><ele>271.0</ele><time>2026-04-25T11:39:48.278Z</time></trkpt><trkpt lat="41.7462191" lon="12.9154333"><ele>271.0</ele><time>2026-04-25T11:39:49.278Z</time></trkpt><trkpt lat="41.7461331" lon="12.9154385"><ele>271.0</ele><time>2026-04-25T11:39:50.28Z</time></trkpt><trkpt lat="41.7460485" lon="12.9154383"><ele>271.0</ele><time>2026-04-25T11:39:51.278Z</time></trkpt><trkpt lat="41.7459656" lon="12.9154447"><ele>271.0</ele><time>2026-04-25T11:39:52.278Z</time></trkpt><trkpt lat="41.7458755" lon="12.9154504"><ele>271.0</ele><time>2026-04-25T11:39:53.283Z</time></trkpt><trkpt lat="41.7457871" lon="12.9154557"><ele>271.0</ele><time>2026-04-25T11:39:54.282Z</time></trkpt><trkpt lat="41.7456929" lon="12.9154585"><ele>271.6</ele><time>2026-04-25T11:39:55.282Z</time></trkpt><trkpt lat="41.7455996" lon="12.9154569"><ele>272.20000000000005</ele><time>2026-04-25T11:39:56.277Z</time></trkpt><trkpt lat="41.7455052" lon="12.9154489"><ele>272.79999999999995</ele><time>2026-04-25T11:39:57.274Z</time></trkpt><trkpt lat="41.7454074" lon="12.9154289"><ele>273.4</ele><time>2026-04-25T11:39:58.277Z</time></trkpt><trkpt lat="41.7453044" lon="12.9154061"><ele>274.0</ele><time>2026-04-25T11:39:59.286Z</time></trkpt><trkpt lat="41.7452006" lon="12.9153868"><ele>274.4</ele><time>2026-04-25T11:40:00.28Z</time></trkpt><trkpt lat="41.745095" lon="12.9153682"><ele>274.79999999999995</ele><time>2026-04-25T11:40:01.277Z</time></trkpt><trkpt lat="41.7449963" lon="12.9153517"><ele>275.20000000000005</ele><time>2026-04-25T11:40:02.277Z</time></trkpt><trkpt lat="41.7448936" lon="12.9153308"><ele>275.6</ele><time>2026-04-25T11:40:03.282Z</time></trkpt><trkpt lat="41.7447905" lon="12.9153128"><ele>276.0</ele><time>2026-04-25T11:40:04.286Z</time></trkpt><trkpt lat="41.7446881" lon="12.9152899"><ele>276.0</ele><time>2026-04-25T11:40:05.288Z</time></trkpt><trkpt lat="41.7445891" lon="12.9152683"><ele>276.0</ele><time>2026-04-25T11:40:06.284Z</time></trkpt><trkpt lat="41.7444888" lon="12.9152501"><ele>276.0</ele><time>2026-04-25T11:40:07.273Z</time></trkpt><trkpt lat="41.7443866" lon="12.9152348"><ele>276.0</ele><time>2026-04-25T11:40:08.279Z</time></trkpt><trkpt lat="41.7442851" lon="12.9152117"><ele>276.0</ele><time>2026-04-25T11:40:09.277Z</time></trkpt><trkpt lat="41.7441849" lon="12.9151937"><ele>276.0</ele><time>2026-04-25T11:40:10.277Z</time></trkpt><trkpt lat="41.7440826" lon="12.9151726"><ele>276.0</ele><time>2026-04-25T11:40:11.28Z</time></trkpt><trkpt lat="41.7439795" lon="12.9151574"><ele>276.0</ele><time>2026-04-25T11:40:12.278Z</time></trkpt><trkpt lat="41.7438754" lon="12.9151388"><ele>276.0</ele><time>2026-04-25T11:40:13.281Z</time></trkpt><trkpt lat="41.7437725" lon="12.9151203"><ele>276.0</ele><time>2026-04-25T11:40:14.278Z</time></trkpt><trkpt lat="41.7436664" lon="12.9150971"><ele>276.0</ele><time>2026-04-25T11:40:15.281Z</time></trkpt><trkpt lat="41.7435614" lon="12.9150823"><ele>276.0</ele><time>2026-04-25T11:40:16.289Z</time></trkpt><trkpt lat="41.7434562" lon="12.915065"><ele>276.0</ele><time>2026-04-25T11:40:17.279Z</time></trkpt><trkpt lat="41.7433493" lon="12.9150414"><ele>276.0</ele><time>2026-04-25T11:40:18.282Z</time></trkpt><trkpt lat="41.743242" lon="12.9150158"><ele>276.0</ele><time>2026-04-25T11:40:19.281Z</time></trkpt><trkpt lat="41.7431361" lon="12.9149924"><ele>276.6</ele><time>2026-04-25T11:40:20.275Z</time></trkpt><trkpt lat="41.7430315" lon="12.9149674"><ele>277.20000000000005</ele><time>2026-04-25T11:40:21.28Z</time></trkpt><trkpt lat="41.7429254" lon="12.9149354"><ele>277.79999999999995</ele><time>2026-04-25T11:40:22.273Z</time></trkpt><trkpt lat="41.7428245" lon="12.9148901"><ele>278.4</ele><time>2026-04-25T11:40:23.276Z</time></trkpt><trkpt lat="41.7427262" lon="12.9148333"><ele>279.0</ele><time>2026-04-25T11:40:24.279Z</time></trkpt><trkpt lat="41.7426412" lon="12.9147707"><ele>279.3333333333333</ele><time>2026-04-25T11:40:25.281Z</time></trkpt><trkpt lat="41.742563" lon="12.9147095"><ele>279.6666666666667</ele><time>2026-04-25T11:40:26.274Z</time></trkpt><trkpt lat="41.7424886" lon="12.9146569"><ele>280.0</ele><time>2026-04-25T11:40:27.286Z</time></trkpt><trkpt lat="41.7424154" lon="12.9146201"><ele>280.33333333333337</ele><time>2026-04-25T11:40:28.278Z</time></trkpt><trkpt lat="41.74234" lon="12.9145995"><ele>280.6666666666667</ele><time>2026-04-25T11:40:29.278Z</time></trkpt><trkpt lat="41.7422681" lon="12.914575"><ele>281.0</ele><time>2026-04-25T11:40:30.274Z</time></trkpt><trkpt lat="41.7421968" lon="12.9145482"><ele>281.00000000000006</ele><time>2026-04-25T11:40:31.276Z</time></trkpt><trkpt lat="41.7421244" lon="12.9145267"><ele>281.0</ele><time>2026-04-25T11:40:32.282Z</time></trkpt><trkpt lat="41.7420559" lon="12.9145055"><ele>281.0</ele><time>2026-04-25T11:40:33.285Z</time></trkpt><trkpt lat="41.7419929" lon="12.9144882"><ele>281.0</ele><time>2026-04-25T11:40:34.28Z</time></trkpt><trkpt lat="41.7419266" lon="12.9144679"><ele>281.0</ele><time>2026-04-25T11:40:35.284Z</time></trkpt><trkpt lat="41.7418461" lon="12.9144665"><ele>281.00000000000006</ele><time>2026-04-25T11:40:36.278Z</time></trkpt><trkpt lat="41.7417593" lon="12.9144977"><ele>281.0</ele><time>2026-04-25T11:40:37.283Z</time></trkpt><trkpt lat="41.7416625" lon="12.9145391"><ele>281.2</ele><time>2026-04-25T11:40:38.279Z</time></trkpt><trkpt lat="41.7415566" lon="12.9145602"><ele>281.40000000000003</ele><time>2026-04-25T11:40:39.28Z</time></trkpt><trkpt lat="41.7414582" lon="12.9145609"><ele>281.6</ele><time>2026-04-25T11:40:40.285Z</time></trkpt><trkpt lat="41.7413607" lon="12.9145215"><ele>281.8</ele><time>2026-04-25T11:40:41.286Z</time></trkpt><trkpt lat="41.741278" lon="12.91444"><ele>282.0</ele><time>2026-04-25T11:40:42.285Z</time></trkpt><trkpt lat="41.7412051" lon="12.9143233"><ele>283.5</ele><time>2026-04-25T11:40:43.279Z</time></trkpt><trkpt lat="41.7411506" lon="12.9141795"><ele>285.0</ele><time>2026-04-25T11:40:44.279Z</time></trkpt><trkpt lat="41.7410954" lon="12.9140363"><ele>286.5</ele><time>2026-04-25T11:40:45.278Z</time></trkpt><trkpt lat="41.7410281" lon="12.9138895"><ele>288.0</ele><time>2026-04-25T11:40:46.28Z</time></trkpt><trkpt lat="41.7409483" lon="12.9137559"><ele>289.0</ele><time>2026-04-25T11:40:47.283Z</time></trkpt><trkpt lat="41.7408515" lon="12.9136386"><ele>290.0</ele><time>2026-04-25T11:40:48.276Z</time></trkpt><trkpt lat="41.7407552" lon="12.9135265"><ele>291.0</ele><time>2026-04-25T11:40:49.28Z</time></trkpt><trkpt lat="41.7406563" lon="12.913411"><ele>292.0</ele><time>2026-04-25T11:40:50.278Z</time></trkpt><trkpt lat="41.7405824" lon="12.913288"><ele>292.0</ele><time>2026-04-25T11:40:51.282Z</time></trkpt><trkpt lat="41.7405281" lon="12.913165"><ele>292.0</ele><time>2026-04-25T11:40:52.281Z</time></trkpt><trkpt lat="41.7404973" lon="12.9130288"><ele>292.0</ele><time>2026-04-25T11:40:53.284Z</time></trkpt><trkpt lat="41.7404975" lon="12.9128789"><ele>292.0</ele><time>2026-04-25T11:40:54.282Z</time></trkpt><trkpt lat="41.7404976" lon="12.912734"><ele>292.0</ele><time>2026-04-25T11:40:55.286Z</time></trkpt><trkpt lat="41.740495" lon="12.9126101"><ele>293.0</ele><time>2026-04-25T11:40:56.279Z</time></trkpt><trkpt lat="41.740496" lon="12.9124937"><ele>294.0</ele><time>2026-04-25T11:40:57.285Z</time></trkpt><trkpt lat="41.7404999" lon="12.912385"><ele>295.0</ele><time>2026-04-25T11:40:58.28Z</time></trkpt><trkpt lat="41.7405092" lon="12.9122364"><ele>296.0</ele><time>2026-04-25T11:41:00.281Z</time></trkpt><trkpt lat="41.7405391" lon="12.9121345"><ele>297.0</ele><time>2026-04-25T11:41:02.281Z</time></trkpt><trkpt lat="41.7406225" lon="12.9120436"><ele>297.0</ele><time>2026-04-25T11:41:04.288Z</time></trkpt><trkpt lat="41.7406489" lon="12.9119576"><ele>297.0</ele><time>2026-04-25T11:41:05.288Z</time></trkpt><trkpt lat="41.740657" lon="12.9118545"><ele>297.0</ele><time>2026-04-25T11:41:06.279Z</time></trkpt><trkpt lat="41.7406519" lon="12.9117503"><ele>297.0</ele><time>2026-04-25T11:41:07.284Z</time></trkpt><trkpt lat="41.7406434" lon="12.9116383"><ele>297.0</ele><time>2026-04-25T11:41:08.281Z</time></trkpt><trkpt lat="41.7406369" lon="12.9115276"><ele>297.0</ele><time>2026-04-25T11:41:09.278Z</time></trkpt><trkpt lat="41.740641" lon="12.9114173"><ele>298.2</ele><time>2026-04-25T11:41:10.287Z</time></trkpt><trkpt lat="41.7406476" lon="12.9112991"><ele>299.4</ele><time>2026-04-25T11:41:11.278Z</time></trkpt><trkpt lat="41.7406676" lon="12.9111632"><ele>300.6</ele><time>2026-04-25T11:41:12.282Z</time></trkpt><trkpt lat="41.7406904" lon="12.9110282"><ele>301.8</ele><time>2026-04-25T11:41:13.281Z</time></trkpt><trkpt lat="41.7407177" lon="12.9108931"><ele>303.0</ele><time>2026-04-25T11:41:14.28Z</time></trkpt><trkpt lat="41.7407469" lon="12.9107605"><ele>303.8</ele><time>2026-04-25T11:41:15.279Z</time></trkpt><trkpt lat="41.7407828" lon="12.9106278"><ele>304.6</ele><time>2026-04-25T11:41:16.285Z</time></trkpt><trkpt lat="41.7408206" lon="12.910493"><ele>305.4</ele><time>2026-04-25T11:41:17.28Z</time></trkpt><trkpt lat="41.7408573" lon="12.9103607"><ele>306.2</ele><time>2026-04-25T11:41:18.285Z</time></trkpt><trkpt lat="41.7409017" lon="12.9102226"><ele>307.0</ele><time>2026-04-25T11:41:19.28Z</time></trkpt><trkpt lat="41.7409535" lon="12.9100843"><ele>308.25</ele><time>2026-04-25T11:41:20.286Z</time></trkpt><trkpt lat="41.7410094" lon="12.9099456"><ele>309.5</ele><time>2026-04-25T11:41:21.281Z</time></trkpt><trkpt lat="41.7410637" lon="12.9097908"><ele>310.75</ele><time>2026-04-25T11:41:22.275Z</time></trkpt><trkpt lat="41.7411114" lon="12.9096358"><ele>312.0</ele><time>2026-04-25T11:41:23.284Z</time></trkpt><trkpt lat="41.7411529" lon="12.9094746"><ele>309.75</ele><time>2026-04-25T11:41:24.286Z</time></trkpt><trkpt lat="41.7411891" lon="12.9093167"><ele>307.5</ele><time>2026-04-25T11:41:25.289Z</time></trkpt><trkpt lat="41.7412248" lon="12.9091596"><ele>305.25</ele><time>2026-04-25T11:41:26.287Z</time></trkpt><trkpt lat="41.7412592" lon="12.9090019"><ele>303.0</ele><time>2026-04-25T11:41:27.279Z</time></trkpt><trkpt lat="41.7412895" lon="12.9088571"><ele>303.0</ele><time>2026-04-25T11:41:28.273Z</time></trkpt><trkpt lat="41.7413129" lon="12.9087135"><ele>303.0</ele><time>2026-04-25T11:41:29.277Z</time></trkpt><trkpt lat="41.7413276" lon="12.90856"><ele>303.0</ele><time>2026-04-25T11:41:30.277Z</time></trkpt><trkpt lat="41.7413257" lon="12.9084017"><ele>303.0</ele><time>2026-04-25T11:41:31.283Z</time></trkpt><trkpt lat="41.7413156" lon="12.9082473"><ele>303.0</ele><time>2026-04-25T11:41:32.281Z</time></trkpt><trkpt lat="41.7413" lon="12.9081095"><ele>303.0</ele><time>2026-04-25T11:41:33.282Z</time></trkpt><trkpt lat="41.7412839" lon="12.9079683"><ele>303.0</ele><time>2026-04-25T11:41:34.281Z</time></trkpt><trkpt lat="41.7412687" lon="12.9078289"><ele>303.0</ele><time>2026-04-25T11:41:35.285Z</time></trkpt><trkpt lat="41.7412552" lon="12.9077056"><ele>303.0</ele><time>2026-04-25T11:41:36.286Z</time></trkpt><trkpt lat="41.7412442" lon="12.9075878"><ele>302.6</ele><time>2026-04-25T11:41:37.278Z</time></trkpt><trkpt lat="41.7412292" lon="12.9074673"><ele>302.20000000000005</ele><time>2026-04-25T11:41:38.281Z</time></trkpt><trkpt lat="41.7412001" lon="12.9073437"><ele>301.8</ele><time>2026-04-25T11:41:39.284Z</time></trkpt><trkpt lat="41.7411552" lon="12.9072271"><ele>301.40000000000003</ele><time>2026-04-25T11:41:40.276Z</time></trkpt><trkpt lat="41.7411016" lon="12.9071253"><ele>301.0</ele><time>2026-04-25T11:41:41.276Z</time></trkpt><trkpt lat="41.7410339" lon="12.9070433"><ele>303.66666666666663</ele><time>2026-04-25T11:41:42.279Z</time></trkpt><trkpt lat="41.740956" lon="12.9069793"><ele>306.3333333333333</ele><time>2026-04-25T11:41:43.287Z</time></trkpt><trkpt lat="41.7408733" lon="12.9069257"><ele>309.0</ele><time>2026-04-25T11:41:44.28Z</time></trkpt><trkpt lat="41.740793" lon="12.9068767"><ele>311.6666666666667</ele><time>2026-04-25T11:41:45.279Z</time></trkpt><trkpt lat="41.7407147" lon="12.9068386"><ele>314.33333333333337</ele><time>2026-04-25T11:41:46.283Z</time></trkpt><trkpt lat="41.7406437" lon="12.9067999"><ele>317.0</ele><time>2026-04-25T11:41:47.286Z</time></trkpt><trkpt lat="41.740574" lon="12.9067637"><ele>317.8</ele><time>2026-04-25T11:41:48.281Z</time></trkpt><trkpt lat="41.7405023" lon="12.9067226"><ele>318.6</ele><time>2026-04-25T11:41:49.276Z</time></trkpt><trkpt lat="41.7404211" lon="12.9066668"><ele>319.40000000000003</ele><time>2026-04-25T11:41:50.275Z</time></trkpt><trkpt lat="41.7403342" lon="12.9065956"><ele>320.2</ele><time>2026-04-25T11:41:51.28Z</time></trkpt><trkpt lat="41.7402521" lon="12.906515"><ele>321.0</ele><time>2026-04-25T11:41:52.277Z</time></trkpt><trkpt lat="41.7401928" lon="12.9064255"><ele>321.0</ele><time>2026-04-25T11:41:53.276Z</time></trkpt><trkpt lat="41.7401482" lon="12.9063277"><ele>321.0</ele><time>2026-04-25T11:41:54.272Z</time></trkpt><trkpt lat="41.7401126" lon="12.9062257"><ele>321.0</ele><time>2026-04-25T11:41:55.282Z</time></trkpt><trkpt lat="41.740081" lon="12.9061148"><ele>321.0</ele><time>2026-04-25T11:41:56.277Z</time></trkpt><trkpt lat="41.7400714" lon="12.905989"><ele>321.0</ele><time>2026-04-25T11:41:57.277Z</time></trkpt><trkpt lat="41.7400782" lon="12.9058638"><ele>321.0</ele><time>2026-04-25T11:41:58.276Z</time></trkpt><trkpt lat="41.7401071" lon="12.9057366"><ele>321.20000000000005</ele><time>2026-04-25T11:41:59.286Z</time></trkpt><trkpt lat="41.7401427" lon="12.905605"><ele>321.40000000000003</ele><time>2026-04-25T11:42:00.277Z</time></trkpt><trkpt lat="41.7401844" lon="12.9054882"><ele>321.6</ele><time>2026-04-25T11:42:01.275Z</time></trkpt><trkpt lat="41.7402258" lon="12.9053776"><ele>321.8</ele><time>2026-04-25T11:42:02.285Z</time></trkpt><trkpt lat="41.740262" lon="12.905275"><ele>322.0</ele><time>2026-04-25T11:42:03.282Z</time></trkpt><trkpt lat="41.7402958" lon="12.9051812"><ele>320.5</ele><time>2026-04-25T11:42:04.284Z</time></trkpt><trkpt lat="41.7403445" lon="12.9050913"><ele>319.0</ele><time>2026-04-25T11:42:05.276Z</time></trkpt><trkpt lat="41.7403961" lon="12.9049911"><ele>317.5</ele><time>2026-04-25T11:42:06.274Z</time></trkpt><trkpt lat="41.7404517" lon="12.9049039"><ele>316.0</ele><time>2026-04-25T11:42:07.278Z</time></trkpt><trkpt lat="41.7405153" lon="12.904811"><ele>314.5</ele><time>2026-04-25T11:42:08.287Z</time></trkpt><trkpt lat="41.740574" lon="12.9047208"><ele>313.0</ele><time>2026-04-25T11:42:09.281Z</time></trkpt><trkpt lat="41.7406197" lon="12.9046475"><ele>313.0</ele><time>2026-04-25T11:42:10.277Z</time></trkpt><trkpt lat="41.7406991" lon="12.9045105"><ele>313.0</ele><time>2026-04-25T11:42:12.286Z</time></trkpt><trkpt lat="41.7407393" lon="12.9044377"><ele>313.0</ele><time>2026-04-25T11:42:13.282Z</time></trkpt><trkpt lat="41.7407817" lon="12.9043567"><ele>313.0</ele><time>2026-04-25T11:42:14.282Z</time></trkpt><trkpt lat="41.7408223" lon="12.904278"><ele>313.0</ele><time>2026-04-25T11:42:15.277Z</time></trkpt><trkpt lat="41.7408638" lon="12.9042"><ele>313.0</ele><time>2026-04-25T11:42:16.279Z</time></trkpt><trkpt lat="41.7409114" lon="12.9041229"><ele>313.0</ele><time>2026-04-25T11:42:17.275Z</time></trkpt><trkpt lat="41.7409738" lon="12.9040244"><ele>313.0</ele><time>2026-04-25T11:42:18.273Z</time></trkpt><trkpt lat="41.7410572" lon="12.9038879"><ele>313.0</ele><time>2026-04-25T11:42:19.279Z</time></trkpt><trkpt lat="41.7411622" lon="12.9037201"><ele>313.0</ele><time>2026-04-25T11:42:20.285Z</time></trkpt><trkpt lat="41.7412628" lon="12.9035765"><ele>313.0</ele><time>2026-04-25T11:42:21.278Z</time></trkpt><trkpt lat="41.741356" lon="12.9034528"><ele>313.0</ele><time>2026-04-25T11:42:22.277Z</time></trkpt><trkpt lat="41.741432" lon="12.9033468"><ele>313.0</ele><time>2026-04-25T11:42:23.278Z</time></trkpt><trkpt lat="41.7414962" lon="12.9032484"><ele>313.0</ele><time>2026-04-25T11:42:24.279Z</time></trkpt><trkpt lat="41.7415491" lon="12.9031583"><ele>313.0</ele><time>2026-04-25T11:42:25.279Z</time></trkpt><trkpt lat="41.7415973" lon="12.9030764"><ele>313.5</ele><time>2026-04-25T11:42:26.278Z</time></trkpt><trkpt lat="41.7416349" lon="12.9029796"><ele>314.0</ele><time>2026-04-25T11:42:27.276Z</time></trkpt><trkpt lat="41.7416491" lon="12.9028744"><ele>314.5</ele><time>2026-04-25T11:42:28.283Z</time></trkpt><trkpt lat="41.7416422" lon="12.9027613"><ele>315.0</ele><time>2026-04-25T11:42:29.279Z</time></trkpt><trkpt lat="41.7416135" lon="12.9026411"><ele>315.5</ele><time>2026-04-25T11:42:30.275Z</time></trkpt><trkpt lat="41.7415722" lon="12.9025289"><ele>316.0</ele><time>2026-04-25T11:42:31.282Z</time></trkpt><trkpt lat="41.7415248" lon="12.902416"><ele>316.0</ele><time>2026-04-25T11:42:32.279Z</time></trkpt><trkpt lat="41.7414773" lon="12.9023115"><ele>316.0</ele><time>2026-04-25T11:42:33.281Z</time></trkpt><trkpt lat="41.7414238" lon="12.9022153"><ele>316.0</ele><time>2026-04-25T11:42:34.282Z</time></trkpt><trkpt lat="41.7413654" lon="12.9021215"><ele>316.0</ele><time>2026-04-25T11:42:35.277Z</time></trkpt><trkpt lat="41.74131" lon="12.9020292"><ele>316.0</ele><time>2026-04-25T11:42:36.279Z</time></trkpt><trkpt lat="41.7412589" lon="12.9019429"><ele>316.0</ele><time>2026-04-25T11:42:37.278Z</time></trkpt><trkpt lat="41.7412079" lon="12.9018642"><ele>316.0</ele><time>2026-04-25T11:42:38.286Z</time></trkpt><trkpt lat="41.7411464" lon="12.9017781"><ele>316.0</ele><time>2026-04-25T11:42:39.278Z</time></trkpt><trkpt lat="41.7410799" lon="12.9017049"><ele>316.0</ele><time>2026-04-25T11:42:40.271Z</time></trkpt><trkpt lat="41.7410136" lon="12.9016381"><ele>316.0</ele><time>2026-04-25T11:42:41.28Z</time></trkpt><trkpt lat="41.740942" lon="12.9015812"><ele>316.0</ele><time>2026-04-25T11:42:42.281Z</time></trkpt><trkpt lat="41.7408731" lon="12.9015389"><ele>316.0</ele><time>2026-04-25T11:42:43.282Z</time></trkpt><trkpt lat="41.7408078" lon="12.901479"><ele>316.40000000000003</ele><time>2026-04-25T11:42:44.276Z</time></trkpt><trkpt lat="41.7407541" lon="12.9013907"><ele>316.8</ele><time>2026-04-25T11:42:45.275Z</time></trkpt><trkpt lat="41.7407077" lon="12.9012888"><ele>317.20000000000005</ele><time>2026-04-25T11:42:46.28Z</time></trkpt><trkpt lat="41.740681" lon="12.9011808"><ele>317.6</ele><time>2026-04-25T11:42:47.284Z</time></trkpt><trkpt lat="41.7406655" lon="12.9010445"><ele>318.0</ele><time>2026-04-25T11:42:48.286Z</time></trkpt><trkpt lat="41.7406552" lon="12.900897"><ele>316.0</ele><time>2026-04-25T11:42:49.28Z</time></trkpt><trkpt lat="41.7406437" lon="12.9007423"><ele>314.0</ele><time>2026-04-25T11:42:50.279Z</time></trkpt><trkpt lat="41.7406292" lon="12.9005558"><ele>312.0</ele><time>2026-04-25T11:42:51.281Z</time></trkpt><trkpt lat="41.7406231" lon="12.9003256"><ele>310.0</ele><time>2026-04-25T11:42:52.277Z</time></trkpt><trkpt lat="41.7406214" lon="12.9000802"><ele>308.66666666666663</ele><time>2026-04-25T11:42:53.278Z</time></trkpt><trkpt lat="41.7406199" lon="12.8998524"><ele>307.3333333333333</ele><time>2026-04-25T11:42:54.286Z</time></trkpt><trkpt lat="41.7406294" lon="12.8996305"><ele>306.0</ele><time>2026-04-25T11:42:55.28Z</time></trkpt><trkpt lat="41.7406487" lon="12.8994148"><ele>305.75</ele><time>2026-04-25T11:42:56.279Z</time></trkpt><trkpt lat="41.7406686" lon="12.899213"><ele>305.5</ele><time>2026-04-25T11:42:57.283Z</time></trkpt><trkpt lat="41.7406892" lon="12.8990221"><ele>305.25</ele><time>2026-04-25T11:42:58.281Z</time></trkpt><trkpt lat="41.7407128" lon="12.8988425"><ele>305.0</ele><time>2026-04-25T11:42:59.285Z</time></trkpt><trkpt lat="41.7407362" lon="12.898672"><ele>305.0</ele><time>2026-04-25T11:43:00.283Z</time></trkpt><trkpt lat="41.7407691" lon="12.898517"><ele>305.0</ele><time>2026-04-25T11:43:01.285Z</time></trkpt><trkpt lat="41.7408053" lon="12.8983789"><ele>305.0</ele><time>2026-04-25T11:43:02.28Z</time></trkpt><trkpt lat="41.7408378" lon="12.8982465"><ele>305.0</ele><time>2026-04-25T11:43:03.284Z</time></trkpt><trkpt lat="41.7408736" lon="12.8981289"><ele>305.0</ele><time>2026-04-25T11:43:04.286Z</time></trkpt><trkpt lat="41.74092" lon="12.8979945"><ele>305.2</ele><time>2026-04-25T11:43:05.279Z</time></trkpt><trkpt lat="41.7409667" lon="12.8978604"><ele>305.4</ele><time>2026-04-25T11:43:06.282Z</time></trkpt><trkpt lat="41.7410182" lon="12.8977279"><ele>305.6</ele><time>2026-04-25T11:43:07.284Z</time></trkpt><trkpt lat="41.7410666" lon="12.8975855"><ele>305.8</ele><time>2026-04-25T11:43:08.286Z</time></trkpt><trkpt lat="41.7411157" lon="12.8974572"><ele>306.0</ele><time>2026-04-25T11:43:09.281Z</time></trkpt><trkpt lat="41.7411678" lon="12.8973349"><ele>305.6</ele><time>2026-04-25T11:43:10.294Z</time></trkpt><trkpt lat="41.7412129" lon="12.8972057"><ele>305.20000000000005</ele><time>2026-04-25T11:43:11.278Z</time></trkpt><trkpt lat="41.7412332" lon="12.8970719"><ele>304.79999999999995</ele><time>2026-04-25T11:43:12.283Z</time></trkpt><trkpt lat="41.7412359" lon="12.8969379"><ele>304.4</ele><time>2026-04-25T11:43:13.277Z</time></trkpt><trkpt lat="41.741206" lon="12.8967983"><ele>304.0</ele><time>2026-04-25T11:43:14.281Z</time></trkpt><trkpt lat="41.7411509" lon="12.8966594"><ele>304.0</ele><time>2026-04-25T11:43:15.284Z</time></trkpt><trkpt lat="41.7410677" lon="12.8965356"><ele>304.0</ele><time>2026-04-25T11:43:16.286Z</time></trkpt><trkpt lat="41.7409771" lon="12.8963911"><ele>304.0</ele><time>2026-04-25T11:43:17.282Z</time></trkpt><trkpt lat="41.7408892" lon="12.8962166"><ele>304.0</ele><time>2026-04-25T11:43:18.276Z</time></trkpt><trkpt lat="41.7408148" lon="12.8960064"><ele>305.3333333333333</ele><time>2026-04-25T11:43:19.277Z</time></trkpt><trkpt lat="41.7407687" lon="12.8957915"><ele>306.6666666666667</ele><time>2026-04-25T11:43:20.281Z</time></trkpt><trkpt lat="41.7407165" lon="12.8955844"><ele>308.0</ele><time>2026-04-25T11:43:21.283Z</time></trkpt><trkpt lat="41.7406441" lon="12.8953827"><ele>308.0</ele><time>2026-04-25T11:43:22.28Z</time></trkpt><trkpt lat="41.7405481" lon="12.8951941"><ele>308.0</ele><time>2026-04-25T11:43:23.278Z</time></trkpt><trkpt lat="41.740425" lon="12.8950168"><ele>308.0</ele><time>2026-04-25T11:43:24.279Z</time></trkpt><trkpt lat="41.7402836" lon="12.8948348"><ele>311.5</ele><time>2026-04-25T11:43:25.281Z</time></trkpt><trkpt lat="41.7401231" lon="12.8946255"><ele>315.0</ele><time>2026-04-25T11:43:26.283Z</time></trkpt><trkpt lat="41.7399536" lon="12.8944155"><ele>314.5</ele><time>2026-04-25T11:43:27.28Z</time></trkpt><trkpt lat="41.7397808" lon="12.8942044"><ele>314.0</ele><time>2026-04-25T11:43:28.276Z</time></trkpt><trkpt lat="41.7396126" lon="12.8939973"><ele>314.0</ele><time>2026-04-25T11:43:29.283Z</time></trkpt><trkpt lat="41.7394547" lon="12.8937948"><ele>314.0</ele><time>2026-04-25T11:43:30.28Z</time></trkpt><trkpt lat="41.7393034" lon="12.8936001"><ele>314.0</ele><time>2026-04-25T11:43:31.285Z</time></trkpt><trkpt lat="41.7391614" lon="12.8934065"><ele>315.33333333333337</ele><time>2026-04-25T11:43:32.279Z</time></trkpt><trkpt lat="41.7390309" lon="12.8932122"><ele>316.6666666666667</ele><time>2026-04-25T11:43:33.288Z</time></trkpt><trkpt lat="41.7389114" lon="12.8930175"><ele>318.0</ele><time>2026-04-25T11:43:34.28Z</time></trkpt><trkpt lat="41.7388027" lon="12.8928203"><ele>318.0</ele><time>2026-04-25T11:43:35.277Z</time></trkpt><trkpt lat="41.7387059" lon="12.8926363"><ele>318.0</ele><time>2026-04-25T11:43:36.278Z</time></trkpt><trkpt lat="41.7386107" lon="12.8924832"><ele>318.0</ele><time>2026-04-25T11:43:37.279Z</time></trkpt><trkpt lat="41.7385022" lon="12.8923469"><ele>319.3333333333333</ele><time>2026-04-25T11:43:38.275Z</time></trkpt><trkpt lat="41.7383682" lon="12.8922297"><ele>320.66666666666663</ele><time>2026-04-25T11:43:39.278Z</time></trkpt><trkpt lat="41.7382132" lon="12.892128"><ele>322.0</ele><time>2026-04-25T11:43:40.278Z</time></trkpt><trkpt lat="41.7380419" lon="12.8920066"><ele>322.0</ele><time>2026-04-25T11:43:41.278Z</time></trkpt><trkpt lat="41.7378474" lon="12.8918751"><ele>322.0</ele><time>2026-04-25T11:43:42.283Z</time></trkpt><trkpt lat="41.737632" lon="12.8917342"><ele>325.5</ele><time>2026-04-25T11:43:43.284Z</time></trkpt><trkpt lat="41.7374026" lon="12.8915776"><ele>329.0</ele><time>2026-04-25T11:43:44.284Z</time></trkpt><trkpt lat="41.7371758" lon="12.891431"><ele>329.0</ele><time>2026-04-25T11:43:45.284Z</time></trkpt><trkpt lat="41.7369725" lon="12.8912915"><ele>329.0</ele><time>2026-04-25T11:43:46.28Z</time></trkpt><trkpt lat="41.7367685" lon="12.8911497"><ele>329.5</ele><time>2026-04-25T11:43:47.278Z</time></trkpt><trkpt lat="41.7365689" lon="12.8910043"><ele>330.0</ele><time>2026-04-25T11:43:48.283Z</time></trkpt><trkpt lat="41.7363705" lon="12.8908576"><ele>332.0</ele><time>2026-04-25T11:43:49.283Z</time></trkpt><trkpt lat="41.7361936" lon="12.8907196"><ele>334.0</ele><time>2026-04-25T11:43:50.281Z</time></trkpt><trkpt lat="41.7360351" lon="12.8905928"><ele>336.0</ele><time>2026-04-25T11:43:51.275Z</time></trkpt><trkpt lat="41.7358836" lon="12.8904631"><ele>336.0</ele><time>2026-04-25T11:43:52.28Z</time></trkpt><trkpt lat="41.7357376" lon="12.8903482"><ele>336.0</ele><time>2026-04-25T11:43:53.285Z</time></trkpt><trkpt lat="41.7355889" lon="12.8902273"><ele>336.0</ele><time>2026-04-25T11:43:54.289Z</time></trkpt><trkpt lat="41.7354388" lon="12.8901311"><ele>337.3333333333333</ele><time>2026-04-25T11:43:55.283Z</time></trkpt><trkpt lat="41.7352858" lon="12.8900435"><ele>338.66666666666663</ele><time>2026-04-25T11:43:56.285Z</time></trkpt><trkpt lat="41.7351351" lon="12.8899526"><ele>340.0</ele><time>2026-04-25T11:43:57.287Z</time></trkpt><trkpt lat="41.7349811" lon="12.8898428"><ele>340.0</ele><time>2026-04-25T11:43:58.28Z</time></trkpt><trkpt lat="41.7348281" lon="12.8897108"><ele>340.0</ele><time>2026-04-25T11:43:59.285Z</time></trkpt><trkpt lat="41.734676" lon="12.8895573"><ele>340.0</ele><time>2026-04-25T11:44:00.278Z</time></trkpt><trkpt lat="41.7345301" lon="12.889395"><ele>340.0</ele><time>2026-04-25T11:44:01.28Z</time></trkpt><trkpt lat="41.7343911" lon="12.8892231"><ele>340.0</ele><time>2026-04-25T11:44:02.278Z</time></trkpt><trkpt lat="41.7342576" lon="12.8890474"><ele>340.0</ele><time>2026-04-25T11:44:03.285Z</time></trkpt><trkpt lat="41.7341317" lon="12.8888645"><ele>340.0</ele><time>2026-04-25T11:44:04.279Z</time></trkpt><trkpt lat="41.7340135" lon="12.8886755"><ele>340.0</ele><time>2026-04-25T11:44:05.283Z</time></trkpt><trkpt lat="41.7339091" lon="12.8884719"><ele>340.0</ele><time>2026-04-25T11:44:06.279Z</time></trkpt><trkpt lat="41.7338045" lon="12.8882792"><ele>341.3333333333333</ele><time>2026-04-25T11:44:07.287Z</time></trkpt><trkpt lat="41.7337086" lon="12.888087"><ele>342.6666666666667</ele><time>2026-04-25T11:44:08.279Z</time></trkpt><trkpt lat="41.7336156" lon="12.8879014"><ele>344.0</ele><time>2026-04-25T11:44:09.282Z</time></trkpt><trkpt lat="41.7335263" lon="12.8877138"><ele>340.75</ele><time>2026-04-25T11:44:10.279Z</time></trkpt><trkpt lat="41.733443" lon="12.8875312"><ele>337.5</ele><time>2026-04-25T11:44:11.286Z</time></trkpt><trkpt lat="41.7333654" lon="12.887363"><ele>334.25</ele><time>2026-04-25T11:44:12.274Z</time></trkpt><trkpt lat="41.7332906" lon="12.8872028"><ele>331.0</ele><time>2026-04-25T11:44:13.283Z</time></trkpt><trkpt lat="41.7332164" lon="12.8870592"><ele>331.0</ele><time>2026-04-25T11:44:14.279Z</time></trkpt><trkpt lat="41.733133" lon="12.8869335"><ele>331.0</ele><time>2026-04-25T11:44:15.282Z</time></trkpt><trkpt lat="41.7330253" lon="12.8868195"><ele>331.0</ele><time>2026-04-25T11:44:16.28Z</time></trkpt><trkpt lat="41.7329035" lon="12.8867391"><ele>331.0</ele><time>2026-04-25T11:44:17.282Z</time></trkpt><trkpt lat="41.7327779" lon="12.8866857"><ele>330.0</ele><time>2026-04-25T11:44:18.279Z</time></trkpt><trkpt lat="41.7326679" lon="12.8866046"><ele>329.0</ele><time>2026-04-25T11:44:19.283Z</time></trkpt><trkpt lat="41.7325562" lon="12.8864649"><ele>328.0</ele><time>2026-04-25T11:44:20.282Z</time></trkpt><trkpt lat="41.7324439" lon="12.8862681"><ele>328.0</ele><time>2026-04-25T11:44:21.284Z</time></trkpt><trkpt lat="41.7323221" lon="12.8860584"><ele>328.0</ele><time>2026-04-25T11:44:22.278Z</time></trkpt><trkpt lat="41.7321696" lon="12.8858214"><ele>328.0</ele><time>2026-04-25T11:44:23.28Z</time></trkpt><trkpt lat="41.7320084" lon="12.8855638"><ele>329.0</ele><time>2026-04-25T11:44:24.283Z</time></trkpt><trkpt lat="41.7318389" lon="12.8853133"><ele>330.0</ele><time>2026-04-25T11:44:25.283Z</time></trkpt><trkpt lat="41.7316555" lon="12.8850597"><ele>327.0</ele><time>2026-04-25T11:44:26.278Z</time></trkpt><trkpt lat="41.7314719" lon="12.8848177"><ele>324.0</ele><time>2026-04-25T11:44:27.291Z</time></trkpt><trkpt lat="41.7312998" lon="12.8845982"><ele>324.0</ele><time>2026-04-25T11:44:28.279Z</time></trkpt><trkpt lat="41.7311453" lon="12.8844008"><ele>324.0</ele><time>2026-04-25T11:44:29.276Z</time></trkpt><trkpt lat="41.7309989" lon="12.8841963"><ele>324.0</ele><time>2026-04-25T11:44:30.278Z</time></trkpt><trkpt lat="41.7308613" lon="12.8839599"><ele>323.5</ele><time>2026-04-25T11:44:31.28Z</time></trkpt><trkpt lat="41.7307286" lon="12.8836907"><ele>323.0</ele><time>2026-04-25T11:44:32.283Z</time></trkpt><trkpt lat="41.7306163" lon="12.8834047"><ele>323.0</ele><time>2026-04-25T11:44:33.277Z</time></trkpt><trkpt lat="41.7305282" lon="12.8831273"><ele>323.0</ele><time>2026-04-25T11:44:34.274Z</time></trkpt><trkpt lat="41.7304426" lon="12.8828681"><ele>323.0</ele><time>2026-04-25T11:44:35.282Z</time></trkpt><trkpt lat="41.7303676" lon="12.882637"><ele>323.0</ele><time>2026-04-25T11:44:36.283Z</time></trkpt><trkpt lat="41.7302908" lon="12.8824331"><ele>323.0</ele><time>2026-04-25T11:44:37.281Z</time></trkpt><trkpt lat="41.7301985" lon="12.8822549"><ele>323.0</ele><time>2026-04-25T11:44:38.283Z</time></trkpt><trkpt lat="41.7300946" lon="12.8821036"><ele>323.6666666666667</ele><time>2026-04-25T11:44:39.276Z</time></trkpt><trkpt lat="41.7299642" lon="12.8819793"><ele>324.3333333333333</ele><time>2026-04-25T11:44:40.287Z</time></trkpt><trkpt lat="41.7298135" lon="12.881884"><ele>325.0</ele><time>2026-04-25T11:44:41.279Z</time></trkpt><trkpt lat="41.7296323" lon="12.8817934"><ele>326.3333333333333</ele><time>2026-04-25T11:44:42.283Z</time></trkpt><trkpt lat="41.7294341" lon="12.8816959"><ele>327.6666666666667</ele><time>2026-04-25T11:44:43.279Z</time></trkpt><trkpt lat="41.7292322" lon="12.8816012"><ele>329.0</ele><time>2026-04-25T11:44:44.281Z</time></trkpt><trkpt lat="41.7290324" lon="12.8815128"><ele>331.0</ele><time>2026-04-25T11:44:45.28Z</time></trkpt><trkpt lat="41.7288252" lon="12.8814215"><ele>333.0</ele><time>2026-04-25T11:44:46.282Z</time></trkpt><trkpt lat="41.7286069" lon="12.881317"><ele>334.0</ele><time>2026-04-25T11:44:47.279Z</time></trkpt><trkpt lat="41.7283585" lon="12.881196"><ele>335.0</ele><time>2026-04-25T11:44:48.281Z</time></trkpt><trkpt lat="41.7280802" lon="12.8810522"><ele>334.0</ele><time>2026-04-25T11:44:49.276Z</time></trkpt><trkpt lat="41.727791" lon="12.8808908"><ele>333.0</ele><time>2026-04-25T11:44:50.275Z</time></trkpt><trkpt lat="41.7275095" lon="12.8807297"><ele>332.0</ele><time>2026-04-25T11:44:51.28Z</time></trkpt><trkpt lat="41.7272519" lon="12.8805751"><ele>331.0</ele><time>2026-04-25T11:44:52.274Z</time></trkpt><trkpt lat="41.7270117" lon="12.8804268"><ele>330.5</ele><time>2026-04-25T11:44:53.284Z</time></trkpt><trkpt lat="41.726781" lon="12.8802915"><ele>330.0</ele><time>2026-04-25T11:44:54.282Z</time></trkpt><trkpt lat="41.7265415" lon="12.8801629"><ele>327.5</ele><time>2026-04-25T11:44:55.278Z</time></trkpt><trkpt lat="41.7262998" lon="12.880044"><ele>325.0</ele><time>2026-04-25T11:44:56.28Z</time></trkpt><trkpt lat="41.726056" lon="12.879939"><ele>325.0</ele><time>2026-04-25T11:44:57.282Z</time></trkpt><trkpt lat="41.7258049" lon="12.8798277"><ele>325.0</ele><time>2026-04-25T11:44:58.284Z</time></trkpt><trkpt lat="41.7255506" lon="12.8797059"><ele>325.0</ele><time>2026-04-25T11:44:59.278Z</time></trkpt><trkpt lat="41.7252913" lon="12.8795764"><ele>325.0</ele><time>2026-04-25T11:45:00.28Z</time></trkpt><trkpt lat="41.7250352" lon="12.8794335"><ele>324.0</ele><time>2026-04-25T11:45:01.287Z</time></trkpt><trkpt lat="41.7247832" lon="12.879289"><ele>323.0</ele><time>2026-04-25T11:45:02.287Z</time></trkpt><trkpt lat="41.7245399" lon="12.8791449"><ele>319.5</ele><time>2026-04-25T11:45:03.277Z</time></trkpt><trkpt lat="41.7243004" lon="12.8790083"><ele>316.0</ele><time>2026-04-25T11:45:04.277Z</time></trkpt><trkpt lat="41.7240599" lon="12.8788712"><ele>316.0</ele><time>2026-04-25T11:45:05.276Z</time></trkpt><trkpt lat="41.7238166" lon="12.8787401"><ele>316.0</ele><time>2026-04-25T11:45:06.285Z</time></trkpt><trkpt lat="41.7235892" lon="12.8786239"><ele>314.0</ele><time>2026-04-25T11:45:07.273Z</time></trkpt><trkpt lat="41.7233507" lon="12.878519"><ele>312.0</ele><time>2026-04-25T11:45:08.28Z</time></trkpt><trkpt lat="41.723106" lon="12.8784205"><ele>311.5</ele><time>2026-04-25T11:45:09.285Z</time></trkpt><trkpt lat="41.7228495" lon="12.8783252"><ele>311.0</ele><time>2026-04-25T11:45:10.28Z</time></trkpt><trkpt lat="41.7225883" lon="12.8782355"><ele>311.0</ele><time>2026-04-25T11:45:11.276Z</time></trkpt><trkpt lat="41.7223187" lon="12.8781521"><ele>311.0</ele><time>2026-04-25T11:45:12.283Z</time></trkpt><trkpt lat="41.7220474" lon="12.8780647"><ele>308.0</ele><time>2026-04-25T11:45:13.281Z</time></trkpt><trkpt lat="41.7217778" lon="12.8779771"><ele>305.0</ele><time>2026-04-25T11:45:14.283Z</time></trkpt><trkpt lat="41.7215093" lon="12.8778974"><ele>305.0</ele><time>2026-04-25T11:45:15.282Z</time></trkpt><trkpt lat="41.7212493" lon="12.877821"><ele>305.0</ele><time>2026-04-25T11:45:16.288Z</time></trkpt><trkpt lat="41.7209922" lon="12.8777484"><ele>302.5</ele><time>2026-04-25T11:45:17.279Z</time></trkpt><trkpt lat="41.7207401" lon="12.8776708"><ele>300.0</ele><time>2026-04-25T11:45:18.287Z</time></trkpt><trkpt lat="41.7204949" lon="12.8775874"><ele>300.0</ele><time>2026-04-25T11:45:19.281Z</time></trkpt><trkpt lat="41.7202481" lon="12.8774856"><ele>300.0</ele><time>2026-04-25T11:45:20.287Z</time></trkpt><trkpt lat="41.7199995" lon="12.8773687"><ele>298.0</ele><time>2026-04-25T11:45:21.28Z</time></trkpt><trkpt lat="41.7197612" lon="12.877246"><ele>296.0</ele><time>2026-04-25T11:45:22.283Z</time></trkpt><trkpt lat="41.7195402" lon="12.8771266"><ele>294.33333333333337</ele><time>2026-04-25T11:45:23.281Z</time></trkpt><trkpt lat="41.7193306" lon="12.8770132"><ele>292.6666666666667</ele><time>2026-04-25T11:45:24.279Z</time></trkpt><trkpt lat="41.7191341" lon="12.8769121"><ele>291.0</ele><time>2026-04-25T11:45:25.282Z</time></trkpt><trkpt lat="41.7189438" lon="12.8768145"><ele>291.3333333333333</ele><time>2026-04-25T11:45:26.283Z</time></trkpt><trkpt lat="41.7187662" lon="12.8767262"><ele>291.66666666666663</ele><time>2026-04-25T11:45:27.282Z</time></trkpt><trkpt lat="41.7185817" lon="12.8766609"><ele>292.0</ele><time>2026-04-25T11:45:28.277Z</time></trkpt><trkpt lat="41.7183717" lon="12.8766182"><ele>290.0</ele><time>2026-04-25T11:45:29.285Z</time></trkpt><trkpt lat="41.7181305" lon="12.8765943"><ele>288.0</ele><time>2026-04-25T11:45:30.279Z</time></trkpt><trkpt lat="41.7178673" lon="12.8765863"><ele>286.0</ele><time>2026-04-25T11:45:31.279Z</time></trkpt><trkpt lat="41.7175861" lon="12.876586"><ele>284.0</ele><time>2026-04-25T11:45:32.277Z</time></trkpt><trkpt lat="41.717329" lon="12.8765729"><ele>284.0</ele><time>2026-04-25T11:45:33.281Z</time></trkpt><trkpt lat="41.7170879" lon="12.8765489"><ele>284.0</ele><time>2026-04-25T11:45:34.278Z</time></trkpt><trkpt lat="41.7168518" lon="12.8765091"><ele>283.0</ele><time>2026-04-25T11:45:35.28Z</time></trkpt><trkpt lat="41.7166227" lon="12.8764477"><ele>282.0</ele><time>2026-04-25T11:45:36.284Z</time></trkpt><trkpt lat="41.7164167" lon="12.8763747"><ele>281.0</ele><time>2026-04-25T11:45:37.28Z</time></trkpt><trkpt lat="41.7162309" lon="12.8762993"><ele>280.33333333333337</ele><time>2026-04-25T11:45:38.285Z</time></trkpt><trkpt lat="41.716059" lon="12.8762229"><ele>279.6666666666667</ele><time>2026-04-25T11:45:39.288Z</time></trkpt><trkpt lat="41.7158923" lon="12.8761573"><ele>279.0</ele><time>2026-04-25T11:45:40.277Z</time></trkpt><trkpt lat="41.7157282" lon="12.8761138"><ele>279.0</ele><time>2026-04-25T11:45:41.282Z</time></trkpt><trkpt lat="41.715573" lon="12.8761044"><ele>279.0</ele><time>2026-04-25T11:45:42.281Z</time></trkpt><trkpt lat="41.7154162" lon="12.8761363"><ele>279.0</ele><time>2026-04-25T11:45:43.28Z</time></trkpt><trkpt lat="41.715259" lon="12.8762154"><ele>278.6666666666667</ele><time>2026-04-25T11:45:44.28Z</time></trkpt><trkpt lat="41.7151013" lon="12.8763357"><ele>278.33333333333337</ele><time>2026-04-25T11:45:45.28Z</time></trkpt><trkpt lat="41.7149529" lon="12.876455"><ele>278.0</ele><time>2026-04-25T11:45:46.278Z</time></trkpt><trkpt lat="41.7147899" lon="12.8765487"><ele>278.0</ele><time>2026-04-25T11:45:47.28Z</time></trkpt><trkpt lat="41.714604" lon="12.8766105"><ele>278.0</ele><time>2026-04-25T11:45:48.283Z</time></trkpt><trkpt lat="41.7144069" lon="12.8766454"><ele>278.0</ele><time>2026-04-25T11:45:49.275Z</time></trkpt><trkpt lat="41.7141873" lon="12.8766737"><ele>280.5</ele><time>2026-04-25T11:45:50.282Z</time></trkpt><trkpt lat="41.7139443" lon="12.8766984"><ele>283.0</ele><time>2026-04-25T11:45:51.275Z</time></trkpt><trkpt lat="41.7136774" lon="12.8767281"><ele>286.5</ele><time>2026-04-25T11:45:52.277Z</time></trkpt><trkpt lat="41.7133907" lon="12.8767512"><ele>290.0</ele><time>2026-04-25T11:45:53.282Z</time></trkpt><trkpt lat="41.7131172" lon="12.8767698"><ele>289.5</ele><time>2026-04-25T11:45:54.284Z</time></trkpt><trkpt lat="41.7128759" lon="12.8767816"><ele>289.0</ele><time>2026-04-25T11:45:55.284Z</time></trkpt><trkpt lat="41.7126661" lon="12.8767831"><ele>289.0</ele><time>2026-04-25T11:45:56.283Z</time></trkpt><trkpt lat="41.7124415" lon="12.8767847"><ele>289.0</ele><time>2026-04-25T11:45:57.28Z</time></trkpt><trkpt lat="41.7122115" lon="12.8767845"><ele>289.0</ele><time>2026-04-25T11:45:58.279Z</time></trkpt><trkpt lat="41.7119875" lon="12.8767709"><ele>289.0</ele><time>2026-04-25T11:45:59.293Z</time></trkpt><trkpt lat="41.7117805" lon="12.876742"><ele>289.0</ele><time>2026-04-25T11:46:00.287Z</time></trkpt><trkpt lat="41.7115844" lon="12.8767155"><ele>287.66666666666663</ele><time>2026-04-25T11:46:01.295Z</time></trkpt><trkpt lat="41.7113797" lon="12.8766976"><ele>286.3333333333333</ele><time>2026-04-25T11:46:02.278Z</time></trkpt><trkpt lat="41.7111843" lon="12.8767034"><ele>285.0</ele><time>2026-04-25T11:46:03.284Z</time></trkpt><trkpt lat="41.7109872" lon="12.8767391"><ele>282.3333333333333</ele><time>2026-04-25T11:46:04.282Z</time></trkpt><trkpt lat="41.7107938" lon="12.876814"><ele>279.66666666666663</ele><time>2026-04-25T11:46:05.286Z</time></trkpt><trkpt lat="41.7105895" lon="12.8769317"><ele>277.0</ele><time>2026-04-25T11:46:06.281Z</time></trkpt><trkpt lat="41.7103598" lon="12.8770697"><ele>276.5</ele><time>2026-04-25T11:46:07.282Z</time></trkpt><trkpt lat="41.7101134" lon="12.8772078"><ele>276.0</ele><time>2026-04-25T11:46:08.289Z</time></trkpt><trkpt lat="41.709885" lon="12.8773464"><ele>276.0</ele><time>2026-04-25T11:46:09.277Z</time></trkpt><trkpt lat="41.7096795" lon="12.8774783"><ele>276.0</ele><time>2026-04-25T11:46:10.283Z</time></trkpt><trkpt lat="41.7094912" lon="12.8776119"><ele>276.0</ele><time>2026-04-25T11:46:11.288Z</time></trkpt><trkpt lat="41.7093239" lon="12.8777679"><ele>276.0</ele><time>2026-04-25T11:46:12.287Z</time></trkpt><trkpt lat="41.7091735" lon="12.8779437"><ele>276.0</ele><time>2026-04-25T11:46:13.286Z</time></trkpt><trkpt lat="41.7090378" lon="12.8781453"><ele>276.0</ele><time>2026-04-25T11:46:14.278Z</time></trkpt><trkpt lat="41.7089058" lon="12.8783268"><ele>276.0</ele><time>2026-04-25T11:46:15.289Z</time></trkpt><trkpt lat="41.708795" lon="12.878468"><ele>276.0</ele><time>2026-04-25T11:46:16.288Z</time></trkpt><trkpt lat="41.7086657" lon="12.8785896"><ele>276.0</ele><time>2026-04-25T11:46:17.283Z</time></trkpt><trkpt lat="41.7085306" lon="12.8786709"><ele>276.0</ele><time>2026-04-25T11:46:18.279Z</time></trkpt><trkpt lat="41.7083798" lon="12.8787024"><ele>276.0</ele><time>2026-04-25T11:46:19.282Z</time></trkpt><trkpt lat="41.7082112" lon="12.8786772"><ele>276.0</ele><time>2026-04-25T11:46:20.282Z</time></trkpt><trkpt lat="41.7080327" lon="12.8786155"><ele>276.0</ele><time>2026-04-25T11:46:21.277Z</time></trkpt><trkpt lat="41.7078541" lon="12.8785461"><ele>276.0</ele><time>2026-04-25T11:46:22.278Z</time></trkpt><trkpt lat="41.7076798" lon="12.8784827"><ele>276.0</ele><time>2026-04-25T11:46:23.282Z</time></trkpt><trkpt lat="41.7075058" lon="12.8784482"><ele>275.3333333333333</ele><time>2026-04-25T11:46:24.278Z</time></trkpt><trkpt lat="41.7073215" lon="12.8784336"><ele>274.66666666666663</ele><time>2026-04-25T11:46:25.288Z</time></trkpt><trkpt lat="41.7071256" lon="12.8784467"><ele>274.0</ele><time>2026-04-25T11:46:26.278Z</time></trkpt><trkpt lat="41.7069218" lon="12.8784782"><ele>276.3333333333333</ele><time>2026-04-25T11:46:27.286Z</time></trkpt><trkpt lat="41.7067075" lon="12.8785197"><ele>278.6666666666667</ele><time>2026-04-25T11:46:28.286Z</time></trkpt><trkpt lat="41.7064807" lon="12.8785752"><ele>281.0</ele><time>2026-04-25T11:46:29.281Z</time></trkpt><trkpt lat="41.7062463" lon="12.8786459"><ele>280.0</ele><time>2026-04-25T11:46:30.277Z</time></trkpt><trkpt lat="41.7060157" lon="12.8787271"><ele>279.0</ele><time>2026-04-25T11:46:31.281Z</time></trkpt><trkpt lat="41.7058011" lon="12.8788064"><ele>279.0</ele><time>2026-04-25T11:46:32.285Z</time></trkpt><trkpt lat="41.7055954" lon="12.8788927"><ele>279.0</ele><time>2026-04-25T11:46:33.282Z</time></trkpt><trkpt lat="41.7053871" lon="12.8789956"><ele>279.0</ele><time>2026-04-25T11:46:34.279Z</time></trkpt><trkpt lat="41.705177" lon="12.8791187"><ele>277.5</ele><time>2026-04-25T11:46:35.282Z</time></trkpt><trkpt lat="41.7049576" lon="12.8792639"><ele>276.0</ele><time>2026-04-25T11:46:36.283Z</time></trkpt><trkpt lat="41.7047442" lon="12.8794099"><ele>276.0</ele><time>2026-04-25T11:46:37.28Z</time></trkpt><trkpt lat="41.704553" lon="12.8795433"><ele>276.0</ele><time>2026-04-25T11:46:38.283Z</time></trkpt><trkpt lat="41.7043779" lon="12.8796693"><ele>276.0</ele><time>2026-04-25T11:46:39.282Z</time></trkpt><trkpt lat="41.7042137" lon="12.8797845"><ele>274.3333333333333</ele><time>2026-04-25T11:46:40.279Z</time></trkpt><trkpt lat="41.7040589" lon="12.879869"><ele>272.66666666666663</ele><time>2026-04-25T11:46:41.279Z</time></trkpt><trkpt lat="41.7039005" lon="12.8799248"><ele>271.0</ele><time>2026-04-25T11:46:42.286Z</time></trkpt><trkpt lat="41.7037277" lon="12.8799575"><ele>271.66666666666663</ele><time>2026-04-25T11:46:43.28Z</time></trkpt><trkpt lat="41.7035332" lon="12.8799632"><ele>272.3333333333333</ele><time>2026-04-25T11:46:44.28Z</time></trkpt><trkpt lat="41.7033117" lon="12.8799499"><ele>273.0</ele><time>2026-04-25T11:46:45.287Z</time></trkpt><trkpt lat="41.7030649" lon="12.8799218"><ele>273.0</ele><time>2026-04-25T11:46:46.28Z</time></trkpt><trkpt lat="41.7028077" lon="12.8798804"><ele>273.0</ele><time>2026-04-25T11:46:47.278Z</time></trkpt><trkpt lat="41.7025626" lon="12.8798245"><ele>275.0</ele><time>2026-04-25T11:46:48.28Z</time></trkpt><trkpt lat="41.7023347" lon="12.8797548"><ele>277.0</ele><time>2026-04-25T11:46:49.281Z</time></trkpt><trkpt lat="41.702115" lon="12.8796851"><ele>276.66666666666663</ele><time>2026-04-25T11:46:50.286Z</time></trkpt><trkpt lat="41.7018966" lon="12.8796185"><ele>276.3333333333333</ele><time>2026-04-25T11:46:51.279Z</time></trkpt><trkpt lat="41.7016863" lon="12.8795509"><ele>276.0</ele><time>2026-04-25T11:46:52.281Z</time></trkpt><trkpt lat="41.7014873" lon="12.879492"><ele>276.0</ele><time>2026-04-25T11:46:53.282Z</time></trkpt><trkpt lat="41.7013016" lon="12.879433"><ele>276.0</ele><time>2026-04-25T11:46:54.285Z</time></trkpt><trkpt lat="41.7011296" lon="12.8793741"><ele>276.0</ele><time>2026-04-25T11:46:55.279Z</time></trkpt><trkpt lat="41.7009736" lon="12.879322"><ele>276.6666666666667</ele><time>2026-04-25T11:46:56.288Z</time></trkpt><trkpt lat="41.7008205" lon="12.8792898"><ele>277.33333333333337</ele><time>2026-04-25T11:46:57.281Z</time></trkpt><trkpt lat="41.7006594" lon="12.8792879"><ele>278.0</ele><time>2026-04-25T11:46:58.283Z</time></trkpt><trkpt lat="41.7004965" lon="12.8793254"><ele>278.0</ele><time>2026-04-25T11:46:59.278Z</time></trkpt><trkpt lat="41.7003008" lon="12.879389"><ele>278.0</ele><time>2026-04-25T11:47:00.282Z</time></trkpt><trkpt lat="41.7000742" lon="12.8794802"><ele>278.0</ele><time>2026-04-25T11:47:01.283Z</time></trkpt><trkpt lat="41.6998051" lon="12.8795814"><ele>279.0</ele><time>2026-04-25T11:47:02.277Z</time></trkpt><trkpt lat="41.6994892" lon="12.8797114"><ele>280.0</ele><time>2026-04-25T11:47:03.281Z</time></trkpt><trkpt lat="41.699145" lon="12.8798416"><ele>277.5</ele><time>2026-04-25T11:47:04.279Z</time></trkpt><trkpt lat="41.6987923" lon="12.8799725"><ele>275.0</ele><time>2026-04-25T11:47:05.279Z</time></trkpt><trkpt lat="41.6984427" lon="12.8800982"><ele>274.0</ele><time>2026-04-25T11:47:06.282Z</time></trkpt><trkpt lat="41.6980792" lon="12.8802372"><ele>273.0</ele><time>2026-04-25T11:47:07.28Z</time></trkpt><trkpt lat="41.6976915" lon="12.8803795"><ele>270.5</ele><time>2026-04-25T11:47:08.278Z</time></trkpt><trkpt lat="41.6972752" lon="12.8805359"><ele>268.0</ele><time>2026-04-25T11:47:09.282Z</time></trkpt><trkpt lat="41.6968425" lon="12.8807028"><ele>267.0</ele><time>2026-04-25T11:47:10.281Z</time></trkpt><trkpt lat="41.6964208" lon="12.8808648"><ele>266.0</ele><time>2026-04-25T11:47:11.28Z</time></trkpt><trkpt lat="41.6960338" lon="12.8810102"><ele>269.0</ele><time>2026-04-25T11:47:12.279Z</time></trkpt><trkpt lat="41.695679" lon="12.8811471"><ele>272.0</ele><time>2026-04-25T11:47:13.282Z</time></trkpt><trkpt lat="41.6953605" lon="12.8812647"><ele>271.5</ele><time>2026-04-25T11:47:14.279Z</time></trkpt><trkpt lat="41.6950708" lon="12.8813747"><ele>271.0</ele><time>2026-04-25T11:47:15.287Z</time></trkpt><trkpt lat="41.6948009" lon="12.8814776"><ele>271.0</ele><time>2026-04-25T11:47:16.286Z</time></trkpt><trkpt lat="41.6945498" lon="12.8815752"><ele>271.0</ele><time>2026-04-25T11:47:17.279Z</time></trkpt><trkpt lat="41.6943121" lon="12.8816625"><ele>270.5</ele><time>2026-04-25T11:47:18.277Z</time></trkpt><trkpt lat="41.6940889" lon="12.8817483"><ele>270.0</ele><time>2026-04-25T11:47:19.284Z</time></trkpt><trkpt lat="41.6938756" lon="12.8818324"><ele>270.6666666666667</ele><time>2026-04-25T11:47:20.282Z</time></trkpt><trkpt lat="41.6936731" lon="12.8819107"><ele>271.33333333333337</ele><time>2026-04-25T11:47:21.28Z</time></trkpt><trkpt lat="41.6934804" lon="12.8819922"><ele>272.0</ele><time>2026-04-25T11:47:22.278Z</time></trkpt><trkpt lat="41.6933025" lon="12.8820549"><ele>272.0</ele><time>2026-04-25T11:47:23.287Z</time></trkpt><trkpt lat="41.6931447" lon="12.8820989"><ele>272.0</ele><time>2026-04-25T11:47:24.28Z</time></trkpt><trkpt lat="41.6929893" lon="12.8821179"><ele>272.0</ele><time>2026-04-25T11:47:25.285Z</time></trkpt><trkpt lat="41.6928057" lon="12.882108"><ele>271.0</ele><time>2026-04-25T11:47:26.28Z</time></trkpt><trkpt lat="41.6925897" lon="12.8820717"><ele>270.0</ele><time>2026-04-25T11:47:27.282Z</time></trkpt><trkpt lat="41.6923471" lon="12.8820065"><ele>270.0</ele><time>2026-04-25T11:47:28.278Z</time></trkpt><trkpt lat="41.692073" lon="12.8819133"><ele>270.0</ele><time>2026-04-25T11:47:29.282Z</time></trkpt><trkpt lat="41.6917682" lon="12.8818022"><ele>266.5</ele><time>2026-04-25T11:47:30.29Z</time></trkpt><trkpt lat="41.6914726" lon="12.8817029"><ele>263.0</ele><time>2026-04-25T11:47:31.278Z</time></trkpt><trkpt lat="41.6911934" lon="12.8816058"><ele>261.5</ele><time>2026-04-25T11:47:32.278Z</time></trkpt><trkpt lat="41.6909233" lon="12.8815181"><ele>260.0</ele><time>2026-04-25T11:47:33.285Z</time></trkpt><trkpt lat="41.690666" lon="12.8814374"><ele>260.0</ele><time>2026-04-25T11:47:34.282Z</time></trkpt><trkpt lat="41.6904267" lon="12.8813586"><ele>260.0</ele><time>2026-04-25T11:47:35.278Z</time></trkpt><trkpt lat="41.6901882" lon="12.8812777"><ele>259.5</ele><time>2026-04-25T11:47:36.277Z</time></trkpt><trkpt lat="41.6899539" lon="12.8811988"><ele>259.0</ele><time>2026-04-25T11:47:37.389Z</time></trkpt><trkpt lat="41.6897274" lon="12.8811225"><ele>259.0</ele><time>2026-04-25T11:47:38.281Z</time></trkpt><trkpt lat="41.6895061" lon="12.8810481"><ele>259.0</ele><time>2026-04-25T11:47:39.277Z</time></trkpt><trkpt lat="41.6893038" lon="12.8809791"><ele>259.0</ele><time>2026-04-25T11:47:40.28Z</time></trkpt><trkpt lat="41.6891154" lon="12.8809169"><ele>255.66666666666666</ele><time>2026-04-25T11:47:41.282Z</time></trkpt><trkpt lat="41.6889414" lon="12.8808589"><ele>252.33333333333331</ele><time>2026-04-25T11:47:42.28Z</time></trkpt><trkpt lat="41.688777" lon="12.8808103"><ele>249.0</ele><time>2026-04-25T11:47:43.283Z</time></trkpt><trkpt lat="41.6886332" lon="12.8807636"><ele>248.75</ele><time>2026-04-25T11:47:44.283Z</time></trkpt><trkpt lat="41.6885025" lon="12.8807006"><ele>248.5</ele><time>2026-04-25T11:47:45.279Z</time></trkpt><trkpt lat="41.6883869" lon="12.880624"><ele>248.25</ele><time>2026-04-25T11:47:46.277Z</time></trkpt><trkpt lat="41.6882913" lon="12.8805267"><ele>248.0</ele><time>2026-04-25T11:47:47.278Z</time></trkpt><trkpt lat="41.6882098" lon="12.8803926"><ele>248.0</ele><time>2026-04-25T11:47:48.28Z</time></trkpt><trkpt lat="41.6881465" lon="12.8802387"><ele>248.0</ele><time>2026-04-25T11:47:49.283Z</time></trkpt><trkpt lat="41.6880895" lon="12.8800878"><ele>248.0</ele><time>2026-04-25T11:47:50.276Z</time></trkpt><trkpt lat="41.688013" lon="12.8799463"><ele>248.0</ele><time>2026-04-25T11:47:51.278Z</time></trkpt><trkpt lat="41.6879189" lon="12.8798203"><ele>247.0</ele><time>2026-04-25T11:47:52.278Z</time></trkpt><trkpt lat="41.6877943" lon="12.8797062"><ele>246.0</ele><time>2026-04-25T11:47:53.282Z</time></trkpt><trkpt lat="41.6876586" lon="12.8796049"><ele>245.0</ele><time>2026-04-25T11:47:54.278Z</time></trkpt><trkpt lat="41.6875219" lon="12.8795069"><ele>244.5</ele><time>2026-04-25T11:47:55.281Z</time></trkpt><trkpt lat="41.6873855" lon="12.8794169"><ele>244.0</ele><time>2026-04-25T11:47:56.277Z</time></trkpt><trkpt lat="41.6872615" lon="12.8793328"><ele>243.5</ele><time>2026-04-25T11:47:57.283Z</time></trkpt><trkpt lat="41.6871435" lon="12.8792562"><ele>243.0</ele><time>2026-04-25T11:47:58.279Z</time></trkpt><trkpt lat="41.6870393" lon="12.879184"><ele>241.8</ele><time>2026-04-25T11:47:59.282Z</time></trkpt><trkpt lat="41.686937" lon="12.879136"><ele>240.60000000000002</ele><time>2026-04-25T11:48:00.281Z</time></trkpt><trkpt lat="41.6868402" lon="12.8791129"><ele>239.39999999999998</ele><time>2026-04-25T11:48:01.285Z</time></trkpt><trkpt lat="41.6867535" lon="12.8791121"><ele>238.2</ele><time>2026-04-25T11:48:02.278Z</time></trkpt><trkpt lat="41.6866825" lon="12.8791341"><ele>237.0</ele><time>2026-04-25T11:48:03.284Z</time></trkpt><trkpt lat="41.6865764" lon="12.8791684"><ele>236.75</ele><time>2026-04-25T11:48:05.276Z</time></trkpt><trkpt lat="41.6864979" lon="12.8792151"><ele>236.5</ele><time>2026-04-25T11:48:07.279Z</time></trkpt><trkpt lat="41.6864418" lon="12.8793681"><ele>236.25</ele><time>2026-04-25T11:48:09.278Z</time></trkpt><trkpt lat="41.686414" lon="12.8795341"><ele>236.0</ele><time>2026-04-25T11:48:10.28Z</time></trkpt><trkpt lat="41.686377" lon="12.8797353"><ele>237.66666666666669</ele><time>2026-04-25T11:48:11.28Z</time></trkpt><trkpt lat="41.6863347" lon="12.8799766"><ele>239.33333333333331</ele><time>2026-04-25T11:48:12.276Z</time></trkpt><trkpt lat="41.6862998" lon="12.880221"><ele>241.0</ele><time>2026-04-25T11:48:13.285Z</time></trkpt><trkpt lat="41.6862699" lon="12.8804811"><ele>241.33333333333331</ele><time>2026-04-25T11:48:14.278Z</time></trkpt><trkpt lat="41.686239" lon="12.8807391"><ele>241.66666666666669</ele><time>2026-04-25T11:48:15.284Z</time></trkpt><trkpt lat="41.6862086" lon="12.8809899"><ele>242.0</ele><time>2026-04-25T11:48:16.279Z</time></trkpt><trkpt lat="41.6861832" lon="12.8812168"><ele>242.0</ele><time>2026-04-25T11:48:17.28Z</time></trkpt><trkpt lat="41.6861657" lon="12.8814454"><ele>242.0</ele><time>2026-04-25T11:48:18.284Z</time></trkpt><trkpt lat="41.6861599" lon="12.8816941"><ele>242.0</ele><time>2026-04-25T11:48:19.28Z</time></trkpt><trkpt lat="41.6861729" lon="12.8819491"><ele>242.0</ele><time>2026-04-25T11:48:20.294Z</time></trkpt><trkpt lat="41.6861988" lon="12.8822119"><ele>242.0</ele><time>2026-04-25T11:48:21.278Z</time></trkpt><trkpt lat="41.6862387" lon="12.8824905"><ele>242.0</ele><time>2026-04-25T11:48:22.28Z</time></trkpt><trkpt lat="41.6862909" lon="12.8827773"><ele>239.66666666666669</ele><time>2026-04-25T11:48:23.279Z</time></trkpt><trkpt lat="41.6863446" lon="12.8830526"><ele>237.33333333333331</ele><time>2026-04-25T11:48:24.281Z</time></trkpt><trkpt lat="41.6863918" lon="12.8833097"><ele>235.0</ele><time>2026-04-25T11:48:25.289Z</time></trkpt><trkpt lat="41.6864291" lon="12.8835376"><ele>234.5</ele><time>2026-04-25T11:48:26.286Z</time></trkpt><trkpt lat="41.6864484" lon="12.8837345"><ele>234.0</ele><time>2026-04-25T11:48:27.287Z</time></trkpt><trkpt lat="41.6864389" lon="12.8839078"><ele>233.5</ele><time>2026-04-25T11:48:28.285Z</time></trkpt><trkpt lat="41.6864043" lon="12.884069"><ele>233.0</ele><time>2026-04-25T11:48:29.287Z</time></trkpt><trkpt lat="41.6863293" lon="12.8842406"><ele>233.66666666666669</ele><time>2026-04-25T11:48:30.28Z</time></trkpt><trkpt lat="41.6862062" lon="12.8844217"><ele>234.33333333333331</ele><time>2026-04-25T11:48:31.286Z</time></trkpt><trkpt lat="41.6860557" lon="12.8846282"><ele>235.0</ele><time>2026-04-25T11:48:32.279Z</time></trkpt><trkpt lat="41.6859018" lon="12.8848463"><ele>235.0</ele><time>2026-04-25T11:48:33.28Z</time></trkpt><trkpt lat="41.6857434" lon="12.885062"><ele>235.0</ele><time>2026-04-25T11:48:34.286Z</time></trkpt><trkpt lat="41.6855848" lon="12.8852766"><ele>236.66666666666666</ele><time>2026-04-25T11:48:35.283Z</time></trkpt><trkpt lat="41.6854407" lon="12.8854694"><ele>238.33333333333331</ele><time>2026-04-25T11:48:36.278Z</time></trkpt><trkpt lat="41.6853035" lon="12.8856526"><ele>240.0</ele><time>2026-04-25T11:48:37.282Z</time></trkpt><trkpt lat="41.6851743" lon="12.8858297"><ele>239.66666666666669</ele><time>2026-04-25T11:48:38.28Z</time></trkpt><trkpt lat="41.6850532" lon="12.8859878"><ele>239.33333333333334</ele><time>2026-04-25T11:48:39.276Z</time></trkpt><trkpt lat="41.684937" lon="12.8861496"><ele>239.0</ele><time>2026-04-25T11:48:40.281Z</time></trkpt><trkpt lat="41.6848226" lon="12.8862964"><ele>239.0</ele><time>2026-04-25T11:48:41.286Z</time></trkpt><trkpt lat="41.6847143" lon="12.8864361"><ele>239.0</ele><time>2026-04-25T11:48:42.279Z</time></trkpt><trkpt lat="41.684606" lon="12.8865708"><ele>239.0</ele><time>2026-04-25T11:48:43.287Z</time></trkpt><trkpt lat="41.6844962" lon="12.8867249"><ele>237.5</ele><time>2026-04-25T11:48:44.278Z</time></trkpt><trkpt lat="41.6843846" lon="12.8868707"><ele>236.0</ele><time>2026-04-25T11:48:45.281Z</time></trkpt><trkpt lat="41.6842819" lon="12.8870073"><ele>234.5</ele><time>2026-04-25T11:48:46.284Z</time></trkpt><trkpt lat="41.6841866" lon="12.8871451"><ele>233.0</ele><time>2026-04-25T11:48:47.285Z</time></trkpt><trkpt lat="41.68411" lon="12.8873033"><ele>233.0</ele><time>2026-04-25T11:48:48.288Z</time></trkpt><trkpt lat="41.6840461" lon="12.8874784"><ele>233.0</ele><time>2026-04-25T11:48:49.282Z</time></trkpt><trkpt lat="41.6840018" lon="12.8876691"><ele>233.0</ele><time>2026-04-25T11:48:50.278Z</time></trkpt><trkpt lat="41.6839687" lon="12.8878449"><ele>233.0</ele><time>2026-04-25T11:48:51.285Z</time></trkpt><trkpt lat="41.6839395" lon="12.8880115"><ele>232.75</ele><time>2026-04-25T11:48:52.284Z</time></trkpt><trkpt lat="41.6839116" lon="12.8881763"><ele>232.5</ele><time>2026-04-25T11:48:53.288Z</time></trkpt><trkpt lat="41.6838695" lon="12.8883263"><ele>232.25</ele><time>2026-04-25T11:48:54.277Z</time></trkpt><trkpt lat="41.6838017" lon="12.8884782"><ele>232.0</ele><time>2026-04-25T11:48:55.278Z</time></trkpt><trkpt lat="41.6837018" lon="12.8886298"><ele>232.25</ele><time>2026-04-25T11:48:56.28Z</time></trkpt><trkpt lat="41.6835895" lon="12.888756"><ele>232.5</ele><time>2026-04-25T11:48:57.287Z</time></trkpt><trkpt lat="41.683486" lon="12.8888429"><ele>232.75</ele><time>2026-04-25T11:48:58.276Z</time></trkpt><trkpt lat="41.6833936" lon="12.8889132"><ele>233.0</ele><time>2026-04-25T11:48:59.286Z</time></trkpt><trkpt lat="41.683329" lon="12.8889686"><ele>233.0</ele><time>2026-04-25T11:49:00.277Z</time></trkpt><trkpt lat="41.6832191" lon="12.8890598"><ele>233.0</ele><time>2026-04-25T11:49:01.285Z</time></trkpt><trkpt lat="41.6830749" lon="12.8891905"><ele>233.0</ele><time>2026-04-25T11:49:02.278Z</time></trkpt><trkpt lat="41.6828909" lon="12.8893388"><ele>237.0</ele><time>2026-04-25T11:49:03.278Z</time></trkpt><trkpt lat="41.6826895" lon="12.8894912"><ele>241.0</ele><time>2026-04-25T11:49:04.288Z</time></trkpt><trkpt lat="41.6825251" lon="12.8896217"><ele>245.0</ele><time>2026-04-25T11:49:05.281Z</time></trkpt><trkpt lat="41.6823832" lon="12.8897322"><ele>245.0</ele><time>2026-04-25T11:49:06.289Z</time></trkpt><trkpt lat="41.6822598" lon="12.8898376"><ele>245.0</ele><time>2026-04-25T11:49:07.281Z</time></trkpt><trkpt lat="41.6821349" lon="12.8899683"><ele>245.0</ele><time>2026-04-25T11:49:08.285Z</time></trkpt><trkpt lat="41.682026" lon="12.8901196"><ele>244.0</ele><time>2026-04-25T11:49:09.288Z</time></trkpt><trkpt lat="41.6819236" lon="12.8903139"><ele>243.0</ele><time>2026-04-25T11:49:10.279Z</time></trkpt><trkpt lat="41.6818309" lon="12.8905378"><ele>242.0</ele><time>2026-04-25T11:49:11.281Z</time></trkpt><trkpt lat="41.6817374" lon="12.8907905"><ele>243.33333333333334</ele><time>2026-04-25T11:49:12.29Z</time></trkpt><trkpt lat="41.6816465" lon="12.891046"><ele>244.66666666666669</ele><time>2026-04-25T11:49:13.281Z</time></trkpt><trkpt lat="41.6815642" lon="12.8912735"><ele>246.0</ele><time>2026-04-25T11:49:14.279Z</time></trkpt><trkpt lat="41.6814838" lon="12.8915066"><ele>246.0</ele><time>2026-04-25T11:49:15.289Z</time></trkpt><trkpt lat="41.681401" lon="12.8917404"><ele>246.0</ele><time>2026-04-25T11:49:16.281Z</time></trkpt><trkpt lat="41.6813201" lon="12.8919581"><ele>246.0</ele><time>2026-04-25T11:49:17.282Z</time></trkpt><trkpt lat="41.6812358" lon="12.8921688"><ele>246.33333333333331</ele><time>2026-04-25T11:49:18.284Z</time></trkpt><trkpt lat="41.6811484" lon="12.8923764"><ele>246.66666666666666</ele><time>2026-04-25T11:49:19.288Z</time></trkpt><trkpt lat="41.6810618" lon="12.8925618"><ele>247.0</ele><time>2026-04-25T11:49:20.279Z</time></trkpt><trkpt lat="41.6809749" lon="12.8927315"><ele>248.25</ele><time>2026-04-25T11:49:21.289Z</time></trkpt><trkpt lat="41.6808962" lon="12.8928757"><ele>249.5</ele><time>2026-04-25T11:49:22.28Z</time></trkpt><trkpt lat="41.6808168" lon="12.8930244"><ele>250.75</ele><time>2026-04-25T11:49:23.28Z</time></trkpt><trkpt lat="41.6807484" lon="12.8931744"><ele>252.0</ele><time>2026-04-25T11:49:24.28Z</time></trkpt><trkpt lat="41.6806925" lon="12.8933294"><ele>254.66666666666669</ele><time>2026-04-25T11:49:25.283Z</time></trkpt><trkpt lat="41.6806573" lon="12.8934979"><ele>257.33333333333337</ele><time>2026-04-25T11:49:26.278Z</time></trkpt><trkpt lat="41.6806308" lon="12.8936936"><ele>260.0</ele><time>2026-04-25T11:49:27.28Z</time></trkpt><trkpt lat="41.6805949" lon="12.8939342"><ele>260.0</ele><time>2026-04-25T11:49:28.282Z</time></trkpt><trkpt lat="41.6805632" lon="12.894195"><ele>260.0</ele><time>2026-04-25T11:49:29.282Z</time></trkpt><trkpt lat="41.6805391" lon="12.8944269"><ele>260.0</ele><time>2026-04-25T11:49:30.279Z</time></trkpt><trkpt lat="41.6805128" lon="12.8946386"><ele>262.0</ele><time>2026-04-25T11:49:31.285Z</time></trkpt><trkpt lat="41.6804757" lon="12.8948302"><ele>264.0</ele><time>2026-04-25T11:49:32.279Z</time></trkpt><trkpt lat="41.6804297" lon="12.8949964"><ele>266.0</ele><time>2026-04-25T11:49:33.287Z</time></trkpt><trkpt lat="41.6803854" lon="12.8951427"><ele>268.0</ele><time>2026-04-25T11:49:34.276Z</time></trkpt><trkpt lat="41.6803468" lon="12.8952698"><ele>268.8</ele><time>2026-04-25T11:49:35.279Z</time></trkpt><trkpt lat="41.6803192" lon="12.8953967"><ele>269.6</ele><time>2026-04-25T11:49:36.285Z</time></trkpt><trkpt lat="41.680316" lon="12.8955225"><ele>270.4</ele><time>2026-04-25T11:49:37.281Z</time></trkpt><trkpt lat="41.6803466" lon="12.895643"><ele>271.2</ele><time>2026-04-25T11:49:38.286Z</time></trkpt><trkpt lat="41.680406" lon="12.8957325"><ele>272.0</ele><time>2026-04-25T11:49:39.28Z</time></trkpt><trkpt lat="41.6804898" lon="12.8957834"><ele>272.0</ele><time>2026-04-25T11:49:40.279Z</time></trkpt><trkpt lat="41.6805821" lon="12.895777"><ele>272.0</ele><time>2026-04-25T11:49:41.28Z</time></trkpt><trkpt lat="41.6806616" lon="12.8957155"><ele>272.0</ele><time>2026-04-25T11:49:42.278Z</time></trkpt><trkpt lat="41.6807356" lon="12.8956"><ele>272.0</ele><time>2026-04-25T11:49:43.286Z</time></trkpt><trkpt lat="41.6808023" lon="12.8954396"><ele>272.0</ele><time>2026-04-25T11:49:44.28Z</time></trkpt><trkpt lat="41.6808703" lon="12.8952613"><ele>272.0</ele><time>2026-04-25T11:49:45.289Z</time></trkpt><trkpt lat="41.6809035" lon="12.8951095"><ele>272.0</ele><time>2026-04-25T11:49:46.288Z</time></trkpt><trkpt lat="41.6809167" lon="12.8949723"><ele>272.0</ele><time>2026-04-25T11:49:47.28Z</time></trkpt><trkpt lat="41.6809362" lon="12.8948502"><ele>272.0</ele><time>2026-04-25T11:49:48.286Z</time></trkpt><trkpt lat="41.6809712" lon="12.8947341"><ele>272.0</ele><time>2026-04-25T11:49:49.28Z</time></trkpt><trkpt lat="41.6810317" lon="12.8946353"><ele>271.5</ele><time>2026-04-25T11:49:50.286Z</time></trkpt><trkpt lat="41.6811048" lon="12.8945701"><ele>271.0</ele><time>2026-04-25T11:49:51.281Z</time></trkpt><trkpt lat="41.6811911" lon="12.8945377"><ele>270.5</ele><time>2026-04-25T11:49:52.28Z</time></trkpt><trkpt lat="41.6812826" lon="12.8945557"><ele>270.0</ele><time>2026-04-25T11:49:53.283Z</time></trkpt><trkpt lat="41.6813479" lon="12.8946227"><ele>269.5</ele><time>2026-04-25T11:49:54.281Z</time></trkpt><trkpt lat="41.6813884" lon="12.8947294"><ele>269.0</ele><time>2026-04-25T11:49:55.278Z</time></trkpt><trkpt lat="41.6814126" lon="12.8948813"><ele>269.0</ele><time>2026-04-25T11:49:56.279Z</time></trkpt><trkpt lat="41.6814292" lon="12.8950624"><ele>269.0</ele><time>2026-04-25T11:49:57.284Z</time></trkpt><trkpt lat="41.6814492" lon="12.8952611"><ele>269.0</ele><time>2026-04-25T11:49:58.28Z</time></trkpt><trkpt lat="41.6814816" lon="12.8954833"><ele>270.6666666666667</ele><time>2026-04-25T11:49:59.287Z</time></trkpt><trkpt lat="41.6815153" lon="12.8957202"><ele>272.3333333333333</ele><time>2026-04-25T11:50:00.284Z</time></trkpt><trkpt lat="41.6815425" lon="12.895955"><ele>274.0</ele><time>2026-04-25T11:50:01.285Z</time></trkpt><trkpt lat="41.6815575" lon="12.896168"><ele>276.0</ele><time>2026-04-25T11:50:02.28Z</time></trkpt><trkpt lat="41.681555" lon="12.8963676"><ele>278.0</ele><time>2026-04-25T11:50:03.286Z</time></trkpt><trkpt lat="41.6815354" lon="12.8965635"><ele>280.0</ele><time>2026-04-25T11:50:04.29Z</time></trkpt><trkpt lat="41.6815036" lon="12.8967641"><ele>280.0</ele><time>2026-04-25T11:50:05.281Z</time></trkpt><trkpt lat="41.6814536" lon="12.8969784"><ele>280.0</ele><time>2026-04-25T11:50:06.281Z</time></trkpt><trkpt lat="41.6814013" lon="12.8971739"><ele>280.0</ele><time>2026-04-25T11:50:07.28Z</time></trkpt><trkpt lat="41.6813589" lon="12.89733"><ele>280.0</ele><time>2026-04-25T11:50:08.284Z</time></trkpt><trkpt lat="41.6813217" lon="12.8974607"><ele>280.0</ele><time>2026-04-25T11:50:09.288Z</time></trkpt><trkpt lat="41.6812861" lon="12.8975713"><ele>280.0</ele><time>2026-04-25T11:50:10.279Z</time></trkpt><trkpt lat="41.6812537" lon="12.897668"><ele>280.0</ele><time>2026-04-25T11:50:11.299Z</time></trkpt><trkpt lat="41.6812324" lon="12.8977592"><ele>280.0</ele><time>2026-04-25T11:50:12.284Z</time></trkpt><trkpt lat="41.6812102" lon="12.8978587"><ele>280.0</ele><time>2026-04-25T11:50:13.303Z</time></trkpt><trkpt lat="41.6811758" lon="12.897991"><ele>280.0</ele><time>2026-04-25T11:50:14.282Z</time></trkpt><trkpt lat="41.6811351" lon="12.8981482"><ele>279.66666666666663</ele><time>2026-04-25T11:50:15.279Z</time></trkpt><trkpt lat="41.6811008" lon="12.8982856"><ele>279.3333333333333</ele><time>2026-04-25T11:50:16.278Z</time></trkpt><trkpt lat="41.6810706" lon="12.8983941"><ele>279.0</ele><time>2026-04-25T11:50:17.281Z</time></trkpt><trkpt lat="41.6810427" lon="12.8984818"><ele>278.6666666666667</ele><time>2026-04-25T11:50:18.279Z</time></trkpt><trkpt lat="41.6810174" lon="12.8985677"><ele>278.33333333333337</ele><time>2026-04-25T11:50:19.29Z</time></trkpt><trkpt lat="41.6809855" lon="12.898683"><ele>278.0</ele><time>2026-04-25T11:50:20.282Z</time></trkpt><trkpt lat="41.680942" lon="12.8988234"><ele>281.75</ele><time>2026-04-25T11:50:21.287Z</time></trkpt><trkpt lat="41.6809003" lon="12.8989843"><ele>285.5</ele><time>2026-04-25T11:50:22.281Z</time></trkpt><trkpt lat="41.6808582" lon="12.8991687"><ele>289.25</ele><time>2026-04-25T11:50:23.291Z</time></trkpt><trkpt lat="41.6808114" lon="12.8993577"><ele>293.0</ele><time>2026-04-25T11:50:24.28Z</time></trkpt><trkpt lat="41.6807697" lon="12.8995064"><ele>293.75</ele><time>2026-04-25T11:50:25.295Z</time></trkpt><trkpt lat="41.6807367" lon="12.8996165"><ele>294.5</ele><time>2026-04-25T11:50:26.288Z</time></trkpt><trkpt lat="41.6806877" lon="12.8997459"><ele>295.25</ele><time>2026-04-25T11:50:27.278Z</time></trkpt><trkpt lat="41.6806188" lon="12.899891"><ele>296.0</ele><time>2026-04-25T11:50:28.278Z</time></trkpt><trkpt lat="41.6805535" lon="12.9000336"><ele>297.25</ele><time>2026-04-25T11:50:29.29Z</time></trkpt><trkpt lat="41.6805107" lon="12.9001932"><ele>298.5</ele><time>2026-04-25T11:50:30.278Z</time></trkpt><trkpt lat="41.6804956" lon="12.9003742"><ele>299.75</ele><time>2026-04-25T11:50:31.28Z</time></trkpt><trkpt lat="41.6805011" lon="12.9005399"><ele>301.0</ele><time>2026-04-25T11:50:32.283Z</time></trkpt><trkpt lat="41.6805287" lon="12.9006825"><ele>301.0</ele><time>2026-04-25T11:50:33.28Z</time></trkpt><trkpt lat="41.6805809" lon="12.9008184"><ele>301.0</ele><time>2026-04-25T11:50:34.289Z</time></trkpt><trkpt lat="41.6806616" lon="12.9009608"><ele>301.0</ele><time>2026-04-25T11:50:35.286Z</time></trkpt><trkpt lat="41.680765" lon="12.901086"><ele>301.0</ele><time>2026-04-25T11:50:36.29Z</time></trkpt><trkpt lat="41.6808811" lon="12.9011752"><ele>302.5</ele><time>2026-04-25T11:50:37.281Z</time></trkpt><trkpt lat="41.681013" lon="12.9012234"><ele>304.0</ele><time>2026-04-25T11:50:38.282Z</time></trkpt><trkpt lat="41.6811644" lon="12.9012335"><ele>305.5</ele><time>2026-04-25T11:50:39.28Z</time></trkpt><trkpt lat="41.6813248" lon="12.9012306"><ele>307.0</ele><time>2026-04-25T11:50:40.282Z</time></trkpt><trkpt lat="41.681474" lon="12.9012333"><ele>309.0</ele><time>2026-04-25T11:50:41.286Z</time></trkpt><trkpt lat="41.6816079" lon="12.9012392"><ele>311.0</ele><time>2026-04-25T11:50:42.288Z</time></trkpt><trkpt lat="41.6817336" lon="12.9012451"><ele>313.0</ele><time>2026-04-25T11:50:43.282Z</time></trkpt><trkpt lat="41.6818633" lon="12.9012686"><ele>315.0</ele><time>2026-04-25T11:50:44.278Z</time></trkpt><trkpt lat="41.6819964" lon="12.9013179"><ele>315.25</ele><time>2026-04-25T11:50:45.287Z</time></trkpt><trkpt lat="41.6821345" lon="12.9014126"><ele>315.5</ele><time>2026-04-25T11:50:46.283Z</time></trkpt><trkpt lat="41.6822666" lon="12.9014974"><ele>315.75</ele><time>2026-04-25T11:50:47.282Z</time></trkpt><trkpt lat="41.6823883" lon="12.9015609"><ele>316.0</ele><time>2026-04-25T11:50:48.288Z</time></trkpt><trkpt lat="41.6825105" lon="12.9016076"><ele>316.0</ele><time>2026-04-25T11:50:49.296Z</time></trkpt><trkpt lat="41.6826355" lon="12.9016284"><ele>316.0</ele><time>2026-04-25T11:50:50.297Z</time></trkpt><trkpt lat="41.6827634" lon="12.9016197"><ele>316.0</ele><time>2026-04-25T11:50:51.287Z</time></trkpt><trkpt lat="41.6828923" lon="12.9015781"><ele>316.0</ele><time>2026-04-25T11:50:52.281Z</time></trkpt><trkpt lat="41.6830102" lon="12.9015284"><ele>316.0</ele><time>2026-04-25T11:50:53.285Z</time></trkpt><trkpt lat="41.6831118" lon="12.9015097"><ele>316.0</ele><time>2026-04-25T11:50:54.287Z</time></trkpt><trkpt lat="41.6832018" lon="12.9015365"><ele>316.0</ele><time>2026-04-25T11:50:55.287Z</time></trkpt><trkpt lat="41.6832752" lon="12.9016106"><ele>316.0</ele><time>2026-04-25T11:50:56.283Z</time></trkpt><trkpt lat="41.683317" lon="12.9017168"><ele>316.0</ele><time>2026-04-25T11:50:57.28Z</time></trkpt><trkpt lat="41.6833177" lon="12.9018195"><ele>320.20000000000005</ele><time>2026-04-25T11:50:58.287Z</time></trkpt><trkpt lat="41.6832791" lon="12.9019057"><ele>324.40000000000003</ele><time>2026-04-25T11:50:59.281Z</time></trkpt><trkpt lat="41.6832051" lon="12.9019786"><ele>328.6</ele><time>2026-04-25T11:51:00.278Z</time></trkpt><trkpt lat="41.6830998" lon="12.9020213"><ele>332.8</ele><time>2026-04-25T11:51:01.277Z</time></trkpt><trkpt lat="41.682967" lon="12.9020484"><ele>337.0</ele><time>2026-04-25T11:51:02.279Z</time></trkpt><trkpt lat="41.6828126" lon="12.902075"><ele>336.0</ele><time>2026-04-25T11:51:03.276Z</time></trkpt><trkpt lat="41.6826554" lon="12.9021081"><ele>335.0</ele><time>2026-04-25T11:51:04.278Z</time></trkpt><trkpt lat="41.6825012" lon="12.9021465"><ele>334.0</ele><time>2026-04-25T11:51:05.279Z</time></trkpt><trkpt lat="41.682343" lon="12.902198"><ele>334.0</ele><time>2026-04-25T11:51:06.28Z</time></trkpt><trkpt lat="41.6821769" lon="12.902266"><ele>334.0</ele><time>2026-04-25T11:51:07.279Z</time></trkpt><trkpt lat="41.682013" lon="12.9023424"><ele>334.0</ele><time>2026-04-25T11:51:08.289Z</time></trkpt><trkpt lat="41.6818732" lon="12.9024136"><ele>331.66666666666663</ele><time>2026-04-25T11:51:09.28Z</time></trkpt><trkpt lat="41.6817464" lon="12.9024969"><ele>329.3333333333333</ele><time>2026-04-25T11:51:10.28Z</time></trkpt><trkpt lat="41.6816208" lon="12.9026209"><ele>327.0</ele><time>2026-04-25T11:51:11.28Z</time></trkpt><trkpt lat="41.6814849" lon="12.9027856"><ele>330.0</ele><time>2026-04-25T11:51:12.287Z</time></trkpt><trkpt lat="41.6813332" lon="12.90296"><ele>333.0</ele><time>2026-04-25T11:51:13.284Z</time></trkpt><trkpt lat="41.6811621" lon="12.90311"><ele>336.0</ele><time>2026-04-25T11:51:14.288Z</time></trkpt><trkpt lat="41.6809857" lon="12.9032307"><ele>336.0</ele><time>2026-04-25T11:51:15.29Z</time></trkpt><trkpt lat="41.6808158" lon="12.9033512"><ele>336.0</ele><time>2026-04-25T11:51:16.28Z</time></trkpt><trkpt lat="41.6806572" lon="12.9034787"><ele>336.0</ele><time>2026-04-25T11:51:17.281Z</time></trkpt><trkpt lat="41.6805257" lon="12.9036025"><ele>336.5</ele><time>2026-04-25T11:51:18.28Z</time></trkpt><trkpt lat="41.680412" lon="12.9037194"><ele>337.0</ele><time>2026-04-25T11:51:19.287Z</time></trkpt><trkpt lat="41.6803123" lon="12.9038272"><ele>337.5</ele><time>2026-04-25T11:51:20.278Z</time></trkpt><trkpt lat="41.6802292" lon="12.9039439"><ele>338.0</ele><time>2026-04-25T11:51:21.281Z</time></trkpt><trkpt lat="41.6801521" lon="12.9040922"><ele>339.5</ele><time>2026-04-25T11:51:22.278Z</time></trkpt><trkpt lat="41.6800818" lon="12.9042662"><ele>341.0</ele><time>2026-04-25T11:51:23.286Z</time></trkpt><trkpt lat="41.680027" lon="12.9044426"><ele>342.5</ele><time>2026-04-25T11:51:24.289Z</time></trkpt><trkpt lat="41.6799952" lon="12.9046109"><ele>344.0</ele><time>2026-04-25T11:51:25.287Z</time></trkpt><trkpt lat="41.6799861" lon="12.9047843"><ele>344.0</ele><time>2026-04-25T11:51:26.28Z</time></trkpt><trkpt lat="41.6800002" lon="12.9049647"><ele>344.0</ele><time>2026-04-25T11:51:27.282Z</time></trkpt><trkpt lat="41.6800408" lon="12.9051531"><ele>344.0</ele><time>2026-04-25T11:51:28.277Z</time></trkpt><trkpt lat="41.6800976" lon="12.9053506"><ele>344.0</ele><time>2026-04-25T11:51:29.28Z</time></trkpt><trkpt lat="41.68015" lon="12.9055518"><ele>344.33333333333337</ele><time>2026-04-25T11:51:30.281Z</time></trkpt><trkpt lat="41.6801879" lon="12.9057701"><ele>344.6666666666667</ele><time>2026-04-25T11:51:31.278Z</time></trkpt><trkpt lat="41.6802078" lon="12.9059897"><ele>345.0</ele><time>2026-04-25T11:51:32.275Z</time></trkpt><trkpt lat="41.6802136" lon="12.906201"><ele>346.3333333333333</ele><time>2026-04-25T11:51:33.276Z</time></trkpt><trkpt lat="41.6801987" lon="12.9064076"><ele>347.66666666666663</ele><time>2026-04-25T11:51:34.275Z</time></trkpt><trkpt lat="41.6801639" lon="12.9066099"><ele>349.0</ele><time>2026-04-25T11:51:35.277Z</time></trkpt><trkpt lat="41.6801036" lon="12.9068091"><ele>356.0</ele><time>2026-04-25T11:51:36.277Z</time></trkpt><trkpt lat="41.680024" lon="12.9070004"><ele>363.0</ele><time>2026-04-25T11:51:37.278Z</time></trkpt><trkpt lat="41.6799368" lon="12.9071655"><ele>370.0</ele><time>2026-04-25T11:51:38.278Z</time></trkpt><trkpt lat="41.6798325" lon="12.9073058"><ele>370.0</ele><time>2026-04-25T11:51:39.28Z</time></trkpt><trkpt lat="41.6796955" lon="12.9074225"><ele>370.0</ele><time>2026-04-25T11:51:40.275Z</time></trkpt><trkpt lat="41.6795441" lon="12.9075296"><ele>370.0</ele><time>2026-04-25T11:51:41.275Z</time></trkpt><trkpt lat="41.679397" lon="12.9076566"><ele>372.3333333333333</ele><time>2026-04-25T11:51:42.285Z</time></trkpt><trkpt lat="41.6792526" lon="12.9077963"><ele>374.6666666666667</ele><time>2026-04-25T11:51:43.282Z</time></trkpt><trkpt lat="41.6791089" lon="12.9079201"><ele>377.0</ele><time>2026-04-25T11:51:44.278Z</time></trkpt><trkpt lat="41.6789714" lon="12.9080561"><ele>377.0</ele><time>2026-04-25T11:51:45.285Z</time></trkpt><trkpt lat="41.6788413" lon="12.9082184"><ele>377.0</ele><time>2026-04-25T11:51:46.281Z</time></trkpt><trkpt lat="41.6787149" lon="12.9083963"><ele>377.0</ele><time>2026-04-25T11:51:47.279Z</time></trkpt><trkpt lat="41.6785867" lon="12.9085683"><ele>378.33333333333337</ele><time>2026-04-25T11:51:48.279Z</time></trkpt><trkpt lat="41.6784547" lon="12.9087303"><ele>379.6666666666667</ele><time>2026-04-25T11:51:49.274Z</time></trkpt><trkpt lat="41.6783164" lon="12.9088729"><ele>381.0</ele><time>2026-04-25T11:51:50.279Z</time></trkpt><trkpt lat="41.6781671" lon="12.9089899"><ele>381.0</ele><time>2026-04-25T11:51:51.278Z</time></trkpt><trkpt lat="41.6780067" lon="12.9090924"><ele>381.0</ele><time>2026-04-25T11:51:52.277Z</time></trkpt><trkpt lat="41.6778368" lon="12.9091798"><ele>381.0</ele><time>2026-04-25T11:51:53.284Z</time></trkpt><trkpt lat="41.6776663" lon="12.9092543"><ele>384.33333333333337</ele><time>2026-04-25T11:51:54.279Z</time></trkpt><trkpt lat="41.6774999" lon="12.9093238"><ele>387.6666666666667</ele><time>2026-04-25T11:51:55.282Z</time></trkpt><trkpt lat="41.6773556" lon="12.9093895"><ele>391.0</ele><time>2026-04-25T11:51:56.286Z</time></trkpt><trkpt lat="41.6772239" lon="12.909451"><ele>391.0</ele><time>2026-04-25T11:51:57.284Z</time></trkpt><trkpt lat="41.6771024" lon="12.9095065"><ele>391.0</ele><time>2026-04-25T11:51:58.277Z</time></trkpt><trkpt lat="41.676999" lon="12.9095717"><ele>391.0</ele><time>2026-04-25T11:51:59.277Z</time></trkpt><trkpt lat="41.6769063" lon="12.9096675"><ele>391.0</ele><time>2026-04-25T11:52:00.279Z</time></trkpt><trkpt lat="41.6768171" lon="12.9098025"><ele>389.0</ele><time>2026-04-25T11:52:01.276Z</time></trkpt><trkpt lat="41.6767253" lon="12.9099776"><ele>387.0</ele><time>2026-04-25T11:52:02.28Z</time></trkpt><trkpt lat="41.676624" lon="12.9101828"><ele>385.0</ele><time>2026-04-25T11:52:03.283Z</time></trkpt><trkpt lat="41.6765088" lon="12.9104081"><ele>389.6666666666667</ele><time>2026-04-25T11:52:04.286Z</time></trkpt><trkpt lat="41.6763873" lon="12.9106394"><ele>394.33333333333337</ele><time>2026-04-25T11:52:05.284Z</time></trkpt><trkpt lat="41.6762737" lon="12.9108597"><ele>399.0</ele><time>2026-04-25T11:52:06.275Z</time></trkpt><trkpt lat="41.6761628" lon="12.91106"><ele>400.33333333333337</ele><time>2026-04-25T11:52:07.278Z</time></trkpt><trkpt lat="41.6760428" lon="12.9112477"><ele>401.6666666666667</ele><time>2026-04-25T11:52:08.274Z</time></trkpt><trkpt lat="41.6759181" lon="12.9114249"><ele>403.0</ele><time>2026-04-25T11:52:09.28Z</time></trkpt><trkpt lat="41.6757942" lon="12.9115789"><ele>403.0</ele><time>2026-04-25T11:52:10.274Z</time></trkpt><trkpt lat="41.6756855" lon="12.9117288"><ele>403.0</ele><time>2026-04-25T11:52:11.286Z</time></trkpt><trkpt lat="41.6755864" lon="12.9119037"><ele>403.0</ele><time>2026-04-25T11:52:12.279Z</time></trkpt><trkpt lat="41.6754865" lon="12.9121166"><ele>406.6666666666667</ele><time>2026-04-25T11:52:13.283Z</time></trkpt><trkpt lat="41.6753838" lon="12.9123638"><ele>410.33333333333337</ele><time>2026-04-25T11:52:14.277Z</time></trkpt><trkpt lat="41.6752909" lon="12.912593"><ele>414.0</ele><time>2026-04-25T11:52:15.287Z</time></trkpt><trkpt lat="41.6751956" lon="12.9127953"><ele>414.0</ele><time>2026-04-25T11:52:16.278Z</time></trkpt><trkpt lat="41.6750853" lon="12.9129799"><ele>414.0</ele><time>2026-04-25T11:52:17.287Z</time></trkpt><trkpt lat="41.6749656" lon="12.913139"><ele>414.0</ele><time>2026-04-25T11:52:18.279Z</time></trkpt><trkpt lat="41.6748571" lon="12.91327"><ele>414.0</ele><time>2026-04-25T11:52:19.285Z</time></trkpt><trkpt lat="41.6747632" lon="12.9133906"><ele>414.0</ele><time>2026-04-25T11:52:20.279Z</time></trkpt><trkpt lat="41.6746879" lon="12.9135053"><ele>414.0</ele><time>2026-04-25T11:52:21.286Z</time></trkpt><trkpt lat="41.6746247" lon="12.9136053"><ele>414.0</ele><time>2026-04-25T11:52:22.28Z</time></trkpt><trkpt lat="41.6745895" lon="12.9137169"><ele>414.0</ele><time>2026-04-25T11:52:23.28Z</time></trkpt><trkpt lat="41.6745877" lon="12.9138253"><ele>416.0</ele><time>2026-04-25T11:52:24.278Z</time></trkpt><trkpt lat="41.6746118" lon="12.9139309"><ele>418.0</ele><time>2026-04-25T11:52:25.281Z</time></trkpt><trkpt lat="41.6746579" lon="12.9140158"><ele>420.0</ele><time>2026-04-25T11:52:26.275Z</time></trkpt><trkpt lat="41.6747303" lon="12.9140601"><ele>422.0</ele><time>2026-04-25T11:52:27.28Z</time></trkpt><trkpt lat="41.6748134" lon="12.9140458"><ele>424.0</ele><time>2026-04-25T11:52:28.276Z</time></trkpt><trkpt lat="41.6748991" lon="12.9139743"><ele>426.0</ele><time>2026-04-25T11:52:29.276Z</time></trkpt><trkpt lat="41.6749784" lon="12.9138536"><ele>426.0</ele><time>2026-04-25T11:52:30.274Z</time></trkpt><trkpt lat="41.6750686" lon="12.913699"><ele>426.0</ele><time>2026-04-25T11:52:31.277Z</time></trkpt><trkpt lat="41.6751764" lon="12.9135461"><ele>426.0</ele><time>2026-04-25T11:52:32.281Z</time></trkpt><trkpt lat="41.6752821" lon="12.9134195"><ele>426.0</ele><time>2026-04-25T11:52:33.276Z</time></trkpt><trkpt lat="41.6753914" lon="12.913305"><ele>427.5</ele><time>2026-04-25T11:52:34.275Z</time></trkpt><trkpt lat="41.6754997" lon="12.9131935"><ele>429.0</ele><time>2026-04-25T11:52:35.272Z</time></trkpt><trkpt lat="41.6756072" lon="12.9130822"><ele>430.5</ele><time>2026-04-25T11:52:36.276Z</time></trkpt><trkpt lat="41.6757144" lon="12.9129746"><ele>432.0</ele><time>2026-04-25T11:52:37.275Z</time></trkpt><trkpt lat="41.6758259" lon="12.9128575"><ele>432.0</ele><time>2026-04-25T11:52:38.281Z</time></trkpt><trkpt lat="41.6759481" lon="12.9127449"><ele>432.0</ele><time>2026-04-25T11:52:39.286Z</time></trkpt><trkpt lat="41.6760847" lon="12.912644"><ele>432.0</ele><time>2026-04-25T11:52:40.292Z</time></trkpt><trkpt lat="41.6762494" lon="12.9125607"><ele>431.66666666666663</ele><time>2026-04-25T11:52:41.279Z</time></trkpt><trkpt lat="41.676438" lon="12.9124935"><ele>431.3333333333333</ele><time>2026-04-25T11:52:42.288Z</time></trkpt><trkpt lat="41.6766265" lon="12.9124354"><ele>431.0</ele><time>2026-04-25T11:52:43.278Z</time></trkpt><trkpt lat="41.6767983" lon="12.9123825"><ele>436.3333333333333</ele><time>2026-04-25T11:52:44.287Z</time></trkpt><trkpt lat="41.6769625" lon="12.9123159"><ele>441.66666666666663</ele><time>2026-04-25T11:52:45.279Z</time></trkpt><trkpt lat="41.6771309" lon="12.9122024"><ele>447.0</ele><time>2026-04-25T11:52:46.275Z</time></trkpt><trkpt lat="41.6773021" lon="12.9120723"><ele>447.0</ele><time>2026-04-25T11:52:47.28Z</time></trkpt><trkpt lat="41.6774653" lon="12.9119411"><ele>447.0</ele><time>2026-04-25T11:52:48.279Z</time></trkpt><trkpt lat="41.6776231" lon="12.9117895"><ele>447.0</ele><time>2026-04-25T11:52:49.275Z</time></trkpt><trkpt lat="41.6777688" lon="12.9116114"><ele>449.66666666666663</ele><time>2026-04-25T11:52:50.274Z</time></trkpt><trkpt lat="41.6778993" lon="12.9114411"><ele>452.3333333333333</ele><time>2026-04-25T11:52:51.276Z</time></trkpt><trkpt lat="41.6780279" lon="12.9112869"><ele>455.0</ele><time>2026-04-25T11:52:52.282Z</time></trkpt><trkpt lat="41.6781586" lon="12.9111515"><ele>455.0</ele><time>2026-04-25T11:52:53.279Z</time></trkpt><trkpt lat="41.6782741" lon="12.9110526"><ele>455.0</ele><time>2026-04-25T11:52:54.278Z</time></trkpt><trkpt lat="41.6783907" lon="12.9109692"><ele>455.0</ele><time>2026-04-25T11:52:55.28Z</time></trkpt><trkpt lat="41.6785411" lon="12.9109068"><ele>455.0</ele><time>2026-04-25T11:52:56.279Z</time></trkpt><trkpt lat="41.6787006" lon="12.9108596"><ele>454.66666666666663</ele><time>2026-04-25T11:52:57.273Z</time></trkpt><trkpt lat="41.6788644" lon="12.9107871"><ele>454.33333333333337</ele><time>2026-04-25T11:52:58.285Z</time></trkpt><trkpt lat="41.679031" lon="12.9106755"><ele>454.0</ele><time>2026-04-25T11:52:59.283Z</time></trkpt><trkpt lat="41.6791911" lon="12.9105544"><ele>454.0</ele><time>2026-04-25T11:53:00.28Z</time></trkpt><trkpt lat="41.6793602" lon="12.9104446"><ele>454.0</ele><time>2026-04-25T11:53:01.283Z</time></trkpt><trkpt lat="41.679549" lon="12.9103418"><ele>454.0</ele><time>2026-04-25T11:53:02.277Z</time></trkpt><trkpt lat="41.6797467" lon="12.9102479"><ele>457.0</ele><time>2026-04-25T11:53:03.294Z</time></trkpt><trkpt lat="41.6799586" lon="12.9101628"><ele>460.0</ele><time>2026-04-25T11:53:04.286Z</time></trkpt><trkpt lat="41.6801706" lon="12.9100837"><ele>463.0</ele><time>2026-04-25T11:53:05.278Z</time></trkpt><trkpt lat="41.6803742" lon="12.9100085"><ele>463.0</ele><time>2026-04-25T11:53:06.282Z</time></trkpt><trkpt lat="41.6805553" lon="12.9099283"><ele>463.0</ele><time>2026-04-25T11:53:07.279Z</time></trkpt><trkpt lat="41.6807281" lon="12.9098475"><ele>463.0</ele><time>2026-04-25T11:53:08.277Z</time></trkpt><trkpt lat="41.6808881" lon="12.9097669"><ele>463.0</ele><time>2026-04-25T11:53:09.278Z</time></trkpt><trkpt lat="41.6810245" lon="12.9096901"><ele>463.0</ele><time>2026-04-25T11:53:10.279Z</time></trkpt><trkpt lat="41.6811566" lon="12.9096192"><ele>463.0</ele><time>2026-04-25T11:53:11.277Z</time></trkpt><trkpt lat="41.6812869" lon="12.9095554"><ele>463.0</ele><time>2026-04-25T11:53:12.281Z</time></trkpt><trkpt lat="41.68142" lon="12.9095033"><ele>468.0</ele><time>2026-04-25T11:53:13.28Z</time></trkpt><trkpt lat="41.6815631" lon="12.9094745"><ele>473.0</ele><time>2026-04-25T11:53:14.276Z</time></trkpt><trkpt lat="41.681719" lon="12.909461"><ele>478.0</ele><time>2026-04-25T11:53:15.286Z</time></trkpt><trkpt lat="41.681881" lon="12.9094583"><ele>477.0</ele><time>2026-04-25T11:53:16.278Z</time></trkpt><trkpt lat="41.6820423" lon="12.9094575"><ele>476.0</ele><time>2026-04-25T11:53:17.275Z</time></trkpt><trkpt lat="41.6821619" lon="12.9094648"><ele>475.0</ele><time>2026-04-25T11:53:18.278Z</time></trkpt><trkpt lat="41.6822636" lon="12.9094854"><ele>474.0</ele><time>2026-04-25T11:53:19.277Z</time></trkpt><trkpt lat="41.6823607" lon="12.9095226"><ele>474.0</ele><time>2026-04-25T11:53:20.28Z</time></trkpt><trkpt lat="41.6824639" lon="12.9096025"><ele>474.0</ele><time>2026-04-25T11:53:21.278Z</time></trkpt><trkpt lat="41.6825736" lon="12.9097259"><ele>474.0</ele><time>2026-04-25T11:53:22.278Z</time></trkpt><trkpt lat="41.6826809" lon="12.9098592"><ele>474.0</ele><time>2026-04-25T11:53:23.282Z</time></trkpt><trkpt lat="41.6828016" lon="12.9100555"><ele>472.75</ele><time>2026-04-25T11:53:24.276Z</time></trkpt><trkpt lat="41.6829186" lon="12.9102599"><ele>471.5</ele><time>2026-04-25T11:53:25.28Z</time></trkpt><trkpt lat="41.6830157" lon="12.9104095"><ele>470.25</ele><time>2026-04-25T11:53:26.276Z</time></trkpt><trkpt lat="41.6830809" lon="12.9105036"><ele>469.0</ele><time>2026-04-25T11:53:27.278Z</time></trkpt><trkpt lat="41.6831194" lon="12.910586"><ele>469.00000000000006</ele><time>2026-04-25T11:53:28.326Z</time></trkpt><trkpt lat="41.6831278" lon="12.9106718"><ele>469.0</ele><time>2026-04-25T11:53:29.281Z</time></trkpt><trkpt lat="41.6830999" lon="12.9107611"><ele>469.0</ele><time>2026-04-25T11:53:30.276Z</time></trkpt><trkpt lat="41.6830418" lon="12.9108336"><ele>469.0</ele><time>2026-04-25T11:53:31.277Z</time></trkpt><trkpt lat="41.6829591" lon="12.910858"><ele>469.00000000000006</ele><time>2026-04-25T11:53:32.275Z</time></trkpt><trkpt lat="41.6828841" lon="12.9108257"><ele>469.0</ele><time>2026-04-25T11:53:33.279Z</time></trkpt><trkpt lat="41.6828364" lon="12.9107527"><ele>469.0</ele><time>2026-04-25T11:53:34.276Z</time></trkpt><trkpt lat="41.6827959" lon="12.9106438"><ele>469.0</ele><time>2026-04-25T11:53:35.272Z</time></trkpt><trkpt lat="41.6827362" lon="12.9105163"><ele>469.0</ele><time>2026-04-25T11:53:36.277Z</time></trkpt><trkpt lat="41.6826627" lon="12.9104116"><ele>469.0</ele><time>2026-04-25T11:53:37.277Z</time></trkpt><trkpt lat="41.6825734" lon="12.9103228"><ele>469.0</ele><time>2026-04-25T11:53:38.277Z</time></trkpt><trkpt lat="41.6824525" lon="12.9102626"><ele>474.5</ele><time>2026-04-25T11:53:39.277Z</time></trkpt><trkpt lat="41.6823042" lon="12.9102269"><ele>480.0</ele><time>2026-04-25T11:53:40.279Z</time></trkpt><trkpt lat="41.6821507" lon="12.910212"><ele>485.5</ele><time>2026-04-25T11:53:41.28Z</time></trkpt><trkpt lat="41.6820128" lon="12.9102017"><ele>491.0</ele><time>2026-04-25T11:53:42.278Z</time></trkpt><trkpt lat="41.6818908" lon="12.9101941"><ele>494.25</ele><time>2026-04-25T11:53:43.282Z</time></trkpt><trkpt lat="41.6817789" lon="12.9102026"><ele>497.5</ele><time>2026-04-25T11:53:44.275Z</time></trkpt><trkpt lat="41.6816707" lon="12.9102362"><ele>500.75</ele><time>2026-04-25T11:53:45.278Z</time></trkpt><trkpt lat="41.6815514" lon="12.9103111"><ele>504.0</ele><time>2026-04-25T11:53:46.274Z</time></trkpt><trkpt lat="41.6814129" lon="12.910427"><ele>504.0</ele><time>2026-04-25T11:53:47.281Z</time></trkpt><trkpt lat="41.6812389" lon="12.9105724"><ele>504.0</ele><time>2026-04-25T11:53:48.275Z</time></trkpt><trkpt lat="41.6810071" lon="12.9107369"><ele>497.5</ele><time>2026-04-25T11:53:49.279Z</time></trkpt><trkpt lat="41.6807708" lon="12.9109014"><ele>491.0</ele><time>2026-04-25T11:53:50.276Z</time></trkpt><trkpt lat="41.6805609" lon="12.9110476"><ele>496.0</ele><time>2026-04-25T11:53:51.277Z</time></trkpt><trkpt lat="41.6803414" lon="12.9112115"><ele>501.0</ele><time>2026-04-25T11:53:52.28Z</time></trkpt><trkpt lat="41.680201" lon="12.911311"><ele>506.0</ele><time>2026-04-25T11:53:53.286Z</time></trkpt><trkpt lat="41.6800485" lon="12.9114245"><ele>506.0</ele><time>2026-04-25T11:53:54.276Z</time></trkpt><trkpt lat="41.6799285" lon="12.9115141"><ele>506.0</ele><time>2026-04-25T11:53:55.274Z</time></trkpt><trkpt lat="41.6798173" lon="12.9115831"><ele>506.0</ele><time>2026-04-25T11:53:56.282Z</time></trkpt><trkpt lat="41.6797247" lon="12.9116362"><ele>506.0</ele><time>2026-04-25T11:53:57.284Z</time></trkpt><trkpt lat="41.6796586" lon="12.9116836"><ele>506.0</ele><time>2026-04-25T11:53:58.277Z</time></trkpt><trkpt lat="41.6796153" lon="12.9117467"><ele>506.0</ele><time>2026-04-25T11:53:59.285Z</time></trkpt><trkpt lat="41.6796434" lon="12.9118718"><ele>506.0</ele><time>2026-04-25T11:54:01.278Z</time></trkpt><trkpt lat="41.6797645" lon="12.9118497"><ele>506.0</ele><time>2026-04-25T11:54:03.279Z</time></trkpt><trkpt lat="41.6798332" lon="12.9117701"><ele>506.0</ele><time>2026-04-25T11:54:04.277Z</time></trkpt><trkpt lat="41.6799138" lon="12.911678"><ele>506.0</ele><time>2026-04-25T11:54:05.283Z</time></trkpt><trkpt lat="41.6800384" lon="12.9115824"><ele>506.0</ele><time>2026-04-25T11:54:06.277Z</time></trkpt><trkpt lat="41.6801945" lon="12.9114782"><ele>506.0</ele><time>2026-04-25T11:54:07.281Z</time></trkpt><trkpt lat="41.6803631" lon="12.9113837"><ele>506.0</ele><time>2026-04-25T11:54:08.28Z</time></trkpt><trkpt lat="41.680533" lon="12.9113117"><ele>510.66666666666663</ele><time>2026-04-25T11:54:09.278Z</time></trkpt><trkpt lat="41.6807027" lon="12.9112527"><ele>515.3333333333334</ele><time>2026-04-25T11:54:10.278Z</time></trkpt><trkpt lat="41.6808816" lon="12.9111998"><ele>520.0</ele><time>2026-04-25T11:54:11.291Z</time></trkpt><trkpt lat="41.6810557" lon="12.9111592"><ele>520.3333333333334</ele><time>2026-04-25T11:54:12.296Z</time></trkpt><trkpt lat="41.6812184" lon="12.911135"><ele>520.6666666666666</ele><time>2026-04-25T11:54:13.28Z</time></trkpt><trkpt lat="41.6813716" lon="12.9111376"><ele>521.0</ele><time>2026-04-25T11:54:14.285Z</time></trkpt><trkpt lat="41.6815212" lon="12.9111589"><ele>521.0</ele><time>2026-04-25T11:54:15.28Z</time></trkpt><trkpt lat="41.6816592" lon="12.9111921"><ele>521.0</ele><time>2026-04-25T11:54:16.291Z</time></trkpt><trkpt lat="41.68177" lon="12.9112581"><ele>521.0</ele><time>2026-04-25T11:54:17.283Z</time></trkpt><trkpt lat="41.6818789" lon="12.9113453"><ele>521.0</ele><time>2026-04-25T11:54:18.278Z</time></trkpt><trkpt lat="41.6819873" lon="12.9114621"><ele>519.75</ele><time>2026-04-25T11:54:19.281Z</time></trkpt><trkpt lat="41.6820939" lon="12.9116084"><ele>518.5</ele><time>2026-04-25T11:54:20.282Z</time></trkpt><trkpt lat="41.6821822" lon="12.911775"><ele>517.25</ele><time>2026-04-25T11:54:21.288Z</time></trkpt><trkpt lat="41.6822597" lon="12.9119153"><ele>516.0</ele><time>2026-04-25T11:54:22.278Z</time></trkpt><trkpt lat="41.6823307" lon="12.9120547"><ele>516.0</ele><time>2026-04-25T11:54:23.281Z</time></trkpt><trkpt lat="41.6823873" lon="12.9122157"><ele>516.0</ele><time>2026-04-25T11:54:24.277Z</time></trkpt><trkpt lat="41.6824227" lon="12.9123928"><ele>516.0</ele><time>2026-04-25T11:54:25.282Z</time></trkpt><trkpt lat="41.6824448" lon="12.9125808"><ele>516.0</ele><time>2026-04-25T11:54:26.287Z</time></trkpt><trkpt lat="41.6824557" lon="12.9127835"><ele>517.6666666666666</ele><time>2026-04-25T11:54:27.289Z</time></trkpt><trkpt lat="41.6824563" lon="12.9129995"><ele>519.3333333333333</ele><time>2026-04-25T11:54:28.282Z</time></trkpt><trkpt lat="41.6824489" lon="12.9132283"><ele>521.0</ele><time>2026-04-25T11:54:29.281Z</time></trkpt><trkpt lat="41.6824386" lon="12.9134688"><ele>522.0</ele><time>2026-04-25T11:54:30.276Z</time></trkpt><trkpt lat="41.6824242" lon="12.9137167"><ele>523.0</ele><time>2026-04-25T11:54:31.28Z</time></trkpt><trkpt lat="41.6824066" lon="12.9139655"><ele>524.0</ele><time>2026-04-25T11:54:32.284Z</time></trkpt><trkpt lat="41.6823858" lon="12.9142145"><ele>525.3333333333333</ele><time>2026-04-25T11:54:33.28Z</time></trkpt><trkpt lat="41.6823611" lon="12.9144587"><ele>526.6666666666666</ele><time>2026-04-25T11:54:34.279Z</time></trkpt><trkpt lat="41.6823339" lon="12.9146951"><ele>528.0</ele><time>2026-04-25T11:54:35.288Z</time></trkpt><trkpt lat="41.682297" lon="12.9149244"><ele>530.3333333333334</ele><time>2026-04-25T11:54:36.289Z</time></trkpt><trkpt lat="41.6822611" lon="12.9151486"><ele>532.6666666666667</ele><time>2026-04-25T11:54:37.281Z</time></trkpt><trkpt lat="41.6822257" lon="12.9153725"><ele>535.0</ele><time>2026-04-25T11:54:38.283Z</time></trkpt><trkpt lat="41.682201" lon="12.9155964"><ele>535.0</ele><time>2026-04-25T11:54:39.284Z</time></trkpt><trkpt lat="41.682184" lon="12.9158002"><ele>535.0</ele><time>2026-04-25T11:54:40.288Z</time></trkpt><trkpt lat="41.6821803" lon="12.9159752"><ele>535.0</ele><time>2026-04-25T11:54:41.281Z</time></trkpt><trkpt lat="41.682181" lon="12.9161274"><ele>535.0</ele><time>2026-04-25T11:54:42.286Z</time></trkpt><trkpt lat="41.6821913" lon="12.9162544"><ele>538.6</ele><time>2026-04-25T11:54:43.284Z</time></trkpt><trkpt lat="41.6822281" lon="12.9163603"><ele>542.2</ele><time>2026-04-25T11:54:44.285Z</time></trkpt><trkpt lat="41.6822936" lon="12.9164486"><ele>545.8</ele><time>2026-04-25T11:54:45.279Z</time></trkpt><trkpt lat="41.6823879" lon="12.9164988"><ele>549.4</ele><time>2026-04-25T11:54:46.283Z</time></trkpt><trkpt lat="41.6825064" lon="12.9165277"><ele>553.0</ele><time>2026-04-25T11:54:47.279Z</time></trkpt><trkpt lat="41.6826431" lon="12.9165617"><ele>552.3333333333334</ele><time>2026-04-25T11:54:48.278Z</time></trkpt><trkpt lat="41.6828005" lon="12.9166174"><ele>551.6666666666666</ele><time>2026-04-25T11:54:49.283Z</time></trkpt><trkpt lat="41.6829591" lon="12.9166628"><ele>551.0</ele><time>2026-04-25T11:54:50.284Z</time></trkpt><trkpt lat="41.6831281" lon="12.9166845"><ele>551.0</ele><time>2026-04-25T11:54:51.277Z</time></trkpt><trkpt lat="41.683306" lon="12.9166808"><ele>551.0</ele><time>2026-04-25T11:54:52.28Z</time></trkpt><trkpt lat="41.6834944" lon="12.916658"><ele>551.0</ele><time>2026-04-25T11:54:53.276Z</time></trkpt><trkpt lat="41.6836788" lon="12.9166277"><ele>554.3333333333333</ele><time>2026-04-25T11:54:54.278Z</time></trkpt><trkpt lat="41.6838477" lon="12.9166055"><ele>557.6666666666666</ele><time>2026-04-25T11:54:55.28Z</time></trkpt><trkpt lat="41.6840064" lon="12.9165766"><ele>561.0</ele><time>2026-04-25T11:54:56.279Z</time></trkpt><trkpt lat="41.684164" lon="12.9165415"><ele>561.0</ele><time>2026-04-25T11:54:57.279Z</time></trkpt><trkpt lat="41.6842967" lon="12.9164983"><ele>561.0</ele><time>2026-04-25T11:54:58.276Z</time></trkpt><trkpt lat="41.6844134" lon="12.9164604"><ele>561.0</ele><time>2026-04-25T11:54:59.279Z</time></trkpt><trkpt lat="41.6845176" lon="12.9164337"><ele>561.0</ele><time>2026-04-25T11:55:00.279Z</time></trkpt><trkpt lat="41.68461" lon="12.9164357"><ele>560.8</ele><time>2026-04-25T11:55:01.278Z</time></trkpt><trkpt lat="41.6847038" lon="12.9164758"><ele>560.6</ele><time>2026-04-25T11:55:02.279Z</time></trkpt><trkpt lat="41.6847882" lon="12.9165413"><ele>560.4</ele><time>2026-04-25T11:55:03.278Z</time></trkpt><trkpt lat="41.6848609" lon="12.9166367"><ele>560.2</ele><time>2026-04-25T11:55:04.282Z</time></trkpt><trkpt lat="41.6849271" lon="12.9167706"><ele>560.0</ele><time>2026-04-25T11:55:05.277Z</time></trkpt><trkpt lat="41.6849904" lon="12.9169263"><ele>563.5</ele><time>2026-04-25T11:55:06.275Z</time></trkpt><trkpt lat="41.6850478" lon="12.9170959"><ele>567.0</ele><time>2026-04-25T11:55:07.279Z</time></trkpt><trkpt lat="41.6851008" lon="12.9172487"><ele>570.5</ele><time>2026-04-25T11:55:08.28Z</time></trkpt><trkpt lat="41.6851465" lon="12.9173831"><ele>574.0</ele><time>2026-04-25T11:55:09.277Z</time></trkpt><trkpt lat="41.6851727" lon="12.9175175"><ele>574.25</ele><time>2026-04-25T11:55:10.28Z</time></trkpt><trkpt lat="41.6851685" lon="12.9176688"><ele>574.5</ele><time>2026-04-25T11:55:11.289Z</time></trkpt><trkpt lat="41.6851378" lon="12.9178463"><ele>574.75</ele><time>2026-04-25T11:55:12.277Z</time></trkpt><trkpt lat="41.6850987" lon="12.9180342"><ele>575.0</ele><time>2026-04-25T11:55:13.286Z</time></trkpt><trkpt lat="41.6850611" lon="12.9182214"><ele>575.0</ele><time>2026-04-25T11:55:14.277Z</time></trkpt><trkpt lat="41.6850232" lon="12.9184001"><ele>575.0</ele><time>2026-04-25T11:55:15.278Z</time></trkpt><trkpt lat="41.6849832" lon="12.9185805"><ele>575.0</ele><time>2026-04-25T11:55:16.276Z</time></trkpt><trkpt lat="41.6849241" lon="12.9187625"><ele>575.0</ele><time>2026-04-25T11:55:17.278Z</time></trkpt><trkpt lat="41.6848669" lon="12.9189613"><ele>573.0</ele><time>2026-04-25T11:55:18.272Z</time></trkpt><trkpt lat="41.684791" lon="12.9191563"><ele>571.0</ele><time>2026-04-25T11:55:19.28Z</time></trkpt><trkpt lat="41.6847137" lon="12.9193328"><ele>569.0</ele><time>2026-04-25T11:55:20.293Z</time></trkpt><trkpt lat="41.6846181" lon="12.9195065"><ele>567.6666666666666</ele><time>2026-04-25T11:55:21.28Z</time></trkpt><trkpt lat="41.6845155" lon="12.9196722"><ele>566.3333333333334</ele><time>2026-04-25T11:55:22.281Z</time></trkpt><trkpt lat="41.6844092" lon="12.9198205"><ele>565.0</ele><time>2026-04-25T11:55:23.278Z</time></trkpt><trkpt lat="41.6843069" lon="12.9199639"><ele>572.25</ele><time>2026-04-25T11:55:24.28Z</time></trkpt><trkpt lat="41.6842267" lon="12.9201008"><ele>579.5</ele><time>2026-04-25T11:55:25.28Z</time></trkpt><trkpt lat="41.6841699" lon="12.9202381"><ele>586.75</ele><time>2026-04-25T11:55:26.279Z</time></trkpt><trkpt lat="41.684134" lon="12.9203879"><ele>594.0</ele><time>2026-04-25T11:55:27.277Z</time></trkpt><trkpt lat="41.6841206" lon="12.9205345"><ele>594.0</ele><time>2026-04-25T11:55:28.278Z</time></trkpt><trkpt lat="41.6841275" lon="12.9206819"><ele>594.0</ele><time>2026-04-25T11:55:29.287Z</time></trkpt><trkpt lat="41.6841574" lon="12.9208081"><ele>594.0</ele><time>2026-04-25T11:55:30.281Z</time></trkpt><trkpt lat="41.6842161" lon="12.9209161"><ele>594.0</ele><time>2026-04-25T11:55:31.289Z</time></trkpt><trkpt lat="41.6842953" lon="12.9209966"><ele>594.0</ele><time>2026-04-25T11:55:32.278Z</time></trkpt><trkpt lat="41.6843868" lon="12.9210344"><ele>593.6</ele><time>2026-04-25T11:55:33.29Z</time></trkpt><trkpt lat="41.6844819" lon="12.9210337"><ele>593.2</ele><time>2026-04-25T11:55:34.28Z</time></trkpt><trkpt lat="41.6845792" lon="12.9210579"><ele>592.8000000000001</ele><time>2026-04-25T11:55:35.278Z</time></trkpt><trkpt lat="41.6846475" lon="12.9211223"><ele>592.4</ele><time>2026-04-25T11:55:36.288Z</time></trkpt><trkpt lat="41.6847102" lon="12.9212344"><ele>592.0</ele><time>2026-04-25T11:55:37.282Z</time></trkpt><trkpt lat="41.6847569" lon="12.9213811"><ele>592.0</ele><time>2026-04-25T11:55:38.292Z</time></trkpt><trkpt lat="41.6847858" lon="12.9215302"><ele>592.0</ele><time>2026-04-25T11:55:39.279Z</time></trkpt><trkpt lat="41.6847842" lon="12.9216625"><ele>592.0</ele><time>2026-04-25T11:55:40.292Z</time></trkpt><trkpt lat="41.6847537" lon="12.9218103"><ele>592.0</ele><time>2026-04-25T11:55:41.28Z</time></trkpt><trkpt lat="41.6846951" lon="12.9219616"><ele>590.8000000000001</ele><time>2026-04-25T11:55:42.282Z</time></trkpt><trkpt lat="41.6846251" lon="12.9220975"><ele>589.6</ele><time>2026-04-25T11:55:43.279Z</time></trkpt><trkpt lat="41.6845601" lon="12.9222107"><ele>588.4000000000001</ele><time>2026-04-25T11:55:44.289Z</time></trkpt><trkpt lat="41.6844833" lon="12.9222932"><ele>587.2</ele><time>2026-04-25T11:55:45.288Z</time></trkpt><trkpt lat="41.6844072" lon="12.9223343"><ele>586.0</ele><time>2026-04-25T11:55:46.289Z</time></trkpt><trkpt lat="41.6843139" lon="12.9223422"><ele>588.8</ele><time>2026-04-25T11:55:47.276Z</time></trkpt><trkpt lat="41.6842177" lon="12.9223133"><ele>591.6</ele><time>2026-04-25T11:55:48.281Z</time></trkpt><trkpt lat="41.6841292" lon="12.9222702"><ele>594.4</ele><time>2026-04-25T11:55:49.281Z</time></trkpt><trkpt lat="41.684047" lon="12.9222037"><ele>597.2</ele><time>2026-04-25T11:55:50.281Z</time></trkpt><trkpt lat="41.6839478" lon="12.9221794"><ele>600.0</ele><time>2026-04-25T11:55:51.278Z</time></trkpt><trkpt lat="41.6838406" lon="12.9221898"><ele>600.0</ele><time>2026-04-25T11:55:52.277Z</time></trkpt><trkpt lat="41.6837299" lon="12.9222385"><ele>600.0</ele><time>2026-04-25T11:55:53.278Z</time></trkpt><trkpt lat="41.6836296" lon="12.9223074"><ele>600.0</ele><time>2026-04-25T11:55:54.276Z</time></trkpt><trkpt lat="41.683551" lon="12.9223959"><ele>600.0</ele><time>2026-04-25T11:55:55.279Z</time></trkpt><trkpt lat="41.6835009" lon="12.9225206"><ele>600.0</ele><time>2026-04-25T11:55:56.282Z</time></trkpt><trkpt lat="41.6834749" lon="12.9226636"><ele>602.2</ele><time>2026-04-25T11:55:57.278Z</time></trkpt><trkpt lat="41.6834559" lon="12.9228015"><ele>604.4</ele><time>2026-04-25T11:55:58.28Z</time></trkpt><trkpt lat="41.68341" lon="12.9229306"><ele>606.6</ele><time>2026-04-25T11:55:59.28Z</time></trkpt><trkpt lat="41.6833498" lon="12.9230567"><ele>608.8</ele><time>2026-04-25T11:56:00.276Z</time></trkpt><trkpt lat="41.6832365" lon="12.9231266"><ele>611.0</ele><time>2026-04-25T11:56:01.287Z</time></trkpt><trkpt lat="41.6831267" lon="12.9231827"><ele>611.0</ele><time>2026-04-25T11:56:02.277Z</time></trkpt><trkpt lat="41.6829897" lon="12.9232236"><ele>611.0</ele><time>2026-04-25T11:56:03.277Z</time></trkpt><trkpt lat="41.6828588" lon="12.9232697"><ele>611.0</ele><time>2026-04-25T11:56:04.276Z</time></trkpt><trkpt lat="41.6827355" lon="12.9233067"><ele>611.0</ele><time>2026-04-25T11:56:05.28Z</time></trkpt><trkpt lat="41.6826129" lon="12.9233418"><ele>612.6</ele><time>2026-04-25T11:56:06.285Z</time></trkpt><trkpt lat="41.6825022" lon="12.9233617"><ele>614.2</ele><time>2026-04-25T11:56:07.284Z</time></trkpt><trkpt lat="41.6823989" lon="12.9233646"><ele>615.8</ele><time>2026-04-25T11:56:08.288Z</time></trkpt><trkpt lat="41.6823082" lon="12.9232985"><ele>617.4</ele><time>2026-04-25T11:56:09.279Z</time></trkpt><trkpt lat="41.6822003" lon="12.9232098"><ele>619.0</ele><time>2026-04-25T11:56:10.278Z</time></trkpt><trkpt lat="41.6820935" lon="12.9231169"><ele>619.0</ele><time>2026-04-25T11:56:11.281Z</time></trkpt><trkpt lat="41.6819771" lon="12.9230458"><ele>619.0</ele><time>2026-04-25T11:56:12.278Z</time></trkpt><trkpt lat="41.6818546" lon="12.9230035"><ele>619.0</ele><time>2026-04-25T11:56:13.281Z</time></trkpt><trkpt lat="41.6817508" lon="12.9229847"><ele>619.0</ele><time>2026-04-25T11:56:14.28Z</time></trkpt><trkpt lat="41.6816561" lon="12.9229657"><ele>618.3333333333334</ele><time>2026-04-25T11:56:15.28Z</time></trkpt><trkpt lat="41.6815777" lon="12.9229088"><ele>617.6666666666667</ele><time>2026-04-25T11:56:16.287Z</time></trkpt><trkpt lat="41.6815208" lon="12.9228255"><ele>617.0</ele><time>2026-04-25T11:56:17.277Z</time></trkpt><trkpt lat="41.681501" lon="12.9227291"><ele>616.3333333333334</ele><time>2026-04-25T11:56:18.28Z</time></trkpt><trkpt lat="41.6815236" lon="12.9226386"><ele>615.6666666666666</ele><time>2026-04-25T11:56:19.278Z</time></trkpt><trkpt lat="41.6815724" lon="12.9225789"><ele>615.0</ele><time>2026-04-25T11:56:20.281Z</time></trkpt><trkpt lat="41.6816535" lon="12.9225587"><ele>615.0</ele><time>2026-04-25T11:56:21.279Z</time></trkpt><trkpt lat="41.6817505" lon="12.922574"><ele>615.0</ele><time>2026-04-25T11:56:22.277Z</time></trkpt><trkpt lat="41.6818644" lon="12.9226143"><ele>615.0</ele><time>2026-04-25T11:56:23.278Z</time></trkpt><trkpt lat="41.6819765" lon="12.9226434"><ele>615.0</ele><time>2026-04-25T11:56:24.282Z</time></trkpt><trkpt lat="41.6820867" lon="12.9226462"><ele>615.0</ele><time>2026-04-25T11:56:25.28Z</time></trkpt><trkpt lat="41.6821887" lon="12.9226158"><ele>618.0</ele><time>2026-04-25T11:56:26.28Z</time></trkpt><trkpt lat="41.6822673" lon="12.9225583"><ele>621.0</ele><time>2026-04-25T11:56:27.282Z</time></trkpt><trkpt lat="41.6823367" lon="12.9224603"><ele>624.0</ele><time>2026-04-25T11:56:28.282Z</time></trkpt><trkpt lat="41.6823961" lon="12.9223253"><ele>627.0</ele><time>2026-04-25T11:56:29.28Z</time></trkpt><trkpt lat="41.6824466" lon="12.9221691"><ele>630.0</ele><time>2026-04-25T11:56:30.276Z</time></trkpt><trkpt lat="41.6824897" lon="12.9220002"><ele>630.0</ele><time>2026-04-25T11:56:31.278Z</time></trkpt><trkpt lat="41.6825339" lon="12.921845"><ele>630.0</ele><time>2026-04-25T11:56:32.28Z</time></trkpt><trkpt lat="41.6825841" lon="12.9216912"><ele>630.0</ele><time>2026-04-25T11:56:33.278Z</time></trkpt><trkpt lat="41.6826418" lon="12.9215413"><ele>630.0</ele><time>2026-04-25T11:56:34.281Z</time></trkpt><trkpt lat="41.6826991" lon="12.9213901"><ele>628.0</ele><time>2026-04-25T11:56:35.28Z</time></trkpt><trkpt lat="41.6827548" lon="12.9212401"><ele>626.0</ele><time>2026-04-25T11:56:36.276Z</time></trkpt><trkpt lat="41.6828008" lon="12.9210922"><ele>624.0</ele><time>2026-04-25T11:56:37.274Z</time></trkpt><trkpt lat="41.6828341" lon="12.9209348"><ele>622.0</ele><time>2026-04-25T11:56:38.279Z</time></trkpt><trkpt lat="41.682842" lon="12.9207663"><ele>622.0</ele><time>2026-04-25T11:56:39.28Z</time></trkpt><trkpt lat="41.6828245" lon="12.9205806"><ele>622.0</ele><time>2026-04-25T11:56:40.281Z</time></trkpt><trkpt lat="41.6828074" lon="12.9204008"><ele>622.0</ele><time>2026-04-25T11:56:41.291Z</time></trkpt><trkpt lat="41.6827945" lon="12.9202455"><ele>622.0</ele><time>2026-04-25T11:56:42.279Z</time></trkpt><trkpt lat="41.6827754" lon="12.9201082"><ele>630.25</ele><time>2026-04-25T11:56:43.29Z</time></trkpt><trkpt lat="41.6827365" lon="12.9199791"><ele>638.5</ele><time>2026-04-25T11:56:44.279Z</time></trkpt><trkpt lat="41.6826684" lon="12.9198467"><ele>646.75</ele><time>2026-04-25T11:56:45.277Z</time></trkpt><trkpt lat="41.6825727" lon="12.919709"><ele>655.0</ele><time>2026-04-25T11:56:46.283Z</time></trkpt><trkpt lat="41.682465" lon="12.9195739"><ele>655.0</ele><time>2026-04-25T11:56:47.28Z</time></trkpt><trkpt lat="41.682356" lon="12.9194364"><ele>655.0</ele><time>2026-04-25T11:56:48.279Z</time></trkpt><trkpt lat="41.6822594" lon="12.9193036"><ele>655.0</ele><time>2026-04-25T11:56:49.282Z</time></trkpt><trkpt lat="41.6821822" lon="12.91918"><ele>655.0</ele><time>2026-04-25T11:56:50.277Z</time></trkpt><trkpt lat="41.6821015" lon="12.9190849"><ele>656.25</ele><time>2026-04-25T11:56:51.281Z</time></trkpt><trkpt lat="41.6820014" lon="12.9190186"><ele>657.5</ele><time>2026-04-25T11:56:52.279Z</time></trkpt><trkpt lat="41.6818771" lon="12.918988"><ele>658.75</ele><time>2026-04-25T11:56:53.288Z</time></trkpt><trkpt lat="41.6817567" lon="12.9189663"><ele>660.0</ele><time>2026-04-25T11:56:54.278Z</time></trkpt><trkpt lat="41.6816494" lon="12.9189488"><ele>660.0</ele><time>2026-04-25T11:56:55.28Z</time></trkpt><trkpt lat="41.6815583" lon="12.9189316"><ele>660.0</ele><time>2026-04-25T11:56:56.289Z</time></trkpt><trkpt lat="41.681486" lon="12.9189283"><ele>660.0</ele><time>2026-04-25T11:56:57.28Z</time></trkpt><trkpt lat="41.6814043" lon="12.9190239"><ele>660.0</ele><time>2026-04-25T11:56:59.282Z</time></trkpt><trkpt lat="41.6814606" lon="12.9191454"><ele>660.0</ele><time>2026-04-25T11:57:01.281Z</time></trkpt><trkpt lat="41.6815281" lon="12.9191497"><ele>660.0</ele><time>2026-04-25T11:57:02.279Z</time></trkpt><trkpt lat="41.6816053" lon="12.9191336"><ele>660.0</ele><time>2026-04-25T11:57:03.283Z</time></trkpt><trkpt lat="41.681703" lon="12.9191338"><ele>660.0</ele><time>2026-04-25T11:57:04.284Z</time></trkpt><trkpt lat="41.6817918" lon="12.9191483"><ele>660.0</ele><time>2026-04-25T11:57:05.276Z</time></trkpt><trkpt lat="41.6818683" lon="12.9191807"><ele>660.0</ele><time>2026-04-25T11:57:06.29Z</time></trkpt><trkpt lat="41.6819445" lon="12.9192612"><ele>660.0</ele><time>2026-04-25T11:57:07.279Z</time></trkpt><trkpt lat="41.6820155" lon="12.9193832"><ele>658.75</ele><time>2026-04-25T11:57:08.278Z</time></trkpt><trkpt lat="41.6820803" lon="12.9195383"><ele>657.5</ele><time>2026-04-25T11:57:09.287Z</time></trkpt><trkpt lat="41.6821484" lon="12.9197067"><ele>656.25</ele><time>2026-04-25T11:57:10.28Z</time></trkpt><trkpt lat="41.6822087" lon="12.9198754"><ele>655.0</ele><time>2026-04-25T11:57:11.29Z</time></trkpt><trkpt lat="41.6822575" lon="12.9200161"><ele>654.6</ele><time>2026-04-25T11:57:12.278Z</time></trkpt><trkpt lat="41.6822958" lon="12.9201465"><ele>654.2</ele><time>2026-04-25T11:57:13.281Z</time></trkpt><trkpt lat="41.6823064" lon="12.920263"><ele>653.8</ele><time>2026-04-25T11:57:14.28Z</time></trkpt><trkpt lat="41.6822835" lon="12.9203901"><ele>653.4</ele><time>2026-04-25T11:57:15.279Z</time></trkpt><trkpt lat="41.6822288" lon="12.9205096"><ele>653.0</ele><time>2026-04-25T11:57:16.278Z</time></trkpt><trkpt lat="41.6821509" lon="12.9206132"><ele>653.0</ele><time>2026-04-25T11:57:17.279Z</time></trkpt><trkpt lat="41.6820744" lon="12.9207215"><ele>653.0</ele><time>2026-04-25T11:57:18.281Z</time></trkpt><trkpt lat="41.6819886" lon="12.9208254"><ele>653.0</ele><time>2026-04-25T11:57:19.279Z</time></trkpt><trkpt lat="41.6818971" lon="12.9209154"><ele>653.0</ele><time>2026-04-25T11:57:20.277Z</time></trkpt><trkpt lat="41.6818046" lon="12.9209931"><ele>653.5999999999999</ele><time>2026-04-25T11:57:21.279Z</time></trkpt><trkpt lat="41.6817066" lon="12.9210428"><ele>654.1999999999999</ele><time>2026-04-25T11:57:22.281Z</time></trkpt><trkpt lat="41.6816073" lon="12.9210494"><ele>654.8</ele><time>2026-04-25T11:57:23.281Z</time></trkpt><trkpt lat="41.6814783" lon="12.9210395"><ele>655.4</ele><time>2026-04-25T11:57:24.28Z</time></trkpt><trkpt lat="41.6813627" lon="12.9210303"><ele>656.0</ele><time>2026-04-25T11:57:25.281Z</time></trkpt><trkpt lat="41.6812264" lon="12.9210346"><ele>657.0</ele><time>2026-04-25T11:57:26.288Z</time></trkpt><trkpt lat="41.6810709" lon="12.9210571"><ele>658.0</ele><time>2026-04-25T11:57:27.279Z</time></trkpt><trkpt lat="41.6809116" lon="12.921093"><ele>659.0</ele><time>2026-04-25T11:57:28.288Z</time></trkpt><trkpt lat="41.6807614" lon="12.9211285"><ele>659.0</ele><time>2026-04-25T11:57:29.282Z</time></trkpt><trkpt lat="41.6806084" lon="12.9211595"><ele>659.0</ele><time>2026-04-25T11:57:30.279Z</time></trkpt><trkpt lat="41.6804543" lon="12.9211709"><ele>659.0</ele><time>2026-04-25T11:57:31.278Z</time></trkpt><trkpt lat="41.6802986" lon="12.9211719"><ele>664.6666666666666</ele><time>2026-04-25T11:57:32.278Z</time></trkpt><trkpt lat="41.6801293" lon="12.9211911"><ele>670.3333333333334</ele><time>2026-04-25T11:57:33.277Z</time></trkpt><trkpt lat="41.6799542" lon="12.9212258"><ele>676.0</ele><time>2026-04-25T11:57:34.282Z</time></trkpt><trkpt lat="41.6798108" lon="12.9212643"><ele>676.0</ele><time>2026-04-25T11:57:35.278Z</time></trkpt><trkpt lat="41.6796773" lon="12.9212977"><ele>676.0</ele><time>2026-04-25T11:57:36.288Z</time></trkpt><trkpt lat="41.6795504" lon="12.921323"><ele>676.0</ele><time>2026-04-25T11:57:37.278Z</time></trkpt><trkpt lat="41.6794249" lon="12.9213464"><ele>676.0</ele><time>2026-04-25T11:57:38.281Z</time></trkpt><trkpt lat="41.6793065" lon="12.9213808"><ele>679.8</ele><time>2026-04-25T11:57:39.28Z</time></trkpt><trkpt lat="41.6792103" lon="12.9214287"><ele>683.5999999999999</ele><time>2026-04-25T11:57:40.279Z</time></trkpt><trkpt lat="41.6791317" lon="12.9214961"><ele>687.4</ele><time>2026-04-25T11:57:41.277Z</time></trkpt><trkpt lat="41.6790735" lon="12.9215969"><ele>691.2</ele><time>2026-04-25T11:57:42.277Z</time></trkpt><trkpt lat="41.6790437" lon="12.9217002"><ele>695.0</ele><time>2026-04-25T11:57:43.277Z</time></trkpt><trkpt lat="41.6790508" lon="12.9218181"><ele>695.6</ele><time>2026-04-25T11:57:44.277Z</time></trkpt><trkpt lat="41.6790907" lon="12.9219354"><ele>696.2</ele><time>2026-04-25T11:57:45.277Z</time></trkpt><trkpt lat="41.6791579" lon="12.9220423"><ele>696.8</ele><time>2026-04-25T11:57:46.279Z</time></trkpt><trkpt lat="41.6792434" lon="12.9221372"><ele>697.4</ele><time>2026-04-25T11:57:47.281Z</time></trkpt><trkpt lat="41.679341" lon="12.9222143"><ele>698.0</ele><time>2026-04-25T11:57:48.28Z</time></trkpt><trkpt lat="41.6794237" lon="12.9222862"><ele>693.4</ele><time>2026-04-25T11:57:49.278Z</time></trkpt><trkpt lat="41.679494" lon="12.922361"><ele>688.8</ele><time>2026-04-25T11:57:50.28Z</time></trkpt><trkpt lat="41.6795232" lon="12.9224586"><ele>684.2</ele><time>2026-04-25T11:57:51.279Z</time></trkpt><trkpt lat="41.6795169" lon="12.9225696"><ele>679.6</ele><time>2026-04-25T11:57:52.278Z</time></trkpt><trkpt lat="41.6794844" lon="12.9226963"><ele>675.0</ele><time>2026-04-25T11:57:53.281Z</time></trkpt><trkpt lat="41.679437" lon="12.922828"><ele>677.5714285714286</ele><time>2026-04-25T11:57:54.279Z</time></trkpt><trkpt lat="41.6793906" lon="12.9229309"><ele>680.1428571428571</ele><time>2026-04-25T11:57:55.283Z</time></trkpt><trkpt lat="41.6793478" lon="12.923003"><ele>682.7142857142858</ele><time>2026-04-25T11:57:56.282Z</time></trkpt><trkpt lat="41.679278" lon="12.9230306"><ele>685.2857142857142</ele><time>2026-04-25T11:57:57.28Z</time></trkpt><trkpt lat="41.6792017" lon="12.9230277"><ele>687.8571428571429</ele><time>2026-04-25T11:57:58.281Z</time></trkpt><trkpt lat="41.6791454" lon="12.9229829"><ele>690.4285714285714</ele><time>2026-04-25T11:57:59.28Z</time></trkpt><trkpt lat="41.67911" lon="12.9228977"><ele>693.0</ele><time>2026-04-25T11:58:00.28Z</time></trkpt><trkpt lat="41.6790901" lon="12.9227907"><ele>693.0</ele><time>2026-04-25T11:58:01.282Z</time></trkpt><trkpt lat="41.6790826" lon="12.9226603"><ele>693.0</ele><time>2026-04-25T11:58:02.281Z</time></trkpt><trkpt lat="41.6790722" lon="12.9225184"><ele>693.0</ele><time>2026-04-25T11:58:03.283Z</time></trkpt><trkpt lat="41.6790425" lon="12.9224006"><ele>693.0</ele><time>2026-04-25T11:58:04.283Z</time></trkpt><trkpt lat="41.6789914" lon="12.922315"><ele>693.0</ele><time>2026-04-25T11:58:05.278Z</time></trkpt><trkpt lat="41.6789283" lon="12.9222725"><ele>693.0</ele><time>2026-04-25T11:58:06.277Z</time></trkpt><trkpt lat="41.6788656" lon="12.922281"><ele>693.0</ele><time>2026-04-25T11:58:07.28Z</time></trkpt><trkpt lat="41.6788129" lon="12.9223329"><ele>693.0</ele><time>2026-04-25T11:58:08.281Z</time></trkpt><trkpt lat="41.6787804" lon="12.9224257"><ele>693.0</ele><time>2026-04-25T11:58:09.284Z</time></trkpt><trkpt lat="41.6787696" lon="12.9225457"><ele>693.0</ele><time>2026-04-25T11:58:10.281Z</time></trkpt><trkpt lat="41.67876" lon="12.9226993"><ele>693.0</ele><time>2026-04-25T11:58:11.281Z</time></trkpt><trkpt lat="41.6787396" lon="12.9229011"><ele>693.0</ele><time>2026-04-25T11:58:12.28Z</time></trkpt><trkpt lat="41.6787127" lon="12.9231179"><ele>693.0</ele><time>2026-04-25T11:58:13.281Z</time></trkpt><trkpt lat="41.678688" lon="12.9233139"><ele>693.0</ele><time>2026-04-25T11:58:14.282Z</time></trkpt><trkpt lat="41.6786621" lon="12.9234844"><ele>693.0</ele><time>2026-04-25T11:58:15.278Z</time></trkpt><trkpt lat="41.6786347" lon="12.92363"><ele>691.0</ele><time>2026-04-25T11:58:16.279Z</time></trkpt><trkpt lat="41.6786089" lon="12.923741"><ele>689.0</ele><time>2026-04-25T11:58:17.281Z</time></trkpt><trkpt lat="41.6785121" lon="12.9238394"><ele>687.0</ele><time>2026-04-25T11:58:19.281Z</time></trkpt><trkpt lat="41.6784519" lon="12.9238123"><ele>685.0</ele><time>2026-04-25T11:58:20.279Z</time></trkpt><trkpt lat="41.678377" lon="12.9236686"><ele>683.0</ele><time>2026-04-25T11:58:22.279Z</time></trkpt><trkpt lat="41.6784099" lon="12.9235411"><ele>693.0</ele><time>2026-04-25T11:58:23.28Z</time></trkpt><trkpt lat="41.6784297" lon="12.9233939"><ele>703.0</ele><time>2026-04-25T11:58:24.292Z</time></trkpt><trkpt lat="41.6784381" lon="12.9232191"><ele>713.0</ele><time>2026-04-25T11:58:25.28Z</time></trkpt><trkpt lat="41.6784336" lon="12.9230333"><ele>723.0</ele><time>2026-04-25T11:58:26.276Z</time></trkpt><trkpt lat="41.6784217" lon="12.9228558"><ele>723.0</ele><time>2026-04-25T11:58:27.282Z</time></trkpt><trkpt lat="41.6784087" lon="12.9226828"><ele>723.0</ele><time>2026-04-25T11:58:28.277Z</time></trkpt><trkpt lat="41.6784007" lon="12.9224971"><ele>723.0</ele><time>2026-04-25T11:58:29.284Z</time></trkpt><trkpt lat="41.6783886" lon="12.9223236"><ele>723.0</ele><time>2026-04-25T11:58:30.276Z</time></trkpt><trkpt lat="41.6783776" lon="12.9221803"><ele>722.8</ele><time>2026-04-25T11:58:31.281Z</time></trkpt><trkpt lat="41.6783688" lon="12.9220685"><ele>722.5999999999999</ele><time>2026-04-25T11:58:32.282Z</time></trkpt><trkpt lat="41.6783635" lon="12.9219732"><ele>722.4000000000001</ele><time>2026-04-25T11:58:33.28Z</time></trkpt><trkpt lat="41.6783598" lon="12.9218665"><ele>722.2</ele><time>2026-04-25T11:58:34.277Z</time></trkpt><trkpt lat="41.6783528" lon="12.9217326"><ele>722.0</ele><time>2026-04-25T11:58:35.278Z</time></trkpt><trkpt lat="41.6783467" lon="12.9215792"><ele>722.6666666666666</ele><time>2026-04-25T11:58:36.278Z</time></trkpt><trkpt lat="41.6783425" lon="12.9214504"><ele>723.3333333333333</ele><time>2026-04-25T11:58:37.281Z</time></trkpt><trkpt lat="41.6783417" lon="12.9213428"><ele>724.0</ele><time>2026-04-25T11:58:38.282Z</time></trkpt><trkpt lat="41.6783417" lon="12.9212524"><ele>724.6666666666666</ele><time>2026-04-25T11:58:39.28Z</time></trkpt><trkpt lat="41.6783376" lon="12.9211205"><ele>725.3333333333334</ele><time>2026-04-25T11:58:41.284Z</time></trkpt><trkpt lat="41.6783378" lon="12.9210223"><ele>726.0</ele><time>2026-04-25T11:58:43.281Z</time></trkpt><trkpt lat="41.6783425" lon="12.9209281"><ele>726.0</ele><time>2026-04-25T11:58:45.277Z</time></trkpt><trkpt lat="41.6783548" lon="12.9208243"><ele>731.0</ele><time>2026-04-25T11:58:48.282Z</time></trkpt></trkseg><trkseg><trkpt lat="41.6756486" lon="12.9263914"><ele>736.0</ele><time>2026-04-25T12:11:56.292Z</time></trkpt><trkpt lat="41.6756088" lon="12.9264747"><ele>736.0</ele><time>2026-04-25T12:11:57.285Z</time></trkpt><trkpt lat="41.6755542" lon="12.9265761"><ele>736.0</ele><time>2026-04-25T12:11:58.288Z</time></trkpt><trkpt lat="41.6754917" lon="12.9266911"><ele>736.0</ele><time>2026-04-25T12:11:59.291Z</time></trkpt><trkpt lat="41.6754256" lon="12.9268113"><ele>736.0</ele><time>2026-04-25T12:12:00.286Z</time></trkpt><trkpt lat="41.6753536" lon="12.9269311"><ele>740.5</ele><time>2026-04-25T12:12:01.293Z</time></trkpt><trkpt lat="41.6752781" lon="12.9270521"><ele>745.0</ele><time>2026-04-25T12:12:02.289Z</time></trkpt><trkpt lat="41.6752029" lon="12.9271779"><ele>749.5</ele><time>2026-04-25T12:12:03.285Z</time></trkpt><trkpt lat="41.6751318" lon="12.9273086"><ele>754.0</ele><time>2026-04-25T12:12:04.284Z</time></trkpt><trkpt lat="41.6750725" lon="12.9274575"><ele>747.75</ele><time>2026-04-25T12:12:05.283Z</time></trkpt><trkpt lat="41.6750167" lon="12.9276235"><ele>741.5</ele><time>2026-04-25T12:12:06.287Z</time></trkpt><trkpt lat="41.6749695" lon="12.9277965"><ele>735.25</ele><time>2026-04-25T12:12:07.287Z</time></trkpt><trkpt lat="41.67493" lon="12.9279711"><ele>729.0</ele><time>2026-04-25T12:12:08.285Z</time></trkpt><trkpt lat="41.6748921" lon="12.9281431"><ele>729.0</ele><time>2026-04-25T12:12:09.285Z</time></trkpt><trkpt lat="41.6748513" lon="12.9283091"><ele>729.0</ele><time>2026-04-25T12:12:10.288Z</time></trkpt><trkpt lat="41.6748016" lon="12.9284564"><ele>729.0</ele><time>2026-04-25T12:12:11.289Z</time></trkpt><trkpt lat="41.6747376" lon="12.9285961"><ele>729.0</ele><time>2026-04-25T12:12:12.287Z</time></trkpt><trkpt lat="41.6746572" lon="12.9287318"><ele>732.0</ele><time>2026-04-25T12:12:13.285Z</time></trkpt><trkpt lat="41.674581" lon="12.9288551"><ele>735.0</ele><time>2026-04-25T12:12:14.285Z</time></trkpt><trkpt lat="41.6745151" lon="12.9289933"><ele>738.0</ele><time>2026-04-25T12:12:15.292Z</time></trkpt><trkpt lat="41.6744568" lon="12.9291375"><ele>741.0</ele><time>2026-04-25T12:12:16.287Z</time></trkpt><trkpt lat="41.6744044" lon="12.9292882"><ele>731.75</ele><time>2026-04-25T12:12:17.29Z</time></trkpt><trkpt lat="41.674364" lon="12.9294536"><ele>722.5</ele><time>2026-04-25T12:12:18.285Z</time></trkpt><trkpt lat="41.6743295" lon="12.9296343"><ele>713.25</ele><time>2026-04-25T12:12:19.286Z</time></trkpt><trkpt lat="41.6743012" lon="12.9298214"><ele>704.0</ele><time>2026-04-25T12:12:20.285Z</time></trkpt><trkpt lat="41.6742757" lon="12.9300127"><ele>705.75</ele><time>2026-04-25T12:12:21.291Z</time></trkpt><trkpt lat="41.6742496" lon="12.9301949"><ele>707.5</ele><time>2026-04-25T12:12:22.285Z</time></trkpt><trkpt lat="41.6742302" lon="12.9303638"><ele>709.25</ele><time>2026-04-25T12:12:23.285Z</time></trkpt><trkpt lat="41.6742204" lon="12.930519"><ele>711.0</ele><time>2026-04-25T12:12:24.282Z</time></trkpt><trkpt lat="41.6742158" lon="12.9306662"><ele>711.0</ele><time>2026-04-25T12:12:25.288Z</time></trkpt><trkpt lat="41.6741979" lon="12.9307895"><ele>711.0</ele><time>2026-04-25T12:12:26.284Z</time></trkpt><trkpt lat="41.6741655" lon="12.930891"><ele>711.0</ele><time>2026-04-25T12:12:27.287Z</time></trkpt><trkpt lat="41.674109" lon="12.9309696"><ele>711.0</ele><time>2026-04-25T12:12:28.293Z</time></trkpt><trkpt lat="41.6740383" lon="12.9310209"><ele>711.0</ele><time>2026-04-25T12:12:29.286Z</time></trkpt><trkpt lat="41.6739416" lon="12.9310512"><ele>711.0</ele><time>2026-04-25T12:12:30.286Z</time></trkpt><trkpt lat="41.6738269" lon="12.9310548"><ele>712.0</ele><time>2026-04-25T12:12:31.289Z</time></trkpt><trkpt lat="41.6736988" lon="12.9310768"><ele>713.0</ele><time>2026-04-25T12:12:32.283Z</time></trkpt><trkpt lat="41.6735591" lon="12.9311234"><ele>714.0</ele><time>2026-04-25T12:12:33.283Z</time></trkpt><trkpt lat="41.6734174" lon="12.9311804"><ele>715.0</ele><time>2026-04-25T12:12:34.288Z</time></trkpt><trkpt lat="41.6732876" lon="12.9312432"><ele>715.0</ele><time>2026-04-25T12:12:35.291Z</time></trkpt><trkpt lat="41.6731632" lon="12.9313006"><ele>715.0</ele><time>2026-04-25T12:12:36.283Z</time></trkpt><trkpt lat="41.6730517" lon="12.931355"><ele>715.0</ele><time>2026-04-25T12:12:37.283Z</time></trkpt><trkpt lat="41.6729485" lon="12.9314235"><ele>715.0</ele><time>2026-04-25T12:12:38.284Z</time></trkpt><trkpt lat="41.6728619" lon="12.9315085"><ele>715.0</ele><time>2026-04-25T12:12:39.292Z</time></trkpt><trkpt lat="41.6727888" lon="12.9316149"><ele>715.0</ele><time>2026-04-25T12:12:40.288Z</time></trkpt><trkpt lat="41.6727311" lon="12.9317187"><ele>715.0</ele><time>2026-04-25T12:12:41.287Z</time></trkpt><trkpt lat="41.6726801" lon="12.9317954"><ele>715.0</ele><time>2026-04-25T12:12:42.28Z</time></trkpt><trkpt lat="41.6726237" lon="12.9318491"><ele>715.0</ele><time>2026-04-25T12:12:43.288Z</time></trkpt><trkpt lat="41.6725611" lon="12.9318777"><ele>715.0</ele><time>2026-04-25T12:12:44.287Z</time></trkpt><trkpt lat="41.672494" lon="12.9318704"><ele>716.1666666666667</ele><time>2026-04-25T12:12:45.282Z</time></trkpt><trkpt lat="41.6724404" lon="12.9318183"><ele>717.3333333333334</ele><time>2026-04-25T12:12:46.286Z</time></trkpt><trkpt lat="41.6724059" lon="12.9317441"><ele>718.5</ele><time>2026-04-25T12:12:47.285Z</time></trkpt><trkpt lat="41.6724084" lon="12.9316427"><ele>719.6666666666666</ele><time>2026-04-25T12:12:48.286Z</time></trkpt><trkpt lat="41.6724294" lon="12.9315114"><ele>720.8333333333333</ele><time>2026-04-25T12:12:49.29Z</time></trkpt><trkpt lat="41.6724574" lon="12.9313568"><ele>722.0</ele><time>2026-04-25T12:12:50.281Z</time></trkpt><trkpt lat="41.6724944" lon="12.9311793"><ele>718.75</ele><time>2026-04-25T12:12:51.288Z</time></trkpt><trkpt lat="41.672531" lon="12.9309871"><ele>715.5</ele><time>2026-04-25T12:12:52.285Z</time></trkpt><trkpt lat="41.6726134" lon="12.9308097"><ele>712.25</ele><time>2026-04-25T12:12:53.283Z</time></trkpt><trkpt lat="41.6726754" lon="12.930644"><ele>709.0</ele><time>2026-04-25T12:12:54.288Z</time></trkpt><trkpt lat="41.6727293" lon="12.930494"><ele>709.0</ele><time>2026-04-25T12:12:55.281Z</time></trkpt><trkpt lat="41.6727682" lon="12.9303345"><ele>709.0</ele><time>2026-04-25T12:12:56.282Z</time></trkpt><trkpt lat="41.6727879" lon="12.9301706"><ele>709.0</ele><time>2026-04-25T12:12:57.285Z</time></trkpt><trkpt lat="41.6727966" lon="12.9299969"><ele>709.0</ele><time>2026-04-25T12:12:58.28Z</time></trkpt><trkpt lat="41.6727916" lon="12.9298274"><ele>710.25</ele><time>2026-04-25T12:12:59.28Z</time></trkpt><trkpt lat="41.6727874" lon="12.9296576"><ele>711.5</ele><time>2026-04-25T12:13:00.281Z</time></trkpt><trkpt lat="41.672771" lon="12.9294873"><ele>712.75</ele><time>2026-04-25T12:13:01.281Z</time></trkpt><trkpt lat="41.6727478" lon="12.9293154"><ele>714.0</ele><time>2026-04-25T12:13:02.284Z</time></trkpt><trkpt lat="41.6727277" lon="12.9291445"><ele>714.0</ele><time>2026-04-25T12:13:03.281Z</time></trkpt><trkpt lat="41.6727107" lon="12.9289623"><ele>714.0</ele><time>2026-04-25T12:13:04.284Z</time></trkpt><trkpt lat="41.6727163" lon="12.9287603"><ele>714.0</ele><time>2026-04-25T12:13:05.282Z</time></trkpt><trkpt lat="41.6727084" lon="12.9285542"><ele>714.0</ele><time>2026-04-25T12:13:06.285Z</time></trkpt><trkpt lat="41.6727096" lon="12.928343"><ele>715.3333333333334</ele><time>2026-04-25T12:13:07.283Z</time></trkpt><trkpt lat="41.6727093" lon="12.9281199"><ele>716.6666666666667</ele><time>2026-04-25T12:13:08.288Z</time></trkpt><trkpt lat="41.6727057" lon="12.9279076"><ele>718.0</ele><time>2026-04-25T12:13:09.283Z</time></trkpt><trkpt lat="41.6726984" lon="12.9277031"><ele>717.6666666666667</ele><time>2026-04-25T12:13:10.282Z</time></trkpt><trkpt lat="41.6726768" lon="12.9274881"><ele>717.3333333333334</ele><time>2026-04-25T12:13:11.285Z</time></trkpt><trkpt lat="41.6726451" lon="12.927271"><ele>717.0</ele><time>2026-04-25T12:13:12.281Z</time></trkpt><trkpt lat="41.6726116" lon="12.9270536"><ele>717.0</ele><time>2026-04-25T12:13:13.286Z</time></trkpt><trkpt lat="41.6725744" lon="12.9268464"><ele>717.0</ele><time>2026-04-25T12:13:14.282Z</time></trkpt><trkpt lat="41.6725478" lon="12.9266502"><ele>717.0</ele><time>2026-04-25T12:13:15.279Z</time></trkpt><trkpt lat="41.6725227" lon="12.9264575"><ele>713.75</ele><time>2026-04-25T12:13:16.286Z</time></trkpt><trkpt lat="41.6724852" lon="12.9262796"><ele>710.5</ele><time>2026-04-25T12:13:17.287Z</time></trkpt><trkpt lat="41.6724353" lon="12.9260942"><ele>707.25</ele><time>2026-04-25T12:13:18.289Z</time></trkpt><trkpt lat="41.6723746" lon="12.9259195"><ele>704.0</ele><time>2026-04-25T12:13:19.29Z</time></trkpt><trkpt lat="41.6723018" lon="12.9257504"><ele>701.75</ele><time>2026-04-25T12:13:20.284Z</time></trkpt><trkpt lat="41.6722251" lon="12.9256003"><ele>699.5</ele><time>2026-04-25T12:13:21.286Z</time></trkpt><trkpt lat="41.6721487" lon="12.9254638"><ele>697.25</ele><time>2026-04-25T12:13:22.286Z</time></trkpt><trkpt lat="41.6720887" lon="12.9253324"><ele>695.0</ele><time>2026-04-25T12:13:23.287Z</time></trkpt><trkpt lat="41.6720428" lon="12.9252241"><ele>695.0</ele><time>2026-04-25T12:13:24.295Z</time></trkpt><trkpt lat="41.6720535" lon="12.9251052"><ele>695.0</ele><time>2026-04-25T12:13:25.294Z</time></trkpt><trkpt lat="41.6720801" lon="12.9249736"><ele>695.0</ele><time>2026-04-25T12:13:26.284Z</time></trkpt><trkpt lat="41.672117" lon="12.9248372"><ele>695.0</ele><time>2026-04-25T12:13:27.283Z</time></trkpt><trkpt lat="41.6721608" lon="12.9246975"><ele>695.0</ele><time>2026-04-25T12:13:28.282Z</time></trkpt><trkpt lat="41.6721967" lon="12.9245722"><ele>692.2</ele><time>2026-04-25T12:13:29.286Z</time></trkpt><trkpt lat="41.6722196" lon="12.924435"><ele>689.4</ele><time>2026-04-25T12:13:30.287Z</time></trkpt><trkpt lat="41.6722256" lon="12.9242901"><ele>686.5999999999999</ele><time>2026-04-25T12:13:31.287Z</time></trkpt><trkpt lat="41.6722293" lon="12.9241409"><ele>683.8</ele><time>2026-04-25T12:13:32.285Z</time></trkpt><trkpt lat="41.6722216" lon="12.9239912"><ele>681.0</ele><time>2026-04-25T12:13:33.286Z</time></trkpt><trkpt lat="41.6722054" lon="12.9238405"><ele>681.0</ele><time>2026-04-25T12:13:34.295Z</time></trkpt><trkpt lat="41.6721945" lon="12.9237013"><ele>681.0</ele><time>2026-04-25T12:13:35.286Z</time></trkpt><trkpt lat="41.6721758" lon="12.9235807"><ele>681.0</ele><time>2026-04-25T12:13:36.285Z</time></trkpt><trkpt lat="41.6721304" lon="12.9234735"><ele>681.0</ele><time>2026-04-25T12:13:37.288Z</time></trkpt><trkpt lat="41.6720738" lon="12.9234041"><ele>681.0</ele><time>2026-04-25T12:13:38.281Z</time></trkpt><trkpt lat="41.6719973" lon="12.9233602"><ele>681.0</ele><time>2026-04-25T12:13:39.286Z</time></trkpt><trkpt lat="41.6719116" lon="12.9233443"><ele>687.5999999999999</ele><time>2026-04-25T12:13:40.283Z</time></trkpt><trkpt lat="41.6718203" lon="12.923314"><ele>694.2</ele><time>2026-04-25T12:13:41.281Z</time></trkpt><trkpt lat="41.6717276" lon="12.9232823"><ele>700.8</ele><time>2026-04-25T12:13:42.281Z</time></trkpt><trkpt lat="41.6716415" lon="12.9232396"><ele>707.4000000000001</ele><time>2026-04-25T12:13:43.283Z</time></trkpt><trkpt lat="41.6715716" lon="12.923163"><ele>714.0</ele><time>2026-04-25T12:13:44.281Z</time></trkpt><trkpt lat="41.6715075" lon="12.9230697"><ele>714.0</ele><time>2026-04-25T12:13:45.282Z</time></trkpt><trkpt lat="41.6714616" lon="12.9229602"><ele>714.0</ele><time>2026-04-25T12:13:46.293Z</time></trkpt><trkpt lat="41.6714076" lon="12.9228475"><ele>714.0</ele><time>2026-04-25T12:13:47.285Z</time></trkpt><trkpt lat="41.6713513" lon="12.9227453"><ele>714.0</ele><time>2026-04-25T12:13:48.285Z</time></trkpt><trkpt lat="41.6712772" lon="12.9226377"><ele>714.0</ele><time>2026-04-25T12:13:49.29Z</time></trkpt><trkpt lat="41.6712008" lon="12.9225293"><ele>718.5</ele><time>2026-04-25T12:13:50.283Z</time></trkpt><trkpt lat="41.6711261" lon="12.9224169"><ele>723.0</ele><time>2026-04-25T12:13:51.284Z</time></trkpt><trkpt lat="41.6710467" lon="12.9223037"><ele>727.5</ele><time>2026-04-25T12:13:52.282Z</time></trkpt><trkpt lat="41.6709672" lon="12.922188"><ele>732.0</ele><time>2026-04-25T12:13:53.285Z</time></trkpt><trkpt lat="41.6708942" lon="12.9220687"><ele>732.0</ele><time>2026-04-25T12:13:54.286Z</time></trkpt><trkpt lat="41.6708219" lon="12.9219497"><ele>732.0</ele><time>2026-04-25T12:13:55.288Z</time></trkpt><trkpt lat="41.6707569" lon="12.9218137"><ele>732.0</ele><time>2026-04-25T12:13:56.288Z</time></trkpt><trkpt lat="41.6706963" lon="12.9216783"><ele>732.0</ele><time>2026-04-25T12:13:57.288Z</time></trkpt><trkpt lat="41.6706399" lon="12.9215352"><ele>726.5</ele><time>2026-04-25T12:13:58.289Z</time></trkpt><trkpt lat="41.6705853" lon="12.9213843"><ele>721.0</ele><time>2026-04-25T12:13:59.285Z</time></trkpt><trkpt lat="41.6705367" lon="12.9212218"><ele>715.5</ele><time>2026-04-25T12:14:00.282Z</time></trkpt><trkpt lat="41.6704995" lon="12.9210488"><ele>710.0</ele><time>2026-04-25T12:14:01.282Z</time></trkpt><trkpt lat="41.6704746" lon="12.9208628"><ele>704.75</ele><time>2026-04-25T12:14:02.285Z</time></trkpt><trkpt lat="41.6704525" lon="12.9206737"><ele>699.5</ele><time>2026-04-25T12:14:03.283Z</time></trkpt><trkpt lat="41.6704367" lon="12.92049"><ele>694.25</ele><time>2026-04-25T12:14:04.283Z</time></trkpt><trkpt lat="41.6704214" lon="12.9203164"><ele>689.0</ele><time>2026-04-25T12:14:05.286Z</time></trkpt><trkpt lat="41.6704094" lon="12.9201542"><ele>685.4000000000001</ele><time>2026-04-25T12:14:06.286Z</time></trkpt><trkpt lat="41.6703907" lon="12.9200092"><ele>681.8</ele><time>2026-04-25T12:14:07.286Z</time></trkpt><trkpt lat="41.6703545" lon="12.9198821"><ele>678.2</ele><time>2026-04-25T12:14:08.287Z</time></trkpt><trkpt lat="41.6703035" lon="12.9197651"><ele>674.5999999999999</ele><time>2026-04-25T12:14:09.284Z</time></trkpt><trkpt lat="41.6702295" lon="12.9196607"><ele>671.0</ele><time>2026-04-25T12:14:10.288Z</time></trkpt><trkpt lat="41.6701518" lon="12.9195446"><ele>678.0</ele><time>2026-04-25T12:14:11.291Z</time></trkpt><trkpt lat="41.6700713" lon="12.9194207"><ele>685.0</ele><time>2026-04-25T12:14:12.29Z</time></trkpt><trkpt lat="41.6699889" lon="12.9192919"><ele>692.0</ele><time>2026-04-25T12:14:13.287Z</time></trkpt><trkpt lat="41.6699072" lon="12.9191688"><ele>699.0</ele><time>2026-04-25T12:14:14.292Z</time></trkpt><trkpt lat="41.6698277" lon="12.9190419"><ele>699.0</ele><time>2026-04-25T12:14:15.292Z</time></trkpt><trkpt lat="41.6697484" lon="12.9189269"><ele>699.0</ele><time>2026-04-25T12:14:16.282Z</time></trkpt><trkpt lat="41.6696687" lon="12.9188234"><ele>699.0</ele><time>2026-04-25T12:14:17.28Z</time></trkpt><trkpt lat="41.6695947" lon="12.9187384"><ele>699.0</ele><time>2026-04-25T12:14:18.279Z</time></trkpt><trkpt lat="41.6695033" lon="12.9186799"><ele>699.0</ele><time>2026-04-25T12:14:19.285Z</time></trkpt><trkpt lat="41.6693999" lon="12.9186448"><ele>701.5</ele><time>2026-04-25T12:14:20.281Z</time></trkpt><trkpt lat="41.669285" lon="12.9186482"><ele>704.0</ele><time>2026-04-25T12:14:21.284Z</time></trkpt><trkpt lat="41.6691644" lon="12.9186676"><ele>706.5</ele><time>2026-04-25T12:14:22.285Z</time></trkpt><trkpt lat="41.6690455" lon="12.9186888"><ele>709.0</ele><time>2026-04-25T12:14:23.304Z</time></trkpt><trkpt lat="41.668941" lon="12.9187304"><ele>709.0</ele><time>2026-04-25T12:14:24.28Z</time></trkpt><trkpt lat="41.6688422" lon="12.9188002"><ele>709.0</ele><time>2026-04-25T12:14:25.286Z</time></trkpt><trkpt lat="41.6687392" lon="12.9188999"><ele>709.0</ele><time>2026-04-25T12:14:26.286Z</time></trkpt><trkpt lat="41.6686257" lon="12.919014"><ele>709.0</ele><time>2026-04-25T12:14:27.287Z</time></trkpt><trkpt lat="41.6685019" lon="12.9191392"><ele>708.75</ele><time>2026-04-25T12:14:28.29Z</time></trkpt><trkpt lat="41.6683815" lon="12.9192609"><ele>708.5</ele><time>2026-04-25T12:14:29.286Z</time></trkpt><trkpt lat="41.6682655" lon="12.9193716"><ele>708.25</ele><time>2026-04-25T12:14:30.29Z</time></trkpt><trkpt lat="41.6681503" lon="12.919484"><ele>708.0</ele><time>2026-04-25T12:14:31.283Z</time></trkpt><trkpt lat="41.6680428" lon="12.9195873"><ele>708.0</ele><time>2026-04-25T12:14:32.286Z</time></trkpt><trkpt lat="41.6679499" lon="12.9197002"><ele>708.0</ele><time>2026-04-25T12:14:33.286Z</time></trkpt><trkpt lat="41.6678594" lon="12.9198438"><ele>708.0</ele><time>2026-04-25T12:14:34.288Z</time></trkpt><trkpt lat="41.6677645" lon="12.9200208"><ele>708.0</ele><time>2026-04-25T12:14:35.285Z</time></trkpt><trkpt lat="41.6676672" lon="12.9202282"><ele>706.3333333333334</ele><time>2026-04-25T12:14:36.287Z</time></trkpt><trkpt lat="41.667563" lon="12.9204529"><ele>704.6666666666667</ele><time>2026-04-25T12:14:37.285Z</time></trkpt><trkpt lat="41.6674571" lon="12.9206837"><ele>703.0</ele><time>2026-04-25T12:14:38.298Z</time></trkpt><trkpt lat="41.6673489" lon="12.9209261"><ele>703.0</ele><time>2026-04-25T12:14:39.293Z</time></trkpt><trkpt lat="41.6672459" lon="12.9211572"><ele>703.0</ele><time>2026-04-25T12:14:40.295Z</time></trkpt><trkpt lat="41.667149" lon="12.9213731"><ele>703.0</ele><time>2026-04-25T12:14:41.281Z</time></trkpt><trkpt lat="41.6670579" lon="12.9215658"><ele>703.3333333333334</ele><time>2026-04-25T12:14:42.297Z</time></trkpt><trkpt lat="41.6669663" lon="12.921741"><ele>703.6666666666666</ele><time>2026-04-25T12:14:43.299Z</time></trkpt><trkpt lat="41.6668593" lon="12.9219046"><ele>704.0</ele><time>2026-04-25T12:14:44.299Z</time></trkpt><trkpt lat="41.6667547" lon="12.9220597"><ele>704.0</ele><time>2026-04-25T12:14:45.292Z</time></trkpt><trkpt lat="41.6666319" lon="12.9221888"><ele>704.0</ele><time>2026-04-25T12:14:46.294Z</time></trkpt><trkpt lat="41.6665032" lon="12.9223081"><ele>704.0</ele><time>2026-04-25T12:14:47.285Z</time></trkpt><trkpt lat="41.6663793" lon="12.9224277"><ele>704.0</ele><time>2026-04-25T12:14:48.284Z</time></trkpt><trkpt lat="41.6662609" lon="12.9225488"><ele>704.0</ele><time>2026-04-25T12:14:49.294Z</time></trkpt><trkpt lat="41.6661446" lon="12.9226536"><ele>704.0</ele><time>2026-04-25T12:14:50.289Z</time></trkpt><trkpt lat="41.6660314" lon="12.9227404"><ele>704.0</ele><time>2026-04-25T12:14:51.283Z</time></trkpt><trkpt lat="41.66592" lon="12.922804"><ele>703.25</ele><time>2026-04-25T12:14:52.289Z</time></trkpt><trkpt lat="41.6658036" lon="12.922826"><ele>702.5</ele><time>2026-04-25T12:14:53.296Z</time></trkpt><trkpt lat="41.6656857" lon="12.9228146"><ele>701.75</ele><time>2026-04-25T12:14:54.295Z</time></trkpt><trkpt lat="41.6655731" lon="12.9227652"><ele>701.0</ele><time>2026-04-25T12:14:55.282Z</time></trkpt><trkpt lat="41.6654714" lon="12.9226727"><ele>699.6666666666666</ele><time>2026-04-25T12:14:56.283Z</time></trkpt><trkpt lat="41.6653703" lon="12.9225538"><ele>698.3333333333334</ele><time>2026-04-25T12:14:57.287Z</time></trkpt><trkpt lat="41.6652539" lon="12.9224206"><ele>697.0</ele><time>2026-04-25T12:14:58.282Z</time></trkpt><trkpt lat="41.6651276" lon="12.9222677"><ele>695.3333333333334</ele><time>2026-04-25T12:14:59.284Z</time></trkpt><trkpt lat="41.6649984" lon="12.9221109"><ele>693.6666666666666</ele><time>2026-04-25T12:15:00.282Z</time></trkpt><trkpt lat="41.664866" lon="12.9219596"><ele>692.0</ele><time>2026-04-25T12:15:01.28Z</time></trkpt><trkpt lat="41.6647411" lon="12.9217999"><ele>693.3333333333333</ele><time>2026-04-25T12:15:02.282Z</time></trkpt><trkpt lat="41.664628" lon="12.9216277"><ele>694.6666666666666</ele><time>2026-04-25T12:15:03.284Z</time></trkpt><trkpt lat="41.6645256" lon="12.9214418"><ele>696.0</ele><time>2026-04-25T12:15:04.289Z</time></trkpt><trkpt lat="41.6644241" lon="12.9212579"><ele>696.0</ele><time>2026-04-25T12:15:05.284Z</time></trkpt><trkpt lat="41.6643304" lon="12.9210891"><ele>696.0</ele><time>2026-04-25T12:15:06.287Z</time></trkpt><trkpt lat="41.6642464" lon="12.9209366"><ele>696.0</ele><time>2026-04-25T12:15:07.29Z</time></trkpt><trkpt lat="41.6641701" lon="12.920804"><ele>696.0</ele><time>2026-04-25T12:15:08.284Z</time></trkpt><trkpt lat="41.664083" lon="12.9206904"><ele>693.25</ele><time>2026-04-25T12:15:09.284Z</time></trkpt><trkpt lat="41.6639703" lon="12.9205922"><ele>690.5</ele><time>2026-04-25T12:15:10.289Z</time></trkpt><trkpt lat="41.6638423" lon="12.9205109"><ele>687.75</ele><time>2026-04-25T12:15:11.286Z</time></trkpt><trkpt lat="41.6637125" lon="12.9204492"><ele>685.0</ele><time>2026-04-25T12:15:12.289Z</time></trkpt><trkpt lat="41.6635818" lon="12.9204182"><ele>685.0</ele><time>2026-04-25T12:15:13.286Z</time></trkpt><trkpt lat="41.6634337" lon="12.9204154"><ele>685.0</ele><time>2026-04-25T12:15:14.287Z</time></trkpt><trkpt lat="41.6632637" lon="12.9204302"><ele>685.0</ele><time>2026-04-25T12:15:15.283Z</time></trkpt><trkpt lat="41.6630667" lon="12.9204534"><ele>685.0</ele><time>2026-04-25T12:15:16.284Z</time></trkpt><trkpt lat="41.6628408" lon="12.9204917"><ele>685.0</ele><time>2026-04-25T12:15:17.287Z</time></trkpt><trkpt lat="41.662608" lon="12.9205421"><ele>681.3333333333334</ele><time>2026-04-25T12:15:18.286Z</time></trkpt><trkpt lat="41.6623883" lon="12.9205829"><ele>677.6666666666666</ele><time>2026-04-25T12:15:19.291Z</time></trkpt><trkpt lat="41.6621741" lon="12.9206037"><ele>674.0</ele><time>2026-04-25T12:15:20.289Z</time></trkpt><trkpt lat="41.6619694" lon="12.9205947"><ele>671.0</ele><time>2026-04-25T12:15:21.286Z</time></trkpt><trkpt lat="41.6617521" lon="12.9205564"><ele>668.0</ele><time>2026-04-25T12:15:22.287Z</time></trkpt><trkpt lat="41.6615048" lon="12.9204974"><ele>668.0</ele><time>2026-04-25T12:15:23.285Z</time></trkpt><trkpt lat="41.6612404" lon="12.9204283"><ele>668.0</ele><time>2026-04-25T12:15:24.28Z</time></trkpt><trkpt lat="41.6609913" lon="12.9203645"><ele>663.5</ele><time>2026-04-25T12:15:25.28Z</time></trkpt><trkpt lat="41.6607522" lon="12.9203061"><ele>659.0</ele><time>2026-04-25T12:15:26.282Z</time></trkpt><trkpt lat="41.6605266" lon="12.9202486"><ele>659.0</ele><time>2026-04-25T12:15:27.283Z</time></trkpt><trkpt lat="41.6603087" lon="12.9202004"><ele>659.0</ele><time>2026-04-25T12:15:28.281Z</time></trkpt><trkpt lat="41.6600839" lon="12.9201574"><ele>659.0</ele><time>2026-04-25T12:15:29.281Z</time></trkpt><trkpt lat="41.6598514" lon="12.9201083"><ele>659.0</ele><time>2026-04-25T12:15:30.283Z</time></trkpt><trkpt lat="41.6596348" lon="12.9200646"><ele>659.0</ele><time>2026-04-25T12:15:31.282Z</time></trkpt><trkpt lat="41.6594269" lon="12.9200293"><ele>659.0</ele><time>2026-04-25T12:15:32.283Z</time></trkpt><trkpt lat="41.6592368" lon="12.9199988"><ele>656.6666666666666</ele><time>2026-04-25T12:15:33.283Z</time></trkpt><trkpt lat="41.6590631" lon="12.9199819"><ele>654.3333333333334</ele><time>2026-04-25T12:15:34.282Z</time></trkpt><trkpt lat="41.6588927" lon="12.9199874"><ele>652.0</ele><time>2026-04-25T12:15:35.284Z</time></trkpt><trkpt lat="41.6587185" lon="12.9200024"><ele>648.3333333333334</ele><time>2026-04-25T12:15:36.282Z</time></trkpt><trkpt lat="41.6585167" lon="12.9200669"><ele>644.6666666666666</ele><time>2026-04-25T12:15:37.288Z</time></trkpt><trkpt lat="41.6583076" lon="12.920128"><ele>641.0</ele><time>2026-04-25T12:15:38.286Z</time></trkpt><trkpt lat="41.658092" lon="12.9201968"><ele>641.0</ele><time>2026-04-25T12:15:39.283Z</time></trkpt><trkpt lat="41.6578928" lon="12.9202582"><ele>641.0</ele><time>2026-04-25T12:15:40.28Z</time></trkpt><trkpt lat="41.6577094" lon="12.9203109"><ele>641.0</ele><time>2026-04-25T12:15:41.281Z</time></trkpt><trkpt lat="41.6575454" lon="12.9203618"><ele>644.6666666666666</ele><time>2026-04-25T12:15:42.287Z</time></trkpt><trkpt lat="41.657378" lon="12.920419"><ele>648.3333333333334</ele><time>2026-04-25T12:15:43.281Z</time></trkpt><trkpt lat="41.6572049" lon="12.9204733"><ele>652.0</ele><time>2026-04-25T12:15:44.282Z</time></trkpt><trkpt lat="41.6570267" lon="12.9205204"><ele>651.0</ele><time>2026-04-25T12:15:45.282Z</time></trkpt><trkpt lat="41.6568438" lon="12.9205674"><ele>650.0</ele><time>2026-04-25T12:15:46.281Z</time></trkpt><trkpt lat="41.6566614" lon="12.9206163"><ele>649.0</ele><time>2026-04-25T12:15:47.284Z</time></trkpt><trkpt lat="41.6564852" lon="12.9206615"><ele>649.0</ele><time>2026-04-25T12:15:48.29Z</time></trkpt><trkpt lat="41.6563192" lon="12.9207006"><ele>649.0</ele><time>2026-04-25T12:15:49.28Z</time></trkpt><trkpt lat="41.6561571" lon="12.9207106"><ele>649.0</ele><time>2026-04-25T12:15:50.28Z</time></trkpt><trkpt lat="41.6559829" lon="12.9206945"><ele>648.3333333333334</ele><time>2026-04-25T12:15:51.28Z</time></trkpt><trkpt lat="41.6557942" lon="12.9206598"><ele>647.6666666666666</ele><time>2026-04-25T12:15:52.28Z</time></trkpt><trkpt lat="41.6556" lon="12.9206178"><ele>647.0</ele><time>2026-04-25T12:15:53.282Z</time></trkpt><trkpt lat="41.655401" lon="12.9205763"><ele>646.0</ele><time>2026-04-25T12:15:54.28Z</time></trkpt><trkpt lat="41.6552058" lon="12.9205402"><ele>645.0</ele><time>2026-04-25T12:15:55.283Z</time></trkpt><trkpt lat="41.6550098" lon="12.9205023"><ele>644.0</ele><time>2026-04-25T12:15:56.278Z</time></trkpt><trkpt lat="41.6548214" lon="12.9204591"><ele>644.0</ele><time>2026-04-25T12:15:57.395Z</time></trkpt><trkpt lat="41.6544697" lon="12.9203078"><ele>644.0</ele><time>2026-04-25T12:15:59.285Z</time></trkpt><trkpt lat="41.6543026" lon="12.9201932"><ele>641.3333333333333</ele><time>2026-04-25T12:16:00.283Z</time></trkpt><trkpt lat="41.6541441" lon="12.9200716"><ele>638.6666666666666</ele><time>2026-04-25T12:16:01.283Z</time></trkpt><trkpt lat="41.6539861" lon="12.9199644"><ele>636.0</ele><time>2026-04-25T12:16:02.284Z</time></trkpt><trkpt lat="41.6538395" lon="12.9198607"><ele>636.0</ele><time>2026-04-25T12:16:03.282Z</time></trkpt><trkpt lat="41.6537076" lon="12.9197647"><ele>636.0</ele><time>2026-04-25T12:16:04.276Z</time></trkpt><trkpt lat="41.6535966" lon="12.9196615"><ele>636.0</ele><time>2026-04-25T12:16:05.283Z</time></trkpt><trkpt lat="41.6534951" lon="12.9195379"><ele>636.0</ele><time>2026-04-25T12:16:06.283Z</time></trkpt><trkpt lat="41.6534115" lon="12.9193902"><ele>637.25</ele><time>2026-04-25T12:16:07.293Z</time></trkpt><trkpt lat="41.6533328" lon="12.9192349"><ele>638.5</ele><time>2026-04-25T12:16:08.295Z</time></trkpt><trkpt lat="41.6532389" lon="12.9190913"><ele>639.75</ele><time>2026-04-25T12:16:09.282Z</time></trkpt><trkpt lat="41.6531434" lon="12.9189546"><ele>641.0</ele><time>2026-04-25T12:16:10.286Z</time></trkpt><trkpt lat="41.6530546" lon="12.9188258"><ele>638.0</ele><time>2026-04-25T12:16:11.283Z</time></trkpt><trkpt lat="41.6529823" lon="12.9187204"><ele>635.0</ele><time>2026-04-25T12:16:12.284Z</time></trkpt><trkpt lat="41.6529177" lon="12.9186262"><ele>632.0</ele><time>2026-04-25T12:16:13.282Z</time></trkpt><trkpt lat="41.6528564" lon="12.9185548"><ele>629.0</ele><time>2026-04-25T12:16:14.28Z</time></trkpt><trkpt lat="41.6527878" lon="12.9185163"><ele>626.0</ele><time>2026-04-25T12:16:15.282Z</time></trkpt><trkpt lat="41.6527189" lon="12.9185135"><ele>623.0</ele><time>2026-04-25T12:16:16.281Z</time></trkpt><trkpt lat="41.6526584" lon="12.91856"><ele>621.4</ele><time>2026-04-25T12:16:17.281Z</time></trkpt><trkpt lat="41.6526121" lon="12.9186548"><ele>619.8</ele><time>2026-04-25T12:16:18.283Z</time></trkpt><trkpt lat="41.6525805" lon="12.9187805"><ele>618.2</ele><time>2026-04-25T12:16:19.28Z</time></trkpt><trkpt lat="41.6525394" lon="12.9189143"><ele>616.6</ele><time>2026-04-25T12:16:20.283Z</time></trkpt><trkpt lat="41.6524921" lon="12.9190591"><ele>615.0</ele><time>2026-04-25T12:16:21.282Z</time></trkpt><trkpt lat="41.6524466" lon="12.9192055"><ele>617.0</ele><time>2026-04-25T12:16:22.282Z</time></trkpt><trkpt lat="41.6524028" lon="12.9193582"><ele>619.0</ele><time>2026-04-25T12:16:23.283Z</time></trkpt><trkpt lat="41.6523605" lon="12.9195043"><ele>621.0</ele><time>2026-04-25T12:16:24.284Z</time></trkpt><trkpt lat="41.6523191" lon="12.9196377"><ele>623.0</ele><time>2026-04-25T12:16:25.281Z</time></trkpt><trkpt lat="41.6522832" lon="12.9197642"><ele>625.0</ele><time>2026-04-25T12:16:26.279Z</time></trkpt><trkpt lat="41.6522507" lon="12.9198666"><ele>625.0</ele><time>2026-04-25T12:16:27.28Z</time></trkpt><trkpt lat="41.6522187" lon="12.9199439"><ele>625.0</ele><time>2026-04-25T12:16:28.28Z</time></trkpt><trkpt lat="41.652132" lon="12.9200027"><ele>625.0</ele><time>2026-04-25T12:16:30.28Z</time></trkpt><trkpt lat="41.6520698" lon="12.9199128"><ele>625.0</ele><time>2026-04-25T12:16:32.282Z</time></trkpt><trkpt lat="41.6520606" lon="12.919811"><ele>625.0</ele><time>2026-04-25T12:16:33.278Z</time></trkpt><trkpt lat="41.6520716" lon="12.9196731"><ele>625.0</ele><time>2026-04-25T12:16:34.281Z</time></trkpt><trkpt lat="41.6520813" lon="12.9195273"><ele>625.0</ele><time>2026-04-25T12:16:35.283Z</time></trkpt><trkpt lat="41.6520938" lon="12.9193579"><ele>625.0</ele><time>2026-04-25T12:16:36.281Z</time></trkpt><trkpt lat="41.6521075" lon="12.919135"><ele>625.0</ele><time>2026-04-25T12:16:37.277Z</time></trkpt><trkpt lat="41.6521172" lon="12.9189356"><ele>625.0</ele><time>2026-04-25T12:16:38.282Z</time></trkpt><trkpt lat="41.6521259" lon="12.9187456"><ele>622.5</ele><time>2026-04-25T12:16:39.283Z</time></trkpt><trkpt lat="41.6521281" lon="12.9185635"><ele>620.0</ele><time>2026-04-25T12:16:40.288Z</time></trkpt><trkpt lat="41.6521315" lon="12.9183882"><ele>617.5</ele><time>2026-04-25T12:16:41.289Z</time></trkpt><trkpt lat="41.6521361" lon="12.9182209"><ele>615.0</ele><time>2026-04-25T12:16:42.284Z</time></trkpt><trkpt lat="41.6521445" lon="12.9180617"><ele>613.8333333333334</ele><time>2026-04-25T12:16:43.289Z</time></trkpt><trkpt lat="41.6521587" lon="12.9179224"><ele>612.6666666666666</ele><time>2026-04-25T12:16:44.288Z</time></trkpt><trkpt lat="41.6521632" lon="12.9178058"><ele>611.5</ele><time>2026-04-25T12:16:45.29Z</time></trkpt><trkpt lat="41.6521569" lon="12.9177073"><ele>610.3333333333333</ele><time>2026-04-25T12:16:46.283Z</time></trkpt><trkpt lat="41.6521282" lon="12.9176257"><ele>609.1666666666666</ele><time>2026-04-25T12:16:47.286Z</time></trkpt><trkpt lat="41.6520768" lon="12.91757"><ele>608.0</ele><time>2026-04-25T12:16:48.282Z</time></trkpt><trkpt lat="41.6520147" lon="12.9175473"><ele>603.1999999999999</ele><time>2026-04-25T12:16:49.284Z</time></trkpt><trkpt lat="41.6519474" lon="12.9175671"><ele>598.4</ele><time>2026-04-25T12:16:50.288Z</time></trkpt><trkpt lat="41.6518853" lon="12.9176264"><ele>593.5999999999999</ele><time>2026-04-25T12:16:51.281Z</time></trkpt><trkpt lat="41.6518445" lon="12.9177294"><ele>588.8</ele><time>2026-04-25T12:16:52.281Z</time></trkpt><trkpt lat="41.6518203" lon="12.9178616"><ele>584.0</ele><time>2026-04-25T12:16:53.278Z</time></trkpt><trkpt lat="41.6518005" lon="12.9180216"><ele>584.0</ele><time>2026-04-25T12:16:54.28Z</time></trkpt><trkpt lat="41.6517775" lon="12.9182109"><ele>584.0</ele><time>2026-04-25T12:16:55.284Z</time></trkpt><trkpt lat="41.6517543" lon="12.918413"><ele>584.0</ele><time>2026-04-25T12:16:56.291Z</time></trkpt><trkpt lat="41.6517313" lon="12.9186163"><ele>583.6666666666666</ele><time>2026-04-25T12:16:57.289Z</time></trkpt><trkpt lat="41.6517007" lon="12.91882"><ele>583.3333333333334</ele><time>2026-04-25T12:16:58.288Z</time></trkpt><trkpt lat="41.65166" lon="12.9190212"><ele>583.0</ele><time>2026-04-25T12:16:59.288Z</time></trkpt><trkpt lat="41.6516064" lon="12.9192185"><ele>586.3333333333334</ele><time>2026-04-25T12:17:00.288Z</time></trkpt><trkpt lat="41.6515375" lon="12.9194081"><ele>589.6666666666666</ele><time>2026-04-25T12:17:01.282Z</time></trkpt><trkpt lat="41.6514639" lon="12.9195951"><ele>593.0</ele><time>2026-04-25T12:17:02.282Z</time></trkpt><trkpt lat="41.6513851" lon="12.9197846"><ele>593.0</ele><time>2026-04-25T12:17:03.282Z</time></trkpt><trkpt lat="41.6512999" lon="12.9199721"><ele>593.0</ele><time>2026-04-25T12:17:04.283Z</time></trkpt><trkpt lat="41.6512067" lon="12.9201528"><ele>593.0</ele><time>2026-04-25T12:17:05.283Z</time></trkpt><trkpt lat="41.6511196" lon="12.9203205"><ele>586.25</ele><time>2026-04-25T12:17:06.285Z</time></trkpt><trkpt lat="41.6510431" lon="12.9204767"><ele>579.5</ele><time>2026-04-25T12:17:07.278Z</time></trkpt><trkpt lat="41.6509735" lon="12.9206321"><ele>572.75</ele><time>2026-04-25T12:17:08.281Z</time></trkpt><trkpt lat="41.6509187" lon="12.920791"><ele>566.0</ele><time>2026-04-25T12:17:09.28Z</time></trkpt><trkpt lat="41.6508773" lon="12.9209645"><ele>565.0</ele><time>2026-04-25T12:17:10.287Z</time></trkpt><trkpt lat="41.6508438" lon="12.9211565"><ele>564.0</ele><time>2026-04-25T12:17:11.289Z</time></trkpt><trkpt lat="41.650821" lon="12.921365"><ele>563.0</ele><time>2026-04-25T12:17:12.279Z</time></trkpt><trkpt lat="41.6508084" lon="12.9215927"><ele>560.6666666666666</ele><time>2026-04-25T12:17:13.279Z</time></trkpt><trkpt lat="41.6508084" lon="12.9218328"><ele>558.3333333333334</ele><time>2026-04-25T12:17:14.28Z</time></trkpt><trkpt lat="41.6508077" lon="12.9220701"><ele>556.0</ele><time>2026-04-25T12:17:15.289Z</time></trkpt><trkpt lat="41.6508079" lon="12.9222963"><ele>556.0</ele><time>2026-04-25T12:17:16.281Z</time></trkpt><trkpt lat="41.6508063" lon="12.9225111"><ele>556.0</ele><time>2026-04-25T12:17:17.28Z</time></trkpt><trkpt lat="41.6508075" lon="12.9227175"><ele>556.0</ele><time>2026-04-25T12:17:18.279Z</time></trkpt><trkpt lat="41.6508135" lon="12.9229279"><ele>552.6666666666667</ele><time>2026-04-25T12:17:19.281Z</time></trkpt><trkpt lat="41.6508369" lon="12.9231449"><ele>549.3333333333334</ele><time>2026-04-25T12:17:20.289Z</time></trkpt><trkpt lat="41.6508682" lon="12.923365"><ele>546.0</ele><time>2026-04-25T12:17:21.283Z</time></trkpt><trkpt lat="41.6508948" lon="12.9235795"><ele>544.75</ele><time>2026-04-25T12:17:22.288Z</time></trkpt><trkpt lat="41.650908" lon="12.9237839"><ele>543.5</ele><time>2026-04-25T12:17:23.289Z</time></trkpt><trkpt lat="41.6509023" lon="12.9239764"><ele>542.25</ele><time>2026-04-25T12:17:24.288Z</time></trkpt><trkpt lat="41.6508966" lon="12.9241528"><ele>541.0</ele><time>2026-04-25T12:17:25.288Z</time></trkpt><trkpt lat="41.6509031" lon="12.9243107"><ele>539.6</ele><time>2026-04-25T12:17:26.288Z</time></trkpt><trkpt lat="41.6509082" lon="12.9244348"><ele>538.2</ele><time>2026-04-25T12:17:27.278Z</time></trkpt><trkpt lat="41.6508934" lon="12.9245416"><ele>536.8</ele><time>2026-04-25T12:17:28.28Z</time></trkpt><trkpt lat="41.6508538" lon="12.9246544"><ele>535.4</ele><time>2026-04-25T12:17:29.281Z</time></trkpt><trkpt lat="41.6508167" lon="12.924785"><ele>534.0</ele><time>2026-04-25T12:17:30.289Z</time></trkpt><trkpt lat="41.6508038" lon="12.9249508"><ele>532.75</ele><time>2026-04-25T12:17:31.28Z</time></trkpt><trkpt lat="41.6508033" lon="12.9251565"><ele>531.5</ele><time>2026-04-25T12:17:32.279Z</time></trkpt><trkpt lat="41.6507992" lon="12.9253572"><ele>530.25</ele><time>2026-04-25T12:17:33.283Z</time></trkpt><trkpt lat="41.6507894" lon="12.9255339"><ele>529.0</ele><time>2026-04-25T12:17:34.285Z</time></trkpt><trkpt lat="41.650776" lon="12.925702"><ele>529.0</ele><time>2026-04-25T12:17:35.279Z</time></trkpt><trkpt lat="41.6507564" lon="12.9258595"><ele>529.0</ele><time>2026-04-25T12:17:36.282Z</time></trkpt><trkpt lat="41.6507397" lon="12.9260094"><ele>529.0</ele><time>2026-04-25T12:17:37.288Z</time></trkpt><trkpt lat="41.65074" lon="12.9261447"><ele>529.0</ele><time>2026-04-25T12:17:38.28Z</time></trkpt><trkpt lat="41.650771" lon="12.9262671"><ele>529.0</ele><time>2026-04-25T12:17:39.281Z</time></trkpt><trkpt lat="41.6508382" lon="12.9263745"><ele>530.2</ele><time>2026-04-25T12:17:40.281Z</time></trkpt><trkpt lat="41.6509196" lon="12.9264692"><ele>531.4</ele><time>2026-04-25T12:17:41.276Z</time></trkpt><trkpt lat="41.6509992" lon="12.9265573"><ele>532.6</ele><time>2026-04-25T12:17:42.274Z</time></trkpt><trkpt lat="41.6510788" lon="12.9266271"><ele>533.8</ele><time>2026-04-25T12:17:43.283Z</time></trkpt><trkpt lat="41.6511518" lon="12.9266675"><ele>535.0</ele><time>2026-04-25T12:17:44.289Z</time></trkpt><trkpt lat="41.6512389" lon="12.9267425"><ele>530.6</ele><time>2026-04-25T12:17:46.288Z</time></trkpt><trkpt lat="41.6512093" lon="12.9268676"><ele>526.2</ele><time>2026-04-25T12:17:48.28Z</time></trkpt><trkpt lat="41.6510754" lon="12.9268683"><ele>521.8</ele><time>2026-04-25T12:17:50.28Z</time></trkpt><trkpt lat="41.6509875" lon="12.9268161"><ele>517.4</ele><time>2026-04-25T12:17:51.276Z</time></trkpt><trkpt lat="41.6509009" lon="12.92675"><ele>513.0</ele><time>2026-04-25T12:17:52.282Z</time></trkpt><trkpt lat="41.6507844" lon="12.9267017"><ele>513.0</ele><time>2026-04-25T12:17:53.297Z</time></trkpt><trkpt lat="41.6506425" lon="12.9266745"><ele>513.0</ele><time>2026-04-25T12:17:54.28Z</time></trkpt><trkpt lat="41.6505047" lon="12.9266548"><ele>513.0</ele><time>2026-04-25T12:17:55.284Z</time></trkpt><trkpt lat="41.6503838" lon="12.9266185"><ele>513.0</ele><time>2026-04-25T12:17:56.281Z</time></trkpt><trkpt lat="41.6502679" lon="12.9265583"><ele>509.2</ele><time>2026-04-25T12:17:57.289Z</time></trkpt><trkpt lat="41.6501629" lon="12.9264684"><ele>505.4</ele><time>2026-04-25T12:17:58.282Z</time></trkpt><trkpt lat="41.6500634" lon="12.9263753"><ele>501.59999999999997</ele><time>2026-04-25T12:17:59.279Z</time></trkpt><trkpt lat="41.6499751" lon="12.9263045"><ele>497.79999999999995</ele><time>2026-04-25T12:18:00.283Z</time></trkpt><trkpt lat="41.649891" lon="12.9262636"><ele>494.0</ele><time>2026-04-25T12:18:01.29Z</time></trkpt><trkpt lat="41.6497943" lon="12.9262613"><ele>494.0</ele><time>2026-04-25T12:18:02.282Z</time></trkpt><trkpt lat="41.6496909" lon="12.926292"><ele>494.0</ele><time>2026-04-25T12:18:03.289Z</time></trkpt><trkpt lat="41.6496034" lon="12.9263137"><ele>494.0</ele><time>2026-04-25T12:18:04.281Z</time></trkpt><trkpt lat="41.6495408" lon="12.9262991"><ele>494.0</ele><time>2026-04-25T12:18:05.283Z</time></trkpt><trkpt lat="41.6494717" lon="12.9261713"><ele>494.0</ele><time>2026-04-25T12:18:07.291Z</time></trkpt><trkpt lat="41.6494673" lon="12.9260626"><ele>494.0</ele><time>2026-04-25T12:18:08.282Z</time></trkpt><trkpt lat="41.649479" lon="12.925938"><ele>494.0</ele><time>2026-04-25T12:18:09.284Z</time></trkpt><trkpt lat="41.6494825" lon="12.9258053"><ele>494.0</ele><time>2026-04-25T12:18:10.29Z</time></trkpt><trkpt lat="41.6494747" lon="12.9256633"><ele>494.0</ele><time>2026-04-25T12:18:11.282Z</time></trkpt><trkpt lat="41.6494796" lon="12.9255287"><ele>494.0</ele><time>2026-04-25T12:18:12.284Z</time></trkpt><trkpt lat="41.6494998" lon="12.9253951"><ele>495.6</ele><time>2026-04-25T12:18:13.283Z</time></trkpt><trkpt lat="41.6495126" lon="12.9252553"><ele>497.2</ele><time>2026-04-25T12:18:14.28Z</time></trkpt><trkpt lat="41.6495085" lon="12.9251205"><ele>498.80000000000007</ele><time>2026-04-25T12:18:15.281Z</time></trkpt><trkpt lat="41.6494862" lon="12.9249907"><ele>500.40000000000003</ele><time>2026-04-25T12:18:16.279Z</time></trkpt><trkpt lat="41.6494531" lon="12.924862"><ele>502.0</ele><time>2026-04-25T12:18:17.278Z</time></trkpt><trkpt lat="41.6494258" lon="12.9247297"><ele>496.40000000000003</ele><time>2026-04-25T12:18:18.288Z</time></trkpt><trkpt lat="41.6493997" lon="12.9245965"><ele>490.80000000000007</ele><time>2026-04-25T12:18:19.282Z</time></trkpt><trkpt lat="41.6493726" lon="12.9244609"><ele>485.2</ele><time>2026-04-25T12:18:20.282Z</time></trkpt><trkpt lat="41.6493492" lon="12.924323"><ele>479.6</ele><time>2026-04-25T12:18:21.288Z</time></trkpt><trkpt lat="41.6493297" lon="12.9241996"><ele>474.0</ele><time>2026-04-25T12:18:22.278Z</time></trkpt><trkpt lat="41.6493145" lon="12.9240873"><ele>474.0</ele><time>2026-04-25T12:18:23.284Z</time></trkpt><trkpt lat="41.6492981" lon="12.9239798"><ele>474.0</ele><time>2026-04-25T12:18:24.288Z</time></trkpt><trkpt lat="41.64923" lon="12.9239193"><ele>474.0</ele><time>2026-04-25T12:18:25.287Z</time></trkpt><trkpt lat="41.6491105" lon="12.9239147"><ele>474.0</ele><time>2026-04-25T12:18:27.281Z</time></trkpt><trkpt lat="41.6490576" lon="12.9239837"><ele>474.0</ele><time>2026-04-25T12:18:28.282Z</time></trkpt><trkpt lat="41.6490165" lon="12.9240928"><ele>474.0</ele><time>2026-04-25T12:18:29.288Z</time></trkpt><trkpt lat="41.6489754" lon="12.9242225"><ele>474.0</ele><time>2026-04-25T12:18:30.283Z</time></trkpt><trkpt lat="41.6489314" lon="12.9243427"><ele>474.0</ele><time>2026-04-25T12:18:31.283Z</time></trkpt><trkpt lat="41.6488882" lon="12.9244571"><ele>474.0</ele><time>2026-04-25T12:18:32.281Z</time></trkpt><trkpt lat="41.6488286" lon="12.9245675"><ele>474.0</ele><time>2026-04-25T12:18:33.279Z</time></trkpt><trkpt lat="41.6487588" lon="12.9246504"><ele>474.0</ele><time>2026-04-25T12:18:34.285Z</time></trkpt><trkpt lat="41.6486893" lon="12.9247228"><ele>470.8333333333333</ele><time>2026-04-25T12:18:35.282Z</time></trkpt><trkpt lat="41.6486166" lon="12.924781"><ele>467.66666666666663</ele><time>2026-04-25T12:18:36.289Z</time></trkpt><trkpt lat="41.6485461" lon="12.9248331"><ele>464.5</ele><time>2026-04-25T12:18:37.288Z</time></trkpt><trkpt lat="41.6484737" lon="12.9248473"><ele>461.3333333333333</ele><time>2026-04-25T12:18:38.273Z</time></trkpt><trkpt lat="41.6484045" lon="12.9248205"><ele>458.16666666666663</ele><time>2026-04-25T12:18:39.281Z</time></trkpt><trkpt lat="41.6483517" lon="12.9247633"><ele>455.0</ele><time>2026-04-25T12:18:40.29Z</time></trkpt><trkpt lat="41.6483011" lon="12.9245867"><ele>455.0</ele><time>2026-04-25T12:18:42.288Z</time></trkpt><trkpt lat="41.648281" lon="12.9244684"><ele>455.0</ele><time>2026-04-25T12:18:43.282Z</time></trkpt><trkpt lat="41.6482647" lon="12.9243436"><ele>455.0</ele><time>2026-04-25T12:18:44.28Z</time></trkpt><trkpt lat="41.648252" lon="12.9242191"><ele>455.0</ele><time>2026-04-25T12:18:45.283Z</time></trkpt><trkpt lat="41.6482317" lon="12.9240942"><ele>455.0</ele><time>2026-04-25T12:18:46.281Z</time></trkpt><trkpt lat="41.6482117" lon="12.9239779"><ele>454.2</ele><time>2026-04-25T12:18:47.285Z</time></trkpt><trkpt lat="41.6481925" lon="12.9238435"><ele>453.4</ele><time>2026-04-25T12:18:48.281Z</time></trkpt><trkpt lat="41.6481767" lon="12.9237173"><ele>452.6</ele><time>2026-04-25T12:18:49.281Z</time></trkpt><trkpt lat="41.6481668" lon="12.9236044"><ele>451.8</ele><time>2026-04-25T12:18:50.283Z</time></trkpt><trkpt lat="41.6481536" lon="12.9234889"><ele>451.0</ele><time>2026-04-25T12:18:51.291Z</time></trkpt><trkpt lat="41.6481383" lon="12.9233704"><ele>450.6666666666667</ele><time>2026-04-25T12:18:52.289Z</time></trkpt><trkpt lat="41.6481179" lon="12.9232515"><ele>450.33333333333337</ele><time>2026-04-25T12:18:53.283Z</time></trkpt><trkpt lat="41.6480912" lon="12.9231361"><ele>450.0</ele><time>2026-04-25T12:18:54.278Z</time></trkpt><trkpt lat="41.6480659" lon="12.9230295"><ele>449.66666666666663</ele><time>2026-04-25T12:18:55.279Z</time></trkpt><trkpt lat="41.6480381" lon="12.9229193"><ele>449.3333333333333</ele><time>2026-04-25T12:18:56.281Z</time></trkpt><trkpt lat="41.6480158" lon="12.922818"><ele>449.0</ele><time>2026-04-25T12:18:57.278Z</time></trkpt><trkpt lat="41.6479988" lon="12.9227278"><ele>449.0</ele><time>2026-04-25T12:18:58.279Z</time></trkpt><trkpt lat="41.6479293" lon="12.9226168"><ele>449.0</ele><time>2026-04-25T12:19:00.281Z</time></trkpt><trkpt lat="41.6478334" lon="12.9226196"><ele>449.0</ele><time>2026-04-25T12:19:02.289Z</time></trkpt><trkpt lat="41.6477724" lon="12.9226784"><ele>449.0</ele><time>2026-04-25T12:19:03.28Z</time></trkpt><trkpt lat="41.6476989" lon="12.9227672"><ele>449.0</ele><time>2026-04-25T12:19:04.28Z</time></trkpt><trkpt lat="41.6476261" lon="12.9228584"><ele>446.3333333333333</ele><time>2026-04-25T12:19:05.282Z</time></trkpt><trkpt lat="41.6475518" lon="12.9229494"><ele>443.66666666666663</ele><time>2026-04-25T12:19:06.28Z</time></trkpt><trkpt lat="41.6474857" lon="12.9230309"><ele>441.0</ele><time>2026-04-25T12:19:07.288Z</time></trkpt><trkpt lat="41.6474199" lon="12.9231081"><ele>438.33333333333337</ele><time>2026-04-25T12:19:08.282Z</time></trkpt><trkpt lat="41.6473653" lon="12.9231839"><ele>435.6666666666667</ele><time>2026-04-25T12:19:09.285Z</time></trkpt><trkpt lat="41.6473105" lon="12.9232276"><ele>433.0</ele><time>2026-04-25T12:19:10.292Z</time></trkpt><trkpt lat="41.6472092" lon="12.9232229"><ele>433.00000000000006</ele><time>2026-04-25T12:19:12.279Z</time></trkpt><trkpt lat="41.6471714" lon="12.9231117"><ele>433.0</ele><time>2026-04-25T12:19:14.289Z</time></trkpt><trkpt lat="41.6471932" lon="12.9229629"><ele>433.0</ele><time>2026-04-25T12:19:16.285Z</time></trkpt><trkpt lat="41.6472126" lon="12.9228746"><ele>433.0</ele><time>2026-04-25T12:19:17.29Z</time></trkpt><trkpt lat="41.6472362" lon="12.9227809"><ele>433.00000000000006</ele><time>2026-04-25T12:19:18.282Z</time></trkpt><trkpt lat="41.6472572" lon="12.9226857"><ele>433.0</ele><time>2026-04-25T12:19:19.29Z</time></trkpt><trkpt lat="41.6472811" lon="12.9225849"><ele>431.79999999999995</ele><time>2026-04-25T12:19:20.284Z</time></trkpt><trkpt lat="41.6472852" lon="12.9224723"><ele>430.59999999999997</ele><time>2026-04-25T12:19:21.289Z</time></trkpt><trkpt lat="41.6472776" lon="12.9223514"><ele>429.40000000000003</ele><time>2026-04-25T12:19:22.278Z</time></trkpt><trkpt lat="41.6472525" lon="12.9222192"><ele>428.20000000000005</ele><time>2026-04-25T12:19:23.288Z</time></trkpt><trkpt lat="41.6472182" lon="12.9220776"><ele>427.0</ele><time>2026-04-25T12:19:24.283Z</time></trkpt><trkpt lat="41.6471834" lon="12.9219391"><ele>427.0</ele><time>2026-04-25T12:19:25.283Z</time></trkpt><trkpt lat="41.6471507" lon="12.921804"><ele>427.00000000000006</ele><time>2026-04-25T12:19:26.283Z</time></trkpt><trkpt lat="41.6471169" lon="12.9216714"><ele>427.00000000000006</ele><time>2026-04-25T12:19:27.288Z</time></trkpt><trkpt lat="41.6470804" lon="12.9215422"><ele>427.0</ele><time>2026-04-25T12:19:28.291Z</time></trkpt><trkpt lat="41.6470432" lon="12.9214188"><ele>427.0</ele><time>2026-04-25T12:19:29.289Z</time></trkpt><trkpt lat="41.6470005" lon="12.9212966"><ele>424.20000000000005</ele><time>2026-04-25T12:19:30.277Z</time></trkpt><trkpt lat="41.646958" lon="12.9211769"><ele>421.40000000000003</ele><time>2026-04-25T12:19:31.28Z</time></trkpt><trkpt lat="41.6469118" lon="12.9210583"><ele>418.6</ele><time>2026-04-25T12:19:32.28Z</time></trkpt><trkpt lat="41.6468585" lon="12.9209437"><ele>415.79999999999995</ele><time>2026-04-25T12:19:33.284Z</time></trkpt><trkpt lat="41.6468013" lon="12.9208318"><ele>413.0</ele><time>2026-04-25T12:19:34.279Z</time></trkpt><trkpt lat="41.646732" lon="12.9207243"><ele>413.0</ele><time>2026-04-25T12:19:35.281Z</time></trkpt><trkpt lat="41.6466626" lon="12.9206275"><ele>413.0</ele><time>2026-04-25T12:19:36.28Z</time></trkpt><trkpt lat="41.6465948" lon="12.9205109"><ele>413.0</ele><time>2026-04-25T12:19:37.28Z</time></trkpt><trkpt lat="41.6465048" lon="12.9204383"><ele>413.0</ele><time>2026-04-25T12:19:38.284Z</time></trkpt><trkpt lat="41.6464205" lon="12.9203527"><ele>413.0</ele><time>2026-04-25T12:19:39.288Z</time></trkpt><trkpt lat="41.646329" lon="12.9202664"><ele>413.0</ele><time>2026-04-25T12:19:40.283Z</time></trkpt><trkpt lat="41.6462498" lon="12.9201784"><ele>413.0</ele><time>2026-04-25T12:19:41.29Z</time></trkpt><trkpt lat="41.6461665" lon="12.920097"><ele>413.0</ele><time>2026-04-25T12:19:42.28Z</time></trkpt><trkpt lat="41.6460853" lon="12.920013"><ele>413.0</ele><time>2026-04-25T12:19:43.281Z</time></trkpt><trkpt lat="41.6460058" lon="12.9199327"><ele>413.0</ele><time>2026-04-25T12:19:44.281Z</time></trkpt><trkpt lat="41.6459354" lon="12.9198444"><ele>412.16666666666663</ele><time>2026-04-25T12:19:45.29Z</time></trkpt><trkpt lat="41.6458815" lon="12.9197556"><ele>411.3333333333333</ele><time>2026-04-25T12:19:46.292Z</time></trkpt><trkpt lat="41.6458328" lon="12.9196645"><ele>410.5</ele><time>2026-04-25T12:19:47.288Z</time></trkpt><trkpt lat="41.6457734" lon="12.9195759"><ele>409.66666666666663</ele><time>2026-04-25T12:19:48.282Z</time></trkpt><trkpt lat="41.6457145" lon="12.9194833"><ele>408.8333333333333</ele><time>2026-04-25T12:19:49.281Z</time></trkpt><trkpt lat="41.6456545" lon="12.9193918"><ele>408.0</ele><time>2026-04-25T12:19:50.285Z</time></trkpt><trkpt lat="41.6455882" lon="12.9193248"><ele>408.0</ele><time>2026-04-25T12:19:51.378Z</time></trkpt><trkpt lat="41.6455092" lon="12.9192639"><ele>408.0</ele><time>2026-04-25T12:19:52.289Z</time></trkpt><trkpt lat="41.6454279" lon="12.9192008"><ele>408.0</ele><time>2026-04-25T12:19:53.29Z</time></trkpt><trkpt lat="41.6453494" lon="12.9191339"><ele>408.0</ele><time>2026-04-25T12:19:54.279Z</time></trkpt><trkpt lat="41.6452954" lon="12.9190353"><ele>408.0</ele><time>2026-04-25T12:19:55.284Z</time></trkpt><trkpt lat="41.645241" lon="12.9189301"><ele>406.5</ele><time>2026-04-25T12:19:56.285Z</time></trkpt><trkpt lat="41.645207" lon="12.9188153"><ele>405.0</ele><time>2026-04-25T12:19:57.283Z</time></trkpt><trkpt lat="41.6451896" lon="12.9187079"><ele>403.5</ele><time>2026-04-25T12:19:58.288Z</time></trkpt><trkpt lat="41.6451813" lon="12.9186071"><ele>402.0</ele><time>2026-04-25T12:19:59.295Z</time></trkpt><trkpt lat="41.6451662" lon="12.9185157"><ele>400.5</ele><time>2026-04-25T12:20:00.284Z</time></trkpt><trkpt lat="41.6451554" lon="12.9184281"><ele>399.0</ele><time>2026-04-25T12:20:01.289Z</time></trkpt><trkpt lat="41.6451397" lon="12.9183164"><ele>398.3333333333333</ele><time>2026-04-25T12:20:03.295Z</time></trkpt><trkpt lat="41.6451228" lon="12.9182303"><ele>397.66666666666663</ele><time>2026-04-25T12:20:05.281Z</time></trkpt><trkpt lat="41.6450657" lon="12.9181674"><ele>397.0</ele><time>2026-04-25T12:20:07.283Z</time></trkpt><trkpt lat="41.6449864" lon="12.9181396"><ele>396.3333333333333</ele><time>2026-04-25T12:20:09.281Z</time></trkpt><trkpt lat="41.6448884" lon="12.9181202"><ele>395.66666666666663</ele><time>2026-04-25T12:20:11.299Z</time></trkpt><trkpt lat="41.6447857" lon="12.9180801"><ele>395.0</ele><time>2026-04-25T12:20:13.281Z</time></trkpt><trkpt lat="41.6446862" lon="12.9180412"><ele>395.0</ele><time>2026-04-25T12:20:15.283Z</time></trkpt><trkpt lat="41.6445872" lon="12.9179714"><ele>395.0</ele><time>2026-04-25T12:20:17.281Z</time></trkpt><trkpt lat="41.644537" lon="12.9178638"><ele>395.0</ele><time>2026-04-25T12:20:19.282Z</time></trkpt><trkpt lat="41.6445891" lon="12.9177397"><ele>395.0</ele><time>2026-04-25T12:20:21.287Z</time></trkpt><trkpt lat="41.6446446" lon="12.9176627"><ele>395.0</ele><time>2026-04-25T12:20:22.281Z</time></trkpt><trkpt lat="41.6447217" lon="12.9175682"><ele>394.0</ele><time>2026-04-25T12:20:23.284Z</time></trkpt><trkpt lat="41.644817" lon="12.9174566"><ele>393.0</ele><time>2026-04-25T12:20:24.284Z</time></trkpt><trkpt lat="41.6449279" lon="12.9173384"><ele>392.0</ele><time>2026-04-25T12:20:25.284Z</time></trkpt><trkpt lat="41.6450441" lon="12.9172192"><ele>391.0</ele><time>2026-04-25T12:20:26.28Z</time></trkpt><trkpt lat="41.6451599" lon="12.9170945"><ele>391.0</ele><time>2026-04-25T12:20:27.282Z</time></trkpt><trkpt lat="41.6452648" lon="12.9169511"><ele>391.0</ele><time>2026-04-25T12:20:28.284Z</time></trkpt><trkpt lat="41.645361" lon="12.9168026"><ele>391.0</ele><time>2026-04-25T12:20:29.289Z</time></trkpt><trkpt lat="41.6454529" lon="12.916655"><ele>391.0</ele><time>2026-04-25T12:20:30.291Z</time></trkpt><trkpt lat="41.6455477" lon="12.916525"><ele>389.75</ele><time>2026-04-25T12:20:31.282Z</time></trkpt><trkpt lat="41.6456367" lon="12.9164155"><ele>388.5</ele><time>2026-04-25T12:20:32.281Z</time></trkpt><trkpt lat="41.6457339" lon="12.9163384"><ele>387.25</ele><time>2026-04-25T12:20:33.28Z</time></trkpt><trkpt lat="41.6458373" lon="12.916274"><ele>386.0</ele><time>2026-04-25T12:20:34.289Z</time></trkpt><trkpt lat="41.6459482" lon="12.916239"><ele>386.0</ele><time>2026-04-25T12:20:35.28Z</time></trkpt><trkpt lat="41.6460639" lon="12.91623"><ele>386.0</ele><time>2026-04-25T12:20:36.283Z</time></trkpt><trkpt lat="41.646184" lon="12.9162319"><ele>386.0</ele><time>2026-04-25T12:20:37.282Z</time></trkpt><trkpt lat="41.6463028" lon="12.9162607"><ele>386.0</ele><time>2026-04-25T12:20:38.28Z</time></trkpt><trkpt lat="41.6464198" lon="12.916292"><ele>386.99999999999994</ele><time>2026-04-25T12:20:39.282Z</time></trkpt><trkpt lat="41.6465199" lon="12.9163231"><ele>388.0</ele><time>2026-04-25T12:20:40.281Z</time></trkpt><trkpt lat="41.6466114" lon="12.9163424"><ele>389.0</ele><time>2026-04-25T12:20:41.277Z</time></trkpt><trkpt lat="41.646662" lon="12.9162733"><ele>390.0</ele><time>2026-04-25T12:20:42.279Z</time></trkpt><trkpt lat="41.6467104" lon="12.9161924"><ele>390.99999999999994</ele><time>2026-04-25T12:20:43.276Z</time></trkpt><trkpt lat="41.6467325" lon="12.9160711"><ele>392.0</ele><time>2026-04-25T12:20:44.279Z</time></trkpt><trkpt lat="41.6467489" lon="12.9159462"><ele>394.25</ele><time>2026-04-25T12:20:45.284Z</time></trkpt><trkpt lat="41.6467905" lon="12.9158182"><ele>396.5</ele><time>2026-04-25T12:20:46.287Z</time></trkpt><trkpt lat="41.6468507" lon="12.9156668"><ele>398.75</ele><time>2026-04-25T12:20:47.282Z</time></trkpt><trkpt lat="41.646921" lon="12.9155103"><ele>401.0</ele><time>2026-04-25T12:20:48.285Z</time></trkpt><trkpt lat="41.6469979" lon="12.9153602"><ele>401.0</ele><time>2026-04-25T12:20:49.292Z</time></trkpt><trkpt lat="41.6471204" lon="12.9152342"><ele>401.0</ele><time>2026-04-25T12:20:50.281Z</time></trkpt><trkpt lat="41.6472403" lon="12.9150949"><ele>401.0</ele><time>2026-04-25T12:20:51.282Z</time></trkpt><trkpt lat="41.6473588" lon="12.9149641"><ele>397.66666666666663</ele><time>2026-04-25T12:20:52.279Z</time></trkpt><trkpt lat="41.6474635" lon="12.9148179"><ele>394.33333333333337</ele><time>2026-04-25T12:20:53.284Z</time></trkpt><trkpt lat="41.6475624" lon="12.9146498"><ele>391.0</ele><time>2026-04-25T12:20:54.287Z</time></trkpt><trkpt lat="41.6476391" lon="12.914472"><ele>391.0</ele><time>2026-04-25T12:20:55.281Z</time></trkpt><trkpt lat="41.6476884" lon="12.9142936"><ele>391.0</ele><time>2026-04-25T12:20:56.282Z</time></trkpt><trkpt lat="41.6477214" lon="12.9141239"><ele>391.0</ele><time>2026-04-25T12:20:57.284Z</time></trkpt><trkpt lat="41.6477603" lon="12.9139826"><ele>391.0</ele><time>2026-04-25T12:20:58.291Z</time></trkpt><trkpt lat="41.6478121" lon="12.9138662"><ele>393.6</ele><time>2026-04-25T12:20:59.282Z</time></trkpt><trkpt lat="41.6478847" lon="12.9137942"><ele>396.20000000000005</ele><time>2026-04-25T12:21:00.286Z</time></trkpt><trkpt lat="41.64798" lon="12.9137438"><ele>398.79999999999995</ele><time>2026-04-25T12:21:01.291Z</time></trkpt><trkpt lat="41.6480895" lon="12.9137274"><ele>401.4</ele><time>2026-04-25T12:21:02.29Z</time></trkpt><trkpt lat="41.6482185" lon="12.9137274"><ele>404.0</ele><time>2026-04-25T12:21:03.283Z</time></trkpt><trkpt lat="41.6483464" lon="12.9137332"><ele>404.0</ele><time>2026-04-25T12:21:04.279Z</time></trkpt><trkpt lat="41.6484713" lon="12.9137388"><ele>404.0</ele><time>2026-04-25T12:21:05.277Z</time></trkpt><trkpt lat="41.6485831" lon="12.9137484"><ele>404.0</ele><time>2026-04-25T12:21:06.278Z</time></trkpt><trkpt lat="41.6486821" lon="12.9137482"><ele>404.0</ele><time>2026-04-25T12:21:07.28Z</time></trkpt><trkpt lat="41.6487652" lon="12.9137124"><ele>404.0</ele><time>2026-04-25T12:21:08.279Z</time></trkpt><trkpt lat="41.6488247" lon="12.913645"><ele>405.0</ele><time>2026-04-25T12:21:09.283Z</time></trkpt><trkpt lat="41.6488449" lon="12.9135489"><ele>406.0</ele><time>2026-04-25T12:21:10.28Z</time></trkpt><trkpt lat="41.6488402" lon="12.9134366"><ele>407.0</ele><time>2026-04-25T12:21:11.278Z</time></trkpt><trkpt lat="41.6488079" lon="12.9133002"><ele>408.0</ele><time>2026-04-25T12:21:12.278Z</time></trkpt><trkpt lat="41.6487775" lon="12.9131404"><ele>409.0</ele><time>2026-04-25T12:21:13.274Z</time></trkpt><trkpt lat="41.6487584" lon="12.9129428"><ele>409.0</ele><time>2026-04-25T12:21:14.279Z</time></trkpt><trkpt lat="41.6487516" lon="12.9127644"><ele>409.0</ele><time>2026-04-25T12:21:15.277Z</time></trkpt><trkpt lat="41.6487599" lon="12.9125921"><ele>409.0</ele><time>2026-04-25T12:21:16.281Z</time></trkpt><trkpt lat="41.6488005" lon="12.9124108"><ele>409.0</ele><time>2026-04-25T12:21:17.282Z</time></trkpt><trkpt lat="41.6488651" lon="12.9122159"><ele>408.75</ele><time>2026-04-25T12:21:18.283Z</time></trkpt><trkpt lat="41.6489386" lon="12.9120213"><ele>408.5</ele><time>2026-04-25T12:21:19.288Z</time></trkpt><trkpt lat="41.6490055" lon="12.9118448"><ele>408.25</ele><time>2026-04-25T12:21:20.283Z</time></trkpt><trkpt lat="41.649066" lon="12.9116851"><ele>408.0</ele><time>2026-04-25T12:21:21.283Z</time></trkpt><trkpt lat="41.6491203" lon="12.9115382"><ele>408.5</ele><time>2026-04-25T12:21:22.277Z</time></trkpt><trkpt lat="41.6491888" lon="12.9113944"><ele>409.0</ele><time>2026-04-25T12:21:23.281Z</time></trkpt><trkpt lat="41.6492686" lon="12.9112716"><ele>409.5</ele><time>2026-04-25T12:21:24.288Z</time></trkpt><trkpt lat="41.6493558" lon="12.9111757"><ele>410.0</ele><time>2026-04-25T12:21:25.281Z</time></trkpt><trkpt lat="41.6494593" lon="12.9111154"><ele>410.0</ele><time>2026-04-25T12:21:26.281Z</time></trkpt><trkpt lat="41.6495808" lon="12.9110905"><ele>410.0</ele><time>2026-04-25T12:21:27.283Z</time></trkpt><trkpt lat="41.6497018" lon="12.9110815"><ele>410.0</ele><time>2026-04-25T12:21:28.282Z</time></trkpt><trkpt lat="41.6498193" lon="12.911047"><ele>410.0</ele><time>2026-04-25T12:21:29.284Z</time></trkpt><trkpt lat="41.6499368" lon="12.9109862"><ele>408.75</ele><time>2026-04-25T12:21:30.281Z</time></trkpt><trkpt lat="41.6500504" lon="12.9108863"><ele>407.5</ele><time>2026-04-25T12:21:31.278Z</time></trkpt><trkpt lat="41.6501511" lon="12.9107606"><ele>406.25</ele><time>2026-04-25T12:21:32.278Z</time></trkpt><trkpt lat="41.6502503" lon="12.9106103"><ele>405.0</ele><time>2026-04-25T12:21:33.278Z</time></trkpt><trkpt lat="41.650349" lon="12.9104514"><ele>405.0</ele><time>2026-04-25T12:21:34.29Z</time></trkpt><trkpt lat="41.6504467" lon="12.9102905"><ele>405.0</ele><time>2026-04-25T12:21:35.282Z</time></trkpt><trkpt lat="41.6505494" lon="12.9101395"><ele>405.0</ele><time>2026-04-25T12:21:36.281Z</time></trkpt><trkpt lat="41.6506535" lon="12.9100002"><ele>402.0</ele><time>2026-04-25T12:21:37.284Z</time></trkpt><trkpt lat="41.6507463" lon="12.9098725"><ele>399.0</ele><time>2026-04-25T12:21:38.279Z</time></trkpt><trkpt lat="41.6508245" lon="12.9097675"><ele>396.0</ele><time>2026-04-25T12:21:39.282Z</time></trkpt><trkpt lat="41.6509056" lon="12.9097035"><ele>393.0</ele><time>2026-04-25T12:21:40.284Z</time></trkpt><trkpt lat="41.6510115" lon="12.9096831"><ele>390.0</ele><time>2026-04-25T12:21:41.281Z</time></trkpt><trkpt lat="41.6511346" lon="12.9097018"><ele>390.0</ele><time>2026-04-25T12:21:42.287Z</time></trkpt><trkpt lat="41.6512539" lon="12.9097417"><ele>390.0</ele><time>2026-04-25T12:21:43.281Z</time></trkpt><trkpt lat="41.6513748" lon="12.9097592"><ele>390.0</ele><time>2026-04-25T12:21:44.279Z</time></trkpt><trkpt lat="41.6514994" lon="12.9097331"><ele>390.0</ele><time>2026-04-25T12:21:45.283Z</time></trkpt><trkpt lat="41.6516076" lon="12.9096775"><ele>390.0</ele><time>2026-04-25T12:21:46.278Z</time></trkpt><trkpt lat="41.6517037" lon="12.9095985"><ele>390.0</ele><time>2026-04-25T12:21:47.279Z</time></trkpt><trkpt lat="41.6517791" lon="12.9094868"><ele>390.0</ele><time>2026-04-25T12:21:48.279Z</time></trkpt><trkpt lat="41.6518315" lon="12.9093441"><ele>390.0</ele><time>2026-04-25T12:21:49.283Z</time></trkpt><trkpt lat="41.6518571" lon="12.9091676"><ele>385.0</ele><time>2026-04-25T12:21:50.275Z</time></trkpt><trkpt lat="41.6518564" lon="12.9089582"><ele>380.0</ele><time>2026-04-25T12:21:51.279Z</time></trkpt><trkpt lat="41.6518384" lon="12.9087296"><ele>375.0</ele><time>2026-04-25T12:21:52.279Z</time></trkpt><trkpt lat="41.6518415" lon="12.9084788"><ele>371.3333333333333</ele><time>2026-04-25T12:21:53.286Z</time></trkpt><trkpt lat="41.6518728" lon="12.9082129"><ele>367.66666666666663</ele><time>2026-04-25T12:21:54.279Z</time></trkpt><trkpt lat="41.6519224" lon="12.9079437"><ele>364.0</ele><time>2026-04-25T12:21:55.289Z</time></trkpt><trkpt lat="41.6519855" lon="12.9076832"><ele>372.66666666666663</ele><time>2026-04-25T12:21:56.282Z</time></trkpt><trkpt lat="41.6520624" lon="12.9074288"><ele>381.3333333333333</ele><time>2026-04-25T12:21:57.281Z</time></trkpt><trkpt lat="41.6521333" lon="12.907189"><ele>390.0</ele><time>2026-04-25T12:21:58.281Z</time></trkpt><trkpt lat="41.6521812" lon="12.90697"><ele>390.0</ele><time>2026-04-25T12:21:59.284Z</time></trkpt><trkpt lat="41.6522166" lon="12.9067593"><ele>390.0</ele><time>2026-04-25T12:22:00.283Z</time></trkpt><trkpt lat="41.6522689" lon="12.9065426"><ele>390.0</ele><time>2026-04-25T12:22:01.289Z</time></trkpt><trkpt lat="41.6523344" lon="12.9063423"><ele>386.6666666666667</ele><time>2026-04-25T12:22:02.281Z</time></trkpt><trkpt lat="41.6524067" lon="12.9061577"><ele>383.33333333333337</ele><time>2026-04-25T12:22:03.282Z</time></trkpt><trkpt lat="41.6525096" lon="12.9059641"><ele>380.0</ele><time>2026-04-25T12:22:04.284Z</time></trkpt><trkpt lat="41.6526316" lon="12.9057567"><ele>376.33333333333337</ele><time>2026-04-25T12:22:05.282Z</time></trkpt><trkpt lat="41.6527346" lon="12.9055344"><ele>372.6666666666667</ele><time>2026-04-25T12:22:06.281Z</time></trkpt><trkpt lat="41.6528146" lon="12.9053203"><ele>369.0</ele><time>2026-04-25T12:22:07.291Z</time></trkpt><trkpt lat="41.6528748" lon="12.9051225"><ele>373.3333333333333</ele><time>2026-04-25T12:22:08.283Z</time></trkpt><trkpt lat="41.6529149" lon="12.9049229"><ele>377.66666666666663</ele><time>2026-04-25T12:22:09.281Z</time></trkpt><trkpt lat="41.6529334" lon="12.9047122"><ele>382.0</ele><time>2026-04-25T12:22:10.294Z</time></trkpt><trkpt lat="41.6529246" lon="12.904493"><ele>382.0</ele><time>2026-04-25T12:22:11.29Z</time></trkpt><trkpt lat="41.6528964" lon="12.9042754"><ele>382.0</ele><time>2026-04-25T12:22:12.298Z</time></trkpt><trkpt lat="41.6528757" lon="12.9040668"><ele>382.0</ele><time>2026-04-25T12:22:13.29Z</time></trkpt><trkpt lat="41.6528788" lon="12.9038507"><ele>381.25</ele><time>2026-04-25T12:22:14.281Z</time></trkpt><trkpt lat="41.6528965" lon="12.9036367"><ele>380.5</ele><time>2026-04-25T12:22:15.281Z</time></trkpt><trkpt lat="41.6529128" lon="12.9034423"><ele>379.75</ele><time>2026-04-25T12:22:16.282Z</time></trkpt><trkpt lat="41.6529314" lon="12.90327"><ele>379.0</ele><time>2026-04-25T12:22:17.282Z</time></trkpt><trkpt lat="41.6529571" lon="12.9031212"><ele>377.0</ele><time>2026-04-25T12:22:18.284Z</time></trkpt><trkpt lat="41.652993" lon="12.9029857"><ele>375.0</ele><time>2026-04-25T12:22:19.277Z</time></trkpt><trkpt lat="41.6530471" lon="12.9028672"><ele>373.0</ele><time>2026-04-25T12:22:20.281Z</time></trkpt><trkpt lat="41.6531318" lon="12.9027731"><ele>371.0</ele><time>2026-04-25T12:22:21.283Z</time></trkpt><trkpt lat="41.6532445" lon="12.9027109"><ele>369.0</ele><time>2026-04-25T12:22:22.282Z</time></trkpt><trkpt lat="41.6533815" lon="12.9026904"><ele>369.0</ele><time>2026-04-25T12:22:23.279Z</time></trkpt><trkpt lat="41.6535318" lon="12.902708"><ele>369.0</ele><time>2026-04-25T12:22:24.283Z</time></trkpt><trkpt lat="41.653683" lon="12.902751"><ele>369.0</ele><time>2026-04-25T12:22:25.28Z</time></trkpt><trkpt lat="41.6538221" lon="12.9027924"><ele>369.0</ele><time>2026-04-25T12:22:26.279Z</time></trkpt><trkpt lat="41.6539496" lon="12.9028136"><ele>368.75</ele><time>2026-04-25T12:22:27.282Z</time></trkpt><trkpt lat="41.6540708" lon="12.9028106"><ele>368.5</ele><time>2026-04-25T12:22:28.28Z</time></trkpt><trkpt lat="41.6541819" lon="12.9027759"><ele>368.25</ele><time>2026-04-25T12:22:29.284Z</time></trkpt><trkpt lat="41.654278" lon="12.9027049"><ele>368.0</ele><time>2026-04-25T12:22:30.28Z</time></trkpt><trkpt lat="41.6543557" lon="12.9026016"><ele>370.25</ele><time>2026-04-25T12:22:31.285Z</time></trkpt><trkpt lat="41.654411" lon="12.9024622"><ele>372.5</ele><time>2026-04-25T12:22:32.28Z</time></trkpt><trkpt lat="41.6544395" lon="12.9022914"><ele>374.75</ele><time>2026-04-25T12:22:33.281Z</time></trkpt><trkpt lat="41.6544475" lon="12.9021057"><ele>377.0</ele><time>2026-04-25T12:22:34.283Z</time></trkpt><trkpt lat="41.654472" lon="12.9019171"><ele>374.33333333333337</ele><time>2026-04-25T12:22:35.283Z</time></trkpt><trkpt lat="41.6545356" lon="12.9017297"><ele>371.6666666666667</ele><time>2026-04-25T12:22:36.281Z</time></trkpt><trkpt lat="41.654624" lon="12.9015308"><ele>369.0</ele><time>2026-04-25T12:22:37.281Z</time></trkpt><trkpt lat="41.6547298" lon="12.9013172"><ele>369.0</ele><time>2026-04-25T12:22:38.292Z</time></trkpt><trkpt lat="41.6548419" lon="12.901118"><ele>369.0</ele><time>2026-04-25T12:22:39.283Z</time></trkpt><trkpt lat="41.6549424" lon="12.9009215"><ele>369.0</ele><time>2026-04-25T12:22:40.284Z</time></trkpt><trkpt lat="41.6550223" lon="12.9007163"><ele>364.3333333333333</ele><time>2026-04-25T12:22:41.28Z</time></trkpt><trkpt lat="41.655095" lon="12.9005131"><ele>359.66666666666663</ele><time>2026-04-25T12:22:42.285Z</time></trkpt><trkpt lat="41.6551809" lon="12.9003277"><ele>355.0</ele><time>2026-04-25T12:22:43.281Z</time></trkpt><trkpt lat="41.6552806" lon="12.9001552"><ele>357.66666666666663</ele><time>2026-04-25T12:22:44.282Z</time></trkpt><trkpt lat="41.6553859" lon="12.899995"><ele>360.3333333333333</ele><time>2026-04-25T12:22:45.28Z</time></trkpt><trkpt lat="41.6554959" lon="12.8998383"><ele>363.0</ele><time>2026-04-25T12:22:46.284Z</time></trkpt><trkpt lat="41.6556042" lon="12.8996902"><ele>363.0</ele><time>2026-04-25T12:22:47.279Z</time></trkpt><trkpt lat="41.6557034" lon="12.899552"><ele>363.0</ele><time>2026-04-25T12:22:48.282Z</time></trkpt><trkpt lat="41.6557974" lon="12.8994189"><ele>363.0</ele><time>2026-04-25T12:22:49.282Z</time></trkpt><trkpt lat="41.655892" lon="12.8992853"><ele>363.0</ele><time>2026-04-25T12:22:50.28Z</time></trkpt><trkpt lat="41.6559934" lon="12.89916"><ele>360.0</ele><time>2026-04-25T12:22:51.377Z</time></trkpt><trkpt lat="41.6560968" lon="12.8990557"><ele>357.0</ele><time>2026-04-25T12:22:52.285Z</time></trkpt><trkpt lat="41.656229" lon="12.8989585"><ele>354.0</ele><time>2026-04-25T12:22:53.279Z</time></trkpt><trkpt lat="41.6563862" lon="12.8988805"><ele>351.0</ele><time>2026-04-25T12:22:54.283Z</time></trkpt><trkpt lat="41.6565572" lon="12.8988156"><ele>351.0</ele><time>2026-04-25T12:22:55.281Z</time></trkpt><trkpt lat="41.6567356" lon="12.898742"><ele>351.0</ele><time>2026-04-25T12:22:56.289Z</time></trkpt><trkpt lat="41.6569186" lon="12.898647"><ele>351.0</ele><time>2026-04-25T12:22:57.28Z</time></trkpt><trkpt lat="41.6570894" lon="12.8985408"><ele>351.3333333333333</ele><time>2026-04-25T12:22:58.284Z</time></trkpt><trkpt lat="41.6572433" lon="12.8984382"><ele>351.66666666666663</ele><time>2026-04-25T12:22:59.281Z</time></trkpt><trkpt lat="41.6573887" lon="12.8983375"><ele>352.0</ele><time>2026-04-25T12:23:00.281Z</time></trkpt><trkpt lat="41.6575271" lon="12.8982391"><ele>345.25</ele><time>2026-04-25T12:23:01.282Z</time></trkpt><trkpt lat="41.6576542" lon="12.8981352"><ele>338.5</ele><time>2026-04-25T12:23:02.288Z</time></trkpt><trkpt lat="41.6577689" lon="12.8980286"><ele>331.75</ele><time>2026-04-25T12:23:03.279Z</time></trkpt><trkpt lat="41.657872" lon="12.8979232"><ele>325.0</ele><time>2026-04-25T12:23:04.28Z</time></trkpt><trkpt lat="41.6579686" lon="12.8978267"><ele>324.8</ele><time>2026-04-25T12:23:05.279Z</time></trkpt><trkpt lat="41.6580683" lon="12.8977562"><ele>324.6</ele><time>2026-04-25T12:23:06.278Z</time></trkpt><trkpt lat="41.6581732" lon="12.8977209"><ele>324.4</ele><time>2026-04-25T12:23:07.281Z</time></trkpt><trkpt lat="41.6582777" lon="12.8977138"><ele>324.2</ele><time>2026-04-25T12:23:08.282Z</time></trkpt><trkpt lat="41.6583772" lon="12.8977348"><ele>324.0</ele><time>2026-04-25T12:23:09.283Z</time></trkpt><trkpt lat="41.6584748" lon="12.8977962"><ele>324.0</ele><time>2026-04-25T12:23:10.283Z</time></trkpt><trkpt lat="41.6585617" lon="12.8979035"><ele>324.0</ele><time>2026-04-25T12:23:11.282Z</time></trkpt><trkpt lat="41.6586346" lon="12.8980477"><ele>324.0</ele><time>2026-04-25T12:23:12.289Z</time></trkpt><trkpt lat="41.6586973" lon="12.8982266"><ele>324.0</ele><time>2026-04-25T12:23:13.282Z</time></trkpt><trkpt lat="41.6587407" lon="12.8984221"><ele>319.0</ele><time>2026-04-25T12:23:14.291Z</time></trkpt><trkpt lat="41.6587909" lon="12.8986122"><ele>314.0</ele><time>2026-04-25T12:23:15.284Z</time></trkpt><trkpt lat="41.6588737" lon="12.8987976"><ele>309.0</ele><time>2026-04-25T12:23:16.284Z</time></trkpt><trkpt lat="41.6589819" lon="12.8989664"><ele>309.0</ele><time>2026-04-25T12:23:17.283Z</time></trkpt><trkpt lat="41.6591041" lon="12.8991158"><ele>309.0</ele><time>2026-04-25T12:23:18.284Z</time></trkpt><trkpt lat="41.6592337" lon="12.8992467"><ele>309.0</ele><time>2026-04-25T12:23:19.281Z</time></trkpt><trkpt lat="41.6593703" lon="12.899352"><ele>309.5</ele><time>2026-04-25T12:23:20.282Z</time></trkpt><trkpt lat="41.6595135" lon="12.899426"><ele>310.0</ele><time>2026-04-25T12:23:21.28Z</time></trkpt><trkpt lat="41.6596552" lon="12.8994765"><ele>310.5</ele><time>2026-04-25T12:23:22.282Z</time></trkpt><trkpt lat="41.6597906" lon="12.8995075"><ele>311.0</ele><time>2026-04-25T12:23:23.287Z</time></trkpt><trkpt lat="41.6599129" lon="12.899513"><ele>311.0</ele><time>2026-04-25T12:23:24.287Z</time></trkpt><trkpt lat="41.6600241" lon="12.8994839"><ele>311.0</ele><time>2026-04-25T12:23:25.28Z</time></trkpt><trkpt lat="41.6601347" lon="12.8994234"><ele>311.0</ele><time>2026-04-25T12:23:26.28Z</time></trkpt><trkpt lat="41.6602385" lon="12.8993475"><ele>311.0</ele><time>2026-04-25T12:23:27.282Z</time></trkpt><trkpt lat="41.6603096" lon="12.8992644"><ele>311.0</ele><time>2026-04-25T12:23:28.281Z</time></trkpt><trkpt lat="41.6603561" lon="12.8991465"><ele>311.5</ele><time>2026-04-25T12:23:29.281Z</time></trkpt><trkpt lat="41.6603785" lon="12.8989876"><ele>312.0</ele><time>2026-04-25T12:23:30.277Z</time></trkpt><trkpt lat="41.6603851" lon="12.8988131"><ele>312.5</ele><time>2026-04-25T12:23:31.282Z</time></trkpt><trkpt lat="41.6604088" lon="12.898652"><ele>313.0</ele><time>2026-04-25T12:23:32.282Z</time></trkpt><trkpt lat="41.6604689" lon="12.8984969"><ele>309.3333333333333</ele><time>2026-04-25T12:23:33.282Z</time></trkpt><trkpt lat="41.6605548" lon="12.8983298"><ele>305.6666666666667</ele><time>2026-04-25T12:23:34.278Z</time></trkpt><trkpt lat="41.6606568" lon="12.8981613"><ele>302.0</ele><time>2026-04-25T12:23:35.281Z</time></trkpt><trkpt lat="41.660761" lon="12.8980149"><ele>302.0</ele><time>2026-04-25T12:23:36.281Z</time></trkpt><trkpt lat="41.6608796" lon="12.8978824"><ele>302.0</ele><time>2026-04-25T12:23:37.284Z</time></trkpt><trkpt lat="41.661024" lon="12.8977563"><ele>302.0</ele><time>2026-04-25T12:23:38.278Z</time></trkpt><trkpt lat="41.6611816" lon="12.8976404"><ele>299.6666666666667</ele><time>2026-04-25T12:23:39.279Z</time></trkpt><trkpt lat="41.6613399" lon="12.8975355"><ele>297.3333333333333</ele><time>2026-04-25T12:23:40.281Z</time></trkpt><trkpt lat="41.6615106" lon="12.8974463"><ele>295.0</ele><time>2026-04-25T12:23:41.283Z</time></trkpt><trkpt lat="41.6616994" lon="12.8973693"><ele>295.0</ele><time>2026-04-25T12:23:42.281Z</time></trkpt><trkpt lat="41.6618927" lon="12.8972976"><ele>295.0</ele><time>2026-04-25T12:23:43.28Z</time></trkpt><trkpt lat="41.662075" lon="12.8972284"><ele>295.0</ele><time>2026-04-25T12:23:44.282Z</time></trkpt><trkpt lat="41.6622498" lon="12.8971691"><ele>295.66666666666663</ele><time>2026-04-25T12:23:45.282Z</time></trkpt><trkpt lat="41.6624289" lon="12.8971333"><ele>296.3333333333333</ele><time>2026-04-25T12:23:46.282Z</time></trkpt><trkpt lat="41.66262" lon="12.8971266"><ele>297.0</ele><time>2026-04-25T12:23:47.281Z</time></trkpt><trkpt lat="41.6628219" lon="12.8971349"><ele>295.6666666666667</ele><time>2026-04-25T12:23:48.282Z</time></trkpt><trkpt lat="41.6630116" lon="12.8971404"><ele>294.33333333333337</ele><time>2026-04-25T12:23:49.28Z</time></trkpt><trkpt lat="41.6631866" lon="12.8971365"><ele>293.0</ele><time>2026-04-25T12:23:50.281Z</time></trkpt><trkpt lat="41.6633462" lon="12.8971353"><ele>293.0</ele><time>2026-04-25T12:23:51.282Z</time></trkpt><trkpt lat="41.6634908" lon="12.8971289"><ele>293.0</ele><time>2026-04-25T12:23:52.285Z</time></trkpt><trkpt lat="41.6636245" lon="12.8971069"><ele>293.0</ele><time>2026-04-25T12:23:53.284Z</time></trkpt><trkpt lat="41.6637494" lon="12.8970492"><ele>293.0</ele><time>2026-04-25T12:23:54.283Z</time></trkpt><trkpt lat="41.6638666" lon="12.8969512"><ele>292.0</ele><time>2026-04-25T12:23:55.286Z</time></trkpt><trkpt lat="41.663968" lon="12.8968427"><ele>291.0</ele><time>2026-04-25T12:23:56.291Z</time></trkpt><trkpt lat="41.664051" lon="12.8967497"><ele>290.0</ele><time>2026-04-25T12:23:57.279Z</time></trkpt><trkpt lat="41.6641222" lon="12.8966536"><ele>289.0</ele><time>2026-04-25T12:23:58.285Z</time></trkpt><trkpt lat="41.6641732" lon="12.8965464"><ele>288.0</ele><time>2026-04-25T12:23:59.282Z</time></trkpt><trkpt lat="41.6641945" lon="12.8964296"><ele>286.25</ele><time>2026-04-25T12:24:00.282Z</time></trkpt><trkpt lat="41.6641943" lon="12.8962919"><ele>284.5</ele><time>2026-04-25T12:24:01.282Z</time></trkpt><trkpt lat="41.6641864" lon="12.8961324"><ele>282.75</ele><time>2026-04-25T12:24:02.283Z</time></trkpt><trkpt lat="41.6641825" lon="12.8959678"><ele>281.0</ele><time>2026-04-25T12:24:03.282Z</time></trkpt><trkpt lat="41.6641742" lon="12.8957997"><ele>278.6666666666667</ele><time>2026-04-25T12:24:04.281Z</time></trkpt><trkpt lat="41.6641411" lon="12.8956167"><ele>276.3333333333333</ele><time>2026-04-25T12:24:05.286Z</time></trkpt><trkpt lat="41.6640794" lon="12.8954096"><ele>274.0</ele><time>2026-04-25T12:24:06.28Z</time></trkpt><trkpt lat="41.6639932" lon="12.8951679"><ele>272.0</ele><time>2026-04-25T12:24:07.283Z</time></trkpt><trkpt lat="41.6638845" lon="12.8948777"><ele>270.0</ele><time>2026-04-25T12:24:08.278Z</time></trkpt><trkpt lat="41.6637645" lon="12.8945352"><ele>266.0</ele><time>2026-04-25T12:24:09.28Z</time></trkpt><trkpt lat="41.6636449" lon="12.8941994"><ele>262.0</ele><time>2026-04-25T12:24:10.279Z</time></trkpt><trkpt lat="41.6635433" lon="12.8938978"><ele>259.3333333333333</ele><time>2026-04-25T12:24:11.279Z</time></trkpt><trkpt lat="41.6634469" lon="12.8936193"><ele>256.6666666666667</ele><time>2026-04-25T12:24:12.279Z</time></trkpt><trkpt lat="41.663354" lon="12.8933589"><ele>254.0</ele><time>2026-04-25T12:24:13.28Z</time></trkpt><trkpt lat="41.6632696" lon="12.893113"><ele>254.0</ele><time>2026-04-25T12:24:14.282Z</time></trkpt><trkpt lat="41.6631872" lon="12.8928805"><ele>254.0</ele><time>2026-04-25T12:24:15.279Z</time></trkpt><trkpt lat="41.6631055" lon="12.8926515"><ele>254.0</ele><time>2026-04-25T12:24:16.284Z</time></trkpt><trkpt lat="41.6630196" lon="12.8924185"><ele>253.0</ele><time>2026-04-25T12:24:17.282Z</time></trkpt><trkpt lat="41.66294" lon="12.8921838"><ele>252.0</ele><time>2026-04-25T12:24:18.28Z</time></trkpt><trkpt lat="41.6628701" lon="12.8919469"><ele>251.0</ele><time>2026-04-25T12:24:19.289Z</time></trkpt><trkpt lat="41.662802" lon="12.8917079"><ele>247.33333333333334</ele><time>2026-04-25T12:24:20.278Z</time></trkpt><trkpt lat="41.662737" lon="12.8914645"><ele>243.66666666666669</ele><time>2026-04-25T12:24:21.282Z</time></trkpt><trkpt lat="41.6626648" lon="12.8912249"><ele>240.0</ele><time>2026-04-25T12:24:22.276Z</time></trkpt><trkpt lat="41.6625988" lon="12.8909939"><ele>239.33333333333331</ele><time>2026-04-25T12:24:23.284Z</time></trkpt><trkpt lat="41.6625369" lon="12.8907776"><ele>238.66666666666666</ele><time>2026-04-25T12:24:24.296Z</time></trkpt><trkpt lat="41.662477" lon="12.8905789"><ele>238.0</ele><time>2026-04-25T12:24:25.281Z</time></trkpt><trkpt lat="41.662425" lon="12.890403"><ele>238.0</ele><time>2026-04-25T12:24:26.282Z</time></trkpt><trkpt lat="41.662383" lon="12.8902557"><ele>238.0</ele><time>2026-04-25T12:24:27.28Z</time></trkpt><trkpt lat="41.6623465" lon="12.8901272"><ele>238.0</ele><time>2026-04-25T12:24:28.277Z</time></trkpt><trkpt lat="41.662314" lon="12.8900092"><ele>238.0</ele><time>2026-04-25T12:24:29.28Z</time></trkpt><trkpt lat="41.662281" lon="12.8899117"><ele>238.0</ele><time>2026-04-25T12:24:30.28Z</time></trkpt><trkpt lat="41.6622164" lon="12.8898189"><ele>238.0</ele><time>2026-04-25T12:24:32.283Z</time></trkpt><trkpt lat="41.6621463" lon="12.8898083"><ele>238.0</ele><time>2026-04-25T12:24:34.285Z</time></trkpt><trkpt lat="41.6620619" lon="12.8898711"><ele>238.0</ele><time>2026-04-25T12:24:36.283Z</time></trkpt><trkpt lat="41.6620205" lon="12.8899718"><ele>238.0</ele><time>2026-04-25T12:24:37.285Z</time></trkpt><trkpt lat="41.6619703" lon="12.8901237"><ele>238.0</ele><time>2026-04-25T12:24:38.284Z</time></trkpt><trkpt lat="41.6619254" lon="12.890315"><ele>234.66666666666666</ele><time>2026-04-25T12:24:39.283Z</time></trkpt><trkpt lat="41.661869" lon="12.8905783"><ele>231.33333333333331</ele><time>2026-04-25T12:24:40.281Z</time></trkpt><trkpt lat="41.661818" lon="12.8908774"><ele>228.0</ele><time>2026-04-25T12:24:41.282Z</time></trkpt><trkpt lat="41.6617732" lon="12.8911434"><ele>228.0</ele><time>2026-04-25T12:24:42.281Z</time></trkpt><trkpt lat="41.6617369" lon="12.8913949"><ele>228.0</ele><time>2026-04-25T12:24:43.288Z</time></trkpt><trkpt lat="41.6617073" lon="12.8916203"><ele>228.0</ele><time>2026-04-25T12:24:44.284Z</time></trkpt><trkpt lat="41.661674" lon="12.8918134"><ele>228.60000000000002</ele><time>2026-04-25T12:24:45.283Z</time></trkpt><trkpt lat="41.6616435" lon="12.8919438"><ele>229.20000000000002</ele><time>2026-04-25T12:24:46.281Z</time></trkpt><trkpt lat="41.6615941" lon="12.8920659"><ele>229.8</ele><time>2026-04-25T12:24:47.288Z</time></trkpt><trkpt lat="41.6615231" lon="12.8921506"><ele>230.4</ele><time>2026-04-25T12:24:48.281Z</time></trkpt><trkpt lat="41.6614129" lon="12.8922069"><ele>231.0</ele><time>2026-04-25T12:24:49.281Z</time></trkpt><trkpt lat="41.6612801" lon="12.8922164"><ele>231.0</ele><time>2026-04-25T12:24:50.278Z</time></trkpt><trkpt lat="41.6611306" lon="12.892185"><ele>231.0</ele><time>2026-04-25T12:24:51.401Z</time></trkpt><trkpt lat="41.660841" lon="12.8920414"><ele>231.33333333333331</ele><time>2026-04-25T12:24:53.282Z</time></trkpt><trkpt lat="41.6607" lon="12.8919475"><ele>231.66666666666666</ele><time>2026-04-25T12:24:54.278Z</time></trkpt><trkpt lat="41.6606165" lon="12.8917475"><ele>232.0</ele><time>2026-04-25T12:24:55.284Z</time></trkpt><trkpt lat="41.6605343" lon="12.8915565"><ele>232.0</ele><time>2026-04-25T12:24:56.282Z</time></trkpt><trkpt lat="41.660463" lon="12.8913694"><ele>232.0</ele><time>2026-04-25T12:24:57.282Z</time></trkpt><trkpt lat="41.6603965" lon="12.8912019"><ele>232.0</ele><time>2026-04-25T12:24:58.292Z</time></trkpt><trkpt lat="41.6603335" lon="12.8910647"><ele>232.0</ele><time>2026-04-25T12:24:59.281Z</time></trkpt><trkpt lat="41.6602625" lon="12.890964"><ele>232.8</ele><time>2026-04-25T12:25:00.29Z</time></trkpt><trkpt lat="41.6601857" lon="12.8908753"><ele>233.6</ele><time>2026-04-25T12:25:01.282Z</time></trkpt><trkpt lat="41.6600806" lon="12.8908758"><ele>234.40000000000003</ele><time>2026-04-25T12:25:02.281Z</time></trkpt><trkpt lat="41.6599857" lon="12.890902"><ele>235.20000000000002</ele><time>2026-04-25T12:25:03.283Z</time></trkpt><trkpt lat="41.6599043" lon="12.8909795"><ele>236.0</ele><time>2026-04-25T12:25:04.284Z</time></trkpt><trkpt lat="41.6598456" lon="12.8910951"><ele>237.0</ele><time>2026-04-25T12:25:05.277Z</time></trkpt><trkpt lat="41.6598228" lon="12.8912426"><ele>238.0</ele><time>2026-04-25T12:25:06.29Z</time></trkpt><trkpt lat="41.6598322" lon="12.8914111"><ele>239.0</ele><time>2026-04-25T12:25:07.291Z</time></trkpt><trkpt lat="41.6598378" lon="12.8916023"><ele>240.0</ele><time>2026-04-25T12:25:08.279Z</time></trkpt><trkpt lat="41.6598468" lon="12.8918222"><ele>241.66666666666669</ele><time>2026-04-25T12:25:09.28Z</time></trkpt><trkpt lat="41.6598661" lon="12.8920489"><ele>243.33333333333334</ele><time>2026-04-25T12:25:10.281Z</time></trkpt><trkpt lat="41.6598823" lon="12.8922731"><ele>245.0</ele><time>2026-04-25T12:25:11.283Z</time></trkpt><trkpt lat="41.659895" lon="12.8924964"><ele>246.33333333333334</ele><time>2026-04-25T12:25:12.282Z</time></trkpt><trkpt lat="41.6599008" lon="12.892718"><ele>247.66666666666669</ele><time>2026-04-25T12:25:13.282Z</time></trkpt><trkpt lat="41.6598922" lon="12.8929232"><ele>249.0</ele><time>2026-04-25T12:25:14.281Z</time></trkpt><trkpt lat="41.6598733" lon="12.8931045"><ele>249.0</ele><time>2026-04-25T12:25:15.278Z</time></trkpt><trkpt lat="41.6598448" lon="12.893261"><ele>248.99999999999997</ele><time>2026-04-25T12:25:16.278Z</time></trkpt><trkpt lat="41.6598093" lon="12.8933957"><ele>248.99999999999997</ele><time>2026-04-25T12:25:17.28Z</time></trkpt><trkpt lat="41.6597554" lon="12.893498"><ele>249.0</ele><time>2026-04-25T12:25:18.281Z</time></trkpt><trkpt lat="41.6596815" lon="12.8935532"><ele>249.0</ele><time>2026-04-25T12:25:19.28Z</time></trkpt><trkpt lat="41.659593" lon="12.8935626"><ele>248.25</ele><time>2026-04-25T12:25:20.28Z</time></trkpt><trkpt lat="41.6594938" lon="12.8935216"><ele>247.5</ele><time>2026-04-25T12:25:21.279Z</time></trkpt><trkpt lat="41.6593903" lon="12.8934229"><ele>246.75</ele><time>2026-04-25T12:25:22.288Z</time></trkpt><trkpt lat="41.6592704" lon="12.8933196"><ele>246.0</ele><time>2026-04-25T12:25:23.283Z</time></trkpt><trkpt lat="41.6591297" lon="12.8932278"><ele>246.0</ele><time>2026-04-25T12:25:24.281Z</time></trkpt><trkpt lat="41.6589998" lon="12.8931487"><ele>246.0</ele><time>2026-04-25T12:25:25.284Z</time></trkpt><trkpt lat="41.6588622" lon="12.8931041"><ele>246.0</ele><time>2026-04-25T12:25:26.28Z</time></trkpt><trkpt lat="41.6587104" lon="12.8930989"><ele>246.0</ele><time>2026-04-25T12:25:27.283Z</time></trkpt><trkpt lat="41.6585554" lon="12.8931127"><ele>247.0</ele><time>2026-04-25T12:25:28.282Z</time></trkpt><trkpt lat="41.6584113" lon="12.8931101"><ele>248.0</ele><time>2026-04-25T12:25:29.28Z</time></trkpt><trkpt lat="41.6582867" lon="12.893108"><ele>249.0</ele><time>2026-04-25T12:25:30.277Z</time></trkpt><trkpt lat="41.6581658" lon="12.893135"><ele>250.0</ele><time>2026-04-25T12:25:31.28Z</time></trkpt><trkpt lat="41.6580538" lon="12.8931896"><ele>250.0</ele><time>2026-04-25T12:25:32.285Z</time></trkpt><trkpt lat="41.6579575" lon="12.8932897"><ele>250.0</ele><time>2026-04-25T12:25:33.288Z</time></trkpt><trkpt lat="41.6578764" lon="12.8934326"><ele>250.0</ele><time>2026-04-25T12:25:34.276Z</time></trkpt><trkpt lat="41.657803" lon="12.8936081"><ele>250.0</ele><time>2026-04-25T12:25:35.277Z</time></trkpt><trkpt lat="41.6577157" lon="12.8937965"><ele>249.33333333333331</ele><time>2026-04-25T12:25:36.283Z</time></trkpt><trkpt lat="41.6576087" lon="12.8939902"><ele>248.66666666666669</ele><time>2026-04-25T12:25:37.279Z</time></trkpt><trkpt lat="41.6574797" lon="12.8941758"><ele>248.0</ele><time>2026-04-25T12:25:38.281Z</time></trkpt><trkpt lat="41.6573382" lon="12.8943471"><ele>250.66666666666669</ele><time>2026-04-25T12:25:39.289Z</time></trkpt><trkpt lat="41.6571981" lon="12.8945235"><ele>253.33333333333331</ele><time>2026-04-25T12:25:40.28Z</time></trkpt><trkpt lat="41.65707" lon="12.8947043"><ele>256.0</ele><time>2026-04-25T12:25:41.282Z</time></trkpt><trkpt lat="41.6569531" lon="12.894883"><ele>257.0</ele><time>2026-04-25T12:25:42.284Z</time></trkpt><trkpt lat="41.656845" lon="12.8950535"><ele>258.0</ele><time>2026-04-25T12:25:43.282Z</time></trkpt><trkpt lat="41.6567516" lon="12.8952138"><ele>259.0</ele><time>2026-04-25T12:25:44.281Z</time></trkpt><trkpt lat="41.6566634" lon="12.8953519"><ele>259.0</ele><time>2026-04-25T12:25:45.281Z</time></trkpt><trkpt lat="41.656563" lon="12.89546"><ele>259.0</ele><time>2026-04-25T12:25:46.285Z</time></trkpt><trkpt lat="41.6564615" lon="12.895522"><ele>259.0</ele><time>2026-04-25T12:25:47.278Z</time></trkpt><trkpt lat="41.6563651" lon="12.8955397"><ele>259.0</ele><time>2026-04-25T12:25:48.281Z</time></trkpt><trkpt lat="41.6562739" lon="12.8955022"><ele>259.0</ele><time>2026-04-25T12:25:49.278Z</time></trkpt><trkpt lat="41.6561857" lon="12.8954143"><ele>259.75</ele><time>2026-04-25T12:25:50.28Z</time></trkpt><trkpt lat="41.6561128" lon="12.8952741"><ele>260.5</ele><time>2026-04-25T12:25:51.278Z</time></trkpt><trkpt lat="41.656048" lon="12.8951196"><ele>261.25</ele><time>2026-04-25T12:25:52.278Z</time></trkpt><trkpt lat="41.655982" lon="12.8949719"><ele>262.0</ele><time>2026-04-25T12:25:53.283Z</time></trkpt><trkpt lat="41.6559085" lon="12.8948319"><ele>260.5</ele><time>2026-04-25T12:25:54.288Z</time></trkpt><trkpt lat="41.6558222" lon="12.8947091"><ele>259.0</ele><time>2026-04-25T12:25:55.289Z</time></trkpt><trkpt lat="41.65571" lon="12.8946036"><ele>257.5</ele><time>2026-04-25T12:25:56.281Z</time></trkpt><trkpt lat="41.6555867" lon="12.8945197"><ele>256.0</ele><time>2026-04-25T12:25:57.293Z</time></trkpt><trkpt lat="41.6554456" lon="12.8944625"><ele>256.0</ele><time>2026-04-25T12:25:58.281Z</time></trkpt><trkpt lat="41.6552887" lon="12.8944421"><ele>256.0</ele><time>2026-04-25T12:25:59.28Z</time></trkpt><trkpt lat="41.6551221" lon="12.8944386"><ele>256.0</ele><time>2026-04-25T12:26:00.282Z</time></trkpt><trkpt lat="41.654944" lon="12.8944501"><ele>258.0</ele><time>2026-04-25T12:26:01.283Z</time></trkpt><trkpt lat="41.6547601" lon="12.8944751"><ele>260.0</ele><time>2026-04-25T12:26:02.28Z</time></trkpt><trkpt lat="41.6545806" lon="12.8945061"><ele>262.0</ele><time>2026-04-25T12:26:03.279Z</time></trkpt><trkpt lat="41.6544007" lon="12.894537"><ele>262.0</ele><time>2026-04-25T12:26:04.281Z</time></trkpt><trkpt lat="41.6542289" lon="12.8945744"><ele>262.0</ele><time>2026-04-25T12:26:05.279Z</time></trkpt><trkpt lat="41.6540499" lon="12.8946348"><ele>262.0</ele><time>2026-04-25T12:26:06.283Z</time></trkpt><trkpt lat="41.6538656" lon="12.8947293"><ele>262.0</ele><time>2026-04-25T12:26:07.295Z</time></trkpt><trkpt lat="41.6536645" lon="12.8948411"><ele>262.0</ele><time>2026-04-25T12:26:08.286Z</time></trkpt><trkpt lat="41.6534659" lon="12.8949314"><ele>262.0</ele><time>2026-04-25T12:26:09.283Z</time></trkpt><trkpt lat="41.6532814" lon="12.8950117"><ele>261.3333333333333</ele><time>2026-04-25T12:26:10.282Z</time></trkpt><trkpt lat="41.6531018" lon="12.8950903"><ele>260.6666666666667</ele><time>2026-04-25T12:26:11.285Z</time></trkpt><trkpt lat="41.6529361" lon="12.8951584"><ele>260.0</ele><time>2026-04-25T12:26:12.28Z</time></trkpt><trkpt lat="41.6527848" lon="12.8952255"><ele>260.0</ele><time>2026-04-25T12:26:13.287Z</time></trkpt><trkpt lat="41.6526343" lon="12.8953055"><ele>260.0</ele><time>2026-04-25T12:26:14.281Z</time></trkpt><trkpt lat="41.6524842" lon="12.8954125"><ele>260.0</ele><time>2026-04-25T12:26:15.277Z</time></trkpt><trkpt lat="41.6523341" lon="12.8955523"><ele>260.0</ele><time>2026-04-25T12:26:16.282Z</time></trkpt><trkpt lat="41.6522044" lon="12.89569"><ele>260.0</ele><time>2026-04-25T12:26:17.278Z</time></trkpt><trkpt lat="41.6520832" lon="12.895823"><ele>260.0</ele><time>2026-04-25T12:26:18.282Z</time></trkpt><trkpt lat="41.6519775" lon="12.8959699"><ele>258.5</ele><time>2026-04-25T12:26:19.283Z</time></trkpt><trkpt lat="41.6518915" lon="12.896133"><ele>257.0</ele><time>2026-04-25T12:26:20.278Z</time></trkpt><trkpt lat="41.6518193" lon="12.8963057"><ele>255.5</ele><time>2026-04-25T12:26:21.283Z</time></trkpt><trkpt lat="41.6517191" lon="12.8964553"><ele>254.0</ele><time>2026-04-25T12:26:22.284Z</time></trkpt><trkpt lat="41.6515821" lon="12.8966017"><ele>254.0</ele><time>2026-04-25T12:26:23.284Z</time></trkpt><trkpt lat="41.6514128" lon="12.8967392"><ele>254.0</ele><time>2026-04-25T12:26:24.28Z</time></trkpt><trkpt lat="41.651238" lon="12.896875"><ele>254.0</ele><time>2026-04-25T12:26:25.283Z</time></trkpt><trkpt lat="41.651075" lon="12.8969978"><ele>254.0</ele><time>2026-04-25T12:26:26.28Z</time></trkpt><trkpt lat="41.6509198" lon="12.8971141"><ele>254.0</ele><time>2026-04-25T12:26:27.283Z</time></trkpt><trkpt lat="41.650753" lon="12.897204"><ele>254.0</ele><time>2026-04-25T12:26:28.284Z</time></trkpt><trkpt lat="41.6505729" lon="12.8972641"><ele>254.0</ele><time>2026-04-25T12:26:29.283Z</time></trkpt><trkpt lat="41.6503928" lon="12.8973057"><ele>254.0</ele><time>2026-04-25T12:26:30.281Z</time></trkpt><trkpt lat="41.650216" lon="12.8973396"><ele>254.0</ele><time>2026-04-25T12:26:31.284Z</time></trkpt><trkpt lat="41.6500513" lon="12.8973582"><ele>252.75</ele><time>2026-04-25T12:26:32.282Z</time></trkpt><trkpt lat="41.6498953" lon="12.8973679"><ele>251.5</ele><time>2026-04-25T12:26:33.283Z</time></trkpt><trkpt lat="41.6497543" lon="12.8973774"><ele>250.25</ele><time>2026-04-25T12:26:34.283Z</time></trkpt><trkpt lat="41.6496178" lon="12.897392"><ele>249.0</ele><time>2026-04-25T12:26:35.282Z</time></trkpt><trkpt lat="41.6494898" lon="12.8974283"><ele>248.66666666666669</ele><time>2026-04-25T12:26:36.282Z</time></trkpt><trkpt lat="41.6493676" lon="12.8974968"><ele>248.33333333333334</ele><time>2026-04-25T12:26:37.289Z</time></trkpt><trkpt lat="41.6492405" lon="12.8976178"><ele>248.0</ele><time>2026-04-25T12:26:38.287Z</time></trkpt><trkpt lat="41.6491157" lon="12.897772"><ele>248.0</ele><time>2026-04-25T12:26:39.281Z</time></trkpt><trkpt lat="41.6489819" lon="12.897929"><ele>248.0</ele><time>2026-04-25T12:26:40.281Z</time></trkpt><trkpt lat="41.6488487" lon="12.8980832"><ele>248.0</ele><time>2026-04-25T12:26:41.282Z</time></trkpt><trkpt lat="41.6487268" lon="12.8982318"><ele>244.0</ele><time>2026-04-25T12:26:42.285Z</time></trkpt><trkpt lat="41.648611" lon="12.8983906"><ele>240.0</ele><time>2026-04-25T12:26:43.282Z</time></trkpt><trkpt lat="41.6485042" lon="12.8985602"><ele>236.0</ele><time>2026-04-25T12:26:44.293Z</time></trkpt><trkpt lat="41.6484093" lon="12.8987298"><ele>236.0</ele><time>2026-04-25T12:26:45.284Z</time></trkpt><trkpt lat="41.6483363" lon="12.8988928"><ele>236.0</ele><time>2026-04-25T12:26:46.282Z</time></trkpt><trkpt lat="41.6482875" lon="12.8990625"><ele>236.0</ele><time>2026-04-25T12:26:47.284Z</time></trkpt><trkpt lat="41.648255" lon="12.8992608"><ele>236.0</ele><time>2026-04-25T12:26:48.285Z</time></trkpt><trkpt lat="41.6482447" lon="12.899499"><ele>237.0</ele><time>2026-04-25T12:26:49.291Z</time></trkpt><trkpt lat="41.6482484" lon="12.8997767"><ele>238.0</ele><time>2026-04-25T12:26:50.281Z</time></trkpt><trkpt lat="41.6482487" lon="12.900107"><ele>240.5</ele><time>2026-04-25T12:26:51.291Z</time></trkpt><trkpt lat="41.6482458" lon="12.9004406"><ele>243.0</ele><time>2026-04-25T12:26:52.282Z</time></trkpt><trkpt lat="41.6482352" lon="12.9007426"><ele>243.33333333333331</ele><time>2026-04-25T12:26:53.283Z</time></trkpt><trkpt lat="41.648227" lon="12.9010237"><ele>243.66666666666666</ele><time>2026-04-25T12:26:54.284Z</time></trkpt><trkpt lat="41.6482241" lon="12.9012705"><ele>244.0</ele><time>2026-04-25T12:26:55.284Z</time></trkpt><trkpt lat="41.6482344" lon="12.9014851"><ele>244.0</ele><time>2026-04-25T12:26:56.283Z</time></trkpt><trkpt lat="41.6482697" lon="12.9017065"><ele>244.0</ele><time>2026-04-25T12:26:57.278Z</time></trkpt><trkpt lat="41.6483293" lon="12.9019245"><ele>244.0</ele><time>2026-04-25T12:26:58.283Z</time></trkpt><trkpt lat="41.6483852" lon="12.9021136"><ele>244.5</ele><time>2026-04-25T12:26:59.28Z</time></trkpt><trkpt lat="41.6484327" lon="12.9022682"><ele>245.0</ele><time>2026-04-25T12:27:00.288Z</time></trkpt><trkpt lat="41.6484636" lon="12.9024282"><ele>245.5</ele><time>2026-04-25T12:27:01.282Z</time></trkpt><trkpt lat="41.6484769" lon="12.9025788"><ele>246.0</ele><time>2026-04-25T12:27:02.289Z</time></trkpt><trkpt lat="41.6484799" lon="12.9027259"><ele>247.4</ele><time>2026-04-25T12:27:03.28Z</time></trkpt><trkpt lat="41.6484755" lon="12.9028642"><ele>248.8</ele><time>2026-04-25T12:27:04.279Z</time></trkpt><trkpt lat="41.6484627" lon="12.9029864"><ele>250.20000000000002</ele><time>2026-04-25T12:27:05.281Z</time></trkpt><trkpt lat="41.6484259" lon="12.9030854"><ele>251.60000000000002</ele><time>2026-04-25T12:27:06.279Z</time></trkpt><trkpt lat="41.6483543" lon="12.9031466"><ele>253.0</ele><time>2026-04-25T12:27:07.278Z</time></trkpt><trkpt lat="41.6482667" lon="12.9031549"><ele>253.0</ele><time>2026-04-25T12:27:08.279Z</time></trkpt><trkpt lat="41.64817" lon="12.9031026"><ele>253.0</ele><time>2026-04-25T12:27:09.277Z</time></trkpt><trkpt lat="41.6480698" lon="12.9030021"><ele>253.0</ele><time>2026-04-25T12:27:10.278Z</time></trkpt><trkpt lat="41.6479643" lon="12.9028751"><ele>253.0</ele><time>2026-04-25T12:27:11.28Z</time></trkpt><trkpt lat="41.6478696" lon="12.9027054"><ele>252.33333333333331</ele><time>2026-04-25T12:27:12.279Z</time></trkpt><trkpt lat="41.6477723" lon="12.9025129"><ele>251.66666666666669</ele><time>2026-04-25T12:27:13.282Z</time></trkpt><trkpt lat="41.647671" lon="12.9023169"><ele>251.0</ele><time>2026-04-25T12:27:14.281Z</time></trkpt><trkpt lat="41.6475803" lon="12.9021342"><ele>251.0</ele><time>2026-04-25T12:27:15.282Z</time></trkpt><trkpt lat="41.6475039" lon="12.9019721"><ele>251.0</ele><time>2026-04-25T12:27:16.282Z</time></trkpt><trkpt lat="41.6474336" lon="12.9018334"><ele>251.0</ele><time>2026-04-25T12:27:17.281Z</time></trkpt><trkpt lat="41.6473709" lon="12.9017105"><ele>251.0</ele><time>2026-04-25T12:27:18.285Z</time></trkpt><trkpt lat="41.6473023" lon="12.9016216"><ele>251.8</ele><time>2026-04-25T12:27:19.281Z</time></trkpt><trkpt lat="41.647225" lon="12.9015748"><ele>252.60000000000002</ele><time>2026-04-25T12:27:20.289Z</time></trkpt><trkpt lat="41.647138" lon="12.9015812"><ele>253.4</ele><time>2026-04-25T12:27:21.282Z</time></trkpt><trkpt lat="41.6470499" lon="12.9016361"><ele>254.2</ele><time>2026-04-25T12:27:22.291Z</time></trkpt><trkpt lat="41.6469676" lon="12.9017348"><ele>255.0</ele><time>2026-04-25T12:27:23.285Z</time></trkpt><trkpt lat="41.6468877" lon="12.90186"><ele>255.0</ele><time>2026-04-25T12:27:24.283Z</time></trkpt><trkpt lat="41.6467929" lon="12.901987"><ele>255.0</ele><time>2026-04-25T12:27:25.293Z</time></trkpt><trkpt lat="41.646694" lon="12.9021192"><ele>255.0</ele><time>2026-04-25T12:27:26.284Z</time></trkpt><trkpt lat="41.6466001" lon="12.9022475"><ele>255.0</ele><time>2026-04-25T12:27:27.281Z</time></trkpt><trkpt lat="41.6465188" lon="12.9023631"><ele>255.0</ele><time>2026-04-25T12:27:28.284Z</time></trkpt><trkpt lat="41.6464417" lon="12.9024718"><ele>255.0</ele><time>2026-04-25T12:27:29.286Z</time></trkpt><trkpt lat="41.6463713" lon="12.9025726"><ele>255.0</ele><time>2026-04-25T12:27:30.294Z</time></trkpt><trkpt lat="41.646306" lon="12.902668"><ele>255.0</ele><time>2026-04-25T12:27:31.282Z</time></trkpt><trkpt lat="41.6462475" lon="12.9027669"><ele>255.0</ele><time>2026-04-25T12:27:32.28Z</time></trkpt><trkpt lat="41.6461863" lon="12.9028663"><ele>254.8</ele><time>2026-04-25T12:27:33.28Z</time></trkpt><trkpt lat="41.6461262" lon="12.9029693"><ele>254.6</ele><time>2026-04-25T12:27:34.28Z</time></trkpt><trkpt lat="41.6460665" lon="12.9030767"><ele>254.39999999999998</ele><time>2026-04-25T12:27:35.283Z</time></trkpt><trkpt lat="41.6460033" lon="12.9031847"><ele>254.2</ele><time>2026-04-25T12:27:36.291Z</time></trkpt><trkpt lat="41.6459438" lon="12.9032913"><ele>254.0</ele><time>2026-04-25T12:27:37.297Z</time></trkpt><trkpt lat="41.6458843" lon="12.9033964"><ele>255.50000000000003</ele><time>2026-04-25T12:27:38.283Z</time></trkpt><trkpt lat="41.6458276" lon="12.9034979"><ele>257.0</ele><time>2026-04-25T12:27:39.284Z</time></trkpt><trkpt lat="41.6457757" lon="12.9035951"><ele>258.5</ele><time>2026-04-25T12:27:40.283Z</time></trkpt><trkpt lat="41.6457282" lon="12.9036915"><ele>260.0</ele><time>2026-04-25T12:27:41.283Z</time></trkpt><trkpt lat="41.6456832" lon="12.9037875"><ele>261.5</ele><time>2026-04-25T12:27:42.291Z</time></trkpt><trkpt lat="41.645632" lon="12.9038869"><ele>263.0</ele><time>2026-04-25T12:27:43.286Z</time></trkpt><trkpt lat="41.6455768" lon="12.903984"><ele>263.0</ele><time>2026-04-25T12:27:44.292Z</time></trkpt><trkpt lat="41.6455173" lon="12.9040869"><ele>263.0</ele><time>2026-04-25T12:27:45.281Z</time></trkpt><trkpt lat="41.6454569" lon="12.904193"><ele>263.0</ele><time>2026-04-25T12:27:46.291Z</time></trkpt><trkpt lat="41.6453929" lon="12.9043047"><ele>263.0</ele><time>2026-04-25T12:27:47.283Z</time></trkpt><trkpt lat="41.6453335" lon="12.9044184"><ele>263.0</ele><time>2026-04-25T12:27:48.283Z</time></trkpt><trkpt lat="41.6452757" lon="12.904525"><ele>263.0</ele><time>2026-04-25T12:27:49.282Z</time></trkpt><trkpt lat="41.6452234" lon="12.9046347"><ele>263.0</ele><time>2026-04-25T12:27:50.283Z</time></trkpt><trkpt lat="41.6451708" lon="12.9047537"><ele>263.0</ele><time>2026-04-25T12:27:51.288Z</time></trkpt><trkpt lat="41.6451178" lon="12.9048781"><ele>263.0</ele><time>2026-04-25T12:27:52.283Z</time></trkpt><trkpt lat="41.6450625" lon="12.9050012"><ele>263.0</ele><time>2026-04-25T12:27:53.291Z</time></trkpt><trkpt lat="41.645009" lon="12.905125"><ele>264.8</ele><time>2026-04-25T12:27:54.286Z</time></trkpt><trkpt lat="41.6449555" lon="12.9052504"><ele>266.6</ele><time>2026-04-25T12:27:55.29Z</time></trkpt><trkpt lat="41.6449053" lon="12.9053681"><ele>268.4</ele><time>2026-04-25T12:27:56.292Z</time></trkpt><trkpt lat="41.6448532" lon="12.905492"><ele>270.2</ele><time>2026-04-25T12:27:57.29Z</time></trkpt><trkpt lat="41.6448026" lon="12.9056183"><ele>272.0</ele><time>2026-04-25T12:27:58.289Z</time></trkpt><trkpt lat="41.6447508" lon="12.9057424"><ele>272.0</ele><time>2026-04-25T12:27:59.279Z</time></trkpt><trkpt lat="41.6446964" lon="12.9058611"><ele>272.0</ele><time>2026-04-25T12:28:00.289Z</time></trkpt><trkpt lat="41.6446438" lon="12.9059843"><ele>272.0</ele><time>2026-04-25T12:28:01.283Z</time></trkpt><trkpt lat="41.6445913" lon="12.906109"><ele>272.0</ele><time>2026-04-25T12:28:02.277Z</time></trkpt><trkpt lat="41.6445414" lon="12.9062338"><ele>272.0</ele><time>2026-04-25T12:28:03.287Z</time></trkpt><trkpt lat="41.6444855" lon="12.9063587"><ele>272.2</ele><time>2026-04-25T12:28:04.293Z</time></trkpt><trkpt lat="41.644436" lon="12.9064832"><ele>272.4</ele><time>2026-04-25T12:28:05.281Z</time></trkpt><trkpt lat="41.6443862" lon="12.9066042"><ele>272.6</ele><time>2026-04-25T12:28:06.295Z</time></trkpt><trkpt lat="41.6443368" lon="12.906727"><ele>272.8</ele><time>2026-04-25T12:28:07.291Z</time></trkpt><trkpt lat="41.6442927" lon="12.906844"><ele>273.0</ele><time>2026-04-25T12:28:08.281Z</time></trkpt><trkpt lat="41.6442505" lon="12.9069505"><ele>274.3333333333333</ele><time>2026-04-25T12:28:09.292Z</time></trkpt><trkpt lat="41.6442076" lon="12.9070569"><ele>275.6666666666667</ele><time>2026-04-25T12:28:10.284Z</time></trkpt><trkpt lat="41.6441631" lon="12.9071604"><ele>277.0</ele><time>2026-04-25T12:28:11.291Z</time></trkpt><trkpt lat="41.6441189" lon="12.907264"><ele>278.33333333333337</ele><time>2026-04-25T12:28:12.283Z</time></trkpt><trkpt lat="41.6440766" lon="12.9073697"><ele>279.6666666666667</ele><time>2026-04-25T12:28:13.287Z</time></trkpt><trkpt lat="41.6440322" lon="12.9074734"><ele>281.0</ele><time>2026-04-25T12:28:14.281Z</time></trkpt><trkpt lat="41.6439909" lon="12.9075764"><ele>282.6</ele><time>2026-04-25T12:28:15.29Z</time></trkpt><trkpt lat="41.6439446" lon="12.9076793"><ele>284.20000000000005</ele><time>2026-04-25T12:28:16.282Z</time></trkpt><trkpt lat="41.643893" lon="12.9077818"><ele>285.79999999999995</ele><time>2026-04-25T12:28:17.284Z</time></trkpt><trkpt lat="41.6438471" lon="12.9078867"><ele>287.4</ele><time>2026-04-25T12:28:18.285Z</time></trkpt><trkpt lat="41.6438011" lon="12.9079918"><ele>289.0</ele><time>2026-04-25T12:28:19.292Z</time></trkpt><trkpt lat="41.6437561" lon="12.9080994"><ele>289.0</ele><time>2026-04-25T12:28:20.285Z</time></trkpt><trkpt lat="41.64371" lon="12.9082077"><ele>289.0</ele><time>2026-04-25T12:28:21.38Z</time></trkpt><trkpt lat="41.643671" lon="12.9083196"><ele>289.0</ele><time>2026-04-25T12:28:22.288Z</time></trkpt><trkpt lat="41.643626" lon="12.9084279"><ele>289.0</ele><time>2026-04-25T12:28:23.284Z</time></trkpt><trkpt lat="41.6435759" lon="12.9085376"><ele>289.0</ele><time>2026-04-25T12:28:24.283Z</time></trkpt><trkpt lat="41.6435362" lon="12.9086487"><ele>286.5</ele><time>2026-04-25T12:28:25.293Z</time></trkpt><trkpt lat="41.6434991" lon="12.9087541"><ele>284.0</ele><time>2026-04-25T12:28:26.291Z</time></trkpt><trkpt lat="41.6434615" lon="12.9088558"><ele>281.5</ele><time>2026-04-25T12:28:27.29Z</time></trkpt><trkpt lat="41.6434254" lon="12.9089501"><ele>279.0</ele><time>2026-04-25T12:28:28.291Z</time></trkpt><trkpt lat="41.6433913" lon="12.9090436"><ele>276.5</ele><time>2026-04-25T12:28:29.282Z</time></trkpt><trkpt lat="41.6433524" lon="12.9091322"><ele>274.0</ele><time>2026-04-25T12:28:30.28Z</time></trkpt><trkpt lat="41.6433115" lon="12.9092176"><ele>273.66666666666663</ele><time>2026-04-25T12:28:31.28Z</time></trkpt><trkpt lat="41.6432761" lon="12.9093086"><ele>273.3333333333333</ele><time>2026-04-25T12:28:32.289Z</time></trkpt><trkpt lat="41.6432409" lon="12.9093953"><ele>273.0</ele><time>2026-04-25T12:28:33.283Z</time></trkpt><trkpt lat="41.6432027" lon="12.9094799"><ele>272.6666666666667</ele><time>2026-04-25T12:28:34.283Z</time></trkpt><trkpt lat="41.6431625" lon="12.9095622"><ele>272.33333333333337</ele><time>2026-04-25T12:28:35.282Z</time></trkpt><trkpt lat="41.6431235" lon="12.9096375"><ele>272.0</ele><time>2026-04-25T12:28:36.281Z</time></trkpt><trkpt lat="41.6430282" lon="12.9097284"><ele>272.0</ele><time>2026-04-25T12:28:38.277Z</time></trkpt><trkpt lat="41.642925" lon="12.9096868"><ele>272.0</ele><time>2026-04-25T12:28:40.29Z</time></trkpt><trkpt lat="41.6428857" lon="12.9096183"><ele>272.0</ele><time>2026-04-25T12:28:41.286Z</time></trkpt><trkpt lat="41.6428459" lon="12.9095279"><ele>272.0</ele><time>2026-04-25T12:28:42.282Z</time></trkpt><trkpt lat="41.6428066" lon="12.9094296"><ele>272.0</ele><time>2026-04-25T12:28:43.283Z</time></trkpt><trkpt lat="41.6427845" lon="12.9093116"><ele>272.0</ele><time>2026-04-25T12:28:44.282Z</time></trkpt><trkpt lat="41.6427597" lon="12.9091988"><ele>270.0</ele><time>2026-04-25T12:28:45.283Z</time></trkpt><trkpt lat="41.6427324" lon="12.9090992"><ele>268.0</ele><time>2026-04-25T12:28:46.28Z</time></trkpt><trkpt lat="41.6427064" lon="12.9090003"><ele>266.0</ele><time>2026-04-25T12:28:47.291Z</time></trkpt><trkpt lat="41.6426827" lon="12.9089037"><ele>264.0</ele><time>2026-04-25T12:28:48.284Z</time></trkpt><trkpt lat="41.6426608" lon="12.9088109"><ele>262.0</ele><time>2026-04-25T12:28:49.291Z</time></trkpt><trkpt lat="41.6426393" lon="12.9087217"><ele>260.0</ele><time>2026-04-25T12:28:50.283Z</time></trkpt><trkpt lat="41.6426132" lon="12.9086263"><ele>260.0</ele><time>2026-04-25T12:28:51.291Z</time></trkpt><trkpt lat="41.6425851" lon="12.9085276"><ele>260.0</ele><time>2026-04-25T12:28:52.284Z</time></trkpt><trkpt lat="41.6425597" lon="12.9084258"><ele>260.0</ele><time>2026-04-25T12:28:53.289Z</time></trkpt><trkpt lat="41.6425325" lon="12.9083146"><ele>260.0</ele><time>2026-04-25T12:28:54.278Z</time></trkpt><trkpt lat="41.6425069" lon="12.9082096"><ele>260.0</ele><time>2026-04-25T12:28:55.283Z</time></trkpt><trkpt lat="41.6424775" lon="12.9081051"><ele>260.0</ele><time>2026-04-25T12:28:56.29Z</time></trkpt><trkpt lat="41.6424469" lon="12.9080006"><ele>259.83333333333337</ele><time>2026-04-25T12:28:57.282Z</time></trkpt><trkpt lat="41.6424295" lon="12.9078913"><ele>259.6666666666667</ele><time>2026-04-25T12:28:58.288Z</time></trkpt><trkpt lat="41.6424177" lon="12.9077823"><ele>259.5</ele><time>2026-04-25T12:28:59.283Z</time></trkpt><trkpt lat="41.6424084" lon="12.9076673"><ele>259.3333333333333</ele><time>2026-04-25T12:29:00.291Z</time></trkpt><trkpt lat="41.6423921" lon="12.907555"><ele>259.16666666666663</ele><time>2026-04-25T12:29:01.284Z</time></trkpt><trkpt lat="41.6423858" lon="12.9074382"><ele>259.0</ele><time>2026-04-25T12:29:02.278Z</time></trkpt><trkpt lat="41.6423735" lon="12.9073164"><ele>258.8333333333333</ele><time>2026-04-25T12:29:03.28Z</time></trkpt><trkpt lat="41.6423606" lon="12.9071974"><ele>258.66666666666663</ele><time>2026-04-25T12:29:04.284Z</time></trkpt><trkpt lat="41.6423503" lon="12.9070729"><ele>258.5</ele><time>2026-04-25T12:29:05.285Z</time></trkpt><trkpt lat="41.6423367" lon="12.9069514"><ele>258.3333333333333</ele><time>2026-04-25T12:29:06.285Z</time></trkpt><trkpt lat="41.6423249" lon="12.9068371"><ele>258.1666666666667</ele><time>2026-04-25T12:29:07.292Z</time></trkpt><trkpt lat="41.6423112" lon="12.9067243"><ele>258.0</ele><time>2026-04-25T12:29:08.291Z</time></trkpt><trkpt lat="41.6423017" lon="12.9066146"><ele>257.6666666666667</ele><time>2026-04-25T12:29:09.286Z</time></trkpt><trkpt lat="41.642289" lon="12.9065042"><ele>257.3333333333333</ele><time>2026-04-25T12:29:10.283Z</time></trkpt><trkpt lat="41.6422741" lon="12.9063947"><ele>257.0</ele><time>2026-04-25T12:29:11.291Z</time></trkpt><trkpt lat="41.6422581" lon="12.9062825"><ele>256.66666666666663</ele><time>2026-04-25T12:29:12.283Z</time></trkpt><trkpt lat="41.6422427" lon="12.9061691"><ele>256.3333333333333</ele><time>2026-04-25T12:29:13.292Z</time></trkpt><trkpt lat="41.6422327" lon="12.9060489"><ele>256.0</ele><time>2026-04-25T12:29:14.291Z</time></trkpt><trkpt lat="41.642223" lon="12.9059292"><ele>255.0</ele><time>2026-04-25T12:29:15.292Z</time></trkpt><trkpt lat="41.6422096" lon="12.9058084"><ele>254.00000000000003</ele><time>2026-04-25T12:29:16.283Z</time></trkpt><trkpt lat="41.6421973" lon="12.9056857"><ele>253.00000000000003</ele><time>2026-04-25T12:29:17.284Z</time></trkpt><trkpt lat="41.6421817" lon="12.9055648"><ele>252.0</ele><time>2026-04-25T12:29:18.284Z</time></trkpt><trkpt lat="41.6421682" lon="12.9054425"><ele>251.0</ele><time>2026-04-25T12:29:19.295Z</time></trkpt><trkpt lat="41.6421554" lon="12.9053256"><ele>251.0</ele><time>2026-04-25T12:29:20.281Z</time></trkpt><trkpt lat="41.6421412" lon="12.9052065"><ele>251.00000000000003</ele><time>2026-04-25T12:29:21.304Z</time></trkpt><trkpt lat="41.6421259" lon="12.9050894"><ele>251.00000000000003</ele><time>2026-04-25T12:29:22.284Z</time></trkpt><trkpt lat="41.6421085" lon="12.904969"><ele>251.0</ele><time>2026-04-25T12:29:23.291Z</time></trkpt><trkpt lat="41.6420906" lon="12.9048461"><ele>251.0</ele><time>2026-04-25T12:29:24.289Z</time></trkpt><trkpt lat="41.642074" lon="12.9047229"><ele>249.60000000000002</ele><time>2026-04-25T12:29:25.287Z</time></trkpt><trkpt lat="41.6420563" lon="12.9045988"><ele>248.20000000000002</ele><time>2026-04-25T12:29:26.291Z</time></trkpt><trkpt lat="41.6420382" lon="12.9044749"><ele>246.79999999999998</ele><time>2026-04-25T12:29:27.28Z</time></trkpt><trkpt lat="41.6420215" lon="12.9043492"><ele>245.39999999999998</ele><time>2026-04-25T12:29:28.287Z</time></trkpt><trkpt lat="41.642006" lon="12.9042277"><ele>244.0</ele><time>2026-04-25T12:29:29.285Z</time></trkpt><trkpt lat="41.641993" lon="12.9041097"><ele>242.79999999999998</ele><time>2026-04-25T12:29:30.282Z</time></trkpt><trkpt lat="41.6419779" lon="12.903991"><ele>241.59999999999997</ele><time>2026-04-25T12:29:31.285Z</time></trkpt><trkpt lat="41.6419566" lon="12.9038721"><ele>240.4</ele><time>2026-04-25T12:29:32.285Z</time></trkpt><trkpt lat="41.6419364" lon="12.9037516"><ele>239.2</ele><time>2026-04-25T12:29:33.281Z</time></trkpt><trkpt lat="41.6419193" lon="12.9036252"><ele>238.0</ele><time>2026-04-25T12:29:34.284Z</time></trkpt><trkpt lat="41.641904" lon="12.9034996"><ele>237.2</ele><time>2026-04-25T12:29:35.283Z</time></trkpt><trkpt lat="41.6418921" lon="12.9033685"><ele>236.4</ele><time>2026-04-25T12:29:36.291Z</time></trkpt><trkpt lat="41.6418782" lon="12.9032364"><ele>235.59999999999997</ele><time>2026-04-25T12:29:37.303Z</time></trkpt><trkpt lat="41.6418606" lon="12.903107"><ele>234.79999999999998</ele><time>2026-04-25T12:29:38.289Z</time></trkpt><trkpt lat="41.6418437" lon="12.9029789"><ele>234.0</ele><time>2026-04-25T12:29:39.29Z</time></trkpt><trkpt lat="41.6418287" lon="12.9028526"><ele>234.0</ele><time>2026-04-25T12:29:40.282Z</time></trkpt><trkpt lat="41.6418136" lon="12.902728"><ele>233.99999999999997</ele><time>2026-04-25T12:29:41.286Z</time></trkpt><trkpt lat="41.6417983" lon="12.9026055"><ele>233.99999999999997</ele><time>2026-04-25T12:29:42.284Z</time></trkpt><trkpt lat="41.6417813" lon="12.9024849"><ele>234.0</ele><time>2026-04-25T12:29:43.29Z</time></trkpt><trkpt lat="41.6417632" lon="12.9023634"><ele>234.0</ele><time>2026-04-25T12:29:44.285Z</time></trkpt><trkpt lat="41.6417449" lon="12.9022427"><ele>233.2</ele><time>2026-04-25T12:29:45.282Z</time></trkpt><trkpt lat="41.6417312" lon="12.9021212"><ele>232.39999999999998</ele><time>2026-04-25T12:29:46.29Z</time></trkpt><trkpt lat="41.6417075" lon="12.9020043"><ele>231.6</ele><time>2026-04-25T12:29:47.283Z</time></trkpt><trkpt lat="41.6416709" lon="12.9018962"><ele>230.8</ele><time>2026-04-25T12:29:48.283Z</time></trkpt><trkpt lat="41.641616" lon="12.901805"><ele>230.0</ele><time>2026-04-25T12:29:49.288Z</time></trkpt><trkpt lat="41.641534" lon="12.9017254"><ele>228.75</ele><time>2026-04-25T12:29:50.283Z</time></trkpt><trkpt lat="41.6414288" lon="12.9016782"><ele>227.5</ele><time>2026-04-25T12:29:51.291Z</time></trkpt><trkpt lat="41.6412963" lon="12.901641"><ele>226.25</ele><time>2026-04-25T12:29:52.29Z</time></trkpt><trkpt lat="41.6411297" lon="12.9016193"><ele>225.0</ele><time>2026-04-25T12:29:53.288Z</time></trkpt><trkpt lat="41.6409338" lon="12.9016238"><ele>223.5</ele><time>2026-04-25T12:29:54.282Z</time></trkpt><trkpt lat="41.6407184" lon="12.9016535"><ele>222.0</ele><time>2026-04-25T12:29:55.292Z</time></trkpt><trkpt lat="41.6404858" lon="12.901696"><ele>220.66666666666669</ele><time>2026-04-25T12:29:56.289Z</time></trkpt><trkpt lat="41.6402681" lon="12.9017434"><ele>219.33333333333334</ele><time>2026-04-25T12:29:57.282Z</time></trkpt><trkpt lat="41.6400636" lon="12.9017791"><ele>218.0</ele><time>2026-04-25T12:29:58.287Z</time></trkpt><trkpt lat="41.6398545" lon="12.901801"><ele>218.33333333333334</ele><time>2026-04-25T12:29:59.283Z</time></trkpt><trkpt lat="41.6396332" lon="12.9018076"><ele>218.66666666666669</ele><time>2026-04-25T12:30:00.283Z</time></trkpt><trkpt lat="41.6394113" lon="12.9017947"><ele>219.0</ele><time>2026-04-25T12:30:01.284Z</time></trkpt><trkpt lat="41.6392082" lon="12.9017733"><ele>219.0</ele><time>2026-04-25T12:30:02.284Z</time></trkpt><trkpt lat="41.6390173" lon="12.9017657"><ele>219.0</ele><time>2026-04-25T12:30:03.289Z</time></trkpt><trkpt lat="41.6388419" lon="12.9017557"><ele>219.0</ele><time>2026-04-25T12:30:04.286Z</time></trkpt><trkpt lat="41.6386808" lon="12.9017468"><ele>217.0</ele><time>2026-04-25T12:30:05.284Z</time></trkpt><trkpt lat="41.6385322" lon="12.9017311"><ele>215.0</ele><time>2026-04-25T12:30:06.284Z</time></trkpt><trkpt lat="41.6383946" lon="12.9017091"><ele>213.0</ele><time>2026-04-25T12:30:07.286Z</time></trkpt><trkpt lat="41.6382645" lon="12.9016775"><ele>211.0</ele><time>2026-04-25T12:30:08.31Z</time></trkpt><trkpt lat="41.6381427" lon="12.9016476"><ele>211.0</ele><time>2026-04-25T12:30:09.282Z</time></trkpt><trkpt lat="41.6380324" lon="12.9016206"><ele>211.0</ele><time>2026-04-25T12:30:10.284Z</time></trkpt><trkpt lat="41.6379337" lon="12.901589"><ele>211.0</ele><time>2026-04-25T12:30:11.281Z</time></trkpt><trkpt lat="41.6378476" lon="12.9015465"><ele>211.0</ele><time>2026-04-25T12:30:12.291Z</time></trkpt><trkpt lat="41.6377781" lon="12.9015035"><ele>211.0</ele><time>2026-04-25T12:30:13.289Z</time></trkpt><trkpt lat="41.6376928" lon="12.9014475"><ele>210.66666666666666</ele><time>2026-04-25T12:30:15.287Z</time></trkpt><trkpt lat="41.6376246" lon="12.9014293"><ele>210.33333333333331</ele><time>2026-04-25T12:30:17.282Z</time></trkpt><trkpt lat="41.6375641" lon="12.9014563"><ele>210.0</ele><time>2026-04-25T12:30:19.291Z</time></trkpt><trkpt lat="41.6374975" lon="12.9015633"><ele>209.66666666666669</ele><time>2026-04-25T12:30:21.285Z</time></trkpt><trkpt lat="41.6374718" lon="12.9016436"><ele>209.33333333333334</ele><time>2026-04-25T12:30:22.283Z</time></trkpt><trkpt lat="41.6374456" lon="12.9017626"><ele>209.0</ele><time>2026-04-25T12:30:23.284Z</time></trkpt><trkpt lat="41.6374289" lon="12.9019406"><ele>209.0</ele><time>2026-04-25T12:30:24.292Z</time></trkpt><trkpt lat="41.6373936" lon="12.9021606"><ele>209.0</ele><time>2026-04-25T12:30:25.291Z</time></trkpt><trkpt lat="41.6373492" lon="12.9023952"><ele>209.0</ele><time>2026-04-25T12:30:26.282Z</time></trkpt><trkpt lat="41.6372902" lon="12.9026011"><ele>208.0</ele><time>2026-04-25T12:30:27.289Z</time></trkpt><trkpt lat="41.6372269" lon="12.9027719"><ele>207.0</ele><time>2026-04-25T12:30:28.291Z</time></trkpt><trkpt lat="41.6371348" lon="12.9029267"><ele>206.0</ele><time>2026-04-25T12:30:29.284Z</time></trkpt><trkpt lat="41.637009" lon="12.9030558"><ele>205.0</ele><time>2026-04-25T12:30:30.283Z</time></trkpt><trkpt lat="41.6368604" lon="12.9031738"><ele>205.0</ele><time>2026-04-25T12:30:31.281Z</time></trkpt><trkpt lat="41.636718" lon="12.9032969"><ele>205.0</ele><time>2026-04-25T12:30:32.285Z</time></trkpt><trkpt lat="41.636572" lon="12.9034167"><ele>205.0</ele><time>2026-04-25T12:30:33.282Z</time></trkpt><trkpt lat="41.6364362" lon="12.9035318"><ele>206.5</ele><time>2026-04-25T12:30:34.282Z</time></trkpt><trkpt lat="41.6363104" lon="12.9036345"><ele>208.0</ele><time>2026-04-25T12:30:35.278Z</time></trkpt><trkpt lat="41.6361826" lon="12.9037116"><ele>209.5</ele><time>2026-04-25T12:30:36.282Z</time></trkpt><trkpt lat="41.6360347" lon="12.9037667"><ele>211.0</ele><time>2026-04-25T12:30:37.285Z</time></trkpt><trkpt lat="41.6358863" lon="12.903781"><ele>206.33333333333331</ele><time>2026-04-25T12:30:38.281Z</time></trkpt><trkpt lat="41.6357368" lon="12.9037588"><ele>201.66666666666669</ele><time>2026-04-25T12:30:39.287Z</time></trkpt><trkpt lat="41.6356029" lon="12.9036976"><ele>197.0</ele><time>2026-04-25T12:30:40.287Z</time></trkpt><trkpt lat="41.6354648" lon="12.9035894"><ele>197.0</ele><time>2026-04-25T12:30:41.287Z</time></trkpt><trkpt lat="41.6353424" lon="12.9034436"><ele>197.0</ele><time>2026-04-25T12:30:42.278Z</time></trkpt><trkpt lat="41.6352387" lon="12.9032837"><ele>197.0</ele><time>2026-04-25T12:30:43.282Z</time></trkpt><trkpt lat="41.6351314" lon="12.9031101"><ele>194.66666666666669</ele><time>2026-04-25T12:30:44.282Z</time></trkpt><trkpt lat="41.6350509" lon="12.9028876"><ele>192.33333333333334</ele><time>2026-04-25T12:30:45.282Z</time></trkpt><trkpt lat="41.6349559" lon="12.9026796"><ele>190.0</ele><time>2026-04-25T12:30:46.292Z</time></trkpt><trkpt lat="41.6348593" lon="12.9024743"><ele>190.0</ele><time>2026-04-25T12:30:47.281Z</time></trkpt><trkpt lat="41.6347576" lon="12.902272"><ele>190.0</ele><time>2026-04-25T12:30:48.28Z</time></trkpt><trkpt lat="41.6346431" lon="12.9020762"><ele>190.0</ele><time>2026-04-25T12:30:49.276Z</time></trkpt><trkpt lat="41.6345036" lon="12.9018884"><ele>187.0</ele><time>2026-04-25T12:30:50.282Z</time></trkpt><trkpt lat="41.6343451" lon="12.9017062"><ele>184.0</ele><time>2026-04-25T12:30:51.409Z</time></trkpt><trkpt lat="41.6339478" lon="12.9013267"><ele>184.0</ele><time>2026-04-25T12:30:53.29Z</time></trkpt><trkpt lat="41.6337171" lon="12.9011367"><ele>184.0</ele><time>2026-04-25T12:30:54.28Z</time></trkpt><trkpt lat="41.6334592" lon="12.900934"><ele>181.5</ele><time>2026-04-25T12:30:55.291Z</time></trkpt><trkpt lat="41.6332005" lon="12.9007365"><ele>179.0</ele><time>2026-04-25T12:30:56.284Z</time></trkpt><trkpt lat="41.6329641" lon="12.9005586"><ele>177.5</ele><time>2026-04-25T12:30:57.29Z</time></trkpt><trkpt lat="41.632744" lon="12.9003776"><ele>176.0</ele><time>2026-04-25T12:30:58.281Z</time></trkpt><trkpt lat="41.6325315" lon="12.9001785"><ele>174.5</ele><time>2026-04-25T12:30:59.29Z</time></trkpt><trkpt lat="41.6323305" lon="12.8999832"><ele>173.0</ele><time>2026-04-25T12:31:00.281Z</time></trkpt><trkpt lat="41.6321505" lon="12.8997918"><ele>173.0</ele><time>2026-04-25T12:31:01.283Z</time></trkpt><trkpt lat="41.631983" lon="12.8996116"><ele>173.0</ele><time>2026-04-25T12:31:02.282Z</time></trkpt><trkpt lat="41.6318161" lon="12.8994428"><ele>173.0</ele><time>2026-04-25T12:31:03.283Z</time></trkpt><trkpt lat="41.6316407" lon="12.8992977"><ele>172.33333333333331</ele><time>2026-04-25T12:31:04.281Z</time></trkpt><trkpt lat="41.631457" lon="12.8991638"><ele>171.66666666666666</ele><time>2026-04-25T12:31:05.285Z</time></trkpt><trkpt lat="41.6312666" lon="12.8990412"><ele>171.0</ele><time>2026-04-25T12:31:06.29Z</time></trkpt><trkpt lat="41.6310814" lon="12.8989263"><ele>169.33333333333334</ele><time>2026-04-25T12:31:07.291Z</time></trkpt><trkpt lat="41.6308995" lon="12.8988325"><ele>167.66666666666669</ele><time>2026-04-25T12:31:08.286Z</time></trkpt><trkpt lat="41.630709" lon="12.8987502"><ele>166.0</ele><time>2026-04-25T12:31:09.293Z</time></trkpt><trkpt lat="41.6304973" lon="12.8986918"><ele>164.5</ele><time>2026-04-25T12:31:10.28Z</time></trkpt><trkpt lat="41.6302751" lon="12.8986508"><ele>163.0</ele><time>2026-04-25T12:31:11.286Z</time></trkpt><trkpt lat="41.630044" lon="12.8986011"><ele>163.0</ele><time>2026-04-25T12:31:12.284Z</time></trkpt><trkpt lat="41.6297915" lon="12.8985295"><ele>163.0</ele><time>2026-04-25T12:31:13.279Z</time></trkpt><trkpt lat="41.6295167" lon="12.8984366"><ele>161.5</ele><time>2026-04-25T12:31:14.284Z</time></trkpt><trkpt lat="41.6292066" lon="12.8983217"><ele>160.0</ele><time>2026-04-25T12:31:15.281Z</time></trkpt><trkpt lat="41.628866" lon="12.8981937"><ele>158.0</ele><time>2026-04-25T12:31:16.283Z</time></trkpt><trkpt lat="41.6285157" lon="12.8980565"><ele>156.0</ele><time>2026-04-25T12:31:17.281Z</time></trkpt><trkpt lat="41.6281437" lon="12.8979203"><ele>156.0</ele><time>2026-04-25T12:31:18.281Z</time></trkpt><trkpt lat="41.6278146" lon="12.8977927"><ele>156.0</ele><time>2026-04-25T12:31:19.281Z</time></trkpt><trkpt lat="41.6275015" lon="12.8976775"><ele>154.0</ele><time>2026-04-25T12:31:20.28Z</time></trkpt><trkpt lat="41.6272209" lon="12.8975732"><ele>152.0</ele><time>2026-04-25T12:31:21.279Z</time></trkpt><trkpt lat="41.6269554" lon="12.8974765"><ele>151.0</ele><time>2026-04-25T12:31:22.285Z</time></trkpt><trkpt lat="41.6267187" lon="12.8973871"><ele>150.0</ele><time>2026-04-25T12:31:23.28Z</time></trkpt><trkpt lat="41.6265303" lon="12.8973186"><ele>149.0</ele><time>2026-04-25T12:31:24.281Z</time></trkpt><trkpt lat="41.6263605" lon="12.8972609"><ele>149.0</ele><time>2026-04-25T12:31:25.281Z</time></trkpt><trkpt lat="41.6262056" lon="12.8972255"><ele>149.0</ele><time>2026-04-25T12:31:26.279Z</time></trkpt><trkpt lat="41.6260525" lon="12.8972214"><ele>149.0</ele><time>2026-04-25T12:31:27.283Z</time></trkpt><trkpt lat="41.6258814" lon="12.8972607"><ele>148.0</ele><time>2026-04-25T12:31:28.284Z</time></trkpt><trkpt lat="41.625703" lon="12.8973474"><ele>147.0</ele><time>2026-04-25T12:31:29.282Z</time></trkpt><trkpt lat="41.6255148" lon="12.8974815"><ele>146.0</ele><time>2026-04-25T12:31:30.284Z</time></trkpt><trkpt lat="41.6253202" lon="12.8976412"><ele>144.5</ele><time>2026-04-25T12:31:31.282Z</time></trkpt><trkpt lat="41.6251051" lon="12.8978025"><ele>143.0</ele><time>2026-04-25T12:31:32.278Z</time></trkpt><trkpt lat="41.6248858" lon="12.8979502"><ele>143.0</ele><time>2026-04-25T12:31:33.28Z</time></trkpt><trkpt lat="41.6246584" lon="12.8980912"><ele>143.0</ele><time>2026-04-25T12:31:34.282Z</time></trkpt><trkpt lat="41.624421" lon="12.8982136"><ele>141.0</ele><time>2026-04-25T12:31:35.276Z</time></trkpt><trkpt lat="41.6241799" lon="12.8983183"><ele>139.0</ele><time>2026-04-25T12:31:36.282Z</time></trkpt><trkpt lat="41.6239319" lon="12.8984079"><ele>139.5</ele><time>2026-04-25T12:31:37.28Z</time></trkpt><trkpt lat="41.62368" lon="12.8984874"><ele>140.0</ele><time>2026-04-25T12:31:38.28Z</time></trkpt><trkpt lat="41.6234255" lon="12.8985585"><ele>138.0</ele><time>2026-04-25T12:31:39.281Z</time></trkpt><trkpt lat="41.6231691" lon="12.898628"><ele>136.0</ele><time>2026-04-25T12:31:40.279Z</time></trkpt><trkpt lat="41.6229114" lon="12.8986873"><ele>135.0</ele><time>2026-04-25T12:31:41.278Z</time></trkpt><trkpt lat="41.6226347" lon="12.8987376"><ele>134.0</ele><time>2026-04-25T12:31:42.281Z</time></trkpt><trkpt lat="41.6223592" lon="12.8987965"><ele>134.0</ele><time>2026-04-25T12:31:43.277Z</time></trkpt><trkpt lat="41.6220893" lon="12.898867"><ele>134.0</ele><time>2026-04-25T12:31:44.277Z</time></trkpt><trkpt lat="41.6218218" lon="12.898932"><ele>132.5</ele><time>2026-04-25T12:31:45.278Z</time></trkpt><trkpt lat="41.6215697" lon="12.8989963"><ele>131.0</ele><time>2026-04-25T12:31:46.278Z</time></trkpt><trkpt lat="41.621316" lon="12.8990632"><ele>127.5</ele><time>2026-04-25T12:31:47.278Z</time></trkpt><trkpt lat="41.6210913" lon="12.8991388"><ele>124.0</ele><time>2026-04-25T12:31:48.279Z</time></trkpt><trkpt lat="41.6208794" lon="12.8992208"><ele>124.5</ele><time>2026-04-25T12:31:49.277Z</time></trkpt><trkpt lat="41.620666" lon="12.899326"><ele>125.0</ele><time>2026-04-25T12:31:50.282Z</time></trkpt><trkpt lat="41.6204483" lon="12.899464"><ele>125.0</ele><time>2026-04-25T12:31:51.279Z</time></trkpt><trkpt lat="41.6202178" lon="12.8996317"><ele>125.0</ele><time>2026-04-25T12:31:52.281Z</time></trkpt><trkpt lat="41.6199734" lon="12.8998151"><ele>125.0</ele><time>2026-04-25T12:31:53.279Z</time></trkpt><trkpt lat="41.6197122" lon="12.899975"><ele>125.0</ele><time>2026-04-25T12:31:54.286Z</time></trkpt><trkpt lat="41.6194573" lon="12.9001253"><ele>124.0</ele><time>2026-04-25T12:31:55.291Z</time></trkpt><trkpt lat="41.6192015" lon="12.9002821"><ele>123.0</ele><time>2026-04-25T12:31:56.28Z</time></trkpt><trkpt lat="41.6189468" lon="12.9004418"><ele>123.0</ele><time>2026-04-25T12:31:57.275Z</time></trkpt><trkpt lat="41.6186831" lon="12.9006134"><ele>123.0</ele><time>2026-04-25T12:31:58.284Z</time></trkpt><trkpt lat="41.6184044" lon="12.9007817"><ele>121.5</ele><time>2026-04-25T12:31:59.279Z</time></trkpt><trkpt lat="41.6181319" lon="12.9009424"><ele>120.0</ele><time>2026-04-25T12:32:00.28Z</time></trkpt><trkpt lat="41.6178759" lon="12.9010882"><ele>118.5</ele><time>2026-04-25T12:32:01.276Z</time></trkpt><trkpt lat="41.6176231" lon="12.9012269"><ele>117.0</ele><time>2026-04-25T12:32:02.28Z</time></trkpt><trkpt lat="41.617387" lon="12.9013426"><ele>117.0</ele><time>2026-04-25T12:32:03.283Z</time></trkpt><trkpt lat="41.6171815" lon="12.9014392"><ele>117.0</ele><time>2026-04-25T12:32:04.278Z</time></trkpt><trkpt lat="41.6169916" lon="12.9015207"><ele>117.0</ele><time>2026-04-25T12:32:05.282Z</time></trkpt><trkpt lat="41.6167908" lon="12.9016129"><ele>115.66666666666666</ele><time>2026-04-25T12:32:06.288Z</time></trkpt><trkpt lat="41.6165942" lon="12.9016791"><ele>114.33333333333333</ele><time>2026-04-25T12:32:07.281Z</time></trkpt><trkpt lat="41.6163986" lon="12.9017243"><ele>113.0</ele><time>2026-04-25T12:32:08.28Z</time></trkpt><trkpt lat="41.6162069" lon="12.9017364"><ele>112.0</ele><time>2026-04-25T12:32:09.277Z</time></trkpt><trkpt lat="41.616005" lon="12.9017285"><ele>111.0</ele><time>2026-04-25T12:32:10.281Z</time></trkpt><trkpt lat="41.6158015" lon="12.9016905"><ele>110.0</ele><time>2026-04-25T12:32:11.28Z</time></trkpt><trkpt lat="41.6156087" lon="12.9016362"><ele>110.0</ele><time>2026-04-25T12:32:12.279Z</time></trkpt><trkpt lat="41.6154347" lon="12.9015648"><ele>110.0</ele><time>2026-04-25T12:32:13.281Z</time></trkpt><trkpt lat="41.6152719" lon="12.9014913"><ele>110.0</ele><time>2026-04-25T12:32:14.282Z</time></trkpt><trkpt lat="41.6151202" lon="12.9014508"><ele>109.33333333333333</ele><time>2026-04-25T12:32:15.282Z</time></trkpt><trkpt lat="41.6149625" lon="12.9014393"><ele>108.66666666666666</ele><time>2026-04-25T12:32:16.282Z</time></trkpt><trkpt lat="41.6148094" lon="12.9014687"><ele>108.0</ele><time>2026-04-25T12:32:17.28Z</time></trkpt><trkpt lat="41.6146401" lon="12.9015468"><ele>107.0</ele><time>2026-04-25T12:32:18.302Z</time></trkpt><trkpt lat="41.6144506" lon="12.901669"><ele>106.0</ele><time>2026-04-25T12:32:19.277Z</time></trkpt><trkpt lat="41.6142364" lon="12.9018203"><ele>104.5</ele><time>2026-04-25T12:32:20.278Z</time></trkpt><trkpt lat="41.6139952" lon="12.9019775"><ele>103.0</ele><time>2026-04-25T12:32:21.277Z</time></trkpt><trkpt lat="41.6137241" lon="12.9021346"><ele>104.5</ele><time>2026-04-25T12:32:22.279Z</time></trkpt><trkpt lat="41.6134284" lon="12.9022906"><ele>106.0</ele><time>2026-04-25T12:32:23.277Z</time></trkpt><trkpt lat="41.6130965" lon="12.9024588"><ele>104.0</ele><time>2026-04-25T12:32:24.28Z</time></trkpt><trkpt lat="41.6127528" lon="12.9026307"><ele>102.0</ele><time>2026-04-25T12:32:25.282Z</time></trkpt><trkpt lat="41.6124299" lon="12.9027904"><ele>102.0</ele><time>2026-04-25T12:32:26.285Z</time></trkpt><trkpt lat="41.6121349" lon="12.9029401"><ele>102.0</ele><time>2026-04-25T12:32:27.288Z</time></trkpt><trkpt lat="41.611863" lon="12.9030842"><ele>101.5</ele><time>2026-04-25T12:32:28.284Z</time></trkpt><trkpt lat="41.6116127" lon="12.9032205"><ele>101.0</ele><time>2026-04-25T12:32:29.276Z</time></trkpt><trkpt lat="41.6113774" lon="12.9033658"><ele>100.0</ele><time>2026-04-25T12:32:30.278Z</time></trkpt><trkpt lat="41.6111529" lon="12.9035303"><ele>99.0</ele><time>2026-04-25T12:32:31.282Z</time></trkpt><trkpt lat="41.6109403" lon="12.9037236"><ele>99.0</ele><time>2026-04-25T12:32:32.28Z</time></trkpt><trkpt lat="41.6107228" lon="12.9039492"><ele>99.0</ele><time>2026-04-25T12:32:33.281Z</time></trkpt><trkpt lat="41.6104984" lon="12.9042114"><ele>98.0</ele><time>2026-04-25T12:32:34.28Z</time></trkpt><trkpt lat="41.6102616" lon="12.904507"><ele>97.0</ele><time>2026-04-25T12:32:35.282Z</time></trkpt><trkpt lat="41.610006" lon="12.9048109"><ele>96.5</ele><time>2026-04-25T12:32:36.288Z</time></trkpt><trkpt lat="41.6097477" lon="12.9051069"><ele>96.0</ele><time>2026-04-25T12:32:37.284Z</time></trkpt><trkpt lat="41.6094801" lon="12.9054015"><ele>95.0</ele><time>2026-04-25T12:32:38.282Z</time></trkpt><trkpt lat="41.6091884" lon="12.9057042"><ele>94.0</ele><time>2026-04-25T12:32:39.281Z</time></trkpt><trkpt lat="41.6089132" lon="12.9059838"><ele>93.5</ele><time>2026-04-25T12:32:40.28Z</time></trkpt><trkpt lat="41.6086576" lon="12.9062368"><ele>93.0</ele><time>2026-04-25T12:32:41.287Z</time></trkpt><trkpt lat="41.6084162" lon="12.9064742"><ele>93.0</ele><time>2026-04-25T12:32:42.278Z</time></trkpt><trkpt lat="41.6081823" lon="12.9066885"><ele>93.0</ele><time>2026-04-25T12:32:43.278Z</time></trkpt><trkpt lat="41.6079536" lon="12.9068831"><ele>93.0</ele><time>2026-04-25T12:32:44.278Z</time></trkpt><trkpt lat="41.6077172" lon="12.9070629"><ele>93.0</ele><time>2026-04-25T12:32:45.279Z</time></trkpt><trkpt lat="41.6074718" lon="12.9072282"><ele>93.0</ele><time>2026-04-25T12:32:46.281Z</time></trkpt><trkpt lat="41.6072175" lon="12.9073822"><ele>93.0</ele><time>2026-04-25T12:32:47.28Z</time></trkpt><trkpt lat="41.6069631" lon="12.9075303"><ele>91.5</ele><time>2026-04-25T12:32:48.286Z</time></trkpt><trkpt lat="41.606713" lon="12.9076722"><ele>90.0</ele><time>2026-04-25T12:32:49.285Z</time></trkpt><trkpt lat="41.6064644" lon="12.9078147"><ele>90.0</ele><time>2026-04-25T12:32:50.281Z</time></trkpt><trkpt lat="41.6062348" lon="12.907949"><ele>90.0</ele><time>2026-04-25T12:32:51.281Z</time></trkpt><trkpt lat="41.6059994" lon="12.9081013"><ele>89.0</ele><time>2026-04-25T12:32:52.28Z</time></trkpt><trkpt lat="41.6057837" lon="12.9082797"><ele>88.0</ele><time>2026-04-25T12:32:53.28Z</time></trkpt><trkpt lat="41.6055713" lon="12.9084511"><ele>87.5</ele><time>2026-04-25T12:32:54.279Z</time></trkpt><trkpt lat="41.6053805" lon="12.9086299"><ele>87.0</ele><time>2026-04-25T12:32:55.288Z</time></trkpt><trkpt lat="41.6052" lon="12.9088283"><ele>86.0</ele><time>2026-04-25T12:32:56.289Z</time></trkpt><trkpt lat="41.6050287" lon="12.909059"><ele>85.0</ele><time>2026-04-25T12:32:57.288Z</time></trkpt><trkpt lat="41.6048591" lon="12.9093155"><ele>85.0</ele><time>2026-04-25T12:32:58.28Z</time></trkpt><trkpt lat="41.6046869" lon="12.9095794"><ele>85.0</ele><time>2026-04-25T12:32:59.285Z</time></trkpt><trkpt lat="41.6044972" lon="12.9098299"><ele>85.0</ele><time>2026-04-25T12:33:00.278Z</time></trkpt><trkpt lat="41.6042916" lon="12.9100664"><ele>85.0</ele><time>2026-04-25T12:33:01.285Z</time></trkpt><trkpt lat="41.6040635" lon="12.9102919"><ele>85.5</ele><time>2026-04-25T12:33:02.278Z</time></trkpt><trkpt lat="41.603805" lon="12.9105238"><ele>86.0</ele><time>2026-04-25T12:33:03.288Z</time></trkpt><trkpt lat="41.6035167" lon="12.9107759"><ele>84.5</ele><time>2026-04-25T12:33:04.28Z</time></trkpt><trkpt lat="41.6032054" lon="12.91105"><ele>83.0</ele><time>2026-04-25T12:33:05.281Z</time></trkpt><trkpt lat="41.6028747" lon="12.9113471"><ele>82.5</ele><time>2026-04-25T12:33:06.289Z</time></trkpt><trkpt lat="41.602522" lon="12.9116695"><ele>82.0</ele><time>2026-04-25T12:33:07.28Z</time></trkpt><trkpt lat="41.6021621" lon="12.9120058"><ele>81.0</ele><time>2026-04-25T12:33:08.289Z</time></trkpt><trkpt lat="41.6018179" lon="12.9123282"><ele>80.0</ele><time>2026-04-25T12:33:09.28Z</time></trkpt><trkpt lat="41.6014921" lon="12.9126452"><ele>78.5</ele><time>2026-04-25T12:33:10.277Z</time></trkpt><trkpt lat="41.6012094" lon="12.9129267"><ele>77.0</ele><time>2026-04-25T12:33:11.283Z</time></trkpt><trkpt lat="41.6009607" lon="12.9131765"><ele>76.5</ele><time>2026-04-25T12:33:12.288Z</time></trkpt><trkpt lat="41.6007198" lon="12.9134442"><ele>76.0</ele><time>2026-04-25T12:33:13.281Z</time></trkpt><trkpt lat="41.600473" lon="12.9137414"><ele>75.0</ele><time>2026-04-25T12:33:14.277Z</time></trkpt><trkpt lat="41.6002167" lon="12.9140702"><ele>74.0</ele><time>2026-04-25T12:33:15.28Z</time></trkpt><trkpt lat="41.599939" lon="12.9144206"><ele>73.0</ele><time>2026-04-25T12:33:16.277Z</time></trkpt><trkpt lat="41.599645" lon="12.9148013"><ele>72.0</ele><time>2026-04-25T12:33:17.28Z</time></trkpt><trkpt lat="41.5993407" lon="12.9151942"><ele>72.0</ele><time>2026-04-25T12:33:18.278Z</time></trkpt><trkpt lat="41.5990203" lon="12.9156083"><ele>72.0</ele><time>2026-04-25T12:33:19.282Z</time></trkpt><trkpt lat="41.5986872" lon="12.9160408"><ele>68.0</ele><time>2026-04-25T12:33:20.28Z</time></trkpt><trkpt lat="41.5983613" lon="12.9164598"><ele>67.5</ele><time>2026-04-25T12:33:21.282Z</time></trkpt><trkpt lat="41.5980615" lon="12.9168415"><ele>67.0</ele><time>2026-04-25T12:33:22.282Z</time></trkpt><trkpt lat="41.5977834" lon="12.917198"><ele>66.0</ele><time>2026-04-25T12:33:23.281Z</time></trkpt><trkpt lat="41.5975241" lon="12.9175311"><ele>65.0</ele><time>2026-04-25T12:33:24.281Z</time></trkpt><trkpt lat="41.5972847" lon="12.9178382"><ele>65.0</ele><time>2026-04-25T12:33:25.281Z</time></trkpt><trkpt lat="41.5970665" lon="12.918121"><ele>65.0</ele><time>2026-04-25T12:33:26.278Z</time></trkpt><trkpt lat="41.5968707" lon="12.918376"><ele>62.5</ele><time>2026-04-25T12:33:27.283Z</time></trkpt><trkpt lat="41.5966912" lon="12.9186076"><ele>60.0</ele><time>2026-04-25T12:33:28.281Z</time></trkpt><trkpt lat="41.5965322" lon="12.9188168"><ele>60.0</ele><time>2026-04-25T12:33:29.278Z</time></trkpt><trkpt lat="41.5963831" lon="12.9190058"><ele>60.0</ele><time>2026-04-25T12:33:30.281Z</time></trkpt><trkpt lat="41.5962428" lon="12.9191664"><ele>60.0</ele><time>2026-04-25T12:33:31.278Z</time></trkpt><trkpt lat="41.59609" lon="12.9193019"><ele>58.66666666666667</ele><time>2026-04-25T12:33:32.287Z</time></trkpt><trkpt lat="41.5959172" lon="12.9193995"><ele>57.333333333333336</ele><time>2026-04-25T12:33:33.288Z</time></trkpt><trkpt lat="41.5957132" lon="12.9194469"><ele>56.0</ele><time>2026-04-25T12:33:34.279Z</time></trkpt><trkpt lat="41.5954936" lon="12.9194803"><ele>56.0</ele><time>2026-04-25T12:33:35.282Z</time></trkpt><trkpt lat="41.5952376" lon="12.9195254"><ele>56.0</ele><time>2026-04-25T12:33:36.288Z</time></trkpt><trkpt lat="41.5949399" lon="12.9195764"><ele>56.0</ele><time>2026-04-25T12:33:37.288Z</time></trkpt><trkpt lat="41.5946033" lon="12.9196338"><ele>56.0</ele><time>2026-04-25T12:33:38.287Z</time></trkpt><trkpt lat="41.5942431" lon="12.9196958"><ele>55.0</ele><time>2026-04-25T12:33:39.275Z</time></trkpt><trkpt lat="41.5938606" lon="12.9197666"><ele>54.0</ele><time>2026-04-25T12:33:40.282Z</time></trkpt><trkpt lat="41.5934876" lon="12.9198302"><ele>53.0</ele><time>2026-04-25T12:33:41.282Z</time></trkpt><trkpt lat="41.5931331" lon="12.9198874"><ele>52.0</ele><time>2026-04-25T12:33:42.275Z</time></trkpt><trkpt lat="41.5927771" lon="12.9199454"><ele>50.5</ele><time>2026-04-25T12:33:43.282Z</time></trkpt><trkpt lat="41.5924262" lon="12.9199987"><ele>49.0</ele><time>2026-04-25T12:33:44.281Z</time></trkpt><trkpt lat="41.592086" lon="12.920056"><ele>50.5</ele><time>2026-04-25T12:33:45.289Z</time></trkpt><trkpt lat="41.5917276" lon="12.9201113"><ele>52.0</ele><time>2026-04-25T12:33:46.28Z</time></trkpt><trkpt lat="41.5913565" lon="12.9201744"><ele>51.5</ele><time>2026-04-25T12:33:47.281Z</time></trkpt><trkpt lat="41.5910029" lon="12.9202334"><ele>51.0</ele><time>2026-04-25T12:33:48.284Z</time></trkpt><trkpt lat="41.5906636" lon="12.9202931"><ele>52.5</ele><time>2026-04-25T12:33:49.286Z</time></trkpt><trkpt lat="41.5903259" lon="12.9203538"><ele>54.0</ele><time>2026-04-25T12:33:50.284Z</time></trkpt><trkpt lat="41.5899933" lon="12.9204132"><ele>54.0</ele><time>2026-04-25T12:33:51.276Z</time></trkpt><trkpt lat="41.5896653" lon="12.9204704"><ele>54.0</ele><time>2026-04-25T12:33:52.281Z</time></trkpt><trkpt lat="41.5893435" lon="12.9205257"><ele>54.5</ele><time>2026-04-25T12:33:53.281Z</time></trkpt><trkpt lat="41.5890271" lon="12.9205737"><ele>55.0</ele><time>2026-04-25T12:33:54.29Z</time></trkpt><trkpt lat="41.5887136" lon="12.9206236"><ele>55.0</ele><time>2026-04-25T12:33:55.289Z</time></trkpt><trkpt lat="41.5884058" lon="12.9206734"><ele>55.0</ele><time>2026-04-25T12:33:56.287Z</time></trkpt><trkpt lat="41.5881033" lon="12.9207225"><ele>55.5</ele><time>2026-04-25T12:33:57.286Z</time></trkpt><trkpt lat="41.5878042" lon="12.9207754"><ele>56.0</ele><time>2026-04-25T12:33:58.287Z</time></trkpt><trkpt lat="41.5875187" lon="12.9208261"><ele>56.0</ele><time>2026-04-25T12:33:59.283Z</time></trkpt><trkpt lat="41.5872478" lon="12.9208761"><ele>56.0</ele><time>2026-04-25T12:34:00.277Z</time></trkpt><trkpt lat="41.5869675" lon="12.9209449"><ele>54.5</ele><time>2026-04-25T12:34:01.286Z</time></trkpt><trkpt lat="41.5866855" lon="12.9210343"><ele>53.0</ele><time>2026-04-25T12:34:02.277Z</time></trkpt><trkpt lat="41.5863799" lon="12.921149"><ele>52.0</ele><time>2026-04-25T12:34:03.289Z</time></trkpt><trkpt lat="41.5860479" lon="12.921287"><ele>51.0</ele><time>2026-04-25T12:34:04.28Z</time></trkpt><trkpt lat="41.585683" lon="12.9214468"><ele>50.0</ele><time>2026-04-25T12:34:05.28Z</time></trkpt><trkpt lat="41.5852963" lon="12.9216185"><ele>49.0</ele><time>2026-04-25T12:34:06.277Z</time></trkpt><trkpt lat="41.5848845" lon="12.9217999"><ele>47.0</ele><time>2026-04-25T12:34:07.286Z</time></trkpt><trkpt lat="41.5844683" lon="12.9219862"><ele>45.0</ele><time>2026-04-25T12:34:08.284Z</time></trkpt><trkpt lat="41.5840446" lon="12.9221773"><ele>44.0</ele><time>2026-04-25T12:34:09.288Z</time></trkpt><trkpt lat="41.5836073" lon="12.9223701"><ele>46.0</ele><time>2026-04-25T12:34:10.288Z</time></trkpt><trkpt lat="41.5831616" lon="12.9225686"><ele>42.0</ele><time>2026-04-25T12:34:11.275Z</time></trkpt><trkpt lat="41.5827149" lon="12.9227642"><ele>42.0</ele><time>2026-04-25T12:34:12.286Z</time></trkpt><trkpt lat="41.5822643" lon="12.9229612"><ele>40.0</ele><time>2026-04-25T12:34:13.279Z</time></trkpt><trkpt lat="41.5818087" lon="12.9231618"><ele>40.0</ele><time>2026-04-25T12:34:14.28Z</time></trkpt><trkpt lat="41.5813448" lon="12.9233641"><ele>37.0</ele><time>2026-04-25T12:34:15.287Z</time></trkpt><trkpt lat="41.5808646" lon="12.9235747"><ele>37.0</ele><time>2026-04-25T12:34:16.282Z</time></trkpt><trkpt lat="41.5804033" lon="12.9237769"><ele>35.5</ele><time>2026-04-25T12:34:17.279Z</time></trkpt><trkpt lat="41.579987" lon="12.9239628"><ele>34.0</ele><time>2026-04-25T12:34:18.286Z</time></trkpt><trkpt lat="41.5795838" lon="12.9241388"><ele>34.0</ele><time>2026-04-25T12:34:19.279Z</time></trkpt><trkpt lat="41.5791969" lon="12.9243086"><ele>34.0</ele><time>2026-04-25T12:34:20.281Z</time></trkpt><trkpt lat="41.5788279" lon="12.9244744"><ele>34.0</ele><time>2026-04-25T12:34:21.277Z</time></trkpt><trkpt lat="41.5784699" lon="12.9246305"><ele>34.0</ele><time>2026-04-25T12:34:22.276Z</time></trkpt><trkpt lat="41.5781395" lon="12.9247788"><ele>32.5</ele><time>2026-04-25T12:34:23.278Z</time></trkpt><trkpt lat="41.5778315" lon="12.924913"><ele>31.0</ele><time>2026-04-25T12:34:24.278Z</time></trkpt><trkpt lat="41.5775489" lon="12.9250369"><ele>31.0</ele><time>2026-04-25T12:34:25.288Z</time></trkpt><trkpt lat="41.5772803" lon="12.9251544"><ele>31.0</ele><time>2026-04-25T12:34:26.279Z</time></trkpt><trkpt lat="41.5770246" lon="12.9252608"><ele>31.5</ele><time>2026-04-25T12:34:27.287Z</time></trkpt><trkpt lat="41.5767763" lon="12.9253705"><ele>32.0</ele><time>2026-04-25T12:34:28.287Z</time></trkpt><trkpt lat="41.5765303" lon="12.9254768"><ele>32.0</ele><time>2026-04-25T12:34:29.281Z</time></trkpt><trkpt lat="41.5762867" lon="12.9255793"><ele>32.0</ele><time>2026-04-25T12:34:30.275Z</time></trkpt><trkpt lat="41.5760528" lon="12.9256878"><ele>32.5</ele><time>2026-04-25T12:34:31.28Z</time></trkpt><trkpt lat="41.5758219" lon="12.9257894"><ele>33.0</ele><time>2026-04-25T12:34:32.28Z</time></trkpt><trkpt lat="41.5756035" lon="12.9258845"><ele>33.0</ele><time>2026-04-25T12:34:33.282Z</time></trkpt><trkpt lat="41.575415" lon="12.925969"><ele>33.0</ele><time>2026-04-25T12:34:34.28Z</time></trkpt><trkpt lat="41.5752361" lon="12.9260544"><ele>33.0</ele><time>2026-04-25T12:34:35.277Z</time></trkpt><trkpt lat="41.5750612" lon="12.9261355"><ele>33.0</ele><time>2026-04-25T12:34:36.283Z</time></trkpt><trkpt lat="41.5748972" lon="12.9262069"><ele>33.0</ele><time>2026-04-25T12:34:37.282Z</time></trkpt><trkpt lat="41.5747416" lon="12.9262776"><ele>33.0</ele><time>2026-04-25T12:34:38.277Z</time></trkpt><trkpt lat="41.5745983" lon="12.9263403"><ele>33.0</ele><time>2026-04-25T12:34:39.28Z</time></trkpt><trkpt lat="41.5744652" lon="12.9263999"><ele>33.0</ele><time>2026-04-25T12:34:40.28Z</time></trkpt><trkpt lat="41.5743405" lon="12.9264523"><ele>33.0</ele><time>2026-04-25T12:34:41.284Z</time></trkpt><trkpt lat="41.5742192" lon="12.9264965"><ele>33.0</ele><time>2026-04-25T12:34:42.277Z</time></trkpt><trkpt lat="41.5741092" lon="12.9265444"><ele>33.0</ele><time>2026-04-25T12:34:43.28Z</time></trkpt><trkpt lat="41.574001" lon="12.9265888"><ele>33.0</ele><time>2026-04-25T12:34:44.28Z</time></trkpt><trkpt lat="41.5738863" lon="12.9266393"><ele>33.0</ele><time>2026-04-25T12:34:45.285Z</time></trkpt><trkpt lat="41.573772" lon="12.9266927"><ele>33.0</ele><time>2026-04-25T12:34:46.28Z</time></trkpt><trkpt lat="41.5736635" lon="12.9267439"><ele>33.4</ele><time>2026-04-25T12:34:47.279Z</time></trkpt><trkpt lat="41.57356" lon="12.9267916"><ele>33.8</ele><time>2026-04-25T12:34:48.282Z</time></trkpt><trkpt lat="41.5734599" lon="12.9268376"><ele>34.2</ele><time>2026-04-25T12:34:49.276Z</time></trkpt><trkpt lat="41.5733578" lon="12.9268698"><ele>34.6</ele><time>2026-04-25T12:34:50.279Z</time></trkpt><trkpt lat="41.5732528" lon="12.9268852"><ele>35.0</ele><time>2026-04-25T12:34:51.287Z</time></trkpt><trkpt lat="41.5731459" lon="12.9269104"><ele>35.0</ele><time>2026-04-25T12:34:52.277Z</time></trkpt><trkpt lat="41.5730472" lon="12.9269679"><ele>35.0</ele><time>2026-04-25T12:34:53.28Z</time></trkpt><trkpt lat="41.5729575" lon="12.9270474"><ele>35.0</ele><time>2026-04-25T12:34:54.282Z</time></trkpt><trkpt lat="41.5728759" lon="12.927158"><ele>35.0</ele><time>2026-04-25T12:34:55.279Z</time></trkpt><trkpt lat="41.5727953" lon="12.9272932"><ele>34.5</ele><time>2026-04-25T12:34:56.283Z</time></trkpt><trkpt lat="41.572705" lon="12.927441"><ele>34.0</ele><time>2026-04-25T12:34:57.287Z</time></trkpt><trkpt lat="41.5726118" lon="12.9275882"><ele>33.5</ele><time>2026-04-25T12:34:58.28Z</time></trkpt><trkpt lat="41.5725212" lon="12.9277287"><ele>33.0</ele><time>2026-04-25T12:34:59.285Z</time></trkpt><trkpt lat="41.5724333" lon="12.9278612"><ele>33.0</ele><time>2026-04-25T12:35:00.278Z</time></trkpt><trkpt lat="41.5723524" lon="12.9279821"><ele>33.0</ele><time>2026-04-25T12:35:01.28Z</time></trkpt><trkpt lat="41.5722733" lon="12.9280936"><ele>33.0</ele><time>2026-04-25T12:35:02.281Z</time></trkpt><trkpt lat="41.5722054" lon="12.9281962"><ele>33.0</ele><time>2026-04-25T12:35:03.289Z</time></trkpt><trkpt lat="41.5721357" lon="12.9282936"><ele>33.0</ele><time>2026-04-25T12:35:04.278Z</time></trkpt><trkpt lat="41.5720671" lon="12.9283934"><ele>33.0</ele><time>2026-04-25T12:35:05.285Z</time></trkpt><trkpt lat="41.5719858" lon="12.9285138"><ele>33.0</ele><time>2026-04-25T12:35:06.279Z</time></trkpt><trkpt lat="41.5718903" lon="12.9286567"><ele>33.0</ele><time>2026-04-25T12:35:07.279Z</time></trkpt><trkpt lat="41.5717679" lon="12.9288475"><ele>33.0</ele><time>2026-04-25T12:35:08.279Z</time></trkpt><trkpt lat="41.5716192" lon="12.9290774"><ele>33.0</ele><time>2026-04-25T12:35:09.288Z</time></trkpt><trkpt lat="41.5714491" lon="12.9293426"><ele>32.5</ele><time>2026-04-25T12:35:10.278Z</time></trkpt><trkpt lat="41.5712549" lon="12.9296482"><ele>32.0</ele><time>2026-04-25T12:35:11.286Z</time></trkpt><trkpt lat="41.571035" lon="12.9299851"><ele>32.5</ele><time>2026-04-25T12:35:12.282Z</time></trkpt><trkpt lat="41.5707988" lon="12.9303421"><ele>33.0</ele><time>2026-04-25T12:35:13.281Z</time></trkpt><trkpt lat="41.5705468" lon="12.9307219"><ele>32.5</ele><time>2026-04-25T12:35:14.281Z</time></trkpt><trkpt lat="41.57028" lon="12.931122"><ele>32.0</ele><time>2026-04-25T12:35:15.28Z</time></trkpt><trkpt lat="41.5700012" lon="12.9315425"><ele>32.0</ele><time>2026-04-25T12:35:16.278Z</time></trkpt><trkpt lat="41.5697184" lon="12.9319681"><ele>32.0</ele><time>2026-04-25T12:35:17.285Z</time></trkpt><trkpt lat="41.5694281" lon="12.932409"><ele>31.0</ele><time>2026-04-25T12:35:18.279Z</time></trkpt><trkpt lat="41.5691393" lon="12.9328488"><ele>30.0</ele><time>2026-04-25T12:35:19.284Z</time></trkpt><trkpt lat="41.5688424" lon="12.933301"><ele>29.5</ele><time>2026-04-25T12:35:20.288Z</time></trkpt><trkpt lat="41.5685479" lon="12.9337466"><ele>29.0</ele><time>2026-04-25T12:35:21.287Z</time></trkpt><trkpt lat="41.5682523" lon="12.9341954"><ele>29.5</ele><time>2026-04-25T12:35:22.287Z</time></trkpt><trkpt lat="41.5679565" lon="12.9346399"><ele>30.0</ele><time>2026-04-25T12:35:23.283Z</time></trkpt><trkpt lat="41.5676571" lon="12.9350921"><ele>30.0</ele><time>2026-04-25T12:35:24.277Z</time></trkpt><trkpt lat="41.5673533" lon="12.9355504"><ele>28.0</ele><time>2026-04-25T12:35:25.275Z</time></trkpt><trkpt lat="41.5670433" lon="12.9360186"><ele>29.0</ele><time>2026-04-25T12:35:26.286Z</time></trkpt><trkpt lat="41.566726" lon="12.9364943"><ele>28.0</ele><time>2026-04-25T12:35:27.287Z</time></trkpt><trkpt lat="41.566418" lon="12.9369598"><ele>28.0</ele><time>2026-04-25T12:35:28.285Z</time></trkpt><trkpt lat="41.5661321" lon="12.9373952"><ele>28.0</ele><time>2026-04-25T12:35:29.286Z</time></trkpt><trkpt lat="41.5658626" lon="12.9378054"><ele>28.0</ele><time>2026-04-25T12:35:30.287Z</time></trkpt><trkpt lat="41.565604" lon="12.938189"><ele>28.0</ele><time>2026-04-25T12:35:31.28Z</time></trkpt><trkpt lat="41.5653585" lon="12.9385583"><ele>27.5</ele><time>2026-04-25T12:35:32.28Z</time></trkpt><trkpt lat="41.5651147" lon="12.9389263"><ele>27.0</ele><time>2026-04-25T12:35:33.282Z</time></trkpt><trkpt lat="41.5648775" lon="12.9392881"><ele>27.0</ele><time>2026-04-25T12:35:34.293Z</time></trkpt><trkpt lat="41.5646399" lon="12.9396468"><ele>27.0</ele><time>2026-04-25T12:35:35.283Z</time></trkpt><trkpt lat="41.5644051" lon="12.9400047"><ele>27.0</ele><time>2026-04-25T12:35:36.287Z</time></trkpt><trkpt lat="41.5641709" lon="12.940356"><ele>27.0</ele><time>2026-04-25T12:35:37.283Z</time></trkpt><trkpt lat="41.5639376" lon="12.9407107"><ele>27.0</ele><time>2026-04-25T12:35:38.292Z</time></trkpt><trkpt lat="41.5637063" lon="12.9410637"><ele>27.0</ele><time>2026-04-25T12:35:39.288Z</time></trkpt><trkpt lat="41.5634745" lon="12.9414125"><ele>26.5</ele><time>2026-04-25T12:35:40.279Z</time></trkpt><trkpt lat="41.5632405" lon="12.9417735"><ele>26.0</ele><time>2026-04-25T12:35:41.282Z</time></trkpt><trkpt lat="41.5630035" lon="12.9421334"><ele>26.0</ele><time>2026-04-25T12:35:42.281Z</time></trkpt><trkpt lat="41.5627679" lon="12.9424945"><ele>26.0</ele><time>2026-04-25T12:35:43.288Z</time></trkpt><trkpt lat="41.5625303" lon="12.9428481"><ele>26.0</ele><time>2026-04-25T12:35:44.288Z</time></trkpt><trkpt lat="41.5622924" lon="12.9432055"><ele>26.0</ele><time>2026-04-25T12:35:45.279Z</time></trkpt><trkpt lat="41.5620496" lon="12.9435681"><ele>25.5</ele><time>2026-04-25T12:35:46.282Z</time></trkpt><trkpt lat="41.5618047" lon="12.9439382"><ele>25.0</ele><time>2026-04-25T12:35:47.279Z</time></trkpt><trkpt lat="41.5615656" lon="12.9443079"><ele>23.5</ele><time>2026-04-25T12:35:48.281Z</time></trkpt><trkpt lat="41.5613285" lon="12.944667"><ele>22.0</ele><time>2026-04-25T12:35:49.281Z</time></trkpt><trkpt lat="41.5610964" lon="12.9450228"><ele>22.5</ele><time>2026-04-25T12:35:50.279Z</time></trkpt><trkpt lat="41.5608735" lon="12.9453575"><ele>23.0</ele><time>2026-04-25T12:35:51.281Z</time></trkpt><trkpt lat="41.5606628" lon="12.9456694"><ele>23.0</ele><time>2026-04-25T12:35:52.287Z</time></trkpt><trkpt lat="41.5604627" lon="12.9459729"><ele>23.0</ele><time>2026-04-25T12:35:53.28Z</time></trkpt><trkpt lat="41.5602683" lon="12.9462666"><ele>23.0</ele><time>2026-04-25T12:35:54.29Z</time></trkpt><trkpt lat="41.5600628" lon="12.9465748"><ele>23.0</ele><time>2026-04-25T12:35:55.29Z</time></trkpt><trkpt lat="41.5598488" lon="12.9468988"><ele>22.0</ele><time>2026-04-25T12:35:56.289Z</time></trkpt><trkpt lat="41.5596262" lon="12.9472396"><ele>21.0</ele><time>2026-04-25T12:35:57.287Z</time></trkpt><trkpt lat="41.5593934" lon="12.9475923"><ele>20.5</ele><time>2026-04-25T12:35:58.276Z</time></trkpt><trkpt lat="41.5591617" lon="12.9479461"><ele>20.0</ele><time>2026-04-25T12:35:59.278Z</time></trkpt><trkpt lat="41.5589453" lon="12.9482764"><ele>20.0</ele><time>2026-04-25T12:36:00.282Z</time></trkpt><trkpt lat="41.5587586" lon="12.9485612"><ele>20.0</ele><time>2026-04-25T12:36:01.285Z</time></trkpt><trkpt lat="41.5585866" lon="12.9488218"><ele>21.0</ele><time>2026-04-25T12:36:02.28Z</time></trkpt><trkpt lat="41.5584285" lon="12.9490651"><ele>22.0</ele><time>2026-04-25T12:36:03.288Z</time></trkpt><trkpt lat="41.5582721" lon="12.9493069"><ele>22.0</ele><time>2026-04-25T12:36:04.281Z</time></trkpt><trkpt lat="41.5581043" lon="12.9495634"><ele>22.0</ele><time>2026-04-25T12:36:05.281Z</time></trkpt><trkpt lat="41.5579137" lon="12.9498459"><ele>21.5</ele><time>2026-04-25T12:36:06.285Z</time></trkpt><trkpt lat="41.5577004" lon="12.9501557"><ele>21.0</ele><time>2026-04-25T12:36:07.297Z</time></trkpt><trkpt lat="41.5574634" lon="12.9505052"><ele>21.0</ele><time>2026-04-25T12:36:08.286Z</time></trkpt><trkpt lat="41.5572061" lon="12.9508945"><ele>21.0</ele><time>2026-04-25T12:36:09.291Z</time></trkpt><trkpt lat="41.5569272" lon="12.9513189"><ele>21.5</ele><time>2026-04-25T12:36:10.281Z</time></trkpt><trkpt lat="41.5566441" lon="12.9517479"><ele>22.0</ele><time>2026-04-25T12:36:11.283Z</time></trkpt><trkpt lat="41.5563892" lon="12.9521315"><ele>21.0</ele><time>2026-04-25T12:36:12.291Z</time></trkpt><trkpt lat="41.5561515" lon="12.9524906"><ele>20.0</ele><time>2026-04-25T12:36:13.286Z</time></trkpt><trkpt lat="41.5559349" lon="12.9528158"><ele>20.0</ele><time>2026-04-25T12:36:14.289Z</time></trkpt><trkpt lat="41.5557372" lon="12.9531143"><ele>20.0</ele><time>2026-04-25T12:36:15.284Z</time></trkpt><trkpt lat="41.5555592" lon="12.9533844"><ele>20.0</ele><time>2026-04-25T12:36:16.278Z</time></trkpt><trkpt lat="41.5553919" lon="12.9536427"><ele>20.0</ele><time>2026-04-25T12:36:17.276Z</time></trkpt><trkpt lat="41.5552276" lon="12.9538884"><ele>19.5</ele><time>2026-04-25T12:36:18.279Z</time></trkpt><trkpt lat="41.5550671" lon="12.9541293"><ele>19.0</ele><time>2026-04-25T12:36:19.281Z</time></trkpt><trkpt lat="41.5549012" lon="12.9543794"><ele>19.0</ele><time>2026-04-25T12:36:20.275Z</time></trkpt><trkpt lat="41.5547399" lon="12.9546232"><ele>19.0</ele><time>2026-04-25T12:36:21.28Z</time></trkpt><trkpt lat="41.5545824" lon="12.9548593"><ele>18.5</ele><time>2026-04-25T12:36:22.279Z</time></trkpt><trkpt lat="41.5544346" lon="12.9550815"><ele>18.0</ele><time>2026-04-25T12:36:23.286Z</time></trkpt><trkpt lat="41.5424807" lon="12.9505011"><ele>18.5</ele><time>2026-04-25T12:37:39.288Z</time></trkpt><trkpt lat="41.5424238" lon="12.9504014"><ele>19.0</ele><time>2026-04-25T12:37:40.281Z</time></trkpt><trkpt lat="41.5423908" lon="12.9502972"><ele>19.5</ele><time>2026-04-25T12:37:41.283Z</time></trkpt><trkpt lat="41.5423778" lon="12.9502015"><ele>20.0</ele><time>2026-04-25T12:37:42.284Z</time></trkpt><trkpt lat="41.5423542" lon="12.9501073"><ele>20.5</ele><time>2026-04-25T12:37:43.282Z</time></trkpt><trkpt lat="41.5423113" lon="12.9500414"><ele>21.0</ele><time>2026-04-25T12:37:44.28Z</time></trkpt><trkpt lat="41.5421888" lon="12.950011"><ele>21.0</ele><time>2026-04-25T12:37:46.28Z</time></trkpt><trkpt lat="41.5421282" lon="12.9500512"><ele>21.0</ele><time>2026-04-25T12:37:47.279Z</time></trkpt><trkpt lat="41.5420819" lon="12.9501136"><ele>21.0</ele><time>2026-04-25T12:37:48.277Z</time></trkpt><trkpt lat="41.5420254" lon="12.9501667"><ele>21.0</ele><time>2026-04-25T12:37:49.281Z</time></trkpt><trkpt lat="41.5419532" lon="12.9501852"><ele>21.0</ele><time>2026-04-25T12:37:50.281Z</time></trkpt><trkpt lat="41.5418818" lon="12.9501701"><ele>21.0</ele><time>2026-04-25T12:37:51.279Z</time></trkpt><trkpt lat="41.5418053" lon="12.9501462"><ele>21.0</ele><time>2026-04-25T12:37:52.283Z</time></trkpt><trkpt lat="41.5416967" lon="12.9501076"><ele>21.25</ele><time>2026-04-25T12:37:53.286Z</time></trkpt><trkpt lat="41.5415803" lon="12.9500473"><ele>21.5</ele><time>2026-04-25T12:37:54.279Z</time></trkpt><trkpt lat="41.5413838" lon="12.9499464"><ele>21.75</ele><time>2026-04-25T12:37:56.289Z</time></trkpt><trkpt lat="41.5412992" lon="12.9499044"><ele>22.0</ele><time>2026-04-25T12:37:57.283Z</time></trkpt><trkpt lat="41.5412397" lon="12.9498652"><ele>21.25</ele><time>2026-04-25T12:37:58.278Z</time></trkpt><trkpt lat="41.5411662" lon="12.9498168"><ele>20.5</ele><time>2026-04-25T12:38:00.279Z</time></trkpt><trkpt lat="41.5410678" lon="12.9497379"><ele>19.75</ele><time>2026-04-25T12:38:07.289Z</time></trkpt><trkpt lat="41.540956" lon="12.9496768"><ele>19.0</ele><time>2026-04-25T12:38:08.292Z</time></trkpt><trkpt lat="41.5408053" lon="12.9495984"><ele>19.0</ele><time>2026-04-25T12:38:09.289Z</time></trkpt><trkpt lat="41.5406706" lon="12.9495299"><ele>19.0</ele><time>2026-04-25T12:38:10.288Z</time></trkpt><trkpt lat="41.5405562" lon="12.9494663"><ele>19.0</ele><time>2026-04-25T12:38:11.29Z</time></trkpt><trkpt lat="41.5404574" lon="12.9494184"><ele>19.0</ele><time>2026-04-25T12:38:12.288Z</time></trkpt><trkpt lat="41.5403768" lon="12.9493739"><ele>18.0</ele><time>2026-04-25T12:38:13.288Z</time></trkpt><trkpt lat="41.5403072" lon="12.9493363"><ele>18.0</ele><time>2026-04-25T12:38:14.287Z</time></trkpt><trkpt lat="41.5402072" lon="12.9493342"><ele>18.0</ele><time>2026-04-25T12:38:16.296Z</time></trkpt></trkseg></trk></gpx>